<?xml version="1.0" encoding="UTF-8" standalone="no" ?>
<gpx xmlns="http://www.topografix.com/GPX/1/1" xmlns:xsi="http://www.w3.org/2001/XMLSchema-instance" xsi:schemaLocation="http://www.topografix.com/GPX/1/1 http://www.topografix.com/GPX/1/1/gpx.xsd" version="1.1" creator="VisuGPX - https://www.visugpx.com">
  <metadata>
    <name>pointe du Vallon</name>
    <desc><![CDATA[Départ sous le col du Noyer
Rando très sauvage dans un super vallon. A partir du col de la Saume c'est hors sentiers, dans les paturages. 
Le temps était incertain, mais nous n'avons rencontré personne.

La vue au sommet est très belle]]></desc>
  </metadata>
  <trk>
    <name><![CDATA[pointe du Vallon]]></name>
    <trkseg>
      <trkpt lat="44.69914" lon="5.99811">
        <ele>1489</ele>
        <time>2021-09-20T08:06:55Z</time>
      </trkpt>
      <trkpt lat="44.69914" lon="5.99811">
        <ele>1489</ele>
        <time>2021-09-20T08:06:56Z</time>
      </trkpt>
      <trkpt lat="44.69914" lon="5.99812">
        <ele>1489</ele>
        <time>2021-09-20T08:06:57Z</time>
      </trkpt>
      <trkpt lat="44.69913" lon="5.99812">
        <ele>1489</ele>
        <time>2021-09-20T08:06:58Z</time>
      </trkpt>
      <trkpt lat="44.69913" lon="5.99812">
        <ele>1489</ele>
        <time>2021-09-20T08:06:59Z</time>
      </trkpt>
      <trkpt lat="44.69913" lon="5.99811">
        <ele>1489</ele>
        <time>2021-09-20T08:07:00Z</time>
      </trkpt>
      <trkpt lat="44.69913" lon="5.99811">
        <ele>1489</ele>
        <time>2021-09-20T08:07:01Z</time>
      </trkpt>
      <trkpt lat="44.69913" lon="5.99811">
        <ele>1489</ele>
        <time>2021-09-20T08:07:02Z</time>
      </trkpt>
      <trkpt lat="44.69913" lon="5.9981">
        <ele>1489</ele>
        <time>2021-09-20T08:07:03Z</time>
      </trkpt>
      <trkpt lat="44.69914" lon="5.9981">
        <ele>1489</ele>
        <time>2021-09-20T08:07:15Z</time>
      </trkpt>
      <trkpt lat="44.69914" lon="5.9981">
        <ele>1489</ele>
        <time>2021-09-20T08:07:16Z</time>
      </trkpt>
      <trkpt lat="44.69914" lon="5.9981">
        <ele>1489</ele>
        <time>2021-09-20T08:07:17Z</time>
      </trkpt>
      <trkpt lat="44.69914" lon="5.9981">
        <ele>1489</ele>
        <time>2021-09-20T08:07:18Z</time>
      </trkpt>
      <trkpt lat="44.69914" lon="5.9981">
        <ele>1489</ele>
        <time>2021-09-20T08:07:19Z</time>
      </trkpt>
      <trkpt lat="44.69913" lon="5.99809">
        <ele>1489</ele>
        <time>2021-09-20T08:07:20Z</time>
      </trkpt>
      <trkpt lat="44.69913" lon="5.99808">
        <ele>1489</ele>
        <time>2021-09-20T08:07:21Z</time>
      </trkpt>
      <trkpt lat="44.69914" lon="5.99806">
        <ele>1489</ele>
        <time>2021-09-20T08:07:40Z</time>
      </trkpt>
      <trkpt lat="44.69914" lon="5.99806">
        <ele>1489</ele>
        <time>2021-09-20T08:07:41Z</time>
      </trkpt>
      <trkpt lat="44.69915" lon="5.99805">
        <ele>1489</ele>
        <time>2021-09-20T08:07:42Z</time>
      </trkpt>
      <trkpt lat="44.69916" lon="5.99806">
        <ele>1489</ele>
        <time>2021-09-20T08:08:07Z</time>
      </trkpt>
      <trkpt lat="44.69917" lon="5.99806">
        <ele>1489</ele>
        <time>2021-09-20T08:08:08Z</time>
      </trkpt>
      <trkpt lat="44.69917" lon="5.99807">
        <ele>1489</ele>
        <time>2021-09-20T08:08:09Z</time>
      </trkpt>
      <trkpt lat="44.69917" lon="5.99807">
        <ele>1489</ele>
        <time>2021-09-20T08:08:19Z</time>
      </trkpt>
      <trkpt lat="44.69917" lon="5.99807">
        <ele>1489</ele>
        <time>2021-09-20T08:08:20Z</time>
      </trkpt>
      <trkpt lat="44.69917" lon="5.99807">
        <ele>1489</ele>
        <time>2021-09-20T08:08:21Z</time>
      </trkpt>
      <trkpt lat="44.69917" lon="5.99807">
        <ele>1490</ele>
        <time>2021-09-20T08:08:51Z</time>
      </trkpt>
      <trkpt lat="44.69916" lon="5.99806">
        <ele>1490</ele>
        <time>2021-09-20T08:08:52Z</time>
      </trkpt>
      <trkpt lat="44.69916" lon="5.99805">
        <ele>1490</ele>
        <time>2021-09-20T08:08:53Z</time>
      </trkpt>
      <trkpt lat="44.69915" lon="5.99804">
        <ele>1490</ele>
        <time>2021-09-20T08:08:54Z</time>
      </trkpt>
      <trkpt lat="44.69915" lon="5.99804">
        <ele>1490</ele>
        <time>2021-09-20T08:08:55Z</time>
      </trkpt>
      <trkpt lat="44.69915" lon="5.99803">
        <ele>1490</ele>
        <time>2021-09-20T08:08:56Z</time>
      </trkpt>
      <trkpt lat="44.69915" lon="5.99803">
        <ele>1490</ele>
        <time>2021-09-20T08:08:57Z</time>
      </trkpt>
      <trkpt lat="44.69915" lon="5.99802">
        <ele>1490</ele>
        <time>2021-09-20T08:08:58Z</time>
      </trkpt>
      <trkpt lat="44.69914" lon="5.99801">
        <ele>1490</ele>
        <time>2021-09-20T08:08:59Z</time>
      </trkpt>
      <trkpt lat="44.69914" lon="5.99801">
        <ele>1490</ele>
        <time>2021-09-20T08:09:00Z</time>
      </trkpt>
      <trkpt lat="44.69914" lon="5.998">
        <ele>1490</ele>
        <time>2021-09-20T08:09:01Z</time>
      </trkpt>
      <trkpt lat="44.69914" lon="5.99799">
        <ele>1490</ele>
        <time>2021-09-20T08:09:02Z</time>
      </trkpt>
      <trkpt lat="44.69914" lon="5.99799">
        <ele>1489</ele>
        <time>2021-09-20T08:09:14Z</time>
      </trkpt>
      <trkpt lat="44.69914" lon="5.99799">
        <ele>1489</ele>
        <time>2021-09-20T08:09:15Z</time>
      </trkpt>
      <trkpt lat="44.69914" lon="5.99799">
        <ele>1489</ele>
        <time>2021-09-20T08:09:16Z</time>
      </trkpt>
      <trkpt lat="44.69915" lon="5.998">
        <ele>1489</ele>
        <time>2021-09-20T08:09:17Z</time>
      </trkpt>
      <trkpt lat="44.69915" lon="5.99801">
        <ele>1489</ele>
        <time>2021-09-20T08:09:18Z</time>
      </trkpt>
      <trkpt lat="44.69915" lon="5.99802">
        <ele>1489</ele>
        <time>2021-09-20T08:09:19Z</time>
      </trkpt>
      <trkpt lat="44.69915" lon="5.99803">
        <ele>1489</ele>
        <time>2021-09-20T08:09:20Z</time>
      </trkpt>
      <trkpt lat="44.69915" lon="5.99804">
        <ele>1489</ele>
        <time>2021-09-20T08:09:21Z</time>
      </trkpt>
      <trkpt lat="44.69915" lon="5.99804">
        <ele>1489</ele>
        <time>2021-09-20T08:09:22Z</time>
      </trkpt>
      <trkpt lat="44.69915" lon="5.99806">
        <ele>1490</ele>
        <time>2021-09-20T08:09:47Z</time>
      </trkpt>
      <trkpt lat="44.69915" lon="5.99807">
        <ele>1490</ele>
        <time>2021-09-20T08:09:48Z</time>
      </trkpt>
      <trkpt lat="44.69915" lon="5.99808">
        <ele>1490</ele>
        <time>2021-09-20T08:09:49Z</time>
      </trkpt>
      <trkpt lat="44.69915" lon="5.99809">
        <ele>1490</ele>
        <time>2021-09-20T08:09:59Z</time>
      </trkpt>
      <trkpt lat="44.69915" lon="5.9981">
        <ele>1490</ele>
        <time>2021-09-20T08:10:00Z</time>
      </trkpt>
      <trkpt lat="44.69915" lon="5.9981">
        <ele>1490</ele>
        <time>2021-09-20T08:10:01Z</time>
      </trkpt>
      <trkpt lat="44.69914" lon="5.99811">
        <ele>1490</ele>
        <time>2021-09-20T08:10:02Z</time>
      </trkpt>
      <trkpt lat="44.69913" lon="5.99811">
        <ele>1490</ele>
        <time>2021-09-20T08:10:03Z</time>
      </trkpt>
      <trkpt lat="44.69913" lon="5.9981">
        <ele>1489</ele>
        <time>2021-09-20T08:11:26Z</time>
      </trkpt>
      <trkpt lat="44.69913" lon="5.9981">
        <ele>1489</ele>
        <time>2021-09-20T08:11:27Z</time>
      </trkpt>
      <trkpt lat="44.69913" lon="5.9981">
        <ele>1489</ele>
        <time>2021-09-20T08:11:28Z</time>
      </trkpt>
      <trkpt lat="44.69913" lon="5.9981">
        <ele>1489</ele>
        <time>2021-09-20T08:11:29Z</time>
      </trkpt>
      <trkpt lat="44.69913" lon="5.9981">
        <ele>1489</ele>
        <time>2021-09-20T08:11:30Z</time>
      </trkpt>
      <trkpt lat="44.69913" lon="5.99811">
        <ele>1489</ele>
        <time>2021-09-20T08:11:31Z</time>
      </trkpt>
      <trkpt lat="44.69913" lon="5.99811">
        <ele>1489</ele>
        <time>2021-09-20T08:11:32Z</time>
      </trkpt>
      <trkpt lat="44.69913" lon="5.99811">
        <ele>1489</ele>
        <time>2021-09-20T08:11:33Z</time>
      </trkpt>
      <trkpt lat="44.69913" lon="5.9981">
        <ele>1489</ele>
        <time>2021-09-20T08:11:34Z</time>
      </trkpt>
      <trkpt lat="44.69913" lon="5.9981">
        <ele>1489</ele>
        <time>2021-09-20T08:11:35Z</time>
      </trkpt>
      <trkpt lat="44.69913" lon="5.9981">
        <ele>1489</ele>
        <time>2021-09-20T08:11:36Z</time>
      </trkpt>
      <trkpt lat="44.69913" lon="5.9981">
        <ele>1489</ele>
        <time>2021-09-20T08:11:37Z</time>
      </trkpt>
      <trkpt lat="44.69913" lon="5.9981">
        <ele>1489</ele>
        <time>2021-09-20T08:11:38Z</time>
      </trkpt>
      <trkpt lat="44.69913" lon="5.99809">
        <ele>1489</ele>
        <time>2021-09-20T08:11:39Z</time>
      </trkpt>
      <trkpt lat="44.69914" lon="5.99809">
        <ele>1489</ele>
        <time>2021-09-20T08:11:40Z</time>
      </trkpt>
      <trkpt lat="44.69914" lon="5.99808">
        <ele>1489</ele>
        <time>2021-09-20T08:11:41Z</time>
      </trkpt>
      <trkpt lat="44.69914" lon="5.99807">
        <ele>1489</ele>
        <time>2021-09-20T08:11:42Z</time>
      </trkpt>
      <trkpt lat="44.69913" lon="5.99807">
        <ele>1489</ele>
        <time>2021-09-20T08:11:43Z</time>
      </trkpt>
      <trkpt lat="44.69913" lon="5.99806">
        <ele>1489</ele>
        <time>2021-09-20T08:11:44Z</time>
      </trkpt>
      <trkpt lat="44.69911" lon="5.99807">
        <ele>1488</ele>
        <time>2021-09-20T08:12:13Z</time>
      </trkpt>
      <trkpt lat="44.6991" lon="5.99807">
        <ele>1488</ele>
        <time>2021-09-20T08:12:14Z</time>
      </trkpt>
      <trkpt lat="44.6991" lon="5.99807">
        <ele>1488</ele>
        <time>2021-09-20T08:12:15Z</time>
      </trkpt>
      <trkpt lat="44.6991" lon="5.99807">
        <ele>1488</ele>
        <time>2021-09-20T08:12:16Z</time>
      </trkpt>
      <trkpt lat="44.6991" lon="5.99807">
        <ele>1488</ele>
        <time>2021-09-20T08:12:17Z</time>
      </trkpt>
      <trkpt lat="44.6991" lon="5.99807">
        <ele>1488</ele>
        <time>2021-09-20T08:12:18Z</time>
      </trkpt>
      <trkpt lat="44.69911" lon="5.99806">
        <ele>1488</ele>
        <time>2021-09-20T08:12:19Z</time>
      </trkpt>
      <trkpt lat="44.69912" lon="5.99807">
        <ele>1488</ele>
        <time>2021-09-20T08:12:20Z</time>
      </trkpt>
      <trkpt lat="44.69912" lon="5.99807">
        <ele>1488</ele>
        <time>2021-09-20T08:12:21Z</time>
      </trkpt>
      <trkpt lat="44.69913" lon="5.99807">
        <ele>1489</ele>
        <time>2021-09-20T08:12:22Z</time>
      </trkpt>
      <trkpt lat="44.69914" lon="5.99807">
        <ele>1489</ele>
        <time>2021-09-20T08:12:23Z</time>
      </trkpt>
      <trkpt lat="44.69915" lon="5.99808">
        <ele>1489</ele>
        <time>2021-09-20T08:12:24Z</time>
      </trkpt>
      <trkpt lat="44.69916" lon="5.99808">
        <ele>1489</ele>
        <time>2021-09-20T08:12:25Z</time>
      </trkpt>
      <trkpt lat="44.69917" lon="5.99808">
        <ele>1489</ele>
        <time>2021-09-20T08:12:26Z</time>
      </trkpt>
      <trkpt lat="44.69918" lon="5.99808">
        <ele>1490</ele>
        <time>2021-09-20T08:12:27Z</time>
      </trkpt>
      <trkpt lat="44.69919" lon="5.99808">
        <ele>1490</ele>
        <time>2021-09-20T08:12:28Z</time>
      </trkpt>
      <trkpt lat="44.69919" lon="5.99809">
        <ele>1490</ele>
        <time>2021-09-20T08:12:29Z</time>
      </trkpt>
      <trkpt lat="44.6992" lon="5.99808">
        <ele>1490</ele>
        <time>2021-09-20T08:12:30Z</time>
      </trkpt>
      <trkpt lat="44.6992" lon="5.99808">
        <ele>1490</ele>
        <time>2021-09-20T08:12:31Z</time>
      </trkpt>
      <trkpt lat="44.69921" lon="5.99808">
        <ele>1490</ele>
        <time>2021-09-20T08:12:32Z</time>
      </trkpt>
      <trkpt lat="44.69921" lon="5.99808">
        <ele>1490</ele>
        <time>2021-09-20T08:12:33Z</time>
      </trkpt>
      <trkpt lat="44.69922" lon="5.99809">
        <ele>1490</ele>
        <time>2021-09-20T08:12:34Z</time>
      </trkpt>
      <trkpt lat="44.69923" lon="5.99809">
        <ele>1490</ele>
        <time>2021-09-20T08:12:35Z</time>
      </trkpt>
      <trkpt lat="44.69923" lon="5.9981">
        <ele>1490</ele>
        <time>2021-09-20T08:12:36Z</time>
      </trkpt>
      <trkpt lat="44.69924" lon="5.9981">
        <ele>1490</ele>
        <time>2021-09-20T08:12:37Z</time>
      </trkpt>
      <trkpt lat="44.69925" lon="5.9981">
        <ele>1490</ele>
        <time>2021-09-20T08:12:38Z</time>
      </trkpt>
      <trkpt lat="44.69926" lon="5.9981">
        <ele>1490</ele>
        <time>2021-09-20T08:12:39Z</time>
      </trkpt>
      <trkpt lat="44.69927" lon="5.9981">
        <ele>1490</ele>
        <time>2021-09-20T08:12:40Z</time>
      </trkpt>
      <trkpt lat="44.69928" lon="5.9981">
        <ele>1490</ele>
        <time>2021-09-20T08:12:41Z</time>
      </trkpt>
      <trkpt lat="44.69929" lon="5.9981">
        <ele>1490</ele>
        <time>2021-09-20T08:12:42Z</time>
      </trkpt>
      <trkpt lat="44.69929" lon="5.9981">
        <ele>1490</ele>
        <time>2021-09-20T08:12:43Z</time>
      </trkpt>
      <trkpt lat="44.6993" lon="5.9981">
        <ele>1490</ele>
        <time>2021-09-20T08:12:44Z</time>
      </trkpt>
      <trkpt lat="44.69931" lon="5.9981">
        <ele>1490</ele>
        <time>2021-09-20T08:12:45Z</time>
      </trkpt>
      <trkpt lat="44.69932" lon="5.99811">
        <ele>1490</ele>
        <time>2021-09-20T08:12:46Z</time>
      </trkpt>
      <trkpt lat="44.69932" lon="5.99811">
        <ele>1490</ele>
        <time>2021-09-20T08:12:47Z</time>
      </trkpt>
      <trkpt lat="44.69933" lon="5.99812">
        <ele>1490</ele>
        <time>2021-09-20T08:12:48Z</time>
      </trkpt>
      <trkpt lat="44.69934" lon="5.99812">
        <ele>1490</ele>
        <time>2021-09-20T08:12:49Z</time>
      </trkpt>
      <trkpt lat="44.69935" lon="5.99813">
        <ele>1490</ele>
        <time>2021-09-20T08:12:50Z</time>
      </trkpt>
      <trkpt lat="44.69936" lon="5.99813">
        <ele>1490</ele>
        <time>2021-09-20T08:12:51Z</time>
      </trkpt>
      <trkpt lat="44.69937" lon="5.99814">
        <ele>1491</ele>
        <time>2021-09-20T08:12:52Z</time>
      </trkpt>
      <trkpt lat="44.69938" lon="5.99815">
        <ele>1491</ele>
        <time>2021-09-20T08:12:53Z</time>
      </trkpt>
      <trkpt lat="44.69939" lon="5.99815">
        <ele>1491</ele>
        <time>2021-09-20T08:12:54Z</time>
      </trkpt>
      <trkpt lat="44.6994" lon="5.99816">
        <ele>1491</ele>
        <time>2021-09-20T08:12:55Z</time>
      </trkpt>
      <trkpt lat="44.6994" lon="5.99817">
        <ele>1491</ele>
        <time>2021-09-20T08:12:56Z</time>
      </trkpt>
      <trkpt lat="44.69941" lon="5.99817">
        <ele>1491</ele>
        <time>2021-09-20T08:12:57Z</time>
      </trkpt>
      <trkpt lat="44.69942" lon="5.99817">
        <ele>1491</ele>
        <time>2021-09-20T08:12:58Z</time>
      </trkpt>
      <trkpt lat="44.69943" lon="5.99817">
        <ele>1491</ele>
        <time>2021-09-20T08:12:59Z</time>
      </trkpt>
      <trkpt lat="44.69943" lon="5.99817">
        <ele>1491</ele>
        <time>2021-09-20T08:13:00Z</time>
      </trkpt>
      <trkpt lat="44.69944" lon="5.99817">
        <ele>1491</ele>
        <time>2021-09-20T08:13:01Z</time>
      </trkpt>
      <trkpt lat="44.69945" lon="5.99817">
        <ele>1491</ele>
        <time>2021-09-20T08:13:02Z</time>
      </trkpt>
      <trkpt lat="44.69946" lon="5.99816">
        <ele>1491</ele>
        <time>2021-09-20T08:13:03Z</time>
      </trkpt>
      <trkpt lat="44.69947" lon="5.99816">
        <ele>1491</ele>
        <time>2021-09-20T08:13:04Z</time>
      </trkpt>
      <trkpt lat="44.69948" lon="5.99816">
        <ele>1491</ele>
        <time>2021-09-20T08:13:05Z</time>
      </trkpt>
      <trkpt lat="44.69949" lon="5.99816">
        <ele>1491</ele>
        <time>2021-09-20T08:13:06Z</time>
      </trkpt>
      <trkpt lat="44.69951" lon="5.99815">
        <ele>1491</ele>
        <time>2021-09-20T08:13:07Z</time>
      </trkpt>
      <trkpt lat="44.69952" lon="5.99815">
        <ele>1491</ele>
        <time>2021-09-20T08:13:08Z</time>
      </trkpt>
      <trkpt lat="44.69953" lon="5.99815">
        <ele>1491</ele>
        <time>2021-09-20T08:13:09Z</time>
      </trkpt>
      <trkpt lat="44.69954" lon="5.99815">
        <ele>1491</ele>
        <time>2021-09-20T08:13:10Z</time>
      </trkpt>
      <trkpt lat="44.69955" lon="5.99815">
        <ele>1491</ele>
        <time>2021-09-20T08:13:11Z</time>
      </trkpt>
      <trkpt lat="44.69956" lon="5.99815">
        <ele>1491</ele>
        <time>2021-09-20T08:13:12Z</time>
      </trkpt>
      <trkpt lat="44.69957" lon="5.99815">
        <ele>1491</ele>
        <time>2021-09-20T08:13:13Z</time>
      </trkpt>
      <trkpt lat="44.69958" lon="5.99815">
        <ele>1491</ele>
        <time>2021-09-20T08:13:14Z</time>
      </trkpt>
      <trkpt lat="44.69958" lon="5.99815">
        <ele>1491</ele>
        <time>2021-09-20T08:13:15Z</time>
      </trkpt>
      <trkpt lat="44.69959" lon="5.99815">
        <ele>1491</ele>
        <time>2021-09-20T08:13:16Z</time>
      </trkpt>
      <trkpt lat="44.69959" lon="5.99815">
        <ele>1491</ele>
        <time>2021-09-20T08:13:17Z</time>
      </trkpt>
      <trkpt lat="44.6996" lon="5.99815">
        <ele>1491</ele>
        <time>2021-09-20T08:13:18Z</time>
      </trkpt>
      <trkpt lat="44.6996" lon="5.99815">
        <ele>1491</ele>
        <time>2021-09-20T08:13:19Z</time>
      </trkpt>
      <trkpt lat="44.69961" lon="5.99815">
        <ele>1491</ele>
        <time>2021-09-20T08:13:20Z</time>
      </trkpt>
      <trkpt lat="44.69962" lon="5.99815">
        <ele>1491</ele>
        <time>2021-09-20T08:13:21Z</time>
      </trkpt>
      <trkpt lat="44.69963" lon="5.99815">
        <ele>1491</ele>
        <time>2021-09-20T08:13:22Z</time>
      </trkpt>
      <trkpt lat="44.69964" lon="5.99816">
        <ele>1491</ele>
        <time>2021-09-20T08:13:23Z</time>
      </trkpt>
      <trkpt lat="44.69965" lon="5.99816">
        <ele>1491</ele>
        <time>2021-09-20T08:13:24Z</time>
      </trkpt>
      <trkpt lat="44.69966" lon="5.99817">
        <ele>1491</ele>
        <time>2021-09-20T08:13:25Z</time>
      </trkpt>
      <trkpt lat="44.69967" lon="5.99818">
        <ele>1491</ele>
        <time>2021-09-20T08:13:26Z</time>
      </trkpt>
      <trkpt lat="44.69967" lon="5.99818">
        <ele>1491</ele>
        <time>2021-09-20T08:13:27Z</time>
      </trkpt>
      <trkpt lat="44.69969" lon="5.99819">
        <ele>1491</ele>
        <time>2021-09-20T08:13:28Z</time>
      </trkpt>
      <trkpt lat="44.6997" lon="5.9982">
        <ele>1491</ele>
        <time>2021-09-20T08:13:29Z</time>
      </trkpt>
      <trkpt lat="44.69971" lon="5.9982">
        <ele>1491</ele>
        <time>2021-09-20T08:13:30Z</time>
      </trkpt>
      <trkpt lat="44.69972" lon="5.9982">
        <ele>1491</ele>
        <time>2021-09-20T08:13:31Z</time>
      </trkpt>
      <trkpt lat="44.69973" lon="5.99821">
        <ele>1491</ele>
        <time>2021-09-20T08:13:32Z</time>
      </trkpt>
      <trkpt lat="44.69974" lon="5.99821">
        <ele>1491</ele>
        <time>2021-09-20T08:13:33Z</time>
      </trkpt>
      <trkpt lat="44.69975" lon="5.99821">
        <ele>1491</ele>
        <time>2021-09-20T08:13:34Z</time>
      </trkpt>
      <trkpt lat="44.69976" lon="5.99821">
        <ele>1491</ele>
        <time>2021-09-20T08:13:35Z</time>
      </trkpt>
      <trkpt lat="44.69977" lon="5.99821">
        <ele>1491</ele>
        <time>2021-09-20T08:13:36Z</time>
      </trkpt>
      <trkpt lat="44.69978" lon="5.99821">
        <ele>1491</ele>
        <time>2021-09-20T08:13:37Z</time>
      </trkpt>
      <trkpt lat="44.69979" lon="5.99822">
        <ele>1491</ele>
        <time>2021-09-20T08:13:38Z</time>
      </trkpt>
      <trkpt lat="44.69979" lon="5.99822">
        <ele>1491</ele>
        <time>2021-09-20T08:13:39Z</time>
      </trkpt>
      <trkpt lat="44.6998" lon="5.99822">
        <ele>1491</ele>
        <time>2021-09-20T08:13:40Z</time>
      </trkpt>
      <trkpt lat="44.69981" lon="5.99822">
        <ele>1491</ele>
        <time>2021-09-20T08:13:41Z</time>
      </trkpt>
      <trkpt lat="44.69982" lon="5.99822">
        <ele>1491</ele>
        <time>2021-09-20T08:13:42Z</time>
      </trkpt>
      <trkpt lat="44.69983" lon="5.99822">
        <ele>1491</ele>
        <time>2021-09-20T08:13:43Z</time>
      </trkpt>
      <trkpt lat="44.69984" lon="5.99822">
        <ele>1491</ele>
        <time>2021-09-20T08:13:44Z</time>
      </trkpt>
      <trkpt lat="44.69985" lon="5.99821">
        <ele>1491</ele>
        <time>2021-09-20T08:13:45Z</time>
      </trkpt>
      <trkpt lat="44.69986" lon="5.99821">
        <ele>1491</ele>
        <time>2021-09-20T08:13:46Z</time>
      </trkpt>
      <trkpt lat="44.69987" lon="5.99821">
        <ele>1491</ele>
        <time>2021-09-20T08:13:47Z</time>
      </trkpt>
      <trkpt lat="44.69989" lon="5.99821">
        <ele>1491</ele>
        <time>2021-09-20T08:13:48Z</time>
      </trkpt>
      <trkpt lat="44.6999" lon="5.99821">
        <ele>1491</ele>
        <time>2021-09-20T08:13:49Z</time>
      </trkpt>
      <trkpt lat="44.69991" lon="5.9982">
        <ele>1491</ele>
        <time>2021-09-20T08:13:50Z</time>
      </trkpt>
      <trkpt lat="44.69993" lon="5.9982">
        <ele>1491</ele>
        <time>2021-09-20T08:13:51Z</time>
      </trkpt>
      <trkpt lat="44.69994" lon="5.9982">
        <ele>1491</ele>
        <time>2021-09-20T08:13:52Z</time>
      </trkpt>
      <trkpt lat="44.69995" lon="5.9982">
        <ele>1491</ele>
        <time>2021-09-20T08:13:53Z</time>
      </trkpt>
      <trkpt lat="44.69996" lon="5.9982">
        <ele>1491</ele>
        <time>2021-09-20T08:13:54Z</time>
      </trkpt>
      <trkpt lat="44.69998" lon="5.99819">
        <ele>1491</ele>
        <time>2021-09-20T08:13:55Z</time>
      </trkpt>
      <trkpt lat="44.69999" lon="5.99819">
        <ele>1491</ele>
        <time>2021-09-20T08:13:56Z</time>
      </trkpt>
      <trkpt lat="44.7" lon="5.99818">
        <ele>1491</ele>
        <time>2021-09-20T08:13:57Z</time>
      </trkpt>
      <trkpt lat="44.70001" lon="5.99817">
        <ele>1491</ele>
        <time>2021-09-20T08:13:58Z</time>
      </trkpt>
      <trkpt lat="44.70002" lon="5.99817">
        <ele>1491</ele>
        <time>2021-09-20T08:13:59Z</time>
      </trkpt>
      <trkpt lat="44.70003" lon="5.99817">
        <ele>1491</ele>
        <time>2021-09-20T08:14:00Z</time>
      </trkpt>
      <trkpt lat="44.70003" lon="5.99816">
        <ele>1491</ele>
        <time>2021-09-20T08:14:01Z</time>
      </trkpt>
      <trkpt lat="44.70004" lon="5.99816">
        <ele>1491</ele>
        <time>2021-09-20T08:14:02Z</time>
      </trkpt>
      <trkpt lat="44.70005" lon="5.99816">
        <ele>1491</ele>
        <time>2021-09-20T08:14:03Z</time>
      </trkpt>
      <trkpt lat="44.70006" lon="5.99817">
        <ele>1491</ele>
        <time>2021-09-20T08:14:04Z</time>
      </trkpt>
      <trkpt lat="44.70007" lon="5.99817">
        <ele>1491</ele>
        <time>2021-09-20T08:14:05Z</time>
      </trkpt>
      <trkpt lat="44.70008" lon="5.99818">
        <ele>1491</ele>
        <time>2021-09-20T08:14:06Z</time>
      </trkpt>
      <trkpt lat="44.70009" lon="5.99819">
        <ele>1492</ele>
        <time>2021-09-20T08:14:07Z</time>
      </trkpt>
      <trkpt lat="44.7001" lon="5.9982">
        <ele>1492</ele>
        <time>2021-09-20T08:14:08Z</time>
      </trkpt>
      <trkpt lat="44.70011" lon="5.9982">
        <ele>1492</ele>
        <time>2021-09-20T08:14:09Z</time>
      </trkpt>
      <trkpt lat="44.70012" lon="5.99821">
        <ele>1492</ele>
        <time>2021-09-20T08:14:10Z</time>
      </trkpt>
      <trkpt lat="44.70013" lon="5.99822">
        <ele>1492</ele>
        <time>2021-09-20T08:14:11Z</time>
      </trkpt>
      <trkpt lat="44.70014" lon="5.99823">
        <ele>1492</ele>
        <time>2021-09-20T08:14:12Z</time>
      </trkpt>
      <trkpt lat="44.70015" lon="5.99823">
        <ele>1492</ele>
        <time>2021-09-20T08:14:13Z</time>
      </trkpt>
      <trkpt lat="44.70016" lon="5.99824">
        <ele>1492</ele>
        <time>2021-09-20T08:14:14Z</time>
      </trkpt>
      <trkpt lat="44.70017" lon="5.99824">
        <ele>1492</ele>
        <time>2021-09-20T08:14:15Z</time>
      </trkpt>
      <trkpt lat="44.70018" lon="5.99824">
        <ele>1492</ele>
        <time>2021-09-20T08:14:16Z</time>
      </trkpt>
      <trkpt lat="44.70019" lon="5.99824">
        <ele>1492</ele>
        <time>2021-09-20T08:14:17Z</time>
      </trkpt>
      <trkpt lat="44.7002" lon="5.99824">
        <ele>1492</ele>
        <time>2021-09-20T08:14:18Z</time>
      </trkpt>
      <trkpt lat="44.70021" lon="5.99824">
        <ele>1492</ele>
        <time>2021-09-20T08:14:19Z</time>
      </trkpt>
      <trkpt lat="44.70022" lon="5.99824">
        <ele>1492</ele>
        <time>2021-09-20T08:14:20Z</time>
      </trkpt>
      <trkpt lat="44.70022" lon="5.99824">
        <ele>1492</ele>
        <time>2021-09-20T08:14:21Z</time>
      </trkpt>
      <trkpt lat="44.70023" lon="5.99824">
        <ele>1493</ele>
        <time>2021-09-20T08:14:22Z</time>
      </trkpt>
      <trkpt lat="44.70024" lon="5.99824">
        <ele>1493</ele>
        <time>2021-09-20T08:14:23Z</time>
      </trkpt>
      <trkpt lat="44.70025" lon="5.99824">
        <ele>1493</ele>
        <time>2021-09-20T08:14:24Z</time>
      </trkpt>
      <trkpt lat="44.70026" lon="5.99824">
        <ele>1493</ele>
        <time>2021-09-20T08:14:25Z</time>
      </trkpt>
      <trkpt lat="44.70027" lon="5.99825">
        <ele>1493</ele>
        <time>2021-09-20T08:14:26Z</time>
      </trkpt>
      <trkpt lat="44.70028" lon="5.99825">
        <ele>1493</ele>
        <time>2021-09-20T08:14:27Z</time>
      </trkpt>
      <trkpt lat="44.70029" lon="5.99826">
        <ele>1493</ele>
        <time>2021-09-20T08:14:28Z</time>
      </trkpt>
      <trkpt lat="44.7003" lon="5.99826">
        <ele>1493</ele>
        <time>2021-09-20T08:14:29Z</time>
      </trkpt>
      <trkpt lat="44.7003" lon="5.99827">
        <ele>1493</ele>
        <time>2021-09-20T08:14:30Z</time>
      </trkpt>
      <trkpt lat="44.70031" lon="5.99827">
        <ele>1493</ele>
        <time>2021-09-20T08:14:31Z</time>
      </trkpt>
      <trkpt lat="44.70032" lon="5.99828">
        <ele>1494</ele>
        <time>2021-09-20T08:14:32Z</time>
      </trkpt>
      <trkpt lat="44.70033" lon="5.99829">
        <ele>1494</ele>
        <time>2021-09-20T08:14:33Z</time>
      </trkpt>
      <trkpt lat="44.70033" lon="5.99829">
        <ele>1494</ele>
        <time>2021-09-20T08:14:34Z</time>
      </trkpt>
      <trkpt lat="44.70034" lon="5.9983">
        <ele>1494</ele>
        <time>2021-09-20T08:14:35Z</time>
      </trkpt>
      <trkpt lat="44.70035" lon="5.99831">
        <ele>1494</ele>
        <time>2021-09-20T08:14:36Z</time>
      </trkpt>
      <trkpt lat="44.70036" lon="5.99831">
        <ele>1494</ele>
        <time>2021-09-20T08:14:37Z</time>
      </trkpt>
      <trkpt lat="44.70037" lon="5.99832">
        <ele>1493</ele>
        <time>2021-09-20T08:14:38Z</time>
      </trkpt>
      <trkpt lat="44.70038" lon="5.99832">
        <ele>1493</ele>
        <time>2021-09-20T08:14:39Z</time>
      </trkpt>
      <trkpt lat="44.70039" lon="5.99832">
        <ele>1493</ele>
        <time>2021-09-20T08:14:40Z</time>
      </trkpt>
      <trkpt lat="44.70039" lon="5.99832">
        <ele>1493</ele>
        <time>2021-09-20T08:14:41Z</time>
      </trkpt>
      <trkpt lat="44.7004" lon="5.99832">
        <ele>1493</ele>
        <time>2021-09-20T08:14:42Z</time>
      </trkpt>
      <trkpt lat="44.7004" lon="5.99831">
        <ele>1493</ele>
        <time>2021-09-20T08:14:43Z</time>
      </trkpt>
      <trkpt lat="44.70041" lon="5.99831">
        <ele>1493</ele>
        <time>2021-09-20T08:14:44Z</time>
      </trkpt>
      <trkpt lat="44.70041" lon="5.99831">
        <ele>1493</ele>
        <time>2021-09-20T08:14:45Z</time>
      </trkpt>
      <trkpt lat="44.70042" lon="5.9983">
        <ele>1493</ele>
        <time>2021-09-20T08:14:46Z</time>
      </trkpt>
      <trkpt lat="44.70042" lon="5.9983">
        <ele>1493</ele>
        <time>2021-09-20T08:14:47Z</time>
      </trkpt>
      <trkpt lat="44.70043" lon="5.9983">
        <ele>1493</ele>
        <time>2021-09-20T08:14:48Z</time>
      </trkpt>
      <trkpt lat="44.70044" lon="5.9983">
        <ele>1493</ele>
        <time>2021-09-20T08:14:49Z</time>
      </trkpt>
      <trkpt lat="44.70045" lon="5.99829">
        <ele>1493</ele>
        <time>2021-09-20T08:14:50Z</time>
      </trkpt>
      <trkpt lat="44.70046" lon="5.99829">
        <ele>1493</ele>
        <time>2021-09-20T08:14:51Z</time>
      </trkpt>
      <trkpt lat="44.70047" lon="5.99829">
        <ele>1493</ele>
        <time>2021-09-20T08:14:52Z</time>
      </trkpt>
      <trkpt lat="44.70048" lon="5.99829">
        <ele>1493</ele>
        <time>2021-09-20T08:14:53Z</time>
      </trkpt>
      <trkpt lat="44.70049" lon="5.99829">
        <ele>1493</ele>
        <time>2021-09-20T08:14:54Z</time>
      </trkpt>
      <trkpt lat="44.7005" lon="5.99829">
        <ele>1493</ele>
        <time>2021-09-20T08:14:55Z</time>
      </trkpt>
      <trkpt lat="44.70051" lon="5.99829">
        <ele>1493</ele>
        <time>2021-09-20T08:14:56Z</time>
      </trkpt>
      <trkpt lat="44.70052" lon="5.9983">
        <ele>1493</ele>
        <time>2021-09-20T08:14:57Z</time>
      </trkpt>
      <trkpt lat="44.70054" lon="5.9983">
        <ele>1493</ele>
        <time>2021-09-20T08:14:58Z</time>
      </trkpt>
      <trkpt lat="44.70054" lon="5.9983">
        <ele>1493</ele>
        <time>2021-09-20T08:14:59Z</time>
      </trkpt>
      <trkpt lat="44.70055" lon="5.99829">
        <ele>1493</ele>
        <time>2021-09-20T08:15:00Z</time>
      </trkpt>
      <trkpt lat="44.70056" lon="5.99829">
        <ele>1493</ele>
        <time>2021-09-20T08:15:01Z</time>
      </trkpt>
      <trkpt lat="44.70057" lon="5.99829">
        <ele>1494</ele>
        <time>2021-09-20T08:15:02Z</time>
      </trkpt>
      <trkpt lat="44.70058" lon="5.99828">
        <ele>1494</ele>
        <time>2021-09-20T08:15:03Z</time>
      </trkpt>
      <trkpt lat="44.70059" lon="5.99828">
        <ele>1494</ele>
        <time>2021-09-20T08:15:04Z</time>
      </trkpt>
      <trkpt lat="44.7006" lon="5.99828">
        <ele>1494</ele>
        <time>2021-09-20T08:15:05Z</time>
      </trkpt>
      <trkpt lat="44.70061" lon="5.99827">
        <ele>1494</ele>
        <time>2021-09-20T08:15:06Z</time>
      </trkpt>
      <trkpt lat="44.70062" lon="5.99827">
        <ele>1494</ele>
        <time>2021-09-20T08:15:07Z</time>
      </trkpt>
      <trkpt lat="44.70064" lon="5.99827">
        <ele>1494</ele>
        <time>2021-09-20T08:15:08Z</time>
      </trkpt>
      <trkpt lat="44.70065" lon="5.99827">
        <ele>1494</ele>
        <time>2021-09-20T08:15:09Z</time>
      </trkpt>
      <trkpt lat="44.70065" lon="5.99827">
        <ele>1494</ele>
        <time>2021-09-20T08:15:10Z</time>
      </trkpt>
      <trkpt lat="44.70065" lon="5.99827">
        <ele>1494</ele>
        <time>2021-09-20T08:15:11Z</time>
      </trkpt>
      <trkpt lat="44.70066" lon="5.99827">
        <ele>1494</ele>
        <time>2021-09-20T08:15:12Z</time>
      </trkpt>
      <trkpt lat="44.70066" lon="5.99827">
        <ele>1494</ele>
        <time>2021-09-20T08:15:13Z</time>
      </trkpt>
      <trkpt lat="44.70066" lon="5.99827">
        <ele>1494</ele>
        <time>2021-09-20T08:15:14Z</time>
      </trkpt>
      <trkpt lat="44.70067" lon="5.99827">
        <ele>1494</ele>
        <time>2021-09-20T08:15:15Z</time>
      </trkpt>
      <trkpt lat="44.70068" lon="5.99827">
        <ele>1494</ele>
        <time>2021-09-20T08:15:16Z</time>
      </trkpt>
      <trkpt lat="44.70069" lon="5.99827">
        <ele>1494</ele>
        <time>2021-09-20T08:15:17Z</time>
      </trkpt>
      <trkpt lat="44.7007" lon="5.99826">
        <ele>1493</ele>
        <time>2021-09-20T08:15:18Z</time>
      </trkpt>
      <trkpt lat="44.70071" lon="5.99826">
        <ele>1493</ele>
        <time>2021-09-20T08:15:19Z</time>
      </trkpt>
      <trkpt lat="44.70073" lon="5.99826">
        <ele>1493</ele>
        <time>2021-09-20T08:15:20Z</time>
      </trkpt>
      <trkpt lat="44.70074" lon="5.99826">
        <ele>1493</ele>
        <time>2021-09-20T08:15:21Z</time>
      </trkpt>
      <trkpt lat="44.70075" lon="5.99826">
        <ele>1493</ele>
        <time>2021-09-20T08:15:22Z</time>
      </trkpt>
      <trkpt lat="44.70075" lon="5.99826">
        <ele>1493</ele>
        <time>2021-09-20T08:15:23Z</time>
      </trkpt>
      <trkpt lat="44.70076" lon="5.99826">
        <ele>1493</ele>
        <time>2021-09-20T08:15:24Z</time>
      </trkpt>
      <trkpt lat="44.70077" lon="5.99826">
        <ele>1493</ele>
        <time>2021-09-20T08:15:25Z</time>
      </trkpt>
      <trkpt lat="44.70078" lon="5.99827">
        <ele>1493</ele>
        <time>2021-09-20T08:15:26Z</time>
      </trkpt>
      <trkpt lat="44.70078" lon="5.99827">
        <ele>1493</ele>
        <time>2021-09-20T08:15:27Z</time>
      </trkpt>
      <trkpt lat="44.70079" lon="5.99827">
        <ele>1493</ele>
        <time>2021-09-20T08:15:28Z</time>
      </trkpt>
      <trkpt lat="44.7008" lon="5.99827">
        <ele>1493</ele>
        <time>2021-09-20T08:15:29Z</time>
      </trkpt>
      <trkpt lat="44.70081" lon="5.99827">
        <ele>1493</ele>
        <time>2021-09-20T08:15:30Z</time>
      </trkpt>
      <trkpt lat="44.70082" lon="5.99827">
        <ele>1493</ele>
        <time>2021-09-20T08:15:31Z</time>
      </trkpt>
      <trkpt lat="44.70083" lon="5.99828">
        <ele>1493</ele>
        <time>2021-09-20T08:15:32Z</time>
      </trkpt>
      <trkpt lat="44.70084" lon="5.99828">
        <ele>1493</ele>
        <time>2021-09-20T08:15:33Z</time>
      </trkpt>
      <trkpt lat="44.70085" lon="5.99829">
        <ele>1493</ele>
        <time>2021-09-20T08:15:34Z</time>
      </trkpt>
      <trkpt lat="44.70086" lon="5.99829">
        <ele>1493</ele>
        <time>2021-09-20T08:15:35Z</time>
      </trkpt>
      <trkpt lat="44.70087" lon="5.99829">
        <ele>1493</ele>
        <time>2021-09-20T08:15:36Z</time>
      </trkpt>
      <trkpt lat="44.70088" lon="5.99829">
        <ele>1493</ele>
        <time>2021-09-20T08:15:37Z</time>
      </trkpt>
      <trkpt lat="44.70089" lon="5.99829">
        <ele>1493</ele>
        <time>2021-09-20T08:15:38Z</time>
      </trkpt>
      <trkpt lat="44.70091" lon="5.99829">
        <ele>1493</ele>
        <time>2021-09-20T08:15:39Z</time>
      </trkpt>
      <trkpt lat="44.70092" lon="5.99828">
        <ele>1493</ele>
        <time>2021-09-20T08:15:40Z</time>
      </trkpt>
      <trkpt lat="44.70093" lon="5.99828">
        <ele>1493</ele>
        <time>2021-09-20T08:15:41Z</time>
      </trkpt>
      <trkpt lat="44.70095" lon="5.99828">
        <ele>1493</ele>
        <time>2021-09-20T08:15:42Z</time>
      </trkpt>
      <trkpt lat="44.70096" lon="5.99828">
        <ele>1493</ele>
        <time>2021-09-20T08:15:43Z</time>
      </trkpt>
      <trkpt lat="44.70098" lon="5.99829">
        <ele>1493</ele>
        <time>2021-09-20T08:15:44Z</time>
      </trkpt>
      <trkpt lat="44.70099" lon="5.99829">
        <ele>1493</ele>
        <time>2021-09-20T08:15:45Z</time>
      </trkpt>
      <trkpt lat="44.70102" lon="5.9983">
        <ele>1494</ele>
        <time>2021-09-20T08:15:55Z</time>
      </trkpt>
      <trkpt lat="44.70104" lon="5.9983">
        <ele>1494</ele>
        <time>2021-09-20T08:15:56Z</time>
      </trkpt>
      <trkpt lat="44.70105" lon="5.99831">
        <ele>1495</ele>
        <time>2021-09-20T08:15:57Z</time>
      </trkpt>
      <trkpt lat="44.70107" lon="5.99831">
        <ele>1495</ele>
        <time>2021-09-20T08:15:58Z</time>
      </trkpt>
      <trkpt lat="44.70108" lon="5.99831">
        <ele>1495</ele>
        <time>2021-09-20T08:15:59Z</time>
      </trkpt>
      <trkpt lat="44.70109" lon="5.99831">
        <ele>1495</ele>
        <time>2021-09-20T08:16:00Z</time>
      </trkpt>
      <trkpt lat="44.7011" lon="5.99832">
        <ele>1495</ele>
        <time>2021-09-20T08:16:01Z</time>
      </trkpt>
      <trkpt lat="44.7011" lon="5.99832">
        <ele>1496</ele>
        <time>2021-09-20T08:16:02Z</time>
      </trkpt>
      <trkpt lat="44.70112" lon="5.99832">
        <ele>1496</ele>
        <time>2021-09-20T08:16:03Z</time>
      </trkpt>
      <trkpt lat="44.70113" lon="5.99832">
        <ele>1496</ele>
        <time>2021-09-20T08:16:04Z</time>
      </trkpt>
      <trkpt lat="44.70114" lon="5.99832">
        <ele>1496</ele>
        <time>2021-09-20T08:16:05Z</time>
      </trkpt>
      <trkpt lat="44.70115" lon="5.99832">
        <ele>1496</ele>
        <time>2021-09-20T08:16:06Z</time>
      </trkpt>
      <trkpt lat="44.70116" lon="5.99832">
        <ele>1496</ele>
        <time>2021-09-20T08:16:07Z</time>
      </trkpt>
      <trkpt lat="44.70116" lon="5.99832">
        <ele>1496</ele>
        <time>2021-09-20T08:16:08Z</time>
      </trkpt>
      <trkpt lat="44.70117" lon="5.99833">
        <ele>1496</ele>
        <time>2021-09-20T08:16:09Z</time>
      </trkpt>
      <trkpt lat="44.70118" lon="5.99833">
        <ele>1496</ele>
        <time>2021-09-20T08:16:10Z</time>
      </trkpt>
      <trkpt lat="44.70119" lon="5.99833">
        <ele>1496</ele>
        <time>2021-09-20T08:16:11Z</time>
      </trkpt>
      <trkpt lat="44.7012" lon="5.99833">
        <ele>1496</ele>
        <time>2021-09-20T08:16:12Z</time>
      </trkpt>
      <trkpt lat="44.7012" lon="5.99834">
        <ele>1496</ele>
        <time>2021-09-20T08:16:13Z</time>
      </trkpt>
      <trkpt lat="44.70121" lon="5.99834">
        <ele>1496</ele>
        <time>2021-09-20T08:16:14Z</time>
      </trkpt>
      <trkpt lat="44.70122" lon="5.99835">
        <ele>1496</ele>
        <time>2021-09-20T08:16:15Z</time>
      </trkpt>
      <trkpt lat="44.70123" lon="5.99835">
        <ele>1496</ele>
        <time>2021-09-20T08:16:16Z</time>
      </trkpt>
      <trkpt lat="44.70124" lon="5.99835">
        <ele>1496</ele>
        <time>2021-09-20T08:16:17Z</time>
      </trkpt>
      <trkpt lat="44.70125" lon="5.99836">
        <ele>1496</ele>
        <time>2021-09-20T08:16:18Z</time>
      </trkpt>
      <trkpt lat="44.70126" lon="5.99836">
        <ele>1496</ele>
        <time>2021-09-20T08:16:19Z</time>
      </trkpt>
      <trkpt lat="44.70127" lon="5.99836">
        <ele>1496</ele>
        <time>2021-09-20T08:16:20Z</time>
      </trkpt>
      <trkpt lat="44.70128" lon="5.99836">
        <ele>1496</ele>
        <time>2021-09-20T08:16:21Z</time>
      </trkpt>
      <trkpt lat="44.70129" lon="5.99835">
        <ele>1496</ele>
        <time>2021-09-20T08:16:22Z</time>
      </trkpt>
      <trkpt lat="44.7013" lon="5.99835">
        <ele>1496</ele>
        <time>2021-09-20T08:16:23Z</time>
      </trkpt>
      <trkpt lat="44.70131" lon="5.99835">
        <ele>1496</ele>
        <time>2021-09-20T08:16:24Z</time>
      </trkpt>
      <trkpt lat="44.70131" lon="5.99836">
        <ele>1496</ele>
        <time>2021-09-20T08:16:25Z</time>
      </trkpt>
      <trkpt lat="44.70132" lon="5.99836">
        <ele>1496</ele>
        <time>2021-09-20T08:16:26Z</time>
      </trkpt>
      <trkpt lat="44.70133" lon="5.99836">
        <ele>1496</ele>
        <time>2021-09-20T08:16:27Z</time>
      </trkpt>
      <trkpt lat="44.70134" lon="5.99837">
        <ele>1496</ele>
        <time>2021-09-20T08:16:28Z</time>
      </trkpt>
      <trkpt lat="44.70135" lon="5.99837">
        <ele>1496</ele>
        <time>2021-09-20T08:16:29Z</time>
      </trkpt>
      <trkpt lat="44.70135" lon="5.99838">
        <ele>1496</ele>
        <time>2021-09-20T08:16:30Z</time>
      </trkpt>
      <trkpt lat="44.70136" lon="5.99838">
        <ele>1496</ele>
        <time>2021-09-20T08:16:31Z</time>
      </trkpt>
      <trkpt lat="44.70138" lon="5.99838">
        <ele>1496</ele>
        <time>2021-09-20T08:16:32Z</time>
      </trkpt>
      <trkpt lat="44.70139" lon="5.99838">
        <ele>1496</ele>
        <time>2021-09-20T08:16:33Z</time>
      </trkpt>
      <trkpt lat="44.7014" lon="5.99838">
        <ele>1496</ele>
        <time>2021-09-20T08:16:34Z</time>
      </trkpt>
      <trkpt lat="44.70141" lon="5.99838">
        <ele>1496</ele>
        <time>2021-09-20T08:16:35Z</time>
      </trkpt>
      <trkpt lat="44.70141" lon="5.99838">
        <ele>1496</ele>
        <time>2021-09-20T08:16:36Z</time>
      </trkpt>
      <trkpt lat="44.70142" lon="5.99838">
        <ele>1497</ele>
        <time>2021-09-20T08:16:37Z</time>
      </trkpt>
      <trkpt lat="44.70142" lon="5.99838">
        <ele>1497</ele>
        <time>2021-09-20T08:16:38Z</time>
      </trkpt>
      <trkpt lat="44.70143" lon="5.99838">
        <ele>1497</ele>
        <time>2021-09-20T08:16:39Z</time>
      </trkpt>
      <trkpt lat="44.70143" lon="5.99839">
        <ele>1497</ele>
        <time>2021-09-20T08:16:40Z</time>
      </trkpt>
      <trkpt lat="44.70144" lon="5.99839">
        <ele>1497</ele>
        <time>2021-09-20T08:16:41Z</time>
      </trkpt>
      <trkpt lat="44.70145" lon="5.99839">
        <ele>1497</ele>
        <time>2021-09-20T08:16:42Z</time>
      </trkpt>
      <trkpt lat="44.70145" lon="5.99839">
        <ele>1497</ele>
        <time>2021-09-20T08:16:43Z</time>
      </trkpt>
      <trkpt lat="44.70146" lon="5.99839">
        <ele>1497</ele>
        <time>2021-09-20T08:16:44Z</time>
      </trkpt>
      <trkpt lat="44.70147" lon="5.99839">
        <ele>1497</ele>
        <time>2021-09-20T08:16:45Z</time>
      </trkpt>
      <trkpt lat="44.70149" lon="5.99839">
        <ele>1497</ele>
        <time>2021-09-20T08:16:46Z</time>
      </trkpt>
      <trkpt lat="44.7015" lon="5.99839">
        <ele>1498</ele>
        <time>2021-09-20T08:16:47Z</time>
      </trkpt>
      <trkpt lat="44.70151" lon="5.99839">
        <ele>1498</ele>
        <time>2021-09-20T08:16:48Z</time>
      </trkpt>
      <trkpt lat="44.70151" lon="5.99839">
        <ele>1498</ele>
        <time>2021-09-20T08:16:49Z</time>
      </trkpt>
      <trkpt lat="44.70152" lon="5.99839">
        <ele>1498</ele>
        <time>2021-09-20T08:16:50Z</time>
      </trkpt>
      <trkpt lat="44.70152" lon="5.99839">
        <ele>1498</ele>
        <time>2021-09-20T08:16:51Z</time>
      </trkpt>
      <trkpt lat="44.70153" lon="5.99839">
        <ele>1499</ele>
        <time>2021-09-20T08:16:52Z</time>
      </trkpt>
      <trkpt lat="44.70154" lon="5.99839">
        <ele>1499</ele>
        <time>2021-09-20T08:16:53Z</time>
      </trkpt>
      <trkpt lat="44.70155" lon="5.99839">
        <ele>1499</ele>
        <time>2021-09-20T08:16:54Z</time>
      </trkpt>
      <trkpt lat="44.70155" lon="5.99839">
        <ele>1499</ele>
        <time>2021-09-20T08:16:55Z</time>
      </trkpt>
      <trkpt lat="44.70156" lon="5.99839">
        <ele>1499</ele>
        <time>2021-09-20T08:16:56Z</time>
      </trkpt>
      <trkpt lat="44.70157" lon="5.99839">
        <ele>1499</ele>
        <time>2021-09-20T08:16:57Z</time>
      </trkpt>
      <trkpt lat="44.70158" lon="5.99839">
        <ele>1499</ele>
        <time>2021-09-20T08:16:58Z</time>
      </trkpt>
      <trkpt lat="44.70159" lon="5.99839">
        <ele>1499</ele>
        <time>2021-09-20T08:16:59Z</time>
      </trkpt>
      <trkpt lat="44.7016" lon="5.99839">
        <ele>1499</ele>
        <time>2021-09-20T08:17:00Z</time>
      </trkpt>
      <trkpt lat="44.7016" lon="5.99839">
        <ele>1499</ele>
        <time>2021-09-20T08:17:01Z</time>
      </trkpt>
      <trkpt lat="44.70161" lon="5.99838">
        <ele>1499</ele>
        <time>2021-09-20T08:17:02Z</time>
      </trkpt>
      <trkpt lat="44.70161" lon="5.99838">
        <ele>1499</ele>
        <time>2021-09-20T08:17:03Z</time>
      </trkpt>
      <trkpt lat="44.70162" lon="5.99838">
        <ele>1499</ele>
        <time>2021-09-20T08:17:04Z</time>
      </trkpt>
      <trkpt lat="44.70162" lon="5.99838">
        <ele>1499</ele>
        <time>2021-09-20T08:17:05Z</time>
      </trkpt>
      <trkpt lat="44.70163" lon="5.99838">
        <ele>1499</ele>
        <time>2021-09-20T08:17:06Z</time>
      </trkpt>
      <trkpt lat="44.70164" lon="5.99837">
        <ele>1500</ele>
        <time>2021-09-20T08:17:07Z</time>
      </trkpt>
      <trkpt lat="44.70164" lon="5.99837">
        <ele>1500</ele>
        <time>2021-09-20T08:17:08Z</time>
      </trkpt>
      <trkpt lat="44.70165" lon="5.99837">
        <ele>1500</ele>
        <time>2021-09-20T08:17:09Z</time>
      </trkpt>
      <trkpt lat="44.70166" lon="5.99836">
        <ele>1500</ele>
        <time>2021-09-20T08:17:10Z</time>
      </trkpt>
      <trkpt lat="44.70167" lon="5.99836">
        <ele>1500</ele>
        <time>2021-09-20T08:17:11Z</time>
      </trkpt>
      <trkpt lat="44.70168" lon="5.99836">
        <ele>1501</ele>
        <time>2021-09-20T08:17:12Z</time>
      </trkpt>
      <trkpt lat="44.70169" lon="5.99835">
        <ele>1501</ele>
        <time>2021-09-20T08:17:13Z</time>
      </trkpt>
      <trkpt lat="44.7017" lon="5.99835">
        <ele>1501</ele>
        <time>2021-09-20T08:17:14Z</time>
      </trkpt>
      <trkpt lat="44.70171" lon="5.99835">
        <ele>1501</ele>
        <time>2021-09-20T08:17:15Z</time>
      </trkpt>
      <trkpt lat="44.70172" lon="5.99834">
        <ele>1501</ele>
        <time>2021-09-20T08:17:16Z</time>
      </trkpt>
      <trkpt lat="44.70173" lon="5.99834">
        <ele>1501</ele>
        <time>2021-09-20T08:17:17Z</time>
      </trkpt>
      <trkpt lat="44.70173" lon="5.99834">
        <ele>1501</ele>
        <time>2021-09-20T08:17:18Z</time>
      </trkpt>
      <trkpt lat="44.70174" lon="5.99834">
        <ele>1501</ele>
        <time>2021-09-20T08:17:19Z</time>
      </trkpt>
      <trkpt lat="44.70175" lon="5.99834">
        <ele>1501</ele>
        <time>2021-09-20T08:17:20Z</time>
      </trkpt>
      <trkpt lat="44.70176" lon="5.99834">
        <ele>1501</ele>
        <time>2021-09-20T08:17:21Z</time>
      </trkpt>
      <trkpt lat="44.70177" lon="5.99834">
        <ele>1502</ele>
        <time>2021-09-20T08:17:22Z</time>
      </trkpt>
      <trkpt lat="44.70178" lon="5.99834">
        <ele>1502</ele>
        <time>2021-09-20T08:17:23Z</time>
      </trkpt>
      <trkpt lat="44.70179" lon="5.99834">
        <ele>1502</ele>
        <time>2021-09-20T08:17:24Z</time>
      </trkpt>
      <trkpt lat="44.7018" lon="5.99834">
        <ele>1502</ele>
        <time>2021-09-20T08:17:25Z</time>
      </trkpt>
      <trkpt lat="44.70181" lon="5.99834">
        <ele>1502</ele>
        <time>2021-09-20T08:17:26Z</time>
      </trkpt>
      <trkpt lat="44.70182" lon="5.99834">
        <ele>1502</ele>
        <time>2021-09-20T08:17:27Z</time>
      </trkpt>
      <trkpt lat="44.70183" lon="5.99833">
        <ele>1502</ele>
        <time>2021-09-20T08:17:28Z</time>
      </trkpt>
      <trkpt lat="44.70184" lon="5.99833">
        <ele>1502</ele>
        <time>2021-09-20T08:17:29Z</time>
      </trkpt>
      <trkpt lat="44.70185" lon="5.99833">
        <ele>1502</ele>
        <time>2021-09-20T08:17:30Z</time>
      </trkpt>
      <trkpt lat="44.70186" lon="5.99833">
        <ele>1502</ele>
        <time>2021-09-20T08:17:31Z</time>
      </trkpt>
      <trkpt lat="44.70187" lon="5.99833">
        <ele>1502</ele>
        <time>2021-09-20T08:17:32Z</time>
      </trkpt>
      <trkpt lat="44.70187" lon="5.99833">
        <ele>1502</ele>
        <time>2021-09-20T08:17:33Z</time>
      </trkpt>
      <trkpt lat="44.70188" lon="5.99833">
        <ele>1502</ele>
        <time>2021-09-20T08:17:34Z</time>
      </trkpt>
      <trkpt lat="44.70189" lon="5.99832">
        <ele>1502</ele>
        <time>2021-09-20T08:17:35Z</time>
      </trkpt>
      <trkpt lat="44.7019" lon="5.99832">
        <ele>1502</ele>
        <time>2021-09-20T08:17:36Z</time>
      </trkpt>
      <trkpt lat="44.70191" lon="5.99832">
        <ele>1503</ele>
        <time>2021-09-20T08:17:37Z</time>
      </trkpt>
      <trkpt lat="44.70192" lon="5.99832">
        <ele>1503</ele>
        <time>2021-09-20T08:17:38Z</time>
      </trkpt>
      <trkpt lat="44.70193" lon="5.99832">
        <ele>1503</ele>
        <time>2021-09-20T08:17:39Z</time>
      </trkpt>
      <trkpt lat="44.70195" lon="5.99832">
        <ele>1503</ele>
        <time>2021-09-20T08:17:40Z</time>
      </trkpt>
      <trkpt lat="44.70195" lon="5.99832">
        <ele>1503</ele>
        <time>2021-09-20T08:17:41Z</time>
      </trkpt>
      <trkpt lat="44.70196" lon="5.99831">
        <ele>1503</ele>
        <time>2021-09-20T08:17:42Z</time>
      </trkpt>
      <trkpt lat="44.70197" lon="5.99831">
        <ele>1503</ele>
        <time>2021-09-20T08:17:43Z</time>
      </trkpt>
      <trkpt lat="44.70198" lon="5.99831">
        <ele>1503</ele>
        <time>2021-09-20T08:17:44Z</time>
      </trkpt>
      <trkpt lat="44.702" lon="5.99831">
        <ele>1504</ele>
        <time>2021-09-20T08:17:45Z</time>
      </trkpt>
      <trkpt lat="44.70201" lon="5.99831">
        <ele>1504</ele>
        <time>2021-09-20T08:17:46Z</time>
      </trkpt>
      <trkpt lat="44.70202" lon="5.9983">
        <ele>1505</ele>
        <time>2021-09-20T08:17:47Z</time>
      </trkpt>
      <trkpt lat="44.70204" lon="5.9983">
        <ele>1505</ele>
        <time>2021-09-20T08:17:48Z</time>
      </trkpt>
      <trkpt lat="44.70205" lon="5.99829">
        <ele>1505</ele>
        <time>2021-09-20T08:17:49Z</time>
      </trkpt>
      <trkpt lat="44.70206" lon="5.99829">
        <ele>1505</ele>
        <time>2021-09-20T08:17:50Z</time>
      </trkpt>
      <trkpt lat="44.70206" lon="5.99829">
        <ele>1505</ele>
        <time>2021-09-20T08:17:51Z</time>
      </trkpt>
      <trkpt lat="44.70207" lon="5.99828">
        <ele>1505</ele>
        <time>2021-09-20T08:17:52Z</time>
      </trkpt>
      <trkpt lat="44.70208" lon="5.99828">
        <ele>1505</ele>
        <time>2021-09-20T08:17:53Z</time>
      </trkpt>
      <trkpt lat="44.70209" lon="5.99827">
        <ele>1505</ele>
        <time>2021-09-20T08:17:54Z</time>
      </trkpt>
      <trkpt lat="44.7021" lon="5.99827">
        <ele>1505</ele>
        <time>2021-09-20T08:17:55Z</time>
      </trkpt>
      <trkpt lat="44.70211" lon="5.99826">
        <ele>1505</ele>
        <time>2021-09-20T08:17:56Z</time>
      </trkpt>
      <trkpt lat="44.70211" lon="5.99826">
        <ele>1506</ele>
        <time>2021-09-20T08:17:57Z</time>
      </trkpt>
      <trkpt lat="44.70212" lon="5.99825">
        <ele>1506</ele>
        <time>2021-09-20T08:17:58Z</time>
      </trkpt>
      <trkpt lat="44.70213" lon="5.99825">
        <ele>1506</ele>
        <time>2021-09-20T08:17:59Z</time>
      </trkpt>
      <trkpt lat="44.70213" lon="5.99825">
        <ele>1506</ele>
        <time>2021-09-20T08:18:00Z</time>
      </trkpt>
      <trkpt lat="44.70214" lon="5.99824">
        <ele>1506</ele>
        <time>2021-09-20T08:18:01Z</time>
      </trkpt>
      <trkpt lat="44.70215" lon="5.99824">
        <ele>1506</ele>
        <time>2021-09-20T08:18:02Z</time>
      </trkpt>
      <trkpt lat="44.70215" lon="5.99823">
        <ele>1506</ele>
        <time>2021-09-20T08:18:03Z</time>
      </trkpt>
      <trkpt lat="44.70216" lon="5.99823">
        <ele>1506</ele>
        <time>2021-09-20T08:18:04Z</time>
      </trkpt>
      <trkpt lat="44.70217" lon="5.99822">
        <ele>1506</ele>
        <time>2021-09-20T08:18:05Z</time>
      </trkpt>
      <trkpt lat="44.70217" lon="5.99822">
        <ele>1506</ele>
        <time>2021-09-20T08:18:06Z</time>
      </trkpt>
      <trkpt lat="44.70218" lon="5.99821">
        <ele>1507</ele>
        <time>2021-09-20T08:18:07Z</time>
      </trkpt>
      <trkpt lat="44.70218" lon="5.99821">
        <ele>1507</ele>
        <time>2021-09-20T08:18:08Z</time>
      </trkpt>
      <trkpt lat="44.70219" lon="5.9982">
        <ele>1507</ele>
        <time>2021-09-20T08:18:09Z</time>
      </trkpt>
      <trkpt lat="44.7022" lon="5.9982">
        <ele>1507</ele>
        <time>2021-09-20T08:18:10Z</time>
      </trkpt>
      <trkpt lat="44.70221" lon="5.9982">
        <ele>1507</ele>
        <time>2021-09-20T08:18:11Z</time>
      </trkpt>
      <trkpt lat="44.70221" lon="5.99819">
        <ele>1508</ele>
        <time>2021-09-20T08:18:12Z</time>
      </trkpt>
      <trkpt lat="44.70222" lon="5.99818">
        <ele>1508</ele>
        <time>2021-09-20T08:18:13Z</time>
      </trkpt>
      <trkpt lat="44.70223" lon="5.99818">
        <ele>1508</ele>
        <time>2021-09-20T08:18:14Z</time>
      </trkpt>
      <trkpt lat="44.70224" lon="5.99817">
        <ele>1508</ele>
        <time>2021-09-20T08:18:15Z</time>
      </trkpt>
      <trkpt lat="44.70224" lon="5.99817">
        <ele>1508</ele>
        <time>2021-09-20T08:18:16Z</time>
      </trkpt>
      <trkpt lat="44.70225" lon="5.99816">
        <ele>1509</ele>
        <time>2021-09-20T08:18:17Z</time>
      </trkpt>
      <trkpt lat="44.70225" lon="5.99815">
        <ele>1509</ele>
        <time>2021-09-20T08:18:18Z</time>
      </trkpt>
      <trkpt lat="44.70226" lon="5.99814">
        <ele>1509</ele>
        <time>2021-09-20T08:18:19Z</time>
      </trkpt>
      <trkpt lat="44.70227" lon="5.99813">
        <ele>1509</ele>
        <time>2021-09-20T08:18:20Z</time>
      </trkpt>
      <trkpt lat="44.70227" lon="5.99813">
        <ele>1509</ele>
        <time>2021-09-20T08:18:21Z</time>
      </trkpt>
      <trkpt lat="44.70228" lon="5.99812">
        <ele>1509</ele>
        <time>2021-09-20T08:18:22Z</time>
      </trkpt>
      <trkpt lat="44.70229" lon="5.99811">
        <ele>1509</ele>
        <time>2021-09-20T08:18:23Z</time>
      </trkpt>
      <trkpt lat="44.7023" lon="5.9981">
        <ele>1509</ele>
        <time>2021-09-20T08:18:24Z</time>
      </trkpt>
      <trkpt lat="44.7023" lon="5.99809">
        <ele>1509</ele>
        <time>2021-09-20T08:18:25Z</time>
      </trkpt>
      <trkpt lat="44.70231" lon="5.99808">
        <ele>1509</ele>
        <time>2021-09-20T08:18:26Z</time>
      </trkpt>
      <trkpt lat="44.70231" lon="5.99807">
        <ele>1510</ele>
        <time>2021-09-20T08:18:27Z</time>
      </trkpt>
      <trkpt lat="44.70232" lon="5.99806">
        <ele>1510</ele>
        <time>2021-09-20T08:18:28Z</time>
      </trkpt>
      <trkpt lat="44.70232" lon="5.99805">
        <ele>1510</ele>
        <time>2021-09-20T08:18:29Z</time>
      </trkpt>
      <trkpt lat="44.70233" lon="5.99804">
        <ele>1510</ele>
        <time>2021-09-20T08:18:30Z</time>
      </trkpt>
      <trkpt lat="44.70234" lon="5.99804">
        <ele>1510</ele>
        <time>2021-09-20T08:18:31Z</time>
      </trkpt>
      <trkpt lat="44.70235" lon="5.99803">
        <ele>1510</ele>
        <time>2021-09-20T08:18:32Z</time>
      </trkpt>
      <trkpt lat="44.70235" lon="5.99803">
        <ele>1510</ele>
        <time>2021-09-20T08:18:33Z</time>
      </trkpt>
      <trkpt lat="44.70236" lon="5.99802">
        <ele>1510</ele>
        <time>2021-09-20T08:18:34Z</time>
      </trkpt>
      <trkpt lat="44.70237" lon="5.99802">
        <ele>1510</ele>
        <time>2021-09-20T08:18:35Z</time>
      </trkpt>
      <trkpt lat="44.70238" lon="5.99802">
        <ele>1510</ele>
        <time>2021-09-20T08:18:36Z</time>
      </trkpt>
      <trkpt lat="44.70239" lon="5.99802">
        <ele>1511</ele>
        <time>2021-09-20T08:18:37Z</time>
      </trkpt>
      <trkpt lat="44.70239" lon="5.99802">
        <ele>1511</ele>
        <time>2021-09-20T08:18:38Z</time>
      </trkpt>
      <trkpt lat="44.7024" lon="5.99802">
        <ele>1511</ele>
        <time>2021-09-20T08:18:39Z</time>
      </trkpt>
      <trkpt lat="44.7024" lon="5.99802">
        <ele>1511</ele>
        <time>2021-09-20T08:18:40Z</time>
      </trkpt>
      <trkpt lat="44.70241" lon="5.99802">
        <ele>1511</ele>
        <time>2021-09-20T08:18:41Z</time>
      </trkpt>
      <trkpt lat="44.70242" lon="5.99803">
        <ele>1511</ele>
        <time>2021-09-20T08:18:42Z</time>
      </trkpt>
      <trkpt lat="44.70243" lon="5.99803">
        <ele>1511</ele>
        <time>2021-09-20T08:18:43Z</time>
      </trkpt>
      <trkpt lat="44.70244" lon="5.99803">
        <ele>1511</ele>
        <time>2021-09-20T08:18:44Z</time>
      </trkpt>
      <trkpt lat="44.70245" lon="5.99803">
        <ele>1511</ele>
        <time>2021-09-20T08:18:45Z</time>
      </trkpt>
      <trkpt lat="44.70246" lon="5.99802">
        <ele>1511</ele>
        <time>2021-09-20T08:18:46Z</time>
      </trkpt>
      <trkpt lat="44.70247" lon="5.99802">
        <ele>1512</ele>
        <time>2021-09-20T08:18:47Z</time>
      </trkpt>
      <trkpt lat="44.70248" lon="5.99802">
        <ele>1512</ele>
        <time>2021-09-20T08:18:48Z</time>
      </trkpt>
      <trkpt lat="44.70248" lon="5.99802">
        <ele>1512</ele>
        <time>2021-09-20T08:18:49Z</time>
      </trkpt>
      <trkpt lat="44.70249" lon="5.99801">
        <ele>1512</ele>
        <time>2021-09-20T08:18:50Z</time>
      </trkpt>
      <trkpt lat="44.7025" lon="5.99801">
        <ele>1512</ele>
        <time>2021-09-20T08:18:51Z</time>
      </trkpt>
      <trkpt lat="44.70251" lon="5.99801">
        <ele>1513</ele>
        <time>2021-09-20T08:18:52Z</time>
      </trkpt>
      <trkpt lat="44.70251" lon="5.998">
        <ele>1513</ele>
        <time>2021-09-20T08:18:53Z</time>
      </trkpt>
      <trkpt lat="44.70252" lon="5.998">
        <ele>1513</ele>
        <time>2021-09-20T08:18:54Z</time>
      </trkpt>
      <trkpt lat="44.70253" lon="5.998">
        <ele>1513</ele>
        <time>2021-09-20T08:18:55Z</time>
      </trkpt>
      <trkpt lat="44.70254" lon="5.99799">
        <ele>1513</ele>
        <time>2021-09-20T08:18:56Z</time>
      </trkpt>
      <trkpt lat="44.70255" lon="5.99799">
        <ele>1514</ele>
        <time>2021-09-20T08:18:57Z</time>
      </trkpt>
      <trkpt lat="44.70255" lon="5.99799">
        <ele>1514</ele>
        <time>2021-09-20T08:18:58Z</time>
      </trkpt>
      <trkpt lat="44.70256" lon="5.99798">
        <ele>1514</ele>
        <time>2021-09-20T08:18:59Z</time>
      </trkpt>
      <trkpt lat="44.70256" lon="5.99798">
        <ele>1514</ele>
        <time>2021-09-20T08:19:00Z</time>
      </trkpt>
      <trkpt lat="44.70257" lon="5.99797">
        <ele>1514</ele>
        <time>2021-09-20T08:19:01Z</time>
      </trkpt>
      <trkpt lat="44.70257" lon="5.99796">
        <ele>1514</ele>
        <time>2021-09-20T08:19:02Z</time>
      </trkpt>
      <trkpt lat="44.70258" lon="5.99795">
        <ele>1514</ele>
        <time>2021-09-20T08:19:03Z</time>
      </trkpt>
      <trkpt lat="44.70258" lon="5.99795">
        <ele>1514</ele>
        <time>2021-09-20T08:19:04Z</time>
      </trkpt>
      <trkpt lat="44.70259" lon="5.99794">
        <ele>1514</ele>
        <time>2021-09-20T08:19:05Z</time>
      </trkpt>
      <trkpt lat="44.70259" lon="5.99793">
        <ele>1514</ele>
        <time>2021-09-20T08:19:06Z</time>
      </trkpt>
      <trkpt lat="44.7026" lon="5.99792">
        <ele>1515</ele>
        <time>2021-09-20T08:19:07Z</time>
      </trkpt>
      <trkpt lat="44.7026" lon="5.99792">
        <ele>1515</ele>
        <time>2021-09-20T08:19:08Z</time>
      </trkpt>
      <trkpt lat="44.70261" lon="5.99791">
        <ele>1515</ele>
        <time>2021-09-20T08:19:09Z</time>
      </trkpt>
      <trkpt lat="44.70261" lon="5.9979">
        <ele>1515</ele>
        <time>2021-09-20T08:19:10Z</time>
      </trkpt>
      <trkpt lat="44.70262" lon="5.9979">
        <ele>1515</ele>
        <time>2021-09-20T08:19:11Z</time>
      </trkpt>
      <trkpt lat="44.70263" lon="5.99789">
        <ele>1516</ele>
        <time>2021-09-20T08:19:12Z</time>
      </trkpt>
      <trkpt lat="44.70263" lon="5.99789">
        <ele>1516</ele>
        <time>2021-09-20T08:19:13Z</time>
      </trkpt>
      <trkpt lat="44.70264" lon="5.99788">
        <ele>1516</ele>
        <time>2021-09-20T08:19:14Z</time>
      </trkpt>
      <trkpt lat="44.70264" lon="5.99788">
        <ele>1516</ele>
        <time>2021-09-20T08:19:15Z</time>
      </trkpt>
      <trkpt lat="44.70265" lon="5.99787">
        <ele>1516</ele>
        <time>2021-09-20T08:19:16Z</time>
      </trkpt>
      <trkpt lat="44.70265" lon="5.99787">
        <ele>1517</ele>
        <time>2021-09-20T08:19:17Z</time>
      </trkpt>
      <trkpt lat="44.70266" lon="5.99786">
        <ele>1517</ele>
        <time>2021-09-20T08:19:18Z</time>
      </trkpt>
      <trkpt lat="44.70266" lon="5.99786">
        <ele>1517</ele>
        <time>2021-09-20T08:19:19Z</time>
      </trkpt>
      <trkpt lat="44.70267" lon="5.99785">
        <ele>1517</ele>
        <time>2021-09-20T08:19:20Z</time>
      </trkpt>
      <trkpt lat="44.70268" lon="5.99785">
        <ele>1517</ele>
        <time>2021-09-20T08:19:21Z</time>
      </trkpt>
      <trkpt lat="44.70268" lon="5.99784">
        <ele>1518</ele>
        <time>2021-09-20T08:19:22Z</time>
      </trkpt>
      <trkpt lat="44.70269" lon="5.99783">
        <ele>1518</ele>
        <time>2021-09-20T08:19:23Z</time>
      </trkpt>
      <trkpt lat="44.7027" lon="5.99783">
        <ele>1518</ele>
        <time>2021-09-20T08:19:24Z</time>
      </trkpt>
      <trkpt lat="44.70271" lon="5.99782">
        <ele>1518</ele>
        <time>2021-09-20T08:19:25Z</time>
      </trkpt>
      <trkpt lat="44.70271" lon="5.99782">
        <ele>1518</ele>
        <time>2021-09-20T08:19:26Z</time>
      </trkpt>
      <trkpt lat="44.70272" lon="5.99781">
        <ele>1518</ele>
        <time>2021-09-20T08:19:27Z</time>
      </trkpt>
      <trkpt lat="44.70272" lon="5.9978">
        <ele>1518</ele>
        <time>2021-09-20T08:19:28Z</time>
      </trkpt>
      <trkpt lat="44.70273" lon="5.9978">
        <ele>1518</ele>
        <time>2021-09-20T08:19:29Z</time>
      </trkpt>
      <trkpt lat="44.70274" lon="5.99779">
        <ele>1518</ele>
        <time>2021-09-20T08:19:30Z</time>
      </trkpt>
      <trkpt lat="44.70274" lon="5.99779">
        <ele>1518</ele>
        <time>2021-09-20T08:19:31Z</time>
      </trkpt>
      <trkpt lat="44.70275" lon="5.99778">
        <ele>1519</ele>
        <time>2021-09-20T08:19:32Z</time>
      </trkpt>
      <trkpt lat="44.70276" lon="5.99778">
        <ele>1519</ele>
        <time>2021-09-20T08:19:33Z</time>
      </trkpt>
      <trkpt lat="44.70277" lon="5.99777">
        <ele>1519</ele>
        <time>2021-09-20T08:19:34Z</time>
      </trkpt>
      <trkpt lat="44.70277" lon="5.99776">
        <ele>1519</ele>
        <time>2021-09-20T08:19:35Z</time>
      </trkpt>
      <trkpt lat="44.70278" lon="5.99776">
        <ele>1519</ele>
        <time>2021-09-20T08:19:36Z</time>
      </trkpt>
      <trkpt lat="44.70279" lon="5.99775">
        <ele>1520</ele>
        <time>2021-09-20T08:19:37Z</time>
      </trkpt>
      <trkpt lat="44.7028" lon="5.99774">
        <ele>1520</ele>
        <time>2021-09-20T08:19:38Z</time>
      </trkpt>
      <trkpt lat="44.7028" lon="5.99774">
        <ele>1520</ele>
        <time>2021-09-20T08:19:39Z</time>
      </trkpt>
      <trkpt lat="44.70281" lon="5.99773">
        <ele>1520</ele>
        <time>2021-09-20T08:19:40Z</time>
      </trkpt>
      <trkpt lat="44.70281" lon="5.99773">
        <ele>1520</ele>
        <time>2021-09-20T08:19:41Z</time>
      </trkpt>
      <trkpt lat="44.70282" lon="5.99772">
        <ele>1520</ele>
        <time>2021-09-20T08:19:42Z</time>
      </trkpt>
      <trkpt lat="44.70282" lon="5.99772">
        <ele>1520</ele>
        <time>2021-09-20T08:19:43Z</time>
      </trkpt>
      <trkpt lat="44.70283" lon="5.99771">
        <ele>1520</ele>
        <time>2021-09-20T08:19:44Z</time>
      </trkpt>
      <trkpt lat="44.70283" lon="5.9977">
        <ele>1520</ele>
        <time>2021-09-20T08:19:45Z</time>
      </trkpt>
      <trkpt lat="44.70284" lon="5.9977">
        <ele>1520</ele>
        <time>2021-09-20T08:19:46Z</time>
      </trkpt>
      <trkpt lat="44.70284" lon="5.99769">
        <ele>1521</ele>
        <time>2021-09-20T08:19:47Z</time>
      </trkpt>
      <trkpt lat="44.70285" lon="5.99768">
        <ele>1521</ele>
        <time>2021-09-20T08:19:48Z</time>
      </trkpt>
      <trkpt lat="44.70285" lon="5.99768">
        <ele>1521</ele>
        <time>2021-09-20T08:19:49Z</time>
      </trkpt>
      <trkpt lat="44.70286" lon="5.99767">
        <ele>1521</ele>
        <time>2021-09-20T08:19:50Z</time>
      </trkpt>
      <trkpt lat="44.70287" lon="5.99767">
        <ele>1521</ele>
        <time>2021-09-20T08:19:51Z</time>
      </trkpt>
      <trkpt lat="44.70288" lon="5.99767">
        <ele>1522</ele>
        <time>2021-09-20T08:19:52Z</time>
      </trkpt>
      <trkpt lat="44.70289" lon="5.99766">
        <ele>1522</ele>
        <time>2021-09-20T08:19:53Z</time>
      </trkpt>
      <trkpt lat="44.7029" lon="5.99766">
        <ele>1522</ele>
        <time>2021-09-20T08:19:54Z</time>
      </trkpt>
      <trkpt lat="44.70291" lon="5.99766">
        <ele>1522</ele>
        <time>2021-09-20T08:19:55Z</time>
      </trkpt>
      <trkpt lat="44.70292" lon="5.99766">
        <ele>1522</ele>
        <time>2021-09-20T08:19:56Z</time>
      </trkpt>
      <trkpt lat="44.70293" lon="5.99765">
        <ele>1523</ele>
        <time>2021-09-20T08:19:57Z</time>
      </trkpt>
      <trkpt lat="44.70293" lon="5.99765">
        <ele>1523</ele>
        <time>2021-09-20T08:19:58Z</time>
      </trkpt>
      <trkpt lat="44.70294" lon="5.99764">
        <ele>1523</ele>
        <time>2021-09-20T08:19:59Z</time>
      </trkpt>
      <trkpt lat="44.70295" lon="5.99763">
        <ele>1523</ele>
        <time>2021-09-20T08:20:00Z</time>
      </trkpt>
      <trkpt lat="44.70295" lon="5.99763">
        <ele>1523</ele>
        <time>2021-09-20T08:20:01Z</time>
      </trkpt>
      <trkpt lat="44.70296" lon="5.99762">
        <ele>1523</ele>
        <time>2021-09-20T08:20:02Z</time>
      </trkpt>
      <trkpt lat="44.70296" lon="5.99761">
        <ele>1523</ele>
        <time>2021-09-20T08:20:03Z</time>
      </trkpt>
      <trkpt lat="44.70297" lon="5.9976">
        <ele>1523</ele>
        <time>2021-09-20T08:20:04Z</time>
      </trkpt>
      <trkpt lat="44.70298" lon="5.9976">
        <ele>1523</ele>
        <time>2021-09-20T08:20:05Z</time>
      </trkpt>
      <trkpt lat="44.70298" lon="5.99759">
        <ele>1523</ele>
        <time>2021-09-20T08:20:06Z</time>
      </trkpt>
      <trkpt lat="44.70298" lon="5.99758">
        <ele>1524</ele>
        <time>2021-09-20T08:20:07Z</time>
      </trkpt>
      <trkpt lat="44.70299" lon="5.99757">
        <ele>1524</ele>
        <time>2021-09-20T08:20:08Z</time>
      </trkpt>
      <trkpt lat="44.70299" lon="5.99756">
        <ele>1524</ele>
        <time>2021-09-20T08:20:09Z</time>
      </trkpt>
      <trkpt lat="44.703" lon="5.99755">
        <ele>1524</ele>
        <time>2021-09-20T08:20:10Z</time>
      </trkpt>
      <trkpt lat="44.70301" lon="5.99755">
        <ele>1524</ele>
        <time>2021-09-20T08:20:11Z</time>
      </trkpt>
      <trkpt lat="44.70301" lon="5.99754">
        <ele>1525</ele>
        <time>2021-09-20T08:20:12Z</time>
      </trkpt>
      <trkpt lat="44.70302" lon="5.99753">
        <ele>1525</ele>
        <time>2021-09-20T08:20:13Z</time>
      </trkpt>
      <trkpt lat="44.70302" lon="5.99752">
        <ele>1525</ele>
        <time>2021-09-20T08:20:14Z</time>
      </trkpt>
      <trkpt lat="44.70303" lon="5.99751">
        <ele>1525</ele>
        <time>2021-09-20T08:20:15Z</time>
      </trkpt>
      <trkpt lat="44.70303" lon="5.9975">
        <ele>1525</ele>
        <time>2021-09-20T08:20:16Z</time>
      </trkpt>
      <trkpt lat="44.70304" lon="5.9975">
        <ele>1526</ele>
        <time>2021-09-20T08:20:17Z</time>
      </trkpt>
      <trkpt lat="44.70304" lon="5.99749">
        <ele>1526</ele>
        <time>2021-09-20T08:20:18Z</time>
      </trkpt>
      <trkpt lat="44.70305" lon="5.99748">
        <ele>1526</ele>
        <time>2021-09-20T08:20:19Z</time>
      </trkpt>
      <trkpt lat="44.70305" lon="5.99748">
        <ele>1526</ele>
        <time>2021-09-20T08:20:20Z</time>
      </trkpt>
      <trkpt lat="44.70306" lon="5.99747">
        <ele>1526</ele>
        <time>2021-09-20T08:20:21Z</time>
      </trkpt>
      <trkpt lat="44.70306" lon="5.99746">
        <ele>1526</ele>
        <time>2021-09-20T08:20:22Z</time>
      </trkpt>
      <trkpt lat="44.70307" lon="5.99746">
        <ele>1526</ele>
        <time>2021-09-20T08:20:23Z</time>
      </trkpt>
      <trkpt lat="44.70307" lon="5.99745">
        <ele>1526</ele>
        <time>2021-09-20T08:20:24Z</time>
      </trkpt>
      <trkpt lat="44.70308" lon="5.99745">
        <ele>1526</ele>
        <time>2021-09-20T08:20:25Z</time>
      </trkpt>
      <trkpt lat="44.70308" lon="5.99744">
        <ele>1526</ele>
        <time>2021-09-20T08:20:26Z</time>
      </trkpt>
      <trkpt lat="44.70309" lon="5.99744">
        <ele>1527</ele>
        <time>2021-09-20T08:20:27Z</time>
      </trkpt>
      <trkpt lat="44.7031" lon="5.99743">
        <ele>1527</ele>
        <time>2021-09-20T08:20:28Z</time>
      </trkpt>
      <trkpt lat="44.7031" lon="5.99743">
        <ele>1527</ele>
        <time>2021-09-20T08:20:29Z</time>
      </trkpt>
      <trkpt lat="44.70311" lon="5.99742">
        <ele>1527</ele>
        <time>2021-09-20T08:20:30Z</time>
      </trkpt>
      <trkpt lat="44.70312" lon="5.99741">
        <ele>1527</ele>
        <time>2021-09-20T08:20:31Z</time>
      </trkpt>
      <trkpt lat="44.70312" lon="5.99741">
        <ele>1528</ele>
        <time>2021-09-20T08:20:32Z</time>
      </trkpt>
      <trkpt lat="44.70313" lon="5.99741">
        <ele>1528</ele>
        <time>2021-09-20T08:20:33Z</time>
      </trkpt>
      <trkpt lat="44.70314" lon="5.9974">
        <ele>1528</ele>
        <time>2021-09-20T08:20:34Z</time>
      </trkpt>
      <trkpt lat="44.70314" lon="5.9974">
        <ele>1528</ele>
        <time>2021-09-20T08:20:35Z</time>
      </trkpt>
      <trkpt lat="44.70315" lon="5.99739">
        <ele>1528</ele>
        <time>2021-09-20T08:20:36Z</time>
      </trkpt>
      <trkpt lat="44.70316" lon="5.99739">
        <ele>1528</ele>
        <time>2021-09-20T08:20:37Z</time>
      </trkpt>
      <trkpt lat="44.70317" lon="5.99738">
        <ele>1528</ele>
        <time>2021-09-20T08:20:38Z</time>
      </trkpt>
      <trkpt lat="44.70318" lon="5.99737">
        <ele>1528</ele>
        <time>2021-09-20T08:20:39Z</time>
      </trkpt>
      <trkpt lat="44.70319" lon="5.99737">
        <ele>1528</ele>
        <time>2021-09-20T08:20:40Z</time>
      </trkpt>
      <trkpt lat="44.7032" lon="5.99736">
        <ele>1528</ele>
        <time>2021-09-20T08:20:41Z</time>
      </trkpt>
      <trkpt lat="44.70321" lon="5.99735">
        <ele>1529</ele>
        <time>2021-09-20T08:20:42Z</time>
      </trkpt>
      <trkpt lat="44.70321" lon="5.99734">
        <ele>1529</ele>
        <time>2021-09-20T08:20:43Z</time>
      </trkpt>
      <trkpt lat="44.70322" lon="5.99733">
        <ele>1529</ele>
        <time>2021-09-20T08:20:44Z</time>
      </trkpt>
      <trkpt lat="44.70323" lon="5.99732">
        <ele>1529</ele>
        <time>2021-09-20T08:20:45Z</time>
      </trkpt>
      <trkpt lat="44.70323" lon="5.99732">
        <ele>1529</ele>
        <time>2021-09-20T08:20:46Z</time>
      </trkpt>
      <trkpt lat="44.70324" lon="5.99731">
        <ele>1529</ele>
        <time>2021-09-20T08:20:47Z</time>
      </trkpt>
      <trkpt lat="44.70324" lon="5.9973">
        <ele>1529</ele>
        <time>2021-09-20T08:20:48Z</time>
      </trkpt>
      <trkpt lat="44.70325" lon="5.9973">
        <ele>1529</ele>
        <time>2021-09-20T08:20:49Z</time>
      </trkpt>
      <trkpt lat="44.70325" lon="5.99729">
        <ele>1529</ele>
        <time>2021-09-20T08:20:50Z</time>
      </trkpt>
      <trkpt lat="44.70325" lon="5.99729">
        <ele>1529</ele>
        <time>2021-09-20T08:20:51Z</time>
      </trkpt>
      <trkpt lat="44.70326" lon="5.99728">
        <ele>1530</ele>
        <time>2021-09-20T08:20:52Z</time>
      </trkpt>
      <trkpt lat="44.70326" lon="5.99728">
        <ele>1530</ele>
        <time>2021-09-20T08:20:53Z</time>
      </trkpt>
      <trkpt lat="44.70327" lon="5.99727">
        <ele>1530</ele>
        <time>2021-09-20T08:20:54Z</time>
      </trkpt>
      <trkpt lat="44.70327" lon="5.99726">
        <ele>1530</ele>
        <time>2021-09-20T08:20:55Z</time>
      </trkpt>
      <trkpt lat="44.70327" lon="5.99726">
        <ele>1530</ele>
        <time>2021-09-20T08:20:56Z</time>
      </trkpt>
      <trkpt lat="44.70327" lon="5.99725">
        <ele>1530</ele>
        <time>2021-09-20T08:20:57Z</time>
      </trkpt>
      <trkpt lat="44.70327" lon="5.99724">
        <ele>1530</ele>
        <time>2021-09-20T08:20:58Z</time>
      </trkpt>
      <trkpt lat="44.70328" lon="5.99723">
        <ele>1530</ele>
        <time>2021-09-20T08:20:59Z</time>
      </trkpt>
      <trkpt lat="44.70328" lon="5.99722">
        <ele>1530</ele>
        <time>2021-09-20T08:21:00Z</time>
      </trkpt>
      <trkpt lat="44.70328" lon="5.99722">
        <ele>1530</ele>
        <time>2021-09-20T08:21:01Z</time>
      </trkpt>
      <trkpt lat="44.70329" lon="5.99721">
        <ele>1531</ele>
        <time>2021-09-20T08:21:02Z</time>
      </trkpt>
      <trkpt lat="44.70329" lon="5.9972">
        <ele>1531</ele>
        <time>2021-09-20T08:21:03Z</time>
      </trkpt>
      <trkpt lat="44.7033" lon="5.9972">
        <ele>1531</ele>
        <time>2021-09-20T08:21:04Z</time>
      </trkpt>
      <trkpt lat="44.7033" lon="5.99719">
        <ele>1531</ele>
        <time>2021-09-20T08:21:05Z</time>
      </trkpt>
      <trkpt lat="44.70331" lon="5.99719">
        <ele>1531</ele>
        <time>2021-09-20T08:21:06Z</time>
      </trkpt>
      <trkpt lat="44.70332" lon="5.99718">
        <ele>1532</ele>
        <time>2021-09-20T08:21:07Z</time>
      </trkpt>
      <trkpt lat="44.70332" lon="5.99718">
        <ele>1532</ele>
        <time>2021-09-20T08:21:08Z</time>
      </trkpt>
      <trkpt lat="44.70333" lon="5.99717">
        <ele>1532</ele>
        <time>2021-09-20T08:21:09Z</time>
      </trkpt>
      <trkpt lat="44.70333" lon="5.99716">
        <ele>1532</ele>
        <time>2021-09-20T08:21:10Z</time>
      </trkpt>
      <trkpt lat="44.70334" lon="5.99716">
        <ele>1532</ele>
        <time>2021-09-20T08:21:11Z</time>
      </trkpt>
      <trkpt lat="44.70334" lon="5.99715">
        <ele>1532</ele>
        <time>2021-09-20T08:21:12Z</time>
      </trkpt>
      <trkpt lat="44.70335" lon="5.99714">
        <ele>1532</ele>
        <time>2021-09-20T08:21:13Z</time>
      </trkpt>
      <trkpt lat="44.70335" lon="5.99713">
        <ele>1532</ele>
        <time>2021-09-20T08:21:14Z</time>
      </trkpt>
      <trkpt lat="44.70336" lon="5.99712">
        <ele>1532</ele>
        <time>2021-09-20T08:21:15Z</time>
      </trkpt>
      <trkpt lat="44.70336" lon="5.99711">
        <ele>1532</ele>
        <time>2021-09-20T08:21:16Z</time>
      </trkpt>
      <trkpt lat="44.70337" lon="5.9971">
        <ele>1533</ele>
        <time>2021-09-20T08:21:17Z</time>
      </trkpt>
      <trkpt lat="44.70337" lon="5.99709">
        <ele>1533</ele>
        <time>2021-09-20T08:21:18Z</time>
      </trkpt>
      <trkpt lat="44.70338" lon="5.99708">
        <ele>1533</ele>
        <time>2021-09-20T08:21:19Z</time>
      </trkpt>
      <trkpt lat="44.70338" lon="5.99707">
        <ele>1533</ele>
        <time>2021-09-20T08:21:20Z</time>
      </trkpt>
      <trkpt lat="44.70339" lon="5.99706">
        <ele>1533</ele>
        <time>2021-09-20T08:21:21Z</time>
      </trkpt>
      <trkpt lat="44.70339" lon="5.99705">
        <ele>1534</ele>
        <time>2021-09-20T08:21:22Z</time>
      </trkpt>
      <trkpt lat="44.7034" lon="5.99705">
        <ele>1534</ele>
        <time>2021-09-20T08:21:23Z</time>
      </trkpt>
      <trkpt lat="44.70341" lon="5.99704">
        <ele>1534</ele>
        <time>2021-09-20T08:21:24Z</time>
      </trkpt>
      <trkpt lat="44.70341" lon="5.99703">
        <ele>1534</ele>
        <time>2021-09-20T08:21:25Z</time>
      </trkpt>
      <trkpt lat="44.70342" lon="5.99702">
        <ele>1534</ele>
        <time>2021-09-20T08:21:26Z</time>
      </trkpt>
      <trkpt lat="44.70342" lon="5.997">
        <ele>1535</ele>
        <time>2021-09-20T08:21:27Z</time>
      </trkpt>
      <trkpt lat="44.70343" lon="5.99699">
        <ele>1535</ele>
        <time>2021-09-20T08:21:28Z</time>
      </trkpt>
      <trkpt lat="44.70343" lon="5.99698">
        <ele>1535</ele>
        <time>2021-09-20T08:21:29Z</time>
      </trkpt>
      <trkpt lat="44.70344" lon="5.99696">
        <ele>1535</ele>
        <time>2021-09-20T08:21:30Z</time>
      </trkpt>
      <trkpt lat="44.70345" lon="5.99696">
        <ele>1535</ele>
        <time>2021-09-20T08:21:31Z</time>
      </trkpt>
      <trkpt lat="44.70345" lon="5.99695">
        <ele>1536</ele>
        <time>2021-09-20T08:21:32Z</time>
      </trkpt>
      <trkpt lat="44.70346" lon="5.99694">
        <ele>1536</ele>
        <time>2021-09-20T08:21:33Z</time>
      </trkpt>
      <trkpt lat="44.70346" lon="5.99693">
        <ele>1536</ele>
        <time>2021-09-20T08:21:34Z</time>
      </trkpt>
      <trkpt lat="44.70347" lon="5.99693">
        <ele>1536</ele>
        <time>2021-09-20T08:21:35Z</time>
      </trkpt>
      <trkpt lat="44.70348" lon="5.99692">
        <ele>1536</ele>
        <time>2021-09-20T08:21:36Z</time>
      </trkpt>
      <trkpt lat="44.70348" lon="5.99692">
        <ele>1537</ele>
        <time>2021-09-20T08:21:37Z</time>
      </trkpt>
      <trkpt lat="44.70349" lon="5.99691">
        <ele>1537</ele>
        <time>2021-09-20T08:21:38Z</time>
      </trkpt>
      <trkpt lat="44.7035" lon="5.9969">
        <ele>1537</ele>
        <time>2021-09-20T08:21:39Z</time>
      </trkpt>
      <trkpt lat="44.7035" lon="5.99689">
        <ele>1537</ele>
        <time>2021-09-20T08:21:40Z</time>
      </trkpt>
      <trkpt lat="44.70351" lon="5.99688">
        <ele>1537</ele>
        <time>2021-09-20T08:21:41Z</time>
      </trkpt>
      <trkpt lat="44.70351" lon="5.99687">
        <ele>1537</ele>
        <time>2021-09-20T08:21:42Z</time>
      </trkpt>
      <trkpt lat="44.70352" lon="5.99686">
        <ele>1537</ele>
        <time>2021-09-20T08:21:43Z</time>
      </trkpt>
      <trkpt lat="44.70352" lon="5.99685">
        <ele>1537</ele>
        <time>2021-09-20T08:21:44Z</time>
      </trkpt>
      <trkpt lat="44.70353" lon="5.99684">
        <ele>1537</ele>
        <time>2021-09-20T08:21:45Z</time>
      </trkpt>
      <trkpt lat="44.70353" lon="5.99683">
        <ele>1537</ele>
        <time>2021-09-20T08:21:46Z</time>
      </trkpt>
      <trkpt lat="44.70354" lon="5.99682">
        <ele>1538</ele>
        <time>2021-09-20T08:21:47Z</time>
      </trkpt>
      <trkpt lat="44.70354" lon="5.99681">
        <ele>1538</ele>
        <time>2021-09-20T08:21:48Z</time>
      </trkpt>
      <trkpt lat="44.70354" lon="5.9968">
        <ele>1538</ele>
        <time>2021-09-20T08:21:49Z</time>
      </trkpt>
      <trkpt lat="44.70354" lon="5.99679">
        <ele>1538</ele>
        <time>2021-09-20T08:21:50Z</time>
      </trkpt>
      <trkpt lat="44.70354" lon="5.99679">
        <ele>1538</ele>
        <time>2021-09-20T08:21:51Z</time>
      </trkpt>
      <trkpt lat="44.70355" lon="5.99678">
        <ele>1538</ele>
        <time>2021-09-20T08:21:52Z</time>
      </trkpt>
      <trkpt lat="44.70355" lon="5.99677">
        <ele>1538</ele>
        <time>2021-09-20T08:21:53Z</time>
      </trkpt>
      <trkpt lat="44.70355" lon="5.99676">
        <ele>1538</ele>
        <time>2021-09-20T08:21:54Z</time>
      </trkpt>
      <trkpt lat="44.70355" lon="5.99675">
        <ele>1538</ele>
        <time>2021-09-20T08:21:55Z</time>
      </trkpt>
      <trkpt lat="44.70356" lon="5.99674">
        <ele>1538</ele>
        <time>2021-09-20T08:21:56Z</time>
      </trkpt>
      <trkpt lat="44.70356" lon="5.99673">
        <ele>1539</ele>
        <time>2021-09-20T08:21:57Z</time>
      </trkpt>
      <trkpt lat="44.70356" lon="5.99672">
        <ele>1539</ele>
        <time>2021-09-20T08:21:58Z</time>
      </trkpt>
      <trkpt lat="44.70357" lon="5.99671">
        <ele>1539</ele>
        <time>2021-09-20T08:21:59Z</time>
      </trkpt>
      <trkpt lat="44.70357" lon="5.9967">
        <ele>1539</ele>
        <time>2021-09-20T08:22:00Z</time>
      </trkpt>
      <trkpt lat="44.70357" lon="5.99669">
        <ele>1539</ele>
        <time>2021-09-20T08:22:01Z</time>
      </trkpt>
      <trkpt lat="44.70357" lon="5.99668">
        <ele>1539</ele>
        <time>2021-09-20T08:22:02Z</time>
      </trkpt>
      <trkpt lat="44.70358" lon="5.99667">
        <ele>1539</ele>
        <time>2021-09-20T08:22:03Z</time>
      </trkpt>
      <trkpt lat="44.70358" lon="5.99666">
        <ele>1539</ele>
        <time>2021-09-20T08:22:04Z</time>
      </trkpt>
      <trkpt lat="44.70358" lon="5.99665">
        <ele>1539</ele>
        <time>2021-09-20T08:22:05Z</time>
      </trkpt>
      <trkpt lat="44.70359" lon="5.99664">
        <ele>1539</ele>
        <time>2021-09-20T08:22:06Z</time>
      </trkpt>
      <trkpt lat="44.70359" lon="5.99663">
        <ele>1540</ele>
        <time>2021-09-20T08:22:07Z</time>
      </trkpt>
      <trkpt lat="44.70359" lon="5.99662">
        <ele>1540</ele>
        <time>2021-09-20T08:22:08Z</time>
      </trkpt>
      <trkpt lat="44.70359" lon="5.99661">
        <ele>1540</ele>
        <time>2021-09-20T08:22:09Z</time>
      </trkpt>
      <trkpt lat="44.7036" lon="5.9966">
        <ele>1540</ele>
        <time>2021-09-20T08:22:10Z</time>
      </trkpt>
      <trkpt lat="44.7036" lon="5.99659">
        <ele>1540</ele>
        <time>2021-09-20T08:22:11Z</time>
      </trkpt>
      <trkpt lat="44.7036" lon="5.99658">
        <ele>1541</ele>
        <time>2021-09-20T08:22:12Z</time>
      </trkpt>
      <trkpt lat="44.70361" lon="5.99657">
        <ele>1541</ele>
        <time>2021-09-20T08:22:13Z</time>
      </trkpt>
      <trkpt lat="44.70361" lon="5.99656">
        <ele>1541</ele>
        <time>2021-09-20T08:22:14Z</time>
      </trkpt>
      <trkpt lat="44.70362" lon="5.99656">
        <ele>1542</ele>
        <time>2021-09-20T08:22:15Z</time>
      </trkpt>
      <trkpt lat="44.70363" lon="5.99656">
        <ele>1542</ele>
        <time>2021-09-20T08:22:16Z</time>
      </trkpt>
      <trkpt lat="44.70363" lon="5.99655">
        <ele>1543</ele>
        <time>2021-09-20T08:22:17Z</time>
      </trkpt>
      <trkpt lat="44.70364" lon="5.99655">
        <ele>1543</ele>
        <time>2021-09-20T08:22:18Z</time>
      </trkpt>
      <trkpt lat="44.70365" lon="5.99655">
        <ele>1543</ele>
        <time>2021-09-20T08:22:19Z</time>
      </trkpt>
      <trkpt lat="44.70366" lon="5.99655">
        <ele>1543</ele>
        <time>2021-09-20T08:22:20Z</time>
      </trkpt>
      <trkpt lat="44.70367" lon="5.99654">
        <ele>1543</ele>
        <time>2021-09-20T08:22:21Z</time>
      </trkpt>
      <trkpt lat="44.70367" lon="5.99654">
        <ele>1543</ele>
        <time>2021-09-20T08:22:22Z</time>
      </trkpt>
      <trkpt lat="44.70368" lon="5.99654">
        <ele>1543</ele>
        <time>2021-09-20T08:22:23Z</time>
      </trkpt>
      <trkpt lat="44.70369" lon="5.99654">
        <ele>1543</ele>
        <time>2021-09-20T08:22:24Z</time>
      </trkpt>
      <trkpt lat="44.7037" lon="5.99653">
        <ele>1543</ele>
        <time>2021-09-20T08:22:25Z</time>
      </trkpt>
      <trkpt lat="44.7037" lon="5.99653">
        <ele>1543</ele>
        <time>2021-09-20T08:22:26Z</time>
      </trkpt>
      <trkpt lat="44.70371" lon="5.99652">
        <ele>1544</ele>
        <time>2021-09-20T08:22:27Z</time>
      </trkpt>
      <trkpt lat="44.70371" lon="5.99651">
        <ele>1544</ele>
        <time>2021-09-20T08:22:28Z</time>
      </trkpt>
      <trkpt lat="44.70372" lon="5.9965">
        <ele>1544</ele>
        <time>2021-09-20T08:22:29Z</time>
      </trkpt>
      <trkpt lat="44.70372" lon="5.9965">
        <ele>1544</ele>
        <time>2021-09-20T08:22:30Z</time>
      </trkpt>
      <trkpt lat="44.70372" lon="5.99649">
        <ele>1544</ele>
        <time>2021-09-20T08:22:31Z</time>
      </trkpt>
      <trkpt lat="44.70373" lon="5.99648">
        <ele>1544</ele>
        <time>2021-09-20T08:22:32Z</time>
      </trkpt>
      <trkpt lat="44.70373" lon="5.99647">
        <ele>1544</ele>
        <time>2021-09-20T08:22:33Z</time>
      </trkpt>
      <trkpt lat="44.70374" lon="5.99646">
        <ele>1544</ele>
        <time>2021-09-20T08:22:34Z</time>
      </trkpt>
      <trkpt lat="44.70374" lon="5.99645">
        <ele>1544</ele>
        <time>2021-09-20T08:22:35Z</time>
      </trkpt>
      <trkpt lat="44.70375" lon="5.99644">
        <ele>1544</ele>
        <time>2021-09-20T08:22:36Z</time>
      </trkpt>
      <trkpt lat="44.70376" lon="5.99643">
        <ele>1545</ele>
        <time>2021-09-20T08:22:37Z</time>
      </trkpt>
      <trkpt lat="44.70377" lon="5.99642">
        <ele>1545</ele>
        <time>2021-09-20T08:22:38Z</time>
      </trkpt>
      <trkpt lat="44.70378" lon="5.99641">
        <ele>1545</ele>
        <time>2021-09-20T08:22:39Z</time>
      </trkpt>
      <trkpt lat="44.70379" lon="5.99641">
        <ele>1545</ele>
        <time>2021-09-20T08:22:40Z</time>
      </trkpt>
      <trkpt lat="44.7038" lon="5.99641">
        <ele>1545</ele>
        <time>2021-09-20T08:22:41Z</time>
      </trkpt>
      <trkpt lat="44.70381" lon="5.99641">
        <ele>1546</ele>
        <time>2021-09-20T08:22:42Z</time>
      </trkpt>
      <trkpt lat="44.70382" lon="5.9964">
        <ele>1546</ele>
        <time>2021-09-20T08:22:43Z</time>
      </trkpt>
      <trkpt lat="44.70383" lon="5.9964">
        <ele>1546</ele>
        <time>2021-09-20T08:22:44Z</time>
      </trkpt>
      <trkpt lat="44.70384" lon="5.99639">
        <ele>1546</ele>
        <time>2021-09-20T08:22:45Z</time>
      </trkpt>
      <trkpt lat="44.70385" lon="5.99638">
        <ele>1546</ele>
        <time>2021-09-20T08:22:46Z</time>
      </trkpt>
      <trkpt lat="44.70385" lon="5.99638">
        <ele>1546</ele>
        <time>2021-09-20T08:22:47Z</time>
      </trkpt>
      <trkpt lat="44.70386" lon="5.99637">
        <ele>1546</ele>
        <time>2021-09-20T08:22:48Z</time>
      </trkpt>
      <trkpt lat="44.70386" lon="5.99636">
        <ele>1546</ele>
        <time>2021-09-20T08:22:49Z</time>
      </trkpt>
      <trkpt lat="44.70387" lon="5.99635">
        <ele>1546</ele>
        <time>2021-09-20T08:22:50Z</time>
      </trkpt>
      <trkpt lat="44.70387" lon="5.99634">
        <ele>1546</ele>
        <time>2021-09-20T08:22:51Z</time>
      </trkpt>
      <trkpt lat="44.70388" lon="5.99633">
        <ele>1547</ele>
        <time>2021-09-20T08:22:52Z</time>
      </trkpt>
      <trkpt lat="44.70389" lon="5.99632">
        <ele>1547</ele>
        <time>2021-09-20T08:22:53Z</time>
      </trkpt>
      <trkpt lat="44.70389" lon="5.99632">
        <ele>1547</ele>
        <time>2021-09-20T08:22:54Z</time>
      </trkpt>
      <trkpt lat="44.70389" lon="5.99631">
        <ele>1547</ele>
        <time>2021-09-20T08:22:55Z</time>
      </trkpt>
      <trkpt lat="44.7039" lon="5.9963">
        <ele>1547</ele>
        <time>2021-09-20T08:22:56Z</time>
      </trkpt>
      <trkpt lat="44.70391" lon="5.99629">
        <ele>1547</ele>
        <time>2021-09-20T08:22:57Z</time>
      </trkpt>
      <trkpt lat="44.70391" lon="5.99628">
        <ele>1547</ele>
        <time>2021-09-20T08:22:58Z</time>
      </trkpt>
      <trkpt lat="44.70391" lon="5.99627">
        <ele>1547</ele>
        <time>2021-09-20T08:22:59Z</time>
      </trkpt>
      <trkpt lat="44.70392" lon="5.99627">
        <ele>1547</ele>
        <time>2021-09-20T08:23:00Z</time>
      </trkpt>
      <trkpt lat="44.70392" lon="5.99626">
        <ele>1547</ele>
        <time>2021-09-20T08:23:01Z</time>
      </trkpt>
      <trkpt lat="44.70393" lon="5.99626">
        <ele>1548</ele>
        <time>2021-09-20T08:23:02Z</time>
      </trkpt>
      <trkpt lat="44.70394" lon="5.99625">
        <ele>1548</ele>
        <time>2021-09-20T08:23:03Z</time>
      </trkpt>
      <trkpt lat="44.70394" lon="5.99624">
        <ele>1548</ele>
        <time>2021-09-20T08:23:04Z</time>
      </trkpt>
      <trkpt lat="44.70395" lon="5.99624">
        <ele>1548</ele>
        <time>2021-09-20T08:23:05Z</time>
      </trkpt>
      <trkpt lat="44.70396" lon="5.99623">
        <ele>1548</ele>
        <time>2021-09-20T08:23:06Z</time>
      </trkpt>
      <trkpt lat="44.70396" lon="5.99623">
        <ele>1549</ele>
        <time>2021-09-20T08:23:07Z</time>
      </trkpt>
      <trkpt lat="44.70397" lon="5.99622">
        <ele>1549</ele>
        <time>2021-09-20T08:23:08Z</time>
      </trkpt>
      <trkpt lat="44.70397" lon="5.99622">
        <ele>1549</ele>
        <time>2021-09-20T08:23:09Z</time>
      </trkpt>
      <trkpt lat="44.70398" lon="5.99621">
        <ele>1549</ele>
        <time>2021-09-20T08:23:10Z</time>
      </trkpt>
      <trkpt lat="44.70398" lon="5.9962">
        <ele>1549</ele>
        <time>2021-09-20T08:23:11Z</time>
      </trkpt>
      <trkpt lat="44.70399" lon="5.99619">
        <ele>1549</ele>
        <time>2021-09-20T08:23:12Z</time>
      </trkpt>
      <trkpt lat="44.70399" lon="5.99619">
        <ele>1549</ele>
        <time>2021-09-20T08:23:13Z</time>
      </trkpt>
      <trkpt lat="44.704" lon="5.99618">
        <ele>1549</ele>
        <time>2021-09-20T08:23:14Z</time>
      </trkpt>
      <trkpt lat="44.70401" lon="5.99617">
        <ele>1549</ele>
        <time>2021-09-20T08:23:15Z</time>
      </trkpt>
      <trkpt lat="44.70401" lon="5.99616">
        <ele>1549</ele>
        <time>2021-09-20T08:23:16Z</time>
      </trkpt>
      <trkpt lat="44.70402" lon="5.99616">
        <ele>1550</ele>
        <time>2021-09-20T08:23:17Z</time>
      </trkpt>
      <trkpt lat="44.70402" lon="5.99615">
        <ele>1550</ele>
        <time>2021-09-20T08:23:18Z</time>
      </trkpt>
      <trkpt lat="44.70403" lon="5.99614">
        <ele>1550</ele>
        <time>2021-09-20T08:23:19Z</time>
      </trkpt>
      <trkpt lat="44.70403" lon="5.99613">
        <ele>1550</ele>
        <time>2021-09-20T08:23:20Z</time>
      </trkpt>
      <trkpt lat="44.70404" lon="5.99612">
        <ele>1550</ele>
        <time>2021-09-20T08:23:21Z</time>
      </trkpt>
      <trkpt lat="44.70405" lon="5.99612">
        <ele>1551</ele>
        <time>2021-09-20T08:23:22Z</time>
      </trkpt>
      <trkpt lat="44.70405" lon="5.99611">
        <ele>1551</ele>
        <time>2021-09-20T08:23:23Z</time>
      </trkpt>
      <trkpt lat="44.70406" lon="5.9961">
        <ele>1551</ele>
        <time>2021-09-20T08:23:24Z</time>
      </trkpt>
      <trkpt lat="44.70407" lon="5.99609">
        <ele>1551</ele>
        <time>2021-09-20T08:23:25Z</time>
      </trkpt>
      <trkpt lat="44.70407" lon="5.99608">
        <ele>1551</ele>
        <time>2021-09-20T08:23:26Z</time>
      </trkpt>
      <trkpt lat="44.70408" lon="5.99607">
        <ele>1551</ele>
        <time>2021-09-20T08:23:27Z</time>
      </trkpt>
      <trkpt lat="44.70409" lon="5.99606">
        <ele>1551</ele>
        <time>2021-09-20T08:23:28Z</time>
      </trkpt>
      <trkpt lat="44.70409" lon="5.99605">
        <ele>1551</ele>
        <time>2021-09-20T08:23:29Z</time>
      </trkpt>
      <trkpt lat="44.7041" lon="5.99604">
        <ele>1551</ele>
        <time>2021-09-20T08:23:30Z</time>
      </trkpt>
      <trkpt lat="44.7041" lon="5.99603">
        <ele>1551</ele>
        <time>2021-09-20T08:23:31Z</time>
      </trkpt>
      <trkpt lat="44.7041" lon="5.99602">
        <ele>1552</ele>
        <time>2021-09-20T08:23:32Z</time>
      </trkpt>
      <trkpt lat="44.70411" lon="5.99601">
        <ele>1552</ele>
        <time>2021-09-20T08:23:33Z</time>
      </trkpt>
      <trkpt lat="44.70411" lon="5.996">
        <ele>1552</ele>
        <time>2021-09-20T08:23:34Z</time>
      </trkpt>
      <trkpt lat="44.70412" lon="5.99599">
        <ele>1552</ele>
        <time>2021-09-20T08:23:35Z</time>
      </trkpt>
      <trkpt lat="44.70412" lon="5.99598">
        <ele>1552</ele>
        <time>2021-09-20T08:23:36Z</time>
      </trkpt>
      <trkpt lat="44.70412" lon="5.99597">
        <ele>1553</ele>
        <time>2021-09-20T08:23:37Z</time>
      </trkpt>
      <trkpt lat="44.70413" lon="5.99596">
        <ele>1553</ele>
        <time>2021-09-20T08:23:38Z</time>
      </trkpt>
      <trkpt lat="44.70413" lon="5.99595">
        <ele>1553</ele>
        <time>2021-09-20T08:23:39Z</time>
      </trkpt>
      <trkpt lat="44.70414" lon="5.99595">
        <ele>1553</ele>
        <time>2021-09-20T08:23:40Z</time>
      </trkpt>
      <trkpt lat="44.70414" lon="5.99594">
        <ele>1553</ele>
        <time>2021-09-20T08:23:41Z</time>
      </trkpt>
      <trkpt lat="44.70415" lon="5.99593">
        <ele>1553</ele>
        <time>2021-09-20T08:23:42Z</time>
      </trkpt>
      <trkpt lat="44.70415" lon="5.99593">
        <ele>1553</ele>
        <time>2021-09-20T08:23:43Z</time>
      </trkpt>
      <trkpt lat="44.70415" lon="5.99592">
        <ele>1553</ele>
        <time>2021-09-20T08:23:44Z</time>
      </trkpt>
      <trkpt lat="44.70416" lon="5.99591">
        <ele>1553</ele>
        <time>2021-09-20T08:23:45Z</time>
      </trkpt>
      <trkpt lat="44.70416" lon="5.9959">
        <ele>1553</ele>
        <time>2021-09-20T08:23:46Z</time>
      </trkpt>
      <trkpt lat="44.70416" lon="5.99589">
        <ele>1554</ele>
        <time>2021-09-20T08:23:47Z</time>
      </trkpt>
      <trkpt lat="44.70417" lon="5.99588">
        <ele>1554</ele>
        <time>2021-09-20T08:23:48Z</time>
      </trkpt>
      <trkpt lat="44.70417" lon="5.99587">
        <ele>1554</ele>
        <time>2021-09-20T08:23:49Z</time>
      </trkpt>
      <trkpt lat="44.70418" lon="5.99586">
        <ele>1554</ele>
        <time>2021-09-20T08:23:50Z</time>
      </trkpt>
      <trkpt lat="44.70418" lon="5.99584">
        <ele>1554</ele>
        <time>2021-09-20T08:23:51Z</time>
      </trkpt>
      <trkpt lat="44.70418" lon="5.99583">
        <ele>1555</ele>
        <time>2021-09-20T08:23:52Z</time>
      </trkpt>
      <trkpt lat="44.70419" lon="5.99582">
        <ele>1555</ele>
        <time>2021-09-20T08:23:53Z</time>
      </trkpt>
      <trkpt lat="44.70419" lon="5.99582">
        <ele>1555</ele>
        <time>2021-09-20T08:23:54Z</time>
      </trkpt>
      <trkpt lat="44.70419" lon="5.99581">
        <ele>1555</ele>
        <time>2021-09-20T08:23:55Z</time>
      </trkpt>
      <trkpt lat="44.7042" lon="5.9958">
        <ele>1555</ele>
        <time>2021-09-20T08:23:56Z</time>
      </trkpt>
      <trkpt lat="44.7042" lon="5.99579">
        <ele>1555</ele>
        <time>2021-09-20T08:23:57Z</time>
      </trkpt>
      <trkpt lat="44.70421" lon="5.99578">
        <ele>1555</ele>
        <time>2021-09-20T08:23:58Z</time>
      </trkpt>
      <trkpt lat="44.70421" lon="5.99577">
        <ele>1555</ele>
        <time>2021-09-20T08:23:59Z</time>
      </trkpt>
      <trkpt lat="44.70421" lon="5.99576">
        <ele>1555</ele>
        <time>2021-09-20T08:24:00Z</time>
      </trkpt>
      <trkpt lat="44.70422" lon="5.99575">
        <ele>1555</ele>
        <time>2021-09-20T08:24:01Z</time>
      </trkpt>
      <trkpt lat="44.70422" lon="5.99574">
        <ele>1556</ele>
        <time>2021-09-20T08:24:02Z</time>
      </trkpt>
      <trkpt lat="44.70423" lon="5.99573">
        <ele>1556</ele>
        <time>2021-09-20T08:24:03Z</time>
      </trkpt>
      <trkpt lat="44.70423" lon="5.99572">
        <ele>1556</ele>
        <time>2021-09-20T08:24:04Z</time>
      </trkpt>
      <trkpt lat="44.70423" lon="5.99572">
        <ele>1556</ele>
        <time>2021-09-20T08:24:05Z</time>
      </trkpt>
      <trkpt lat="44.70424" lon="5.99571">
        <ele>1556</ele>
        <time>2021-09-20T08:24:06Z</time>
      </trkpt>
      <trkpt lat="44.70424" lon="5.9957">
        <ele>1557</ele>
        <time>2021-09-20T08:24:07Z</time>
      </trkpt>
      <trkpt lat="44.70424" lon="5.99569">
        <ele>1557</ele>
        <time>2021-09-20T08:24:08Z</time>
      </trkpt>
      <trkpt lat="44.70424" lon="5.99568">
        <ele>1557</ele>
        <time>2021-09-20T08:24:09Z</time>
      </trkpt>
      <trkpt lat="44.70425" lon="5.99567">
        <ele>1557</ele>
        <time>2021-09-20T08:24:10Z</time>
      </trkpt>
      <trkpt lat="44.70425" lon="5.99566">
        <ele>1557</ele>
        <time>2021-09-20T08:24:11Z</time>
      </trkpt>
      <trkpt lat="44.70425" lon="5.99565">
        <ele>1557</ele>
        <time>2021-09-20T08:24:12Z</time>
      </trkpt>
      <trkpt lat="44.70425" lon="5.99564">
        <ele>1557</ele>
        <time>2021-09-20T08:24:13Z</time>
      </trkpt>
      <trkpt lat="44.70426" lon="5.99563">
        <ele>1557</ele>
        <time>2021-09-20T08:24:14Z</time>
      </trkpt>
      <trkpt lat="44.70426" lon="5.99562">
        <ele>1557</ele>
        <time>2021-09-20T08:24:15Z</time>
      </trkpt>
      <trkpt lat="44.70426" lon="5.99561">
        <ele>1557</ele>
        <time>2021-09-20T08:24:16Z</time>
      </trkpt>
      <trkpt lat="44.70426" lon="5.9956">
        <ele>1558</ele>
        <time>2021-09-20T08:24:17Z</time>
      </trkpt>
      <trkpt lat="44.70427" lon="5.99559">
        <ele>1558</ele>
        <time>2021-09-20T08:24:18Z</time>
      </trkpt>
      <trkpt lat="44.70427" lon="5.99557">
        <ele>1558</ele>
        <time>2021-09-20T08:24:19Z</time>
      </trkpt>
      <trkpt lat="44.70427" lon="5.99556">
        <ele>1558</ele>
        <time>2021-09-20T08:24:20Z</time>
      </trkpt>
      <trkpt lat="44.70427" lon="5.99555">
        <ele>1558</ele>
        <time>2021-09-20T08:24:21Z</time>
      </trkpt>
      <trkpt lat="44.70427" lon="5.99554">
        <ele>1559</ele>
        <time>2021-09-20T08:24:22Z</time>
      </trkpt>
      <trkpt lat="44.70427" lon="5.99553">
        <ele>1559</ele>
        <time>2021-09-20T08:24:23Z</time>
      </trkpt>
      <trkpt lat="44.70427" lon="5.99552">
        <ele>1559</ele>
        <time>2021-09-20T08:24:24Z</time>
      </trkpt>
      <trkpt lat="44.70428" lon="5.99551">
        <ele>1559</ele>
        <time>2021-09-20T08:24:25Z</time>
      </trkpt>
      <trkpt lat="44.70428" lon="5.9955">
        <ele>1559</ele>
        <time>2021-09-20T08:24:26Z</time>
      </trkpt>
      <trkpt lat="44.70428" lon="5.99549">
        <ele>1560</ele>
        <time>2021-09-20T08:24:27Z</time>
      </trkpt>
      <trkpt lat="44.70428" lon="5.99548">
        <ele>1560</ele>
        <time>2021-09-20T08:24:28Z</time>
      </trkpt>
      <trkpt lat="44.70429" lon="5.99547">
        <ele>1560</ele>
        <time>2021-09-20T08:24:29Z</time>
      </trkpt>
      <trkpt lat="44.70429" lon="5.99546">
        <ele>1560</ele>
        <time>2021-09-20T08:24:30Z</time>
      </trkpt>
      <trkpt lat="44.70429" lon="5.99545">
        <ele>1560</ele>
        <time>2021-09-20T08:24:31Z</time>
      </trkpt>
      <trkpt lat="44.70429" lon="5.99544">
        <ele>1560</ele>
        <time>2021-09-20T08:24:32Z</time>
      </trkpt>
      <trkpt lat="44.70429" lon="5.99543">
        <ele>1560</ele>
        <time>2021-09-20T08:24:33Z</time>
      </trkpt>
      <trkpt lat="44.7043" lon="5.99543">
        <ele>1560</ele>
        <time>2021-09-20T08:24:34Z</time>
      </trkpt>
      <trkpt lat="44.7043" lon="5.99542">
        <ele>1560</ele>
        <time>2021-09-20T08:24:35Z</time>
      </trkpt>
      <trkpt lat="44.7043" lon="5.99541">
        <ele>1560</ele>
        <time>2021-09-20T08:24:36Z</time>
      </trkpt>
      <trkpt lat="44.7043" lon="5.9954">
        <ele>1561</ele>
        <time>2021-09-20T08:24:37Z</time>
      </trkpt>
      <trkpt lat="44.7043" lon="5.99539">
        <ele>1561</ele>
        <time>2021-09-20T08:24:38Z</time>
      </trkpt>
      <trkpt lat="44.7043" lon="5.99537">
        <ele>1561</ele>
        <time>2021-09-20T08:24:39Z</time>
      </trkpt>
      <trkpt lat="44.7043" lon="5.99536">
        <ele>1561</ele>
        <time>2021-09-20T08:24:40Z</time>
      </trkpt>
      <trkpt lat="44.70431" lon="5.99535">
        <ele>1561</ele>
        <time>2021-09-20T08:24:41Z</time>
      </trkpt>
      <trkpt lat="44.70431" lon="5.99534">
        <ele>1562</ele>
        <time>2021-09-20T08:24:42Z</time>
      </trkpt>
      <trkpt lat="44.70431" lon="5.99533">
        <ele>1562</ele>
        <time>2021-09-20T08:24:43Z</time>
      </trkpt>
      <trkpt lat="44.70431" lon="5.99532">
        <ele>1562</ele>
        <time>2021-09-20T08:24:44Z</time>
      </trkpt>
      <trkpt lat="44.70432" lon="5.99531">
        <ele>1562</ele>
        <time>2021-09-20T08:24:45Z</time>
      </trkpt>
      <trkpt lat="44.70432" lon="5.9953">
        <ele>1562</ele>
        <time>2021-09-20T08:24:46Z</time>
      </trkpt>
      <trkpt lat="44.70432" lon="5.9953">
        <ele>1562</ele>
        <time>2021-09-20T08:24:47Z</time>
      </trkpt>
      <trkpt lat="44.70432" lon="5.99529">
        <ele>1562</ele>
        <time>2021-09-20T08:24:48Z</time>
      </trkpt>
      <trkpt lat="44.70433" lon="5.99528">
        <ele>1562</ele>
        <time>2021-09-20T08:24:49Z</time>
      </trkpt>
      <trkpt lat="44.70433" lon="5.99527">
        <ele>1562</ele>
        <time>2021-09-20T08:24:50Z</time>
      </trkpt>
      <trkpt lat="44.70433" lon="5.99526">
        <ele>1562</ele>
        <time>2021-09-20T08:24:51Z</time>
      </trkpt>
      <trkpt lat="44.70434" lon="5.99525">
        <ele>1563</ele>
        <time>2021-09-20T08:24:52Z</time>
      </trkpt>
      <trkpt lat="44.70434" lon="5.99524">
        <ele>1563</ele>
        <time>2021-09-20T08:24:53Z</time>
      </trkpt>
      <trkpt lat="44.70434" lon="5.99523">
        <ele>1563</ele>
        <time>2021-09-20T08:24:54Z</time>
      </trkpt>
      <trkpt lat="44.70435" lon="5.99523">
        <ele>1563</ele>
        <time>2021-09-20T08:24:55Z</time>
      </trkpt>
      <trkpt lat="44.70436" lon="5.99522">
        <ele>1563</ele>
        <time>2021-09-20T08:24:56Z</time>
      </trkpt>
      <trkpt lat="44.70436" lon="5.99521">
        <ele>1564</ele>
        <time>2021-09-20T08:24:57Z</time>
      </trkpt>
      <trkpt lat="44.70437" lon="5.9952">
        <ele>1564</ele>
        <time>2021-09-20T08:24:58Z</time>
      </trkpt>
      <trkpt lat="44.70437" lon="5.99519">
        <ele>1564</ele>
        <time>2021-09-20T08:24:59Z</time>
      </trkpt>
      <trkpt lat="44.70438" lon="5.99518">
        <ele>1564</ele>
        <time>2021-09-20T08:25:00Z</time>
      </trkpt>
      <trkpt lat="44.70438" lon="5.99518">
        <ele>1564</ele>
        <time>2021-09-20T08:25:01Z</time>
      </trkpt>
      <trkpt lat="44.70439" lon="5.99517">
        <ele>1565</ele>
        <time>2021-09-20T08:25:02Z</time>
      </trkpt>
      <trkpt lat="44.70439" lon="5.99516">
        <ele>1565</ele>
        <time>2021-09-20T08:25:03Z</time>
      </trkpt>
      <trkpt lat="44.7044" lon="5.99515">
        <ele>1565</ele>
        <time>2021-09-20T08:25:04Z</time>
      </trkpt>
      <trkpt lat="44.7044" lon="5.99514">
        <ele>1565</ele>
        <time>2021-09-20T08:25:05Z</time>
      </trkpt>
      <trkpt lat="44.70441" lon="5.99513">
        <ele>1565</ele>
        <time>2021-09-20T08:25:06Z</time>
      </trkpt>
      <trkpt lat="44.70441" lon="5.99512">
        <ele>1565</ele>
        <time>2021-09-20T08:25:07Z</time>
      </trkpt>
      <trkpt lat="44.70442" lon="5.99512">
        <ele>1565</ele>
        <time>2021-09-20T08:25:08Z</time>
      </trkpt>
      <trkpt lat="44.70442" lon="5.99511">
        <ele>1565</ele>
        <time>2021-09-20T08:25:09Z</time>
      </trkpt>
      <trkpt lat="44.70443" lon="5.9951">
        <ele>1565</ele>
        <time>2021-09-20T08:25:10Z</time>
      </trkpt>
      <trkpt lat="44.70443" lon="5.99509">
        <ele>1565</ele>
        <time>2021-09-20T08:25:11Z</time>
      </trkpt>
      <trkpt lat="44.70444" lon="5.99508">
        <ele>1566</ele>
        <time>2021-09-20T08:25:12Z</time>
      </trkpt>
      <trkpt lat="44.70445" lon="5.99508">
        <ele>1566</ele>
        <time>2021-09-20T08:25:13Z</time>
      </trkpt>
      <trkpt lat="44.70445" lon="5.99507">
        <ele>1566</ele>
        <time>2021-09-20T08:25:14Z</time>
      </trkpt>
      <trkpt lat="44.70446" lon="5.99507">
        <ele>1566</ele>
        <time>2021-09-20T08:25:15Z</time>
      </trkpt>
      <trkpt lat="44.70447" lon="5.99506">
        <ele>1566</ele>
        <time>2021-09-20T08:25:16Z</time>
      </trkpt>
      <trkpt lat="44.70447" lon="5.99506">
        <ele>1567</ele>
        <time>2021-09-20T08:25:17Z</time>
      </trkpt>
      <trkpt lat="44.70447" lon="5.99506">
        <ele>1567</ele>
        <time>2021-09-20T08:25:18Z</time>
      </trkpt>
      <trkpt lat="44.70448" lon="5.99505">
        <ele>1567</ele>
        <time>2021-09-20T08:25:19Z</time>
      </trkpt>
      <trkpt lat="44.70449" lon="5.99505">
        <ele>1567</ele>
        <time>2021-09-20T08:25:20Z</time>
      </trkpt>
      <trkpt lat="44.70449" lon="5.99504">
        <ele>1567</ele>
        <time>2021-09-20T08:25:21Z</time>
      </trkpt>
      <trkpt lat="44.7045" lon="5.99503">
        <ele>1567</ele>
        <time>2021-09-20T08:25:22Z</time>
      </trkpt>
      <trkpt lat="44.7045" lon="5.99503">
        <ele>1567</ele>
        <time>2021-09-20T08:25:23Z</time>
      </trkpt>
      <trkpt lat="44.70451" lon="5.99502">
        <ele>1567</ele>
        <time>2021-09-20T08:25:24Z</time>
      </trkpt>
      <trkpt lat="44.70451" lon="5.99501">
        <ele>1567</ele>
        <time>2021-09-20T08:25:25Z</time>
      </trkpt>
      <trkpt lat="44.70451" lon="5.995">
        <ele>1567</ele>
        <time>2021-09-20T08:25:26Z</time>
      </trkpt>
      <trkpt lat="44.70452" lon="5.99499">
        <ele>1567</ele>
        <time>2021-09-20T08:25:27Z</time>
      </trkpt>
      <trkpt lat="44.70452" lon="5.99498">
        <ele>1567</ele>
        <time>2021-09-20T08:25:28Z</time>
      </trkpt>
      <trkpt lat="44.70453" lon="5.99498">
        <ele>1567</ele>
        <time>2021-09-20T08:25:29Z</time>
      </trkpt>
      <trkpt lat="44.70453" lon="5.99497">
        <ele>1567</ele>
        <time>2021-09-20T08:25:30Z</time>
      </trkpt>
      <trkpt lat="44.70454" lon="5.99497">
        <ele>1567</ele>
        <time>2021-09-20T08:25:31Z</time>
      </trkpt>
      <trkpt lat="44.70455" lon="5.99496">
        <ele>1568</ele>
        <time>2021-09-20T08:25:32Z</time>
      </trkpt>
      <trkpt lat="44.70456" lon="5.99495">
        <ele>1568</ele>
        <time>2021-09-20T08:25:33Z</time>
      </trkpt>
      <trkpt lat="44.70456" lon="5.99495">
        <ele>1568</ele>
        <time>2021-09-20T08:25:34Z</time>
      </trkpt>
      <trkpt lat="44.70457" lon="5.99494">
        <ele>1568</ele>
        <time>2021-09-20T08:25:35Z</time>
      </trkpt>
      <trkpt lat="44.70457" lon="5.99493">
        <ele>1568</ele>
        <time>2021-09-20T08:25:36Z</time>
      </trkpt>
      <trkpt lat="44.70458" lon="5.99493">
        <ele>1569</ele>
        <time>2021-09-20T08:25:37Z</time>
      </trkpt>
      <trkpt lat="44.70459" lon="5.99492">
        <ele>1569</ele>
        <time>2021-09-20T08:25:38Z</time>
      </trkpt>
      <trkpt lat="44.70459" lon="5.99491">
        <ele>1569</ele>
        <time>2021-09-20T08:25:39Z</time>
      </trkpt>
      <trkpt lat="44.70459" lon="5.9949">
        <ele>1569</ele>
        <time>2021-09-20T08:25:40Z</time>
      </trkpt>
      <trkpt lat="44.7046" lon="5.9949">
        <ele>1569</ele>
        <time>2021-09-20T08:25:41Z</time>
      </trkpt>
      <trkpt lat="44.7046" lon="5.99489">
        <ele>1569</ele>
        <time>2021-09-20T08:25:42Z</time>
      </trkpt>
      <trkpt lat="44.7046" lon="5.99488">
        <ele>1569</ele>
        <time>2021-09-20T08:25:43Z</time>
      </trkpt>
      <trkpt lat="44.70461" lon="5.99487">
        <ele>1569</ele>
        <time>2021-09-20T08:25:44Z</time>
      </trkpt>
      <trkpt lat="44.70461" lon="5.99486">
        <ele>1569</ele>
        <time>2021-09-20T08:25:45Z</time>
      </trkpt>
      <trkpt lat="44.70461" lon="5.99485">
        <ele>1569</ele>
        <time>2021-09-20T08:25:46Z</time>
      </trkpt>
      <trkpt lat="44.70462" lon="5.99485">
        <ele>1569</ele>
        <time>2021-09-20T08:25:47Z</time>
      </trkpt>
      <trkpt lat="44.70462" lon="5.99484">
        <ele>1569</ele>
        <time>2021-09-20T08:25:48Z</time>
      </trkpt>
      <trkpt lat="44.70462" lon="5.99483">
        <ele>1569</ele>
        <time>2021-09-20T08:25:49Z</time>
      </trkpt>
      <trkpt lat="44.70463" lon="5.99483">
        <ele>1569</ele>
        <time>2021-09-20T08:25:50Z</time>
      </trkpt>
      <trkpt lat="44.70463" lon="5.99482">
        <ele>1569</ele>
        <time>2021-09-20T08:25:51Z</time>
      </trkpt>
      <trkpt lat="44.70463" lon="5.99481">
        <ele>1570</ele>
        <time>2021-09-20T08:25:52Z</time>
      </trkpt>
      <trkpt lat="44.70464" lon="5.9948">
        <ele>1570</ele>
        <time>2021-09-20T08:25:53Z</time>
      </trkpt>
      <trkpt lat="44.70464" lon="5.99479">
        <ele>1570</ele>
        <time>2021-09-20T08:25:54Z</time>
      </trkpt>
      <trkpt lat="44.70465" lon="5.99478">
        <ele>1570</ele>
        <time>2021-09-20T08:25:55Z</time>
      </trkpt>
      <trkpt lat="44.70465" lon="5.99477">
        <ele>1570</ele>
        <time>2021-09-20T08:25:56Z</time>
      </trkpt>
      <trkpt lat="44.70465" lon="5.99476">
        <ele>1570</ele>
        <time>2021-09-20T08:25:57Z</time>
      </trkpt>
      <trkpt lat="44.70466" lon="5.99476">
        <ele>1570</ele>
        <time>2021-09-20T08:25:58Z</time>
      </trkpt>
      <trkpt lat="44.70466" lon="5.99475">
        <ele>1570</ele>
        <time>2021-09-20T08:25:59Z</time>
      </trkpt>
      <trkpt lat="44.70466" lon="5.99475">
        <ele>1570</ele>
        <time>2021-09-20T08:26:00Z</time>
      </trkpt>
      <trkpt lat="44.70466" lon="5.99474">
        <ele>1570</ele>
        <time>2021-09-20T08:26:01Z</time>
      </trkpt>
      <trkpt lat="44.70466" lon="5.99474">
        <ele>1571</ele>
        <time>2021-09-20T08:26:02Z</time>
      </trkpt>
      <trkpt lat="44.70467" lon="5.99472">
        <ele>1571</ele>
        <time>2021-09-20T08:26:03Z</time>
      </trkpt>
      <trkpt lat="44.70467" lon="5.99471">
        <ele>1571</ele>
        <time>2021-09-20T08:26:04Z</time>
      </trkpt>
      <trkpt lat="44.70467" lon="5.9947">
        <ele>1571</ele>
        <time>2021-09-20T08:26:05Z</time>
      </trkpt>
      <trkpt lat="44.70468" lon="5.99469">
        <ele>1571</ele>
        <time>2021-09-20T08:26:06Z</time>
      </trkpt>
      <trkpt lat="44.70468" lon="5.99469">
        <ele>1571</ele>
        <time>2021-09-20T08:26:07Z</time>
      </trkpt>
      <trkpt lat="44.70469" lon="5.99468">
        <ele>1571</ele>
        <time>2021-09-20T08:26:08Z</time>
      </trkpt>
      <trkpt lat="44.70469" lon="5.99467">
        <ele>1571</ele>
        <time>2021-09-20T08:26:09Z</time>
      </trkpt>
      <trkpt lat="44.7047" lon="5.99467">
        <ele>1571</ele>
        <time>2021-09-20T08:26:10Z</time>
      </trkpt>
      <trkpt lat="44.70471" lon="5.99466">
        <ele>1571</ele>
        <time>2021-09-20T08:26:11Z</time>
      </trkpt>
      <trkpt lat="44.70472" lon="5.99465">
        <ele>1572</ele>
        <time>2021-09-20T08:26:12Z</time>
      </trkpt>
      <trkpt lat="44.70472" lon="5.99465">
        <ele>1572</ele>
        <time>2021-09-20T08:26:13Z</time>
      </trkpt>
      <trkpt lat="44.70473" lon="5.99465">
        <ele>1572</ele>
        <time>2021-09-20T08:26:14Z</time>
      </trkpt>
      <trkpt lat="44.70473" lon="5.99464">
        <ele>1572</ele>
        <time>2021-09-20T08:26:15Z</time>
      </trkpt>
      <trkpt lat="44.70474" lon="5.99463">
        <ele>1572</ele>
        <time>2021-09-20T08:26:16Z</time>
      </trkpt>
      <trkpt lat="44.70474" lon="5.99463">
        <ele>1573</ele>
        <time>2021-09-20T08:26:17Z</time>
      </trkpt>
      <trkpt lat="44.70475" lon="5.99462">
        <ele>1573</ele>
        <time>2021-09-20T08:26:18Z</time>
      </trkpt>
      <trkpt lat="44.70476" lon="5.99461">
        <ele>1573</ele>
        <time>2021-09-20T08:26:19Z</time>
      </trkpt>
      <trkpt lat="44.70476" lon="5.9946">
        <ele>1573</ele>
        <time>2021-09-20T08:26:20Z</time>
      </trkpt>
      <trkpt lat="44.70477" lon="5.99459">
        <ele>1573</ele>
        <time>2021-09-20T08:26:21Z</time>
      </trkpt>
      <trkpt lat="44.70478" lon="5.99458">
        <ele>1573</ele>
        <time>2021-09-20T08:26:22Z</time>
      </trkpt>
      <trkpt lat="44.70478" lon="5.99458">
        <ele>1573</ele>
        <time>2021-09-20T08:26:23Z</time>
      </trkpt>
      <trkpt lat="44.70479" lon="5.99457">
        <ele>1573</ele>
        <time>2021-09-20T08:26:24Z</time>
      </trkpt>
      <trkpt lat="44.7048" lon="5.99456">
        <ele>1573</ele>
        <time>2021-09-20T08:26:25Z</time>
      </trkpt>
      <trkpt lat="44.7048" lon="5.99455">
        <ele>1573</ele>
        <time>2021-09-20T08:26:26Z</time>
      </trkpt>
      <trkpt lat="44.70481" lon="5.99454">
        <ele>1574</ele>
        <time>2021-09-20T08:26:27Z</time>
      </trkpt>
      <trkpt lat="44.70481" lon="5.99453">
        <ele>1574</ele>
        <time>2021-09-20T08:26:28Z</time>
      </trkpt>
      <trkpt lat="44.70482" lon="5.99453">
        <ele>1574</ele>
        <time>2021-09-20T08:26:29Z</time>
      </trkpt>
      <trkpt lat="44.70482" lon="5.99453">
        <ele>1574</ele>
        <time>2021-09-20T08:26:30Z</time>
      </trkpt>
      <trkpt lat="44.70482" lon="5.99452">
        <ele>1574</ele>
        <time>2021-09-20T08:26:31Z</time>
      </trkpt>
      <trkpt lat="44.70482" lon="5.99451">
        <ele>1574</ele>
        <time>2021-09-20T08:26:32Z</time>
      </trkpt>
      <trkpt lat="44.70483" lon="5.9945">
        <ele>1574</ele>
        <time>2021-09-20T08:26:33Z</time>
      </trkpt>
      <trkpt lat="44.70483" lon="5.9945">
        <ele>1574</ele>
        <time>2021-09-20T08:26:34Z</time>
      </trkpt>
      <trkpt lat="44.70483" lon="5.99449">
        <ele>1574</ele>
        <time>2021-09-20T08:26:35Z</time>
      </trkpt>
      <trkpt lat="44.70483" lon="5.99448">
        <ele>1574</ele>
        <time>2021-09-20T08:26:36Z</time>
      </trkpt>
      <trkpt lat="44.70483" lon="5.99447">
        <ele>1574</ele>
        <time>2021-09-20T08:26:37Z</time>
      </trkpt>
      <trkpt lat="44.70484" lon="5.99446">
        <ele>1574</ele>
        <time>2021-09-20T08:26:38Z</time>
      </trkpt>
      <trkpt lat="44.70484" lon="5.99445">
        <ele>1574</ele>
        <time>2021-09-20T08:26:39Z</time>
      </trkpt>
      <trkpt lat="44.70485" lon="5.99444">
        <ele>1574</ele>
        <time>2021-09-20T08:26:40Z</time>
      </trkpt>
      <trkpt lat="44.70485" lon="5.99443">
        <ele>1574</ele>
        <time>2021-09-20T08:26:41Z</time>
      </trkpt>
      <trkpt lat="44.70485" lon="5.99442">
        <ele>1575</ele>
        <time>2021-09-20T08:26:42Z</time>
      </trkpt>
      <trkpt lat="44.70484" lon="5.99443">
        <ele>1577</ele>
        <time>2021-09-20T08:27:10Z</time>
      </trkpt>
      <trkpt lat="44.70483" lon="5.99443">
        <ele>1577</ele>
        <time>2021-09-20T08:27:11Z</time>
      </trkpt>
      <trkpt lat="44.70482" lon="5.99444">
        <ele>1577</ele>
        <time>2021-09-20T08:27:12Z</time>
      </trkpt>
      <trkpt lat="44.70482" lon="5.99443">
        <ele>1577</ele>
        <time>2021-09-20T08:27:13Z</time>
      </trkpt>
      <trkpt lat="44.70481" lon="5.99443">
        <ele>1577</ele>
        <time>2021-09-20T08:27:14Z</time>
      </trkpt>
      <trkpt lat="44.70481" lon="5.99443">
        <ele>1577</ele>
        <time>2021-09-20T08:27:15Z</time>
      </trkpt>
      <trkpt lat="44.70481" lon="5.99442">
        <ele>1577</ele>
        <time>2021-09-20T08:27:16Z</time>
      </trkpt>
      <trkpt lat="44.70481" lon="5.99442">
        <ele>1578</ele>
        <time>2021-09-20T08:27:17Z</time>
      </trkpt>
      <trkpt lat="44.70481" lon="5.99442">
        <ele>1578</ele>
        <time>2021-09-20T08:27:18Z</time>
      </trkpt>
      <trkpt lat="44.70481" lon="5.99442">
        <ele>1578</ele>
        <time>2021-09-20T08:27:19Z</time>
      </trkpt>
      <trkpt lat="44.70482" lon="5.99441">
        <ele>1578</ele>
        <time>2021-09-20T08:27:20Z</time>
      </trkpt>
      <trkpt lat="44.70482" lon="5.9944">
        <ele>1578</ele>
        <time>2021-09-20T08:27:21Z</time>
      </trkpt>
      <trkpt lat="44.70483" lon="5.99437">
        <ele>1579</ele>
        <time>2021-09-20T08:27:29Z</time>
      </trkpt>
      <trkpt lat="44.70483" lon="5.99436">
        <ele>1579</ele>
        <time>2021-09-20T08:27:30Z</time>
      </trkpt>
      <trkpt lat="44.70483" lon="5.99435">
        <ele>1579</ele>
        <time>2021-09-20T08:27:31Z</time>
      </trkpt>
      <trkpt lat="44.70483" lon="5.99435">
        <ele>1580</ele>
        <time>2021-09-20T08:27:32Z</time>
      </trkpt>
      <trkpt lat="44.70483" lon="5.99434">
        <ele>1580</ele>
        <time>2021-09-20T08:27:33Z</time>
      </trkpt>
      <trkpt lat="44.70483" lon="5.99433">
        <ele>1580</ele>
        <time>2021-09-20T08:27:34Z</time>
      </trkpt>
      <trkpt lat="44.70484" lon="5.99433">
        <ele>1580</ele>
        <time>2021-09-20T08:27:35Z</time>
      </trkpt>
      <trkpt lat="44.70484" lon="5.99433">
        <ele>1580</ele>
        <time>2021-09-20T08:27:36Z</time>
      </trkpt>
      <trkpt lat="44.70484" lon="5.99432">
        <ele>1580</ele>
        <time>2021-09-20T08:27:37Z</time>
      </trkpt>
      <trkpt lat="44.70484" lon="5.99431">
        <ele>1580</ele>
        <time>2021-09-20T08:27:38Z</time>
      </trkpt>
      <trkpt lat="44.70485" lon="5.9943">
        <ele>1580</ele>
        <time>2021-09-20T08:27:39Z</time>
      </trkpt>
      <trkpt lat="44.70486" lon="5.9943">
        <ele>1580</ele>
        <time>2021-09-20T08:27:40Z</time>
      </trkpt>
      <trkpt lat="44.70486" lon="5.99429">
        <ele>1580</ele>
        <time>2021-09-20T08:27:41Z</time>
      </trkpt>
      <trkpt lat="44.70487" lon="5.99429">
        <ele>1581</ele>
        <time>2021-09-20T08:27:42Z</time>
      </trkpt>
      <trkpt lat="44.70487" lon="5.99428">
        <ele>1581</ele>
        <time>2021-09-20T08:27:43Z</time>
      </trkpt>
      <trkpt lat="44.70487" lon="5.99427">
        <ele>1581</ele>
        <time>2021-09-20T08:27:44Z</time>
      </trkpt>
      <trkpt lat="44.70488" lon="5.99427">
        <ele>1581</ele>
        <time>2021-09-20T08:27:45Z</time>
      </trkpt>
      <trkpt lat="44.70488" lon="5.99426">
        <ele>1581</ele>
        <time>2021-09-20T08:27:46Z</time>
      </trkpt>
      <trkpt lat="44.70488" lon="5.99425">
        <ele>1582</ele>
        <time>2021-09-20T08:27:47Z</time>
      </trkpt>
      <trkpt lat="44.70488" lon="5.99424">
        <ele>1582</ele>
        <time>2021-09-20T08:27:48Z</time>
      </trkpt>
      <trkpt lat="44.70488" lon="5.99423">
        <ele>1582</ele>
        <time>2021-09-20T08:27:49Z</time>
      </trkpt>
      <trkpt lat="44.70488" lon="5.99422">
        <ele>1582</ele>
        <time>2021-09-20T08:27:50Z</time>
      </trkpt>
      <trkpt lat="44.70488" lon="5.99421">
        <ele>1582</ele>
        <time>2021-09-20T08:27:51Z</time>
      </trkpt>
      <trkpt lat="44.70488" lon="5.9942">
        <ele>1582</ele>
        <time>2021-09-20T08:27:52Z</time>
      </trkpt>
      <trkpt lat="44.70488" lon="5.99419">
        <ele>1582</ele>
        <time>2021-09-20T08:27:53Z</time>
      </trkpt>
      <trkpt lat="44.70488" lon="5.99418">
        <ele>1582</ele>
        <time>2021-09-20T08:27:54Z</time>
      </trkpt>
      <trkpt lat="44.70488" lon="5.99417">
        <ele>1582</ele>
        <time>2021-09-20T08:27:55Z</time>
      </trkpt>
      <trkpt lat="44.70488" lon="5.99417">
        <ele>1582</ele>
        <time>2021-09-20T08:27:56Z</time>
      </trkpt>
      <trkpt lat="44.70488" lon="5.99416">
        <ele>1583</ele>
        <time>2021-09-20T08:27:57Z</time>
      </trkpt>
      <trkpt lat="44.70488" lon="5.99415">
        <ele>1583</ele>
        <time>2021-09-20T08:27:58Z</time>
      </trkpt>
      <trkpt lat="44.70489" lon="5.99415">
        <ele>1583</ele>
        <time>2021-09-20T08:27:59Z</time>
      </trkpt>
      <trkpt lat="44.70489" lon="5.99415">
        <ele>1583</ele>
        <time>2021-09-20T08:28:00Z</time>
      </trkpt>
      <trkpt lat="44.70489" lon="5.99415">
        <ele>1583</ele>
        <time>2021-09-20T08:28:01Z</time>
      </trkpt>
      <trkpt lat="44.70489" lon="5.99414">
        <ele>1584</ele>
        <time>2021-09-20T08:28:02Z</time>
      </trkpt>
      <trkpt lat="44.70489" lon="5.99413">
        <ele>1584</ele>
        <time>2021-09-20T08:28:03Z</time>
      </trkpt>
      <trkpt lat="44.70489" lon="5.99412">
        <ele>1584</ele>
        <time>2021-09-20T08:28:04Z</time>
      </trkpt>
      <trkpt lat="44.70489" lon="5.99411">
        <ele>1584</ele>
        <time>2021-09-20T08:28:05Z</time>
      </trkpt>
      <trkpt lat="44.70489" lon="5.9941">
        <ele>1584</ele>
        <time>2021-09-20T08:28:06Z</time>
      </trkpt>
      <trkpt lat="44.7049" lon="5.99409">
        <ele>1585</ele>
        <time>2021-09-20T08:28:07Z</time>
      </trkpt>
      <trkpt lat="44.7049" lon="5.99407">
        <ele>1585</ele>
        <time>2021-09-20T08:28:08Z</time>
      </trkpt>
      <trkpt lat="44.7049" lon="5.99406">
        <ele>1585</ele>
        <time>2021-09-20T08:28:09Z</time>
      </trkpt>
      <trkpt lat="44.7049" lon="5.99405">
        <ele>1585</ele>
        <time>2021-09-20T08:28:10Z</time>
      </trkpt>
      <trkpt lat="44.70489" lon="5.99404">
        <ele>1585</ele>
        <time>2021-09-20T08:28:11Z</time>
      </trkpt>
      <trkpt lat="44.70489" lon="5.99403">
        <ele>1585</ele>
        <time>2021-09-20T08:28:12Z</time>
      </trkpt>
      <trkpt lat="44.70489" lon="5.99402">
        <ele>1585</ele>
        <time>2021-09-20T08:28:13Z</time>
      </trkpt>
      <trkpt lat="44.70489" lon="5.994">
        <ele>1585</ele>
        <time>2021-09-20T08:28:14Z</time>
      </trkpt>
      <trkpt lat="44.70489" lon="5.99399">
        <ele>1585</ele>
        <time>2021-09-20T08:28:15Z</time>
      </trkpt>
      <trkpt lat="44.7049" lon="5.99398">
        <ele>1585</ele>
        <time>2021-09-20T08:28:16Z</time>
      </trkpt>
      <trkpt lat="44.7049" lon="5.99397">
        <ele>1586</ele>
        <time>2021-09-20T08:28:17Z</time>
      </trkpt>
      <trkpt lat="44.7049" lon="5.99396">
        <ele>1586</ele>
        <time>2021-09-20T08:28:18Z</time>
      </trkpt>
      <trkpt lat="44.7049" lon="5.99395">
        <ele>1586</ele>
        <time>2021-09-20T08:28:19Z</time>
      </trkpt>
      <trkpt lat="44.7049" lon="5.99395">
        <ele>1586</ele>
        <time>2021-09-20T08:28:20Z</time>
      </trkpt>
      <trkpt lat="44.7049" lon="5.99394">
        <ele>1586</ele>
        <time>2021-09-20T08:28:21Z</time>
      </trkpt>
      <trkpt lat="44.7049" lon="5.99393">
        <ele>1587</ele>
        <time>2021-09-20T08:28:22Z</time>
      </trkpt>
      <trkpt lat="44.70491" lon="5.99393">
        <ele>1587</ele>
        <time>2021-09-20T08:28:23Z</time>
      </trkpt>
      <trkpt lat="44.70491" lon="5.99392">
        <ele>1587</ele>
        <time>2021-09-20T08:28:24Z</time>
      </trkpt>
      <trkpt lat="44.70491" lon="5.99392">
        <ele>1587</ele>
        <time>2021-09-20T08:28:25Z</time>
      </trkpt>
      <trkpt lat="44.70491" lon="5.99391">
        <ele>1587</ele>
        <time>2021-09-20T08:28:26Z</time>
      </trkpt>
      <trkpt lat="44.70491" lon="5.9939">
        <ele>1587</ele>
        <time>2021-09-20T08:28:27Z</time>
      </trkpt>
      <trkpt lat="44.70492" lon="5.99389">
        <ele>1587</ele>
        <time>2021-09-20T08:28:28Z</time>
      </trkpt>
      <trkpt lat="44.70492" lon="5.99388">
        <ele>1587</ele>
        <time>2021-09-20T08:28:29Z</time>
      </trkpt>
      <trkpt lat="44.70492" lon="5.99387">
        <ele>1587</ele>
        <time>2021-09-20T08:28:30Z</time>
      </trkpt>
      <trkpt lat="44.70492" lon="5.99386">
        <ele>1587</ele>
        <time>2021-09-20T08:28:31Z</time>
      </trkpt>
      <trkpt lat="44.70493" lon="5.99385">
        <ele>1588</ele>
        <time>2021-09-20T08:28:32Z</time>
      </trkpt>
      <trkpt lat="44.70493" lon="5.99384">
        <ele>1588</ele>
        <time>2021-09-20T08:28:33Z</time>
      </trkpt>
      <trkpt lat="44.70494" lon="5.99383">
        <ele>1588</ele>
        <time>2021-09-20T08:28:34Z</time>
      </trkpt>
      <trkpt lat="44.70494" lon="5.99381">
        <ele>1588</ele>
        <time>2021-09-20T08:28:35Z</time>
      </trkpt>
      <trkpt lat="44.70494" lon="5.9938">
        <ele>1588</ele>
        <time>2021-09-20T08:28:36Z</time>
      </trkpt>
      <trkpt lat="44.70495" lon="5.99379">
        <ele>1588</ele>
        <time>2021-09-20T08:28:37Z</time>
      </trkpt>
      <trkpt lat="44.70495" lon="5.99378">
        <ele>1588</ele>
        <time>2021-09-20T08:28:38Z</time>
      </trkpt>
      <trkpt lat="44.70495" lon="5.99377">
        <ele>1588</ele>
        <time>2021-09-20T08:28:39Z</time>
      </trkpt>
      <trkpt lat="44.70495" lon="5.99376">
        <ele>1588</ele>
        <time>2021-09-20T08:28:40Z</time>
      </trkpt>
      <trkpt lat="44.70495" lon="5.99375">
        <ele>1588</ele>
        <time>2021-09-20T08:28:41Z</time>
      </trkpt>
      <trkpt lat="44.70496" lon="5.99374">
        <ele>1588</ele>
        <time>2021-09-20T08:28:42Z</time>
      </trkpt>
      <trkpt lat="44.70496" lon="5.99373">
        <ele>1588</ele>
        <time>2021-09-20T08:28:43Z</time>
      </trkpt>
      <trkpt lat="44.70496" lon="5.99372">
        <ele>1588</ele>
        <time>2021-09-20T08:28:44Z</time>
      </trkpt>
      <trkpt lat="44.70497" lon="5.99371">
        <ele>1588</ele>
        <time>2021-09-20T08:28:45Z</time>
      </trkpt>
      <trkpt lat="44.70498" lon="5.99371">
        <ele>1588</ele>
        <time>2021-09-20T08:28:46Z</time>
      </trkpt>
      <trkpt lat="44.70499" lon="5.99369">
        <ele>1589</ele>
        <time>2021-09-20T08:28:47Z</time>
      </trkpt>
      <trkpt lat="44.70499" lon="5.99368">
        <ele>1589</ele>
        <time>2021-09-20T08:28:48Z</time>
      </trkpt>
      <trkpt lat="44.70499" lon="5.99366">
        <ele>1589</ele>
        <time>2021-09-20T08:28:49Z</time>
      </trkpt>
      <trkpt lat="44.705" lon="5.99365">
        <ele>1589</ele>
        <time>2021-09-20T08:28:50Z</time>
      </trkpt>
      <trkpt lat="44.705" lon="5.99364">
        <ele>1589</ele>
        <time>2021-09-20T08:28:51Z</time>
      </trkpt>
      <trkpt lat="44.705" lon="5.99362">
        <ele>1590</ele>
        <time>2021-09-20T08:28:52Z</time>
      </trkpt>
      <trkpt lat="44.70501" lon="5.99361">
        <ele>1590</ele>
        <time>2021-09-20T08:28:53Z</time>
      </trkpt>
      <trkpt lat="44.70501" lon="5.99361">
        <ele>1590</ele>
        <time>2021-09-20T08:28:54Z</time>
      </trkpt>
      <trkpt lat="44.70502" lon="5.9936">
        <ele>1590</ele>
        <time>2021-09-20T08:28:55Z</time>
      </trkpt>
      <trkpt lat="44.70503" lon="5.99359">
        <ele>1590</ele>
        <time>2021-09-20T08:28:56Z</time>
      </trkpt>
      <trkpt lat="44.70503" lon="5.99358">
        <ele>1590</ele>
        <time>2021-09-20T08:28:57Z</time>
      </trkpt>
      <trkpt lat="44.70504" lon="5.99357">
        <ele>1590</ele>
        <time>2021-09-20T08:28:58Z</time>
      </trkpt>
      <trkpt lat="44.70505" lon="5.99357">
        <ele>1590</ele>
        <time>2021-09-20T08:28:59Z</time>
      </trkpt>
      <trkpt lat="44.70505" lon="5.99356">
        <ele>1590</ele>
        <time>2021-09-20T08:29:00Z</time>
      </trkpt>
      <trkpt lat="44.70506" lon="5.99355">
        <ele>1590</ele>
        <time>2021-09-20T08:29:01Z</time>
      </trkpt>
      <trkpt lat="44.70507" lon="5.99354">
        <ele>1591</ele>
        <time>2021-09-20T08:29:02Z</time>
      </trkpt>
      <trkpt lat="44.70507" lon="5.99353">
        <ele>1591</ele>
        <time>2021-09-20T08:29:03Z</time>
      </trkpt>
      <trkpt lat="44.70507" lon="5.99352">
        <ele>1591</ele>
        <time>2021-09-20T08:29:04Z</time>
      </trkpt>
      <trkpt lat="44.70508" lon="5.99351">
        <ele>1591</ele>
        <time>2021-09-20T08:29:05Z</time>
      </trkpt>
      <trkpt lat="44.70508" lon="5.9935">
        <ele>1591</ele>
        <time>2021-09-20T08:29:06Z</time>
      </trkpt>
      <trkpt lat="44.70509" lon="5.99349">
        <ele>1592</ele>
        <time>2021-09-20T08:29:07Z</time>
      </trkpt>
      <trkpt lat="44.70509" lon="5.99348">
        <ele>1592</ele>
        <time>2021-09-20T08:29:08Z</time>
      </trkpt>
      <trkpt lat="44.7051" lon="5.99347">
        <ele>1592</ele>
        <time>2021-09-20T08:29:09Z</time>
      </trkpt>
      <trkpt lat="44.7051" lon="5.99347">
        <ele>1592</ele>
        <time>2021-09-20T08:29:10Z</time>
      </trkpt>
      <trkpt lat="44.70511" lon="5.99346">
        <ele>1592</ele>
        <time>2021-09-20T08:29:11Z</time>
      </trkpt>
      <trkpt lat="44.70512" lon="5.99345">
        <ele>1592</ele>
        <time>2021-09-20T08:29:12Z</time>
      </trkpt>
      <trkpt lat="44.70512" lon="5.99345">
        <ele>1592</ele>
        <time>2021-09-20T08:29:13Z</time>
      </trkpt>
      <trkpt lat="44.70513" lon="5.99344">
        <ele>1592</ele>
        <time>2021-09-20T08:29:14Z</time>
      </trkpt>
      <trkpt lat="44.70513" lon="5.99343">
        <ele>1592</ele>
        <time>2021-09-20T08:29:15Z</time>
      </trkpt>
      <trkpt lat="44.70514" lon="5.99342">
        <ele>1592</ele>
        <time>2021-09-20T08:29:16Z</time>
      </trkpt>
      <trkpt lat="44.70514" lon="5.99341">
        <ele>1593</ele>
        <time>2021-09-20T08:29:17Z</time>
      </trkpt>
      <trkpt lat="44.70515" lon="5.99341">
        <ele>1593</ele>
        <time>2021-09-20T08:29:18Z</time>
      </trkpt>
      <trkpt lat="44.70515" lon="5.9934">
        <ele>1593</ele>
        <time>2021-09-20T08:29:19Z</time>
      </trkpt>
      <trkpt lat="44.70515" lon="5.99339">
        <ele>1593</ele>
        <time>2021-09-20T08:29:20Z</time>
      </trkpt>
      <trkpt lat="44.70515" lon="5.99338">
        <ele>1593</ele>
        <time>2021-09-20T08:29:21Z</time>
      </trkpt>
      <trkpt lat="44.70515" lon="5.99337">
        <ele>1593</ele>
        <time>2021-09-20T08:29:22Z</time>
      </trkpt>
      <trkpt lat="44.70515" lon="5.99336">
        <ele>1593</ele>
        <time>2021-09-20T08:29:23Z</time>
      </trkpt>
      <trkpt lat="44.70515" lon="5.99335">
        <ele>1593</ele>
        <time>2021-09-20T08:29:24Z</time>
      </trkpt>
      <trkpt lat="44.70515" lon="5.99335">
        <ele>1593</ele>
        <time>2021-09-20T08:29:25Z</time>
      </trkpt>
      <trkpt lat="44.70515" lon="5.99334">
        <ele>1593</ele>
        <time>2021-09-20T08:29:26Z</time>
      </trkpt>
      <trkpt lat="44.70515" lon="5.99334">
        <ele>1594</ele>
        <time>2021-09-20T08:29:27Z</time>
      </trkpt>
      <trkpt lat="44.70515" lon="5.99333">
        <ele>1594</ele>
        <time>2021-09-20T08:29:28Z</time>
      </trkpt>
      <trkpt lat="44.70515" lon="5.99332">
        <ele>1594</ele>
        <time>2021-09-20T08:29:29Z</time>
      </trkpt>
      <trkpt lat="44.70515" lon="5.99331">
        <ele>1594</ele>
        <time>2021-09-20T08:29:30Z</time>
      </trkpt>
      <trkpt lat="44.70515" lon="5.9933">
        <ele>1594</ele>
        <time>2021-09-20T08:29:31Z</time>
      </trkpt>
      <trkpt lat="44.70515" lon="5.99329">
        <ele>1595</ele>
        <time>2021-09-20T08:29:32Z</time>
      </trkpt>
      <trkpt lat="44.70516" lon="5.99328">
        <ele>1595</ele>
        <time>2021-09-20T08:29:33Z</time>
      </trkpt>
      <trkpt lat="44.70516" lon="5.99328">
        <ele>1595</ele>
        <time>2021-09-20T08:29:34Z</time>
      </trkpt>
      <trkpt lat="44.70516" lon="5.99327">
        <ele>1595</ele>
        <time>2021-09-20T08:29:35Z</time>
      </trkpt>
      <trkpt lat="44.70517" lon="5.99326">
        <ele>1595</ele>
        <time>2021-09-20T08:29:36Z</time>
      </trkpt>
      <trkpt lat="44.70517" lon="5.99326">
        <ele>1595</ele>
        <time>2021-09-20T08:29:37Z</time>
      </trkpt>
      <trkpt lat="44.70517" lon="5.99325">
        <ele>1595</ele>
        <time>2021-09-20T08:29:38Z</time>
      </trkpt>
      <trkpt lat="44.70517" lon="5.99325">
        <ele>1595</ele>
        <time>2021-09-20T08:29:39Z</time>
      </trkpt>
      <trkpt lat="44.70517" lon="5.99325">
        <ele>1595</ele>
        <time>2021-09-20T08:29:40Z</time>
      </trkpt>
      <trkpt lat="44.70517" lon="5.99324">
        <ele>1595</ele>
        <time>2021-09-20T08:29:41Z</time>
      </trkpt>
      <trkpt lat="44.70517" lon="5.99323">
        <ele>1596</ele>
        <time>2021-09-20T08:29:42Z</time>
      </trkpt>
      <trkpt lat="44.70517" lon="5.99322">
        <ele>1596</ele>
        <time>2021-09-20T08:29:43Z</time>
      </trkpt>
      <trkpt lat="44.70518" lon="5.99322">
        <ele>1596</ele>
        <time>2021-09-20T08:29:44Z</time>
      </trkpt>
      <trkpt lat="44.70518" lon="5.99321">
        <ele>1596</ele>
        <time>2021-09-20T08:29:45Z</time>
      </trkpt>
      <trkpt lat="44.70518" lon="5.9932">
        <ele>1596</ele>
        <time>2021-09-20T08:29:46Z</time>
      </trkpt>
      <trkpt lat="44.70519" lon="5.99319">
        <ele>1596</ele>
        <time>2021-09-20T08:29:47Z</time>
      </trkpt>
      <trkpt lat="44.70519" lon="5.99318">
        <ele>1596</ele>
        <time>2021-09-20T08:29:48Z</time>
      </trkpt>
      <trkpt lat="44.7052" lon="5.99317">
        <ele>1596</ele>
        <time>2021-09-20T08:29:49Z</time>
      </trkpt>
      <trkpt lat="44.7052" lon="5.99316">
        <ele>1596</ele>
        <time>2021-09-20T08:29:50Z</time>
      </trkpt>
      <trkpt lat="44.7052" lon="5.99315">
        <ele>1596</ele>
        <time>2021-09-20T08:29:51Z</time>
      </trkpt>
      <trkpt lat="44.70521" lon="5.99314">
        <ele>1596</ele>
        <time>2021-09-20T08:29:52Z</time>
      </trkpt>
      <trkpt lat="44.70521" lon="5.99313">
        <ele>1596</ele>
        <time>2021-09-20T08:29:53Z</time>
      </trkpt>
      <trkpt lat="44.70521" lon="5.99312">
        <ele>1596</ele>
        <time>2021-09-20T08:29:54Z</time>
      </trkpt>
      <trkpt lat="44.70521" lon="5.99311">
        <ele>1596</ele>
        <time>2021-09-20T08:29:55Z</time>
      </trkpt>
      <trkpt lat="44.70522" lon="5.9931">
        <ele>1596</ele>
        <time>2021-09-20T08:29:56Z</time>
      </trkpt>
      <trkpt lat="44.70522" lon="5.99309">
        <ele>1596</ele>
        <time>2021-09-20T08:29:57Z</time>
      </trkpt>
      <trkpt lat="44.70522" lon="5.99308">
        <ele>1596</ele>
        <time>2021-09-20T08:29:58Z</time>
      </trkpt>
      <trkpt lat="44.70522" lon="5.99307">
        <ele>1596</ele>
        <time>2021-09-20T08:29:59Z</time>
      </trkpt>
      <trkpt lat="44.70522" lon="5.99306">
        <ele>1596</ele>
        <time>2021-09-20T08:30:00Z</time>
      </trkpt>
      <trkpt lat="44.70523" lon="5.99305">
        <ele>1596</ele>
        <time>2021-09-20T08:30:01Z</time>
      </trkpt>
      <trkpt lat="44.70523" lon="5.99304">
        <ele>1597</ele>
        <time>2021-09-20T08:30:02Z</time>
      </trkpt>
      <trkpt lat="44.70523" lon="5.99303">
        <ele>1597</ele>
        <time>2021-09-20T08:30:03Z</time>
      </trkpt>
      <trkpt lat="44.70524" lon="5.99302">
        <ele>1597</ele>
        <time>2021-09-20T08:30:04Z</time>
      </trkpt>
      <trkpt lat="44.70524" lon="5.99302">
        <ele>1597</ele>
        <time>2021-09-20T08:30:05Z</time>
      </trkpt>
      <trkpt lat="44.70524" lon="5.99301">
        <ele>1597</ele>
        <time>2021-09-20T08:30:06Z</time>
      </trkpt>
      <trkpt lat="44.70524" lon="5.99301">
        <ele>1598</ele>
        <time>2021-09-20T08:30:07Z</time>
      </trkpt>
      <trkpt lat="44.70524" lon="5.993">
        <ele>1598</ele>
        <time>2021-09-20T08:30:08Z</time>
      </trkpt>
      <trkpt lat="44.70525" lon="5.99299">
        <ele>1598</ele>
        <time>2021-09-20T08:30:09Z</time>
      </trkpt>
      <trkpt lat="44.70525" lon="5.99298">
        <ele>1598</ele>
        <time>2021-09-20T08:30:10Z</time>
      </trkpt>
      <trkpt lat="44.70525" lon="5.99298">
        <ele>1598</ele>
        <time>2021-09-20T08:30:11Z</time>
      </trkpt>
      <trkpt lat="44.70525" lon="5.99297">
        <ele>1598</ele>
        <time>2021-09-20T08:30:12Z</time>
      </trkpt>
      <trkpt lat="44.70525" lon="5.99297">
        <ele>1598</ele>
        <time>2021-09-20T08:30:13Z</time>
      </trkpt>
      <trkpt lat="44.70525" lon="5.99296">
        <ele>1598</ele>
        <time>2021-09-20T08:30:14Z</time>
      </trkpt>
      <trkpt lat="44.70525" lon="5.99295">
        <ele>1598</ele>
        <time>2021-09-20T08:30:15Z</time>
      </trkpt>
      <trkpt lat="44.70525" lon="5.99295">
        <ele>1598</ele>
        <time>2021-09-20T08:30:16Z</time>
      </trkpt>
      <trkpt lat="44.70525" lon="5.99295">
        <ele>1599</ele>
        <time>2021-09-20T08:30:17Z</time>
      </trkpt>
      <trkpt lat="44.70525" lon="5.99294">
        <ele>1599</ele>
        <time>2021-09-20T08:30:18Z</time>
      </trkpt>
      <trkpt lat="44.70525" lon="5.99294">
        <ele>1599</ele>
        <time>2021-09-20T08:30:19Z</time>
      </trkpt>
      <trkpt lat="44.70524" lon="5.99293">
        <ele>1599</ele>
        <time>2021-09-20T08:30:20Z</time>
      </trkpt>
      <trkpt lat="44.70524" lon="5.99292">
        <ele>1599</ele>
        <time>2021-09-20T08:30:21Z</time>
      </trkpt>
      <trkpt lat="44.70524" lon="5.99292">
        <ele>1600</ele>
        <time>2021-09-20T08:30:22Z</time>
      </trkpt>
      <trkpt lat="44.70524" lon="5.99292">
        <ele>1600</ele>
        <time>2021-09-20T08:30:23Z</time>
      </trkpt>
      <trkpt lat="44.70524" lon="5.99291">
        <ele>1600</ele>
        <time>2021-09-20T08:30:24Z</time>
      </trkpt>
      <trkpt lat="44.70523" lon="5.99291">
        <ele>1600</ele>
        <time>2021-09-20T08:30:25Z</time>
      </trkpt>
      <trkpt lat="44.70523" lon="5.9929">
        <ele>1600</ele>
        <time>2021-09-20T08:30:26Z</time>
      </trkpt>
      <trkpt lat="44.70523" lon="5.99289">
        <ele>1601</ele>
        <time>2021-09-20T08:30:27Z</time>
      </trkpt>
      <trkpt lat="44.70523" lon="5.99288">
        <ele>1601</ele>
        <time>2021-09-20T08:30:28Z</time>
      </trkpt>
      <trkpt lat="44.70523" lon="5.99288">
        <ele>1601</ele>
        <time>2021-09-20T08:30:29Z</time>
      </trkpt>
      <trkpt lat="44.70523" lon="5.99287">
        <ele>1601</ele>
        <time>2021-09-20T08:30:30Z</time>
      </trkpt>
      <trkpt lat="44.70523" lon="5.99286">
        <ele>1601</ele>
        <time>2021-09-20T08:30:31Z</time>
      </trkpt>
      <trkpt lat="44.70522" lon="5.99283">
        <ele>1602</ele>
        <time>2021-09-20T08:30:41Z</time>
      </trkpt>
      <trkpt lat="44.70522" lon="5.99282">
        <ele>1603</ele>
        <time>2021-09-20T08:30:42Z</time>
      </trkpt>
      <trkpt lat="44.70522" lon="5.9928">
        <ele>1603</ele>
        <time>2021-09-20T08:30:43Z</time>
      </trkpt>
      <trkpt lat="44.70522" lon="5.99279">
        <ele>1603</ele>
        <time>2021-09-20T08:30:44Z</time>
      </trkpt>
      <trkpt lat="44.70521" lon="5.99278">
        <ele>1603</ele>
        <time>2021-09-20T08:30:45Z</time>
      </trkpt>
      <trkpt lat="44.70521" lon="5.99277">
        <ele>1603</ele>
        <time>2021-09-20T08:30:46Z</time>
      </trkpt>
      <trkpt lat="44.70521" lon="5.99277">
        <ele>1604</ele>
        <time>2021-09-20T08:30:47Z</time>
      </trkpt>
      <trkpt lat="44.70521" lon="5.99276">
        <ele>1604</ele>
        <time>2021-09-20T08:30:48Z</time>
      </trkpt>
      <trkpt lat="44.7052" lon="5.99275">
        <ele>1604</ele>
        <time>2021-09-20T08:30:49Z</time>
      </trkpt>
      <trkpt lat="44.7052" lon="5.99275">
        <ele>1604</ele>
        <time>2021-09-20T08:30:50Z</time>
      </trkpt>
      <trkpt lat="44.7052" lon="5.99274">
        <ele>1604</ele>
        <time>2021-09-20T08:30:51Z</time>
      </trkpt>
      <trkpt lat="44.7052" lon="5.99273">
        <ele>1605</ele>
        <time>2021-09-20T08:30:52Z</time>
      </trkpt>
      <trkpt lat="44.7052" lon="5.99273">
        <ele>1605</ele>
        <time>2021-09-20T08:30:53Z</time>
      </trkpt>
      <trkpt lat="44.7052" lon="5.99272">
        <ele>1605</ele>
        <time>2021-09-20T08:30:54Z</time>
      </trkpt>
      <trkpt lat="44.7052" lon="5.99272">
        <ele>1605</ele>
        <time>2021-09-20T08:30:55Z</time>
      </trkpt>
      <trkpt lat="44.7052" lon="5.99271">
        <ele>1605</ele>
        <time>2021-09-20T08:30:56Z</time>
      </trkpt>
      <trkpt lat="44.7052" lon="5.9927">
        <ele>1606</ele>
        <time>2021-09-20T08:30:57Z</time>
      </trkpt>
      <trkpt lat="44.7052" lon="5.99268">
        <ele>1606</ele>
        <time>2021-09-20T08:30:58Z</time>
      </trkpt>
      <trkpt lat="44.7052" lon="5.99267">
        <ele>1606</ele>
        <time>2021-09-20T08:30:59Z</time>
      </trkpt>
      <trkpt lat="44.70519" lon="5.99267">
        <ele>1606</ele>
        <time>2021-09-20T08:31:00Z</time>
      </trkpt>
      <trkpt lat="44.70519" lon="5.99266">
        <ele>1606</ele>
        <time>2021-09-20T08:31:01Z</time>
      </trkpt>
      <trkpt lat="44.70519" lon="5.99265">
        <ele>1607</ele>
        <time>2021-09-20T08:31:02Z</time>
      </trkpt>
      <trkpt lat="44.70519" lon="5.99264">
        <ele>1607</ele>
        <time>2021-09-20T08:31:03Z</time>
      </trkpt>
      <trkpt lat="44.70519" lon="5.99263">
        <ele>1607</ele>
        <time>2021-09-20T08:31:04Z</time>
      </trkpt>
      <trkpt lat="44.70518" lon="5.99262">
        <ele>1607</ele>
        <time>2021-09-20T08:31:05Z</time>
      </trkpt>
      <trkpt lat="44.70518" lon="5.99261">
        <ele>1607</ele>
        <time>2021-09-20T08:31:06Z</time>
      </trkpt>
      <trkpt lat="44.70518" lon="5.9926">
        <ele>1608</ele>
        <time>2021-09-20T08:31:07Z</time>
      </trkpt>
      <trkpt lat="44.70519" lon="5.99259">
        <ele>1608</ele>
        <time>2021-09-20T08:31:08Z</time>
      </trkpt>
      <trkpt lat="44.70519" lon="5.99258">
        <ele>1608</ele>
        <time>2021-09-20T08:31:09Z</time>
      </trkpt>
      <trkpt lat="44.70519" lon="5.99258">
        <ele>1608</ele>
        <time>2021-09-20T08:31:10Z</time>
      </trkpt>
      <trkpt lat="44.7052" lon="5.99257">
        <ele>1608</ele>
        <time>2021-09-20T08:31:11Z</time>
      </trkpt>
      <trkpt lat="44.7052" lon="5.99257">
        <ele>1609</ele>
        <time>2021-09-20T08:31:12Z</time>
      </trkpt>
      <trkpt lat="44.70521" lon="5.99257">
        <ele>1609</ele>
        <time>2021-09-20T08:31:13Z</time>
      </trkpt>
      <trkpt lat="44.70522" lon="5.99256">
        <ele>1609</ele>
        <time>2021-09-20T08:31:14Z</time>
      </trkpt>
      <trkpt lat="44.70523" lon="5.99256">
        <ele>1609</ele>
        <time>2021-09-20T08:31:15Z</time>
      </trkpt>
      <trkpt lat="44.70524" lon="5.99256">
        <ele>1609</ele>
        <time>2021-09-20T08:31:16Z</time>
      </trkpt>
      <trkpt lat="44.70524" lon="5.99256">
        <ele>1609</ele>
        <time>2021-09-20T08:31:17Z</time>
      </trkpt>
      <trkpt lat="44.70525" lon="5.99256">
        <ele>1609</ele>
        <time>2021-09-20T08:31:18Z</time>
      </trkpt>
      <trkpt lat="44.70526" lon="5.99256">
        <ele>1609</ele>
        <time>2021-09-20T08:31:19Z</time>
      </trkpt>
      <trkpt lat="44.70526" lon="5.99257">
        <ele>1609</ele>
        <time>2021-09-20T08:31:20Z</time>
      </trkpt>
      <trkpt lat="44.70527" lon="5.99257">
        <ele>1609</ele>
        <time>2021-09-20T08:31:21Z</time>
      </trkpt>
      <trkpt lat="44.70527" lon="5.99257">
        <ele>1610</ele>
        <time>2021-09-20T08:31:22Z</time>
      </trkpt>
      <trkpt lat="44.70528" lon="5.99257">
        <ele>1610</ele>
        <time>2021-09-20T08:31:23Z</time>
      </trkpt>
      <trkpt lat="44.70529" lon="5.99257">
        <ele>1610</ele>
        <time>2021-09-20T08:31:24Z</time>
      </trkpt>
      <trkpt lat="44.70529" lon="5.99257">
        <ele>1610</ele>
        <time>2021-09-20T08:31:25Z</time>
      </trkpt>
      <trkpt lat="44.7053" lon="5.99257">
        <ele>1610</ele>
        <time>2021-09-20T08:31:26Z</time>
      </trkpt>
      <trkpt lat="44.7053" lon="5.99257">
        <ele>1610</ele>
        <time>2021-09-20T08:31:27Z</time>
      </trkpt>
      <trkpt lat="44.70531" lon="5.99256">
        <ele>1610</ele>
        <time>2021-09-20T08:31:28Z</time>
      </trkpt>
      <trkpt lat="44.70532" lon="5.99256">
        <ele>1610</ele>
        <time>2021-09-20T08:31:29Z</time>
      </trkpt>
      <trkpt lat="44.70532" lon="5.99256">
        <ele>1610</ele>
        <time>2021-09-20T08:31:30Z</time>
      </trkpt>
      <trkpt lat="44.70533" lon="5.99256">
        <ele>1610</ele>
        <time>2021-09-20T08:31:31Z</time>
      </trkpt>
      <trkpt lat="44.70534" lon="5.99256">
        <ele>1611</ele>
        <time>2021-09-20T08:31:32Z</time>
      </trkpt>
      <trkpt lat="44.70535" lon="5.99256">
        <ele>1611</ele>
        <time>2021-09-20T08:31:33Z</time>
      </trkpt>
      <trkpt lat="44.70535" lon="5.99256">
        <ele>1611</ele>
        <time>2021-09-20T08:31:34Z</time>
      </trkpt>
      <trkpt lat="44.70536" lon="5.99256">
        <ele>1611</ele>
        <time>2021-09-20T08:31:35Z</time>
      </trkpt>
      <trkpt lat="44.70537" lon="5.99256">
        <ele>1611</ele>
        <time>2021-09-20T08:31:36Z</time>
      </trkpt>
      <trkpt lat="44.70538" lon="5.99256">
        <ele>1612</ele>
        <time>2021-09-20T08:31:37Z</time>
      </trkpt>
      <trkpt lat="44.70539" lon="5.99255">
        <ele>1612</ele>
        <time>2021-09-20T08:31:38Z</time>
      </trkpt>
      <trkpt lat="44.7054" lon="5.99255">
        <ele>1612</ele>
        <time>2021-09-20T08:31:39Z</time>
      </trkpt>
      <trkpt lat="44.7054" lon="5.99255">
        <ele>1612</ele>
        <time>2021-09-20T08:31:40Z</time>
      </trkpt>
      <trkpt lat="44.70541" lon="5.99255">
        <ele>1612</ele>
        <time>2021-09-20T08:31:41Z</time>
      </trkpt>
      <trkpt lat="44.70542" lon="5.99254">
        <ele>1612</ele>
        <time>2021-09-20T08:31:42Z</time>
      </trkpt>
      <trkpt lat="44.70542" lon="5.99254">
        <ele>1612</ele>
        <time>2021-09-20T08:31:43Z</time>
      </trkpt>
      <trkpt lat="44.70543" lon="5.99253">
        <ele>1612</ele>
        <time>2021-09-20T08:31:44Z</time>
      </trkpt>
      <trkpt lat="44.70544" lon="5.99253">
        <ele>1612</ele>
        <time>2021-09-20T08:31:45Z</time>
      </trkpt>
      <trkpt lat="44.70544" lon="5.99252">
        <ele>1612</ele>
        <time>2021-09-20T08:31:46Z</time>
      </trkpt>
      <trkpt lat="44.70545" lon="5.99251">
        <ele>1613</ele>
        <time>2021-09-20T08:31:47Z</time>
      </trkpt>
      <trkpt lat="44.70546" lon="5.9925">
        <ele>1613</ele>
        <time>2021-09-20T08:31:48Z</time>
      </trkpt>
      <trkpt lat="44.70546" lon="5.9925">
        <ele>1613</ele>
        <time>2021-09-20T08:31:49Z</time>
      </trkpt>
      <trkpt lat="44.70546" lon="5.99249">
        <ele>1613</ele>
        <time>2021-09-20T08:31:50Z</time>
      </trkpt>
      <trkpt lat="44.70547" lon="5.99248">
        <ele>1613</ele>
        <time>2021-09-20T08:31:51Z</time>
      </trkpt>
      <trkpt lat="44.70547" lon="5.99248">
        <ele>1613</ele>
        <time>2021-09-20T08:31:52Z</time>
      </trkpt>
      <trkpt lat="44.70547" lon="5.99247">
        <ele>1613</ele>
        <time>2021-09-20T08:31:53Z</time>
      </trkpt>
      <trkpt lat="44.70548" lon="5.99247">
        <ele>1613</ele>
        <time>2021-09-20T08:31:54Z</time>
      </trkpt>
      <trkpt lat="44.70548" lon="5.99246">
        <ele>1613</ele>
        <time>2021-09-20T08:31:55Z</time>
      </trkpt>
      <trkpt lat="44.70548" lon="5.99246">
        <ele>1613</ele>
        <time>2021-09-20T08:31:56Z</time>
      </trkpt>
      <trkpt lat="44.70548" lon="5.99245">
        <ele>1614</ele>
        <time>2021-09-20T08:31:57Z</time>
      </trkpt>
      <trkpt lat="44.70549" lon="5.99245">
        <ele>1614</ele>
        <time>2021-09-20T08:31:58Z</time>
      </trkpt>
      <trkpt lat="44.70549" lon="5.99244">
        <ele>1614</ele>
        <time>2021-09-20T08:31:59Z</time>
      </trkpt>
      <trkpt lat="44.70549" lon="5.99243">
        <ele>1614</ele>
        <time>2021-09-20T08:32:00Z</time>
      </trkpt>
      <trkpt lat="44.7055" lon="5.99243">
        <ele>1614</ele>
        <time>2021-09-20T08:32:01Z</time>
      </trkpt>
      <trkpt lat="44.7055" lon="5.99242">
        <ele>1614</ele>
        <time>2021-09-20T08:32:02Z</time>
      </trkpt>
      <trkpt lat="44.70551" lon="5.99241">
        <ele>1614</ele>
        <time>2021-09-20T08:32:03Z</time>
      </trkpt>
      <trkpt lat="44.70551" lon="5.9924">
        <ele>1614</ele>
        <time>2021-09-20T08:32:04Z</time>
      </trkpt>
      <trkpt lat="44.70552" lon="5.99239">
        <ele>1614</ele>
        <time>2021-09-20T08:32:05Z</time>
      </trkpt>
      <trkpt lat="44.70552" lon="5.99238">
        <ele>1614</ele>
        <time>2021-09-20T08:32:06Z</time>
      </trkpt>
      <trkpt lat="44.70553" lon="5.99237">
        <ele>1615</ele>
        <time>2021-09-20T08:32:07Z</time>
      </trkpt>
      <trkpt lat="44.70553" lon="5.99237">
        <ele>1615</ele>
        <time>2021-09-20T08:32:08Z</time>
      </trkpt>
      <trkpt lat="44.70553" lon="5.99236">
        <ele>1615</ele>
        <time>2021-09-20T08:32:09Z</time>
      </trkpt>
      <trkpt lat="44.70554" lon="5.99235">
        <ele>1615</ele>
        <time>2021-09-20T08:32:10Z</time>
      </trkpt>
      <trkpt lat="44.70554" lon="5.99234">
        <ele>1615</ele>
        <time>2021-09-20T08:32:11Z</time>
      </trkpt>
      <trkpt lat="44.70555" lon="5.99234">
        <ele>1615</ele>
        <time>2021-09-20T08:32:12Z</time>
      </trkpt>
      <trkpt lat="44.70555" lon="5.99233">
        <ele>1615</ele>
        <time>2021-09-20T08:32:13Z</time>
      </trkpt>
      <trkpt lat="44.70556" lon="5.99232">
        <ele>1615</ele>
        <time>2021-09-20T08:32:14Z</time>
      </trkpt>
      <trkpt lat="44.70556" lon="5.99232">
        <ele>1615</ele>
        <time>2021-09-20T08:32:15Z</time>
      </trkpt>
      <trkpt lat="44.70556" lon="5.99231">
        <ele>1615</ele>
        <time>2021-09-20T08:32:16Z</time>
      </trkpt>
      <trkpt lat="44.70557" lon="5.99231">
        <ele>1616</ele>
        <time>2021-09-20T08:32:17Z</time>
      </trkpt>
      <trkpt lat="44.70557" lon="5.9923">
        <ele>1616</ele>
        <time>2021-09-20T08:32:18Z</time>
      </trkpt>
      <trkpt lat="44.70558" lon="5.99229">
        <ele>1616</ele>
        <time>2021-09-20T08:32:19Z</time>
      </trkpt>
      <trkpt lat="44.70558" lon="5.99229">
        <ele>1616</ele>
        <time>2021-09-20T08:32:20Z</time>
      </trkpt>
      <trkpt lat="44.70559" lon="5.99228">
        <ele>1616</ele>
        <time>2021-09-20T08:32:21Z</time>
      </trkpt>
      <trkpt lat="44.70559" lon="5.99227">
        <ele>1617</ele>
        <time>2021-09-20T08:32:22Z</time>
      </trkpt>
      <trkpt lat="44.7056" lon="5.99226">
        <ele>1617</ele>
        <time>2021-09-20T08:32:23Z</time>
      </trkpt>
      <trkpt lat="44.7056" lon="5.99225">
        <ele>1617</ele>
        <time>2021-09-20T08:32:24Z</time>
      </trkpt>
      <trkpt lat="44.70561" lon="5.99224">
        <ele>1617</ele>
        <time>2021-09-20T08:32:25Z</time>
      </trkpt>
      <trkpt lat="44.70561" lon="5.99224">
        <ele>1617</ele>
        <time>2021-09-20T08:32:26Z</time>
      </trkpt>
      <trkpt lat="44.70561" lon="5.99223">
        <ele>1618</ele>
        <time>2021-09-20T08:32:27Z</time>
      </trkpt>
      <trkpt lat="44.70562" lon="5.99222">
        <ele>1618</ele>
        <time>2021-09-20T08:32:28Z</time>
      </trkpt>
      <trkpt lat="44.70562" lon="5.99222">
        <ele>1618</ele>
        <time>2021-09-20T08:32:29Z</time>
      </trkpt>
      <trkpt lat="44.70563" lon="5.99221">
        <ele>1618</ele>
        <time>2021-09-20T08:32:30Z</time>
      </trkpt>
      <trkpt lat="44.70563" lon="5.9922">
        <ele>1618</ele>
        <time>2021-09-20T08:32:31Z</time>
      </trkpt>
      <trkpt lat="44.70564" lon="5.9922">
        <ele>1619</ele>
        <time>2021-09-20T08:32:32Z</time>
      </trkpt>
      <trkpt lat="44.70564" lon="5.99219">
        <ele>1619</ele>
        <time>2021-09-20T08:32:33Z</time>
      </trkpt>
      <trkpt lat="44.70565" lon="5.99218">
        <ele>1619</ele>
        <time>2021-09-20T08:32:34Z</time>
      </trkpt>
      <trkpt lat="44.70565" lon="5.99218">
        <ele>1619</ele>
        <time>2021-09-20T08:32:35Z</time>
      </trkpt>
      <trkpt lat="44.70565" lon="5.99217">
        <ele>1619</ele>
        <time>2021-09-20T08:32:36Z</time>
      </trkpt>
      <trkpt lat="44.70566" lon="5.99216">
        <ele>1620</ele>
        <time>2021-09-20T08:32:37Z</time>
      </trkpt>
      <trkpt lat="44.70566" lon="5.99215">
        <ele>1620</ele>
        <time>2021-09-20T08:32:38Z</time>
      </trkpt>
      <trkpt lat="44.70567" lon="5.99215">
        <ele>1620</ele>
        <time>2021-09-20T08:32:39Z</time>
      </trkpt>
      <trkpt lat="44.70567" lon="5.99214">
        <ele>1620</ele>
        <time>2021-09-20T08:32:40Z</time>
      </trkpt>
      <trkpt lat="44.70568" lon="5.99213">
        <ele>1620</ele>
        <time>2021-09-20T08:32:41Z</time>
      </trkpt>
      <trkpt lat="44.70569" lon="5.99212">
        <ele>1621</ele>
        <time>2021-09-20T08:32:42Z</time>
      </trkpt>
      <trkpt lat="44.70569" lon="5.99211">
        <ele>1621</ele>
        <time>2021-09-20T08:32:43Z</time>
      </trkpt>
      <trkpt lat="44.70569" lon="5.9921">
        <ele>1621</ele>
        <time>2021-09-20T08:32:44Z</time>
      </trkpt>
      <trkpt lat="44.7057" lon="5.99209">
        <ele>1621</ele>
        <time>2021-09-20T08:32:45Z</time>
      </trkpt>
      <trkpt lat="44.7057" lon="5.99208">
        <ele>1621</ele>
        <time>2021-09-20T08:32:46Z</time>
      </trkpt>
      <trkpt lat="44.7057" lon="5.99207">
        <ele>1621</ele>
        <time>2021-09-20T08:32:47Z</time>
      </trkpt>
      <trkpt lat="44.70571" lon="5.99206">
        <ele>1621</ele>
        <time>2021-09-20T08:32:48Z</time>
      </trkpt>
      <trkpt lat="44.70571" lon="5.99205">
        <ele>1621</ele>
        <time>2021-09-20T08:32:49Z</time>
      </trkpt>
      <trkpt lat="44.70572" lon="5.99205">
        <ele>1621</ele>
        <time>2021-09-20T08:32:50Z</time>
      </trkpt>
      <trkpt lat="44.70572" lon="5.99204">
        <ele>1621</ele>
        <time>2021-09-20T08:32:51Z</time>
      </trkpt>
      <trkpt lat="44.70573" lon="5.99204">
        <ele>1622</ele>
        <time>2021-09-20T08:32:52Z</time>
      </trkpt>
      <trkpt lat="44.70573" lon="5.99203">
        <ele>1622</ele>
        <time>2021-09-20T08:32:53Z</time>
      </trkpt>
      <trkpt lat="44.70574" lon="5.99202">
        <ele>1622</ele>
        <time>2021-09-20T08:32:54Z</time>
      </trkpt>
      <trkpt lat="44.70575" lon="5.99202">
        <ele>1622</ele>
        <time>2021-09-20T08:32:55Z</time>
      </trkpt>
      <trkpt lat="44.70576" lon="5.99201">
        <ele>1622</ele>
        <time>2021-09-20T08:32:56Z</time>
      </trkpt>
      <trkpt lat="44.70576" lon="5.99201">
        <ele>1622</ele>
        <time>2021-09-20T08:32:57Z</time>
      </trkpt>
      <trkpt lat="44.70577" lon="5.992">
        <ele>1622</ele>
        <time>2021-09-20T08:32:58Z</time>
      </trkpt>
      <trkpt lat="44.70578" lon="5.992">
        <ele>1622</ele>
        <time>2021-09-20T08:32:59Z</time>
      </trkpt>
      <trkpt lat="44.70579" lon="5.992">
        <ele>1622</ele>
        <time>2021-09-20T08:33:00Z</time>
      </trkpt>
      <trkpt lat="44.70579" lon="5.992">
        <ele>1622</ele>
        <time>2021-09-20T08:33:01Z</time>
      </trkpt>
      <trkpt lat="44.7058" lon="5.99199">
        <ele>1623</ele>
        <time>2021-09-20T08:33:02Z</time>
      </trkpt>
      <trkpt lat="44.7058" lon="5.99199">
        <ele>1623</ele>
        <time>2021-09-20T08:33:03Z</time>
      </trkpt>
      <trkpt lat="44.70581" lon="5.99199">
        <ele>1623</ele>
        <time>2021-09-20T08:33:04Z</time>
      </trkpt>
      <trkpt lat="44.70582" lon="5.99199">
        <ele>1623</ele>
        <time>2021-09-20T08:33:05Z</time>
      </trkpt>
      <trkpt lat="44.70582" lon="5.99198">
        <ele>1623</ele>
        <time>2021-09-20T08:33:06Z</time>
      </trkpt>
      <trkpt lat="44.70583" lon="5.99198">
        <ele>1624</ele>
        <time>2021-09-20T08:33:07Z</time>
      </trkpt>
      <trkpt lat="44.70583" lon="5.99198">
        <ele>1624</ele>
        <time>2021-09-20T08:33:08Z</time>
      </trkpt>
      <trkpt lat="44.70584" lon="5.99198">
        <ele>1624</ele>
        <time>2021-09-20T08:33:09Z</time>
      </trkpt>
      <trkpt lat="44.70584" lon="5.99197">
        <ele>1624</ele>
        <time>2021-09-20T08:33:10Z</time>
      </trkpt>
      <trkpt lat="44.70585" lon="5.99197">
        <ele>1624</ele>
        <time>2021-09-20T08:33:11Z</time>
      </trkpt>
      <trkpt lat="44.70586" lon="5.99197">
        <ele>1625</ele>
        <time>2021-09-20T08:33:12Z</time>
      </trkpt>
      <trkpt lat="44.70586" lon="5.99197">
        <ele>1625</ele>
        <time>2021-09-20T08:33:13Z</time>
      </trkpt>
      <trkpt lat="44.70587" lon="5.99197">
        <ele>1625</ele>
        <time>2021-09-20T08:33:14Z</time>
      </trkpt>
      <trkpt lat="44.70587" lon="5.99197">
        <ele>1625</ele>
        <time>2021-09-20T08:33:15Z</time>
      </trkpt>
      <trkpt lat="44.70588" lon="5.99197">
        <ele>1625</ele>
        <time>2021-09-20T08:33:16Z</time>
      </trkpt>
      <trkpt lat="44.70589" lon="5.99196">
        <ele>1625</ele>
        <time>2021-09-20T08:33:17Z</time>
      </trkpt>
      <trkpt lat="44.70589" lon="5.99196">
        <ele>1625</ele>
        <time>2021-09-20T08:33:18Z</time>
      </trkpt>
      <trkpt lat="44.7059" lon="5.99196">
        <ele>1625</ele>
        <time>2021-09-20T08:33:19Z</time>
      </trkpt>
      <trkpt lat="44.70591" lon="5.99196">
        <ele>1625</ele>
        <time>2021-09-20T08:33:20Z</time>
      </trkpt>
      <trkpt lat="44.70592" lon="5.99196">
        <ele>1625</ele>
        <time>2021-09-20T08:33:21Z</time>
      </trkpt>
      <trkpt lat="44.70592" lon="5.99196">
        <ele>1626</ele>
        <time>2021-09-20T08:33:22Z</time>
      </trkpt>
      <trkpt lat="44.70593" lon="5.99196">
        <ele>1626</ele>
        <time>2021-09-20T08:33:23Z</time>
      </trkpt>
      <trkpt lat="44.70594" lon="5.99195">
        <ele>1626</ele>
        <time>2021-09-20T08:33:24Z</time>
      </trkpt>
      <trkpt lat="44.70594" lon="5.99195">
        <ele>1626</ele>
        <time>2021-09-20T08:33:25Z</time>
      </trkpt>
      <trkpt lat="44.70595" lon="5.99195">
        <ele>1626</ele>
        <time>2021-09-20T08:33:26Z</time>
      </trkpt>
      <trkpt lat="44.70595" lon="5.99195">
        <ele>1627</ele>
        <time>2021-09-20T08:33:27Z</time>
      </trkpt>
      <trkpt lat="44.70596" lon="5.99195">
        <ele>1627</ele>
        <time>2021-09-20T08:33:28Z</time>
      </trkpt>
      <trkpt lat="44.70597" lon="5.99194">
        <ele>1627</ele>
        <time>2021-09-20T08:33:29Z</time>
      </trkpt>
      <trkpt lat="44.70597" lon="5.99194">
        <ele>1627</ele>
        <time>2021-09-20T08:33:30Z</time>
      </trkpt>
      <trkpt lat="44.70598" lon="5.99194">
        <ele>1627</ele>
        <time>2021-09-20T08:33:31Z</time>
      </trkpt>
      <trkpt lat="44.70598" lon="5.99194">
        <ele>1627</ele>
        <time>2021-09-20T08:33:32Z</time>
      </trkpt>
      <trkpt lat="44.70599" lon="5.99194">
        <ele>1627</ele>
        <time>2021-09-20T08:33:33Z</time>
      </trkpt>
      <trkpt lat="44.70599" lon="5.99193">
        <ele>1627</ele>
        <time>2021-09-20T08:33:34Z</time>
      </trkpt>
      <trkpt lat="44.706" lon="5.99193">
        <ele>1627</ele>
        <time>2021-09-20T08:33:35Z</time>
      </trkpt>
      <trkpt lat="44.706" lon="5.99193">
        <ele>1627</ele>
        <time>2021-09-20T08:33:36Z</time>
      </trkpt>
      <trkpt lat="44.70601" lon="5.99192">
        <ele>1628</ele>
        <time>2021-09-20T08:33:37Z</time>
      </trkpt>
      <trkpt lat="44.70601" lon="5.99192">
        <ele>1628</ele>
        <time>2021-09-20T08:33:38Z</time>
      </trkpt>
      <trkpt lat="44.70602" lon="5.99191">
        <ele>1628</ele>
        <time>2021-09-20T08:33:39Z</time>
      </trkpt>
      <trkpt lat="44.70603" lon="5.99191">
        <ele>1628</ele>
        <time>2021-09-20T08:33:40Z</time>
      </trkpt>
      <trkpt lat="44.70603" lon="5.9919">
        <ele>1628</ele>
        <time>2021-09-20T08:33:41Z</time>
      </trkpt>
      <trkpt lat="44.70603" lon="5.9919">
        <ele>1629</ele>
        <time>2021-09-20T08:33:42Z</time>
      </trkpt>
      <trkpt lat="44.70603" lon="5.99189">
        <ele>1629</ele>
        <time>2021-09-20T08:33:43Z</time>
      </trkpt>
      <trkpt lat="44.70604" lon="5.99188">
        <ele>1629</ele>
        <time>2021-09-20T08:33:44Z</time>
      </trkpt>
      <trkpt lat="44.70604" lon="5.99187">
        <ele>1629</ele>
        <time>2021-09-20T08:33:45Z</time>
      </trkpt>
      <trkpt lat="44.70604" lon="5.99187">
        <ele>1629</ele>
        <time>2021-09-20T08:33:46Z</time>
      </trkpt>
      <trkpt lat="44.70604" lon="5.99186">
        <ele>1630</ele>
        <time>2021-09-20T08:33:47Z</time>
      </trkpt>
      <trkpt lat="44.70604" lon="5.99186">
        <ele>1630</ele>
        <time>2021-09-20T08:33:48Z</time>
      </trkpt>
      <trkpt lat="44.70605" lon="5.99185">
        <ele>1630</ele>
        <time>2021-09-20T08:33:49Z</time>
      </trkpt>
      <trkpt lat="44.70605" lon="5.99184">
        <ele>1630</ele>
        <time>2021-09-20T08:33:50Z</time>
      </trkpt>
      <trkpt lat="44.70605" lon="5.99183">
        <ele>1630</ele>
        <time>2021-09-20T08:33:51Z</time>
      </trkpt>
      <trkpt lat="44.70605" lon="5.99182">
        <ele>1630</ele>
        <time>2021-09-20T08:33:52Z</time>
      </trkpt>
      <trkpt lat="44.70606" lon="5.99182">
        <ele>1630</ele>
        <time>2021-09-20T08:33:53Z</time>
      </trkpt>
      <trkpt lat="44.70606" lon="5.99181">
        <ele>1630</ele>
        <time>2021-09-20T08:33:54Z</time>
      </trkpt>
      <trkpt lat="44.70606" lon="5.9918">
        <ele>1630</ele>
        <time>2021-09-20T08:33:55Z</time>
      </trkpt>
      <trkpt lat="44.70606" lon="5.99179">
        <ele>1630</ele>
        <time>2021-09-20T08:33:56Z</time>
      </trkpt>
      <trkpt lat="44.70606" lon="5.99178">
        <ele>1631</ele>
        <time>2021-09-20T08:33:57Z</time>
      </trkpt>
      <trkpt lat="44.70606" lon="5.99178">
        <ele>1631</ele>
        <time>2021-09-20T08:33:58Z</time>
      </trkpt>
      <trkpt lat="44.70606" lon="5.99177">
        <ele>1631</ele>
        <time>2021-09-20T08:33:59Z</time>
      </trkpt>
      <trkpt lat="44.70606" lon="5.99177">
        <ele>1631</ele>
        <time>2021-09-20T08:34:00Z</time>
      </trkpt>
      <trkpt lat="44.70606" lon="5.99176">
        <ele>1631</ele>
        <time>2021-09-20T08:34:01Z</time>
      </trkpt>
      <trkpt lat="44.70606" lon="5.99175">
        <ele>1632</ele>
        <time>2021-09-20T08:34:02Z</time>
      </trkpt>
      <trkpt lat="44.70606" lon="5.99174">
        <ele>1632</ele>
        <time>2021-09-20T08:34:03Z</time>
      </trkpt>
      <trkpt lat="44.70606" lon="5.99173">
        <ele>1632</ele>
        <time>2021-09-20T08:34:04Z</time>
      </trkpt>
      <trkpt lat="44.70606" lon="5.99172">
        <ele>1632</ele>
        <time>2021-09-20T08:34:05Z</time>
      </trkpt>
      <trkpt lat="44.70606" lon="5.99171">
        <ele>1632</ele>
        <time>2021-09-20T08:34:06Z</time>
      </trkpt>
      <trkpt lat="44.70606" lon="5.9917">
        <ele>1633</ele>
        <time>2021-09-20T08:34:07Z</time>
      </trkpt>
      <trkpt lat="44.70606" lon="5.9917">
        <ele>1633</ele>
        <time>2021-09-20T08:34:08Z</time>
      </trkpt>
      <trkpt lat="44.70606" lon="5.99169">
        <ele>1633</ele>
        <time>2021-09-20T08:34:09Z</time>
      </trkpt>
      <trkpt lat="44.70606" lon="5.99168">
        <ele>1633</ele>
        <time>2021-09-20T08:34:10Z</time>
      </trkpt>
      <trkpt lat="44.70606" lon="5.99167">
        <ele>1633</ele>
        <time>2021-09-20T08:34:11Z</time>
      </trkpt>
      <trkpt lat="44.70606" lon="5.99166">
        <ele>1633</ele>
        <time>2021-09-20T08:34:12Z</time>
      </trkpt>
      <trkpt lat="44.70606" lon="5.99165">
        <ele>1633</ele>
        <time>2021-09-20T08:34:13Z</time>
      </trkpt>
      <trkpt lat="44.70606" lon="5.99164">
        <ele>1633</ele>
        <time>2021-09-20T08:34:14Z</time>
      </trkpt>
      <trkpt lat="44.70606" lon="5.99163">
        <ele>1633</ele>
        <time>2021-09-20T08:34:15Z</time>
      </trkpt>
      <trkpt lat="44.70605" lon="5.99162">
        <ele>1633</ele>
        <time>2021-09-20T08:34:16Z</time>
      </trkpt>
      <trkpt lat="44.70605" lon="5.99161">
        <ele>1634</ele>
        <time>2021-09-20T08:34:17Z</time>
      </trkpt>
      <trkpt lat="44.70605" lon="5.9916">
        <ele>1634</ele>
        <time>2021-09-20T08:34:18Z</time>
      </trkpt>
      <trkpt lat="44.70605" lon="5.99159">
        <ele>1634</ele>
        <time>2021-09-20T08:34:19Z</time>
      </trkpt>
      <trkpt lat="44.70605" lon="5.99158">
        <ele>1634</ele>
        <time>2021-09-20T08:34:20Z</time>
      </trkpt>
      <trkpt lat="44.70605" lon="5.99158">
        <ele>1634</ele>
        <time>2021-09-20T08:34:21Z</time>
      </trkpt>
      <trkpt lat="44.70605" lon="5.99157">
        <ele>1634</ele>
        <time>2021-09-20T08:34:22Z</time>
      </trkpt>
      <trkpt lat="44.70605" lon="5.99156">
        <ele>1634</ele>
        <time>2021-09-20T08:34:23Z</time>
      </trkpt>
      <trkpt lat="44.70606" lon="5.99155">
        <ele>1634</ele>
        <time>2021-09-20T08:34:24Z</time>
      </trkpt>
      <trkpt lat="44.70606" lon="5.99154">
        <ele>1634</ele>
        <time>2021-09-20T08:34:25Z</time>
      </trkpt>
      <trkpt lat="44.70606" lon="5.99154">
        <ele>1634</ele>
        <time>2021-09-20T08:34:26Z</time>
      </trkpt>
      <trkpt lat="44.70606" lon="5.99154">
        <ele>1635</ele>
        <time>2021-09-20T08:34:27Z</time>
      </trkpt>
      <trkpt lat="44.70606" lon="5.99153">
        <ele>1635</ele>
        <time>2021-09-20T08:34:28Z</time>
      </trkpt>
      <trkpt lat="44.70606" lon="5.99153">
        <ele>1635</ele>
        <time>2021-09-20T08:34:29Z</time>
      </trkpt>
      <trkpt lat="44.70606" lon="5.99152">
        <ele>1635</ele>
        <time>2021-09-20T08:34:30Z</time>
      </trkpt>
      <trkpt lat="44.70606" lon="5.99151">
        <ele>1635</ele>
        <time>2021-09-20T08:34:31Z</time>
      </trkpt>
      <trkpt lat="44.70606" lon="5.9915">
        <ele>1636</ele>
        <time>2021-09-20T08:34:32Z</time>
      </trkpt>
      <trkpt lat="44.70606" lon="5.99149">
        <ele>1636</ele>
        <time>2021-09-20T08:34:33Z</time>
      </trkpt>
      <trkpt lat="44.70606" lon="5.99148">
        <ele>1636</ele>
        <time>2021-09-20T08:34:34Z</time>
      </trkpt>
      <trkpt lat="44.70606" lon="5.99147">
        <ele>1636</ele>
        <time>2021-09-20T08:34:35Z</time>
      </trkpt>
      <trkpt lat="44.70606" lon="5.99147">
        <ele>1636</ele>
        <time>2021-09-20T08:34:36Z</time>
      </trkpt>
      <trkpt lat="44.70606" lon="5.99146">
        <ele>1637</ele>
        <time>2021-09-20T08:34:37Z</time>
      </trkpt>
      <trkpt lat="44.70607" lon="5.99145">
        <ele>1637</ele>
        <time>2021-09-20T08:34:38Z</time>
      </trkpt>
      <trkpt lat="44.70607" lon="5.99144">
        <ele>1637</ele>
        <time>2021-09-20T08:34:39Z</time>
      </trkpt>
      <trkpt lat="44.70607" lon="5.99143">
        <ele>1637</ele>
        <time>2021-09-20T08:34:40Z</time>
      </trkpt>
      <trkpt lat="44.70607" lon="5.99141">
        <ele>1637</ele>
        <time>2021-09-20T08:34:41Z</time>
      </trkpt>
      <trkpt lat="44.70608" lon="5.99141">
        <ele>1638</ele>
        <time>2021-09-20T08:34:42Z</time>
      </trkpt>
      <trkpt lat="44.70608" lon="5.9914">
        <ele>1638</ele>
        <time>2021-09-20T08:34:43Z</time>
      </trkpt>
      <trkpt lat="44.70608" lon="5.99139">
        <ele>1638</ele>
        <time>2021-09-20T08:34:44Z</time>
      </trkpt>
      <trkpt lat="44.70608" lon="5.99138">
        <ele>1638</ele>
        <time>2021-09-20T08:34:45Z</time>
      </trkpt>
      <trkpt lat="44.70609" lon="5.99135">
        <ele>1639</ele>
        <time>2021-09-20T08:34:53Z</time>
      </trkpt>
      <trkpt lat="44.70609" lon="5.99134">
        <ele>1639</ele>
        <time>2021-09-20T08:34:54Z</time>
      </trkpt>
      <trkpt lat="44.70609" lon="5.99133">
        <ele>1639</ele>
        <time>2021-09-20T08:34:55Z</time>
      </trkpt>
      <trkpt lat="44.70609" lon="5.99132">
        <ele>1639</ele>
        <time>2021-09-20T08:34:56Z</time>
      </trkpt>
      <trkpt lat="44.70609" lon="5.99131">
        <ele>1640</ele>
        <time>2021-09-20T08:34:57Z</time>
      </trkpt>
      <trkpt lat="44.7061" lon="5.9913">
        <ele>1640</ele>
        <time>2021-09-20T08:34:58Z</time>
      </trkpt>
      <trkpt lat="44.7061" lon="5.99129">
        <ele>1640</ele>
        <time>2021-09-20T08:34:59Z</time>
      </trkpt>
      <trkpt lat="44.7061" lon="5.99128">
        <ele>1640</ele>
        <time>2021-09-20T08:35:00Z</time>
      </trkpt>
      <trkpt lat="44.7061" lon="5.99127">
        <ele>1640</ele>
        <time>2021-09-20T08:35:01Z</time>
      </trkpt>
      <trkpt lat="44.70609" lon="5.99126">
        <ele>1641</ele>
        <time>2021-09-20T08:35:02Z</time>
      </trkpt>
      <trkpt lat="44.70609" lon="5.99124">
        <ele>1641</ele>
        <time>2021-09-20T08:35:03Z</time>
      </trkpt>
      <trkpt lat="44.70608" lon="5.99123">
        <ele>1641</ele>
        <time>2021-09-20T08:35:04Z</time>
      </trkpt>
      <trkpt lat="44.70608" lon="5.99122">
        <ele>1641</ele>
        <time>2021-09-20T08:35:05Z</time>
      </trkpt>
      <trkpt lat="44.70607" lon="5.99122">
        <ele>1641</ele>
        <time>2021-09-20T08:35:06Z</time>
      </trkpt>
      <trkpt lat="44.70606" lon="5.99121">
        <ele>1641</ele>
        <time>2021-09-20T08:35:07Z</time>
      </trkpt>
      <trkpt lat="44.70605" lon="5.9912">
        <ele>1641</ele>
        <time>2021-09-20T08:35:08Z</time>
      </trkpt>
      <trkpt lat="44.70604" lon="5.9912">
        <ele>1641</ele>
        <time>2021-09-20T08:35:09Z</time>
      </trkpt>
      <trkpt lat="44.70604" lon="5.99119">
        <ele>1641</ele>
        <time>2021-09-20T08:35:10Z</time>
      </trkpt>
      <trkpt lat="44.70603" lon="5.99119">
        <ele>1641</ele>
        <time>2021-09-20T08:35:11Z</time>
      </trkpt>
      <trkpt lat="44.70602" lon="5.99118">
        <ele>1642</ele>
        <time>2021-09-20T08:35:12Z</time>
      </trkpt>
      <trkpt lat="44.70602" lon="5.99117">
        <ele>1642</ele>
        <time>2021-09-20T08:35:13Z</time>
      </trkpt>
      <trkpt lat="44.70601" lon="5.99116">
        <ele>1642</ele>
        <time>2021-09-20T08:35:14Z</time>
      </trkpt>
      <trkpt lat="44.70601" lon="5.99115">
        <ele>1642</ele>
        <time>2021-09-20T08:35:15Z</time>
      </trkpt>
      <trkpt lat="44.70601" lon="5.99113">
        <ele>1642</ele>
        <time>2021-09-20T08:35:16Z</time>
      </trkpt>
      <trkpt lat="44.706" lon="5.99112">
        <ele>1643</ele>
        <time>2021-09-20T08:35:17Z</time>
      </trkpt>
      <trkpt lat="44.706" lon="5.99111">
        <ele>1643</ele>
        <time>2021-09-20T08:35:18Z</time>
      </trkpt>
      <trkpt lat="44.706" lon="5.9911">
        <ele>1643</ele>
        <time>2021-09-20T08:35:19Z</time>
      </trkpt>
      <trkpt lat="44.70599" lon="5.99109">
        <ele>1643</ele>
        <time>2021-09-20T08:35:20Z</time>
      </trkpt>
      <trkpt lat="44.70599" lon="5.99108">
        <ele>1643</ele>
        <time>2021-09-20T08:35:21Z</time>
      </trkpt>
      <trkpt lat="44.70598" lon="5.99107">
        <ele>1643</ele>
        <time>2021-09-20T08:35:22Z</time>
      </trkpt>
      <trkpt lat="44.70598" lon="5.99106">
        <ele>1643</ele>
        <time>2021-09-20T08:35:23Z</time>
      </trkpt>
      <trkpt lat="44.70597" lon="5.99105">
        <ele>1643</ele>
        <time>2021-09-20T08:35:24Z</time>
      </trkpt>
      <trkpt lat="44.70597" lon="5.99104">
        <ele>1643</ele>
        <time>2021-09-20T08:35:25Z</time>
      </trkpt>
      <trkpt lat="44.70596" lon="5.99104">
        <ele>1643</ele>
        <time>2021-09-20T08:35:26Z</time>
      </trkpt>
      <trkpt lat="44.70596" lon="5.99103">
        <ele>1644</ele>
        <time>2021-09-20T08:35:27Z</time>
      </trkpt>
      <trkpt lat="44.70595" lon="5.99102">
        <ele>1644</ele>
        <time>2021-09-20T08:35:28Z</time>
      </trkpt>
      <trkpt lat="44.70595" lon="5.99101">
        <ele>1644</ele>
        <time>2021-09-20T08:35:29Z</time>
      </trkpt>
      <trkpt lat="44.70595" lon="5.991">
        <ele>1644</ele>
        <time>2021-09-20T08:35:30Z</time>
      </trkpt>
      <trkpt lat="44.70594" lon="5.991">
        <ele>1644</ele>
        <time>2021-09-20T08:35:31Z</time>
      </trkpt>
      <trkpt lat="44.70594" lon="5.99099">
        <ele>1644</ele>
        <time>2021-09-20T08:35:32Z</time>
      </trkpt>
      <trkpt lat="44.70593" lon="5.99098">
        <ele>1644</ele>
        <time>2021-09-20T08:35:33Z</time>
      </trkpt>
      <trkpt lat="44.70593" lon="5.99098">
        <ele>1644</ele>
        <time>2021-09-20T08:35:34Z</time>
      </trkpt>
      <trkpt lat="44.70592" lon="5.99097">
        <ele>1644</ele>
        <time>2021-09-20T08:35:35Z</time>
      </trkpt>
      <trkpt lat="44.70592" lon="5.99096">
        <ele>1644</ele>
        <time>2021-09-20T08:35:36Z</time>
      </trkpt>
      <trkpt lat="44.70591" lon="5.99095">
        <ele>1645</ele>
        <time>2021-09-20T08:35:37Z</time>
      </trkpt>
      <trkpt lat="44.70591" lon="5.99094">
        <ele>1645</ele>
        <time>2021-09-20T08:35:38Z</time>
      </trkpt>
      <trkpt lat="44.70591" lon="5.99094">
        <ele>1645</ele>
        <time>2021-09-20T08:35:39Z</time>
      </trkpt>
      <trkpt lat="44.7059" lon="5.99093">
        <ele>1645</ele>
        <time>2021-09-20T08:35:40Z</time>
      </trkpt>
      <trkpt lat="44.7059" lon="5.99093">
        <ele>1645</ele>
        <time>2021-09-20T08:35:41Z</time>
      </trkpt>
      <trkpt lat="44.70589" lon="5.99092">
        <ele>1646</ele>
        <time>2021-09-20T08:35:42Z</time>
      </trkpt>
      <trkpt lat="44.70589" lon="5.99092">
        <ele>1646</ele>
        <time>2021-09-20T08:35:43Z</time>
      </trkpt>
      <trkpt lat="44.70589" lon="5.99091">
        <ele>1646</ele>
        <time>2021-09-20T08:35:44Z</time>
      </trkpt>
      <trkpt lat="44.70588" lon="5.9909">
        <ele>1646</ele>
        <time>2021-09-20T08:35:45Z</time>
      </trkpt>
      <trkpt lat="44.70588" lon="5.99089">
        <ele>1646</ele>
        <time>2021-09-20T08:35:46Z</time>
      </trkpt>
      <trkpt lat="44.70587" lon="5.99089">
        <ele>1647</ele>
        <time>2021-09-20T08:35:47Z</time>
      </trkpt>
      <trkpt lat="44.70587" lon="5.99088">
        <ele>1647</ele>
        <time>2021-09-20T08:35:48Z</time>
      </trkpt>
      <trkpt lat="44.70586" lon="5.99087">
        <ele>1647</ele>
        <time>2021-09-20T08:35:49Z</time>
      </trkpt>
      <trkpt lat="44.70585" lon="5.99087">
        <ele>1647</ele>
        <time>2021-09-20T08:35:50Z</time>
      </trkpt>
      <trkpt lat="44.70585" lon="5.99086">
        <ele>1647</ele>
        <time>2021-09-20T08:35:51Z</time>
      </trkpt>
      <trkpt lat="44.70584" lon="5.99086">
        <ele>1647</ele>
        <time>2021-09-20T08:35:52Z</time>
      </trkpt>
      <trkpt lat="44.70583" lon="5.99085">
        <ele>1647</ele>
        <time>2021-09-20T08:35:53Z</time>
      </trkpt>
      <trkpt lat="44.70583" lon="5.99084">
        <ele>1647</ele>
        <time>2021-09-20T08:35:54Z</time>
      </trkpt>
      <trkpt lat="44.70582" lon="5.99083">
        <ele>1647</ele>
        <time>2021-09-20T08:35:55Z</time>
      </trkpt>
      <trkpt lat="44.70582" lon="5.99082">
        <ele>1647</ele>
        <time>2021-09-20T08:35:56Z</time>
      </trkpt>
      <trkpt lat="44.70582" lon="5.99081">
        <ele>1648</ele>
        <time>2021-09-20T08:35:57Z</time>
      </trkpt>
      <trkpt lat="44.70582" lon="5.9908">
        <ele>1648</ele>
        <time>2021-09-20T08:35:58Z</time>
      </trkpt>
      <trkpt lat="44.70582" lon="5.99079">
        <ele>1648</ele>
        <time>2021-09-20T08:35:59Z</time>
      </trkpt>
      <trkpt lat="44.70582" lon="5.99078">
        <ele>1648</ele>
        <time>2021-09-20T08:36:00Z</time>
      </trkpt>
      <trkpt lat="44.70582" lon="5.99076">
        <ele>1648</ele>
        <time>2021-09-20T08:36:01Z</time>
      </trkpt>
      <trkpt lat="44.70582" lon="5.99075">
        <ele>1648</ele>
        <time>2021-09-20T08:36:02Z</time>
      </trkpt>
      <trkpt lat="44.70582" lon="5.99074">
        <ele>1648</ele>
        <time>2021-09-20T08:36:03Z</time>
      </trkpt>
      <trkpt lat="44.70582" lon="5.99073">
        <ele>1648</ele>
        <time>2021-09-20T08:36:04Z</time>
      </trkpt>
      <trkpt lat="44.70581" lon="5.99072">
        <ele>1648</ele>
        <time>2021-09-20T08:36:05Z</time>
      </trkpt>
      <trkpt lat="44.70581" lon="5.99072">
        <ele>1648</ele>
        <time>2021-09-20T08:36:06Z</time>
      </trkpt>
      <trkpt lat="44.70581" lon="5.99071">
        <ele>1649</ele>
        <time>2021-09-20T08:36:07Z</time>
      </trkpt>
      <trkpt lat="44.70581" lon="5.99071">
        <ele>1649</ele>
        <time>2021-09-20T08:36:08Z</time>
      </trkpt>
      <trkpt lat="44.70581" lon="5.9907">
        <ele>1649</ele>
        <time>2021-09-20T08:36:09Z</time>
      </trkpt>
      <trkpt lat="44.7058" lon="5.9907">
        <ele>1649</ele>
        <time>2021-09-20T08:36:10Z</time>
      </trkpt>
      <trkpt lat="44.7058" lon="5.99069">
        <ele>1649</ele>
        <time>2021-09-20T08:36:11Z</time>
      </trkpt>
      <trkpt lat="44.70581" lon="5.99068">
        <ele>1650</ele>
        <time>2021-09-20T08:36:12Z</time>
      </trkpt>
      <trkpt lat="44.70581" lon="5.99068">
        <ele>1650</ele>
        <time>2021-09-20T08:36:13Z</time>
      </trkpt>
      <trkpt lat="44.70582" lon="5.99067">
        <ele>1650</ele>
        <time>2021-09-20T08:36:14Z</time>
      </trkpt>
      <trkpt lat="44.70582" lon="5.99067">
        <ele>1650</ele>
        <time>2021-09-20T08:36:15Z</time>
      </trkpt>
      <trkpt lat="44.70582" lon="5.99067">
        <ele>1650</ele>
        <time>2021-09-20T08:36:16Z</time>
      </trkpt>
      <trkpt lat="44.70583" lon="5.99067">
        <ele>1651</ele>
        <time>2021-09-20T08:36:17Z</time>
      </trkpt>
      <trkpt lat="44.70583" lon="5.99066">
        <ele>1651</ele>
        <time>2021-09-20T08:36:18Z</time>
      </trkpt>
      <trkpt lat="44.70583" lon="5.99065">
        <ele>1651</ele>
        <time>2021-09-20T08:36:19Z</time>
      </trkpt>
      <trkpt lat="44.70583" lon="5.99064">
        <ele>1651</ele>
        <time>2021-09-20T08:36:20Z</time>
      </trkpt>
      <trkpt lat="44.70584" lon="5.99063">
        <ele>1651</ele>
        <time>2021-09-20T08:36:21Z</time>
      </trkpt>
      <trkpt lat="44.70584" lon="5.99062">
        <ele>1651</ele>
        <time>2021-09-20T08:36:22Z</time>
      </trkpt>
      <trkpt lat="44.70585" lon="5.9906">
        <ele>1651</ele>
        <time>2021-09-20T08:36:23Z</time>
      </trkpt>
      <trkpt lat="44.70585" lon="5.99059">
        <ele>1651</ele>
        <time>2021-09-20T08:36:24Z</time>
      </trkpt>
      <trkpt lat="44.70586" lon="5.99058">
        <ele>1651</ele>
        <time>2021-09-20T08:36:25Z</time>
      </trkpt>
      <trkpt lat="44.70586" lon="5.99057">
        <ele>1651</ele>
        <time>2021-09-20T08:36:26Z</time>
      </trkpt>
      <trkpt lat="44.70586" lon="5.99056">
        <ele>1652</ele>
        <time>2021-09-20T08:36:27Z</time>
      </trkpt>
      <trkpt lat="44.70586" lon="5.99055">
        <ele>1652</ele>
        <time>2021-09-20T08:36:28Z</time>
      </trkpt>
      <trkpt lat="44.70587" lon="5.99055">
        <ele>1652</ele>
        <time>2021-09-20T08:36:29Z</time>
      </trkpt>
      <trkpt lat="44.70587" lon="5.99054">
        <ele>1652</ele>
        <time>2021-09-20T08:36:30Z</time>
      </trkpt>
      <trkpt lat="44.70587" lon="5.99053">
        <ele>1652</ele>
        <time>2021-09-20T08:36:31Z</time>
      </trkpt>
      <trkpt lat="44.70588" lon="5.99052">
        <ele>1653</ele>
        <time>2021-09-20T08:36:32Z</time>
      </trkpt>
      <trkpt lat="44.70588" lon="5.99052">
        <ele>1653</ele>
        <time>2021-09-20T08:36:33Z</time>
      </trkpt>
      <trkpt lat="44.70589" lon="5.9905">
        <ele>1653</ele>
        <time>2021-09-20T08:36:41Z</time>
      </trkpt>
      <trkpt lat="44.70589" lon="5.9905">
        <ele>1654</ele>
        <time>2021-09-20T08:36:42Z</time>
      </trkpt>
      <trkpt lat="44.7059" lon="5.9905">
        <ele>1654</ele>
        <time>2021-09-20T08:36:43Z</time>
      </trkpt>
      <trkpt lat="44.70589" lon="5.99051">
        <ele>1654</ele>
        <time>2021-09-20T08:36:44Z</time>
      </trkpt>
      <trkpt lat="44.70589" lon="5.99052">
        <ele>1654</ele>
        <time>2021-09-20T08:36:45Z</time>
      </trkpt>
      <trkpt lat="44.70588" lon="5.99053">
        <ele>1654</ele>
        <time>2021-09-20T08:36:46Z</time>
      </trkpt>
      <trkpt lat="44.70587" lon="5.99055">
        <ele>1655</ele>
        <time>2021-09-20T08:36:47Z</time>
      </trkpt>
      <trkpt lat="44.70584" lon="5.99059">
        <ele>1656</ele>
        <time>2021-09-20T08:36:56Z</time>
      </trkpt>
      <trkpt lat="44.70583" lon="5.9906">
        <ele>1657</ele>
        <time>2021-09-20T08:36:57Z</time>
      </trkpt>
      <trkpt lat="44.70583" lon="5.99062">
        <ele>1657</ele>
        <time>2021-09-20T08:36:58Z</time>
      </trkpt>
      <trkpt lat="44.70582" lon="5.99063">
        <ele>1657</ele>
        <time>2021-09-20T08:36:59Z</time>
      </trkpt>
      <trkpt lat="44.70582" lon="5.99063">
        <ele>1657</ele>
        <time>2021-09-20T08:37:00Z</time>
      </trkpt>
      <trkpt lat="44.70581" lon="5.99064">
        <ele>1657</ele>
        <time>2021-09-20T08:37:01Z</time>
      </trkpt>
      <trkpt lat="44.70581" lon="5.99064">
        <ele>1657</ele>
        <time>2021-09-20T08:37:02Z</time>
      </trkpt>
      <trkpt lat="44.7058" lon="5.99064">
        <ele>1657</ele>
        <time>2021-09-20T08:37:03Z</time>
      </trkpt>
      <trkpt lat="44.7058" lon="5.99065">
        <ele>1657</ele>
        <time>2021-09-20T08:37:04Z</time>
      </trkpt>
      <trkpt lat="44.70579" lon="5.99065">
        <ele>1657</ele>
        <time>2021-09-20T08:37:05Z</time>
      </trkpt>
      <trkpt lat="44.70578" lon="5.99065">
        <ele>1657</ele>
        <time>2021-09-20T08:37:06Z</time>
      </trkpt>
      <trkpt lat="44.70578" lon="5.99065">
        <ele>1658</ele>
        <time>2021-09-20T08:37:07Z</time>
      </trkpt>
      <trkpt lat="44.70577" lon="5.99065">
        <ele>1658</ele>
        <time>2021-09-20T08:37:08Z</time>
      </trkpt>
      <trkpt lat="44.70577" lon="5.99065">
        <ele>1658</ele>
        <time>2021-09-20T08:37:09Z</time>
      </trkpt>
      <trkpt lat="44.70576" lon="5.99065">
        <ele>1658</ele>
        <time>2021-09-20T08:37:10Z</time>
      </trkpt>
      <trkpt lat="44.70576" lon="5.99065">
        <ele>1658</ele>
        <time>2021-09-20T08:37:11Z</time>
      </trkpt>
      <trkpt lat="44.70575" lon="5.99065">
        <ele>1658</ele>
        <time>2021-09-20T08:37:12Z</time>
      </trkpt>
      <trkpt lat="44.70575" lon="5.99065">
        <ele>1658</ele>
        <time>2021-09-20T08:37:13Z</time>
      </trkpt>
      <trkpt lat="44.70575" lon="5.99065">
        <ele>1658</ele>
        <time>2021-09-20T08:37:14Z</time>
      </trkpt>
      <trkpt lat="44.70574" lon="5.99065">
        <ele>1658</ele>
        <time>2021-09-20T08:37:15Z</time>
      </trkpt>
      <trkpt lat="44.70574" lon="5.99065">
        <ele>1658</ele>
        <time>2021-09-20T08:37:16Z</time>
      </trkpt>
      <trkpt lat="44.70574" lon="5.99065">
        <ele>1659</ele>
        <time>2021-09-20T08:37:17Z</time>
      </trkpt>
      <trkpt lat="44.70574" lon="5.99066">
        <ele>1659</ele>
        <time>2021-09-20T08:37:18Z</time>
      </trkpt>
      <trkpt lat="44.70574" lon="5.99066">
        <ele>1659</ele>
        <time>2021-09-20T08:37:19Z</time>
      </trkpt>
      <trkpt lat="44.70574" lon="5.99067">
        <ele>1659</ele>
        <time>2021-09-20T08:37:20Z</time>
      </trkpt>
      <trkpt lat="44.70574" lon="5.99067">
        <ele>1659</ele>
        <time>2021-09-20T08:37:21Z</time>
      </trkpt>
      <trkpt lat="44.70574" lon="5.99068">
        <ele>1660</ele>
        <time>2021-09-20T08:37:22Z</time>
      </trkpt>
      <trkpt lat="44.70574" lon="5.99069">
        <ele>1660</ele>
        <time>2021-09-20T08:37:23Z</time>
      </trkpt>
      <trkpt lat="44.70574" lon="5.99069">
        <ele>1660</ele>
        <time>2021-09-20T08:37:24Z</time>
      </trkpt>
      <trkpt lat="44.70574" lon="5.9907">
        <ele>1660</ele>
        <time>2021-09-20T08:37:25Z</time>
      </trkpt>
      <trkpt lat="44.70574" lon="5.99071">
        <ele>1660</ele>
        <time>2021-09-20T08:37:26Z</time>
      </trkpt>
      <trkpt lat="44.70573" lon="5.99072">
        <ele>1661</ele>
        <time>2021-09-20T08:37:27Z</time>
      </trkpt>
      <trkpt lat="44.70573" lon="5.99073">
        <ele>1661</ele>
        <time>2021-09-20T08:37:28Z</time>
      </trkpt>
      <trkpt lat="44.70573" lon="5.99074">
        <ele>1661</ele>
        <time>2021-09-20T08:37:29Z</time>
      </trkpt>
      <trkpt lat="44.70573" lon="5.99075">
        <ele>1661</ele>
        <time>2021-09-20T08:37:30Z</time>
      </trkpt>
      <trkpt lat="44.70573" lon="5.99076">
        <ele>1661</ele>
        <time>2021-09-20T08:37:31Z</time>
      </trkpt>
      <trkpt lat="44.70572" lon="5.99077">
        <ele>1661</ele>
        <time>2021-09-20T08:37:32Z</time>
      </trkpt>
      <trkpt lat="44.70572" lon="5.99078">
        <ele>1661</ele>
        <time>2021-09-20T08:37:33Z</time>
      </trkpt>
      <trkpt lat="44.70572" lon="5.99079">
        <ele>1661</ele>
        <time>2021-09-20T08:37:34Z</time>
      </trkpt>
      <trkpt lat="44.70571" lon="5.9908">
        <ele>1661</ele>
        <time>2021-09-20T08:37:35Z</time>
      </trkpt>
      <trkpt lat="44.70571" lon="5.99081">
        <ele>1661</ele>
        <time>2021-09-20T08:37:36Z</time>
      </trkpt>
      <trkpt lat="44.7057" lon="5.99082">
        <ele>1662</ele>
        <time>2021-09-20T08:37:37Z</time>
      </trkpt>
      <trkpt lat="44.70569" lon="5.99082">
        <ele>1662</ele>
        <time>2021-09-20T08:37:38Z</time>
      </trkpt>
      <trkpt lat="44.70567" lon="5.99083">
        <ele>1662</ele>
        <time>2021-09-20T08:37:39Z</time>
      </trkpt>
      <trkpt lat="44.70567" lon="5.99084">
        <ele>1662</ele>
        <time>2021-09-20T08:37:40Z</time>
      </trkpt>
      <trkpt lat="44.70566" lon="5.99085">
        <ele>1662</ele>
        <time>2021-09-20T08:37:41Z</time>
      </trkpt>
      <trkpt lat="44.70566" lon="5.99085">
        <ele>1663</ele>
        <time>2021-09-20T08:37:42Z</time>
      </trkpt>
      <trkpt lat="44.70566" lon="5.99085">
        <ele>1663</ele>
        <time>2021-09-20T08:37:43Z</time>
      </trkpt>
      <trkpt lat="44.70566" lon="5.99086">
        <ele>1663</ele>
        <time>2021-09-20T08:37:44Z</time>
      </trkpt>
      <trkpt lat="44.70566" lon="5.99086">
        <ele>1663</ele>
        <time>2021-09-20T08:37:45Z</time>
      </trkpt>
      <trkpt lat="44.70566" lon="5.99087">
        <ele>1663</ele>
        <time>2021-09-20T08:37:46Z</time>
      </trkpt>
      <trkpt lat="44.70566" lon="5.99088">
        <ele>1664</ele>
        <time>2021-09-20T08:37:47Z</time>
      </trkpt>
      <trkpt lat="44.70566" lon="5.99089">
        <ele>1664</ele>
        <time>2021-09-20T08:37:48Z</time>
      </trkpt>
      <trkpt lat="44.70565" lon="5.99089">
        <ele>1664</ele>
        <time>2021-09-20T08:37:49Z</time>
      </trkpt>
      <trkpt lat="44.70565" lon="5.9909">
        <ele>1664</ele>
        <time>2021-09-20T08:37:50Z</time>
      </trkpt>
      <trkpt lat="44.70564" lon="5.99091">
        <ele>1664</ele>
        <time>2021-09-20T08:37:51Z</time>
      </trkpt>
      <trkpt lat="44.70563" lon="5.99092">
        <ele>1665</ele>
        <time>2021-09-20T08:37:52Z</time>
      </trkpt>
      <trkpt lat="44.70563" lon="5.99093">
        <ele>1665</ele>
        <time>2021-09-20T08:37:53Z</time>
      </trkpt>
      <trkpt lat="44.70563" lon="5.99094">
        <ele>1665</ele>
        <time>2021-09-20T08:37:54Z</time>
      </trkpt>
      <trkpt lat="44.70563" lon="5.99095">
        <ele>1665</ele>
        <time>2021-09-20T08:37:55Z</time>
      </trkpt>
      <trkpt lat="44.70563" lon="5.99095">
        <ele>1665</ele>
        <time>2021-09-20T08:37:56Z</time>
      </trkpt>
      <trkpt lat="44.70563" lon="5.99096">
        <ele>1665</ele>
        <time>2021-09-20T08:37:57Z</time>
      </trkpt>
      <trkpt lat="44.70563" lon="5.99097">
        <ele>1665</ele>
        <time>2021-09-20T08:37:58Z</time>
      </trkpt>
      <trkpt lat="44.70563" lon="5.99098">
        <ele>1665</ele>
        <time>2021-09-20T08:37:59Z</time>
      </trkpt>
      <trkpt lat="44.70563" lon="5.99099">
        <ele>1665</ele>
        <time>2021-09-20T08:38:00Z</time>
      </trkpt>
      <trkpt lat="44.70563" lon="5.991">
        <ele>1665</ele>
        <time>2021-09-20T08:38:01Z</time>
      </trkpt>
      <trkpt lat="44.70563" lon="5.99101">
        <ele>1666</ele>
        <time>2021-09-20T08:38:02Z</time>
      </trkpt>
      <trkpt lat="44.70563" lon="5.99103">
        <ele>1667</ele>
        <time>2021-09-20T08:38:12Z</time>
      </trkpt>
      <trkpt lat="44.70563" lon="5.99103">
        <ele>1667</ele>
        <time>2021-09-20T08:38:13Z</time>
      </trkpt>
      <trkpt lat="44.70562" lon="5.99103">
        <ele>1667</ele>
        <time>2021-09-20T08:38:14Z</time>
      </trkpt>
      <trkpt lat="44.70562" lon="5.99103">
        <ele>1668</ele>
        <time>2021-09-20T08:38:24Z</time>
      </trkpt>
      <trkpt lat="44.70561" lon="5.99104">
        <ele>1668</ele>
        <time>2021-09-20T08:38:25Z</time>
      </trkpt>
      <trkpt lat="44.70561" lon="5.99104">
        <ele>1668</ele>
        <time>2021-09-20T08:38:26Z</time>
      </trkpt>
      <trkpt lat="44.7056" lon="5.99104">
        <ele>1668</ele>
        <time>2021-09-20T08:38:27Z</time>
      </trkpt>
      <trkpt lat="44.7056" lon="5.99104">
        <ele>1668</ele>
        <time>2021-09-20T08:38:28Z</time>
      </trkpt>
      <trkpt lat="44.7056" lon="5.99104">
        <ele>1668</ele>
        <time>2021-09-20T08:38:29Z</time>
      </trkpt>
      <trkpt lat="44.70559" lon="5.99103">
        <ele>1668</ele>
        <time>2021-09-20T08:39:01Z</time>
      </trkpt>
      <trkpt lat="44.70559" lon="5.99102">
        <ele>1668</ele>
        <time>2021-09-20T08:39:02Z</time>
      </trkpt>
      <trkpt lat="44.70558" lon="5.99102">
        <ele>1668</ele>
        <time>2021-09-20T08:39:03Z</time>
      </trkpt>
      <trkpt lat="44.70558" lon="5.99101">
        <ele>1668</ele>
        <time>2021-09-20T08:39:04Z</time>
      </trkpt>
      <trkpt lat="44.70558" lon="5.991">
        <ele>1668</ele>
        <time>2021-09-20T08:39:05Z</time>
      </trkpt>
      <trkpt lat="44.70558" lon="5.99099">
        <ele>1668</ele>
        <time>2021-09-20T08:39:06Z</time>
      </trkpt>
      <trkpt lat="44.70558" lon="5.99098">
        <ele>1668</ele>
        <time>2021-09-20T08:39:07Z</time>
      </trkpt>
      <trkpt lat="44.70558" lon="5.99097">
        <ele>1668</ele>
        <time>2021-09-20T08:39:08Z</time>
      </trkpt>
      <trkpt lat="44.70558" lon="5.99096">
        <ele>1668</ele>
        <time>2021-09-20T08:39:09Z</time>
      </trkpt>
      <trkpt lat="44.70558" lon="5.99094">
        <ele>1668</ele>
        <time>2021-09-20T08:39:19Z</time>
      </trkpt>
      <trkpt lat="44.70558" lon="5.99093">
        <ele>1668</ele>
        <time>2021-09-20T08:39:20Z</time>
      </trkpt>
      <trkpt lat="44.70558" lon="5.99092">
        <ele>1668</ele>
        <time>2021-09-20T08:39:21Z</time>
      </trkpt>
      <trkpt lat="44.70559" lon="5.99092">
        <ele>1668</ele>
        <time>2021-09-20T08:39:22Z</time>
      </trkpt>
      <trkpt lat="44.70559" lon="5.99091">
        <ele>1668</ele>
        <time>2021-09-20T08:39:23Z</time>
      </trkpt>
      <trkpt lat="44.70559" lon="5.99095">
        <ele>1667</ele>
        <time>2021-09-20T08:40:21Z</time>
      </trkpt>
      <trkpt lat="44.70559" lon="5.99097">
        <ele>1668</ele>
        <time>2021-09-20T08:40:22Z</time>
      </trkpt>
      <trkpt lat="44.70559" lon="5.99099">
        <ele>1668</ele>
        <time>2021-09-20T08:40:23Z</time>
      </trkpt>
      <trkpt lat="44.70559" lon="5.991">
        <ele>1667</ele>
        <time>2021-09-20T08:41:35Z</time>
      </trkpt>
      <trkpt lat="44.7056" lon="5.991">
        <ele>1667</ele>
        <time>2021-09-20T08:41:36Z</time>
      </trkpt>
      <trkpt lat="44.7056" lon="5.99101">
        <ele>1667</ele>
        <time>2021-09-20T08:41:37Z</time>
      </trkpt>
      <trkpt lat="44.7056" lon="5.99101">
        <ele>1667</ele>
        <time>2021-09-20T08:41:53Z</time>
      </trkpt>
      <trkpt lat="44.7056" lon="5.99101">
        <ele>1667</ele>
        <time>2021-09-20T08:41:54Z</time>
      </trkpt>
      <trkpt lat="44.70561" lon="5.99102">
        <ele>1667</ele>
        <time>2021-09-20T08:41:55Z</time>
      </trkpt>
      <trkpt lat="44.70561" lon="5.99102">
        <ele>1667</ele>
        <time>2021-09-20T08:41:56Z</time>
      </trkpt>
      <trkpt lat="44.70561" lon="5.99101">
        <ele>1667</ele>
        <time>2021-09-20T08:41:57Z</time>
      </trkpt>
      <trkpt lat="44.70561" lon="5.99101">
        <ele>1667</ele>
        <time>2021-09-20T08:41:58Z</time>
      </trkpt>
      <trkpt lat="44.70561" lon="5.99101">
        <ele>1667</ele>
        <time>2021-09-20T08:41:59Z</time>
      </trkpt>
      <trkpt lat="44.7056" lon="5.99102">
        <ele>1667</ele>
        <time>2021-09-20T08:42:00Z</time>
      </trkpt>
      <trkpt lat="44.7056" lon="5.99102">
        <ele>1667</ele>
        <time>2021-09-20T08:42:01Z</time>
      </trkpt>
      <trkpt lat="44.70559" lon="5.99102">
        <ele>1668</ele>
        <time>2021-09-20T08:42:36Z</time>
      </trkpt>
      <trkpt lat="44.70559" lon="5.99102">
        <ele>1668</ele>
        <time>2021-09-20T08:42:37Z</time>
      </trkpt>
      <trkpt lat="44.70558" lon="5.99101">
        <ele>1668</ele>
        <time>2021-09-20T08:42:38Z</time>
      </trkpt>
      <trkpt lat="44.70558" lon="5.99101">
        <ele>1668</ele>
        <time>2021-09-20T08:42:39Z</time>
      </trkpt>
      <trkpt lat="44.70558" lon="5.991">
        <ele>1668</ele>
        <time>2021-09-20T08:42:40Z</time>
      </trkpt>
      <trkpt lat="44.70558" lon="5.991">
        <ele>1668</ele>
        <time>2021-09-20T08:42:41Z</time>
      </trkpt>
      <trkpt lat="44.70558" lon="5.99099">
        <ele>1668</ele>
        <time>2021-09-20T08:42:42Z</time>
      </trkpt>
      <trkpt lat="44.70558" lon="5.991">
        <ele>1668</ele>
        <time>2021-09-20T08:42:43Z</time>
      </trkpt>
      <trkpt lat="44.70558" lon="5.991">
        <ele>1668</ele>
        <time>2021-09-20T08:42:44Z</time>
      </trkpt>
      <trkpt lat="44.70558" lon="5.99102">
        <ele>1668</ele>
        <time>2021-09-20T08:43:03Z</time>
      </trkpt>
      <trkpt lat="44.70559" lon="5.99102">
        <ele>1668</ele>
        <time>2021-09-20T08:43:04Z</time>
      </trkpt>
      <trkpt lat="44.70559" lon="5.99103">
        <ele>1668</ele>
        <time>2021-09-20T08:43:05Z</time>
      </trkpt>
      <trkpt lat="44.70559" lon="5.99103">
        <ele>1668</ele>
        <time>2021-09-20T08:43:06Z</time>
      </trkpt>
      <trkpt lat="44.70559" lon="5.99103">
        <ele>1668</ele>
        <time>2021-09-20T08:43:07Z</time>
      </trkpt>
      <trkpt lat="44.70559" lon="5.99102">
        <ele>1668</ele>
        <time>2021-09-20T08:43:08Z</time>
      </trkpt>
      <trkpt lat="44.70559" lon="5.99103">
        <ele>1668</ele>
        <time>2021-09-20T08:43:09Z</time>
      </trkpt>
      <trkpt lat="44.70559" lon="5.99103">
        <ele>1668</ele>
        <time>2021-09-20T08:43:10Z</time>
      </trkpt>
      <trkpt lat="44.70559" lon="5.99102">
        <ele>1668</ele>
        <time>2021-09-20T08:43:27Z</time>
      </trkpt>
      <trkpt lat="44.70559" lon="5.99102">
        <ele>1668</ele>
        <time>2021-09-20T08:43:28Z</time>
      </trkpt>
      <trkpt lat="44.70559" lon="5.99101">
        <ele>1668</ele>
        <time>2021-09-20T08:43:29Z</time>
      </trkpt>
      <trkpt lat="44.70559" lon="5.99101">
        <ele>1668</ele>
        <time>2021-09-20T08:43:30Z</time>
      </trkpt>
      <trkpt lat="44.7056" lon="5.99101">
        <ele>1668</ele>
        <time>2021-09-20T08:43:31Z</time>
      </trkpt>
      <trkpt lat="44.7056" lon="5.99101">
        <ele>1668</ele>
        <time>2021-09-20T08:43:32Z</time>
      </trkpt>
      <trkpt lat="44.70561" lon="5.99101">
        <ele>1668</ele>
        <time>2021-09-20T08:43:33Z</time>
      </trkpt>
      <trkpt lat="44.70562" lon="5.99102">
        <ele>1668</ele>
        <time>2021-09-20T08:43:34Z</time>
      </trkpt>
      <trkpt lat="44.70562" lon="5.99102">
        <ele>1668</ele>
        <time>2021-09-20T08:43:35Z</time>
      </trkpt>
      <trkpt lat="44.70562" lon="5.99103">
        <ele>1668</ele>
        <time>2021-09-20T08:43:36Z</time>
      </trkpt>
      <trkpt lat="44.70563" lon="5.99104">
        <ele>1668</ele>
        <time>2021-09-20T08:43:37Z</time>
      </trkpt>
      <trkpt lat="44.70563" lon="5.99104">
        <ele>1667</ele>
        <time>2021-09-20T08:43:38Z</time>
      </trkpt>
      <trkpt lat="44.70563" lon="5.99104">
        <ele>1667</ele>
        <time>2021-09-20T08:43:39Z</time>
      </trkpt>
      <trkpt lat="44.70563" lon="5.99104">
        <ele>1667</ele>
        <time>2021-09-20T08:43:40Z</time>
      </trkpt>
      <trkpt lat="44.70564" lon="5.99104">
        <ele>1667</ele>
        <time>2021-09-20T08:43:41Z</time>
      </trkpt>
      <trkpt lat="44.70564" lon="5.99104">
        <ele>1667</ele>
        <time>2021-09-20T08:43:42Z</time>
      </trkpt>
      <trkpt lat="44.70564" lon="5.99104">
        <ele>1666</ele>
        <time>2021-09-20T08:43:43Z</time>
      </trkpt>
      <trkpt lat="44.70565" lon="5.99105">
        <ele>1666</ele>
        <time>2021-09-20T08:43:44Z</time>
      </trkpt>
      <trkpt lat="44.70566" lon="5.99105">
        <ele>1666</ele>
        <time>2021-09-20T08:43:45Z</time>
      </trkpt>
      <trkpt lat="44.70566" lon="5.99105">
        <ele>1666</ele>
        <time>2021-09-20T08:43:46Z</time>
      </trkpt>
      <trkpt lat="44.70567" lon="5.99105">
        <ele>1666</ele>
        <time>2021-09-20T08:43:47Z</time>
      </trkpt>
      <trkpt lat="44.70568" lon="5.99104">
        <ele>1666</ele>
        <time>2021-09-20T08:43:48Z</time>
      </trkpt>
      <trkpt lat="44.70567" lon="5.99102">
        <ele>1666</ele>
        <time>2021-09-20T08:43:59Z</time>
      </trkpt>
      <trkpt lat="44.70566" lon="5.99101">
        <ele>1666</ele>
        <time>2021-09-20T08:44:00Z</time>
      </trkpt>
      <trkpt lat="44.70565" lon="5.99101">
        <ele>1666</ele>
        <time>2021-09-20T08:44:01Z</time>
      </trkpt>
      <trkpt lat="44.70562" lon="5.99101">
        <ele>1665</ele>
        <time>2021-09-20T08:44:07Z</time>
      </trkpt>
      <trkpt lat="44.70561" lon="5.99101">
        <ele>1665</ele>
        <time>2021-09-20T08:44:08Z</time>
      </trkpt>
      <trkpt lat="44.7056" lon="5.99101">
        <ele>1665</ele>
        <time>2021-09-20T08:44:09Z</time>
      </trkpt>
      <trkpt lat="44.7056" lon="5.99102">
        <ele>1666</ele>
        <time>2021-09-20T08:44:23Z</time>
      </trkpt>
      <trkpt lat="44.7056" lon="5.99102">
        <ele>1666</ele>
        <time>2021-09-20T08:44:24Z</time>
      </trkpt>
      <trkpt lat="44.7056" lon="5.99103">
        <ele>1666</ele>
        <time>2021-09-20T08:44:25Z</time>
      </trkpt>
      <trkpt lat="44.7056" lon="5.99103">
        <ele>1668</ele>
        <time>2021-09-20T08:46:29Z</time>
      </trkpt>
      <trkpt lat="44.7056" lon="5.99103">
        <ele>1668</ele>
        <time>2021-09-20T08:46:30Z</time>
      </trkpt>
      <trkpt lat="44.70561" lon="5.99102">
        <ele>1668</ele>
        <time>2021-09-20T08:46:31Z</time>
      </trkpt>
      <trkpt lat="44.70561" lon="5.99102">
        <ele>1668</ele>
        <time>2021-09-20T08:46:32Z</time>
      </trkpt>
      <trkpt lat="44.70561" lon="5.99102">
        <ele>1668</ele>
        <time>2021-09-20T08:46:33Z</time>
      </trkpt>
      <trkpt lat="44.70561" lon="5.99102">
        <ele>1668</ele>
        <time>2021-09-20T08:46:34Z</time>
      </trkpt>
      <trkpt lat="44.70561" lon="5.99102">
        <ele>1668</ele>
        <time>2021-09-20T08:46:35Z</time>
      </trkpt>
      <trkpt lat="44.70561" lon="5.99101">
        <ele>1668</ele>
        <time>2021-09-20T08:46:36Z</time>
      </trkpt>
      <trkpt lat="44.70561" lon="5.99101">
        <ele>1668</ele>
        <time>2021-09-20T08:46:37Z</time>
      </trkpt>
      <trkpt lat="44.70561" lon="5.99101">
        <ele>1668</ele>
        <time>2021-09-20T08:46:38Z</time>
      </trkpt>
      <trkpt lat="44.7056" lon="5.99101">
        <ele>1668</ele>
        <time>2021-09-20T08:47:12Z</time>
      </trkpt>
      <trkpt lat="44.7056" lon="5.99101">
        <ele>1668</ele>
        <time>2021-09-20T08:47:13Z</time>
      </trkpt>
      <trkpt lat="44.70559" lon="5.991">
        <ele>1668</ele>
        <time>2021-09-20T08:47:14Z</time>
      </trkpt>
      <trkpt lat="44.70559" lon="5.99102">
        <ele>1667</ele>
        <time>2021-09-20T08:49:00Z</time>
      </trkpt>
      <trkpt lat="44.70559" lon="5.99103">
        <ele>1667</ele>
        <time>2021-09-20T08:49:01Z</time>
      </trkpt>
      <trkpt lat="44.70559" lon="5.99104">
        <ele>1667</ele>
        <time>2021-09-20T08:49:02Z</time>
      </trkpt>
      <trkpt lat="44.70557" lon="5.99103">
        <ele>1667</ele>
        <time>2021-09-20T08:49:31Z</time>
      </trkpt>
      <trkpt lat="44.70557" lon="5.99102">
        <ele>1667</ele>
        <time>2021-09-20T08:49:32Z</time>
      </trkpt>
      <trkpt lat="44.70556" lon="5.99102">
        <ele>1667</ele>
        <time>2021-09-20T08:49:33Z</time>
      </trkpt>
      <trkpt lat="44.70556" lon="5.99102">
        <ele>1667</ele>
        <time>2021-09-20T08:51:35Z</time>
      </trkpt>
      <trkpt lat="44.70555" lon="5.99102">
        <ele>1667</ele>
        <time>2021-09-20T08:51:36Z</time>
      </trkpt>
      <trkpt lat="44.70555" lon="5.99102">
        <ele>1668</ele>
        <time>2021-09-20T08:51:37Z</time>
      </trkpt>
      <trkpt lat="44.70555" lon="5.99102">
        <ele>1668</ele>
        <time>2021-09-20T08:51:38Z</time>
      </trkpt>
      <trkpt lat="44.70554" lon="5.99103">
        <ele>1668</ele>
        <time>2021-09-20T08:51:39Z</time>
      </trkpt>
      <trkpt lat="44.70554" lon="5.99103">
        <ele>1668</ele>
        <time>2021-09-20T08:51:40Z</time>
      </trkpt>
      <trkpt lat="44.70553" lon="5.99103">
        <ele>1668</ele>
        <time>2021-09-20T08:51:41Z</time>
      </trkpt>
      <trkpt lat="44.70553" lon="5.99104">
        <ele>1668</ele>
        <time>2021-09-20T08:51:42Z</time>
      </trkpt>
      <trkpt lat="44.70552" lon="5.99104">
        <ele>1668</ele>
        <time>2021-09-20T08:51:43Z</time>
      </trkpt>
      <trkpt lat="44.70551" lon="5.99105">
        <ele>1668</ele>
        <time>2021-09-20T08:51:44Z</time>
      </trkpt>
      <trkpt lat="44.7055" lon="5.99105">
        <ele>1668</ele>
        <time>2021-09-20T08:51:45Z</time>
      </trkpt>
      <trkpt lat="44.7055" lon="5.99106">
        <ele>1668</ele>
        <time>2021-09-20T08:51:46Z</time>
      </trkpt>
      <trkpt lat="44.70549" lon="5.99106">
        <ele>1668</ele>
        <time>2021-09-20T08:51:47Z</time>
      </trkpt>
      <trkpt lat="44.70548" lon="5.99107">
        <ele>1668</ele>
        <time>2021-09-20T08:51:48Z</time>
      </trkpt>
      <trkpt lat="44.70547" lon="5.99107">
        <ele>1668</ele>
        <time>2021-09-20T08:51:49Z</time>
      </trkpt>
      <trkpt lat="44.70546" lon="5.99108">
        <ele>1668</ele>
        <time>2021-09-20T08:51:50Z</time>
      </trkpt>
      <trkpt lat="44.70546" lon="5.99108">
        <ele>1668</ele>
        <time>2021-09-20T08:51:51Z</time>
      </trkpt>
      <trkpt lat="44.70545" lon="5.99109">
        <ele>1669</ele>
        <time>2021-09-20T08:51:52Z</time>
      </trkpt>
      <trkpt lat="44.70544" lon="5.99109">
        <ele>1669</ele>
        <time>2021-09-20T08:51:53Z</time>
      </trkpt>
      <trkpt lat="44.70543" lon="5.9911">
        <ele>1670</ele>
        <time>2021-09-20T08:52:02Z</time>
      </trkpt>
      <trkpt lat="44.70543" lon="5.9911">
        <ele>1670</ele>
        <time>2021-09-20T08:52:03Z</time>
      </trkpt>
      <trkpt lat="44.70542" lon="5.9911">
        <ele>1670</ele>
        <time>2021-09-20T08:52:04Z</time>
      </trkpt>
      <trkpt lat="44.70542" lon="5.9911">
        <ele>1670</ele>
        <time>2021-09-20T08:52:05Z</time>
      </trkpt>
      <trkpt lat="44.70541" lon="5.9911">
        <ele>1670</ele>
        <time>2021-09-20T08:52:06Z</time>
      </trkpt>
      <trkpt lat="44.70541" lon="5.9911">
        <ele>1671</ele>
        <time>2021-09-20T08:52:07Z</time>
      </trkpt>
      <trkpt lat="44.70541" lon="5.99111">
        <ele>1671</ele>
        <time>2021-09-20T08:52:08Z</time>
      </trkpt>
      <trkpt lat="44.70541" lon="5.99111">
        <ele>1671</ele>
        <time>2021-09-20T08:52:09Z</time>
      </trkpt>
      <trkpt lat="44.7054" lon="5.99111">
        <ele>1671</ele>
        <time>2021-09-20T08:52:10Z</time>
      </trkpt>
      <trkpt lat="44.70539" lon="5.99111">
        <ele>1671</ele>
        <time>2021-09-20T08:52:11Z</time>
      </trkpt>
      <trkpt lat="44.70539" lon="5.99111">
        <ele>1671</ele>
        <time>2021-09-20T08:52:12Z</time>
      </trkpt>
      <trkpt lat="44.70538" lon="5.99111">
        <ele>1671</ele>
        <time>2021-09-20T08:52:13Z</time>
      </trkpt>
      <trkpt lat="44.70537" lon="5.99111">
        <ele>1671</ele>
        <time>2021-09-20T08:52:14Z</time>
      </trkpt>
      <trkpt lat="44.70537" lon="5.99111">
        <ele>1671</ele>
        <time>2021-09-20T08:52:15Z</time>
      </trkpt>
      <trkpt lat="44.70536" lon="5.99112">
        <ele>1671</ele>
        <time>2021-09-20T08:52:16Z</time>
      </trkpt>
      <trkpt lat="44.70535" lon="5.99113">
        <ele>1671</ele>
        <time>2021-09-20T08:52:17Z</time>
      </trkpt>
      <trkpt lat="44.70534" lon="5.99113">
        <ele>1671</ele>
        <time>2021-09-20T08:52:18Z</time>
      </trkpt>
      <trkpt lat="44.70534" lon="5.99114">
        <ele>1671</ele>
        <time>2021-09-20T08:52:19Z</time>
      </trkpt>
      <trkpt lat="44.70533" lon="5.99114">
        <ele>1671</ele>
        <time>2021-09-20T08:52:20Z</time>
      </trkpt>
      <trkpt lat="44.70532" lon="5.99114">
        <ele>1671</ele>
        <time>2021-09-20T08:52:21Z</time>
      </trkpt>
      <trkpt lat="44.70531" lon="5.99114">
        <ele>1672</ele>
        <time>2021-09-20T08:52:22Z</time>
      </trkpt>
      <trkpt lat="44.70531" lon="5.99114">
        <ele>1672</ele>
        <time>2021-09-20T08:52:23Z</time>
      </trkpt>
      <trkpt lat="44.7053" lon="5.99114">
        <ele>1672</ele>
        <time>2021-09-20T08:52:24Z</time>
      </trkpt>
      <trkpt lat="44.7053" lon="5.99114">
        <ele>1672</ele>
        <time>2021-09-20T08:52:25Z</time>
      </trkpt>
      <trkpt lat="44.70529" lon="5.99114">
        <ele>1672</ele>
        <time>2021-09-20T08:52:26Z</time>
      </trkpt>
      <trkpt lat="44.70529" lon="5.99114">
        <ele>1673</ele>
        <time>2021-09-20T08:52:27Z</time>
      </trkpt>
      <trkpt lat="44.70528" lon="5.99115">
        <ele>1673</ele>
        <time>2021-09-20T08:52:28Z</time>
      </trkpt>
      <trkpt lat="44.70527" lon="5.99115">
        <ele>1673</ele>
        <time>2021-09-20T08:52:29Z</time>
      </trkpt>
      <trkpt lat="44.70527" lon="5.99115">
        <ele>1673</ele>
        <time>2021-09-20T08:52:30Z</time>
      </trkpt>
      <trkpt lat="44.70526" lon="5.99115">
        <ele>1673</ele>
        <time>2021-09-20T08:52:31Z</time>
      </trkpt>
      <trkpt lat="44.70525" lon="5.99116">
        <ele>1674</ele>
        <time>2021-09-20T08:52:32Z</time>
      </trkpt>
      <trkpt lat="44.70524" lon="5.99116">
        <ele>1674</ele>
        <time>2021-09-20T08:52:33Z</time>
      </trkpt>
      <trkpt lat="44.70524" lon="5.99116">
        <ele>1674</ele>
        <time>2021-09-20T08:52:34Z</time>
      </trkpt>
      <trkpt lat="44.70523" lon="5.99115">
        <ele>1674</ele>
        <time>2021-09-20T08:52:35Z</time>
      </trkpt>
      <trkpt lat="44.70523" lon="5.99115">
        <ele>1674</ele>
        <time>2021-09-20T08:52:36Z</time>
      </trkpt>
      <trkpt lat="44.70523" lon="5.99114">
        <ele>1674</ele>
        <time>2021-09-20T08:52:37Z</time>
      </trkpt>
      <trkpt lat="44.70523" lon="5.99113">
        <ele>1674</ele>
        <time>2021-09-20T08:52:38Z</time>
      </trkpt>
      <trkpt lat="44.70524" lon="5.99112">
        <ele>1674</ele>
        <time>2021-09-20T08:52:39Z</time>
      </trkpt>
      <trkpt lat="44.70524" lon="5.99111">
        <ele>1674</ele>
        <time>2021-09-20T08:52:40Z</time>
      </trkpt>
      <trkpt lat="44.70524" lon="5.9911">
        <ele>1674</ele>
        <time>2021-09-20T08:52:41Z</time>
      </trkpt>
      <trkpt lat="44.70525" lon="5.9911">
        <ele>1675</ele>
        <time>2021-09-20T08:52:42Z</time>
      </trkpt>
      <trkpt lat="44.70525" lon="5.99109">
        <ele>1675</ele>
        <time>2021-09-20T08:52:43Z</time>
      </trkpt>
      <trkpt lat="44.70526" lon="5.99108">
        <ele>1675</ele>
        <time>2021-09-20T08:52:44Z</time>
      </trkpt>
      <trkpt lat="44.70526" lon="5.99107">
        <ele>1675</ele>
        <time>2021-09-20T08:52:45Z</time>
      </trkpt>
      <trkpt lat="44.70526" lon="5.99106">
        <ele>1675</ele>
        <time>2021-09-20T08:52:46Z</time>
      </trkpt>
      <trkpt lat="44.70527" lon="5.99105">
        <ele>1676</ele>
        <time>2021-09-20T08:52:47Z</time>
      </trkpt>
      <trkpt lat="44.70527" lon="5.99104">
        <ele>1676</ele>
        <time>2021-09-20T08:52:48Z</time>
      </trkpt>
      <trkpt lat="44.70528" lon="5.99103">
        <ele>1676</ele>
        <time>2021-09-20T08:52:49Z</time>
      </trkpt>
      <trkpt lat="44.70528" lon="5.99102">
        <ele>1676</ele>
        <time>2021-09-20T08:52:50Z</time>
      </trkpt>
      <trkpt lat="44.70528" lon="5.99101">
        <ele>1676</ele>
        <time>2021-09-20T08:52:51Z</time>
      </trkpt>
      <trkpt lat="44.70529" lon="5.991">
        <ele>1677</ele>
        <time>2021-09-20T08:52:52Z</time>
      </trkpt>
      <trkpt lat="44.70529" lon="5.99099">
        <ele>1677</ele>
        <time>2021-09-20T08:52:53Z</time>
      </trkpt>
      <trkpt lat="44.70529" lon="5.99097">
        <ele>1677</ele>
        <time>2021-09-20T08:52:59Z</time>
      </trkpt>
      <trkpt lat="44.70529" lon="5.99097">
        <ele>1677</ele>
        <time>2021-09-20T08:53:00Z</time>
      </trkpt>
      <trkpt lat="44.70528" lon="5.99097">
        <ele>1677</ele>
        <time>2021-09-20T08:53:01Z</time>
      </trkpt>
      <trkpt lat="44.70528" lon="5.99098">
        <ele>1678</ele>
        <time>2021-09-20T08:53:02Z</time>
      </trkpt>
      <trkpt lat="44.70527" lon="5.99098">
        <ele>1678</ele>
        <time>2021-09-20T08:53:03Z</time>
      </trkpt>
      <trkpt lat="44.70527" lon="5.99099">
        <ele>1678</ele>
        <time>2021-09-20T08:53:04Z</time>
      </trkpt>
      <trkpt lat="44.70526" lon="5.99099">
        <ele>1678</ele>
        <time>2021-09-20T08:53:05Z</time>
      </trkpt>
      <trkpt lat="44.70525" lon="5.991">
        <ele>1678</ele>
        <time>2021-09-20T08:53:06Z</time>
      </trkpt>
      <trkpt lat="44.70525" lon="5.99101">
        <ele>1679</ele>
        <time>2021-09-20T08:53:07Z</time>
      </trkpt>
      <trkpt lat="44.70524" lon="5.99102">
        <ele>1679</ele>
        <time>2021-09-20T08:53:08Z</time>
      </trkpt>
      <trkpt lat="44.70523" lon="5.99103">
        <ele>1679</ele>
        <time>2021-09-20T08:53:09Z</time>
      </trkpt>
      <trkpt lat="44.70522" lon="5.99103">
        <ele>1679</ele>
        <time>2021-09-20T08:53:10Z</time>
      </trkpt>
      <trkpt lat="44.70522" lon="5.99104">
        <ele>1679</ele>
        <time>2021-09-20T08:53:11Z</time>
      </trkpt>
      <trkpt lat="44.70521" lon="5.99104">
        <ele>1679</ele>
        <time>2021-09-20T08:53:12Z</time>
      </trkpt>
      <trkpt lat="44.7052" lon="5.99105">
        <ele>1679</ele>
        <time>2021-09-20T08:53:13Z</time>
      </trkpt>
      <trkpt lat="44.7052" lon="5.99105">
        <ele>1679</ele>
        <time>2021-09-20T08:53:14Z</time>
      </trkpt>
      <trkpt lat="44.70519" lon="5.99105">
        <ele>1679</ele>
        <time>2021-09-20T08:53:15Z</time>
      </trkpt>
      <trkpt lat="44.70519" lon="5.99106">
        <ele>1679</ele>
        <time>2021-09-20T08:53:16Z</time>
      </trkpt>
      <trkpt lat="44.70518" lon="5.99106">
        <ele>1680</ele>
        <time>2021-09-20T08:53:17Z</time>
      </trkpt>
      <trkpt lat="44.70517" lon="5.99107">
        <ele>1680</ele>
        <time>2021-09-20T08:53:18Z</time>
      </trkpt>
      <trkpt lat="44.70517" lon="5.99107">
        <ele>1680</ele>
        <time>2021-09-20T08:53:19Z</time>
      </trkpt>
      <trkpt lat="44.70516" lon="5.99107">
        <ele>1680</ele>
        <time>2021-09-20T08:53:20Z</time>
      </trkpt>
      <trkpt lat="44.70515" lon="5.99108">
        <ele>1680</ele>
        <time>2021-09-20T08:53:21Z</time>
      </trkpt>
      <trkpt lat="44.70514" lon="5.99108">
        <ele>1680</ele>
        <time>2021-09-20T08:53:22Z</time>
      </trkpt>
      <trkpt lat="44.70514" lon="5.99108">
        <ele>1680</ele>
        <time>2021-09-20T08:53:23Z</time>
      </trkpt>
      <trkpt lat="44.70513" lon="5.99109">
        <ele>1680</ele>
        <time>2021-09-20T08:53:24Z</time>
      </trkpt>
      <trkpt lat="44.70512" lon="5.99109">
        <ele>1680</ele>
        <time>2021-09-20T08:53:25Z</time>
      </trkpt>
      <trkpt lat="44.70512" lon="5.99109">
        <ele>1680</ele>
        <time>2021-09-20T08:53:26Z</time>
      </trkpt>
      <trkpt lat="44.70511" lon="5.99109">
        <ele>1681</ele>
        <time>2021-09-20T08:53:27Z</time>
      </trkpt>
      <trkpt lat="44.70511" lon="5.99109">
        <ele>1681</ele>
        <time>2021-09-20T08:53:28Z</time>
      </trkpt>
      <trkpt lat="44.7051" lon="5.99109">
        <ele>1681</ele>
        <time>2021-09-20T08:53:29Z</time>
      </trkpt>
      <trkpt lat="44.70509" lon="5.99109">
        <ele>1681</ele>
        <time>2021-09-20T08:53:30Z</time>
      </trkpt>
      <trkpt lat="44.70509" lon="5.99109">
        <ele>1681</ele>
        <time>2021-09-20T08:53:31Z</time>
      </trkpt>
      <trkpt lat="44.70508" lon="5.9911">
        <ele>1682</ele>
        <time>2021-09-20T08:53:32Z</time>
      </trkpt>
      <trkpt lat="44.70507" lon="5.9911">
        <ele>1682</ele>
        <time>2021-09-20T08:53:33Z</time>
      </trkpt>
      <trkpt lat="44.70506" lon="5.9911">
        <ele>1682</ele>
        <time>2021-09-20T08:53:34Z</time>
      </trkpt>
      <trkpt lat="44.70506" lon="5.9911">
        <ele>1682</ele>
        <time>2021-09-20T08:53:35Z</time>
      </trkpt>
      <trkpt lat="44.70505" lon="5.99111">
        <ele>1682</ele>
        <time>2021-09-20T08:53:36Z</time>
      </trkpt>
      <trkpt lat="44.70504" lon="5.99111">
        <ele>1682</ele>
        <time>2021-09-20T08:53:37Z</time>
      </trkpt>
      <trkpt lat="44.70503" lon="5.99112">
        <ele>1682</ele>
        <time>2021-09-20T08:53:38Z</time>
      </trkpt>
      <trkpt lat="44.70502" lon="5.99112">
        <ele>1682</ele>
        <time>2021-09-20T08:53:39Z</time>
      </trkpt>
      <trkpt lat="44.70501" lon="5.99112">
        <ele>1682</ele>
        <time>2021-09-20T08:53:40Z</time>
      </trkpt>
      <trkpt lat="44.70501" lon="5.99112">
        <ele>1682</ele>
        <time>2021-09-20T08:53:41Z</time>
      </trkpt>
      <trkpt lat="44.705" lon="5.99113">
        <ele>1683</ele>
        <time>2021-09-20T08:53:42Z</time>
      </trkpt>
      <trkpt lat="44.70499" lon="5.99113">
        <ele>1683</ele>
        <time>2021-09-20T08:53:43Z</time>
      </trkpt>
      <trkpt lat="44.70498" lon="5.99113">
        <ele>1683</ele>
        <time>2021-09-20T08:53:44Z</time>
      </trkpt>
      <trkpt lat="44.70498" lon="5.99114">
        <ele>1683</ele>
        <time>2021-09-20T08:53:45Z</time>
      </trkpt>
      <trkpt lat="44.70497" lon="5.99114">
        <ele>1683</ele>
        <time>2021-09-20T08:53:46Z</time>
      </trkpt>
      <trkpt lat="44.70496" lon="5.99114">
        <ele>1684</ele>
        <time>2021-09-20T08:53:47Z</time>
      </trkpt>
      <trkpt lat="44.70495" lon="5.99114">
        <ele>1684</ele>
        <time>2021-09-20T08:53:48Z</time>
      </trkpt>
      <trkpt lat="44.70495" lon="5.99115">
        <ele>1684</ele>
        <time>2021-09-20T08:53:49Z</time>
      </trkpt>
      <trkpt lat="44.70494" lon="5.99115">
        <ele>1684</ele>
        <time>2021-09-20T08:53:50Z</time>
      </trkpt>
      <trkpt lat="44.70493" lon="5.99115">
        <ele>1684</ele>
        <time>2021-09-20T08:53:51Z</time>
      </trkpt>
      <trkpt lat="44.70492" lon="5.99115">
        <ele>1685</ele>
        <time>2021-09-20T08:53:52Z</time>
      </trkpt>
      <trkpt lat="44.70492" lon="5.99115">
        <ele>1685</ele>
        <time>2021-09-20T08:53:53Z</time>
      </trkpt>
      <trkpt lat="44.70491" lon="5.99116">
        <ele>1685</ele>
        <time>2021-09-20T08:53:54Z</time>
      </trkpt>
      <trkpt lat="44.7049" lon="5.99116">
        <ele>1685</ele>
        <time>2021-09-20T08:53:55Z</time>
      </trkpt>
      <trkpt lat="44.7049" lon="5.99116">
        <ele>1685</ele>
        <time>2021-09-20T08:53:56Z</time>
      </trkpt>
      <trkpt lat="44.70489" lon="5.99117">
        <ele>1686</ele>
        <time>2021-09-20T08:53:57Z</time>
      </trkpt>
      <trkpt lat="44.70488" lon="5.99117">
        <ele>1686</ele>
        <time>2021-09-20T08:53:58Z</time>
      </trkpt>
      <trkpt lat="44.70487" lon="5.99117">
        <ele>1686</ele>
        <time>2021-09-20T08:53:59Z</time>
      </trkpt>
      <trkpt lat="44.70486" lon="5.99117">
        <ele>1686</ele>
        <time>2021-09-20T08:54:00Z</time>
      </trkpt>
      <trkpt lat="44.70486" lon="5.99117">
        <ele>1686</ele>
        <time>2021-09-20T08:54:01Z</time>
      </trkpt>
      <trkpt lat="44.70485" lon="5.99117">
        <ele>1686</ele>
        <time>2021-09-20T08:54:02Z</time>
      </trkpt>
      <trkpt lat="44.70484" lon="5.99117">
        <ele>1686</ele>
        <time>2021-09-20T08:54:03Z</time>
      </trkpt>
      <trkpt lat="44.70483" lon="5.99117">
        <ele>1686</ele>
        <time>2021-09-20T08:54:04Z</time>
      </trkpt>
      <trkpt lat="44.70482" lon="5.99117">
        <ele>1686</ele>
        <time>2021-09-20T08:54:05Z</time>
      </trkpt>
      <trkpt lat="44.70481" lon="5.99117">
        <ele>1686</ele>
        <time>2021-09-20T08:54:06Z</time>
      </trkpt>
      <trkpt lat="44.7048" lon="5.99117">
        <ele>1687</ele>
        <time>2021-09-20T08:54:07Z</time>
      </trkpt>
      <trkpt lat="44.70479" lon="5.99117">
        <ele>1687</ele>
        <time>2021-09-20T08:54:08Z</time>
      </trkpt>
      <trkpt lat="44.70479" lon="5.99117">
        <ele>1687</ele>
        <time>2021-09-20T08:54:09Z</time>
      </trkpt>
      <trkpt lat="44.70478" lon="5.99117">
        <ele>1687</ele>
        <time>2021-09-20T08:54:10Z</time>
      </trkpt>
      <trkpt lat="44.70477" lon="5.99116">
        <ele>1687</ele>
        <time>2021-09-20T08:54:11Z</time>
      </trkpt>
      <trkpt lat="44.70477" lon="5.99116">
        <ele>1687</ele>
        <time>2021-09-20T08:54:12Z</time>
      </trkpt>
      <trkpt lat="44.70476" lon="5.99116">
        <ele>1687</ele>
        <time>2021-09-20T08:54:13Z</time>
      </trkpt>
      <trkpt lat="44.70475" lon="5.99116">
        <ele>1687</ele>
        <time>2021-09-20T08:54:14Z</time>
      </trkpt>
      <trkpt lat="44.70474" lon="5.99116">
        <ele>1687</ele>
        <time>2021-09-20T08:54:15Z</time>
      </trkpt>
      <trkpt lat="44.70474" lon="5.99115">
        <ele>1687</ele>
        <time>2021-09-20T08:54:16Z</time>
      </trkpt>
      <trkpt lat="44.70473" lon="5.99115">
        <ele>1687</ele>
        <time>2021-09-20T08:54:17Z</time>
      </trkpt>
      <trkpt lat="44.70472" lon="5.99115">
        <ele>1687</ele>
        <time>2021-09-20T08:54:18Z</time>
      </trkpt>
      <trkpt lat="44.70471" lon="5.99114">
        <ele>1687</ele>
        <time>2021-09-20T08:54:19Z</time>
      </trkpt>
      <trkpt lat="44.70471" lon="5.99114">
        <ele>1687</ele>
        <time>2021-09-20T08:54:20Z</time>
      </trkpt>
      <trkpt lat="44.7047" lon="5.99113">
        <ele>1687</ele>
        <time>2021-09-20T08:54:21Z</time>
      </trkpt>
      <trkpt lat="44.70469" lon="5.99113">
        <ele>1688</ele>
        <time>2021-09-20T08:54:22Z</time>
      </trkpt>
      <trkpt lat="44.70469" lon="5.99113">
        <ele>1688</ele>
        <time>2021-09-20T08:54:23Z</time>
      </trkpt>
      <trkpt lat="44.70468" lon="5.99112">
        <ele>1688</ele>
        <time>2021-09-20T08:54:24Z</time>
      </trkpt>
      <trkpt lat="44.70467" lon="5.99112">
        <ele>1688</ele>
        <time>2021-09-20T08:54:25Z</time>
      </trkpt>
      <trkpt lat="44.70467" lon="5.99112">
        <ele>1688</ele>
        <time>2021-09-20T08:54:26Z</time>
      </trkpt>
      <trkpt lat="44.70466" lon="5.99112">
        <ele>1689</ele>
        <time>2021-09-20T08:54:27Z</time>
      </trkpt>
      <trkpt lat="44.70465" lon="5.99111">
        <ele>1689</ele>
        <time>2021-09-20T08:54:28Z</time>
      </trkpt>
      <trkpt lat="44.70465" lon="5.99111">
        <ele>1689</ele>
        <time>2021-09-20T08:54:29Z</time>
      </trkpt>
      <trkpt lat="44.70464" lon="5.99111">
        <ele>1689</ele>
        <time>2021-09-20T08:54:30Z</time>
      </trkpt>
      <trkpt lat="44.70463" lon="5.9911">
        <ele>1689</ele>
        <time>2021-09-20T08:54:31Z</time>
      </trkpt>
      <trkpt lat="44.70463" lon="5.9911">
        <ele>1690</ele>
        <time>2021-09-20T08:54:32Z</time>
      </trkpt>
      <trkpt lat="44.70462" lon="5.9911">
        <ele>1690</ele>
        <time>2021-09-20T08:54:33Z</time>
      </trkpt>
      <trkpt lat="44.70461" lon="5.99109">
        <ele>1690</ele>
        <time>2021-09-20T08:54:34Z</time>
      </trkpt>
      <trkpt lat="44.70461" lon="5.99109">
        <ele>1690</ele>
        <time>2021-09-20T08:54:35Z</time>
      </trkpt>
      <trkpt lat="44.7046" lon="5.99109">
        <ele>1690</ele>
        <time>2021-09-20T08:54:36Z</time>
      </trkpt>
      <trkpt lat="44.70459" lon="5.99109">
        <ele>1690</ele>
        <time>2021-09-20T08:54:37Z</time>
      </trkpt>
      <trkpt lat="44.70458" lon="5.99108">
        <ele>1690</ele>
        <time>2021-09-20T08:54:38Z</time>
      </trkpt>
      <trkpt lat="44.70458" lon="5.99108">
        <ele>1690</ele>
        <time>2021-09-20T08:54:39Z</time>
      </trkpt>
      <trkpt lat="44.70457" lon="5.99108">
        <ele>1690</ele>
        <time>2021-09-20T08:54:40Z</time>
      </trkpt>
      <trkpt lat="44.70457" lon="5.99108">
        <ele>1690</ele>
        <time>2021-09-20T08:54:41Z</time>
      </trkpt>
      <trkpt lat="44.70456" lon="5.99107">
        <ele>1691</ele>
        <time>2021-09-20T08:54:42Z</time>
      </trkpt>
      <trkpt lat="44.70455" lon="5.99107">
        <ele>1691</ele>
        <time>2021-09-20T08:54:43Z</time>
      </trkpt>
      <trkpt lat="44.70455" lon="5.99107">
        <ele>1691</ele>
        <time>2021-09-20T08:54:44Z</time>
      </trkpt>
      <trkpt lat="44.70454" lon="5.99106">
        <ele>1691</ele>
        <time>2021-09-20T08:54:45Z</time>
      </trkpt>
      <trkpt lat="44.70453" lon="5.99106">
        <ele>1691</ele>
        <time>2021-09-20T08:54:46Z</time>
      </trkpt>
      <trkpt lat="44.70453" lon="5.99106">
        <ele>1692</ele>
        <time>2021-09-20T08:54:47Z</time>
      </trkpt>
      <trkpt lat="44.70452" lon="5.99106">
        <ele>1692</ele>
        <time>2021-09-20T08:54:48Z</time>
      </trkpt>
      <trkpt lat="44.70452" lon="5.99106">
        <ele>1692</ele>
        <time>2021-09-20T08:54:49Z</time>
      </trkpt>
      <trkpt lat="44.70451" lon="5.99106">
        <ele>1692</ele>
        <time>2021-09-20T08:54:50Z</time>
      </trkpt>
      <trkpt lat="44.7045" lon="5.99106">
        <ele>1692</ele>
        <time>2021-09-20T08:54:51Z</time>
      </trkpt>
      <trkpt lat="44.7045" lon="5.99106">
        <ele>1693</ele>
        <time>2021-09-20T08:54:52Z</time>
      </trkpt>
      <trkpt lat="44.70449" lon="5.99106">
        <ele>1693</ele>
        <time>2021-09-20T08:54:53Z</time>
      </trkpt>
      <trkpt lat="44.70448" lon="5.99106">
        <ele>1693</ele>
        <time>2021-09-20T08:54:54Z</time>
      </trkpt>
      <trkpt lat="44.70448" lon="5.99106">
        <ele>1693</ele>
        <time>2021-09-20T08:54:55Z</time>
      </trkpt>
      <trkpt lat="44.70447" lon="5.99106">
        <ele>1693</ele>
        <time>2021-09-20T08:54:56Z</time>
      </trkpt>
      <trkpt lat="44.70447" lon="5.99106">
        <ele>1693</ele>
        <time>2021-09-20T08:54:57Z</time>
      </trkpt>
      <trkpt lat="44.70446" lon="5.99106">
        <ele>1693</ele>
        <time>2021-09-20T08:54:58Z</time>
      </trkpt>
      <trkpt lat="44.70446" lon="5.99106">
        <ele>1693</ele>
        <time>2021-09-20T08:54:59Z</time>
      </trkpt>
      <trkpt lat="44.70445" lon="5.99106">
        <ele>1693</ele>
        <time>2021-09-20T08:55:00Z</time>
      </trkpt>
      <trkpt lat="44.70445" lon="5.99106">
        <ele>1693</ele>
        <time>2021-09-20T08:55:01Z</time>
      </trkpt>
      <trkpt lat="44.70444" lon="5.99106">
        <ele>1694</ele>
        <time>2021-09-20T08:55:02Z</time>
      </trkpt>
      <trkpt lat="44.70443" lon="5.99107">
        <ele>1694</ele>
        <time>2021-09-20T08:55:03Z</time>
      </trkpt>
      <trkpt lat="44.70443" lon="5.99107">
        <ele>1694</ele>
        <time>2021-09-20T08:55:04Z</time>
      </trkpt>
      <trkpt lat="44.70442" lon="5.99107">
        <ele>1694</ele>
        <time>2021-09-20T08:55:05Z</time>
      </trkpt>
      <trkpt lat="44.70441" lon="5.99108">
        <ele>1694</ele>
        <time>2021-09-20T08:55:06Z</time>
      </trkpt>
      <trkpt lat="44.70441" lon="5.99108">
        <ele>1695</ele>
        <time>2021-09-20T08:55:07Z</time>
      </trkpt>
      <trkpt lat="44.7044" lon="5.99108">
        <ele>1695</ele>
        <time>2021-09-20T08:55:08Z</time>
      </trkpt>
      <trkpt lat="44.7044" lon="5.99108">
        <ele>1695</ele>
        <time>2021-09-20T08:55:09Z</time>
      </trkpt>
      <trkpt lat="44.70439" lon="5.99108">
        <ele>1695</ele>
        <time>2021-09-20T08:55:10Z</time>
      </trkpt>
      <trkpt lat="44.70438" lon="5.99108">
        <ele>1695</ele>
        <time>2021-09-20T08:55:11Z</time>
      </trkpt>
      <trkpt lat="44.70438" lon="5.99108">
        <ele>1696</ele>
        <time>2021-09-20T08:55:12Z</time>
      </trkpt>
      <trkpt lat="44.70437" lon="5.99109">
        <ele>1696</ele>
        <time>2021-09-20T08:55:13Z</time>
      </trkpt>
      <trkpt lat="44.70437" lon="5.99109">
        <ele>1696</ele>
        <time>2021-09-20T08:55:14Z</time>
      </trkpt>
      <trkpt lat="44.70436" lon="5.99109">
        <ele>1696</ele>
        <time>2021-09-20T08:55:15Z</time>
      </trkpt>
      <trkpt lat="44.70436" lon="5.9911">
        <ele>1696</ele>
        <time>2021-09-20T08:55:16Z</time>
      </trkpt>
      <trkpt lat="44.70435" lon="5.9911">
        <ele>1697</ele>
        <time>2021-09-20T08:55:17Z</time>
      </trkpt>
      <trkpt lat="44.70435" lon="5.99111">
        <ele>1697</ele>
        <time>2021-09-20T08:55:18Z</time>
      </trkpt>
      <trkpt lat="44.70434" lon="5.99111">
        <ele>1697</ele>
        <time>2021-09-20T08:55:19Z</time>
      </trkpt>
      <trkpt lat="44.70434" lon="5.99111">
        <ele>1697</ele>
        <time>2021-09-20T08:55:20Z</time>
      </trkpt>
      <trkpt lat="44.70433" lon="5.99112">
        <ele>1697</ele>
        <time>2021-09-20T08:55:21Z</time>
      </trkpt>
      <trkpt lat="44.70433" lon="5.99112">
        <ele>1698</ele>
        <time>2021-09-20T08:55:22Z</time>
      </trkpt>
      <trkpt lat="44.70432" lon="5.99112">
        <ele>1698</ele>
        <time>2021-09-20T08:55:23Z</time>
      </trkpt>
      <trkpt lat="44.70432" lon="5.99113">
        <ele>1698</ele>
        <time>2021-09-20T08:55:24Z</time>
      </trkpt>
      <trkpt lat="44.70431" lon="5.99113">
        <ele>1698</ele>
        <time>2021-09-20T08:55:25Z</time>
      </trkpt>
      <trkpt lat="44.70431" lon="5.99113">
        <ele>1698</ele>
        <time>2021-09-20T08:55:26Z</time>
      </trkpt>
      <trkpt lat="44.7043" lon="5.99114">
        <ele>1698</ele>
        <time>2021-09-20T08:55:27Z</time>
      </trkpt>
      <trkpt lat="44.7043" lon="5.99114">
        <ele>1698</ele>
        <time>2021-09-20T08:55:28Z</time>
      </trkpt>
      <trkpt lat="44.7043" lon="5.99114">
        <ele>1698</ele>
        <time>2021-09-20T08:55:29Z</time>
      </trkpt>
      <trkpt lat="44.70429" lon="5.99115">
        <ele>1699</ele>
        <time>2021-09-20T08:55:30Z</time>
      </trkpt>
      <trkpt lat="44.70429" lon="5.99115">
        <ele>1699</ele>
        <time>2021-09-20T08:55:31Z</time>
      </trkpt>
      <trkpt lat="44.70429" lon="5.99115">
        <ele>1700</ele>
        <time>2021-09-20T08:55:32Z</time>
      </trkpt>
      <trkpt lat="44.70428" lon="5.99116">
        <ele>1700</ele>
        <time>2021-09-20T08:55:33Z</time>
      </trkpt>
      <trkpt lat="44.70428" lon="5.99117">
        <ele>1700</ele>
        <time>2021-09-20T08:55:34Z</time>
      </trkpt>
      <trkpt lat="44.70428" lon="5.99117">
        <ele>1700</ele>
        <time>2021-09-20T08:55:35Z</time>
      </trkpt>
      <trkpt lat="44.70427" lon="5.99118">
        <ele>1700</ele>
        <time>2021-09-20T08:55:36Z</time>
      </trkpt>
      <trkpt lat="44.70427" lon="5.99118">
        <ele>1701</ele>
        <time>2021-09-20T08:55:37Z</time>
      </trkpt>
      <trkpt lat="44.70427" lon="5.99118">
        <ele>1701</ele>
        <time>2021-09-20T08:55:38Z</time>
      </trkpt>
      <trkpt lat="44.70427" lon="5.99118">
        <ele>1701</ele>
        <time>2021-09-20T08:55:39Z</time>
      </trkpt>
      <trkpt lat="44.70426" lon="5.99119">
        <ele>1701</ele>
        <time>2021-09-20T08:55:40Z</time>
      </trkpt>
      <trkpt lat="44.70425" lon="5.99119">
        <ele>1701</ele>
        <time>2021-09-20T08:55:41Z</time>
      </trkpt>
      <trkpt lat="44.70425" lon="5.99119">
        <ele>1701</ele>
        <time>2021-09-20T08:55:42Z</time>
      </trkpt>
      <trkpt lat="44.70424" lon="5.99119">
        <ele>1701</ele>
        <time>2021-09-20T08:55:43Z</time>
      </trkpt>
      <trkpt lat="44.70424" lon="5.99118">
        <ele>1701</ele>
        <time>2021-09-20T08:55:44Z</time>
      </trkpt>
      <trkpt lat="44.70423" lon="5.99117">
        <ele>1701</ele>
        <time>2021-09-20T08:55:45Z</time>
      </trkpt>
      <trkpt lat="44.70423" lon="5.99116">
        <ele>1701</ele>
        <time>2021-09-20T08:55:46Z</time>
      </trkpt>
      <trkpt lat="44.70422" lon="5.99115">
        <ele>1701</ele>
        <time>2021-09-20T08:55:47Z</time>
      </trkpt>
      <trkpt lat="44.70422" lon="5.99114">
        <ele>1701</ele>
        <time>2021-09-20T08:55:48Z</time>
      </trkpt>
      <trkpt lat="44.70421" lon="5.99114">
        <ele>1701</ele>
        <time>2021-09-20T08:55:49Z</time>
      </trkpt>
      <trkpt lat="44.70421" lon="5.99113">
        <ele>1701</ele>
        <time>2021-09-20T08:55:50Z</time>
      </trkpt>
      <trkpt lat="44.70421" lon="5.99112">
        <ele>1701</ele>
        <time>2021-09-20T08:55:51Z</time>
      </trkpt>
      <trkpt lat="44.70421" lon="5.9911">
        <ele>1702</ele>
        <time>2021-09-20T08:55:52Z</time>
      </trkpt>
      <trkpt lat="44.70421" lon="5.99109">
        <ele>1702</ele>
        <time>2021-09-20T08:55:53Z</time>
      </trkpt>
      <trkpt lat="44.70421" lon="5.99108">
        <ele>1702</ele>
        <time>2021-09-20T08:55:54Z</time>
      </trkpt>
      <trkpt lat="44.70421" lon="5.99107">
        <ele>1702</ele>
        <time>2021-09-20T08:55:55Z</time>
      </trkpt>
      <trkpt lat="44.70421" lon="5.99107">
        <ele>1702</ele>
        <time>2021-09-20T08:55:56Z</time>
      </trkpt>
      <trkpt lat="44.70422" lon="5.99106">
        <ele>1703</ele>
        <time>2021-09-20T08:55:57Z</time>
      </trkpt>
      <trkpt lat="44.70422" lon="5.99105">
        <ele>1703</ele>
        <time>2021-09-20T08:55:58Z</time>
      </trkpt>
      <trkpt lat="44.70423" lon="5.99104">
        <ele>1703</ele>
        <time>2021-09-20T08:55:59Z</time>
      </trkpt>
      <trkpt lat="44.70424" lon="5.99103">
        <ele>1703</ele>
        <time>2021-09-20T08:56:00Z</time>
      </trkpt>
      <trkpt lat="44.70424" lon="5.99103">
        <ele>1703</ele>
        <time>2021-09-20T08:56:01Z</time>
      </trkpt>
      <trkpt lat="44.70424" lon="5.99102">
        <ele>1703</ele>
        <time>2021-09-20T08:56:02Z</time>
      </trkpt>
      <trkpt lat="44.70425" lon="5.99101">
        <ele>1703</ele>
        <time>2021-09-20T08:56:03Z</time>
      </trkpt>
      <trkpt lat="44.70425" lon="5.991">
        <ele>1703</ele>
        <time>2021-09-20T08:56:04Z</time>
      </trkpt>
      <trkpt lat="44.70425" lon="5.99099">
        <ele>1703</ele>
        <time>2021-09-20T08:56:05Z</time>
      </trkpt>
      <trkpt lat="44.70425" lon="5.99099">
        <ele>1703</ele>
        <time>2021-09-20T08:56:06Z</time>
      </trkpt>
      <trkpt lat="44.70425" lon="5.99099">
        <ele>1704</ele>
        <time>2021-09-20T08:56:07Z</time>
      </trkpt>
      <trkpt lat="44.70425" lon="5.99098">
        <ele>1704</ele>
        <time>2021-09-20T08:56:08Z</time>
      </trkpt>
      <trkpt lat="44.70425" lon="5.99098">
        <ele>1704</ele>
        <time>2021-09-20T08:56:09Z</time>
      </trkpt>
      <trkpt lat="44.70425" lon="5.99098">
        <ele>1704</ele>
        <time>2021-09-20T08:56:10Z</time>
      </trkpt>
      <trkpt lat="44.70425" lon="5.99098">
        <ele>1704</ele>
        <time>2021-09-20T08:56:11Z</time>
      </trkpt>
      <trkpt lat="44.70425" lon="5.99097">
        <ele>1705</ele>
        <time>2021-09-20T08:56:12Z</time>
      </trkpt>
      <trkpt lat="44.70424" lon="5.99097">
        <ele>1705</ele>
        <time>2021-09-20T08:56:13Z</time>
      </trkpt>
      <trkpt lat="44.70424" lon="5.99097">
        <ele>1705</ele>
        <time>2021-09-20T08:56:14Z</time>
      </trkpt>
      <trkpt lat="44.70423" lon="5.99098">
        <ele>1705</ele>
        <time>2021-09-20T08:56:15Z</time>
      </trkpt>
      <trkpt lat="44.70422" lon="5.99098">
        <ele>1705</ele>
        <time>2021-09-20T08:56:16Z</time>
      </trkpt>
      <trkpt lat="44.70422" lon="5.99098">
        <ele>1706</ele>
        <time>2021-09-20T08:56:17Z</time>
      </trkpt>
      <trkpt lat="44.70421" lon="5.99099">
        <ele>1706</ele>
        <time>2021-09-20T08:56:18Z</time>
      </trkpt>
      <trkpt lat="44.7042" lon="5.99099">
        <ele>1706</ele>
        <time>2021-09-20T08:56:19Z</time>
      </trkpt>
      <trkpt lat="44.70419" lon="5.99099">
        <ele>1706</ele>
        <time>2021-09-20T08:56:20Z</time>
      </trkpt>
      <trkpt lat="44.70418" lon="5.99099">
        <ele>1706</ele>
        <time>2021-09-20T08:56:21Z</time>
      </trkpt>
      <trkpt lat="44.70418" lon="5.99099">
        <ele>1706</ele>
        <time>2021-09-20T08:56:22Z</time>
      </trkpt>
      <trkpt lat="44.70417" lon="5.991">
        <ele>1706</ele>
        <time>2021-09-20T08:56:23Z</time>
      </trkpt>
      <trkpt lat="44.70416" lon="5.991">
        <ele>1706</ele>
        <time>2021-09-20T08:56:24Z</time>
      </trkpt>
      <trkpt lat="44.70416" lon="5.991">
        <ele>1706</ele>
        <time>2021-09-20T08:56:25Z</time>
      </trkpt>
      <trkpt lat="44.70415" lon="5.991">
        <ele>1706</ele>
        <time>2021-09-20T08:56:26Z</time>
      </trkpt>
      <trkpt lat="44.70414" lon="5.991">
        <ele>1707</ele>
        <time>2021-09-20T08:56:27Z</time>
      </trkpt>
      <trkpt lat="44.70413" lon="5.991">
        <ele>1707</ele>
        <time>2021-09-20T08:56:28Z</time>
      </trkpt>
      <trkpt lat="44.70412" lon="5.991">
        <ele>1707</ele>
        <time>2021-09-20T08:56:29Z</time>
      </trkpt>
      <trkpt lat="44.70411" lon="5.99101">
        <ele>1707</ele>
        <time>2021-09-20T08:56:30Z</time>
      </trkpt>
      <trkpt lat="44.70411" lon="5.99101">
        <ele>1707</ele>
        <time>2021-09-20T08:56:31Z</time>
      </trkpt>
      <trkpt lat="44.7041" lon="5.99101">
        <ele>1708</ele>
        <time>2021-09-20T08:56:32Z</time>
      </trkpt>
      <trkpt lat="44.70409" lon="5.99101">
        <ele>1708</ele>
        <time>2021-09-20T08:56:33Z</time>
      </trkpt>
      <trkpt lat="44.70408" lon="5.99101">
        <ele>1708</ele>
        <time>2021-09-20T08:56:34Z</time>
      </trkpt>
      <trkpt lat="44.70408" lon="5.99101">
        <ele>1708</ele>
        <time>2021-09-20T08:56:35Z</time>
      </trkpt>
      <trkpt lat="44.70407" lon="5.99101">
        <ele>1708</ele>
        <time>2021-09-20T08:56:36Z</time>
      </trkpt>
      <trkpt lat="44.70406" lon="5.99101">
        <ele>1709</ele>
        <time>2021-09-20T08:56:37Z</time>
      </trkpt>
      <trkpt lat="44.70405" lon="5.99102">
        <ele>1709</ele>
        <time>2021-09-20T08:56:38Z</time>
      </trkpt>
      <trkpt lat="44.70405" lon="5.99102">
        <ele>1709</ele>
        <time>2021-09-20T08:56:39Z</time>
      </trkpt>
      <trkpt lat="44.70404" lon="5.99102">
        <ele>1709</ele>
        <time>2021-09-20T08:56:40Z</time>
      </trkpt>
      <trkpt lat="44.70403" lon="5.99103">
        <ele>1709</ele>
        <time>2021-09-20T08:56:41Z</time>
      </trkpt>
      <trkpt lat="44.70402" lon="5.99103">
        <ele>1709</ele>
        <time>2021-09-20T08:56:42Z</time>
      </trkpt>
      <trkpt lat="44.70401" lon="5.99103">
        <ele>1709</ele>
        <time>2021-09-20T08:56:43Z</time>
      </trkpt>
      <trkpt lat="44.70401" lon="5.99104">
        <ele>1709</ele>
        <time>2021-09-20T08:56:44Z</time>
      </trkpt>
      <trkpt lat="44.704" lon="5.99104">
        <ele>1709</ele>
        <time>2021-09-20T08:56:45Z</time>
      </trkpt>
      <trkpt lat="44.70399" lon="5.99104">
        <ele>1709</ele>
        <time>2021-09-20T08:56:46Z</time>
      </trkpt>
      <trkpt lat="44.70399" lon="5.99104">
        <ele>1710</ele>
        <time>2021-09-20T08:56:47Z</time>
      </trkpt>
      <trkpt lat="44.70398" lon="5.99103">
        <ele>1710</ele>
        <time>2021-09-20T08:56:48Z</time>
      </trkpt>
      <trkpt lat="44.70398" lon="5.99103">
        <ele>1710</ele>
        <time>2021-09-20T08:56:49Z</time>
      </trkpt>
      <trkpt lat="44.70397" lon="5.99103">
        <ele>1710</ele>
        <time>2021-09-20T08:56:50Z</time>
      </trkpt>
      <trkpt lat="44.70396" lon="5.99103">
        <ele>1710</ele>
        <time>2021-09-20T08:56:51Z</time>
      </trkpt>
      <trkpt lat="44.70396" lon="5.99102">
        <ele>1711</ele>
        <time>2021-09-20T08:56:52Z</time>
      </trkpt>
      <trkpt lat="44.70395" lon="5.99102">
        <ele>1711</ele>
        <time>2021-09-20T08:56:53Z</time>
      </trkpt>
      <trkpt lat="44.70394" lon="5.99102">
        <ele>1711</ele>
        <time>2021-09-20T08:56:54Z</time>
      </trkpt>
      <trkpt lat="44.70393" lon="5.99102">
        <ele>1711</ele>
        <time>2021-09-20T08:56:55Z</time>
      </trkpt>
      <trkpt lat="44.70393" lon="5.99101">
        <ele>1711</ele>
        <time>2021-09-20T08:56:56Z</time>
      </trkpt>
      <trkpt lat="44.70392" lon="5.99101">
        <ele>1712</ele>
        <time>2021-09-20T08:56:57Z</time>
      </trkpt>
      <trkpt lat="44.70391" lon="5.991">
        <ele>1712</ele>
        <time>2021-09-20T08:56:58Z</time>
      </trkpt>
      <trkpt lat="44.7039" lon="5.991">
        <ele>1712</ele>
        <time>2021-09-20T08:56:59Z</time>
      </trkpt>
      <trkpt lat="44.7039" lon="5.991">
        <ele>1712</ele>
        <time>2021-09-20T08:57:00Z</time>
      </trkpt>
      <trkpt lat="44.7039" lon="5.991">
        <ele>1712</ele>
        <time>2021-09-20T08:57:01Z</time>
      </trkpt>
      <trkpt lat="44.7039" lon="5.991">
        <ele>1712</ele>
        <time>2021-09-20T08:57:02Z</time>
      </trkpt>
      <trkpt lat="44.7039" lon="5.991">
        <ele>1712</ele>
        <time>2021-09-20T08:57:03Z</time>
      </trkpt>
      <trkpt lat="44.70389" lon="5.991">
        <ele>1712</ele>
        <time>2021-09-20T08:57:04Z</time>
      </trkpt>
      <trkpt lat="44.70389" lon="5.991">
        <ele>1712</ele>
        <time>2021-09-20T08:57:05Z</time>
      </trkpt>
      <trkpt lat="44.70388" lon="5.99101">
        <ele>1712</ele>
        <time>2021-09-20T08:57:06Z</time>
      </trkpt>
      <trkpt lat="44.70388" lon="5.99104">
        <ele>1716</ele>
        <time>2021-09-20T08:58:20Z</time>
      </trkpt>
      <trkpt lat="44.70388" lon="5.99105">
        <ele>1716</ele>
        <time>2021-09-20T08:58:21Z</time>
      </trkpt>
      <trkpt lat="44.70388" lon="5.99107">
        <ele>1716</ele>
        <time>2021-09-20T08:58:22Z</time>
      </trkpt>
      <trkpt lat="44.70388" lon="5.99108">
        <ele>1716</ele>
        <time>2021-09-20T08:58:23Z</time>
      </trkpt>
      <trkpt lat="44.70388" lon="5.99109">
        <ele>1716</ele>
        <time>2021-09-20T08:58:24Z</time>
      </trkpt>
      <trkpt lat="44.70387" lon="5.9911">
        <ele>1716</ele>
        <time>2021-09-20T08:58:25Z</time>
      </trkpt>
      <trkpt lat="44.70387" lon="5.99112">
        <ele>1716</ele>
        <time>2021-09-20T08:58:26Z</time>
      </trkpt>
      <trkpt lat="44.70387" lon="5.99113">
        <ele>1716</ele>
        <time>2021-09-20T08:58:27Z</time>
      </trkpt>
      <trkpt lat="44.70387" lon="5.99114">
        <ele>1716</ele>
        <time>2021-09-20T08:58:28Z</time>
      </trkpt>
      <trkpt lat="44.70387" lon="5.99115">
        <ele>1716</ele>
        <time>2021-09-20T08:58:29Z</time>
      </trkpt>
      <trkpt lat="44.70387" lon="5.99116">
        <ele>1716</ele>
        <time>2021-09-20T08:58:30Z</time>
      </trkpt>
      <trkpt lat="44.70387" lon="5.99117">
        <ele>1716</ele>
        <time>2021-09-20T08:58:31Z</time>
      </trkpt>
      <trkpt lat="44.70387" lon="5.99118">
        <ele>1716</ele>
        <time>2021-09-20T08:58:32Z</time>
      </trkpt>
      <trkpt lat="44.70387" lon="5.9912">
        <ele>1716</ele>
        <time>2021-09-20T08:58:33Z</time>
      </trkpt>
      <trkpt lat="44.70387" lon="5.99121">
        <ele>1716</ele>
        <time>2021-09-20T08:58:34Z</time>
      </trkpt>
      <trkpt lat="44.70387" lon="5.99122">
        <ele>1716</ele>
        <time>2021-09-20T08:58:35Z</time>
      </trkpt>
      <trkpt lat="44.70387" lon="5.99123">
        <ele>1716</ele>
        <time>2021-09-20T08:58:36Z</time>
      </trkpt>
      <trkpt lat="44.70387" lon="5.99124">
        <ele>1716</ele>
        <time>2021-09-20T08:58:37Z</time>
      </trkpt>
      <trkpt lat="44.70387" lon="5.99124">
        <ele>1716</ele>
        <time>2021-09-20T08:58:38Z</time>
      </trkpt>
      <trkpt lat="44.70387" lon="5.99125">
        <ele>1716</ele>
        <time>2021-09-20T08:58:39Z</time>
      </trkpt>
      <trkpt lat="44.70387" lon="5.99126">
        <ele>1716</ele>
        <time>2021-09-20T08:58:40Z</time>
      </trkpt>
      <trkpt lat="44.70387" lon="5.99127">
        <ele>1716</ele>
        <time>2021-09-20T08:58:41Z</time>
      </trkpt>
      <trkpt lat="44.70387" lon="5.99127">
        <ele>1717</ele>
        <time>2021-09-20T08:58:42Z</time>
      </trkpt>
      <trkpt lat="44.70387" lon="5.99128">
        <ele>1717</ele>
        <time>2021-09-20T08:58:43Z</time>
      </trkpt>
      <trkpt lat="44.70387" lon="5.99128">
        <ele>1717</ele>
        <time>2021-09-20T08:58:44Z</time>
      </trkpt>
      <trkpt lat="44.70387" lon="5.99128">
        <ele>1717</ele>
        <time>2021-09-20T08:58:45Z</time>
      </trkpt>
      <trkpt lat="44.70387" lon="5.99129">
        <ele>1717</ele>
        <time>2021-09-20T08:58:46Z</time>
      </trkpt>
      <trkpt lat="44.70387" lon="5.99131">
        <ele>1718</ele>
        <time>2021-09-20T08:58:47Z</time>
      </trkpt>
      <trkpt lat="44.70387" lon="5.99132">
        <ele>1718</ele>
        <time>2021-09-20T08:58:48Z</time>
      </trkpt>
      <trkpt lat="44.70387" lon="5.99133">
        <ele>1718</ele>
        <time>2021-09-20T08:58:49Z</time>
      </trkpt>
      <trkpt lat="44.70388" lon="5.99134">
        <ele>1718</ele>
        <time>2021-09-20T08:58:50Z</time>
      </trkpt>
      <trkpt lat="44.70388" lon="5.99135">
        <ele>1718</ele>
        <time>2021-09-20T08:58:51Z</time>
      </trkpt>
      <trkpt lat="44.70388" lon="5.99136">
        <ele>1719</ele>
        <time>2021-09-20T08:58:52Z</time>
      </trkpt>
      <trkpt lat="44.70388" lon="5.99137">
        <ele>1719</ele>
        <time>2021-09-20T08:58:53Z</time>
      </trkpt>
      <trkpt lat="44.70389" lon="5.99138">
        <ele>1719</ele>
        <time>2021-09-20T08:58:54Z</time>
      </trkpt>
      <trkpt lat="44.70389" lon="5.99138">
        <ele>1719</ele>
        <time>2021-09-20T08:58:55Z</time>
      </trkpt>
      <trkpt lat="44.70388" lon="5.99139">
        <ele>1719</ele>
        <time>2021-09-20T08:58:56Z</time>
      </trkpt>
      <trkpt lat="44.70388" lon="5.9914">
        <ele>1720</ele>
        <time>2021-09-20T08:58:57Z</time>
      </trkpt>
      <trkpt lat="44.70388" lon="5.99141">
        <ele>1720</ele>
        <time>2021-09-20T08:58:58Z</time>
      </trkpt>
      <trkpt lat="44.70388" lon="5.99142">
        <ele>1720</ele>
        <time>2021-09-20T08:58:59Z</time>
      </trkpt>
      <trkpt lat="44.70388" lon="5.99142">
        <ele>1720</ele>
        <time>2021-09-20T08:59:00Z</time>
      </trkpt>
      <trkpt lat="44.70388" lon="5.99143">
        <ele>1720</ele>
        <time>2021-09-20T08:59:01Z</time>
      </trkpt>
      <trkpt lat="44.70388" lon="5.99144">
        <ele>1721</ele>
        <time>2021-09-20T08:59:02Z</time>
      </trkpt>
      <trkpt lat="44.70388" lon="5.99146">
        <ele>1723</ele>
        <time>2021-09-20T08:59:18Z</time>
      </trkpt>
      <trkpt lat="44.70388" lon="5.99147">
        <ele>1723</ele>
        <time>2021-09-20T08:59:19Z</time>
      </trkpt>
      <trkpt lat="44.70388" lon="5.99148">
        <ele>1723</ele>
        <time>2021-09-20T08:59:20Z</time>
      </trkpt>
      <trkpt lat="44.70387" lon="5.99149">
        <ele>1723</ele>
        <time>2021-09-20T08:59:21Z</time>
      </trkpt>
      <trkpt lat="44.70387" lon="5.99149">
        <ele>1724</ele>
        <time>2021-09-20T08:59:22Z</time>
      </trkpt>
      <trkpt lat="44.70387" lon="5.99149">
        <ele>1724</ele>
        <time>2021-09-20T08:59:23Z</time>
      </trkpt>
      <trkpt lat="44.70386" lon="5.9915">
        <ele>1724</ele>
        <time>2021-09-20T08:59:24Z</time>
      </trkpt>
      <trkpt lat="44.70385" lon="5.9915">
        <ele>1724</ele>
        <time>2021-09-20T08:59:25Z</time>
      </trkpt>
      <trkpt lat="44.70385" lon="5.9915">
        <ele>1724</ele>
        <time>2021-09-20T08:59:26Z</time>
      </trkpt>
      <trkpt lat="44.70384" lon="5.9915">
        <ele>1724</ele>
        <time>2021-09-20T08:59:27Z</time>
      </trkpt>
      <trkpt lat="44.70384" lon="5.9915">
        <ele>1724</ele>
        <time>2021-09-20T08:59:28Z</time>
      </trkpt>
      <trkpt lat="44.70383" lon="5.9915">
        <ele>1724</ele>
        <time>2021-09-20T08:59:29Z</time>
      </trkpt>
      <trkpt lat="44.70383" lon="5.99151">
        <ele>1724</ele>
        <time>2021-09-20T08:59:30Z</time>
      </trkpt>
      <trkpt lat="44.70382" lon="5.99151">
        <ele>1724</ele>
        <time>2021-09-20T08:59:31Z</time>
      </trkpt>
      <trkpt lat="44.70382" lon="5.99152">
        <ele>1724</ele>
        <time>2021-09-20T08:59:32Z</time>
      </trkpt>
      <trkpt lat="44.70381" lon="5.99152">
        <ele>1724</ele>
        <time>2021-09-20T08:59:33Z</time>
      </trkpt>
      <trkpt lat="44.70381" lon="5.99153">
        <ele>1724</ele>
        <time>2021-09-20T08:59:34Z</time>
      </trkpt>
      <trkpt lat="44.7038" lon="5.99154">
        <ele>1724</ele>
        <time>2021-09-20T08:59:35Z</time>
      </trkpt>
      <trkpt lat="44.7038" lon="5.99154">
        <ele>1724</ele>
        <time>2021-09-20T08:59:36Z</time>
      </trkpt>
      <trkpt lat="44.7038" lon="5.99155">
        <ele>1725</ele>
        <time>2021-09-20T08:59:37Z</time>
      </trkpt>
      <trkpt lat="44.7038" lon="5.99156">
        <ele>1725</ele>
        <time>2021-09-20T08:59:38Z</time>
      </trkpt>
      <trkpt lat="44.70379" lon="5.99157">
        <ele>1725</ele>
        <time>2021-09-20T08:59:39Z</time>
      </trkpt>
      <trkpt lat="44.70379" lon="5.99158">
        <ele>1725</ele>
        <time>2021-09-20T08:59:40Z</time>
      </trkpt>
      <trkpt lat="44.70379" lon="5.99158">
        <ele>1725</ele>
        <time>2021-09-20T08:59:41Z</time>
      </trkpt>
      <trkpt lat="44.70378" lon="5.99159">
        <ele>1726</ele>
        <time>2021-09-20T08:59:42Z</time>
      </trkpt>
      <trkpt lat="44.70378" lon="5.9916">
        <ele>1726</ele>
        <time>2021-09-20T08:59:50Z</time>
      </trkpt>
      <trkpt lat="44.70377" lon="5.9916">
        <ele>1726</ele>
        <time>2021-09-20T08:59:51Z</time>
      </trkpt>
      <trkpt lat="44.70377" lon="5.99161">
        <ele>1727</ele>
        <time>2021-09-20T08:59:52Z</time>
      </trkpt>
      <trkpt lat="44.70377" lon="5.99161">
        <ele>1727</ele>
        <time>2021-09-20T08:59:53Z</time>
      </trkpt>
      <trkpt lat="44.70377" lon="5.99162">
        <ele>1727</ele>
        <time>2021-09-20T08:59:54Z</time>
      </trkpt>
      <trkpt lat="44.70376" lon="5.99163">
        <ele>1727</ele>
        <time>2021-09-20T08:59:55Z</time>
      </trkpt>
      <trkpt lat="44.70376" lon="5.99163">
        <ele>1727</ele>
        <time>2021-09-20T08:59:56Z</time>
      </trkpt>
      <trkpt lat="44.70375" lon="5.99164">
        <ele>1727</ele>
        <time>2021-09-20T08:59:57Z</time>
      </trkpt>
      <trkpt lat="44.70375" lon="5.99165">
        <ele>1727</ele>
        <time>2021-09-20T08:59:58Z</time>
      </trkpt>
      <trkpt lat="44.70374" lon="5.99165">
        <ele>1727</ele>
        <time>2021-09-20T08:59:59Z</time>
      </trkpt>
      <trkpt lat="44.70374" lon="5.99166">
        <ele>1727</ele>
        <time>2021-09-20T09:00:00Z</time>
      </trkpt>
      <trkpt lat="44.70373" lon="5.99166">
        <ele>1727</ele>
        <time>2021-09-20T09:00:01Z</time>
      </trkpt>
      <trkpt lat="44.70372" lon="5.99167">
        <ele>1728</ele>
        <time>2021-09-20T09:00:02Z</time>
      </trkpt>
      <trkpt lat="44.70372" lon="5.99167">
        <ele>1728</ele>
        <time>2021-09-20T09:00:03Z</time>
      </trkpt>
      <trkpt lat="44.70371" lon="5.99168">
        <ele>1728</ele>
        <time>2021-09-20T09:00:04Z</time>
      </trkpt>
      <trkpt lat="44.7037" lon="5.99168">
        <ele>1728</ele>
        <time>2021-09-20T09:00:05Z</time>
      </trkpt>
      <trkpt lat="44.7037" lon="5.99169">
        <ele>1728</ele>
        <time>2021-09-20T09:00:06Z</time>
      </trkpt>
      <trkpt lat="44.70369" lon="5.99169">
        <ele>1729</ele>
        <time>2021-09-20T09:00:07Z</time>
      </trkpt>
      <trkpt lat="44.70369" lon="5.99169">
        <ele>1729</ele>
        <time>2021-09-20T09:00:08Z</time>
      </trkpt>
      <trkpt lat="44.70368" lon="5.9917">
        <ele>1729</ele>
        <time>2021-09-20T09:00:09Z</time>
      </trkpt>
      <trkpt lat="44.70367" lon="5.9917">
        <ele>1729</ele>
        <time>2021-09-20T09:00:10Z</time>
      </trkpt>
      <trkpt lat="44.70367" lon="5.99171">
        <ele>1729</ele>
        <time>2021-09-20T09:00:11Z</time>
      </trkpt>
      <trkpt lat="44.70366" lon="5.99172">
        <ele>1730</ele>
        <time>2021-09-20T09:00:12Z</time>
      </trkpt>
      <trkpt lat="44.70366" lon="5.99172">
        <ele>1730</ele>
        <time>2021-09-20T09:00:13Z</time>
      </trkpt>
      <trkpt lat="44.70365" lon="5.99173">
        <ele>1730</ele>
        <time>2021-09-20T09:00:14Z</time>
      </trkpt>
      <trkpt lat="44.70365" lon="5.99173">
        <ele>1730</ele>
        <time>2021-09-20T09:00:15Z</time>
      </trkpt>
      <trkpt lat="44.70364" lon="5.99174">
        <ele>1730</ele>
        <time>2021-09-20T09:00:16Z</time>
      </trkpt>
      <trkpt lat="44.70364" lon="5.99174">
        <ele>1731</ele>
        <time>2021-09-20T09:00:17Z</time>
      </trkpt>
      <trkpt lat="44.70363" lon="5.99175">
        <ele>1731</ele>
        <time>2021-09-20T09:00:18Z</time>
      </trkpt>
      <trkpt lat="44.70363" lon="5.99175">
        <ele>1731</ele>
        <time>2021-09-20T09:00:19Z</time>
      </trkpt>
      <trkpt lat="44.70363" lon="5.99175">
        <ele>1731</ele>
        <time>2021-09-20T09:00:20Z</time>
      </trkpt>
      <trkpt lat="44.70362" lon="5.99176">
        <ele>1731</ele>
        <time>2021-09-20T09:00:21Z</time>
      </trkpt>
      <trkpt lat="44.70362" lon="5.99176">
        <ele>1732</ele>
        <time>2021-09-20T09:00:22Z</time>
      </trkpt>
      <trkpt lat="44.70361" lon="5.99177">
        <ele>1732</ele>
        <time>2021-09-20T09:00:23Z</time>
      </trkpt>
      <trkpt lat="44.7036" lon="5.99177">
        <ele>1732</ele>
        <time>2021-09-20T09:00:24Z</time>
      </trkpt>
      <trkpt lat="44.7036" lon="5.99178">
        <ele>1732</ele>
        <time>2021-09-20T09:00:25Z</time>
      </trkpt>
      <trkpt lat="44.70359" lon="5.99178">
        <ele>1732</ele>
        <time>2021-09-20T09:00:26Z</time>
      </trkpt>
      <trkpt lat="44.70359" lon="5.99178">
        <ele>1732</ele>
        <time>2021-09-20T09:00:27Z</time>
      </trkpt>
      <trkpt lat="44.70358" lon="5.99179">
        <ele>1732</ele>
        <time>2021-09-20T09:00:28Z</time>
      </trkpt>
      <trkpt lat="44.70358" lon="5.9918">
        <ele>1732</ele>
        <time>2021-09-20T09:00:29Z</time>
      </trkpt>
      <trkpt lat="44.70357" lon="5.99181">
        <ele>1732</ele>
        <time>2021-09-20T09:00:30Z</time>
      </trkpt>
      <trkpt lat="44.70357" lon="5.99181">
        <ele>1732</ele>
        <time>2021-09-20T09:00:31Z</time>
      </trkpt>
      <trkpt lat="44.70357" lon="5.99182">
        <ele>1733</ele>
        <time>2021-09-20T09:00:32Z</time>
      </trkpt>
      <trkpt lat="44.70356" lon="5.99183">
        <ele>1733</ele>
        <time>2021-09-20T09:00:33Z</time>
      </trkpt>
      <trkpt lat="44.70356" lon="5.99184">
        <ele>1733</ele>
        <time>2021-09-20T09:00:34Z</time>
      </trkpt>
      <trkpt lat="44.70356" lon="5.99185">
        <ele>1733</ele>
        <time>2021-09-20T09:00:35Z</time>
      </trkpt>
      <trkpt lat="44.70355" lon="5.99185">
        <ele>1733</ele>
        <time>2021-09-20T09:00:36Z</time>
      </trkpt>
      <trkpt lat="44.70355" lon="5.99186">
        <ele>1734</ele>
        <time>2021-09-20T09:00:37Z</time>
      </trkpt>
      <trkpt lat="44.70354" lon="5.99186">
        <ele>1734</ele>
        <time>2021-09-20T09:00:38Z</time>
      </trkpt>
      <trkpt lat="44.70354" lon="5.99187">
        <ele>1734</ele>
        <time>2021-09-20T09:00:39Z</time>
      </trkpt>
      <trkpt lat="44.70354" lon="5.99187">
        <ele>1734</ele>
        <time>2021-09-20T09:00:40Z</time>
      </trkpt>
      <trkpt lat="44.70353" lon="5.99187">
        <ele>1734</ele>
        <time>2021-09-20T09:00:41Z</time>
      </trkpt>
      <trkpt lat="44.70353" lon="5.99188">
        <ele>1735</ele>
        <time>2021-09-20T09:00:42Z</time>
      </trkpt>
      <trkpt lat="44.70352" lon="5.99189">
        <ele>1735</ele>
        <time>2021-09-20T09:00:43Z</time>
      </trkpt>
      <trkpt lat="44.70351" lon="5.99189">
        <ele>1735</ele>
        <time>2021-09-20T09:00:44Z</time>
      </trkpt>
      <trkpt lat="44.70351" lon="5.9919">
        <ele>1735</ele>
        <time>2021-09-20T09:00:45Z</time>
      </trkpt>
      <trkpt lat="44.7035" lon="5.9919">
        <ele>1735</ele>
        <time>2021-09-20T09:00:46Z</time>
      </trkpt>
      <trkpt lat="44.70349" lon="5.99191">
        <ele>1736</ele>
        <time>2021-09-20T09:00:47Z</time>
      </trkpt>
      <trkpt lat="44.70349" lon="5.99191">
        <ele>1736</ele>
        <time>2021-09-20T09:00:48Z</time>
      </trkpt>
      <trkpt lat="44.70348" lon="5.99192">
        <ele>1736</ele>
        <time>2021-09-20T09:00:49Z</time>
      </trkpt>
      <trkpt lat="44.70348" lon="5.99193">
        <ele>1736</ele>
        <time>2021-09-20T09:00:50Z</time>
      </trkpt>
      <trkpt lat="44.70347" lon="5.99193">
        <ele>1736</ele>
        <time>2021-09-20T09:00:51Z</time>
      </trkpt>
      <trkpt lat="44.70347" lon="5.99194">
        <ele>1736</ele>
        <time>2021-09-20T09:00:52Z</time>
      </trkpt>
      <trkpt lat="44.70346" lon="5.99195">
        <ele>1736</ele>
        <time>2021-09-20T09:00:53Z</time>
      </trkpt>
      <trkpt lat="44.70346" lon="5.99195">
        <ele>1736</ele>
        <time>2021-09-20T09:00:54Z</time>
      </trkpt>
      <trkpt lat="44.70345" lon="5.99196">
        <ele>1737</ele>
        <time>2021-09-20T09:00:55Z</time>
      </trkpt>
      <trkpt lat="44.70345" lon="5.99197">
        <ele>1737</ele>
        <time>2021-09-20T09:00:56Z</time>
      </trkpt>
      <trkpt lat="44.70344" lon="5.99197">
        <ele>1738</ele>
        <time>2021-09-20T09:00:57Z</time>
      </trkpt>
      <trkpt lat="44.70344" lon="5.99198">
        <ele>1738</ele>
        <time>2021-09-20T09:00:58Z</time>
      </trkpt>
      <trkpt lat="44.70343" lon="5.99198">
        <ele>1738</ele>
        <time>2021-09-20T09:00:59Z</time>
      </trkpt>
      <trkpt lat="44.70342" lon="5.99199">
        <ele>1738</ele>
        <time>2021-09-20T09:01:00Z</time>
      </trkpt>
      <trkpt lat="44.70342" lon="5.99199">
        <ele>1738</ele>
        <time>2021-09-20T09:01:01Z</time>
      </trkpt>
      <trkpt lat="44.70342" lon="5.99199">
        <ele>1738</ele>
        <time>2021-09-20T09:01:02Z</time>
      </trkpt>
      <trkpt lat="44.70341" lon="5.992">
        <ele>1738</ele>
        <time>2021-09-20T09:01:03Z</time>
      </trkpt>
      <trkpt lat="44.7034" lon="5.992">
        <ele>1738</ele>
        <time>2021-09-20T09:01:04Z</time>
      </trkpt>
      <trkpt lat="44.7034" lon="5.99201">
        <ele>1738</ele>
        <time>2021-09-20T09:01:05Z</time>
      </trkpt>
      <trkpt lat="44.7034" lon="5.99202">
        <ele>1738</ele>
        <time>2021-09-20T09:01:06Z</time>
      </trkpt>
      <trkpt lat="44.70339" lon="5.99202">
        <ele>1739</ele>
        <time>2021-09-20T09:01:07Z</time>
      </trkpt>
      <trkpt lat="44.70339" lon="5.99203">
        <ele>1739</ele>
        <time>2021-09-20T09:01:08Z</time>
      </trkpt>
      <trkpt lat="44.70338" lon="5.99204">
        <ele>1739</ele>
        <time>2021-09-20T09:01:09Z</time>
      </trkpt>
      <trkpt lat="44.70338" lon="5.99205">
        <ele>1739</ele>
        <time>2021-09-20T09:01:10Z</time>
      </trkpt>
      <trkpt lat="44.70338" lon="5.99206">
        <ele>1739</ele>
        <time>2021-09-20T09:01:11Z</time>
      </trkpt>
      <trkpt lat="44.70338" lon="5.99207">
        <ele>1740</ele>
        <time>2021-09-20T09:01:12Z</time>
      </trkpt>
      <trkpt lat="44.70337" lon="5.99208">
        <ele>1740</ele>
        <time>2021-09-20T09:01:13Z</time>
      </trkpt>
      <trkpt lat="44.70337" lon="5.99209">
        <ele>1740</ele>
        <time>2021-09-20T09:01:14Z</time>
      </trkpt>
      <trkpt lat="44.70337" lon="5.9921">
        <ele>1740</ele>
        <time>2021-09-20T09:01:15Z</time>
      </trkpt>
      <trkpt lat="44.70336" lon="5.99211">
        <ele>1740</ele>
        <time>2021-09-20T09:01:16Z</time>
      </trkpt>
      <trkpt lat="44.70336" lon="5.99212">
        <ele>1741</ele>
        <time>2021-09-20T09:01:17Z</time>
      </trkpt>
      <trkpt lat="44.70335" lon="5.99213">
        <ele>1741</ele>
        <time>2021-09-20T09:01:18Z</time>
      </trkpt>
      <trkpt lat="44.70335" lon="5.99214">
        <ele>1741</ele>
        <time>2021-09-20T09:01:19Z</time>
      </trkpt>
      <trkpt lat="44.70334" lon="5.99215">
        <ele>1741</ele>
        <time>2021-09-20T09:01:20Z</time>
      </trkpt>
      <trkpt lat="44.70334" lon="5.99215">
        <ele>1741</ele>
        <time>2021-09-20T09:01:21Z</time>
      </trkpt>
      <trkpt lat="44.70333" lon="5.99216">
        <ele>1741</ele>
        <time>2021-09-20T09:01:22Z</time>
      </trkpt>
      <trkpt lat="44.70333" lon="5.99217">
        <ele>1741</ele>
        <time>2021-09-20T09:01:23Z</time>
      </trkpt>
      <trkpt lat="44.70333" lon="5.99218">
        <ele>1741</ele>
        <time>2021-09-20T09:01:24Z</time>
      </trkpt>
      <trkpt lat="44.70332" lon="5.99219">
        <ele>1741</ele>
        <time>2021-09-20T09:01:25Z</time>
      </trkpt>
      <trkpt lat="44.70332" lon="5.9922">
        <ele>1741</ele>
        <time>2021-09-20T09:01:26Z</time>
      </trkpt>
      <trkpt lat="44.70331" lon="5.99221">
        <ele>1742</ele>
        <time>2021-09-20T09:01:27Z</time>
      </trkpt>
      <trkpt lat="44.70331" lon="5.99222">
        <ele>1742</ele>
        <time>2021-09-20T09:01:28Z</time>
      </trkpt>
      <trkpt lat="44.7033" lon="5.99223">
        <ele>1742</ele>
        <time>2021-09-20T09:01:29Z</time>
      </trkpt>
      <trkpt lat="44.7033" lon="5.99224">
        <ele>1742</ele>
        <time>2021-09-20T09:01:30Z</time>
      </trkpt>
      <trkpt lat="44.70329" lon="5.99225">
        <ele>1742</ele>
        <time>2021-09-20T09:01:31Z</time>
      </trkpt>
      <trkpt lat="44.70329" lon="5.99226">
        <ele>1743</ele>
        <time>2021-09-20T09:01:32Z</time>
      </trkpt>
      <trkpt lat="44.70328" lon="5.99227">
        <ele>1743</ele>
        <time>2021-09-20T09:01:33Z</time>
      </trkpt>
      <trkpt lat="44.70328" lon="5.99228">
        <ele>1743</ele>
        <time>2021-09-20T09:01:34Z</time>
      </trkpt>
      <trkpt lat="44.70327" lon="5.99229">
        <ele>1743</ele>
        <time>2021-09-20T09:01:35Z</time>
      </trkpt>
      <trkpt lat="44.70327" lon="5.9923">
        <ele>1743</ele>
        <time>2021-09-20T09:01:36Z</time>
      </trkpt>
      <trkpt lat="44.70326" lon="5.99231">
        <ele>1744</ele>
        <time>2021-09-20T09:01:37Z</time>
      </trkpt>
      <trkpt lat="44.70325" lon="5.99232">
        <ele>1744</ele>
        <time>2021-09-20T09:01:38Z</time>
      </trkpt>
      <trkpt lat="44.70325" lon="5.99233">
        <ele>1744</ele>
        <time>2021-09-20T09:01:39Z</time>
      </trkpt>
      <trkpt lat="44.70324" lon="5.99234">
        <ele>1744</ele>
        <time>2021-09-20T09:01:40Z</time>
      </trkpt>
      <trkpt lat="44.70323" lon="5.99235">
        <ele>1744</ele>
        <time>2021-09-20T09:01:41Z</time>
      </trkpt>
      <trkpt lat="44.70322" lon="5.99236">
        <ele>1744</ele>
        <time>2021-09-20T09:01:42Z</time>
      </trkpt>
      <trkpt lat="44.70322" lon="5.99237">
        <ele>1744</ele>
        <time>2021-09-20T09:01:43Z</time>
      </trkpt>
      <trkpt lat="44.70321" lon="5.99238">
        <ele>1744</ele>
        <time>2021-09-20T09:01:44Z</time>
      </trkpt>
      <trkpt lat="44.7032" lon="5.99239">
        <ele>1744</ele>
        <time>2021-09-20T09:01:45Z</time>
      </trkpt>
      <trkpt lat="44.70319" lon="5.9924">
        <ele>1744</ele>
        <time>2021-09-20T09:01:46Z</time>
      </trkpt>
      <trkpt lat="44.70319" lon="5.99241">
        <ele>1745</ele>
        <time>2021-09-20T09:01:47Z</time>
      </trkpt>
      <trkpt lat="44.70318" lon="5.99242">
        <ele>1745</ele>
        <time>2021-09-20T09:01:48Z</time>
      </trkpt>
      <trkpt lat="44.70317" lon="5.99243">
        <ele>1745</ele>
        <time>2021-09-20T09:01:49Z</time>
      </trkpt>
      <trkpt lat="44.70316" lon="5.99244">
        <ele>1745</ele>
        <time>2021-09-20T09:01:50Z</time>
      </trkpt>
      <trkpt lat="44.70316" lon="5.99245">
        <ele>1745</ele>
        <time>2021-09-20T09:01:51Z</time>
      </trkpt>
      <trkpt lat="44.70315" lon="5.99246">
        <ele>1745</ele>
        <time>2021-09-20T09:01:52Z</time>
      </trkpt>
      <trkpt lat="44.70315" lon="5.99247">
        <ele>1745</ele>
        <time>2021-09-20T09:01:53Z</time>
      </trkpt>
      <trkpt lat="44.70315" lon="5.99249">
        <ele>1745</ele>
        <time>2021-09-20T09:01:54Z</time>
      </trkpt>
      <trkpt lat="44.70314" lon="5.9925">
        <ele>1745</ele>
        <time>2021-09-20T09:01:55Z</time>
      </trkpt>
      <trkpt lat="44.70314" lon="5.99251">
        <ele>1745</ele>
        <time>2021-09-20T09:01:56Z</time>
      </trkpt>
      <trkpt lat="44.70314" lon="5.99252">
        <ele>1745</ele>
        <time>2021-09-20T09:01:57Z</time>
      </trkpt>
      <trkpt lat="44.70313" lon="5.99253">
        <ele>1745</ele>
        <time>2021-09-20T09:01:58Z</time>
      </trkpt>
      <trkpt lat="44.70313" lon="5.99254">
        <ele>1745</ele>
        <time>2021-09-20T09:01:59Z</time>
      </trkpt>
      <trkpt lat="44.70313" lon="5.99255">
        <ele>1745</ele>
        <time>2021-09-20T09:02:00Z</time>
      </trkpt>
      <trkpt lat="44.70312" lon="5.99256">
        <ele>1745</ele>
        <time>2021-09-20T09:02:01Z</time>
      </trkpt>
      <trkpt lat="44.70312" lon="5.99257">
        <ele>1745</ele>
        <time>2021-09-20T09:02:02Z</time>
      </trkpt>
      <trkpt lat="44.70311" lon="5.99258">
        <ele>1745</ele>
        <time>2021-09-20T09:02:03Z</time>
      </trkpt>
      <trkpt lat="44.7031" lon="5.99259">
        <ele>1745</ele>
        <time>2021-09-20T09:02:04Z</time>
      </trkpt>
      <trkpt lat="44.7031" lon="5.9926">
        <ele>1745</ele>
        <time>2021-09-20T09:02:05Z</time>
      </trkpt>
      <trkpt lat="44.70309" lon="5.9926">
        <ele>1745</ele>
        <time>2021-09-20T09:02:06Z</time>
      </trkpt>
      <trkpt lat="44.70308" lon="5.99261">
        <ele>1745</ele>
        <time>2021-09-20T09:02:07Z</time>
      </trkpt>
      <trkpt lat="44.70307" lon="5.99262">
        <ele>1745</ele>
        <time>2021-09-20T09:02:08Z</time>
      </trkpt>
      <trkpt lat="44.70307" lon="5.99263">
        <ele>1745</ele>
        <time>2021-09-20T09:02:09Z</time>
      </trkpt>
      <trkpt lat="44.70306" lon="5.99264">
        <ele>1745</ele>
        <time>2021-09-20T09:02:10Z</time>
      </trkpt>
      <trkpt lat="44.70305" lon="5.99265">
        <ele>1745</ele>
        <time>2021-09-20T09:02:11Z</time>
      </trkpt>
      <trkpt lat="44.70304" lon="5.99266">
        <ele>1745</ele>
        <time>2021-09-20T09:02:12Z</time>
      </trkpt>
      <trkpt lat="44.70303" lon="5.99267">
        <ele>1745</ele>
        <time>2021-09-20T09:02:13Z</time>
      </trkpt>
      <trkpt lat="44.70302" lon="5.99268">
        <ele>1745</ele>
        <time>2021-09-20T09:02:14Z</time>
      </trkpt>
      <trkpt lat="44.70302" lon="5.99269">
        <ele>1745</ele>
        <time>2021-09-20T09:02:15Z</time>
      </trkpt>
      <trkpt lat="44.70301" lon="5.9927">
        <ele>1745</ele>
        <time>2021-09-20T09:02:16Z</time>
      </trkpt>
      <trkpt lat="44.70301" lon="5.99271">
        <ele>1745</ele>
        <time>2021-09-20T09:02:42Z</time>
      </trkpt>
      <trkpt lat="44.70301" lon="5.99271">
        <ele>1745</ele>
        <time>2021-09-20T09:02:43Z</time>
      </trkpt>
      <trkpt lat="44.703" lon="5.99271">
        <ele>1745</ele>
        <time>2021-09-20T09:02:44Z</time>
      </trkpt>
      <trkpt lat="44.70301" lon="5.99271">
        <ele>1745</ele>
        <time>2021-09-20T09:02:45Z</time>
      </trkpt>
      <trkpt lat="44.70301" lon="5.9927">
        <ele>1745</ele>
        <time>2021-09-20T09:02:46Z</time>
      </trkpt>
      <trkpt lat="44.70301" lon="5.9927">
        <ele>1745</ele>
        <time>2021-09-20T09:02:47Z</time>
      </trkpt>
      <trkpt lat="44.70302" lon="5.99269">
        <ele>1745</ele>
        <time>2021-09-20T09:02:48Z</time>
      </trkpt>
      <trkpt lat="44.70302" lon="5.99268">
        <ele>1745</ele>
        <time>2021-09-20T09:02:49Z</time>
      </trkpt>
      <trkpt lat="44.70303" lon="5.99267">
        <ele>1745</ele>
        <time>2021-09-20T09:02:50Z</time>
      </trkpt>
      <trkpt lat="44.70304" lon="5.99266">
        <ele>1745</ele>
        <time>2021-09-20T09:02:51Z</time>
      </trkpt>
      <trkpt lat="44.70304" lon="5.99266">
        <ele>1745</ele>
        <time>2021-09-20T09:02:52Z</time>
      </trkpt>
      <trkpt lat="44.70305" lon="5.99263">
        <ele>1745</ele>
        <time>2021-09-20T09:05:04Z</time>
      </trkpt>
      <trkpt lat="44.70305" lon="5.99262">
        <ele>1745</ele>
        <time>2021-09-20T09:05:05Z</time>
      </trkpt>
      <trkpt lat="44.70305" lon="5.99261">
        <ele>1745</ele>
        <time>2021-09-20T09:05:06Z</time>
      </trkpt>
      <trkpt lat="44.70305" lon="5.9926">
        <ele>1745</ele>
        <time>2021-09-20T09:05:07Z</time>
      </trkpt>
      <trkpt lat="44.70305" lon="5.99259">
        <ele>1745</ele>
        <time>2021-09-20T09:05:08Z</time>
      </trkpt>
      <trkpt lat="44.70305" lon="5.99258">
        <ele>1745</ele>
        <time>2021-09-20T09:05:09Z</time>
      </trkpt>
      <trkpt lat="44.70305" lon="5.99257">
        <ele>1745</ele>
        <time>2021-09-20T09:05:10Z</time>
      </trkpt>
      <trkpt lat="44.70305" lon="5.99255">
        <ele>1745</ele>
        <time>2021-09-20T09:05:11Z</time>
      </trkpt>
      <trkpt lat="44.70305" lon="5.99254">
        <ele>1745</ele>
        <time>2021-09-20T09:05:12Z</time>
      </trkpt>
      <trkpt lat="44.70306" lon="5.99252">
        <ele>1744</ele>
        <time>2021-09-20T09:05:13Z</time>
      </trkpt>
      <trkpt lat="44.70306" lon="5.99251">
        <ele>1744</ele>
        <time>2021-09-20T09:05:14Z</time>
      </trkpt>
      <trkpt lat="44.70306" lon="5.99251">
        <ele>1744</ele>
        <time>2021-09-20T09:05:15Z</time>
      </trkpt>
      <trkpt lat="44.70307" lon="5.9925">
        <ele>1744</ele>
        <time>2021-09-20T09:05:16Z</time>
      </trkpt>
      <trkpt lat="44.70307" lon="5.99249">
        <ele>1744</ele>
        <time>2021-09-20T09:05:17Z</time>
      </trkpt>
      <trkpt lat="44.70308" lon="5.99249">
        <ele>1744</ele>
        <time>2021-09-20T09:05:18Z</time>
      </trkpt>
      <trkpt lat="44.70308" lon="5.99248">
        <ele>1744</ele>
        <time>2021-09-20T09:05:19Z</time>
      </trkpt>
      <trkpt lat="44.70309" lon="5.99247">
        <ele>1744</ele>
        <time>2021-09-20T09:05:20Z</time>
      </trkpt>
      <trkpt lat="44.70309" lon="5.99246">
        <ele>1744</ele>
        <time>2021-09-20T09:05:21Z</time>
      </trkpt>
      <trkpt lat="44.7031" lon="5.99245">
        <ele>1744</ele>
        <time>2021-09-20T09:05:22Z</time>
      </trkpt>
      <trkpt lat="44.7031" lon="5.99244">
        <ele>1744</ele>
        <time>2021-09-20T09:05:23Z</time>
      </trkpt>
      <trkpt lat="44.70311" lon="5.99243">
        <ele>1744</ele>
        <time>2021-09-20T09:05:24Z</time>
      </trkpt>
      <trkpt lat="44.70312" lon="5.99242">
        <ele>1744</ele>
        <time>2021-09-20T09:05:25Z</time>
      </trkpt>
      <trkpt lat="44.70312" lon="5.99241">
        <ele>1744</ele>
        <time>2021-09-20T09:05:26Z</time>
      </trkpt>
      <trkpt lat="44.70313" lon="5.99239">
        <ele>1744</ele>
        <time>2021-09-20T09:05:27Z</time>
      </trkpt>
      <trkpt lat="44.70314" lon="5.99238">
        <ele>1744</ele>
        <time>2021-09-20T09:05:28Z</time>
      </trkpt>
      <trkpt lat="44.70314" lon="5.99237">
        <ele>1744</ele>
        <time>2021-09-20T09:05:29Z</time>
      </trkpt>
      <trkpt lat="44.70315" lon="5.99236">
        <ele>1744</ele>
        <time>2021-09-20T09:05:30Z</time>
      </trkpt>
      <trkpt lat="44.70316" lon="5.99236">
        <ele>1744</ele>
        <time>2021-09-20T09:05:31Z</time>
      </trkpt>
      <trkpt lat="44.70317" lon="5.99236">
        <ele>1744</ele>
        <time>2021-09-20T09:05:32Z</time>
      </trkpt>
      <trkpt lat="44.70318" lon="5.99236">
        <ele>1744</ele>
        <time>2021-09-20T09:05:33Z</time>
      </trkpt>
      <trkpt lat="44.70319" lon="5.99235">
        <ele>1744</ele>
        <time>2021-09-20T09:05:34Z</time>
      </trkpt>
      <trkpt lat="44.70319" lon="5.99235">
        <ele>1744</ele>
        <time>2021-09-20T09:05:35Z</time>
      </trkpt>
      <trkpt lat="44.7032" lon="5.99235">
        <ele>1744</ele>
        <time>2021-09-20T09:05:36Z</time>
      </trkpt>
      <trkpt lat="44.70321" lon="5.99235">
        <ele>1744</ele>
        <time>2021-09-20T09:05:37Z</time>
      </trkpt>
      <trkpt lat="44.70322" lon="5.99235">
        <ele>1744</ele>
        <time>2021-09-20T09:05:38Z</time>
      </trkpt>
      <trkpt lat="44.70322" lon="5.99235">
        <ele>1744</ele>
        <time>2021-09-20T09:05:39Z</time>
      </trkpt>
      <trkpt lat="44.70323" lon="5.99234">
        <ele>1744</ele>
        <time>2021-09-20T09:05:40Z</time>
      </trkpt>
      <trkpt lat="44.70323" lon="5.99234">
        <ele>1744</ele>
        <time>2021-09-20T09:05:41Z</time>
      </trkpt>
      <trkpt lat="44.70324" lon="5.99233">
        <ele>1744</ele>
        <time>2021-09-20T09:05:42Z</time>
      </trkpt>
      <trkpt lat="44.70325" lon="5.99232">
        <ele>1744</ele>
        <time>2021-09-20T09:05:43Z</time>
      </trkpt>
      <trkpt lat="44.70325" lon="5.99231">
        <ele>1744</ele>
        <time>2021-09-20T09:05:44Z</time>
      </trkpt>
      <trkpt lat="44.70326" lon="5.9923">
        <ele>1744</ele>
        <time>2021-09-20T09:05:45Z</time>
      </trkpt>
      <trkpt lat="44.70326" lon="5.99229">
        <ele>1744</ele>
        <time>2021-09-20T09:05:46Z</time>
      </trkpt>
      <trkpt lat="44.70327" lon="5.99227">
        <ele>1744</ele>
        <time>2021-09-20T09:05:47Z</time>
      </trkpt>
      <trkpt lat="44.70327" lon="5.99226">
        <ele>1744</ele>
        <time>2021-09-20T09:05:48Z</time>
      </trkpt>
      <trkpt lat="44.70328" lon="5.99225">
        <ele>1744</ele>
        <time>2021-09-20T09:05:49Z</time>
      </trkpt>
      <trkpt lat="44.70328" lon="5.99224">
        <ele>1744</ele>
        <time>2021-09-20T09:05:50Z</time>
      </trkpt>
      <trkpt lat="44.70328" lon="5.99223">
        <ele>1744</ele>
        <time>2021-09-20T09:05:51Z</time>
      </trkpt>
      <trkpt lat="44.70328" lon="5.99223">
        <ele>1744</ele>
        <time>2021-09-20T09:05:52Z</time>
      </trkpt>
      <trkpt lat="44.70329" lon="5.99223">
        <ele>1744</ele>
        <time>2021-09-20T09:05:53Z</time>
      </trkpt>
      <trkpt lat="44.70329" lon="5.99222">
        <ele>1744</ele>
        <time>2021-09-20T09:05:54Z</time>
      </trkpt>
      <trkpt lat="44.70329" lon="5.99221">
        <ele>1744</ele>
        <time>2021-09-20T09:05:55Z</time>
      </trkpt>
      <trkpt lat="44.70329" lon="5.9922">
        <ele>1744</ele>
        <time>2021-09-20T09:05:56Z</time>
      </trkpt>
      <trkpt lat="44.7033" lon="5.9922">
        <ele>1744</ele>
        <time>2021-09-20T09:05:57Z</time>
      </trkpt>
      <trkpt lat="44.7033" lon="5.99219">
        <ele>1744</ele>
        <time>2021-09-20T09:05:58Z</time>
      </trkpt>
      <trkpt lat="44.7033" lon="5.99218">
        <ele>1744</ele>
        <time>2021-09-20T09:05:59Z</time>
      </trkpt>
      <trkpt lat="44.70331" lon="5.99216">
        <ele>1744</ele>
        <time>2021-09-20T09:06:00Z</time>
      </trkpt>
      <trkpt lat="44.70331" lon="5.99215">
        <ele>1744</ele>
        <time>2021-09-20T09:06:01Z</time>
      </trkpt>
      <trkpt lat="44.70331" lon="5.99214">
        <ele>1744</ele>
        <time>2021-09-20T09:06:02Z</time>
      </trkpt>
      <trkpt lat="44.70331" lon="5.99212">
        <ele>1743</ele>
        <time>2021-09-20T09:06:03Z</time>
      </trkpt>
      <trkpt lat="44.70332" lon="5.99211">
        <ele>1743</ele>
        <time>2021-09-20T09:06:04Z</time>
      </trkpt>
      <trkpt lat="44.70332" lon="5.9921">
        <ele>1743</ele>
        <time>2021-09-20T09:06:05Z</time>
      </trkpt>
      <trkpt lat="44.70333" lon="5.99209">
        <ele>1743</ele>
        <time>2021-09-20T09:06:06Z</time>
      </trkpt>
      <trkpt lat="44.70334" lon="5.99208">
        <ele>1743</ele>
        <time>2021-09-20T09:06:07Z</time>
      </trkpt>
      <trkpt lat="44.70335" lon="5.99208">
        <ele>1742</ele>
        <time>2021-09-20T09:06:08Z</time>
      </trkpt>
      <trkpt lat="44.70336" lon="5.99207">
        <ele>1742</ele>
        <time>2021-09-20T09:06:09Z</time>
      </trkpt>
      <trkpt lat="44.70336" lon="5.99206">
        <ele>1742</ele>
        <time>2021-09-20T09:06:10Z</time>
      </trkpt>
      <trkpt lat="44.70337" lon="5.99206">
        <ele>1742</ele>
        <time>2021-09-20T09:06:11Z</time>
      </trkpt>
      <trkpt lat="44.70338" lon="5.99205">
        <ele>1742</ele>
        <time>2021-09-20T09:06:12Z</time>
      </trkpt>
      <trkpt lat="44.70338" lon="5.99204">
        <ele>1742</ele>
        <time>2021-09-20T09:06:13Z</time>
      </trkpt>
      <trkpt lat="44.70339" lon="5.99203">
        <ele>1742</ele>
        <time>2021-09-20T09:06:14Z</time>
      </trkpt>
      <trkpt lat="44.7034" lon="5.99202">
        <ele>1742</ele>
        <time>2021-09-20T09:06:15Z</time>
      </trkpt>
      <trkpt lat="44.7034" lon="5.99201">
        <ele>1742</ele>
        <time>2021-09-20T09:06:16Z</time>
      </trkpt>
      <trkpt lat="44.70341" lon="5.992">
        <ele>1742</ele>
        <time>2021-09-20T09:06:17Z</time>
      </trkpt>
      <trkpt lat="44.70341" lon="5.99199">
        <ele>1741</ele>
        <time>2021-09-20T09:06:18Z</time>
      </trkpt>
      <trkpt lat="44.70342" lon="5.99198">
        <ele>1741</ele>
        <time>2021-09-20T09:06:19Z</time>
      </trkpt>
      <trkpt lat="44.70343" lon="5.99197">
        <ele>1741</ele>
        <time>2021-09-20T09:06:20Z</time>
      </trkpt>
      <trkpt lat="44.70343" lon="5.99196">
        <ele>1741</ele>
        <time>2021-09-20T09:06:21Z</time>
      </trkpt>
      <trkpt lat="44.70344" lon="5.99195">
        <ele>1741</ele>
        <time>2021-09-20T09:06:22Z</time>
      </trkpt>
      <trkpt lat="44.70345" lon="5.99194">
        <ele>1740</ele>
        <time>2021-09-20T09:06:23Z</time>
      </trkpt>
      <trkpt lat="44.70346" lon="5.99194">
        <ele>1740</ele>
        <time>2021-09-20T09:06:24Z</time>
      </trkpt>
      <trkpt lat="44.70346" lon="5.99193">
        <ele>1740</ele>
        <time>2021-09-20T09:06:25Z</time>
      </trkpt>
      <trkpt lat="44.70347" lon="5.99192">
        <ele>1740</ele>
        <time>2021-09-20T09:06:26Z</time>
      </trkpt>
      <trkpt lat="44.70348" lon="5.99191">
        <ele>1740</ele>
        <time>2021-09-20T09:06:27Z</time>
      </trkpt>
      <trkpt lat="44.70348" lon="5.9919">
        <ele>1739</ele>
        <time>2021-09-20T09:06:28Z</time>
      </trkpt>
      <trkpt lat="44.70349" lon="5.9919">
        <ele>1739</ele>
        <time>2021-09-20T09:06:29Z</time>
      </trkpt>
      <trkpt lat="44.7035" lon="5.99189">
        <ele>1739</ele>
        <time>2021-09-20T09:06:30Z</time>
      </trkpt>
      <trkpt lat="44.7035" lon="5.99188">
        <ele>1739</ele>
        <time>2021-09-20T09:06:31Z</time>
      </trkpt>
      <trkpt lat="44.70351" lon="5.99187">
        <ele>1739</ele>
        <time>2021-09-20T09:06:32Z</time>
      </trkpt>
      <trkpt lat="44.70352" lon="5.99186">
        <ele>1738</ele>
        <time>2021-09-20T09:06:33Z</time>
      </trkpt>
      <trkpt lat="44.70352" lon="5.99185">
        <ele>1738</ele>
        <time>2021-09-20T09:06:34Z</time>
      </trkpt>
      <trkpt lat="44.70353" lon="5.99184">
        <ele>1738</ele>
        <time>2021-09-20T09:06:35Z</time>
      </trkpt>
      <trkpt lat="44.70354" lon="5.99183">
        <ele>1738</ele>
        <time>2021-09-20T09:06:36Z</time>
      </trkpt>
      <trkpt lat="44.70354" lon="5.99183">
        <ele>1738</ele>
        <time>2021-09-20T09:06:37Z</time>
      </trkpt>
      <trkpt lat="44.70355" lon="5.99182">
        <ele>1737</ele>
        <time>2021-09-20T09:06:38Z</time>
      </trkpt>
      <trkpt lat="44.70356" lon="5.99181">
        <ele>1737</ele>
        <time>2021-09-20T09:06:39Z</time>
      </trkpt>
      <trkpt lat="44.70356" lon="5.99181">
        <ele>1737</ele>
        <time>2021-09-20T09:06:40Z</time>
      </trkpt>
      <trkpt lat="44.70357" lon="5.9918">
        <ele>1737</ele>
        <time>2021-09-20T09:06:41Z</time>
      </trkpt>
      <trkpt lat="44.70358" lon="5.99179">
        <ele>1737</ele>
        <time>2021-09-20T09:06:42Z</time>
      </trkpt>
      <trkpt lat="44.70358" lon="5.99178">
        <ele>1736</ele>
        <time>2021-09-20T09:06:43Z</time>
      </trkpt>
      <trkpt lat="44.70359" lon="5.99177">
        <ele>1736</ele>
        <time>2021-09-20T09:06:44Z</time>
      </trkpt>
      <trkpt lat="44.70359" lon="5.99177">
        <ele>1736</ele>
        <time>2021-09-20T09:06:45Z</time>
      </trkpt>
      <trkpt lat="44.7036" lon="5.99176">
        <ele>1736</ele>
        <time>2021-09-20T09:06:46Z</time>
      </trkpt>
      <trkpt lat="44.7036" lon="5.99175">
        <ele>1736</ele>
        <time>2021-09-20T09:06:47Z</time>
      </trkpt>
      <trkpt lat="44.7036" lon="5.99174">
        <ele>1735</ele>
        <time>2021-09-20T09:06:48Z</time>
      </trkpt>
      <trkpt lat="44.70361" lon="5.99173">
        <ele>1735</ele>
        <time>2021-09-20T09:06:49Z</time>
      </trkpt>
      <trkpt lat="44.70361" lon="5.99172">
        <ele>1734</ele>
        <time>2021-09-20T09:06:50Z</time>
      </trkpt>
      <trkpt lat="44.70362" lon="5.99172">
        <ele>1734</ele>
        <time>2021-09-20T09:06:51Z</time>
      </trkpt>
      <trkpt lat="44.70362" lon="5.99171">
        <ele>1734</ele>
        <time>2021-09-20T09:06:52Z</time>
      </trkpt>
      <trkpt lat="44.70363" lon="5.9917">
        <ele>1733</ele>
        <time>2021-09-20T09:06:53Z</time>
      </trkpt>
      <trkpt lat="44.70363" lon="5.99169">
        <ele>1733</ele>
        <time>2021-09-20T09:06:54Z</time>
      </trkpt>
      <trkpt lat="44.70364" lon="5.99168">
        <ele>1733</ele>
        <time>2021-09-20T09:06:55Z</time>
      </trkpt>
      <trkpt lat="44.70365" lon="5.99168">
        <ele>1733</ele>
        <time>2021-09-20T09:06:56Z</time>
      </trkpt>
      <trkpt lat="44.70365" lon="5.99167">
        <ele>1733</ele>
        <time>2021-09-20T09:06:57Z</time>
      </trkpt>
      <trkpt lat="44.70366" lon="5.99167">
        <ele>1732</ele>
        <time>2021-09-20T09:06:58Z</time>
      </trkpt>
      <trkpt lat="44.70367" lon="5.99166">
        <ele>1732</ele>
        <time>2021-09-20T09:06:59Z</time>
      </trkpt>
      <trkpt lat="44.70367" lon="5.99165">
        <ele>1732</ele>
        <time>2021-09-20T09:07:00Z</time>
      </trkpt>
      <trkpt lat="44.70368" lon="5.99165">
        <ele>1732</ele>
        <time>2021-09-20T09:07:01Z</time>
      </trkpt>
      <trkpt lat="44.70369" lon="5.99164">
        <ele>1732</ele>
        <time>2021-09-20T09:07:02Z</time>
      </trkpt>
      <trkpt lat="44.70369" lon="5.99163">
        <ele>1731</ele>
        <time>2021-09-20T09:07:03Z</time>
      </trkpt>
      <trkpt lat="44.7037" lon="5.99163">
        <ele>1731</ele>
        <time>2021-09-20T09:07:04Z</time>
      </trkpt>
      <trkpt lat="44.70371" lon="5.99162">
        <ele>1731</ele>
        <time>2021-09-20T09:07:05Z</time>
      </trkpt>
      <trkpt lat="44.70371" lon="5.99161">
        <ele>1731</ele>
        <time>2021-09-20T09:07:06Z</time>
      </trkpt>
      <trkpt lat="44.70372" lon="5.9916">
        <ele>1731</ele>
        <time>2021-09-20T09:07:07Z</time>
      </trkpt>
      <trkpt lat="44.70373" lon="5.9916">
        <ele>1730</ele>
        <time>2021-09-20T09:07:08Z</time>
      </trkpt>
      <trkpt lat="44.70374" lon="5.99159">
        <ele>1730</ele>
        <time>2021-09-20T09:07:09Z</time>
      </trkpt>
      <trkpt lat="44.70374" lon="5.99158">
        <ele>1730</ele>
        <time>2021-09-20T09:07:10Z</time>
      </trkpt>
      <trkpt lat="44.70375" lon="5.99158">
        <ele>1730</ele>
        <time>2021-09-20T09:07:11Z</time>
      </trkpt>
      <trkpt lat="44.70376" lon="5.99157">
        <ele>1730</ele>
        <time>2021-09-20T09:07:12Z</time>
      </trkpt>
      <trkpt lat="44.70376" lon="5.99157">
        <ele>1729</ele>
        <time>2021-09-20T09:07:13Z</time>
      </trkpt>
      <trkpt lat="44.70377" lon="5.99156">
        <ele>1729</ele>
        <time>2021-09-20T09:07:14Z</time>
      </trkpt>
      <trkpt lat="44.70378" lon="5.99155">
        <ele>1729</ele>
        <time>2021-09-20T09:07:15Z</time>
      </trkpt>
      <trkpt lat="44.70378" lon="5.99155">
        <ele>1729</ele>
        <time>2021-09-20T09:07:16Z</time>
      </trkpt>
      <trkpt lat="44.70379" lon="5.99154">
        <ele>1729</ele>
        <time>2021-09-20T09:07:17Z</time>
      </trkpt>
      <trkpt lat="44.70379" lon="5.99154">
        <ele>1728</ele>
        <time>2021-09-20T09:07:18Z</time>
      </trkpt>
      <trkpt lat="44.7038" lon="5.99153">
        <ele>1728</ele>
        <time>2021-09-20T09:07:19Z</time>
      </trkpt>
      <trkpt lat="44.7038" lon="5.99152">
        <ele>1728</ele>
        <time>2021-09-20T09:07:20Z</time>
      </trkpt>
      <trkpt lat="44.7038" lon="5.99151">
        <ele>1728</ele>
        <time>2021-09-20T09:07:21Z</time>
      </trkpt>
      <trkpt lat="44.70381" lon="5.9915">
        <ele>1728</ele>
        <time>2021-09-20T09:07:22Z</time>
      </trkpt>
      <trkpt lat="44.70381" lon="5.99149">
        <ele>1727</ele>
        <time>2021-09-20T09:07:23Z</time>
      </trkpt>
      <trkpt lat="44.70382" lon="5.99148">
        <ele>1727</ele>
        <time>2021-09-20T09:07:24Z</time>
      </trkpt>
      <trkpt lat="44.70382" lon="5.99147">
        <ele>1727</ele>
        <time>2021-09-20T09:07:25Z</time>
      </trkpt>
      <trkpt lat="44.70383" lon="5.99147">
        <ele>1727</ele>
        <time>2021-09-20T09:07:26Z</time>
      </trkpt>
      <trkpt lat="44.70383" lon="5.99146">
        <ele>1727</ele>
        <time>2021-09-20T09:07:27Z</time>
      </trkpt>
      <trkpt lat="44.70384" lon="5.99145">
        <ele>1726</ele>
        <time>2021-09-20T09:07:28Z</time>
      </trkpt>
      <trkpt lat="44.70384" lon="5.99145">
        <ele>1726</ele>
        <time>2021-09-20T09:07:29Z</time>
      </trkpt>
      <trkpt lat="44.70385" lon="5.99144">
        <ele>1725</ele>
        <time>2021-09-20T09:07:30Z</time>
      </trkpt>
      <trkpt lat="44.70385" lon="5.99143">
        <ele>1725</ele>
        <time>2021-09-20T09:07:31Z</time>
      </trkpt>
      <trkpt lat="44.70386" lon="5.99143">
        <ele>1725</ele>
        <time>2021-09-20T09:07:32Z</time>
      </trkpt>
      <trkpt lat="44.70387" lon="5.99142">
        <ele>1724</ele>
        <time>2021-09-20T09:07:33Z</time>
      </trkpt>
      <trkpt lat="44.70387" lon="5.99142">
        <ele>1724</ele>
        <time>2021-09-20T09:07:34Z</time>
      </trkpt>
      <trkpt lat="44.70387" lon="5.99141">
        <ele>1724</ele>
        <time>2021-09-20T09:07:35Z</time>
      </trkpt>
      <trkpt lat="44.70387" lon="5.9914">
        <ele>1724</ele>
        <time>2021-09-20T09:07:36Z</time>
      </trkpt>
      <trkpt lat="44.70387" lon="5.99139">
        <ele>1724</ele>
        <time>2021-09-20T09:07:37Z</time>
      </trkpt>
      <trkpt lat="44.70387" lon="5.99138">
        <ele>1723</ele>
        <time>2021-09-20T09:07:38Z</time>
      </trkpt>
      <trkpt lat="44.70387" lon="5.99137">
        <ele>1723</ele>
        <time>2021-09-20T09:07:39Z</time>
      </trkpt>
      <trkpt lat="44.70387" lon="5.99136">
        <ele>1723</ele>
        <time>2021-09-20T09:07:40Z</time>
      </trkpt>
      <trkpt lat="44.70387" lon="5.99135">
        <ele>1723</ele>
        <time>2021-09-20T09:07:41Z</time>
      </trkpt>
      <trkpt lat="44.70386" lon="5.99134">
        <ele>1723</ele>
        <time>2021-09-20T09:07:42Z</time>
      </trkpt>
      <trkpt lat="44.70386" lon="5.99133">
        <ele>1723</ele>
        <time>2021-09-20T09:07:43Z</time>
      </trkpt>
      <trkpt lat="44.70386" lon="5.99132">
        <ele>1723</ele>
        <time>2021-09-20T09:07:44Z</time>
      </trkpt>
      <trkpt lat="44.70387" lon="5.99131">
        <ele>1723</ele>
        <time>2021-09-20T09:07:45Z</time>
      </trkpt>
      <trkpt lat="44.70387" lon="5.9913">
        <ele>1723</ele>
        <time>2021-09-20T09:07:46Z</time>
      </trkpt>
      <trkpt lat="44.70388" lon="5.99129">
        <ele>1723</ele>
        <time>2021-09-20T09:07:47Z</time>
      </trkpt>
      <trkpt lat="44.70388" lon="5.99128">
        <ele>1722</ele>
        <time>2021-09-20T09:07:48Z</time>
      </trkpt>
      <trkpt lat="44.70389" lon="5.99127">
        <ele>1721</ele>
        <time>2021-09-20T09:07:49Z</time>
      </trkpt>
      <trkpt lat="44.70389" lon="5.99126">
        <ele>1721</ele>
        <time>2021-09-20T09:07:50Z</time>
      </trkpt>
      <trkpt lat="44.70389" lon="5.99125">
        <ele>1720</ele>
        <time>2021-09-20T09:07:51Z</time>
      </trkpt>
      <trkpt lat="44.70388" lon="5.99124">
        <ele>1720</ele>
        <time>2021-09-20T09:07:52Z</time>
      </trkpt>
      <trkpt lat="44.70388" lon="5.99123">
        <ele>1719</ele>
        <time>2021-09-20T09:07:53Z</time>
      </trkpt>
      <trkpt lat="44.70388" lon="5.99122">
        <ele>1719</ele>
        <time>2021-09-20T09:07:54Z</time>
      </trkpt>
      <trkpt lat="44.70387" lon="5.99121">
        <ele>1719</ele>
        <time>2021-09-20T09:07:55Z</time>
      </trkpt>
      <trkpt lat="44.70387" lon="5.99119">
        <ele>1719</ele>
        <time>2021-09-20T09:07:56Z</time>
      </trkpt>
      <trkpt lat="44.70386" lon="5.99118">
        <ele>1719</ele>
        <time>2021-09-20T09:07:57Z</time>
      </trkpt>
      <trkpt lat="44.70386" lon="5.99117">
        <ele>1719</ele>
        <time>2021-09-20T09:07:58Z</time>
      </trkpt>
      <trkpt lat="44.70386" lon="5.99116">
        <ele>1719</ele>
        <time>2021-09-20T09:07:59Z</time>
      </trkpt>
      <trkpt lat="44.70386" lon="5.99115">
        <ele>1719</ele>
        <time>2021-09-20T09:08:00Z</time>
      </trkpt>
      <trkpt lat="44.70386" lon="5.99114">
        <ele>1719</ele>
        <time>2021-09-20T09:08:01Z</time>
      </trkpt>
      <trkpt lat="44.70386" lon="5.99113">
        <ele>1719</ele>
        <time>2021-09-20T09:08:02Z</time>
      </trkpt>
      <trkpt lat="44.70387" lon="5.99112">
        <ele>1718</ele>
        <time>2021-09-20T09:08:03Z</time>
      </trkpt>
      <trkpt lat="44.70387" lon="5.99111">
        <ele>1718</ele>
        <time>2021-09-20T09:08:04Z</time>
      </trkpt>
      <trkpt lat="44.70387" lon="5.99109">
        <ele>1717</ele>
        <time>2021-09-20T09:08:05Z</time>
      </trkpt>
      <trkpt lat="44.70387" lon="5.99108">
        <ele>1717</ele>
        <time>2021-09-20T09:08:06Z</time>
      </trkpt>
      <trkpt lat="44.70387" lon="5.99107">
        <ele>1717</ele>
        <time>2021-09-20T09:08:07Z</time>
      </trkpt>
      <trkpt lat="44.70387" lon="5.99106">
        <ele>1716</ele>
        <time>2021-09-20T09:08:08Z</time>
      </trkpt>
      <trkpt lat="44.70386" lon="5.99104">
        <ele>1716</ele>
        <time>2021-09-20T09:08:09Z</time>
      </trkpt>
      <trkpt lat="44.70386" lon="5.99103">
        <ele>1716</ele>
        <time>2021-09-20T09:08:10Z</time>
      </trkpt>
      <trkpt lat="44.70386" lon="5.99102">
        <ele>1716</ele>
        <time>2021-09-20T09:08:11Z</time>
      </trkpt>
      <trkpt lat="44.70386" lon="5.99101">
        <ele>1716</ele>
        <time>2021-09-20T09:08:12Z</time>
      </trkpt>
      <trkpt lat="44.70387" lon="5.991">
        <ele>1715</ele>
        <time>2021-09-20T09:08:13Z</time>
      </trkpt>
      <trkpt lat="44.70387" lon="5.991">
        <ele>1715</ele>
        <time>2021-09-20T09:08:14Z</time>
      </trkpt>
      <trkpt lat="44.70387" lon="5.99099">
        <ele>1715</ele>
        <time>2021-09-20T09:08:15Z</time>
      </trkpt>
      <trkpt lat="44.70388" lon="5.99098">
        <ele>1715</ele>
        <time>2021-09-20T09:08:16Z</time>
      </trkpt>
      <trkpt lat="44.70388" lon="5.99098">
        <ele>1715</ele>
        <time>2021-09-20T09:08:17Z</time>
      </trkpt>
      <trkpt lat="44.70388" lon="5.99097">
        <ele>1715</ele>
        <time>2021-09-20T09:08:18Z</time>
      </trkpt>
      <trkpt lat="44.70389" lon="5.99096">
        <ele>1715</ele>
        <time>2021-09-20T09:08:19Z</time>
      </trkpt>
      <trkpt lat="44.70389" lon="5.99096">
        <ele>1715</ele>
        <time>2021-09-20T09:08:20Z</time>
      </trkpt>
      <trkpt lat="44.7039" lon="5.99094">
        <ele>1714</ele>
        <time>2021-09-20T09:08:27Z</time>
      </trkpt>
      <trkpt lat="44.7039" lon="5.99093">
        <ele>1714</ele>
        <time>2021-09-20T09:08:28Z</time>
      </trkpt>
      <trkpt lat="44.70391" lon="5.99092">
        <ele>1714</ele>
        <time>2021-09-20T09:08:29Z</time>
      </trkpt>
      <trkpt lat="44.70391" lon="5.99091">
        <ele>1714</ele>
        <time>2021-09-20T09:08:30Z</time>
      </trkpt>
      <trkpt lat="44.70392" lon="5.9909">
        <ele>1714</ele>
        <time>2021-09-20T09:08:31Z</time>
      </trkpt>
      <trkpt lat="44.70392" lon="5.9909">
        <ele>1714</ele>
        <time>2021-09-20T09:08:32Z</time>
      </trkpt>
      <trkpt lat="44.70393" lon="5.99089">
        <ele>1714</ele>
        <time>2021-09-20T09:08:33Z</time>
      </trkpt>
      <trkpt lat="44.70394" lon="5.99089">
        <ele>1714</ele>
        <time>2021-09-20T09:08:34Z</time>
      </trkpt>
      <trkpt lat="44.70394" lon="5.99088">
        <ele>1714</ele>
        <time>2021-09-20T09:08:35Z</time>
      </trkpt>
      <trkpt lat="44.70395" lon="5.99087">
        <ele>1714</ele>
        <time>2021-09-20T09:08:36Z</time>
      </trkpt>
      <trkpt lat="44.70396" lon="5.99086">
        <ele>1714</ele>
        <time>2021-09-20T09:08:37Z</time>
      </trkpt>
      <trkpt lat="44.70396" lon="5.99086">
        <ele>1714</ele>
        <time>2021-09-20T09:08:38Z</time>
      </trkpt>
      <trkpt lat="44.70397" lon="5.99085">
        <ele>1714</ele>
        <time>2021-09-20T09:08:39Z</time>
      </trkpt>
      <trkpt lat="44.70398" lon="5.99084">
        <ele>1714</ele>
        <time>2021-09-20T09:08:40Z</time>
      </trkpt>
      <trkpt lat="44.70398" lon="5.99084">
        <ele>1714</ele>
        <time>2021-09-20T09:08:41Z</time>
      </trkpt>
      <trkpt lat="44.70399" lon="5.99084">
        <ele>1714</ele>
        <time>2021-09-20T09:08:42Z</time>
      </trkpt>
      <trkpt lat="44.704" lon="5.99084">
        <ele>1714</ele>
        <time>2021-09-20T09:08:43Z</time>
      </trkpt>
      <trkpt lat="44.70401" lon="5.99083">
        <ele>1714</ele>
        <time>2021-09-20T09:08:44Z</time>
      </trkpt>
      <trkpt lat="44.70401" lon="5.99083">
        <ele>1714</ele>
        <time>2021-09-20T09:08:45Z</time>
      </trkpt>
      <trkpt lat="44.70402" lon="5.99083">
        <ele>1715</ele>
        <time>2021-09-20T09:09:18Z</time>
      </trkpt>
      <trkpt lat="44.70403" lon="5.99082">
        <ele>1715</ele>
        <time>2021-09-20T09:09:19Z</time>
      </trkpt>
      <trkpt lat="44.70404" lon="5.99082">
        <ele>1715</ele>
        <time>2021-09-20T09:09:20Z</time>
      </trkpt>
      <trkpt lat="44.70405" lon="5.99081">
        <ele>1715</ele>
        <time>2021-09-20T09:09:21Z</time>
      </trkpt>
      <trkpt lat="44.70405" lon="5.99081">
        <ele>1715</ele>
        <time>2021-09-20T09:09:22Z</time>
      </trkpt>
      <trkpt lat="44.70406" lon="5.9908">
        <ele>1715</ele>
        <time>2021-09-20T09:09:23Z</time>
      </trkpt>
      <trkpt lat="44.70407" lon="5.9908">
        <ele>1715</ele>
        <time>2021-09-20T09:09:24Z</time>
      </trkpt>
      <trkpt lat="44.70407" lon="5.99079">
        <ele>1715</ele>
        <time>2021-09-20T09:09:25Z</time>
      </trkpt>
      <trkpt lat="44.70408" lon="5.99079">
        <ele>1715</ele>
        <time>2021-09-20T09:09:26Z</time>
      </trkpt>
      <trkpt lat="44.70409" lon="5.99079">
        <ele>1716</ele>
        <time>2021-09-20T09:09:33Z</time>
      </trkpt>
      <trkpt lat="44.70409" lon="5.99079">
        <ele>1716</ele>
        <time>2021-09-20T09:09:34Z</time>
      </trkpt>
      <trkpt lat="44.7041" lon="5.99079">
        <ele>1716</ele>
        <time>2021-09-20T09:09:35Z</time>
      </trkpt>
      <trkpt lat="44.7041" lon="5.99079">
        <ele>1716</ele>
        <time>2021-09-20T09:09:36Z</time>
      </trkpt>
      <trkpt lat="44.7041" lon="5.99078">
        <ele>1717</ele>
        <time>2021-09-20T09:09:37Z</time>
      </trkpt>
      <trkpt lat="44.70411" lon="5.99078">
        <ele>1717</ele>
        <time>2021-09-20T09:09:38Z</time>
      </trkpt>
      <trkpt lat="44.70411" lon="5.99077">
        <ele>1717</ele>
        <time>2021-09-20T09:09:39Z</time>
      </trkpt>
      <trkpt lat="44.70411" lon="5.99076">
        <ele>1717</ele>
        <time>2021-09-20T09:09:40Z</time>
      </trkpt>
      <trkpt lat="44.70412" lon="5.99075">
        <ele>1717</ele>
        <time>2021-09-20T09:09:41Z</time>
      </trkpt>
      <trkpt lat="44.70413" lon="5.99074">
        <ele>1717</ele>
        <time>2021-09-20T09:09:42Z</time>
      </trkpt>
      <trkpt lat="44.70413" lon="5.99074">
        <ele>1717</ele>
        <time>2021-09-20T09:09:43Z</time>
      </trkpt>
      <trkpt lat="44.70414" lon="5.99073">
        <ele>1717</ele>
        <time>2021-09-20T09:09:44Z</time>
      </trkpt>
      <trkpt lat="44.70414" lon="5.99072">
        <ele>1717</ele>
        <time>2021-09-20T09:09:45Z</time>
      </trkpt>
      <trkpt lat="44.70415" lon="5.99072">
        <ele>1717</ele>
        <time>2021-09-20T09:09:46Z</time>
      </trkpt>
      <trkpt lat="44.70415" lon="5.99071">
        <ele>1717</ele>
        <time>2021-09-20T09:09:47Z</time>
      </trkpt>
      <trkpt lat="44.70416" lon="5.9907">
        <ele>1717</ele>
        <time>2021-09-20T09:09:48Z</time>
      </trkpt>
      <trkpt lat="44.70416" lon="5.9907">
        <ele>1717</ele>
        <time>2021-09-20T09:09:49Z</time>
      </trkpt>
      <trkpt lat="44.70416" lon="5.99069">
        <ele>1717</ele>
        <time>2021-09-20T09:09:50Z</time>
      </trkpt>
      <trkpt lat="44.70417" lon="5.99068">
        <ele>1717</ele>
        <time>2021-09-20T09:09:51Z</time>
      </trkpt>
      <trkpt lat="44.70417" lon="5.99068">
        <ele>1718</ele>
        <time>2021-09-20T09:09:52Z</time>
      </trkpt>
      <trkpt lat="44.70418" lon="5.99067">
        <ele>1718</ele>
        <time>2021-09-20T09:09:53Z</time>
      </trkpt>
      <trkpt lat="44.70418" lon="5.99066">
        <ele>1718</ele>
        <time>2021-09-20T09:09:54Z</time>
      </trkpt>
      <trkpt lat="44.70419" lon="5.99066">
        <ele>1718</ele>
        <time>2021-09-20T09:09:55Z</time>
      </trkpt>
      <trkpt lat="44.7042" lon="5.99065">
        <ele>1718</ele>
        <time>2021-09-20T09:09:56Z</time>
      </trkpt>
      <trkpt lat="44.7042" lon="5.99064">
        <ele>1718</ele>
        <time>2021-09-20T09:09:57Z</time>
      </trkpt>
      <trkpt lat="44.70421" lon="5.99064">
        <ele>1718</ele>
        <time>2021-09-20T09:09:58Z</time>
      </trkpt>
      <trkpt lat="44.70422" lon="5.99063">
        <ele>1718</ele>
        <time>2021-09-20T09:09:59Z</time>
      </trkpt>
      <trkpt lat="44.70423" lon="5.99063">
        <ele>1718</ele>
        <time>2021-09-20T09:10:00Z</time>
      </trkpt>
      <trkpt lat="44.70423" lon="5.99062">
        <ele>1718</ele>
        <time>2021-09-20T09:10:01Z</time>
      </trkpt>
      <trkpt lat="44.70424" lon="5.99062">
        <ele>1719</ele>
        <time>2021-09-20T09:10:02Z</time>
      </trkpt>
      <trkpt lat="44.70424" lon="5.99061">
        <ele>1719</ele>
        <time>2021-09-20T09:10:03Z</time>
      </trkpt>
      <trkpt lat="44.70425" lon="5.9906">
        <ele>1719</ele>
        <time>2021-09-20T09:10:04Z</time>
      </trkpt>
      <trkpt lat="44.70425" lon="5.9906">
        <ele>1719</ele>
        <time>2021-09-20T09:10:05Z</time>
      </trkpt>
      <trkpt lat="44.70426" lon="5.99059">
        <ele>1719</ele>
        <time>2021-09-20T09:10:06Z</time>
      </trkpt>
      <trkpt lat="44.70426" lon="5.99059">
        <ele>1720</ele>
        <time>2021-09-20T09:10:07Z</time>
      </trkpt>
      <trkpt lat="44.70427" lon="5.99058">
        <ele>1720</ele>
        <time>2021-09-20T09:10:08Z</time>
      </trkpt>
      <trkpt lat="44.70428" lon="5.99058">
        <ele>1720</ele>
        <time>2021-09-20T09:10:09Z</time>
      </trkpt>
      <trkpt lat="44.70428" lon="5.99057">
        <ele>1720</ele>
        <time>2021-09-20T09:10:10Z</time>
      </trkpt>
      <trkpt lat="44.70429" lon="5.99057">
        <ele>1720</ele>
        <time>2021-09-20T09:10:11Z</time>
      </trkpt>
      <trkpt lat="44.7043" lon="5.99057">
        <ele>1720</ele>
        <time>2021-09-20T09:10:12Z</time>
      </trkpt>
      <trkpt lat="44.70431" lon="5.99057">
        <ele>1720</ele>
        <time>2021-09-20T09:10:13Z</time>
      </trkpt>
      <trkpt lat="44.70432" lon="5.99056">
        <ele>1720</ele>
        <time>2021-09-20T09:10:14Z</time>
      </trkpt>
      <trkpt lat="44.70433" lon="5.99056">
        <ele>1720</ele>
        <time>2021-09-20T09:10:15Z</time>
      </trkpt>
      <trkpt lat="44.70433" lon="5.99056">
        <ele>1720</ele>
        <time>2021-09-20T09:10:16Z</time>
      </trkpt>
      <trkpt lat="44.70434" lon="5.99056">
        <ele>1720</ele>
        <time>2021-09-20T09:10:17Z</time>
      </trkpt>
      <trkpt lat="44.70435" lon="5.99055">
        <ele>1720</ele>
        <time>2021-09-20T09:10:18Z</time>
      </trkpt>
      <trkpt lat="44.70436" lon="5.99055">
        <ele>1720</ele>
        <time>2021-09-20T09:10:19Z</time>
      </trkpt>
      <trkpt lat="44.70437" lon="5.99055">
        <ele>1720</ele>
        <time>2021-09-20T09:10:20Z</time>
      </trkpt>
      <trkpt lat="44.70437" lon="5.99054">
        <ele>1720</ele>
        <time>2021-09-20T09:10:21Z</time>
      </trkpt>
      <trkpt lat="44.70438" lon="5.99053">
        <ele>1721</ele>
        <time>2021-09-20T09:10:22Z</time>
      </trkpt>
      <trkpt lat="44.70439" lon="5.99053">
        <ele>1721</ele>
        <time>2021-09-20T09:10:23Z</time>
      </trkpt>
      <trkpt lat="44.7044" lon="5.99052">
        <ele>1721</ele>
        <time>2021-09-20T09:10:24Z</time>
      </trkpt>
      <trkpt lat="44.70441" lon="5.99052">
        <ele>1721</ele>
        <time>2021-09-20T09:10:25Z</time>
      </trkpt>
      <trkpt lat="44.70441" lon="5.99051">
        <ele>1721</ele>
        <time>2021-09-20T09:10:26Z</time>
      </trkpt>
      <trkpt lat="44.70442" lon="5.99051">
        <ele>1721</ele>
        <time>2021-09-20T09:10:27Z</time>
      </trkpt>
      <trkpt lat="44.70443" lon="5.99051">
        <ele>1721</ele>
        <time>2021-09-20T09:10:28Z</time>
      </trkpt>
      <trkpt lat="44.70444" lon="5.9905">
        <ele>1721</ele>
        <time>2021-09-20T09:10:29Z</time>
      </trkpt>
      <trkpt lat="44.70445" lon="5.99049">
        <ele>1721</ele>
        <time>2021-09-20T09:10:30Z</time>
      </trkpt>
      <trkpt lat="44.70445" lon="5.99049">
        <ele>1721</ele>
        <time>2021-09-20T09:10:31Z</time>
      </trkpt>
      <trkpt lat="44.70446" lon="5.99048">
        <ele>1722</ele>
        <time>2021-09-20T09:10:32Z</time>
      </trkpt>
      <trkpt lat="44.70446" lon="5.99047">
        <ele>1722</ele>
        <time>2021-09-20T09:10:33Z</time>
      </trkpt>
      <trkpt lat="44.70447" lon="5.99047">
        <ele>1722</ele>
        <time>2021-09-20T09:10:34Z</time>
      </trkpt>
      <trkpt lat="44.70447" lon="5.99046">
        <ele>1722</ele>
        <time>2021-09-20T09:10:35Z</time>
      </trkpt>
      <trkpt lat="44.70448" lon="5.99045">
        <ele>1722</ele>
        <time>2021-09-20T09:10:36Z</time>
      </trkpt>
      <trkpt lat="44.70448" lon="5.99045">
        <ele>1722</ele>
        <time>2021-09-20T09:10:37Z</time>
      </trkpt>
      <trkpt lat="44.70449" lon="5.99044">
        <ele>1722</ele>
        <time>2021-09-20T09:10:38Z</time>
      </trkpt>
      <trkpt lat="44.70449" lon="5.99043">
        <ele>1722</ele>
        <time>2021-09-20T09:10:39Z</time>
      </trkpt>
      <trkpt lat="44.7045" lon="5.99042">
        <ele>1722</ele>
        <time>2021-09-20T09:10:40Z</time>
      </trkpt>
      <trkpt lat="44.70451" lon="5.99042">
        <ele>1722</ele>
        <time>2021-09-20T09:10:41Z</time>
      </trkpt>
      <trkpt lat="44.70451" lon="5.99041">
        <ele>1722</ele>
        <time>2021-09-20T09:10:42Z</time>
      </trkpt>
      <trkpt lat="44.70452" lon="5.9904">
        <ele>1722</ele>
        <time>2021-09-20T09:10:43Z</time>
      </trkpt>
      <trkpt lat="44.70453" lon="5.9904">
        <ele>1722</ele>
        <time>2021-09-20T09:10:44Z</time>
      </trkpt>
      <trkpt lat="44.70454" lon="5.99039">
        <ele>1722</ele>
        <time>2021-09-20T09:10:45Z</time>
      </trkpt>
      <trkpt lat="44.70454" lon="5.99039">
        <ele>1722</ele>
        <time>2021-09-20T09:10:46Z</time>
      </trkpt>
      <trkpt lat="44.70455" lon="5.99039">
        <ele>1723</ele>
        <time>2021-09-20T09:10:47Z</time>
      </trkpt>
      <trkpt lat="44.70456" lon="5.99039">
        <ele>1723</ele>
        <time>2021-09-20T09:10:48Z</time>
      </trkpt>
      <trkpt lat="44.70456" lon="5.99039">
        <ele>1723</ele>
        <time>2021-09-20T09:10:49Z</time>
      </trkpt>
      <trkpt lat="44.70457" lon="5.99039">
        <ele>1723</ele>
        <time>2021-09-20T09:10:50Z</time>
      </trkpt>
      <trkpt lat="44.70458" lon="5.9904">
        <ele>1723</ele>
        <time>2021-09-20T09:10:51Z</time>
      </trkpt>
      <trkpt lat="44.70459" lon="5.9904">
        <ele>1723</ele>
        <time>2021-09-20T09:10:52Z</time>
      </trkpt>
      <trkpt lat="44.70459" lon="5.99041">
        <ele>1723</ele>
        <time>2021-09-20T09:10:53Z</time>
      </trkpt>
      <trkpt lat="44.7046" lon="5.99041">
        <ele>1723</ele>
        <time>2021-09-20T09:10:54Z</time>
      </trkpt>
      <trkpt lat="44.7046" lon="5.99041">
        <ele>1723</ele>
        <time>2021-09-20T09:10:55Z</time>
      </trkpt>
      <trkpt lat="44.7046" lon="5.9904">
        <ele>1723</ele>
        <time>2021-09-20T09:10:56Z</time>
      </trkpt>
      <trkpt lat="44.70461" lon="5.99039">
        <ele>1724</ele>
        <time>2021-09-20T09:10:57Z</time>
      </trkpt>
      <trkpt lat="44.70462" lon="5.99038">
        <ele>1724</ele>
        <time>2021-09-20T09:10:58Z</time>
      </trkpt>
      <trkpt lat="44.70462" lon="5.99038">
        <ele>1724</ele>
        <time>2021-09-20T09:10:59Z</time>
      </trkpt>
      <trkpt lat="44.70463" lon="5.99037">
        <ele>1724</ele>
        <time>2021-09-20T09:11:00Z</time>
      </trkpt>
      <trkpt lat="44.70464" lon="5.99037">
        <ele>1724</ele>
        <time>2021-09-20T09:11:01Z</time>
      </trkpt>
      <trkpt lat="44.70465" lon="5.99037">
        <ele>1724</ele>
        <time>2021-09-20T09:11:02Z</time>
      </trkpt>
      <trkpt lat="44.70466" lon="5.99037">
        <ele>1724</ele>
        <time>2021-09-20T09:11:03Z</time>
      </trkpt>
      <trkpt lat="44.70467" lon="5.99037">
        <ele>1724</ele>
        <time>2021-09-20T09:11:04Z</time>
      </trkpt>
      <trkpt lat="44.70469" lon="5.99035">
        <ele>1725</ele>
        <time>2021-09-20T09:11:13Z</time>
      </trkpt>
      <trkpt lat="44.7047" lon="5.99034">
        <ele>1725</ele>
        <time>2021-09-20T09:11:14Z</time>
      </trkpt>
      <trkpt lat="44.7047" lon="5.99034">
        <ele>1725</ele>
        <time>2021-09-20T09:11:15Z</time>
      </trkpt>
      <trkpt lat="44.70471" lon="5.99033">
        <ele>1725</ele>
        <time>2021-09-20T09:11:16Z</time>
      </trkpt>
      <trkpt lat="44.70471" lon="5.99032">
        <ele>1725</ele>
        <time>2021-09-20T09:11:17Z</time>
      </trkpt>
      <trkpt lat="44.70472" lon="5.99031">
        <ele>1725</ele>
        <time>2021-09-20T09:11:18Z</time>
      </trkpt>
      <trkpt lat="44.70472" lon="5.9903">
        <ele>1725</ele>
        <time>2021-09-20T09:11:19Z</time>
      </trkpt>
      <trkpt lat="44.70473" lon="5.9903">
        <ele>1725</ele>
        <time>2021-09-20T09:11:20Z</time>
      </trkpt>
      <trkpt lat="44.70473" lon="5.99029">
        <ele>1725</ele>
        <time>2021-09-20T09:11:21Z</time>
      </trkpt>
      <trkpt lat="44.70473" lon="5.99028">
        <ele>1725</ele>
        <time>2021-09-20T09:11:22Z</time>
      </trkpt>
      <trkpt lat="44.70474" lon="5.99027">
        <ele>1725</ele>
        <time>2021-09-20T09:11:23Z</time>
      </trkpt>
      <trkpt lat="44.70474" lon="5.99026">
        <ele>1725</ele>
        <time>2021-09-20T09:11:24Z</time>
      </trkpt>
      <trkpt lat="44.70474" lon="5.99026">
        <ele>1725</ele>
        <time>2021-09-20T09:11:25Z</time>
      </trkpt>
      <trkpt lat="44.70475" lon="5.99025">
        <ele>1725</ele>
        <time>2021-09-20T09:11:26Z</time>
      </trkpt>
      <trkpt lat="44.70475" lon="5.99025">
        <ele>1726</ele>
        <time>2021-09-20T09:11:27Z</time>
      </trkpt>
      <trkpt lat="44.70475" lon="5.99024">
        <ele>1726</ele>
        <time>2021-09-20T09:11:28Z</time>
      </trkpt>
      <trkpt lat="44.70475" lon="5.99023">
        <ele>1726</ele>
        <time>2021-09-20T09:11:29Z</time>
      </trkpt>
      <trkpt lat="44.70476" lon="5.99022">
        <ele>1726</ele>
        <time>2021-09-20T09:11:30Z</time>
      </trkpt>
      <trkpt lat="44.70476" lon="5.9902">
        <ele>1726</ele>
        <time>2021-09-20T09:11:31Z</time>
      </trkpt>
      <trkpt lat="44.70477" lon="5.99019">
        <ele>1726</ele>
        <time>2021-09-20T09:11:32Z</time>
      </trkpt>
      <trkpt lat="44.70477" lon="5.99018">
        <ele>1726</ele>
        <time>2021-09-20T09:11:33Z</time>
      </trkpt>
      <trkpt lat="44.70478" lon="5.99016">
        <ele>1726</ele>
        <time>2021-09-20T09:11:34Z</time>
      </trkpt>
      <trkpt lat="44.70479" lon="5.99015">
        <ele>1726</ele>
        <time>2021-09-20T09:11:35Z</time>
      </trkpt>
      <trkpt lat="44.70479" lon="5.99014">
        <ele>1726</ele>
        <time>2021-09-20T09:11:36Z</time>
      </trkpt>
      <trkpt lat="44.7048" lon="5.99014">
        <ele>1726</ele>
        <time>2021-09-20T09:11:37Z</time>
      </trkpt>
      <trkpt lat="44.70481" lon="5.99013">
        <ele>1726</ele>
        <time>2021-09-20T09:11:38Z</time>
      </trkpt>
      <trkpt lat="44.70482" lon="5.99013">
        <ele>1726</ele>
        <time>2021-09-20T09:11:39Z</time>
      </trkpt>
      <trkpt lat="44.70483" lon="5.99012">
        <ele>1726</ele>
        <time>2021-09-20T09:11:40Z</time>
      </trkpt>
      <trkpt lat="44.70483" lon="5.99011">
        <ele>1726</ele>
        <time>2021-09-20T09:11:41Z</time>
      </trkpt>
      <trkpt lat="44.70484" lon="5.9901">
        <ele>1726</ele>
        <time>2021-09-20T09:11:42Z</time>
      </trkpt>
      <trkpt lat="44.70484" lon="5.99009">
        <ele>1726</ele>
        <time>2021-09-20T09:11:43Z</time>
      </trkpt>
      <trkpt lat="44.70485" lon="5.99008">
        <ele>1726</ele>
        <time>2021-09-20T09:11:44Z</time>
      </trkpt>
      <trkpt lat="44.70485" lon="5.99007">
        <ele>1726</ele>
        <time>2021-09-20T09:11:45Z</time>
      </trkpt>
      <trkpt lat="44.70486" lon="5.99006">
        <ele>1726</ele>
        <time>2021-09-20T09:11:46Z</time>
      </trkpt>
      <trkpt lat="44.70486" lon="5.99005">
        <ele>1726</ele>
        <time>2021-09-20T09:11:47Z</time>
      </trkpt>
      <trkpt lat="44.70486" lon="5.99004">
        <ele>1726</ele>
        <time>2021-09-20T09:11:48Z</time>
      </trkpt>
      <trkpt lat="44.70487" lon="5.99003">
        <ele>1726</ele>
        <time>2021-09-20T09:11:49Z</time>
      </trkpt>
      <trkpt lat="44.70487" lon="5.99003">
        <ele>1726</ele>
        <time>2021-09-20T09:11:50Z</time>
      </trkpt>
      <trkpt lat="44.70488" lon="5.99002">
        <ele>1726</ele>
        <time>2021-09-20T09:11:51Z</time>
      </trkpt>
      <trkpt lat="44.70488" lon="5.99001">
        <ele>1726</ele>
        <time>2021-09-20T09:11:52Z</time>
      </trkpt>
      <trkpt lat="44.70489" lon="5.99">
        <ele>1726</ele>
        <time>2021-09-20T09:11:53Z</time>
      </trkpt>
      <trkpt lat="44.70489" lon="5.98999">
        <ele>1726</ele>
        <time>2021-09-20T09:11:54Z</time>
      </trkpt>
      <trkpt lat="44.70489" lon="5.98998">
        <ele>1726</ele>
        <time>2021-09-20T09:11:55Z</time>
      </trkpt>
      <trkpt lat="44.7049" lon="5.98997">
        <ele>1726</ele>
        <time>2021-09-20T09:11:56Z</time>
      </trkpt>
      <trkpt lat="44.7049" lon="5.98996">
        <ele>1726</ele>
        <time>2021-09-20T09:11:57Z</time>
      </trkpt>
      <trkpt lat="44.7049" lon="5.98995">
        <ele>1726</ele>
        <time>2021-09-20T09:11:58Z</time>
      </trkpt>
      <trkpt lat="44.7049" lon="5.98994">
        <ele>1726</ele>
        <time>2021-09-20T09:11:59Z</time>
      </trkpt>
      <trkpt lat="44.70491" lon="5.98993">
        <ele>1726</ele>
        <time>2021-09-20T09:12:00Z</time>
      </trkpt>
      <trkpt lat="44.70491" lon="5.98992">
        <ele>1726</ele>
        <time>2021-09-20T09:12:01Z</time>
      </trkpt>
      <trkpt lat="44.70491" lon="5.98992">
        <ele>1727</ele>
        <time>2021-09-20T09:12:02Z</time>
      </trkpt>
      <trkpt lat="44.70492" lon="5.98991">
        <ele>1727</ele>
        <time>2021-09-20T09:12:03Z</time>
      </trkpt>
      <trkpt lat="44.70492" lon="5.9899">
        <ele>1727</ele>
        <time>2021-09-20T09:12:04Z</time>
      </trkpt>
      <trkpt lat="44.70493" lon="5.9899">
        <ele>1727</ele>
        <time>2021-09-20T09:12:05Z</time>
      </trkpt>
      <trkpt lat="44.70493" lon="5.9899">
        <ele>1727</ele>
        <time>2021-09-20T09:12:06Z</time>
      </trkpt>
      <trkpt lat="44.70494" lon="5.9899">
        <ele>1727</ele>
        <time>2021-09-20T09:12:07Z</time>
      </trkpt>
      <trkpt lat="44.70494" lon="5.9899">
        <ele>1727</ele>
        <time>2021-09-20T09:12:08Z</time>
      </trkpt>
      <trkpt lat="44.70495" lon="5.9899">
        <ele>1727</ele>
        <time>2021-09-20T09:12:09Z</time>
      </trkpt>
      <trkpt lat="44.70496" lon="5.98991">
        <ele>1727</ele>
        <time>2021-09-20T09:12:10Z</time>
      </trkpt>
      <trkpt lat="44.70497" lon="5.98991">
        <ele>1727</ele>
        <time>2021-09-20T09:12:11Z</time>
      </trkpt>
      <trkpt lat="44.70498" lon="5.98991">
        <ele>1728</ele>
        <time>2021-09-20T09:12:12Z</time>
      </trkpt>
      <trkpt lat="44.70499" lon="5.98991">
        <ele>1728</ele>
        <time>2021-09-20T09:12:13Z</time>
      </trkpt>
      <trkpt lat="44.705" lon="5.9899">
        <ele>1728</ele>
        <time>2021-09-20T09:12:14Z</time>
      </trkpt>
      <trkpt lat="44.70501" lon="5.9899">
        <ele>1728</ele>
        <time>2021-09-20T09:12:15Z</time>
      </trkpt>
      <trkpt lat="44.70501" lon="5.9899">
        <ele>1728</ele>
        <time>2021-09-20T09:12:16Z</time>
      </trkpt>
      <trkpt lat="44.70502" lon="5.98989">
        <ele>1729</ele>
        <time>2021-09-20T09:12:17Z</time>
      </trkpt>
      <trkpt lat="44.70502" lon="5.98989">
        <ele>1729</ele>
        <time>2021-09-20T09:12:18Z</time>
      </trkpt>
      <trkpt lat="44.70502" lon="5.98988">
        <ele>1729</ele>
        <time>2021-09-20T09:12:19Z</time>
      </trkpt>
      <trkpt lat="44.70502" lon="5.98987">
        <ele>1729</ele>
        <time>2021-09-20T09:12:20Z</time>
      </trkpt>
      <trkpt lat="44.70502" lon="5.98986">
        <ele>1729</ele>
        <time>2021-09-20T09:12:21Z</time>
      </trkpt>
      <trkpt lat="44.70502" lon="5.98985">
        <ele>1729</ele>
        <time>2021-09-20T09:12:22Z</time>
      </trkpt>
      <trkpt lat="44.70502" lon="5.98984">
        <ele>1729</ele>
        <time>2021-09-20T09:12:23Z</time>
      </trkpt>
      <trkpt lat="44.70501" lon="5.98983">
        <ele>1729</ele>
        <time>2021-09-20T09:12:24Z</time>
      </trkpt>
      <trkpt lat="44.70501" lon="5.98983">
        <ele>1729</ele>
        <time>2021-09-20T09:12:25Z</time>
      </trkpt>
      <trkpt lat="44.70501" lon="5.98982">
        <ele>1729</ele>
        <time>2021-09-20T09:12:26Z</time>
      </trkpt>
      <trkpt lat="44.705" lon="5.98981">
        <ele>1730</ele>
        <time>2021-09-20T09:12:27Z</time>
      </trkpt>
      <trkpt lat="44.705" lon="5.9898">
        <ele>1730</ele>
        <time>2021-09-20T09:12:28Z</time>
      </trkpt>
      <trkpt lat="44.705" lon="5.98979">
        <ele>1730</ele>
        <time>2021-09-20T09:12:29Z</time>
      </trkpt>
      <trkpt lat="44.705" lon="5.98978">
        <ele>1730</ele>
        <time>2021-09-20T09:12:30Z</time>
      </trkpt>
      <trkpt lat="44.705" lon="5.98977">
        <ele>1730</ele>
        <time>2021-09-20T09:12:31Z</time>
      </trkpt>
      <trkpt lat="44.70501" lon="5.98976">
        <ele>1731</ele>
        <time>2021-09-20T09:12:32Z</time>
      </trkpt>
      <trkpt lat="44.70501" lon="5.98975">
        <ele>1731</ele>
        <time>2021-09-20T09:12:33Z</time>
      </trkpt>
      <trkpt lat="44.70501" lon="5.98974">
        <ele>1731</ele>
        <time>2021-09-20T09:12:34Z</time>
      </trkpt>
      <trkpt lat="44.70501" lon="5.98973">
        <ele>1731</ele>
        <time>2021-09-20T09:12:35Z</time>
      </trkpt>
      <trkpt lat="44.70501" lon="5.98972">
        <ele>1731</ele>
        <time>2021-09-20T09:12:36Z</time>
      </trkpt>
      <trkpt lat="44.70502" lon="5.9897">
        <ele>1732</ele>
        <time>2021-09-20T09:12:42Z</time>
      </trkpt>
      <trkpt lat="44.70502" lon="5.98969">
        <ele>1732</ele>
        <time>2021-09-20T09:12:43Z</time>
      </trkpt>
      <trkpt lat="44.70502" lon="5.98968">
        <ele>1732</ele>
        <time>2021-09-20T09:12:44Z</time>
      </trkpt>
      <trkpt lat="44.70502" lon="5.98967">
        <ele>1732</ele>
        <time>2021-09-20T09:12:45Z</time>
      </trkpt>
      <trkpt lat="44.70502" lon="5.98966">
        <ele>1732</ele>
        <time>2021-09-20T09:12:46Z</time>
      </trkpt>
      <trkpt lat="44.70502" lon="5.98965">
        <ele>1733</ele>
        <time>2021-09-20T09:12:47Z</time>
      </trkpt>
      <trkpt lat="44.70503" lon="5.98964">
        <ele>1733</ele>
        <time>2021-09-20T09:12:48Z</time>
      </trkpt>
      <trkpt lat="44.70503" lon="5.98964">
        <ele>1733</ele>
        <time>2021-09-20T09:12:49Z</time>
      </trkpt>
      <trkpt lat="44.70503" lon="5.98963">
        <ele>1733</ele>
        <time>2021-09-20T09:12:50Z</time>
      </trkpt>
      <trkpt lat="44.70503" lon="5.98962">
        <ele>1733</ele>
        <time>2021-09-20T09:12:51Z</time>
      </trkpt>
      <trkpt lat="44.70503" lon="5.98961">
        <ele>1734</ele>
        <time>2021-09-20T09:12:52Z</time>
      </trkpt>
      <trkpt lat="44.70503" lon="5.9896">
        <ele>1734</ele>
        <time>2021-09-20T09:12:53Z</time>
      </trkpt>
      <trkpt lat="44.70503" lon="5.9896">
        <ele>1734</ele>
        <time>2021-09-20T09:12:54Z</time>
      </trkpt>
      <trkpt lat="44.70503" lon="5.98959">
        <ele>1734</ele>
        <time>2021-09-20T09:12:55Z</time>
      </trkpt>
      <trkpt lat="44.70503" lon="5.98958">
        <ele>1734</ele>
        <time>2021-09-20T09:12:56Z</time>
      </trkpt>
      <trkpt lat="44.70503" lon="5.98957">
        <ele>1735</ele>
        <time>2021-09-20T09:12:57Z</time>
      </trkpt>
      <trkpt lat="44.70503" lon="5.98956">
        <ele>1735</ele>
        <time>2021-09-20T09:12:58Z</time>
      </trkpt>
      <trkpt lat="44.70503" lon="5.98956">
        <ele>1735</ele>
        <time>2021-09-20T09:12:59Z</time>
      </trkpt>
      <trkpt lat="44.70503" lon="5.98955">
        <ele>1735</ele>
        <time>2021-09-20T09:13:00Z</time>
      </trkpt>
      <trkpt lat="44.70503" lon="5.98954">
        <ele>1735</ele>
        <time>2021-09-20T09:13:01Z</time>
      </trkpt>
      <trkpt lat="44.70503" lon="5.98954">
        <ele>1736</ele>
        <time>2021-09-20T09:13:02Z</time>
      </trkpt>
      <trkpt lat="44.70503" lon="5.98953">
        <ele>1736</ele>
        <time>2021-09-20T09:13:03Z</time>
      </trkpt>
      <trkpt lat="44.70503" lon="5.98951">
        <ele>1736</ele>
        <time>2021-09-20T09:13:04Z</time>
      </trkpt>
      <trkpt lat="44.70503" lon="5.9895">
        <ele>1736</ele>
        <time>2021-09-20T09:13:05Z</time>
      </trkpt>
      <trkpt lat="44.70503" lon="5.98949">
        <ele>1736</ele>
        <time>2021-09-20T09:13:06Z</time>
      </trkpt>
      <trkpt lat="44.70503" lon="5.98949">
        <ele>1737</ele>
        <time>2021-09-20T09:13:07Z</time>
      </trkpt>
      <trkpt lat="44.70503" lon="5.98948">
        <ele>1737</ele>
        <time>2021-09-20T09:13:08Z</time>
      </trkpt>
      <trkpt lat="44.70503" lon="5.98947">
        <ele>1737</ele>
        <time>2021-09-20T09:13:09Z</time>
      </trkpt>
      <trkpt lat="44.70503" lon="5.98946">
        <ele>1737</ele>
        <time>2021-09-20T09:13:10Z</time>
      </trkpt>
      <trkpt lat="44.70503" lon="5.98944">
        <ele>1738</ele>
        <time>2021-09-20T09:13:17Z</time>
      </trkpt>
      <trkpt lat="44.70503" lon="5.98943">
        <ele>1738</ele>
        <time>2021-09-20T09:13:18Z</time>
      </trkpt>
      <trkpt lat="44.70503" lon="5.98942">
        <ele>1738</ele>
        <time>2021-09-20T09:13:19Z</time>
      </trkpt>
      <trkpt lat="44.70503" lon="5.98941">
        <ele>1738</ele>
        <time>2021-09-20T09:13:20Z</time>
      </trkpt>
      <trkpt lat="44.70503" lon="5.9894">
        <ele>1738</ele>
        <time>2021-09-20T09:13:21Z</time>
      </trkpt>
      <trkpt lat="44.70503" lon="5.9894">
        <ele>1739</ele>
        <time>2021-09-20T09:13:22Z</time>
      </trkpt>
      <trkpt lat="44.70503" lon="5.98939">
        <ele>1739</ele>
        <time>2021-09-20T09:13:23Z</time>
      </trkpt>
      <trkpt lat="44.70503" lon="5.98938">
        <ele>1740</ele>
        <time>2021-09-20T09:13:30Z</time>
      </trkpt>
      <trkpt lat="44.70503" lon="5.98938">
        <ele>1740</ele>
        <time>2021-09-20T09:13:31Z</time>
      </trkpt>
      <trkpt lat="44.70502" lon="5.98937">
        <ele>1741</ele>
        <time>2021-09-20T09:13:32Z</time>
      </trkpt>
      <trkpt lat="44.70502" lon="5.98937">
        <ele>1741</ele>
        <time>2021-09-20T09:13:33Z</time>
      </trkpt>
      <trkpt lat="44.70502" lon="5.98936">
        <ele>1741</ele>
        <time>2021-09-20T09:13:34Z</time>
      </trkpt>
      <trkpt lat="44.70501" lon="5.98936">
        <ele>1741</ele>
        <time>2021-09-20T09:13:35Z</time>
      </trkpt>
      <trkpt lat="44.70501" lon="5.98936">
        <ele>1741</ele>
        <time>2021-09-20T09:13:36Z</time>
      </trkpt>
      <trkpt lat="44.705" lon="5.98935">
        <ele>1741</ele>
        <time>2021-09-20T09:13:37Z</time>
      </trkpt>
      <trkpt lat="44.70499" lon="5.98934">
        <ele>1741</ele>
        <time>2021-09-20T09:13:38Z</time>
      </trkpt>
      <trkpt lat="44.70499" lon="5.98934">
        <ele>1741</ele>
        <time>2021-09-20T09:13:39Z</time>
      </trkpt>
      <trkpt lat="44.70498" lon="5.98933">
        <ele>1741</ele>
        <time>2021-09-20T09:13:40Z</time>
      </trkpt>
      <trkpt lat="44.70498" lon="5.98932">
        <ele>1741</ele>
        <time>2021-09-20T09:13:41Z</time>
      </trkpt>
      <trkpt lat="44.70498" lon="5.9893">
        <ele>1741</ele>
        <time>2021-09-20T09:13:42Z</time>
      </trkpt>
      <trkpt lat="44.70497" lon="5.9893">
        <ele>1741</ele>
        <time>2021-09-20T09:13:43Z</time>
      </trkpt>
      <trkpt lat="44.70497" lon="5.9893">
        <ele>1741</ele>
        <time>2021-09-20T09:13:44Z</time>
      </trkpt>
      <trkpt lat="44.70497" lon="5.9893">
        <ele>1741</ele>
        <time>2021-09-20T09:13:45Z</time>
      </trkpt>
      <trkpt lat="44.70497" lon="5.98929">
        <ele>1741</ele>
        <time>2021-09-20T09:13:46Z</time>
      </trkpt>
      <trkpt lat="44.70497" lon="5.98929">
        <ele>1741</ele>
        <time>2021-09-20T09:13:47Z</time>
      </trkpt>
      <trkpt lat="44.70497" lon="5.98929">
        <ele>1741</ele>
        <time>2021-09-20T09:13:48Z</time>
      </trkpt>
      <trkpt lat="44.70497" lon="5.98928">
        <ele>1741</ele>
        <time>2021-09-20T09:13:49Z</time>
      </trkpt>
      <trkpt lat="44.70497" lon="5.98927">
        <ele>1741</ele>
        <time>2021-09-20T09:13:50Z</time>
      </trkpt>
      <trkpt lat="44.70498" lon="5.98926">
        <ele>1741</ele>
        <time>2021-09-20T09:13:51Z</time>
      </trkpt>
      <trkpt lat="44.70498" lon="5.98925">
        <ele>1741</ele>
        <time>2021-09-20T09:14:01Z</time>
      </trkpt>
      <trkpt lat="44.70498" lon="5.98925">
        <ele>1741</ele>
        <time>2021-09-20T09:14:02Z</time>
      </trkpt>
      <trkpt lat="44.70497" lon="5.98925">
        <ele>1741</ele>
        <time>2021-09-20T09:14:03Z</time>
      </trkpt>
      <trkpt lat="44.70497" lon="5.98924">
        <ele>1741</ele>
        <time>2021-09-20T09:14:04Z</time>
      </trkpt>
      <trkpt lat="44.70496" lon="5.98924">
        <ele>1741</ele>
        <time>2021-09-20T09:14:05Z</time>
      </trkpt>
      <trkpt lat="44.70495" lon="5.98923">
        <ele>1741</ele>
        <time>2021-09-20T09:14:06Z</time>
      </trkpt>
      <trkpt lat="44.70495" lon="5.98923">
        <ele>1741</ele>
        <time>2021-09-20T09:14:07Z</time>
      </trkpt>
      <trkpt lat="44.70494" lon="5.98922">
        <ele>1741</ele>
        <time>2021-09-20T09:14:08Z</time>
      </trkpt>
      <trkpt lat="44.70493" lon="5.98921">
        <ele>1741</ele>
        <time>2021-09-20T09:14:09Z</time>
      </trkpt>
      <trkpt lat="44.70492" lon="5.9892">
        <ele>1741</ele>
        <time>2021-09-20T09:14:10Z</time>
      </trkpt>
      <trkpt lat="44.70491" lon="5.98919">
        <ele>1741</ele>
        <time>2021-09-20T09:14:11Z</time>
      </trkpt>
      <trkpt lat="44.7049" lon="5.98918">
        <ele>1741</ele>
        <time>2021-09-20T09:14:12Z</time>
      </trkpt>
      <trkpt lat="44.70489" lon="5.98917">
        <ele>1740</ele>
        <time>2021-09-20T09:14:13Z</time>
      </trkpt>
      <trkpt lat="44.70489" lon="5.98916">
        <ele>1740</ele>
        <time>2021-09-20T09:14:14Z</time>
      </trkpt>
      <trkpt lat="44.70488" lon="5.98915">
        <ele>1740</ele>
        <time>2021-09-20T09:14:15Z</time>
      </trkpt>
      <trkpt lat="44.70488" lon="5.98914">
        <ele>1740</ele>
        <time>2021-09-20T09:14:16Z</time>
      </trkpt>
      <trkpt lat="44.70487" lon="5.98913">
        <ele>1740</ele>
        <time>2021-09-20T09:14:17Z</time>
      </trkpt>
      <trkpt lat="44.70486" lon="5.98911">
        <ele>1740</ele>
        <time>2021-09-20T09:14:18Z</time>
      </trkpt>
      <trkpt lat="44.70486" lon="5.9891">
        <ele>1740</ele>
        <time>2021-09-20T09:14:19Z</time>
      </trkpt>
      <trkpt lat="44.70485" lon="5.9891">
        <ele>1740</ele>
        <time>2021-09-20T09:14:20Z</time>
      </trkpt>
      <trkpt lat="44.70484" lon="5.98909">
        <ele>1740</ele>
        <time>2021-09-20T09:14:21Z</time>
      </trkpt>
      <trkpt lat="44.70483" lon="5.98908">
        <ele>1740</ele>
        <time>2021-09-20T09:14:22Z</time>
      </trkpt>
      <trkpt lat="44.70482" lon="5.98907">
        <ele>1740</ele>
        <time>2021-09-20T09:14:23Z</time>
      </trkpt>
      <trkpt lat="44.70481" lon="5.98906">
        <ele>1740</ele>
        <time>2021-09-20T09:14:24Z</time>
      </trkpt>
      <trkpt lat="44.70481" lon="5.98905">
        <ele>1740</ele>
        <time>2021-09-20T09:14:25Z</time>
      </trkpt>
      <trkpt lat="44.7048" lon="5.98905">
        <ele>1740</ele>
        <time>2021-09-20T09:14:26Z</time>
      </trkpt>
      <trkpt lat="44.70479" lon="5.98904">
        <ele>1740</ele>
        <time>2021-09-20T09:14:27Z</time>
      </trkpt>
      <trkpt lat="44.70479" lon="5.98903">
        <ele>1740</ele>
        <time>2021-09-20T09:14:28Z</time>
      </trkpt>
      <trkpt lat="44.70478" lon="5.98902">
        <ele>1740</ele>
        <time>2021-09-20T09:14:29Z</time>
      </trkpt>
      <trkpt lat="44.70478" lon="5.98902">
        <ele>1740</ele>
        <time>2021-09-20T09:14:30Z</time>
      </trkpt>
      <trkpt lat="44.70477" lon="5.98901">
        <ele>1740</ele>
        <time>2021-09-20T09:14:31Z</time>
      </trkpt>
      <trkpt lat="44.70477" lon="5.989">
        <ele>1740</ele>
        <time>2021-09-20T09:14:32Z</time>
      </trkpt>
      <trkpt lat="44.70476" lon="5.989">
        <ele>1740</ele>
        <time>2021-09-20T09:14:33Z</time>
      </trkpt>
      <trkpt lat="44.70475" lon="5.98899">
        <ele>1740</ele>
        <time>2021-09-20T09:14:34Z</time>
      </trkpt>
      <trkpt lat="44.70475" lon="5.98898">
        <ele>1740</ele>
        <time>2021-09-20T09:14:35Z</time>
      </trkpt>
      <trkpt lat="44.70474" lon="5.98898">
        <ele>1740</ele>
        <time>2021-09-20T09:14:36Z</time>
      </trkpt>
      <trkpt lat="44.70473" lon="5.98897">
        <ele>1740</ele>
        <time>2021-09-20T09:14:37Z</time>
      </trkpt>
      <trkpt lat="44.70472" lon="5.98896">
        <ele>1740</ele>
        <time>2021-09-20T09:14:38Z</time>
      </trkpt>
      <trkpt lat="44.70471" lon="5.98896">
        <ele>1740</ele>
        <time>2021-09-20T09:14:39Z</time>
      </trkpt>
      <trkpt lat="44.70471" lon="5.98895">
        <ele>1740</ele>
        <time>2021-09-20T09:14:40Z</time>
      </trkpt>
      <trkpt lat="44.7047" lon="5.98894">
        <ele>1740</ele>
        <time>2021-09-20T09:14:41Z</time>
      </trkpt>
      <trkpt lat="44.70469" lon="5.98894">
        <ele>1740</ele>
        <time>2021-09-20T09:14:42Z</time>
      </trkpt>
      <trkpt lat="44.70468" lon="5.98893">
        <ele>1740</ele>
        <time>2021-09-20T09:14:43Z</time>
      </trkpt>
      <trkpt lat="44.70468" lon="5.98892">
        <ele>1740</ele>
        <time>2021-09-20T09:14:44Z</time>
      </trkpt>
      <trkpt lat="44.70467" lon="5.98891">
        <ele>1740</ele>
        <time>2021-09-20T09:14:45Z</time>
      </trkpt>
      <trkpt lat="44.70466" lon="5.98891">
        <ele>1740</ele>
        <time>2021-09-20T09:14:46Z</time>
      </trkpt>
      <trkpt lat="44.70466" lon="5.9889">
        <ele>1740</ele>
        <time>2021-09-20T09:14:47Z</time>
      </trkpt>
      <trkpt lat="44.70465" lon="5.98889">
        <ele>1740</ele>
        <time>2021-09-20T09:14:48Z</time>
      </trkpt>
      <trkpt lat="44.70464" lon="5.98889">
        <ele>1740</ele>
        <time>2021-09-20T09:14:49Z</time>
      </trkpt>
      <trkpt lat="44.70463" lon="5.98888">
        <ele>1740</ele>
        <time>2021-09-20T09:14:50Z</time>
      </trkpt>
      <trkpt lat="44.70463" lon="5.98887">
        <ele>1740</ele>
        <time>2021-09-20T09:14:51Z</time>
      </trkpt>
      <trkpt lat="44.70462" lon="5.98887">
        <ele>1740</ele>
        <time>2021-09-20T09:14:52Z</time>
      </trkpt>
      <trkpt lat="44.70461" lon="5.98886">
        <ele>1740</ele>
        <time>2021-09-20T09:14:53Z</time>
      </trkpt>
      <trkpt lat="44.70461" lon="5.98885">
        <ele>1740</ele>
        <time>2021-09-20T09:14:54Z</time>
      </trkpt>
      <trkpt lat="44.7046" lon="5.98884">
        <ele>1740</ele>
        <time>2021-09-20T09:14:55Z</time>
      </trkpt>
      <trkpt lat="44.70459" lon="5.98882">
        <ele>1740</ele>
        <time>2021-09-20T09:14:56Z</time>
      </trkpt>
      <trkpt lat="44.70459" lon="5.98881">
        <ele>1741</ele>
        <time>2021-09-20T09:14:57Z</time>
      </trkpt>
      <trkpt lat="44.70459" lon="5.9888">
        <ele>1741</ele>
        <time>2021-09-20T09:14:58Z</time>
      </trkpt>
      <trkpt lat="44.70458" lon="5.98879">
        <ele>1741</ele>
        <time>2021-09-20T09:14:59Z</time>
      </trkpt>
      <trkpt lat="44.70458" lon="5.98878">
        <ele>1741</ele>
        <time>2021-09-20T09:15:00Z</time>
      </trkpt>
      <trkpt lat="44.70458" lon="5.98877">
        <ele>1741</ele>
        <time>2021-09-20T09:15:01Z</time>
      </trkpt>
      <trkpt lat="44.70458" lon="5.98876">
        <ele>1741</ele>
        <time>2021-09-20T09:15:02Z</time>
      </trkpt>
      <trkpt lat="44.70458" lon="5.98875">
        <ele>1741</ele>
        <time>2021-09-20T09:15:03Z</time>
      </trkpt>
      <trkpt lat="44.70458" lon="5.98874">
        <ele>1741</ele>
        <time>2021-09-20T09:15:04Z</time>
      </trkpt>
      <trkpt lat="44.70457" lon="5.98873">
        <ele>1741</ele>
        <time>2021-09-20T09:15:05Z</time>
      </trkpt>
      <trkpt lat="44.70457" lon="5.98872">
        <ele>1741</ele>
        <time>2021-09-20T09:15:06Z</time>
      </trkpt>
      <trkpt lat="44.70457" lon="5.98871">
        <ele>1741</ele>
        <time>2021-09-20T09:15:07Z</time>
      </trkpt>
      <trkpt lat="44.70457" lon="5.9887">
        <ele>1741</ele>
        <time>2021-09-20T09:15:08Z</time>
      </trkpt>
      <trkpt lat="44.70457" lon="5.98869">
        <ele>1741</ele>
        <time>2021-09-20T09:15:09Z</time>
      </trkpt>
      <trkpt lat="44.70457" lon="5.98868">
        <ele>1741</ele>
        <time>2021-09-20T09:15:10Z</time>
      </trkpt>
      <trkpt lat="44.70457" lon="5.98867">
        <ele>1741</ele>
        <time>2021-09-20T09:15:11Z</time>
      </trkpt>
      <trkpt lat="44.70457" lon="5.98867">
        <ele>1741</ele>
        <time>2021-09-20T09:15:12Z</time>
      </trkpt>
      <trkpt lat="44.70457" lon="5.98866">
        <ele>1741</ele>
        <time>2021-09-20T09:15:13Z</time>
      </trkpt>
      <trkpt lat="44.70457" lon="5.98865">
        <ele>1741</ele>
        <time>2021-09-20T09:15:14Z</time>
      </trkpt>
      <trkpt lat="44.70456" lon="5.98865">
        <ele>1742</ele>
        <time>2021-09-20T09:15:15Z</time>
      </trkpt>
      <trkpt lat="44.70456" lon="5.98864">
        <ele>1742</ele>
        <time>2021-09-20T09:15:16Z</time>
      </trkpt>
      <trkpt lat="44.70456" lon="5.98863">
        <ele>1743</ele>
        <time>2021-09-20T09:15:17Z</time>
      </trkpt>
      <trkpt lat="44.70456" lon="5.98862">
        <ele>1743</ele>
        <time>2021-09-20T09:15:18Z</time>
      </trkpt>
      <trkpt lat="44.70456" lon="5.98862">
        <ele>1743</ele>
        <time>2021-09-20T09:15:19Z</time>
      </trkpt>
      <trkpt lat="44.70455" lon="5.98861">
        <ele>1743</ele>
        <time>2021-09-20T09:15:20Z</time>
      </trkpt>
      <trkpt lat="44.70455" lon="5.9886">
        <ele>1743</ele>
        <time>2021-09-20T09:15:21Z</time>
      </trkpt>
      <trkpt lat="44.70455" lon="5.98859">
        <ele>1744</ele>
        <time>2021-09-20T09:15:22Z</time>
      </trkpt>
      <trkpt lat="44.70455" lon="5.98859">
        <ele>1744</ele>
        <time>2021-09-20T09:15:23Z</time>
      </trkpt>
      <trkpt lat="44.70455" lon="5.98858">
        <ele>1744</ele>
        <time>2021-09-20T09:15:24Z</time>
      </trkpt>
      <trkpt lat="44.70455" lon="5.98857">
        <ele>1744</ele>
        <time>2021-09-20T09:15:25Z</time>
      </trkpt>
      <trkpt lat="44.70455" lon="5.98856">
        <ele>1744</ele>
        <time>2021-09-20T09:15:26Z</time>
      </trkpt>
      <trkpt lat="44.70454" lon="5.98856">
        <ele>1744</ele>
        <time>2021-09-20T09:15:27Z</time>
      </trkpt>
      <trkpt lat="44.70454" lon="5.98855">
        <ele>1744</ele>
        <time>2021-09-20T09:15:28Z</time>
      </trkpt>
      <trkpt lat="44.70454" lon="5.98854">
        <ele>1744</ele>
        <time>2021-09-20T09:15:29Z</time>
      </trkpt>
      <trkpt lat="44.70454" lon="5.98854">
        <ele>1745</ele>
        <time>2021-09-20T09:15:30Z</time>
      </trkpt>
      <trkpt lat="44.70453" lon="5.98853">
        <ele>1745</ele>
        <time>2021-09-20T09:15:31Z</time>
      </trkpt>
      <trkpt lat="44.70453" lon="5.98852">
        <ele>1746</ele>
        <time>2021-09-20T09:15:32Z</time>
      </trkpt>
      <trkpt lat="44.70453" lon="5.98851">
        <ele>1746</ele>
        <time>2021-09-20T09:15:33Z</time>
      </trkpt>
      <trkpt lat="44.70453" lon="5.9885">
        <ele>1746</ele>
        <time>2021-09-20T09:15:34Z</time>
      </trkpt>
      <trkpt lat="44.70452" lon="5.9885">
        <ele>1746</ele>
        <time>2021-09-20T09:15:35Z</time>
      </trkpt>
      <trkpt lat="44.70452" lon="5.98849">
        <ele>1746</ele>
        <time>2021-09-20T09:15:36Z</time>
      </trkpt>
      <trkpt lat="44.70452" lon="5.98848">
        <ele>1747</ele>
        <time>2021-09-20T09:15:37Z</time>
      </trkpt>
      <trkpt lat="44.70452" lon="5.98847">
        <ele>1747</ele>
        <time>2021-09-20T09:15:38Z</time>
      </trkpt>
      <trkpt lat="44.70451" lon="5.98846">
        <ele>1747</ele>
        <time>2021-09-20T09:15:39Z</time>
      </trkpt>
      <trkpt lat="44.70451" lon="5.98846">
        <ele>1747</ele>
        <time>2021-09-20T09:15:40Z</time>
      </trkpt>
      <trkpt lat="44.70451" lon="5.98845">
        <ele>1747</ele>
        <time>2021-09-20T09:15:41Z</time>
      </trkpt>
      <trkpt lat="44.7045" lon="5.98844">
        <ele>1748</ele>
        <time>2021-09-20T09:15:42Z</time>
      </trkpt>
      <trkpt lat="44.7045" lon="5.98843">
        <ele>1748</ele>
        <time>2021-09-20T09:15:43Z</time>
      </trkpt>
      <trkpt lat="44.70449" lon="5.98842">
        <ele>1748</ele>
        <time>2021-09-20T09:15:44Z</time>
      </trkpt>
      <trkpt lat="44.70449" lon="5.98842">
        <ele>1748</ele>
        <time>2021-09-20T09:15:45Z</time>
      </trkpt>
      <trkpt lat="44.70449" lon="5.98841">
        <ele>1748</ele>
        <time>2021-09-20T09:15:46Z</time>
      </trkpt>
      <trkpt lat="44.70448" lon="5.9884">
        <ele>1748</ele>
        <time>2021-09-20T09:15:47Z</time>
      </trkpt>
      <trkpt lat="44.70448" lon="5.9884">
        <ele>1748</ele>
        <time>2021-09-20T09:15:48Z</time>
      </trkpt>
      <trkpt lat="44.70448" lon="5.98839">
        <ele>1748</ele>
        <time>2021-09-20T09:15:49Z</time>
      </trkpt>
      <trkpt lat="44.70447" lon="5.98838">
        <ele>1748</ele>
        <time>2021-09-20T09:15:50Z</time>
      </trkpt>
      <trkpt lat="44.70447" lon="5.98837">
        <ele>1748</ele>
        <time>2021-09-20T09:15:51Z</time>
      </trkpt>
      <trkpt lat="44.70447" lon="5.98837">
        <ele>1749</ele>
        <time>2021-09-20T09:15:52Z</time>
      </trkpt>
      <trkpt lat="44.70446" lon="5.98836">
        <ele>1749</ele>
        <time>2021-09-20T09:15:53Z</time>
      </trkpt>
      <trkpt lat="44.70446" lon="5.98835">
        <ele>1749</ele>
        <time>2021-09-20T09:15:54Z</time>
      </trkpt>
      <trkpt lat="44.70446" lon="5.98834">
        <ele>1749</ele>
        <time>2021-09-20T09:15:55Z</time>
      </trkpt>
      <trkpt lat="44.70445" lon="5.98833">
        <ele>1749</ele>
        <time>2021-09-20T09:15:56Z</time>
      </trkpt>
      <trkpt lat="44.70445" lon="5.98832">
        <ele>1749</ele>
        <time>2021-09-20T09:15:57Z</time>
      </trkpt>
      <trkpt lat="44.70445" lon="5.98831">
        <ele>1749</ele>
        <time>2021-09-20T09:15:58Z</time>
      </trkpt>
      <trkpt lat="44.70444" lon="5.9883">
        <ele>1749</ele>
        <time>2021-09-20T09:15:59Z</time>
      </trkpt>
      <trkpt lat="44.70444" lon="5.98829">
        <ele>1749</ele>
        <time>2021-09-20T09:16:00Z</time>
      </trkpt>
      <trkpt lat="44.70444" lon="5.98828">
        <ele>1749</ele>
        <time>2021-09-20T09:16:01Z</time>
      </trkpt>
      <trkpt lat="44.70443" lon="5.98827">
        <ele>1749</ele>
        <time>2021-09-20T09:16:02Z</time>
      </trkpt>
      <trkpt lat="44.70443" lon="5.98827">
        <ele>1749</ele>
        <time>2021-09-20T09:16:03Z</time>
      </trkpt>
      <trkpt lat="44.70443" lon="5.98826">
        <ele>1749</ele>
        <time>2021-09-20T09:16:04Z</time>
      </trkpt>
      <trkpt lat="44.70443" lon="5.98825">
        <ele>1749</ele>
        <time>2021-09-20T09:16:05Z</time>
      </trkpt>
      <trkpt lat="44.70442" lon="5.98824">
        <ele>1749</ele>
        <time>2021-09-20T09:16:06Z</time>
      </trkpt>
      <trkpt lat="44.70442" lon="5.98824">
        <ele>1750</ele>
        <time>2021-09-20T09:16:07Z</time>
      </trkpt>
      <trkpt lat="44.70442" lon="5.98823">
        <ele>1750</ele>
        <time>2021-09-20T09:16:08Z</time>
      </trkpt>
      <trkpt lat="44.70442" lon="5.98822">
        <ele>1750</ele>
        <time>2021-09-20T09:16:09Z</time>
      </trkpt>
      <trkpt lat="44.70441" lon="5.98821">
        <ele>1750</ele>
        <time>2021-09-20T09:16:10Z</time>
      </trkpt>
      <trkpt lat="44.70441" lon="5.98821">
        <ele>1750</ele>
        <time>2021-09-20T09:16:11Z</time>
      </trkpt>
      <trkpt lat="44.70441" lon="5.9882">
        <ele>1750</ele>
        <time>2021-09-20T09:16:12Z</time>
      </trkpt>
      <trkpt lat="44.7044" lon="5.98819">
        <ele>1750</ele>
        <time>2021-09-20T09:16:13Z</time>
      </trkpt>
      <trkpt lat="44.7044" lon="5.98818">
        <ele>1750</ele>
        <time>2021-09-20T09:16:14Z</time>
      </trkpt>
      <trkpt lat="44.70439" lon="5.98818">
        <ele>1750</ele>
        <time>2021-09-20T09:16:15Z</time>
      </trkpt>
      <trkpt lat="44.70439" lon="5.98817">
        <ele>1750</ele>
        <time>2021-09-20T09:16:16Z</time>
      </trkpt>
      <trkpt lat="44.70439" lon="5.98816">
        <ele>1751</ele>
        <time>2021-09-20T09:16:17Z</time>
      </trkpt>
      <trkpt lat="44.70438" lon="5.98815">
        <ele>1751</ele>
        <time>2021-09-20T09:16:18Z</time>
      </trkpt>
      <trkpt lat="44.70438" lon="5.98815">
        <ele>1751</ele>
        <time>2021-09-20T09:16:19Z</time>
      </trkpt>
      <trkpt lat="44.70437" lon="5.98814">
        <ele>1751</ele>
        <time>2021-09-20T09:16:20Z</time>
      </trkpt>
      <trkpt lat="44.70436" lon="5.98813">
        <ele>1751</ele>
        <time>2021-09-20T09:16:21Z</time>
      </trkpt>
      <trkpt lat="44.70436" lon="5.98812">
        <ele>1752</ele>
        <time>2021-09-20T09:16:22Z</time>
      </trkpt>
      <trkpt lat="44.70436" lon="5.98812">
        <ele>1752</ele>
        <time>2021-09-20T09:16:23Z</time>
      </trkpt>
      <trkpt lat="44.70435" lon="5.98811">
        <ele>1752</ele>
        <time>2021-09-20T09:16:24Z</time>
      </trkpt>
      <trkpt lat="44.70435" lon="5.9881">
        <ele>1752</ele>
        <time>2021-09-20T09:16:25Z</time>
      </trkpt>
      <trkpt lat="44.70435" lon="5.98809">
        <ele>1752</ele>
        <time>2021-09-20T09:16:26Z</time>
      </trkpt>
      <trkpt lat="44.70435" lon="5.98808">
        <ele>1752</ele>
        <time>2021-09-20T09:16:27Z</time>
      </trkpt>
      <trkpt lat="44.70435" lon="5.98808">
        <ele>1752</ele>
        <time>2021-09-20T09:16:28Z</time>
      </trkpt>
      <trkpt lat="44.70435" lon="5.98807">
        <ele>1752</ele>
        <time>2021-09-20T09:16:29Z</time>
      </trkpt>
      <trkpt lat="44.70435" lon="5.98807">
        <ele>1752</ele>
        <time>2021-09-20T09:16:30Z</time>
      </trkpt>
      <trkpt lat="44.70435" lon="5.98807">
        <ele>1752</ele>
        <time>2021-09-20T09:16:31Z</time>
      </trkpt>
      <trkpt lat="44.70434" lon="5.98805">
        <ele>1752</ele>
        <time>2021-09-20T09:16:32Z</time>
      </trkpt>
      <trkpt lat="44.70434" lon="5.98804">
        <ele>1752</ele>
        <time>2021-09-20T09:16:33Z</time>
      </trkpt>
      <trkpt lat="44.70434" lon="5.98803">
        <ele>1752</ele>
        <time>2021-09-20T09:16:34Z</time>
      </trkpt>
      <trkpt lat="44.70434" lon="5.98802">
        <ele>1752</ele>
        <time>2021-09-20T09:16:35Z</time>
      </trkpt>
      <trkpt lat="44.70433" lon="5.98801">
        <ele>1752</ele>
        <time>2021-09-20T09:16:36Z</time>
      </trkpt>
      <trkpt lat="44.70433" lon="5.988">
        <ele>1753</ele>
        <time>2021-09-20T09:16:37Z</time>
      </trkpt>
      <trkpt lat="44.70433" lon="5.988">
        <ele>1753</ele>
        <time>2021-09-20T09:16:38Z</time>
      </trkpt>
      <trkpt lat="44.70433" lon="5.98799">
        <ele>1753</ele>
        <time>2021-09-20T09:16:39Z</time>
      </trkpt>
      <trkpt lat="44.70432" lon="5.98798">
        <ele>1753</ele>
        <time>2021-09-20T09:16:40Z</time>
      </trkpt>
      <trkpt lat="44.70432" lon="5.98797">
        <ele>1753</ele>
        <time>2021-09-20T09:16:41Z</time>
      </trkpt>
      <trkpt lat="44.70432" lon="5.98797">
        <ele>1753</ele>
        <time>2021-09-20T09:16:42Z</time>
      </trkpt>
      <trkpt lat="44.70432" lon="5.98796">
        <ele>1753</ele>
        <time>2021-09-20T09:16:43Z</time>
      </trkpt>
      <trkpt lat="44.70431" lon="5.98795">
        <ele>1753</ele>
        <time>2021-09-20T09:16:44Z</time>
      </trkpt>
      <trkpt lat="44.70431" lon="5.98795">
        <ele>1754</ele>
        <time>2021-09-20T09:16:45Z</time>
      </trkpt>
      <trkpt lat="44.70431" lon="5.98794">
        <ele>1754</ele>
        <time>2021-09-20T09:16:46Z</time>
      </trkpt>
      <trkpt lat="44.7043" lon="5.98793">
        <ele>1755</ele>
        <time>2021-09-20T09:16:47Z</time>
      </trkpt>
      <trkpt lat="44.7043" lon="5.98792">
        <ele>1755</ele>
        <time>2021-09-20T09:16:48Z</time>
      </trkpt>
      <trkpt lat="44.70429" lon="5.98792">
        <ele>1755</ele>
        <time>2021-09-20T09:16:49Z</time>
      </trkpt>
      <trkpt lat="44.70429" lon="5.98791">
        <ele>1755</ele>
        <time>2021-09-20T09:16:50Z</time>
      </trkpt>
      <trkpt lat="44.70428" lon="5.9879">
        <ele>1755</ele>
        <time>2021-09-20T09:16:51Z</time>
      </trkpt>
      <trkpt lat="44.70428" lon="5.98789">
        <ele>1755</ele>
        <time>2021-09-20T09:16:52Z</time>
      </trkpt>
      <trkpt lat="44.70428" lon="5.98788">
        <ele>1755</ele>
        <time>2021-09-20T09:16:53Z</time>
      </trkpt>
      <trkpt lat="44.70427" lon="5.98787">
        <ele>1755</ele>
        <time>2021-09-20T09:16:54Z</time>
      </trkpt>
      <trkpt lat="44.70427" lon="5.98786">
        <ele>1755</ele>
        <time>2021-09-20T09:16:55Z</time>
      </trkpt>
      <trkpt lat="44.70427" lon="5.98785">
        <ele>1755</ele>
        <time>2021-09-20T09:16:56Z</time>
      </trkpt>
      <trkpt lat="44.70427" lon="5.98785">
        <ele>1756</ele>
        <time>2021-09-20T09:16:57Z</time>
      </trkpt>
      <trkpt lat="44.70427" lon="5.98784">
        <ele>1756</ele>
        <time>2021-09-20T09:16:58Z</time>
      </trkpt>
      <trkpt lat="44.70426" lon="5.98783">
        <ele>1756</ele>
        <time>2021-09-20T09:16:59Z</time>
      </trkpt>
      <trkpt lat="44.70426" lon="5.98782">
        <ele>1756</ele>
        <time>2021-09-20T09:17:00Z</time>
      </trkpt>
      <trkpt lat="44.70426" lon="5.98781">
        <ele>1756</ele>
        <time>2021-09-20T09:17:01Z</time>
      </trkpt>
      <trkpt lat="44.70426" lon="5.98781">
        <ele>1757</ele>
        <time>2021-09-20T09:17:02Z</time>
      </trkpt>
      <trkpt lat="44.70426" lon="5.9878">
        <ele>1757</ele>
        <time>2021-09-20T09:17:03Z</time>
      </trkpt>
      <trkpt lat="44.70425" lon="5.9878">
        <ele>1757</ele>
        <time>2021-09-20T09:17:04Z</time>
      </trkpt>
      <trkpt lat="44.70425" lon="5.98779">
        <ele>1757</ele>
        <time>2021-09-20T09:17:05Z</time>
      </trkpt>
      <trkpt lat="44.70424" lon="5.98778">
        <ele>1757</ele>
        <time>2021-09-20T09:17:06Z</time>
      </trkpt>
      <trkpt lat="44.70424" lon="5.98778">
        <ele>1758</ele>
        <time>2021-09-20T09:17:07Z</time>
      </trkpt>
      <trkpt lat="44.70423" lon="5.98777">
        <ele>1758</ele>
        <time>2021-09-20T09:17:08Z</time>
      </trkpt>
      <trkpt lat="44.70423" lon="5.98776">
        <ele>1758</ele>
        <time>2021-09-20T09:17:09Z</time>
      </trkpt>
      <trkpt lat="44.70423" lon="5.98775">
        <ele>1758</ele>
        <time>2021-09-20T09:17:10Z</time>
      </trkpt>
      <trkpt lat="44.70422" lon="5.98774">
        <ele>1758</ele>
        <time>2021-09-20T09:17:11Z</time>
      </trkpt>
      <trkpt lat="44.70422" lon="5.98774">
        <ele>1759</ele>
        <time>2021-09-20T09:17:12Z</time>
      </trkpt>
      <trkpt lat="44.70422" lon="5.98773">
        <ele>1759</ele>
        <time>2021-09-20T09:17:13Z</time>
      </trkpt>
      <trkpt lat="44.70421" lon="5.98772">
        <ele>1759</ele>
        <time>2021-09-20T09:17:14Z</time>
      </trkpt>
      <trkpt lat="44.70421" lon="5.98771">
        <ele>1759</ele>
        <time>2021-09-20T09:17:15Z</time>
      </trkpt>
      <trkpt lat="44.70421" lon="5.9877">
        <ele>1759</ele>
        <time>2021-09-20T09:17:16Z</time>
      </trkpt>
      <trkpt lat="44.70421" lon="5.98769">
        <ele>1759</ele>
        <time>2021-09-20T09:17:17Z</time>
      </trkpt>
      <trkpt lat="44.7042" lon="5.98768">
        <ele>1759</ele>
        <time>2021-09-20T09:17:18Z</time>
      </trkpt>
      <trkpt lat="44.7042" lon="5.98767">
        <ele>1759</ele>
        <time>2021-09-20T09:17:19Z</time>
      </trkpt>
      <trkpt lat="44.7042" lon="5.98766">
        <ele>1759</ele>
        <time>2021-09-20T09:17:20Z</time>
      </trkpt>
      <trkpt lat="44.7042" lon="5.98765">
        <ele>1759</ele>
        <time>2021-09-20T09:17:21Z</time>
      </trkpt>
      <trkpt lat="44.7042" lon="5.98764">
        <ele>1760</ele>
        <time>2021-09-20T09:17:22Z</time>
      </trkpt>
      <trkpt lat="44.7042" lon="5.98762">
        <ele>1760</ele>
        <time>2021-09-20T09:17:23Z</time>
      </trkpt>
      <trkpt lat="44.7042" lon="5.98761">
        <ele>1760</ele>
        <time>2021-09-20T09:17:24Z</time>
      </trkpt>
      <trkpt lat="44.70419" lon="5.9876">
        <ele>1760</ele>
        <time>2021-09-20T09:17:25Z</time>
      </trkpt>
      <trkpt lat="44.70419" lon="5.98759">
        <ele>1760</ele>
        <time>2021-09-20T09:17:26Z</time>
      </trkpt>
      <trkpt lat="44.70419" lon="5.98758">
        <ele>1760</ele>
        <time>2021-09-20T09:17:27Z</time>
      </trkpt>
      <trkpt lat="44.70419" lon="5.98757">
        <ele>1760</ele>
        <time>2021-09-20T09:17:28Z</time>
      </trkpt>
      <trkpt lat="44.70419" lon="5.98756">
        <ele>1760</ele>
        <time>2021-09-20T09:17:29Z</time>
      </trkpt>
      <trkpt lat="44.7042" lon="5.98755">
        <ele>1760</ele>
        <time>2021-09-20T09:17:30Z</time>
      </trkpt>
      <trkpt lat="44.7042" lon="5.98754">
        <ele>1760</ele>
        <time>2021-09-20T09:17:31Z</time>
      </trkpt>
      <trkpt lat="44.7042" lon="5.98753">
        <ele>1760</ele>
        <time>2021-09-20T09:17:32Z</time>
      </trkpt>
      <trkpt lat="44.7042" lon="5.98752">
        <ele>1760</ele>
        <time>2021-09-20T09:17:33Z</time>
      </trkpt>
      <trkpt lat="44.70421" lon="5.98751">
        <ele>1760</ele>
        <time>2021-09-20T09:17:34Z</time>
      </trkpt>
      <trkpt lat="44.70421" lon="5.98751">
        <ele>1761</ele>
        <time>2021-09-20T09:17:35Z</time>
      </trkpt>
      <trkpt lat="44.70421" lon="5.9875">
        <ele>1761</ele>
        <time>2021-09-20T09:17:36Z</time>
      </trkpt>
      <trkpt lat="44.70421" lon="5.98749">
        <ele>1762</ele>
        <time>2021-09-20T09:17:37Z</time>
      </trkpt>
      <trkpt lat="44.70422" lon="5.98748">
        <ele>1762</ele>
        <time>2021-09-20T09:17:38Z</time>
      </trkpt>
      <trkpt lat="44.70422" lon="5.98747">
        <ele>1762</ele>
        <time>2021-09-20T09:17:39Z</time>
      </trkpt>
      <trkpt lat="44.70422" lon="5.98747">
        <ele>1762</ele>
        <time>2021-09-20T09:17:40Z</time>
      </trkpt>
      <trkpt lat="44.70422" lon="5.98746">
        <ele>1762</ele>
        <time>2021-09-20T09:17:41Z</time>
      </trkpt>
      <trkpt lat="44.70423" lon="5.98746">
        <ele>1763</ele>
        <time>2021-09-20T09:17:42Z</time>
      </trkpt>
      <trkpt lat="44.70423" lon="5.98745">
        <ele>1763</ele>
        <time>2021-09-20T09:17:43Z</time>
      </trkpt>
      <trkpt lat="44.70423" lon="5.98744">
        <ele>1763</ele>
        <time>2021-09-20T09:17:44Z</time>
      </trkpt>
      <trkpt lat="44.70423" lon="5.98743">
        <ele>1763</ele>
        <time>2021-09-20T09:17:45Z</time>
      </trkpt>
      <trkpt lat="44.70424" lon="5.98742">
        <ele>1763</ele>
        <time>2021-09-20T09:17:46Z</time>
      </trkpt>
      <trkpt lat="44.70424" lon="5.98742">
        <ele>1763</ele>
        <time>2021-09-20T09:17:47Z</time>
      </trkpt>
      <trkpt lat="44.70425" lon="5.98741">
        <ele>1763</ele>
        <time>2021-09-20T09:17:48Z</time>
      </trkpt>
      <trkpt lat="44.70425" lon="5.9874">
        <ele>1763</ele>
        <time>2021-09-20T09:17:49Z</time>
      </trkpt>
      <trkpt lat="44.70426" lon="5.98739">
        <ele>1763</ele>
        <time>2021-09-20T09:17:50Z</time>
      </trkpt>
      <trkpt lat="44.70426" lon="5.98738">
        <ele>1763</ele>
        <time>2021-09-20T09:17:51Z</time>
      </trkpt>
      <trkpt lat="44.70427" lon="5.98738">
        <ele>1763</ele>
        <time>2021-09-20T09:17:52Z</time>
      </trkpt>
      <trkpt lat="44.70427" lon="5.98737">
        <ele>1763</ele>
        <time>2021-09-20T09:17:53Z</time>
      </trkpt>
      <trkpt lat="44.70428" lon="5.98737">
        <ele>1763</ele>
        <time>2021-09-20T09:17:54Z</time>
      </trkpt>
      <trkpt lat="44.70429" lon="5.98737">
        <ele>1763</ele>
        <time>2021-09-20T09:17:55Z</time>
      </trkpt>
      <trkpt lat="44.70429" lon="5.98736">
        <ele>1763</ele>
        <time>2021-09-20T09:17:56Z</time>
      </trkpt>
      <trkpt lat="44.7043" lon="5.98736">
        <ele>1764</ele>
        <time>2021-09-20T09:17:57Z</time>
      </trkpt>
      <trkpt lat="44.7043" lon="5.98735">
        <ele>1764</ele>
        <time>2021-09-20T09:17:58Z</time>
      </trkpt>
      <trkpt lat="44.70431" lon="5.98735">
        <ele>1764</ele>
        <time>2021-09-20T09:17:59Z</time>
      </trkpt>
      <trkpt lat="44.70431" lon="5.98734">
        <ele>1764</ele>
        <time>2021-09-20T09:18:00Z</time>
      </trkpt>
      <trkpt lat="44.70432" lon="5.98733">
        <ele>1764</ele>
        <time>2021-09-20T09:18:01Z</time>
      </trkpt>
      <trkpt lat="44.70432" lon="5.98732">
        <ele>1764</ele>
        <time>2021-09-20T09:18:02Z</time>
      </trkpt>
      <trkpt lat="44.70432" lon="5.98731">
        <ele>1764</ele>
        <time>2021-09-20T09:18:03Z</time>
      </trkpt>
      <trkpt lat="44.70433" lon="5.9873">
        <ele>1764</ele>
        <time>2021-09-20T09:18:04Z</time>
      </trkpt>
      <trkpt lat="44.70433" lon="5.98729">
        <ele>1764</ele>
        <time>2021-09-20T09:18:05Z</time>
      </trkpt>
      <trkpt lat="44.70434" lon="5.98728">
        <ele>1764</ele>
        <time>2021-09-20T09:18:06Z</time>
      </trkpt>
      <trkpt lat="44.70434" lon="5.98727">
        <ele>1765</ele>
        <time>2021-09-20T09:18:07Z</time>
      </trkpt>
      <trkpt lat="44.70434" lon="5.98726">
        <ele>1765</ele>
        <time>2021-09-20T09:18:08Z</time>
      </trkpt>
      <trkpt lat="44.70435" lon="5.98726">
        <ele>1765</ele>
        <time>2021-09-20T09:18:09Z</time>
      </trkpt>
      <trkpt lat="44.70435" lon="5.98725">
        <ele>1765</ele>
        <time>2021-09-20T09:18:10Z</time>
      </trkpt>
      <trkpt lat="44.70436" lon="5.98724">
        <ele>1765</ele>
        <time>2021-09-20T09:18:11Z</time>
      </trkpt>
      <trkpt lat="44.70437" lon="5.98723">
        <ele>1765</ele>
        <time>2021-09-20T09:18:12Z</time>
      </trkpt>
      <trkpt lat="44.70437" lon="5.98723">
        <ele>1765</ele>
        <time>2021-09-20T09:18:13Z</time>
      </trkpt>
      <trkpt lat="44.70438" lon="5.98723">
        <ele>1765</ele>
        <time>2021-09-20T09:18:14Z</time>
      </trkpt>
      <trkpt lat="44.70438" lon="5.98722">
        <ele>1765</ele>
        <time>2021-09-20T09:18:15Z</time>
      </trkpt>
      <trkpt lat="44.70439" lon="5.98722">
        <ele>1765</ele>
        <time>2021-09-20T09:18:16Z</time>
      </trkpt>
      <trkpt lat="44.70439" lon="5.98722">
        <ele>1765</ele>
        <time>2021-09-20T09:18:17Z</time>
      </trkpt>
      <trkpt lat="44.7044" lon="5.98721">
        <ele>1765</ele>
        <time>2021-09-20T09:18:18Z</time>
      </trkpt>
      <trkpt lat="44.70441" lon="5.98721">
        <ele>1765</ele>
        <time>2021-09-20T09:18:19Z</time>
      </trkpt>
      <trkpt lat="44.70442" lon="5.98721">
        <ele>1765</ele>
        <time>2021-09-20T09:18:20Z</time>
      </trkpt>
      <trkpt lat="44.70442" lon="5.98721">
        <ele>1765</ele>
        <time>2021-09-20T09:18:21Z</time>
      </trkpt>
      <trkpt lat="44.70443" lon="5.98721">
        <ele>1766</ele>
        <time>2021-09-20T09:18:22Z</time>
      </trkpt>
      <trkpt lat="44.70443" lon="5.98721">
        <ele>1766</ele>
        <time>2021-09-20T09:18:23Z</time>
      </trkpt>
      <trkpt lat="44.70444" lon="5.98721">
        <ele>1766</ele>
        <time>2021-09-20T09:18:24Z</time>
      </trkpt>
      <trkpt lat="44.70445" lon="5.98721">
        <ele>1767</ele>
        <time>2021-09-20T09:18:25Z</time>
      </trkpt>
      <trkpt lat="44.70445" lon="5.98721">
        <ele>1767</ele>
        <time>2021-09-20T09:18:26Z</time>
      </trkpt>
      <trkpt lat="44.70446" lon="5.98721">
        <ele>1768</ele>
        <time>2021-09-20T09:18:27Z</time>
      </trkpt>
      <trkpt lat="44.70446" lon="5.98721">
        <ele>1768</ele>
        <time>2021-09-20T09:18:28Z</time>
      </trkpt>
      <trkpt lat="44.70446" lon="5.98721">
        <ele>1768</ele>
        <time>2021-09-20T09:18:29Z</time>
      </trkpt>
      <trkpt lat="44.70447" lon="5.98721">
        <ele>1768</ele>
        <time>2021-09-20T09:18:30Z</time>
      </trkpt>
      <trkpt lat="44.70447" lon="5.98721">
        <ele>1768</ele>
        <time>2021-09-20T09:18:31Z</time>
      </trkpt>
      <trkpt lat="44.70448" lon="5.98721">
        <ele>1769</ele>
        <time>2021-09-20T09:18:32Z</time>
      </trkpt>
      <trkpt lat="44.70448" lon="5.98721">
        <ele>1769</ele>
        <time>2021-09-20T09:18:33Z</time>
      </trkpt>
      <trkpt lat="44.70449" lon="5.98721">
        <ele>1769</ele>
        <time>2021-09-20T09:18:34Z</time>
      </trkpt>
      <trkpt lat="44.7045" lon="5.98721">
        <ele>1772</ele>
        <time>2021-09-20T09:18:54Z</time>
      </trkpt>
      <trkpt lat="44.7045" lon="5.9872">
        <ele>1772</ele>
        <time>2021-09-20T09:18:55Z</time>
      </trkpt>
      <trkpt lat="44.70451" lon="5.9872">
        <ele>1772</ele>
        <time>2021-09-20T09:18:56Z</time>
      </trkpt>
      <trkpt lat="44.70452" lon="5.9872">
        <ele>1772</ele>
        <time>2021-09-20T09:18:57Z</time>
      </trkpt>
      <trkpt lat="44.70452" lon="5.98719">
        <ele>1772</ele>
        <time>2021-09-20T09:18:58Z</time>
      </trkpt>
      <trkpt lat="44.70453" lon="5.98718">
        <ele>1772</ele>
        <time>2021-09-20T09:19:06Z</time>
      </trkpt>
      <trkpt lat="44.70454" lon="5.98717">
        <ele>1773</ele>
        <time>2021-09-20T09:19:07Z</time>
      </trkpt>
      <trkpt lat="44.70455" lon="5.98717">
        <ele>1773</ele>
        <time>2021-09-20T09:19:08Z</time>
      </trkpt>
      <trkpt lat="44.70454" lon="5.98716">
        <ele>1772</ele>
        <time>2021-09-20T09:19:41Z</time>
      </trkpt>
      <trkpt lat="44.70454" lon="5.98717">
        <ele>1772</ele>
        <time>2021-09-20T09:19:42Z</time>
      </trkpt>
      <trkpt lat="44.70454" lon="5.98717">
        <ele>1772</ele>
        <time>2021-09-20T09:19:43Z</time>
      </trkpt>
      <trkpt lat="44.70454" lon="5.98718">
        <ele>1773</ele>
        <time>2021-09-20T09:20:02Z</time>
      </trkpt>
      <trkpt lat="44.70454" lon="5.98718">
        <ele>1773</ele>
        <time>2021-09-20T09:20:03Z</time>
      </trkpt>
      <trkpt lat="44.70453" lon="5.98718">
        <ele>1773</ele>
        <time>2021-09-20T09:20:04Z</time>
      </trkpt>
      <trkpt lat="44.70452" lon="5.98718">
        <ele>1773</ele>
        <time>2021-09-20T09:21:17Z</time>
      </trkpt>
      <trkpt lat="44.70452" lon="5.98719">
        <ele>1772</ele>
        <time>2021-09-20T09:21:18Z</time>
      </trkpt>
      <trkpt lat="44.70451" lon="5.98719">
        <ele>1772</ele>
        <time>2021-09-20T09:21:19Z</time>
      </trkpt>
      <trkpt lat="44.70452" lon="5.98718">
        <ele>1771</ele>
        <time>2021-09-20T09:21:31Z</time>
      </trkpt>
      <trkpt lat="44.70453" lon="5.98717">
        <ele>1771</ele>
        <time>2021-09-20T09:21:32Z</time>
      </trkpt>
      <trkpt lat="44.70453" lon="5.98716">
        <ele>1770</ele>
        <time>2021-09-20T09:21:33Z</time>
      </trkpt>
      <trkpt lat="44.70453" lon="5.98715">
        <ele>1772</ele>
        <time>2021-09-20T09:22:09Z</time>
      </trkpt>
      <trkpt lat="44.70453" lon="5.98714">
        <ele>1772</ele>
        <time>2021-09-20T09:22:10Z</time>
      </trkpt>
      <trkpt lat="44.70453" lon="5.98714">
        <ele>1772</ele>
        <time>2021-09-20T09:22:11Z</time>
      </trkpt>
      <trkpt lat="44.70454" lon="5.98714">
        <ele>1772</ele>
        <time>2021-09-20T09:22:12Z</time>
      </trkpt>
      <trkpt lat="44.70454" lon="5.98713">
        <ele>1772</ele>
        <time>2021-09-20T09:22:13Z</time>
      </trkpt>
      <trkpt lat="44.70454" lon="5.98712">
        <ele>1772</ele>
        <time>2021-09-20T09:22:14Z</time>
      </trkpt>
      <trkpt lat="44.70454" lon="5.98711">
        <ele>1772</ele>
        <time>2021-09-20T09:22:15Z</time>
      </trkpt>
      <trkpt lat="44.70454" lon="5.9871">
        <ele>1772</ele>
        <time>2021-09-20T09:22:16Z</time>
      </trkpt>
      <trkpt lat="44.70455" lon="5.98709">
        <ele>1772</ele>
        <time>2021-09-20T09:22:17Z</time>
      </trkpt>
      <trkpt lat="44.70455" lon="5.98708">
        <ele>1771</ele>
        <time>2021-09-20T09:22:18Z</time>
      </trkpt>
      <trkpt lat="44.70455" lon="5.98707">
        <ele>1771</ele>
        <time>2021-09-20T09:22:19Z</time>
      </trkpt>
      <trkpt lat="44.70456" lon="5.98706">
        <ele>1771</ele>
        <time>2021-09-20T09:22:20Z</time>
      </trkpt>
      <trkpt lat="44.70456" lon="5.98706">
        <ele>1771</ele>
        <time>2021-09-20T09:22:21Z</time>
      </trkpt>
      <trkpt lat="44.70456" lon="5.98705">
        <ele>1771</ele>
        <time>2021-09-20T09:22:22Z</time>
      </trkpt>
      <trkpt lat="44.70457" lon="5.98704">
        <ele>1771</ele>
        <time>2021-09-20T09:22:23Z</time>
      </trkpt>
      <trkpt lat="44.70457" lon="5.98703">
        <ele>1771</ele>
        <time>2021-09-20T09:22:24Z</time>
      </trkpt>
      <trkpt lat="44.70458" lon="5.98703">
        <ele>1771</ele>
        <time>2021-09-20T09:22:25Z</time>
      </trkpt>
      <trkpt lat="44.70458" lon="5.98702">
        <ele>1771</ele>
        <time>2021-09-20T09:22:26Z</time>
      </trkpt>
      <trkpt lat="44.70459" lon="5.98701">
        <ele>1771</ele>
        <time>2021-09-20T09:22:27Z</time>
      </trkpt>
      <trkpt lat="44.70459" lon="5.987">
        <ele>1771</ele>
        <time>2021-09-20T09:22:28Z</time>
      </trkpt>
      <trkpt lat="44.7046" lon="5.98699">
        <ele>1771</ele>
        <time>2021-09-20T09:22:29Z</time>
      </trkpt>
      <trkpt lat="44.7046" lon="5.98699">
        <ele>1771</ele>
        <time>2021-09-20T09:22:30Z</time>
      </trkpt>
      <trkpt lat="44.70461" lon="5.98699">
        <ele>1771</ele>
        <time>2021-09-20T09:22:31Z</time>
      </trkpt>
      <trkpt lat="44.70461" lon="5.98698">
        <ele>1771</ele>
        <time>2021-09-20T09:22:32Z</time>
      </trkpt>
      <trkpt lat="44.70462" lon="5.98697">
        <ele>1771</ele>
        <time>2021-09-20T09:22:33Z</time>
      </trkpt>
      <trkpt lat="44.70462" lon="5.98697">
        <ele>1771</ele>
        <time>2021-09-20T09:22:34Z</time>
      </trkpt>
      <trkpt lat="44.70463" lon="5.98696">
        <ele>1771</ele>
        <time>2021-09-20T09:22:35Z</time>
      </trkpt>
      <trkpt lat="44.70463" lon="5.98695">
        <ele>1771</ele>
        <time>2021-09-20T09:22:36Z</time>
      </trkpt>
      <trkpt lat="44.70463" lon="5.98695">
        <ele>1772</ele>
        <time>2021-09-20T09:22:37Z</time>
      </trkpt>
      <trkpt lat="44.70464" lon="5.98694">
        <ele>1772</ele>
        <time>2021-09-20T09:22:38Z</time>
      </trkpt>
      <trkpt lat="44.70464" lon="5.98693">
        <ele>1772</ele>
        <time>2021-09-20T09:22:39Z</time>
      </trkpt>
      <trkpt lat="44.70464" lon="5.98693">
        <ele>1772</ele>
        <time>2021-09-20T09:22:40Z</time>
      </trkpt>
      <trkpt lat="44.70465" lon="5.98692">
        <ele>1772</ele>
        <time>2021-09-20T09:22:41Z</time>
      </trkpt>
      <trkpt lat="44.70465" lon="5.98691">
        <ele>1772</ele>
        <time>2021-09-20T09:22:42Z</time>
      </trkpt>
      <trkpt lat="44.70465" lon="5.9869">
        <ele>1772</ele>
        <time>2021-09-20T09:22:43Z</time>
      </trkpt>
      <trkpt lat="44.70465" lon="5.9869">
        <ele>1772</ele>
        <time>2021-09-20T09:22:44Z</time>
      </trkpt>
      <trkpt lat="44.70466" lon="5.98689">
        <ele>1772</ele>
        <time>2021-09-20T09:22:45Z</time>
      </trkpt>
      <trkpt lat="44.70466" lon="5.98688">
        <ele>1772</ele>
        <time>2021-09-20T09:22:46Z</time>
      </trkpt>
      <trkpt lat="44.70467" lon="5.98687">
        <ele>1773</ele>
        <time>2021-09-20T09:22:47Z</time>
      </trkpt>
      <trkpt lat="44.70467" lon="5.98685">
        <ele>1773</ele>
        <time>2021-09-20T09:22:48Z</time>
      </trkpt>
      <trkpt lat="44.70468" lon="5.98685">
        <ele>1773</ele>
        <time>2021-09-20T09:22:49Z</time>
      </trkpt>
      <trkpt lat="44.70468" lon="5.98684">
        <ele>1773</ele>
        <time>2021-09-20T09:22:50Z</time>
      </trkpt>
      <trkpt lat="44.70469" lon="5.98683">
        <ele>1773</ele>
        <time>2021-09-20T09:22:51Z</time>
      </trkpt>
      <trkpt lat="44.70469" lon="5.98682">
        <ele>1773</ele>
        <time>2021-09-20T09:22:52Z</time>
      </trkpt>
      <trkpt lat="44.7047" lon="5.98681">
        <ele>1773</ele>
        <time>2021-09-20T09:22:53Z</time>
      </trkpt>
      <trkpt lat="44.7047" lon="5.9868">
        <ele>1773</ele>
        <time>2021-09-20T09:22:54Z</time>
      </trkpt>
      <trkpt lat="44.7047" lon="5.98679">
        <ele>1773</ele>
        <time>2021-09-20T09:22:55Z</time>
      </trkpt>
      <trkpt lat="44.70471" lon="5.98678">
        <ele>1773</ele>
        <time>2021-09-20T09:22:56Z</time>
      </trkpt>
      <trkpt lat="44.70471" lon="5.98677">
        <ele>1773</ele>
        <time>2021-09-20T09:22:57Z</time>
      </trkpt>
      <trkpt lat="44.70471" lon="5.98676">
        <ele>1773</ele>
        <time>2021-09-20T09:22:58Z</time>
      </trkpt>
      <trkpt lat="44.70472" lon="5.98675">
        <ele>1773</ele>
        <time>2021-09-20T09:22:59Z</time>
      </trkpt>
      <trkpt lat="44.70472" lon="5.98674">
        <ele>1773</ele>
        <time>2021-09-20T09:23:00Z</time>
      </trkpt>
      <trkpt lat="44.70472" lon="5.98674">
        <ele>1773</ele>
        <time>2021-09-20T09:23:01Z</time>
      </trkpt>
      <trkpt lat="44.70472" lon="5.98673">
        <ele>1773</ele>
        <time>2021-09-20T09:23:02Z</time>
      </trkpt>
      <trkpt lat="44.70473" lon="5.98672">
        <ele>1773</ele>
        <time>2021-09-20T09:23:03Z</time>
      </trkpt>
      <trkpt lat="44.70473" lon="5.98671">
        <ele>1773</ele>
        <time>2021-09-20T09:23:04Z</time>
      </trkpt>
      <trkpt lat="44.70473" lon="5.9867">
        <ele>1773</ele>
        <time>2021-09-20T09:23:05Z</time>
      </trkpt>
      <trkpt lat="44.70473" lon="5.98669">
        <ele>1773</ele>
        <time>2021-09-20T09:23:06Z</time>
      </trkpt>
      <trkpt lat="44.70473" lon="5.98668">
        <ele>1773</ele>
        <time>2021-09-20T09:23:07Z</time>
      </trkpt>
      <trkpt lat="44.70474" lon="5.98667">
        <ele>1773</ele>
        <time>2021-09-20T09:23:08Z</time>
      </trkpt>
      <trkpt lat="44.70474" lon="5.98666">
        <ele>1773</ele>
        <time>2021-09-20T09:23:09Z</time>
      </trkpt>
      <trkpt lat="44.70474" lon="5.98665">
        <ele>1773</ele>
        <time>2021-09-20T09:23:10Z</time>
      </trkpt>
      <trkpt lat="44.70474" lon="5.98664">
        <ele>1773</ele>
        <time>2021-09-20T09:23:11Z</time>
      </trkpt>
      <trkpt lat="44.70475" lon="5.98663">
        <ele>1773</ele>
        <time>2021-09-20T09:23:12Z</time>
      </trkpt>
      <trkpt lat="44.70475" lon="5.98662">
        <ele>1772</ele>
        <time>2021-09-20T09:23:13Z</time>
      </trkpt>
      <trkpt lat="44.70475" lon="5.98661">
        <ele>1772</ele>
        <time>2021-09-20T09:23:14Z</time>
      </trkpt>
      <trkpt lat="44.70476" lon="5.9866">
        <ele>1772</ele>
        <time>2021-09-20T09:23:15Z</time>
      </trkpt>
      <trkpt lat="44.70476" lon="5.98659">
        <ele>1772</ele>
        <time>2021-09-20T09:23:16Z</time>
      </trkpt>
      <trkpt lat="44.70476" lon="5.98658">
        <ele>1772</ele>
        <time>2021-09-20T09:23:17Z</time>
      </trkpt>
      <trkpt lat="44.70477" lon="5.98657">
        <ele>1772</ele>
        <time>2021-09-20T09:23:18Z</time>
      </trkpt>
      <trkpt lat="44.70477" lon="5.98656">
        <ele>1772</ele>
        <time>2021-09-20T09:23:19Z</time>
      </trkpt>
      <trkpt lat="44.70478" lon="5.98655">
        <ele>1772</ele>
        <time>2021-09-20T09:23:20Z</time>
      </trkpt>
      <trkpt lat="44.70478" lon="5.98654">
        <ele>1772</ele>
        <time>2021-09-20T09:23:21Z</time>
      </trkpt>
      <trkpt lat="44.70478" lon="5.98653">
        <ele>1772</ele>
        <time>2021-09-20T09:23:22Z</time>
      </trkpt>
      <trkpt lat="44.70479" lon="5.98652">
        <ele>1772</ele>
        <time>2021-09-20T09:23:23Z</time>
      </trkpt>
      <trkpt lat="44.70479" lon="5.98651">
        <ele>1772</ele>
        <time>2021-09-20T09:23:24Z</time>
      </trkpt>
      <trkpt lat="44.70479" lon="5.9865">
        <ele>1772</ele>
        <time>2021-09-20T09:23:25Z</time>
      </trkpt>
      <trkpt lat="44.7048" lon="5.98649">
        <ele>1772</ele>
        <time>2021-09-20T09:23:26Z</time>
      </trkpt>
      <trkpt lat="44.7048" lon="5.98648">
        <ele>1772</ele>
        <time>2021-09-20T09:23:27Z</time>
      </trkpt>
      <trkpt lat="44.70481" lon="5.98647">
        <ele>1772</ele>
        <time>2021-09-20T09:23:28Z</time>
      </trkpt>
      <trkpt lat="44.70481" lon="5.98646">
        <ele>1772</ele>
        <time>2021-09-20T09:23:29Z</time>
      </trkpt>
      <trkpt lat="44.70482" lon="5.98645">
        <ele>1772</ele>
        <time>2021-09-20T09:23:30Z</time>
      </trkpt>
      <trkpt lat="44.70482" lon="5.98644">
        <ele>1772</ele>
        <time>2021-09-20T09:23:31Z</time>
      </trkpt>
      <trkpt lat="44.70483" lon="5.98643">
        <ele>1772</ele>
        <time>2021-09-20T09:23:32Z</time>
      </trkpt>
      <trkpt lat="44.70483" lon="5.98643">
        <ele>1772</ele>
        <time>2021-09-20T09:23:33Z</time>
      </trkpt>
      <trkpt lat="44.70484" lon="5.98642">
        <ele>1772</ele>
        <time>2021-09-20T09:23:34Z</time>
      </trkpt>
      <trkpt lat="44.70484" lon="5.98641">
        <ele>1772</ele>
        <time>2021-09-20T09:23:35Z</time>
      </trkpt>
      <trkpt lat="44.70485" lon="5.9864">
        <ele>1772</ele>
        <time>2021-09-20T09:23:36Z</time>
      </trkpt>
      <trkpt lat="44.70485" lon="5.98639">
        <ele>1772</ele>
        <time>2021-09-20T09:23:37Z</time>
      </trkpt>
      <trkpt lat="44.70486" lon="5.98638">
        <ele>1772</ele>
        <time>2021-09-20T09:23:38Z</time>
      </trkpt>
      <trkpt lat="44.70486" lon="5.98637">
        <ele>1772</ele>
        <time>2021-09-20T09:23:39Z</time>
      </trkpt>
      <trkpt lat="44.70487" lon="5.98637">
        <ele>1772</ele>
        <time>2021-09-20T09:23:40Z</time>
      </trkpt>
      <trkpt lat="44.70487" lon="5.98636">
        <ele>1772</ele>
        <time>2021-09-20T09:23:41Z</time>
      </trkpt>
      <trkpt lat="44.70487" lon="5.98635">
        <ele>1773</ele>
        <time>2021-09-20T09:23:42Z</time>
      </trkpt>
      <trkpt lat="44.70488" lon="5.98634">
        <ele>1773</ele>
        <time>2021-09-20T09:23:43Z</time>
      </trkpt>
      <trkpt lat="44.70488" lon="5.98633">
        <ele>1773</ele>
        <time>2021-09-20T09:23:44Z</time>
      </trkpt>
      <trkpt lat="44.70488" lon="5.98631">
        <ele>1773</ele>
        <time>2021-09-20T09:23:45Z</time>
      </trkpt>
      <trkpt lat="44.70488" lon="5.9863">
        <ele>1773</ele>
        <time>2021-09-20T09:23:46Z</time>
      </trkpt>
      <trkpt lat="44.70489" lon="5.98629">
        <ele>1773</ele>
        <time>2021-09-20T09:23:47Z</time>
      </trkpt>
      <trkpt lat="44.70489" lon="5.98628">
        <ele>1773</ele>
        <time>2021-09-20T09:23:48Z</time>
      </trkpt>
      <trkpt lat="44.70489" lon="5.98627">
        <ele>1773</ele>
        <time>2021-09-20T09:23:49Z</time>
      </trkpt>
      <trkpt lat="44.7049" lon="5.98626">
        <ele>1773</ele>
        <time>2021-09-20T09:23:50Z</time>
      </trkpt>
      <trkpt lat="44.7049" lon="5.98625">
        <ele>1773</ele>
        <time>2021-09-20T09:23:51Z</time>
      </trkpt>
      <trkpt lat="44.7049" lon="5.98625">
        <ele>1773</ele>
        <time>2021-09-20T09:23:52Z</time>
      </trkpt>
      <trkpt lat="44.7049" lon="5.98624">
        <ele>1773</ele>
        <time>2021-09-20T09:23:53Z</time>
      </trkpt>
      <trkpt lat="44.7049" lon="5.98623">
        <ele>1773</ele>
        <time>2021-09-20T09:23:54Z</time>
      </trkpt>
      <trkpt lat="44.7049" lon="5.98623">
        <ele>1773</ele>
        <time>2021-09-20T09:23:55Z</time>
      </trkpt>
      <trkpt lat="44.7049" lon="5.98622">
        <ele>1773</ele>
        <time>2021-09-20T09:23:56Z</time>
      </trkpt>
      <trkpt lat="44.7049" lon="5.9862">
        <ele>1774</ele>
        <time>2021-09-20T09:23:57Z</time>
      </trkpt>
      <trkpt lat="44.70491" lon="5.98619">
        <ele>1774</ele>
        <time>2021-09-20T09:23:58Z</time>
      </trkpt>
      <trkpt lat="44.70491" lon="5.98618">
        <ele>1774</ele>
        <time>2021-09-20T09:23:59Z</time>
      </trkpt>
      <trkpt lat="44.70491" lon="5.98617">
        <ele>1774</ele>
        <time>2021-09-20T09:24:00Z</time>
      </trkpt>
      <trkpt lat="44.70491" lon="5.98616">
        <ele>1774</ele>
        <time>2021-09-20T09:24:01Z</time>
      </trkpt>
      <trkpt lat="44.70491" lon="5.98614">
        <ele>1774</ele>
        <time>2021-09-20T09:24:02Z</time>
      </trkpt>
      <trkpt lat="44.70491" lon="5.98613">
        <ele>1774</ele>
        <time>2021-09-20T09:24:03Z</time>
      </trkpt>
      <trkpt lat="44.70492" lon="5.98611">
        <ele>1774</ele>
        <time>2021-09-20T09:24:04Z</time>
      </trkpt>
      <trkpt lat="44.70492" lon="5.9861">
        <ele>1774</ele>
        <time>2021-09-20T09:24:05Z</time>
      </trkpt>
      <trkpt lat="44.70492" lon="5.98608">
        <ele>1774</ele>
        <time>2021-09-20T09:24:06Z</time>
      </trkpt>
      <trkpt lat="44.70492" lon="5.98607">
        <ele>1774</ele>
        <time>2021-09-20T09:24:07Z</time>
      </trkpt>
      <trkpt lat="44.70493" lon="5.98606">
        <ele>1774</ele>
        <time>2021-09-20T09:24:08Z</time>
      </trkpt>
      <trkpt lat="44.70493" lon="5.98605">
        <ele>1774</ele>
        <time>2021-09-20T09:24:09Z</time>
      </trkpt>
      <trkpt lat="44.70493" lon="5.98604">
        <ele>1774</ele>
        <time>2021-09-20T09:24:10Z</time>
      </trkpt>
      <trkpt lat="44.70494" lon="5.98602">
        <ele>1774</ele>
        <time>2021-09-20T09:24:11Z</time>
      </trkpt>
      <trkpt lat="44.70494" lon="5.986">
        <ele>1774</ele>
        <time>2021-09-20T09:24:12Z</time>
      </trkpt>
      <trkpt lat="44.70494" lon="5.98599">
        <ele>1774</ele>
        <time>2021-09-20T09:24:13Z</time>
      </trkpt>
      <trkpt lat="44.70494" lon="5.98598">
        <ele>1774</ele>
        <time>2021-09-20T09:24:14Z</time>
      </trkpt>
      <trkpt lat="44.70494" lon="5.98597">
        <ele>1774</ele>
        <time>2021-09-20T09:24:15Z</time>
      </trkpt>
      <trkpt lat="44.70494" lon="5.98597">
        <ele>1774</ele>
        <time>2021-09-20T09:24:16Z</time>
      </trkpt>
      <trkpt lat="44.70494" lon="5.98596">
        <ele>1774</ele>
        <time>2021-09-20T09:24:17Z</time>
      </trkpt>
      <trkpt lat="44.70494" lon="5.98595">
        <ele>1774</ele>
        <time>2021-09-20T09:24:18Z</time>
      </trkpt>
      <trkpt lat="44.70494" lon="5.98594">
        <ele>1774</ele>
        <time>2021-09-20T09:24:19Z</time>
      </trkpt>
      <trkpt lat="44.70494" lon="5.98593">
        <ele>1774</ele>
        <time>2021-09-20T09:24:20Z</time>
      </trkpt>
      <trkpt lat="44.70494" lon="5.98592">
        <ele>1774</ele>
        <time>2021-09-20T09:24:21Z</time>
      </trkpt>
      <trkpt lat="44.70494" lon="5.98591">
        <ele>1774</ele>
        <time>2021-09-20T09:24:22Z</time>
      </trkpt>
      <trkpt lat="44.70494" lon="5.9859">
        <ele>1774</ele>
        <time>2021-09-20T09:24:23Z</time>
      </trkpt>
      <trkpt lat="44.70495" lon="5.98589">
        <ele>1774</ele>
        <time>2021-09-20T09:24:24Z</time>
      </trkpt>
      <trkpt lat="44.70495" lon="5.98587">
        <ele>1774</ele>
        <time>2021-09-20T09:24:25Z</time>
      </trkpt>
      <trkpt lat="44.70495" lon="5.98586">
        <ele>1774</ele>
        <time>2021-09-20T09:24:26Z</time>
      </trkpt>
      <trkpt lat="44.70496" lon="5.98585">
        <ele>1774</ele>
        <time>2021-09-20T09:24:27Z</time>
      </trkpt>
      <trkpt lat="44.70496" lon="5.98584">
        <ele>1774</ele>
        <time>2021-09-20T09:24:28Z</time>
      </trkpt>
      <trkpt lat="44.70497" lon="5.98583">
        <ele>1774</ele>
        <time>2021-09-20T09:24:29Z</time>
      </trkpt>
      <trkpt lat="44.70497" lon="5.98582">
        <ele>1774</ele>
        <time>2021-09-20T09:24:30Z</time>
      </trkpt>
      <trkpt lat="44.70498" lon="5.98581">
        <ele>1774</ele>
        <time>2021-09-20T09:24:31Z</time>
      </trkpt>
      <trkpt lat="44.70498" lon="5.9858">
        <ele>1774</ele>
        <time>2021-09-20T09:24:32Z</time>
      </trkpt>
      <trkpt lat="44.70499" lon="5.98579">
        <ele>1774</ele>
        <time>2021-09-20T09:24:33Z</time>
      </trkpt>
      <trkpt lat="44.70499" lon="5.98578">
        <ele>1774</ele>
        <time>2021-09-20T09:24:34Z</time>
      </trkpt>
      <trkpt lat="44.705" lon="5.98577">
        <ele>1774</ele>
        <time>2021-09-20T09:24:35Z</time>
      </trkpt>
      <trkpt lat="44.705" lon="5.98577">
        <ele>1774</ele>
        <time>2021-09-20T09:24:36Z</time>
      </trkpt>
      <trkpt lat="44.705" lon="5.98576">
        <ele>1774</ele>
        <time>2021-09-20T09:24:37Z</time>
      </trkpt>
      <trkpt lat="44.705" lon="5.98575">
        <ele>1774</ele>
        <time>2021-09-20T09:24:46Z</time>
      </trkpt>
      <trkpt lat="44.705" lon="5.98574">
        <ele>1775</ele>
        <time>2021-09-20T09:24:47Z</time>
      </trkpt>
      <trkpt lat="44.705" lon="5.98573">
        <ele>1775</ele>
        <time>2021-09-20T09:24:48Z</time>
      </trkpt>
      <trkpt lat="44.705" lon="5.98573">
        <ele>1775</ele>
        <time>2021-09-20T09:24:49Z</time>
      </trkpt>
      <trkpt lat="44.705" lon="5.98572">
        <ele>1775</ele>
        <time>2021-09-20T09:24:50Z</time>
      </trkpt>
      <trkpt lat="44.70501" lon="5.98571">
        <ele>1775</ele>
        <time>2021-09-20T09:24:51Z</time>
      </trkpt>
      <trkpt lat="44.70501" lon="5.9857">
        <ele>1775</ele>
        <time>2021-09-20T09:24:52Z</time>
      </trkpt>
      <trkpt lat="44.70502" lon="5.98569">
        <ele>1775</ele>
        <time>2021-09-20T09:24:53Z</time>
      </trkpt>
      <trkpt lat="44.70503" lon="5.98568">
        <ele>1775</ele>
        <time>2021-09-20T09:24:54Z</time>
      </trkpt>
      <trkpt lat="44.70503" lon="5.98567">
        <ele>1775</ele>
        <time>2021-09-20T09:24:55Z</time>
      </trkpt>
      <trkpt lat="44.70504" lon="5.98566">
        <ele>1775</ele>
        <time>2021-09-20T09:24:56Z</time>
      </trkpt>
      <trkpt lat="44.70504" lon="5.98565">
        <ele>1775</ele>
        <time>2021-09-20T09:24:57Z</time>
      </trkpt>
      <trkpt lat="44.70504" lon="5.98565">
        <ele>1775</ele>
        <time>2021-09-20T09:24:58Z</time>
      </trkpt>
      <trkpt lat="44.70505" lon="5.98564">
        <ele>1775</ele>
        <time>2021-09-20T09:24:59Z</time>
      </trkpt>
      <trkpt lat="44.70505" lon="5.98563">
        <ele>1775</ele>
        <time>2021-09-20T09:25:00Z</time>
      </trkpt>
      <trkpt lat="44.70506" lon="5.98562">
        <ele>1775</ele>
        <time>2021-09-20T09:25:01Z</time>
      </trkpt>
      <trkpt lat="44.70506" lon="5.98562">
        <ele>1775</ele>
        <time>2021-09-20T09:25:02Z</time>
      </trkpt>
      <trkpt lat="44.70507" lon="5.98561">
        <ele>1775</ele>
        <time>2021-09-20T09:25:03Z</time>
      </trkpt>
      <trkpt lat="44.70508" lon="5.9856">
        <ele>1775</ele>
        <time>2021-09-20T09:25:04Z</time>
      </trkpt>
      <trkpt lat="44.70508" lon="5.9856">
        <ele>1775</ele>
        <time>2021-09-20T09:25:05Z</time>
      </trkpt>
      <trkpt lat="44.70509" lon="5.98559">
        <ele>1775</ele>
        <time>2021-09-20T09:25:06Z</time>
      </trkpt>
      <trkpt lat="44.70509" lon="5.98559">
        <ele>1775</ele>
        <time>2021-09-20T09:25:07Z</time>
      </trkpt>
      <trkpt lat="44.70509" lon="5.98558">
        <ele>1775</ele>
        <time>2021-09-20T09:25:08Z</time>
      </trkpt>
      <trkpt lat="44.7051" lon="5.98557">
        <ele>1775</ele>
        <time>2021-09-20T09:25:09Z</time>
      </trkpt>
      <trkpt lat="44.7051" lon="5.98556">
        <ele>1775</ele>
        <time>2021-09-20T09:25:10Z</time>
      </trkpt>
      <trkpt lat="44.7051" lon="5.98555">
        <ele>1775</ele>
        <time>2021-09-20T09:25:11Z</time>
      </trkpt>
      <trkpt lat="44.70511" lon="5.98554">
        <ele>1775</ele>
        <time>2021-09-20T09:25:12Z</time>
      </trkpt>
      <trkpt lat="44.70511" lon="5.98553">
        <ele>1775</ele>
        <time>2021-09-20T09:25:13Z</time>
      </trkpt>
      <trkpt lat="44.70512" lon="5.98552">
        <ele>1775</ele>
        <time>2021-09-20T09:25:14Z</time>
      </trkpt>
      <trkpt lat="44.70512" lon="5.98551">
        <ele>1775</ele>
        <time>2021-09-20T09:25:15Z</time>
      </trkpt>
      <trkpt lat="44.70512" lon="5.9855">
        <ele>1775</ele>
        <time>2021-09-20T09:25:16Z</time>
      </trkpt>
      <trkpt lat="44.70512" lon="5.98549">
        <ele>1775</ele>
        <time>2021-09-20T09:25:17Z</time>
      </trkpt>
      <trkpt lat="44.70513" lon="5.98549">
        <ele>1775</ele>
        <time>2021-09-20T09:25:18Z</time>
      </trkpt>
      <trkpt lat="44.70513" lon="5.98548">
        <ele>1775</ele>
        <time>2021-09-20T09:25:19Z</time>
      </trkpt>
      <trkpt lat="44.70514" lon="5.98547">
        <ele>1775</ele>
        <time>2021-09-20T09:25:20Z</time>
      </trkpt>
      <trkpt lat="44.70514" lon="5.98546">
        <ele>1775</ele>
        <time>2021-09-20T09:25:21Z</time>
      </trkpt>
      <trkpt lat="44.70515" lon="5.98546">
        <ele>1776</ele>
        <time>2021-09-20T09:25:22Z</time>
      </trkpt>
      <trkpt lat="44.70515" lon="5.98544">
        <ele>1776</ele>
        <time>2021-09-20T09:25:23Z</time>
      </trkpt>
      <trkpt lat="44.70516" lon="5.98543">
        <ele>1776</ele>
        <time>2021-09-20T09:25:24Z</time>
      </trkpt>
      <trkpt lat="44.70516" lon="5.98542">
        <ele>1776</ele>
        <time>2021-09-20T09:25:25Z</time>
      </trkpt>
      <trkpt lat="44.70516" lon="5.98541">
        <ele>1776</ele>
        <time>2021-09-20T09:25:26Z</time>
      </trkpt>
      <trkpt lat="44.70516" lon="5.9854">
        <ele>1776</ele>
        <time>2021-09-20T09:25:27Z</time>
      </trkpt>
      <trkpt lat="44.70516" lon="5.98539">
        <ele>1776</ele>
        <time>2021-09-20T09:25:28Z</time>
      </trkpt>
      <trkpt lat="44.70517" lon="5.98538">
        <ele>1776</ele>
        <time>2021-09-20T09:25:29Z</time>
      </trkpt>
      <trkpt lat="44.70517" lon="5.98537">
        <ele>1776</ele>
        <time>2021-09-20T09:25:30Z</time>
      </trkpt>
      <trkpt lat="44.70517" lon="5.98537">
        <ele>1776</ele>
        <time>2021-09-20T09:25:31Z</time>
      </trkpt>
      <trkpt lat="44.70517" lon="5.98536">
        <ele>1776</ele>
        <time>2021-09-20T09:25:32Z</time>
      </trkpt>
      <trkpt lat="44.70518" lon="5.98535">
        <ele>1776</ele>
        <time>2021-09-20T09:25:38Z</time>
      </trkpt>
      <trkpt lat="44.70519" lon="5.98535">
        <ele>1776</ele>
        <time>2021-09-20T09:25:39Z</time>
      </trkpt>
      <trkpt lat="44.70519" lon="5.98534">
        <ele>1776</ele>
        <time>2021-09-20T09:25:40Z</time>
      </trkpt>
      <trkpt lat="44.7052" lon="5.98534">
        <ele>1776</ele>
        <time>2021-09-20T09:25:41Z</time>
      </trkpt>
      <trkpt lat="44.7052" lon="5.98533">
        <ele>1776</ele>
        <time>2021-09-20T09:25:42Z</time>
      </trkpt>
      <trkpt lat="44.70521" lon="5.98532">
        <ele>1776</ele>
        <time>2021-09-20T09:25:43Z</time>
      </trkpt>
      <trkpt lat="44.70521" lon="5.98531">
        <ele>1776</ele>
        <time>2021-09-20T09:25:44Z</time>
      </trkpt>
      <trkpt lat="44.70522" lon="5.9853">
        <ele>1776</ele>
        <time>2021-09-20T09:25:45Z</time>
      </trkpt>
      <trkpt lat="44.70522" lon="5.9853">
        <ele>1776</ele>
        <time>2021-09-20T09:25:46Z</time>
      </trkpt>
      <trkpt lat="44.70522" lon="5.98529">
        <ele>1777</ele>
        <time>2021-09-20T09:25:47Z</time>
      </trkpt>
      <trkpt lat="44.70523" lon="5.98529">
        <ele>1777</ele>
        <time>2021-09-20T09:25:48Z</time>
      </trkpt>
      <trkpt lat="44.70523" lon="5.98528">
        <ele>1777</ele>
        <time>2021-09-20T09:25:49Z</time>
      </trkpt>
      <trkpt lat="44.70523" lon="5.98528">
        <ele>1777</ele>
        <time>2021-09-20T09:25:50Z</time>
      </trkpt>
      <trkpt lat="44.70523" lon="5.98527">
        <ele>1777</ele>
        <time>2021-09-20T09:25:51Z</time>
      </trkpt>
      <trkpt lat="44.70524" lon="5.98527">
        <ele>1777</ele>
        <time>2021-09-20T09:25:52Z</time>
      </trkpt>
      <trkpt lat="44.70524" lon="5.98526">
        <ele>1777</ele>
        <time>2021-09-20T09:25:53Z</time>
      </trkpt>
      <trkpt lat="44.70525" lon="5.98525">
        <ele>1777</ele>
        <time>2021-09-20T09:25:54Z</time>
      </trkpt>
      <trkpt lat="44.70526" lon="5.98525">
        <ele>1777</ele>
        <time>2021-09-20T09:25:55Z</time>
      </trkpt>
      <trkpt lat="44.70526" lon="5.98524">
        <ele>1777</ele>
        <time>2021-09-20T09:25:56Z</time>
      </trkpt>
      <trkpt lat="44.70527" lon="5.98524">
        <ele>1777</ele>
        <time>2021-09-20T09:25:57Z</time>
      </trkpt>
      <trkpt lat="44.70527" lon="5.98523">
        <ele>1777</ele>
        <time>2021-09-20T09:25:58Z</time>
      </trkpt>
      <trkpt lat="44.70527" lon="5.98522">
        <ele>1777</ele>
        <time>2021-09-20T09:25:59Z</time>
      </trkpt>
      <trkpt lat="44.70528" lon="5.98521">
        <ele>1777</ele>
        <time>2021-09-20T09:26:00Z</time>
      </trkpt>
      <trkpt lat="44.70528" lon="5.9852">
        <ele>1777</ele>
        <time>2021-09-20T09:26:01Z</time>
      </trkpt>
      <trkpt lat="44.70528" lon="5.98519">
        <ele>1778</ele>
        <time>2021-09-20T09:26:02Z</time>
      </trkpt>
      <trkpt lat="44.70528" lon="5.98518">
        <ele>1778</ele>
        <time>2021-09-20T09:26:03Z</time>
      </trkpt>
      <trkpt lat="44.70529" lon="5.98517">
        <ele>1778</ele>
        <time>2021-09-20T09:26:04Z</time>
      </trkpt>
      <trkpt lat="44.70529" lon="5.98515">
        <ele>1778</ele>
        <time>2021-09-20T09:26:05Z</time>
      </trkpt>
      <trkpt lat="44.7053" lon="5.98514">
        <ele>1778</ele>
        <time>2021-09-20T09:26:06Z</time>
      </trkpt>
      <trkpt lat="44.7053" lon="5.98513">
        <ele>1778</ele>
        <time>2021-09-20T09:26:07Z</time>
      </trkpt>
      <trkpt lat="44.7053" lon="5.98512">
        <ele>1778</ele>
        <time>2021-09-20T09:26:08Z</time>
      </trkpt>
      <trkpt lat="44.70531" lon="5.98511">
        <ele>1778</ele>
        <time>2021-09-20T09:26:09Z</time>
      </trkpt>
      <trkpt lat="44.70531" lon="5.9851">
        <ele>1778</ele>
        <time>2021-09-20T09:26:10Z</time>
      </trkpt>
      <trkpt lat="44.70532" lon="5.98509">
        <ele>1778</ele>
        <time>2021-09-20T09:26:11Z</time>
      </trkpt>
      <trkpt lat="44.70532" lon="5.98508">
        <ele>1778</ele>
        <time>2021-09-20T09:26:12Z</time>
      </trkpt>
      <trkpt lat="44.70532" lon="5.98507">
        <ele>1778</ele>
        <time>2021-09-20T09:26:13Z</time>
      </trkpt>
      <trkpt lat="44.70532" lon="5.98506">
        <ele>1778</ele>
        <time>2021-09-20T09:26:14Z</time>
      </trkpt>
      <trkpt lat="44.70532" lon="5.98505">
        <ele>1778</ele>
        <time>2021-09-20T09:26:15Z</time>
      </trkpt>
      <trkpt lat="44.70533" lon="5.98504">
        <ele>1778</ele>
        <time>2021-09-20T09:26:16Z</time>
      </trkpt>
      <trkpt lat="44.70533" lon="5.98503">
        <ele>1779</ele>
        <time>2021-09-20T09:26:17Z</time>
      </trkpt>
      <trkpt lat="44.70533" lon="5.98502">
        <ele>1779</ele>
        <time>2021-09-20T09:26:18Z</time>
      </trkpt>
      <trkpt lat="44.70534" lon="5.98501">
        <ele>1779</ele>
        <time>2021-09-20T09:26:19Z</time>
      </trkpt>
      <trkpt lat="44.70534" lon="5.985">
        <ele>1779</ele>
        <time>2021-09-20T09:26:20Z</time>
      </trkpt>
      <trkpt lat="44.70535" lon="5.985">
        <ele>1779</ele>
        <time>2021-09-20T09:26:21Z</time>
      </trkpt>
      <trkpt lat="44.70535" lon="5.985">
        <ele>1779</ele>
        <time>2021-09-20T09:26:22Z</time>
      </trkpt>
      <trkpt lat="44.70535" lon="5.98499">
        <ele>1779</ele>
        <time>2021-09-20T09:26:23Z</time>
      </trkpt>
      <trkpt lat="44.70536" lon="5.98499">
        <ele>1779</ele>
        <time>2021-09-20T09:26:24Z</time>
      </trkpt>
      <trkpt lat="44.70536" lon="5.98498">
        <ele>1779</ele>
        <time>2021-09-20T09:26:25Z</time>
      </trkpt>
      <trkpt lat="44.70536" lon="5.98497">
        <ele>1779</ele>
        <time>2021-09-20T09:26:26Z</time>
      </trkpt>
      <trkpt lat="44.70536" lon="5.98497">
        <ele>1779</ele>
        <time>2021-09-20T09:26:27Z</time>
      </trkpt>
      <trkpt lat="44.70536" lon="5.98496">
        <ele>1779</ele>
        <time>2021-09-20T09:26:28Z</time>
      </trkpt>
      <trkpt lat="44.70536" lon="5.98495">
        <ele>1779</ele>
        <time>2021-09-20T09:26:29Z</time>
      </trkpt>
      <trkpt lat="44.70536" lon="5.98494">
        <ele>1779</ele>
        <time>2021-09-20T09:26:30Z</time>
      </trkpt>
      <trkpt lat="44.70536" lon="5.98493">
        <ele>1779</ele>
        <time>2021-09-20T09:26:31Z</time>
      </trkpt>
      <trkpt lat="44.70536" lon="5.98492">
        <ele>1779</ele>
        <time>2021-09-20T09:26:32Z</time>
      </trkpt>
      <trkpt lat="44.70537" lon="5.98491">
        <ele>1779</ele>
        <time>2021-09-20T09:26:33Z</time>
      </trkpt>
      <trkpt lat="44.70537" lon="5.9849">
        <ele>1779</ele>
        <time>2021-09-20T09:26:34Z</time>
      </trkpt>
      <trkpt lat="44.70537" lon="5.98489">
        <ele>1779</ele>
        <time>2021-09-20T09:26:35Z</time>
      </trkpt>
      <trkpt lat="44.70537" lon="5.98488">
        <ele>1779</ele>
        <time>2021-09-20T09:26:36Z</time>
      </trkpt>
      <trkpt lat="44.70538" lon="5.98487">
        <ele>1779</ele>
        <time>2021-09-20T09:26:37Z</time>
      </trkpt>
      <trkpt lat="44.70538" lon="5.98487">
        <ele>1779</ele>
        <time>2021-09-20T09:26:38Z</time>
      </trkpt>
      <trkpt lat="44.70538" lon="5.98486">
        <ele>1779</ele>
        <time>2021-09-20T09:26:39Z</time>
      </trkpt>
      <trkpt lat="44.70539" lon="5.98485">
        <ele>1779</ele>
        <time>2021-09-20T09:26:40Z</time>
      </trkpt>
      <trkpt lat="44.70539" lon="5.98484">
        <ele>1779</ele>
        <time>2021-09-20T09:26:41Z</time>
      </trkpt>
      <trkpt lat="44.70539" lon="5.98483">
        <ele>1780</ele>
        <time>2021-09-20T09:26:42Z</time>
      </trkpt>
      <trkpt lat="44.70539" lon="5.98482">
        <ele>1780</ele>
        <time>2021-09-20T09:26:43Z</time>
      </trkpt>
      <trkpt lat="44.70539" lon="5.98481">
        <ele>1780</ele>
        <time>2021-09-20T09:26:44Z</time>
      </trkpt>
      <trkpt lat="44.70539" lon="5.9848">
        <ele>1780</ele>
        <time>2021-09-20T09:26:45Z</time>
      </trkpt>
      <trkpt lat="44.70539" lon="5.98479">
        <ele>1780</ele>
        <time>2021-09-20T09:26:46Z</time>
      </trkpt>
      <trkpt lat="44.70539" lon="5.98478">
        <ele>1781</ele>
        <time>2021-09-20T09:26:47Z</time>
      </trkpt>
      <trkpt lat="44.70539" lon="5.98478">
        <ele>1781</ele>
        <time>2021-09-20T09:26:48Z</time>
      </trkpt>
      <trkpt lat="44.70539" lon="5.98477">
        <ele>1781</ele>
        <time>2021-09-20T09:26:49Z</time>
      </trkpt>
      <trkpt lat="44.70539" lon="5.98476">
        <ele>1781</ele>
        <time>2021-09-20T09:26:50Z</time>
      </trkpt>
      <trkpt lat="44.70539" lon="5.98475">
        <ele>1781</ele>
        <time>2021-09-20T09:26:51Z</time>
      </trkpt>
      <trkpt lat="44.70539" lon="5.98474">
        <ele>1782</ele>
        <time>2021-09-20T09:26:52Z</time>
      </trkpt>
      <trkpt lat="44.70539" lon="5.98473">
        <ele>1782</ele>
        <time>2021-09-20T09:26:53Z</time>
      </trkpt>
      <trkpt lat="44.70539" lon="5.98472">
        <ele>1782</ele>
        <time>2021-09-20T09:26:54Z</time>
      </trkpt>
      <trkpt lat="44.70539" lon="5.98471">
        <ele>1782</ele>
        <time>2021-09-20T09:26:55Z</time>
      </trkpt>
      <trkpt lat="44.7054" lon="5.9847">
        <ele>1782</ele>
        <time>2021-09-20T09:26:56Z</time>
      </trkpt>
      <trkpt lat="44.7054" lon="5.98469">
        <ele>1783</ele>
        <time>2021-09-20T09:26:57Z</time>
      </trkpt>
      <trkpt lat="44.7054" lon="5.98468">
        <ele>1783</ele>
        <time>2021-09-20T09:26:58Z</time>
      </trkpt>
      <trkpt lat="44.7054" lon="5.98467">
        <ele>1783</ele>
        <time>2021-09-20T09:26:59Z</time>
      </trkpt>
      <trkpt lat="44.7054" lon="5.98467">
        <ele>1783</ele>
        <time>2021-09-20T09:27:00Z</time>
      </trkpt>
      <trkpt lat="44.7054" lon="5.98466">
        <ele>1783</ele>
        <time>2021-09-20T09:27:01Z</time>
      </trkpt>
      <trkpt lat="44.7054" lon="5.98465">
        <ele>1783</ele>
        <time>2021-09-20T09:27:02Z</time>
      </trkpt>
      <trkpt lat="44.7054" lon="5.98464">
        <ele>1783</ele>
        <time>2021-09-20T09:27:03Z</time>
      </trkpt>
      <trkpt lat="44.7054" lon="5.98463">
        <ele>1783</ele>
        <time>2021-09-20T09:27:04Z</time>
      </trkpt>
      <trkpt lat="44.7054" lon="5.98461">
        <ele>1783</ele>
        <time>2021-09-20T09:27:05Z</time>
      </trkpt>
      <trkpt lat="44.7054" lon="5.9846">
        <ele>1783</ele>
        <time>2021-09-20T09:27:06Z</time>
      </trkpt>
      <trkpt lat="44.7054" lon="5.9846">
        <ele>1784</ele>
        <time>2021-09-20T09:27:07Z</time>
      </trkpt>
      <trkpt lat="44.70539" lon="5.98459">
        <ele>1784</ele>
        <time>2021-09-20T09:27:08Z</time>
      </trkpt>
      <trkpt lat="44.70539" lon="5.98458">
        <ele>1784</ele>
        <time>2021-09-20T09:27:09Z</time>
      </trkpt>
      <trkpt lat="44.70539" lon="5.98457">
        <ele>1784</ele>
        <time>2021-09-20T09:27:10Z</time>
      </trkpt>
      <trkpt lat="44.70539" lon="5.98456">
        <ele>1784</ele>
        <time>2021-09-20T09:27:11Z</time>
      </trkpt>
      <trkpt lat="44.70539" lon="5.98455">
        <ele>1784</ele>
        <time>2021-09-20T09:27:12Z</time>
      </trkpt>
      <trkpt lat="44.70539" lon="5.98454">
        <ele>1784</ele>
        <time>2021-09-20T09:27:13Z</time>
      </trkpt>
      <trkpt lat="44.70539" lon="5.98453">
        <ele>1784</ele>
        <time>2021-09-20T09:27:14Z</time>
      </trkpt>
      <trkpt lat="44.70539" lon="5.98452">
        <ele>1784</ele>
        <time>2021-09-20T09:27:15Z</time>
      </trkpt>
      <trkpt lat="44.70539" lon="5.98451">
        <ele>1784</ele>
        <time>2021-09-20T09:27:16Z</time>
      </trkpt>
      <trkpt lat="44.70539" lon="5.9845">
        <ele>1785</ele>
        <time>2021-09-20T09:27:17Z</time>
      </trkpt>
      <trkpt lat="44.70539" lon="5.98449">
        <ele>1785</ele>
        <time>2021-09-20T09:27:18Z</time>
      </trkpt>
      <trkpt lat="44.70538" lon="5.98448">
        <ele>1785</ele>
        <time>2021-09-20T09:27:19Z</time>
      </trkpt>
      <trkpt lat="44.70539" lon="5.98448">
        <ele>1785</ele>
        <time>2021-09-20T09:27:20Z</time>
      </trkpt>
      <trkpt lat="44.70539" lon="5.98447">
        <ele>1785</ele>
        <time>2021-09-20T09:27:21Z</time>
      </trkpt>
      <trkpt lat="44.70539" lon="5.98446">
        <ele>1786</ele>
        <time>2021-09-20T09:27:22Z</time>
      </trkpt>
      <trkpt lat="44.70539" lon="5.98445">
        <ele>1786</ele>
        <time>2021-09-20T09:27:23Z</time>
      </trkpt>
      <trkpt lat="44.70539" lon="5.98444">
        <ele>1786</ele>
        <time>2021-09-20T09:27:24Z</time>
      </trkpt>
      <trkpt lat="44.70539" lon="5.98444">
        <ele>1786</ele>
        <time>2021-09-20T09:27:25Z</time>
      </trkpt>
      <trkpt lat="44.70539" lon="5.98443">
        <ele>1786</ele>
        <time>2021-09-20T09:27:26Z</time>
      </trkpt>
      <trkpt lat="44.70538" lon="5.98442">
        <ele>1786</ele>
        <time>2021-09-20T09:27:27Z</time>
      </trkpt>
      <trkpt lat="44.70538" lon="5.98441">
        <ele>1786</ele>
        <time>2021-09-20T09:27:28Z</time>
      </trkpt>
      <trkpt lat="44.70538" lon="5.9844">
        <ele>1786</ele>
        <time>2021-09-20T09:27:29Z</time>
      </trkpt>
      <trkpt lat="44.70538" lon="5.98439">
        <ele>1786</ele>
        <time>2021-09-20T09:27:30Z</time>
      </trkpt>
      <trkpt lat="44.70538" lon="5.98438">
        <ele>1786</ele>
        <time>2021-09-20T09:27:31Z</time>
      </trkpt>
      <trkpt lat="44.70538" lon="5.98437">
        <ele>1787</ele>
        <time>2021-09-20T09:27:32Z</time>
      </trkpt>
      <trkpt lat="44.70537" lon="5.98436">
        <ele>1787</ele>
        <time>2021-09-20T09:27:33Z</time>
      </trkpt>
      <trkpt lat="44.70537" lon="5.98435">
        <ele>1787</ele>
        <time>2021-09-20T09:27:34Z</time>
      </trkpt>
      <trkpt lat="44.70537" lon="5.98434">
        <ele>1787</ele>
        <time>2021-09-20T09:27:35Z</time>
      </trkpt>
      <trkpt lat="44.70537" lon="5.98433">
        <ele>1787</ele>
        <time>2021-09-20T09:27:36Z</time>
      </trkpt>
      <trkpt lat="44.70537" lon="5.98432">
        <ele>1788</ele>
        <time>2021-09-20T09:27:37Z</time>
      </trkpt>
      <trkpt lat="44.70536" lon="5.98431">
        <ele>1788</ele>
        <time>2021-09-20T09:27:38Z</time>
      </trkpt>
      <trkpt lat="44.70536" lon="5.9843">
        <ele>1788</ele>
        <time>2021-09-20T09:27:39Z</time>
      </trkpt>
      <trkpt lat="44.70536" lon="5.9843">
        <ele>1788</ele>
        <time>2021-09-20T09:27:40Z</time>
      </trkpt>
      <trkpt lat="44.70536" lon="5.98429">
        <ele>1788</ele>
        <time>2021-09-20T09:27:41Z</time>
      </trkpt>
      <trkpt lat="44.70536" lon="5.98428">
        <ele>1788</ele>
        <time>2021-09-20T09:27:42Z</time>
      </trkpt>
      <trkpt lat="44.70535" lon="5.98428">
        <ele>1788</ele>
        <time>2021-09-20T09:27:43Z</time>
      </trkpt>
      <trkpt lat="44.70535" lon="5.98427">
        <ele>1788</ele>
        <time>2021-09-20T09:27:44Z</time>
      </trkpt>
      <trkpt lat="44.70535" lon="5.98426">
        <ele>1788</ele>
        <time>2021-09-20T09:27:45Z</time>
      </trkpt>
      <trkpt lat="44.70534" lon="5.98426">
        <ele>1788</ele>
        <time>2021-09-20T09:27:46Z</time>
      </trkpt>
      <trkpt lat="44.70534" lon="5.98425">
        <ele>1789</ele>
        <time>2021-09-20T09:27:47Z</time>
      </trkpt>
      <trkpt lat="44.70534" lon="5.98425">
        <ele>1789</ele>
        <time>2021-09-20T09:27:48Z</time>
      </trkpt>
      <trkpt lat="44.70533" lon="5.98424">
        <ele>1789</ele>
        <time>2021-09-20T09:27:49Z</time>
      </trkpt>
      <trkpt lat="44.70533" lon="5.98423">
        <ele>1789</ele>
        <time>2021-09-20T09:27:50Z</time>
      </trkpt>
      <trkpt lat="44.70532" lon="5.98423">
        <ele>1789</ele>
        <time>2021-09-20T09:27:51Z</time>
      </trkpt>
      <trkpt lat="44.70532" lon="5.98422">
        <ele>1789</ele>
        <time>2021-09-20T09:27:52Z</time>
      </trkpt>
      <trkpt lat="44.70532" lon="5.98421">
        <ele>1789</ele>
        <time>2021-09-20T09:27:53Z</time>
      </trkpt>
      <trkpt lat="44.70531" lon="5.9842">
        <ele>1789</ele>
        <time>2021-09-20T09:27:54Z</time>
      </trkpt>
      <trkpt lat="44.70531" lon="5.9842">
        <ele>1789</ele>
        <time>2021-09-20T09:27:55Z</time>
      </trkpt>
      <trkpt lat="44.7053" lon="5.98419">
        <ele>1789</ele>
        <time>2021-09-20T09:27:56Z</time>
      </trkpt>
      <trkpt lat="44.7053" lon="5.98418">
        <ele>1789</ele>
        <time>2021-09-20T09:27:57Z</time>
      </trkpt>
      <trkpt lat="44.70529" lon="5.98417">
        <ele>1789</ele>
        <time>2021-09-20T09:27:58Z</time>
      </trkpt>
      <trkpt lat="44.70529" lon="5.98416">
        <ele>1789</ele>
        <time>2021-09-20T09:27:59Z</time>
      </trkpt>
      <trkpt lat="44.70529" lon="5.98415">
        <ele>1789</ele>
        <time>2021-09-20T09:28:00Z</time>
      </trkpt>
      <trkpt lat="44.70528" lon="5.98413">
        <ele>1789</ele>
        <time>2021-09-20T09:28:01Z</time>
      </trkpt>
      <trkpt lat="44.70528" lon="5.98411">
        <ele>1790</ele>
        <time>2021-09-20T09:28:23Z</time>
      </trkpt>
      <trkpt lat="44.70528" lon="5.9841">
        <ele>1790</ele>
        <time>2021-09-20T09:28:24Z</time>
      </trkpt>
      <trkpt lat="44.70528" lon="5.98409">
        <ele>1790</ele>
        <time>2021-09-20T09:28:25Z</time>
      </trkpt>
      <trkpt lat="44.70528" lon="5.98408">
        <ele>1790</ele>
        <time>2021-09-20T09:28:26Z</time>
      </trkpt>
      <trkpt lat="44.70528" lon="5.98407">
        <ele>1790</ele>
        <time>2021-09-20T09:28:27Z</time>
      </trkpt>
      <trkpt lat="44.70528" lon="5.98407">
        <ele>1790</ele>
        <time>2021-09-20T09:28:28Z</time>
      </trkpt>
      <trkpt lat="44.70527" lon="5.98406">
        <ele>1790</ele>
        <time>2021-09-20T09:28:29Z</time>
      </trkpt>
      <trkpt lat="44.70527" lon="5.98406">
        <ele>1790</ele>
        <time>2021-09-20T09:28:30Z</time>
      </trkpt>
      <trkpt lat="44.70527" lon="5.98405">
        <ele>1790</ele>
        <time>2021-09-20T09:28:31Z</time>
      </trkpt>
      <trkpt lat="44.70527" lon="5.98404">
        <ele>1790</ele>
        <time>2021-09-20T09:28:32Z</time>
      </trkpt>
      <trkpt lat="44.70527" lon="5.98402">
        <ele>1790</ele>
        <time>2021-09-20T09:28:33Z</time>
      </trkpt>
      <trkpt lat="44.70527" lon="5.98401">
        <ele>1790</ele>
        <time>2021-09-20T09:28:34Z</time>
      </trkpt>
      <trkpt lat="44.70527" lon="5.984">
        <ele>1790</ele>
        <time>2021-09-20T09:28:35Z</time>
      </trkpt>
      <trkpt lat="44.70527" lon="5.98399">
        <ele>1790</ele>
        <time>2021-09-20T09:28:36Z</time>
      </trkpt>
      <trkpt lat="44.70527" lon="5.98397">
        <ele>1790</ele>
        <time>2021-09-20T09:28:37Z</time>
      </trkpt>
      <trkpt lat="44.70527" lon="5.98396">
        <ele>1790</ele>
        <time>2021-09-20T09:28:38Z</time>
      </trkpt>
      <trkpt lat="44.70527" lon="5.98395">
        <ele>1790</ele>
        <time>2021-09-20T09:28:39Z</time>
      </trkpt>
      <trkpt lat="44.70527" lon="5.98394">
        <ele>1790</ele>
        <time>2021-09-20T09:28:40Z</time>
      </trkpt>
      <trkpt lat="44.70527" lon="5.98393">
        <ele>1790</ele>
        <time>2021-09-20T09:28:41Z</time>
      </trkpt>
      <trkpt lat="44.70527" lon="5.98392">
        <ele>1791</ele>
        <time>2021-09-20T09:28:42Z</time>
      </trkpt>
      <trkpt lat="44.70527" lon="5.98391">
        <ele>1791</ele>
        <time>2021-09-20T09:28:43Z</time>
      </trkpt>
      <trkpt lat="44.70527" lon="5.9839">
        <ele>1791</ele>
        <time>2021-09-20T09:28:44Z</time>
      </trkpt>
      <trkpt lat="44.70527" lon="5.9839">
        <ele>1791</ele>
        <time>2021-09-20T09:28:45Z</time>
      </trkpt>
      <trkpt lat="44.70527" lon="5.98389">
        <ele>1791</ele>
        <time>2021-09-20T09:28:46Z</time>
      </trkpt>
      <trkpt lat="44.70527" lon="5.98389">
        <ele>1792</ele>
        <time>2021-09-20T09:28:47Z</time>
      </trkpt>
      <trkpt lat="44.70527" lon="5.98388">
        <ele>1792</ele>
        <time>2021-09-20T09:28:48Z</time>
      </trkpt>
      <trkpt lat="44.70527" lon="5.98387">
        <ele>1792</ele>
        <time>2021-09-20T09:28:49Z</time>
      </trkpt>
      <trkpt lat="44.70528" lon="5.98386">
        <ele>1792</ele>
        <time>2021-09-20T09:28:50Z</time>
      </trkpt>
      <trkpt lat="44.70528" lon="5.98385">
        <ele>1792</ele>
        <time>2021-09-20T09:28:51Z</time>
      </trkpt>
      <trkpt lat="44.70528" lon="5.98384">
        <ele>1793</ele>
        <time>2021-09-20T09:28:52Z</time>
      </trkpt>
      <trkpt lat="44.70528" lon="5.98382">
        <ele>1793</ele>
        <time>2021-09-20T09:28:53Z</time>
      </trkpt>
      <trkpt lat="44.70529" lon="5.98381">
        <ele>1793</ele>
        <time>2021-09-20T09:28:54Z</time>
      </trkpt>
      <trkpt lat="44.70529" lon="5.9838">
        <ele>1793</ele>
        <time>2021-09-20T09:28:55Z</time>
      </trkpt>
      <trkpt lat="44.70529" lon="5.9838">
        <ele>1793</ele>
        <time>2021-09-20T09:28:56Z</time>
      </trkpt>
      <trkpt lat="44.70529" lon="5.98379">
        <ele>1794</ele>
        <time>2021-09-20T09:28:57Z</time>
      </trkpt>
      <trkpt lat="44.70529" lon="5.98378">
        <ele>1794</ele>
        <time>2021-09-20T09:28:58Z</time>
      </trkpt>
      <trkpt lat="44.70529" lon="5.98377">
        <ele>1794</ele>
        <time>2021-09-20T09:28:59Z</time>
      </trkpt>
      <trkpt lat="44.70529" lon="5.98376">
        <ele>1794</ele>
        <time>2021-09-20T09:29:00Z</time>
      </trkpt>
      <trkpt lat="44.70529" lon="5.98374">
        <ele>1794</ele>
        <time>2021-09-20T09:29:01Z</time>
      </trkpt>
      <trkpt lat="44.70529" lon="5.98374">
        <ele>1795</ele>
        <time>2021-09-20T09:29:02Z</time>
      </trkpt>
      <trkpt lat="44.70529" lon="5.98374">
        <ele>1795</ele>
        <time>2021-09-20T09:29:03Z</time>
      </trkpt>
      <trkpt lat="44.70529" lon="5.98373">
        <ele>1795</ele>
        <time>2021-09-20T09:29:04Z</time>
      </trkpt>
      <trkpt lat="44.70529" lon="5.98372">
        <ele>1795</ele>
        <time>2021-09-20T09:29:05Z</time>
      </trkpt>
      <trkpt lat="44.7053" lon="5.98372">
        <ele>1795</ele>
        <time>2021-09-20T09:29:06Z</time>
      </trkpt>
      <trkpt lat="44.7053" lon="5.98371">
        <ele>1796</ele>
        <time>2021-09-20T09:29:07Z</time>
      </trkpt>
      <trkpt lat="44.7053" lon="5.9837">
        <ele>1796</ele>
        <time>2021-09-20T09:29:08Z</time>
      </trkpt>
      <trkpt lat="44.70531" lon="5.9837">
        <ele>1796</ele>
        <time>2021-09-20T09:29:09Z</time>
      </trkpt>
      <trkpt lat="44.70531" lon="5.98369">
        <ele>1796</ele>
        <time>2021-09-20T09:29:10Z</time>
      </trkpt>
      <trkpt lat="44.70531" lon="5.98368">
        <ele>1796</ele>
        <time>2021-09-20T09:29:11Z</time>
      </trkpt>
      <trkpt lat="44.70532" lon="5.98368">
        <ele>1796</ele>
        <time>2021-09-20T09:29:12Z</time>
      </trkpt>
      <trkpt lat="44.70532" lon="5.98367">
        <ele>1796</ele>
        <time>2021-09-20T09:29:13Z</time>
      </trkpt>
      <trkpt lat="44.70532" lon="5.98366">
        <ele>1796</ele>
        <time>2021-09-20T09:29:14Z</time>
      </trkpt>
      <trkpt lat="44.70533" lon="5.98366">
        <ele>1796</ele>
        <time>2021-09-20T09:29:15Z</time>
      </trkpt>
      <trkpt lat="44.70533" lon="5.98365">
        <ele>1796</ele>
        <time>2021-09-20T09:29:16Z</time>
      </trkpt>
      <trkpt lat="44.70534" lon="5.98364">
        <ele>1797</ele>
        <time>2021-09-20T09:29:17Z</time>
      </trkpt>
      <trkpt lat="44.70534" lon="5.98363">
        <ele>1797</ele>
        <time>2021-09-20T09:29:18Z</time>
      </trkpt>
      <trkpt lat="44.70534" lon="5.98363">
        <ele>1797</ele>
        <time>2021-09-20T09:29:19Z</time>
      </trkpt>
      <trkpt lat="44.70535" lon="5.98362">
        <ele>1797</ele>
        <time>2021-09-20T09:29:20Z</time>
      </trkpt>
      <trkpt lat="44.70535" lon="5.98361">
        <ele>1797</ele>
        <time>2021-09-20T09:29:21Z</time>
      </trkpt>
      <trkpt lat="44.70536" lon="5.98361">
        <ele>1798</ele>
        <time>2021-09-20T09:29:22Z</time>
      </trkpt>
      <trkpt lat="44.70536" lon="5.9836">
        <ele>1798</ele>
        <time>2021-09-20T09:29:23Z</time>
      </trkpt>
      <trkpt lat="44.70536" lon="5.98359">
        <ele>1798</ele>
        <time>2021-09-20T09:29:24Z</time>
      </trkpt>
      <trkpt lat="44.70536" lon="5.98358">
        <ele>1798</ele>
        <time>2021-09-20T09:29:25Z</time>
      </trkpt>
      <trkpt lat="44.70537" lon="5.98357">
        <ele>1798</ele>
        <time>2021-09-20T09:29:26Z</time>
      </trkpt>
      <trkpt lat="44.70537" lon="5.98356">
        <ele>1798</ele>
        <time>2021-09-20T09:29:27Z</time>
      </trkpt>
      <trkpt lat="44.70538" lon="5.98355">
        <ele>1798</ele>
        <time>2021-09-20T09:29:28Z</time>
      </trkpt>
      <trkpt lat="44.70538" lon="5.98354">
        <ele>1798</ele>
        <time>2021-09-20T09:29:29Z</time>
      </trkpt>
      <trkpt lat="44.70539" lon="5.98354">
        <ele>1798</ele>
        <time>2021-09-20T09:29:30Z</time>
      </trkpt>
      <trkpt lat="44.70539" lon="5.98353">
        <ele>1798</ele>
        <time>2021-09-20T09:29:31Z</time>
      </trkpt>
      <trkpt lat="44.7054" lon="5.98353">
        <ele>1799</ele>
        <time>2021-09-20T09:29:32Z</time>
      </trkpt>
      <trkpt lat="44.70541" lon="5.98352">
        <ele>1799</ele>
        <time>2021-09-20T09:29:33Z</time>
      </trkpt>
      <trkpt lat="44.70541" lon="5.98352">
        <ele>1799</ele>
        <time>2021-09-20T09:29:34Z</time>
      </trkpt>
      <trkpt lat="44.70542" lon="5.98352">
        <ele>1799</ele>
        <time>2021-09-20T09:29:35Z</time>
      </trkpt>
      <trkpt lat="44.70542" lon="5.98351">
        <ele>1799</ele>
        <time>2021-09-20T09:29:36Z</time>
      </trkpt>
      <trkpt lat="44.70543" lon="5.98351">
        <ele>1799</ele>
        <time>2021-09-20T09:29:37Z</time>
      </trkpt>
      <trkpt lat="44.70543" lon="5.9835">
        <ele>1799</ele>
        <time>2021-09-20T09:29:38Z</time>
      </trkpt>
      <trkpt lat="44.70544" lon="5.9835">
        <ele>1799</ele>
        <time>2021-09-20T09:29:39Z</time>
      </trkpt>
      <trkpt lat="44.70544" lon="5.98349">
        <ele>1799</ele>
        <time>2021-09-20T09:29:40Z</time>
      </trkpt>
      <trkpt lat="44.70545" lon="5.98349">
        <ele>1799</ele>
        <time>2021-09-20T09:29:41Z</time>
      </trkpt>
      <trkpt lat="44.70545" lon="5.98349">
        <ele>1800</ele>
        <time>2021-09-20T09:29:42Z</time>
      </trkpt>
      <trkpt lat="44.70546" lon="5.98348">
        <ele>1800</ele>
        <time>2021-09-20T09:29:43Z</time>
      </trkpt>
      <trkpt lat="44.70547" lon="5.98348">
        <ele>1800</ele>
        <time>2021-09-20T09:29:44Z</time>
      </trkpt>
      <trkpt lat="44.70548" lon="5.98348">
        <ele>1800</ele>
        <time>2021-09-20T09:29:45Z</time>
      </trkpt>
      <trkpt lat="44.70548" lon="5.98347">
        <ele>1800</ele>
        <time>2021-09-20T09:29:46Z</time>
      </trkpt>
      <trkpt lat="44.70549" lon="5.98347">
        <ele>1800</ele>
        <time>2021-09-20T09:29:47Z</time>
      </trkpt>
      <trkpt lat="44.70549" lon="5.98346">
        <ele>1800</ele>
        <time>2021-09-20T09:29:48Z</time>
      </trkpt>
      <trkpt lat="44.70549" lon="5.98345">
        <ele>1800</ele>
        <time>2021-09-20T09:29:49Z</time>
      </trkpt>
      <trkpt lat="44.7055" lon="5.98344">
        <ele>1800</ele>
        <time>2021-09-20T09:29:50Z</time>
      </trkpt>
      <trkpt lat="44.7055" lon="5.98343">
        <ele>1800</ele>
        <time>2021-09-20T09:29:51Z</time>
      </trkpt>
      <trkpt lat="44.70551" lon="5.98343">
        <ele>1801</ele>
        <time>2021-09-20T09:29:52Z</time>
      </trkpt>
      <trkpt lat="44.70551" lon="5.98342">
        <ele>1801</ele>
        <time>2021-09-20T09:29:53Z</time>
      </trkpt>
      <trkpt lat="44.70552" lon="5.98342">
        <ele>1801</ele>
        <time>2021-09-20T09:29:54Z</time>
      </trkpt>
      <trkpt lat="44.70552" lon="5.98341">
        <ele>1801</ele>
        <time>2021-09-20T09:29:55Z</time>
      </trkpt>
      <trkpt lat="44.70553" lon="5.98341">
        <ele>1801</ele>
        <time>2021-09-20T09:29:56Z</time>
      </trkpt>
      <trkpt lat="44.70554" lon="5.98341">
        <ele>1801</ele>
        <time>2021-09-20T09:29:57Z</time>
      </trkpt>
      <trkpt lat="44.70554" lon="5.9834">
        <ele>1801</ele>
        <time>2021-09-20T09:29:58Z</time>
      </trkpt>
      <trkpt lat="44.70555" lon="5.98339">
        <ele>1801</ele>
        <time>2021-09-20T09:29:59Z</time>
      </trkpt>
      <trkpt lat="44.70556" lon="5.98339">
        <ele>1801</ele>
        <time>2021-09-20T09:30:00Z</time>
      </trkpt>
      <trkpt lat="44.70556" lon="5.98338">
        <ele>1801</ele>
        <time>2021-09-20T09:30:01Z</time>
      </trkpt>
      <trkpt lat="44.70557" lon="5.98338">
        <ele>1802</ele>
        <time>2021-09-20T09:30:02Z</time>
      </trkpt>
      <trkpt lat="44.70558" lon="5.98337">
        <ele>1802</ele>
        <time>2021-09-20T09:30:03Z</time>
      </trkpt>
      <trkpt lat="44.70558" lon="5.98337">
        <ele>1802</ele>
        <time>2021-09-20T09:30:04Z</time>
      </trkpt>
      <trkpt lat="44.70559" lon="5.98337">
        <ele>1802</ele>
        <time>2021-09-20T09:30:05Z</time>
      </trkpt>
      <trkpt lat="44.7056" lon="5.98337">
        <ele>1802</ele>
        <time>2021-09-20T09:30:06Z</time>
      </trkpt>
      <trkpt lat="44.70561" lon="5.98336">
        <ele>1803</ele>
        <time>2021-09-20T09:30:18Z</time>
      </trkpt>
      <trkpt lat="44.70561" lon="5.98336">
        <ele>1803</ele>
        <time>2021-09-20T09:30:19Z</time>
      </trkpt>
      <trkpt lat="44.70562" lon="5.98335">
        <ele>1803</ele>
        <time>2021-09-20T09:30:20Z</time>
      </trkpt>
      <trkpt lat="44.70562" lon="5.98335">
        <ele>1803</ele>
        <time>2021-09-20T09:30:21Z</time>
      </trkpt>
      <trkpt lat="44.70563" lon="5.98335">
        <ele>1803</ele>
        <time>2021-09-20T09:30:22Z</time>
      </trkpt>
      <trkpt lat="44.70562" lon="5.98336">
        <ele>1803</ele>
        <time>2021-09-20T09:31:53Z</time>
      </trkpt>
      <trkpt lat="44.70561" lon="5.98336">
        <ele>1803</ele>
        <time>2021-09-20T09:31:54Z</time>
      </trkpt>
      <trkpt lat="44.7056" lon="5.98336">
        <ele>1803</ele>
        <time>2021-09-20T09:31:55Z</time>
      </trkpt>
      <trkpt lat="44.7056" lon="5.98336">
        <ele>1803</ele>
        <time>2021-09-20T09:31:56Z</time>
      </trkpt>
      <trkpt lat="44.70559" lon="5.98336">
        <ele>1803</ele>
        <time>2021-09-20T09:31:57Z</time>
      </trkpt>
      <trkpt lat="44.70558" lon="5.98334">
        <ele>1802</ele>
        <time>2021-09-20T09:32:06Z</time>
      </trkpt>
      <trkpt lat="44.70558" lon="5.98333">
        <ele>1802</ele>
        <time>2021-09-20T09:32:07Z</time>
      </trkpt>
      <trkpt lat="44.70557" lon="5.98332">
        <ele>1802</ele>
        <time>2021-09-20T09:32:08Z</time>
      </trkpt>
      <trkpt lat="44.70557" lon="5.9833">
        <ele>1802</ele>
        <time>2021-09-20T09:32:09Z</time>
      </trkpt>
      <trkpt lat="44.70556" lon="5.98328">
        <ele>1802</ele>
        <time>2021-09-20T09:32:10Z</time>
      </trkpt>
      <trkpt lat="44.70556" lon="5.98327">
        <ele>1801</ele>
        <time>2021-09-20T09:32:55Z</time>
      </trkpt>
      <trkpt lat="44.70556" lon="5.98327">
        <ele>1801</ele>
        <time>2021-09-20T09:32:56Z</time>
      </trkpt>
      <trkpt lat="44.70556" lon="5.98327">
        <ele>1801</ele>
        <time>2021-09-20T09:32:57Z</time>
      </trkpt>
      <trkpt lat="44.70557" lon="5.98327">
        <ele>1801</ele>
        <time>2021-09-20T09:32:58Z</time>
      </trkpt>
      <trkpt lat="44.70557" lon="5.98327">
        <ele>1801</ele>
        <time>2021-09-20T09:32:59Z</time>
      </trkpt>
      <trkpt lat="44.70557" lon="5.98326">
        <ele>1801</ele>
        <time>2021-09-20T09:33:00Z</time>
      </trkpt>
      <trkpt lat="44.70557" lon="5.98325">
        <ele>1801</ele>
        <time>2021-09-20T09:33:01Z</time>
      </trkpt>
      <trkpt lat="44.70556" lon="5.98324">
        <ele>1801</ele>
        <time>2021-09-20T09:33:02Z</time>
      </trkpt>
      <trkpt lat="44.70556" lon="5.98324">
        <ele>1801</ele>
        <time>2021-09-20T09:33:03Z</time>
      </trkpt>
      <trkpt lat="44.70556" lon="5.98324">
        <ele>1801</ele>
        <time>2021-09-20T09:33:04Z</time>
      </trkpt>
      <trkpt lat="44.70557" lon="5.98326">
        <ele>1801</ele>
        <time>2021-09-20T09:33:05Z</time>
      </trkpt>
      <trkpt lat="44.70558" lon="5.98328">
        <ele>1801</ele>
        <time>2021-09-20T09:33:06Z</time>
      </trkpt>
      <trkpt lat="44.7056" lon="5.9833">
        <ele>1801</ele>
        <time>2021-09-20T09:33:07Z</time>
      </trkpt>
      <trkpt lat="44.70561" lon="5.98333">
        <ele>1801</ele>
        <time>2021-09-20T09:33:08Z</time>
      </trkpt>
      <trkpt lat="44.70562" lon="5.98333">
        <ele>1801</ele>
        <time>2021-09-20T09:33:09Z</time>
      </trkpt>
      <trkpt lat="44.70562" lon="5.98334">
        <ele>1801</ele>
        <time>2021-09-20T09:33:10Z</time>
      </trkpt>
      <trkpt lat="44.70563" lon="5.98335">
        <ele>1801</ele>
        <time>2021-09-20T09:33:11Z</time>
      </trkpt>
      <trkpt lat="44.70564" lon="5.98335">
        <ele>1802</ele>
        <time>2021-09-20T09:33:12Z</time>
      </trkpt>
      <trkpt lat="44.70565" lon="5.98336">
        <ele>1802</ele>
        <time>2021-09-20T09:33:13Z</time>
      </trkpt>
      <trkpt lat="44.70566" lon="5.98336">
        <ele>1802</ele>
        <time>2021-09-20T09:33:14Z</time>
      </trkpt>
      <trkpt lat="44.70566" lon="5.98336">
        <ele>1802</ele>
        <time>2021-09-20T09:33:15Z</time>
      </trkpt>
      <trkpt lat="44.70567" lon="5.98335">
        <ele>1802</ele>
        <time>2021-09-20T09:33:16Z</time>
      </trkpt>
      <trkpt lat="44.70568" lon="5.98334">
        <ele>1802</ele>
        <time>2021-09-20T09:33:17Z</time>
      </trkpt>
      <trkpt lat="44.70568" lon="5.98333">
        <ele>1802</ele>
        <time>2021-09-20T09:33:18Z</time>
      </trkpt>
      <trkpt lat="44.70569" lon="5.98332">
        <ele>1802</ele>
        <time>2021-09-20T09:33:19Z</time>
      </trkpt>
      <trkpt lat="44.7057" lon="5.98331">
        <ele>1802</ele>
        <time>2021-09-20T09:33:20Z</time>
      </trkpt>
      <trkpt lat="44.7057" lon="5.9833">
        <ele>1802</ele>
        <time>2021-09-20T09:33:21Z</time>
      </trkpt>
      <trkpt lat="44.70571" lon="5.98329">
        <ele>1803</ele>
        <time>2021-09-20T09:33:22Z</time>
      </trkpt>
      <trkpt lat="44.70572" lon="5.98328">
        <ele>1803</ele>
        <time>2021-09-20T09:33:23Z</time>
      </trkpt>
      <trkpt lat="44.70572" lon="5.98327">
        <ele>1803</ele>
        <time>2021-09-20T09:33:24Z</time>
      </trkpt>
      <trkpt lat="44.70573" lon="5.98326">
        <ele>1803</ele>
        <time>2021-09-20T09:33:25Z</time>
      </trkpt>
      <trkpt lat="44.70574" lon="5.98325">
        <ele>1803</ele>
        <time>2021-09-20T09:33:26Z</time>
      </trkpt>
      <trkpt lat="44.70574" lon="5.98324">
        <ele>1803</ele>
        <time>2021-09-20T09:33:27Z</time>
      </trkpt>
      <trkpt lat="44.70575" lon="5.98323">
        <ele>1803</ele>
        <time>2021-09-20T09:33:28Z</time>
      </trkpt>
      <trkpt lat="44.70575" lon="5.98322">
        <ele>1803</ele>
        <time>2021-09-20T09:33:29Z</time>
      </trkpt>
      <trkpt lat="44.70576" lon="5.98321">
        <ele>1803</ele>
        <time>2021-09-20T09:33:30Z</time>
      </trkpt>
      <trkpt lat="44.70577" lon="5.98321">
        <ele>1803</ele>
        <time>2021-09-20T09:33:31Z</time>
      </trkpt>
      <trkpt lat="44.70577" lon="5.9832">
        <ele>1803</ele>
        <time>2021-09-20T09:33:32Z</time>
      </trkpt>
      <trkpt lat="44.70578" lon="5.98319">
        <ele>1803</ele>
        <time>2021-09-20T09:33:33Z</time>
      </trkpt>
      <trkpt lat="44.70579" lon="5.98318">
        <ele>1803</ele>
        <time>2021-09-20T09:33:34Z</time>
      </trkpt>
      <trkpt lat="44.70579" lon="5.98317">
        <ele>1803</ele>
        <time>2021-09-20T09:33:35Z</time>
      </trkpt>
      <trkpt lat="44.7058" lon="5.98316">
        <ele>1803</ele>
        <time>2021-09-20T09:33:36Z</time>
      </trkpt>
      <trkpt lat="44.7058" lon="5.98315">
        <ele>1804</ele>
        <time>2021-09-20T09:33:37Z</time>
      </trkpt>
      <trkpt lat="44.70581" lon="5.98314">
        <ele>1804</ele>
        <time>2021-09-20T09:33:38Z</time>
      </trkpt>
      <trkpt lat="44.70582" lon="5.98313">
        <ele>1804</ele>
        <time>2021-09-20T09:33:39Z</time>
      </trkpt>
      <trkpt lat="44.70582" lon="5.98312">
        <ele>1804</ele>
        <time>2021-09-20T09:33:40Z</time>
      </trkpt>
      <trkpt lat="44.70583" lon="5.98311">
        <ele>1804</ele>
        <time>2021-09-20T09:33:41Z</time>
      </trkpt>
      <trkpt lat="44.70584" lon="5.9831">
        <ele>1804</ele>
        <time>2021-09-20T09:33:42Z</time>
      </trkpt>
      <trkpt lat="44.70584" lon="5.98309">
        <ele>1804</ele>
        <time>2021-09-20T09:33:43Z</time>
      </trkpt>
      <trkpt lat="44.70585" lon="5.98308">
        <ele>1804</ele>
        <time>2021-09-20T09:33:44Z</time>
      </trkpt>
      <trkpt lat="44.70585" lon="5.98307">
        <ele>1804</ele>
        <time>2021-09-20T09:33:45Z</time>
      </trkpt>
      <trkpt lat="44.70586" lon="5.98306">
        <ele>1804</ele>
        <time>2021-09-20T09:33:46Z</time>
      </trkpt>
      <trkpt lat="44.70586" lon="5.98305">
        <ele>1804</ele>
        <time>2021-09-20T09:33:47Z</time>
      </trkpt>
      <trkpt lat="44.70587" lon="5.98304">
        <ele>1804</ele>
        <time>2021-09-20T09:33:48Z</time>
      </trkpt>
      <trkpt lat="44.70588" lon="5.98303">
        <ele>1804</ele>
        <time>2021-09-20T09:33:49Z</time>
      </trkpt>
      <trkpt lat="44.70588" lon="5.98302">
        <ele>1804</ele>
        <time>2021-09-20T09:33:50Z</time>
      </trkpt>
      <trkpt lat="44.70589" lon="5.98301">
        <ele>1804</ele>
        <time>2021-09-20T09:33:51Z</time>
      </trkpt>
      <trkpt lat="44.70589" lon="5.98301">
        <ele>1804</ele>
        <time>2021-09-20T09:33:52Z</time>
      </trkpt>
      <trkpt lat="44.7059" lon="5.983">
        <ele>1804</ele>
        <time>2021-09-20T09:33:53Z</time>
      </trkpt>
      <trkpt lat="44.70591" lon="5.983">
        <ele>1804</ele>
        <time>2021-09-20T09:33:54Z</time>
      </trkpt>
      <trkpt lat="44.70592" lon="5.98299">
        <ele>1804</ele>
        <time>2021-09-20T09:33:55Z</time>
      </trkpt>
      <trkpt lat="44.70592" lon="5.98298">
        <ele>1804</ele>
        <time>2021-09-20T09:33:56Z</time>
      </trkpt>
      <trkpt lat="44.70593" lon="5.98297">
        <ele>1804</ele>
        <time>2021-09-20T09:33:57Z</time>
      </trkpt>
      <trkpt lat="44.70594" lon="5.98297">
        <ele>1804</ele>
        <time>2021-09-20T09:33:58Z</time>
      </trkpt>
      <trkpt lat="44.70594" lon="5.98296">
        <ele>1804</ele>
        <time>2021-09-20T09:33:59Z</time>
      </trkpt>
      <trkpt lat="44.70595" lon="5.98295">
        <ele>1804</ele>
        <time>2021-09-20T09:34:00Z</time>
      </trkpt>
      <trkpt lat="44.70595" lon="5.98294">
        <ele>1804</ele>
        <time>2021-09-20T09:34:01Z</time>
      </trkpt>
      <trkpt lat="44.70596" lon="5.98293">
        <ele>1804</ele>
        <time>2021-09-20T09:34:02Z</time>
      </trkpt>
      <trkpt lat="44.70596" lon="5.98292">
        <ele>1804</ele>
        <time>2021-09-20T09:34:03Z</time>
      </trkpt>
      <trkpt lat="44.70596" lon="5.98292">
        <ele>1804</ele>
        <time>2021-09-20T09:34:04Z</time>
      </trkpt>
      <trkpt lat="44.70597" lon="5.98291">
        <ele>1804</ele>
        <time>2021-09-20T09:34:05Z</time>
      </trkpt>
      <trkpt lat="44.70597" lon="5.9829">
        <ele>1804</ele>
        <time>2021-09-20T09:34:06Z</time>
      </trkpt>
      <trkpt lat="44.70597" lon="5.98289">
        <ele>1805</ele>
        <time>2021-09-20T09:34:07Z</time>
      </trkpt>
      <trkpt lat="44.70598" lon="5.98288">
        <ele>1805</ele>
        <time>2021-09-20T09:34:08Z</time>
      </trkpt>
      <trkpt lat="44.70598" lon="5.98287">
        <ele>1805</ele>
        <time>2021-09-20T09:34:09Z</time>
      </trkpt>
      <trkpt lat="44.70598" lon="5.98287">
        <ele>1805</ele>
        <time>2021-09-20T09:34:10Z</time>
      </trkpt>
      <trkpt lat="44.70598" lon="5.98286">
        <ele>1805</ele>
        <time>2021-09-20T09:34:11Z</time>
      </trkpt>
      <trkpt lat="44.70599" lon="5.98285">
        <ele>1806</ele>
        <time>2021-09-20T09:34:12Z</time>
      </trkpt>
      <trkpt lat="44.70599" lon="5.98284">
        <ele>1806</ele>
        <time>2021-09-20T09:34:13Z</time>
      </trkpt>
      <trkpt lat="44.706" lon="5.98284">
        <ele>1806</ele>
        <time>2021-09-20T09:34:14Z</time>
      </trkpt>
      <trkpt lat="44.706" lon="5.98283">
        <ele>1806</ele>
        <time>2021-09-20T09:34:15Z</time>
      </trkpt>
      <trkpt lat="44.70601" lon="5.98282">
        <ele>1806</ele>
        <time>2021-09-20T09:34:16Z</time>
      </trkpt>
      <trkpt lat="44.70601" lon="5.98281">
        <ele>1807</ele>
        <time>2021-09-20T09:34:17Z</time>
      </trkpt>
      <trkpt lat="44.70602" lon="5.98281">
        <ele>1807</ele>
        <time>2021-09-20T09:34:18Z</time>
      </trkpt>
      <trkpt lat="44.70603" lon="5.9828">
        <ele>1807</ele>
        <time>2021-09-20T09:34:19Z</time>
      </trkpt>
      <trkpt lat="44.70603" lon="5.98279">
        <ele>1807</ele>
        <time>2021-09-20T09:34:20Z</time>
      </trkpt>
      <trkpt lat="44.70604" lon="5.98279">
        <ele>1807</ele>
        <time>2021-09-20T09:34:21Z</time>
      </trkpt>
      <trkpt lat="44.70604" lon="5.98278">
        <ele>1808</ele>
        <time>2021-09-20T09:34:22Z</time>
      </trkpt>
      <trkpt lat="44.70605" lon="5.98277">
        <ele>1808</ele>
        <time>2021-09-20T09:34:23Z</time>
      </trkpt>
      <trkpt lat="44.70606" lon="5.98276">
        <ele>1808</ele>
        <time>2021-09-20T09:34:24Z</time>
      </trkpt>
      <trkpt lat="44.70606" lon="5.98276">
        <ele>1808</ele>
        <time>2021-09-20T09:34:25Z</time>
      </trkpt>
      <trkpt lat="44.70607" lon="5.98275">
        <ele>1808</ele>
        <time>2021-09-20T09:34:26Z</time>
      </trkpt>
      <trkpt lat="44.70608" lon="5.98275">
        <ele>1809</ele>
        <time>2021-09-20T09:34:27Z</time>
      </trkpt>
      <trkpt lat="44.70608" lon="5.98274">
        <ele>1809</ele>
        <time>2021-09-20T09:34:28Z</time>
      </trkpt>
      <trkpt lat="44.70609" lon="5.98274">
        <ele>1809</ele>
        <time>2021-09-20T09:34:29Z</time>
      </trkpt>
      <trkpt lat="44.70609" lon="5.98273">
        <ele>1809</ele>
        <time>2021-09-20T09:34:30Z</time>
      </trkpt>
      <trkpt lat="44.7061" lon="5.98272">
        <ele>1809</ele>
        <time>2021-09-20T09:34:31Z</time>
      </trkpt>
      <trkpt lat="44.7061" lon="5.98272">
        <ele>1810</ele>
        <time>2021-09-20T09:34:32Z</time>
      </trkpt>
      <trkpt lat="44.70611" lon="5.98272">
        <ele>1810</ele>
        <time>2021-09-20T09:34:33Z</time>
      </trkpt>
      <trkpt lat="44.70611" lon="5.98271">
        <ele>1810</ele>
        <time>2021-09-20T09:34:34Z</time>
      </trkpt>
      <trkpt lat="44.70612" lon="5.98271">
        <ele>1810</ele>
        <time>2021-09-20T09:34:35Z</time>
      </trkpt>
      <trkpt lat="44.70612" lon="5.98271">
        <ele>1810</ele>
        <time>2021-09-20T09:34:36Z</time>
      </trkpt>
      <trkpt lat="44.70613" lon="5.98272">
        <ele>1811</ele>
        <time>2021-09-20T09:34:37Z</time>
      </trkpt>
      <trkpt lat="44.70614" lon="5.98272">
        <ele>1811</ele>
        <time>2021-09-20T09:34:38Z</time>
      </trkpt>
      <trkpt lat="44.70614" lon="5.98272">
        <ele>1811</ele>
        <time>2021-09-20T09:34:39Z</time>
      </trkpt>
      <trkpt lat="44.70615" lon="5.98272">
        <ele>1811</ele>
        <time>2021-09-20T09:34:40Z</time>
      </trkpt>
      <trkpt lat="44.70616" lon="5.98272">
        <ele>1811</ele>
        <time>2021-09-20T09:34:41Z</time>
      </trkpt>
      <trkpt lat="44.70617" lon="5.98272">
        <ele>1812</ele>
        <time>2021-09-20T09:34:42Z</time>
      </trkpt>
      <trkpt lat="44.70618" lon="5.98271">
        <ele>1812</ele>
        <time>2021-09-20T09:34:43Z</time>
      </trkpt>
      <trkpt lat="44.70619" lon="5.9827">
        <ele>1812</ele>
        <time>2021-09-20T09:34:44Z</time>
      </trkpt>
      <trkpt lat="44.70619" lon="5.98269">
        <ele>1812</ele>
        <time>2021-09-20T09:34:45Z</time>
      </trkpt>
      <trkpt lat="44.70619" lon="5.98268">
        <ele>1812</ele>
        <time>2021-09-20T09:34:46Z</time>
      </trkpt>
      <trkpt lat="44.70619" lon="5.98267">
        <ele>1813</ele>
        <time>2021-09-20T09:34:47Z</time>
      </trkpt>
      <trkpt lat="44.7062" lon="5.98266">
        <ele>1813</ele>
        <time>2021-09-20T09:34:48Z</time>
      </trkpt>
      <trkpt lat="44.7062" lon="5.98265">
        <ele>1813</ele>
        <time>2021-09-20T09:34:49Z</time>
      </trkpt>
      <trkpt lat="44.7062" lon="5.98264">
        <ele>1813</ele>
        <time>2021-09-20T09:34:50Z</time>
      </trkpt>
      <trkpt lat="44.7062" lon="5.98263">
        <ele>1813</ele>
        <time>2021-09-20T09:34:51Z</time>
      </trkpt>
      <trkpt lat="44.70621" lon="5.98262">
        <ele>1814</ele>
        <time>2021-09-20T09:34:52Z</time>
      </trkpt>
      <trkpt lat="44.70621" lon="5.98261">
        <ele>1814</ele>
        <time>2021-09-20T09:34:53Z</time>
      </trkpt>
      <trkpt lat="44.70621" lon="5.98261">
        <ele>1814</ele>
        <time>2021-09-20T09:34:54Z</time>
      </trkpt>
      <trkpt lat="44.70622" lon="5.9826">
        <ele>1814</ele>
        <time>2021-09-20T09:34:55Z</time>
      </trkpt>
      <trkpt lat="44.70623" lon="5.9826">
        <ele>1814</ele>
        <time>2021-09-20T09:34:56Z</time>
      </trkpt>
      <trkpt lat="44.70623" lon="5.98259">
        <ele>1814</ele>
        <time>2021-09-20T09:34:57Z</time>
      </trkpt>
      <trkpt lat="44.70624" lon="5.98259">
        <ele>1814</ele>
        <time>2021-09-20T09:34:58Z</time>
      </trkpt>
      <trkpt lat="44.70624" lon="5.98259">
        <ele>1814</ele>
        <time>2021-09-20T09:34:59Z</time>
      </trkpt>
      <trkpt lat="44.70625" lon="5.98258">
        <ele>1814</ele>
        <time>2021-09-20T09:35:00Z</time>
      </trkpt>
      <trkpt lat="44.70626" lon="5.98258">
        <ele>1814</ele>
        <time>2021-09-20T09:35:01Z</time>
      </trkpt>
      <trkpt lat="44.70626" lon="5.98258">
        <ele>1815</ele>
        <time>2021-09-20T09:35:02Z</time>
      </trkpt>
      <trkpt lat="44.70627" lon="5.98258">
        <ele>1815</ele>
        <time>2021-09-20T09:35:03Z</time>
      </trkpt>
      <trkpt lat="44.70627" lon="5.98257">
        <ele>1815</ele>
        <time>2021-09-20T09:35:04Z</time>
      </trkpt>
      <trkpt lat="44.70628" lon="5.98257">
        <ele>1815</ele>
        <time>2021-09-20T09:35:05Z</time>
      </trkpt>
      <trkpt lat="44.70628" lon="5.98256">
        <ele>1815</ele>
        <time>2021-09-20T09:35:06Z</time>
      </trkpt>
      <trkpt lat="44.70629" lon="5.98256">
        <ele>1816</ele>
        <time>2021-09-20T09:35:07Z</time>
      </trkpt>
      <trkpt lat="44.70629" lon="5.98255">
        <ele>1816</ele>
        <time>2021-09-20T09:35:08Z</time>
      </trkpt>
      <trkpt lat="44.7063" lon="5.98254">
        <ele>1816</ele>
        <time>2021-09-20T09:35:09Z</time>
      </trkpt>
      <trkpt lat="44.7063" lon="5.98254">
        <ele>1816</ele>
        <time>2021-09-20T09:35:10Z</time>
      </trkpt>
      <trkpt lat="44.70631" lon="5.98253">
        <ele>1816</ele>
        <time>2021-09-20T09:35:11Z</time>
      </trkpt>
      <trkpt lat="44.70632" lon="5.98252">
        <ele>1817</ele>
        <time>2021-09-20T09:35:12Z</time>
      </trkpt>
      <trkpt lat="44.70632" lon="5.98252">
        <ele>1817</ele>
        <time>2021-09-20T09:35:13Z</time>
      </trkpt>
      <trkpt lat="44.70633" lon="5.98251">
        <ele>1817</ele>
        <time>2021-09-20T09:35:14Z</time>
      </trkpt>
      <trkpt lat="44.70633" lon="5.9825">
        <ele>1817</ele>
        <time>2021-09-20T09:35:15Z</time>
      </trkpt>
      <trkpt lat="44.70634" lon="5.9825">
        <ele>1817</ele>
        <time>2021-09-20T09:35:16Z</time>
      </trkpt>
      <trkpt lat="44.70634" lon="5.98249">
        <ele>1817</ele>
        <time>2021-09-20T09:35:17Z</time>
      </trkpt>
      <trkpt lat="44.70635" lon="5.98249">
        <ele>1817</ele>
        <time>2021-09-20T09:35:18Z</time>
      </trkpt>
      <trkpt lat="44.70636" lon="5.98248">
        <ele>1817</ele>
        <time>2021-09-20T09:35:19Z</time>
      </trkpt>
      <trkpt lat="44.70636" lon="5.98247">
        <ele>1817</ele>
        <time>2021-09-20T09:35:20Z</time>
      </trkpt>
      <trkpt lat="44.70637" lon="5.98247">
        <ele>1817</ele>
        <time>2021-09-20T09:35:21Z</time>
      </trkpt>
      <trkpt lat="44.70638" lon="5.98246">
        <ele>1818</ele>
        <time>2021-09-20T09:35:22Z</time>
      </trkpt>
      <trkpt lat="44.70639" lon="5.98246">
        <ele>1818</ele>
        <time>2021-09-20T09:35:23Z</time>
      </trkpt>
      <trkpt lat="44.7064" lon="5.98245">
        <ele>1818</ele>
        <time>2021-09-20T09:35:24Z</time>
      </trkpt>
      <trkpt lat="44.7064" lon="5.98245">
        <ele>1818</ele>
        <time>2021-09-20T09:35:25Z</time>
      </trkpt>
      <trkpt lat="44.70641" lon="5.98244">
        <ele>1818</ele>
        <time>2021-09-20T09:35:26Z</time>
      </trkpt>
      <trkpt lat="44.70642" lon="5.98243">
        <ele>1818</ele>
        <time>2021-09-20T09:35:27Z</time>
      </trkpt>
      <trkpt lat="44.70642" lon="5.98242">
        <ele>1818</ele>
        <time>2021-09-20T09:35:28Z</time>
      </trkpt>
      <trkpt lat="44.70642" lon="5.98241">
        <ele>1818</ele>
        <time>2021-09-20T09:35:29Z</time>
      </trkpt>
      <trkpt lat="44.70643" lon="5.9824">
        <ele>1818</ele>
        <time>2021-09-20T09:35:30Z</time>
      </trkpt>
      <trkpt lat="44.70643" lon="5.98239">
        <ele>1818</ele>
        <time>2021-09-20T09:35:31Z</time>
      </trkpt>
      <trkpt lat="44.70644" lon="5.98239">
        <ele>1819</ele>
        <time>2021-09-20T09:35:32Z</time>
      </trkpt>
      <trkpt lat="44.70645" lon="5.98239">
        <ele>1819</ele>
        <time>2021-09-20T09:35:33Z</time>
      </trkpt>
      <trkpt lat="44.70645" lon="5.98239">
        <ele>1819</ele>
        <time>2021-09-20T09:35:34Z</time>
      </trkpt>
      <trkpt lat="44.70646" lon="5.98239">
        <ele>1819</ele>
        <time>2021-09-20T09:35:35Z</time>
      </trkpt>
      <trkpt lat="44.70647" lon="5.98239">
        <ele>1819</ele>
        <time>2021-09-20T09:35:36Z</time>
      </trkpt>
      <trkpt lat="44.70647" lon="5.98238">
        <ele>1819</ele>
        <time>2021-09-20T09:35:37Z</time>
      </trkpt>
      <trkpt lat="44.70648" lon="5.98237">
        <ele>1819</ele>
        <time>2021-09-20T09:35:38Z</time>
      </trkpt>
      <trkpt lat="44.70649" lon="5.98236">
        <ele>1819</ele>
        <time>2021-09-20T09:35:39Z</time>
      </trkpt>
      <trkpt lat="44.70649" lon="5.98236">
        <ele>1819</ele>
        <time>2021-09-20T09:35:40Z</time>
      </trkpt>
      <trkpt lat="44.7065" lon="5.98235">
        <ele>1819</ele>
        <time>2021-09-20T09:35:41Z</time>
      </trkpt>
      <trkpt lat="44.70651" lon="5.98234">
        <ele>1820</ele>
        <time>2021-09-20T09:35:42Z</time>
      </trkpt>
      <trkpt lat="44.70651" lon="5.98234">
        <ele>1820</ele>
        <time>2021-09-20T09:35:43Z</time>
      </trkpt>
      <trkpt lat="44.70652" lon="5.98233">
        <ele>1820</ele>
        <time>2021-09-20T09:35:44Z</time>
      </trkpt>
      <trkpt lat="44.70652" lon="5.98232">
        <ele>1820</ele>
        <time>2021-09-20T09:35:45Z</time>
      </trkpt>
      <trkpt lat="44.70653" lon="5.98231">
        <ele>1820</ele>
        <time>2021-09-20T09:35:46Z</time>
      </trkpt>
      <trkpt lat="44.70653" lon="5.9823">
        <ele>1821</ele>
        <time>2021-09-20T09:35:47Z</time>
      </trkpt>
      <trkpt lat="44.70653" lon="5.98229">
        <ele>1821</ele>
        <time>2021-09-20T09:35:48Z</time>
      </trkpt>
      <trkpt lat="44.70654" lon="5.98228">
        <ele>1821</ele>
        <time>2021-09-20T09:35:49Z</time>
      </trkpt>
      <trkpt lat="44.70655" lon="5.98228">
        <ele>1821</ele>
        <time>2021-09-20T09:35:50Z</time>
      </trkpt>
      <trkpt lat="44.70656" lon="5.98227">
        <ele>1821</ele>
        <time>2021-09-20T09:35:51Z</time>
      </trkpt>
      <trkpt lat="44.70657" lon="5.98227">
        <ele>1821</ele>
        <time>2021-09-20T09:35:52Z</time>
      </trkpt>
      <trkpt lat="44.70657" lon="5.98226">
        <ele>1821</ele>
        <time>2021-09-20T09:35:53Z</time>
      </trkpt>
      <trkpt lat="44.70658" lon="5.98226">
        <ele>1821</ele>
        <time>2021-09-20T09:35:54Z</time>
      </trkpt>
      <trkpt lat="44.70659" lon="5.98226">
        <ele>1821</ele>
        <time>2021-09-20T09:35:55Z</time>
      </trkpt>
      <trkpt lat="44.7066" lon="5.98226">
        <ele>1821</ele>
        <time>2021-09-20T09:35:56Z</time>
      </trkpt>
      <trkpt lat="44.70661" lon="5.98226">
        <ele>1822</ele>
        <time>2021-09-20T09:35:57Z</time>
      </trkpt>
      <trkpt lat="44.70661" lon="5.98225">
        <ele>1822</ele>
        <time>2021-09-20T09:35:58Z</time>
      </trkpt>
      <trkpt lat="44.70662" lon="5.98225">
        <ele>1822</ele>
        <time>2021-09-20T09:35:59Z</time>
      </trkpt>
      <trkpt lat="44.70662" lon="5.98224">
        <ele>1822</ele>
        <time>2021-09-20T09:36:00Z</time>
      </trkpt>
      <trkpt lat="44.70663" lon="5.98224">
        <ele>1822</ele>
        <time>2021-09-20T09:36:01Z</time>
      </trkpt>
      <trkpt lat="44.70663" lon="5.98223">
        <ele>1823</ele>
        <time>2021-09-20T09:36:02Z</time>
      </trkpt>
      <trkpt lat="44.70663" lon="5.98222">
        <ele>1823</ele>
        <time>2021-09-20T09:36:03Z</time>
      </trkpt>
      <trkpt lat="44.70663" lon="5.98222">
        <ele>1823</ele>
        <time>2021-09-20T09:36:04Z</time>
      </trkpt>
      <trkpt lat="44.70663" lon="5.98221">
        <ele>1823</ele>
        <time>2021-09-20T09:36:05Z</time>
      </trkpt>
      <trkpt lat="44.70664" lon="5.98221">
        <ele>1823</ele>
        <time>2021-09-20T09:36:06Z</time>
      </trkpt>
      <trkpt lat="44.70664" lon="5.9822">
        <ele>1824</ele>
        <time>2021-09-20T09:36:07Z</time>
      </trkpt>
      <trkpt lat="44.70664" lon="5.9822">
        <ele>1824</ele>
        <time>2021-09-20T09:36:08Z</time>
      </trkpt>
      <trkpt lat="44.70665" lon="5.98219">
        <ele>1824</ele>
        <time>2021-09-20T09:36:09Z</time>
      </trkpt>
      <trkpt lat="44.70665" lon="5.98217">
        <ele>1824</ele>
        <time>2021-09-20T09:36:10Z</time>
      </trkpt>
      <trkpt lat="44.70666" lon="5.98216">
        <ele>1824</ele>
        <time>2021-09-20T09:36:11Z</time>
      </trkpt>
      <trkpt lat="44.70667" lon="5.98216">
        <ele>1824</ele>
        <time>2021-09-20T09:36:12Z</time>
      </trkpt>
      <trkpt lat="44.70668" lon="5.98216">
        <ele>1824</ele>
        <time>2021-09-20T09:36:13Z</time>
      </trkpt>
      <trkpt lat="44.70669" lon="5.98216">
        <ele>1824</ele>
        <time>2021-09-20T09:36:14Z</time>
      </trkpt>
      <trkpt lat="44.7067" lon="5.98216">
        <ele>1824</ele>
        <time>2021-09-20T09:36:15Z</time>
      </trkpt>
      <trkpt lat="44.70671" lon="5.98216">
        <ele>1824</ele>
        <time>2021-09-20T09:36:16Z</time>
      </trkpt>
      <trkpt lat="44.70671" lon="5.98215">
        <ele>1825</ele>
        <time>2021-09-20T09:36:17Z</time>
      </trkpt>
      <trkpt lat="44.70672" lon="5.98214">
        <ele>1825</ele>
        <time>2021-09-20T09:36:18Z</time>
      </trkpt>
      <trkpt lat="44.70673" lon="5.98213">
        <ele>1825</ele>
        <time>2021-09-20T09:36:19Z</time>
      </trkpt>
      <trkpt lat="44.70674" lon="5.98212">
        <ele>1825</ele>
        <time>2021-09-20T09:36:20Z</time>
      </trkpt>
      <trkpt lat="44.70674" lon="5.98212">
        <ele>1825</ele>
        <time>2021-09-20T09:36:21Z</time>
      </trkpt>
      <trkpt lat="44.70675" lon="5.98211">
        <ele>1825</ele>
        <time>2021-09-20T09:36:22Z</time>
      </trkpt>
      <trkpt lat="44.70676" lon="5.9821">
        <ele>1825</ele>
        <time>2021-09-20T09:36:23Z</time>
      </trkpt>
      <trkpt lat="44.70677" lon="5.9821">
        <ele>1825</ele>
        <time>2021-09-20T09:36:24Z</time>
      </trkpt>
      <trkpt lat="44.70678" lon="5.9821">
        <ele>1825</ele>
        <time>2021-09-20T09:36:25Z</time>
      </trkpt>
      <trkpt lat="44.70679" lon="5.9821">
        <ele>1825</ele>
        <time>2021-09-20T09:36:26Z</time>
      </trkpt>
      <trkpt lat="44.70681" lon="5.98209">
        <ele>1827</ele>
        <time>2021-09-20T09:36:43Z</time>
      </trkpt>
      <trkpt lat="44.70681" lon="5.98208">
        <ele>1827</ele>
        <time>2021-09-20T09:36:44Z</time>
      </trkpt>
      <trkpt lat="44.70681" lon="5.98207">
        <ele>1827</ele>
        <time>2021-09-20T09:36:45Z</time>
      </trkpt>
      <trkpt lat="44.70682" lon="5.98207">
        <ele>1827</ele>
        <time>2021-09-20T09:36:46Z</time>
      </trkpt>
      <trkpt lat="44.70682" lon="5.98207">
        <ele>1827</ele>
        <time>2021-09-20T09:36:47Z</time>
      </trkpt>
      <trkpt lat="44.70683" lon="5.98206">
        <ele>1827</ele>
        <time>2021-09-20T09:36:48Z</time>
      </trkpt>
      <trkpt lat="44.70684" lon="5.98206">
        <ele>1827</ele>
        <time>2021-09-20T09:36:49Z</time>
      </trkpt>
      <trkpt lat="44.70684" lon="5.98206">
        <ele>1827</ele>
        <time>2021-09-20T09:36:50Z</time>
      </trkpt>
      <trkpt lat="44.70685" lon="5.98206">
        <ele>1827</ele>
        <time>2021-09-20T09:36:51Z</time>
      </trkpt>
      <trkpt lat="44.70685" lon="5.98205">
        <ele>1827</ele>
        <time>2021-09-20T09:36:52Z</time>
      </trkpt>
      <trkpt lat="44.70685" lon="5.98205">
        <ele>1827</ele>
        <time>2021-09-20T09:36:53Z</time>
      </trkpt>
      <trkpt lat="44.70686" lon="5.98204">
        <ele>1827</ele>
        <time>2021-09-20T09:36:54Z</time>
      </trkpt>
      <trkpt lat="44.70686" lon="5.98204">
        <ele>1827</ele>
        <time>2021-09-20T09:36:55Z</time>
      </trkpt>
      <trkpt lat="44.70687" lon="5.98203">
        <ele>1827</ele>
        <time>2021-09-20T09:36:56Z</time>
      </trkpt>
      <trkpt lat="44.70687" lon="5.98203">
        <ele>1827</ele>
        <time>2021-09-20T09:36:57Z</time>
      </trkpt>
      <trkpt lat="44.70687" lon="5.98202">
        <ele>1827</ele>
        <time>2021-09-20T09:36:58Z</time>
      </trkpt>
      <trkpt lat="44.70688" lon="5.98202">
        <ele>1827</ele>
        <time>2021-09-20T09:36:59Z</time>
      </trkpt>
      <trkpt lat="44.70689" lon="5.98202">
        <ele>1827</ele>
        <time>2021-09-20T09:37:00Z</time>
      </trkpt>
      <trkpt lat="44.7069" lon="5.98201">
        <ele>1827</ele>
        <time>2021-09-20T09:37:01Z</time>
      </trkpt>
      <trkpt lat="44.70691" lon="5.98201">
        <ele>1827</ele>
        <time>2021-09-20T09:37:02Z</time>
      </trkpt>
      <trkpt lat="44.70694" lon="5.98201">
        <ele>1828</ele>
        <time>2021-09-20T09:37:13Z</time>
      </trkpt>
      <trkpt lat="44.70695" lon="5.982">
        <ele>1828</ele>
        <time>2021-09-20T09:37:14Z</time>
      </trkpt>
      <trkpt lat="44.70697" lon="5.98199">
        <ele>1828</ele>
        <time>2021-09-20T09:37:15Z</time>
      </trkpt>
      <trkpt lat="44.70697" lon="5.98199">
        <ele>1828</ele>
        <time>2021-09-20T09:37:16Z</time>
      </trkpt>
      <trkpt lat="44.70698" lon="5.98198">
        <ele>1829</ele>
        <time>2021-09-20T09:37:17Z</time>
      </trkpt>
      <trkpt lat="44.70699" lon="5.98198">
        <ele>1829</ele>
        <time>2021-09-20T09:37:18Z</time>
      </trkpt>
      <trkpt lat="44.707" lon="5.98197">
        <ele>1829</ele>
        <time>2021-09-20T09:37:19Z</time>
      </trkpt>
      <trkpt lat="44.707" lon="5.98197">
        <ele>1829</ele>
        <time>2021-09-20T09:37:20Z</time>
      </trkpt>
      <trkpt lat="44.707" lon="5.98196">
        <ele>1829</ele>
        <time>2021-09-20T09:37:21Z</time>
      </trkpt>
      <trkpt lat="44.70701" lon="5.98196">
        <ele>1830</ele>
        <time>2021-09-20T09:37:22Z</time>
      </trkpt>
      <trkpt lat="44.70701" lon="5.98195">
        <ele>1830</ele>
        <time>2021-09-20T09:37:23Z</time>
      </trkpt>
      <trkpt lat="44.70702" lon="5.98194">
        <ele>1830</ele>
        <time>2021-09-20T09:37:24Z</time>
      </trkpt>
      <trkpt lat="44.70702" lon="5.98194">
        <ele>1830</ele>
        <time>2021-09-20T09:37:25Z</time>
      </trkpt>
      <trkpt lat="44.70703" lon="5.98193">
        <ele>1830</ele>
        <time>2021-09-20T09:37:26Z</time>
      </trkpt>
      <trkpt lat="44.70704" lon="5.98193">
        <ele>1831</ele>
        <time>2021-09-20T09:37:27Z</time>
      </trkpt>
      <trkpt lat="44.70704" lon="5.98192">
        <ele>1831</ele>
        <time>2021-09-20T09:37:28Z</time>
      </trkpt>
      <trkpt lat="44.70705" lon="5.98191">
        <ele>1831</ele>
        <time>2021-09-20T09:37:29Z</time>
      </trkpt>
      <trkpt lat="44.70705" lon="5.98191">
        <ele>1831</ele>
        <time>2021-09-20T09:37:30Z</time>
      </trkpt>
      <trkpt lat="44.70706" lon="5.9819">
        <ele>1831</ele>
        <time>2021-09-20T09:37:31Z</time>
      </trkpt>
      <trkpt lat="44.70706" lon="5.9819">
        <ele>1831</ele>
        <time>2021-09-20T09:37:32Z</time>
      </trkpt>
      <trkpt lat="44.70707" lon="5.98189">
        <ele>1831</ele>
        <time>2021-09-20T09:37:33Z</time>
      </trkpt>
      <trkpt lat="44.70708" lon="5.98189">
        <ele>1831</ele>
        <time>2021-09-20T09:37:34Z</time>
      </trkpt>
      <trkpt lat="44.70708" lon="5.98189">
        <ele>1831</ele>
        <time>2021-09-20T09:37:35Z</time>
      </trkpt>
      <trkpt lat="44.70709" lon="5.98188">
        <ele>1831</ele>
        <time>2021-09-20T09:37:36Z</time>
      </trkpt>
      <trkpt lat="44.7071" lon="5.98188">
        <ele>1832</ele>
        <time>2021-09-20T09:37:37Z</time>
      </trkpt>
      <trkpt lat="44.7071" lon="5.98188">
        <ele>1832</ele>
        <time>2021-09-20T09:37:38Z</time>
      </trkpt>
      <trkpt lat="44.70711" lon="5.98188">
        <ele>1832</ele>
        <time>2021-09-20T09:37:39Z</time>
      </trkpt>
      <trkpt lat="44.70711" lon="5.98188">
        <ele>1832</ele>
        <time>2021-09-20T09:37:40Z</time>
      </trkpt>
      <trkpt lat="44.70712" lon="5.98187">
        <ele>1832</ele>
        <time>2021-09-20T09:37:41Z</time>
      </trkpt>
      <trkpt lat="44.70712" lon="5.98187">
        <ele>1833</ele>
        <time>2021-09-20T09:37:42Z</time>
      </trkpt>
      <trkpt lat="44.70713" lon="5.98187">
        <ele>1833</ele>
        <time>2021-09-20T09:37:43Z</time>
      </trkpt>
      <trkpt lat="44.70713" lon="5.98187">
        <ele>1833</ele>
        <time>2021-09-20T09:37:44Z</time>
      </trkpt>
      <trkpt lat="44.70714" lon="5.98187">
        <ele>1833</ele>
        <time>2021-09-20T09:37:45Z</time>
      </trkpt>
      <trkpt lat="44.70714" lon="5.98186">
        <ele>1833</ele>
        <time>2021-09-20T09:37:46Z</time>
      </trkpt>
      <trkpt lat="44.70715" lon="5.98186">
        <ele>1834</ele>
        <time>2021-09-20T09:37:47Z</time>
      </trkpt>
      <trkpt lat="44.70715" lon="5.98186">
        <ele>1834</ele>
        <time>2021-09-20T09:37:48Z</time>
      </trkpt>
      <trkpt lat="44.70716" lon="5.98185">
        <ele>1834</ele>
        <time>2021-09-20T09:37:49Z</time>
      </trkpt>
      <trkpt lat="44.70716" lon="5.98185">
        <ele>1834</ele>
        <time>2021-09-20T09:37:50Z</time>
      </trkpt>
      <trkpt lat="44.70717" lon="5.98185">
        <ele>1834</ele>
        <time>2021-09-20T09:37:51Z</time>
      </trkpt>
      <trkpt lat="44.70717" lon="5.98184">
        <ele>1834</ele>
        <time>2021-09-20T09:37:52Z</time>
      </trkpt>
      <trkpt lat="44.70718" lon="5.98184">
        <ele>1834</ele>
        <time>2021-09-20T09:37:53Z</time>
      </trkpt>
      <trkpt lat="44.70718" lon="5.98184">
        <ele>1834</ele>
        <time>2021-09-20T09:37:54Z</time>
      </trkpt>
      <trkpt lat="44.70718" lon="5.98183">
        <ele>1834</ele>
        <time>2021-09-20T09:37:55Z</time>
      </trkpt>
      <trkpt lat="44.70719" lon="5.98183">
        <ele>1834</ele>
        <time>2021-09-20T09:37:56Z</time>
      </trkpt>
      <trkpt lat="44.70719" lon="5.98182">
        <ele>1835</ele>
        <time>2021-09-20T09:37:57Z</time>
      </trkpt>
      <trkpt lat="44.7072" lon="5.98182">
        <ele>1835</ele>
        <time>2021-09-20T09:37:58Z</time>
      </trkpt>
      <trkpt lat="44.7072" lon="5.98181">
        <ele>1835</ele>
        <time>2021-09-20T09:37:59Z</time>
      </trkpt>
      <trkpt lat="44.70721" lon="5.98181">
        <ele>1835</ele>
        <time>2021-09-20T09:38:00Z</time>
      </trkpt>
      <trkpt lat="44.70721" lon="5.9818">
        <ele>1835</ele>
        <time>2021-09-20T09:38:01Z</time>
      </trkpt>
      <trkpt lat="44.70722" lon="5.9818">
        <ele>1836</ele>
        <time>2021-09-20T09:38:02Z</time>
      </trkpt>
      <trkpt lat="44.70723" lon="5.9818">
        <ele>1836</ele>
        <time>2021-09-20T09:38:03Z</time>
      </trkpt>
      <trkpt lat="44.70724" lon="5.98179">
        <ele>1836</ele>
        <time>2021-09-20T09:38:04Z</time>
      </trkpt>
      <trkpt lat="44.70724" lon="5.9818">
        <ele>1837</ele>
        <time>2021-09-20T09:38:12Z</time>
      </trkpt>
      <trkpt lat="44.70724" lon="5.9818">
        <ele>1837</ele>
        <time>2021-09-20T09:38:13Z</time>
      </trkpt>
      <trkpt lat="44.70724" lon="5.9818">
        <ele>1837</ele>
        <time>2021-09-20T09:38:14Z</time>
      </trkpt>
      <trkpt lat="44.70724" lon="5.9818">
        <ele>1837</ele>
        <time>2021-09-20T09:38:15Z</time>
      </trkpt>
      <trkpt lat="44.70724" lon="5.9818">
        <ele>1837</ele>
        <time>2021-09-20T09:38:16Z</time>
      </trkpt>
      <trkpt lat="44.70724" lon="5.9818">
        <ele>1838</ele>
        <time>2021-09-20T09:38:17Z</time>
      </trkpt>
      <trkpt lat="44.70724" lon="5.98179">
        <ele>1838</ele>
        <time>2021-09-20T09:38:18Z</time>
      </trkpt>
      <trkpt lat="44.70725" lon="5.98179">
        <ele>1838</ele>
        <time>2021-09-20T09:38:19Z</time>
      </trkpt>
      <trkpt lat="44.70726" lon="5.98179">
        <ele>1838</ele>
        <time>2021-09-20T09:38:20Z</time>
      </trkpt>
      <trkpt lat="44.70727" lon="5.98179">
        <ele>1838</ele>
        <time>2021-09-20T09:38:21Z</time>
      </trkpt>
      <trkpt lat="44.70727" lon="5.98178">
        <ele>1838</ele>
        <time>2021-09-20T09:38:22Z</time>
      </trkpt>
      <trkpt lat="44.70728" lon="5.98178">
        <ele>1838</ele>
        <time>2021-09-20T09:38:23Z</time>
      </trkpt>
      <trkpt lat="44.70729" lon="5.98178">
        <ele>1838</ele>
        <time>2021-09-20T09:38:24Z</time>
      </trkpt>
      <trkpt lat="44.70729" lon="5.98177">
        <ele>1838</ele>
        <time>2021-09-20T09:38:25Z</time>
      </trkpt>
      <trkpt lat="44.7073" lon="5.98176">
        <ele>1838</ele>
        <time>2021-09-20T09:38:26Z</time>
      </trkpt>
      <trkpt lat="44.70731" lon="5.98176">
        <ele>1838</ele>
        <time>2021-09-20T09:38:27Z</time>
      </trkpt>
      <trkpt lat="44.70731" lon="5.98175">
        <ele>1838</ele>
        <time>2021-09-20T09:38:28Z</time>
      </trkpt>
      <trkpt lat="44.70732" lon="5.98174">
        <ele>1838</ele>
        <time>2021-09-20T09:38:29Z</time>
      </trkpt>
      <trkpt lat="44.70733" lon="5.98174">
        <ele>1838</ele>
        <time>2021-09-20T09:38:30Z</time>
      </trkpt>
      <trkpt lat="44.70733" lon="5.98173">
        <ele>1838</ele>
        <time>2021-09-20T09:38:31Z</time>
      </trkpt>
      <trkpt lat="44.70734" lon="5.98173">
        <ele>1839</ele>
        <time>2021-09-20T09:38:32Z</time>
      </trkpt>
      <trkpt lat="44.70734" lon="5.98173">
        <ele>1839</ele>
        <time>2021-09-20T09:38:33Z</time>
      </trkpt>
      <trkpt lat="44.70735" lon="5.98172">
        <ele>1839</ele>
        <time>2021-09-20T09:38:34Z</time>
      </trkpt>
      <trkpt lat="44.70736" lon="5.98172">
        <ele>1839</ele>
        <time>2021-09-20T09:38:35Z</time>
      </trkpt>
      <trkpt lat="44.70736" lon="5.98171">
        <ele>1839</ele>
        <time>2021-09-20T09:38:36Z</time>
      </trkpt>
      <trkpt lat="44.70737" lon="5.98171">
        <ele>1840</ele>
        <time>2021-09-20T09:38:37Z</time>
      </trkpt>
      <trkpt lat="44.70738" lon="5.9817">
        <ele>1840</ele>
        <time>2021-09-20T09:38:38Z</time>
      </trkpt>
      <trkpt lat="44.70738" lon="5.9817">
        <ele>1840</ele>
        <time>2021-09-20T09:38:39Z</time>
      </trkpt>
      <trkpt lat="44.70739" lon="5.98169">
        <ele>1840</ele>
        <time>2021-09-20T09:38:40Z</time>
      </trkpt>
      <trkpt lat="44.7074" lon="5.98168">
        <ele>1840</ele>
        <time>2021-09-20T09:38:41Z</time>
      </trkpt>
      <trkpt lat="44.7074" lon="5.98168">
        <ele>1841</ele>
        <time>2021-09-20T09:38:42Z</time>
      </trkpt>
      <trkpt lat="44.70741" lon="5.98167">
        <ele>1841</ele>
        <time>2021-09-20T09:38:43Z</time>
      </trkpt>
      <trkpt lat="44.70741" lon="5.98167">
        <ele>1841</ele>
        <time>2021-09-20T09:38:44Z</time>
      </trkpt>
      <trkpt lat="44.70742" lon="5.98166">
        <ele>1841</ele>
        <time>2021-09-20T09:38:45Z</time>
      </trkpt>
      <trkpt lat="44.70742" lon="5.98165">
        <ele>1841</ele>
        <time>2021-09-20T09:38:46Z</time>
      </trkpt>
      <trkpt lat="44.70742" lon="5.98165">
        <ele>1842</ele>
        <time>2021-09-20T09:38:47Z</time>
      </trkpt>
      <trkpt lat="44.70743" lon="5.98164">
        <ele>1842</ele>
        <time>2021-09-20T09:38:48Z</time>
      </trkpt>
      <trkpt lat="44.70744" lon="5.98164">
        <ele>1842</ele>
        <time>2021-09-20T09:38:49Z</time>
      </trkpt>
      <trkpt lat="44.70744" lon="5.98163">
        <ele>1842</ele>
        <time>2021-09-20T09:38:50Z</time>
      </trkpt>
      <trkpt lat="44.70745" lon="5.98163">
        <ele>1842</ele>
        <time>2021-09-20T09:38:51Z</time>
      </trkpt>
      <trkpt lat="44.70746" lon="5.98162">
        <ele>1842</ele>
        <time>2021-09-20T09:38:52Z</time>
      </trkpt>
      <trkpt lat="44.70746" lon="5.98162">
        <ele>1842</ele>
        <time>2021-09-20T09:38:53Z</time>
      </trkpt>
      <trkpt lat="44.70747" lon="5.98161">
        <ele>1842</ele>
        <time>2021-09-20T09:38:54Z</time>
      </trkpt>
      <trkpt lat="44.70747" lon="5.9816">
        <ele>1842</ele>
        <time>2021-09-20T09:38:55Z</time>
      </trkpt>
      <trkpt lat="44.70748" lon="5.9816">
        <ele>1842</ele>
        <time>2021-09-20T09:38:56Z</time>
      </trkpt>
      <trkpt lat="44.70748" lon="5.9816">
        <ele>1843</ele>
        <time>2021-09-20T09:38:57Z</time>
      </trkpt>
      <trkpt lat="44.70748" lon="5.9816">
        <ele>1843</ele>
        <time>2021-09-20T09:38:58Z</time>
      </trkpt>
      <trkpt lat="44.70748" lon="5.98159">
        <ele>1843</ele>
        <time>2021-09-20T09:38:59Z</time>
      </trkpt>
      <trkpt lat="44.70748" lon="5.98159">
        <ele>1843</ele>
        <time>2021-09-20T09:39:00Z</time>
      </trkpt>
      <trkpt lat="44.70749" lon="5.98159">
        <ele>1843</ele>
        <time>2021-09-20T09:39:01Z</time>
      </trkpt>
      <trkpt lat="44.70749" lon="5.98158">
        <ele>1844</ele>
        <time>2021-09-20T09:39:02Z</time>
      </trkpt>
      <trkpt lat="44.7075" lon="5.98157">
        <ele>1844</ele>
        <time>2021-09-20T09:39:03Z</time>
      </trkpt>
      <trkpt lat="44.70751" lon="5.98157">
        <ele>1844</ele>
        <time>2021-09-20T09:39:04Z</time>
      </trkpt>
      <trkpt lat="44.70751" lon="5.98157">
        <ele>1844</ele>
        <time>2021-09-20T09:39:05Z</time>
      </trkpt>
      <trkpt lat="44.70752" lon="5.98156">
        <ele>1844</ele>
        <time>2021-09-20T09:39:06Z</time>
      </trkpt>
      <trkpt lat="44.70752" lon="5.98156">
        <ele>1845</ele>
        <time>2021-09-20T09:39:07Z</time>
      </trkpt>
      <trkpt lat="44.70753" lon="5.98156">
        <ele>1845</ele>
        <time>2021-09-20T09:39:08Z</time>
      </trkpt>
      <trkpt lat="44.70753" lon="5.98156">
        <ele>1845</ele>
        <time>2021-09-20T09:39:09Z</time>
      </trkpt>
      <trkpt lat="44.70754" lon="5.98156">
        <ele>1845</ele>
        <time>2021-09-20T09:39:10Z</time>
      </trkpt>
      <trkpt lat="44.70754" lon="5.98155">
        <ele>1845</ele>
        <time>2021-09-20T09:39:11Z</time>
      </trkpt>
      <trkpt lat="44.70755" lon="5.98155">
        <ele>1846</ele>
        <time>2021-09-20T09:39:12Z</time>
      </trkpt>
      <trkpt lat="44.70756" lon="5.98154">
        <ele>1846</ele>
        <time>2021-09-20T09:39:13Z</time>
      </trkpt>
      <trkpt lat="44.70757" lon="5.98154">
        <ele>1846</ele>
        <time>2021-09-20T09:39:14Z</time>
      </trkpt>
      <trkpt lat="44.70757" lon="5.98154">
        <ele>1846</ele>
        <time>2021-09-20T09:39:15Z</time>
      </trkpt>
      <trkpt lat="44.70758" lon="5.98153">
        <ele>1846</ele>
        <time>2021-09-20T09:39:16Z</time>
      </trkpt>
      <trkpt lat="44.70758" lon="5.98152">
        <ele>1847</ele>
        <time>2021-09-20T09:39:17Z</time>
      </trkpt>
      <trkpt lat="44.70759" lon="5.98152">
        <ele>1847</ele>
        <time>2021-09-20T09:39:18Z</time>
      </trkpt>
      <trkpt lat="44.70759" lon="5.98151">
        <ele>1847</ele>
        <time>2021-09-20T09:39:19Z</time>
      </trkpt>
      <trkpt lat="44.7076" lon="5.98151">
        <ele>1847</ele>
        <time>2021-09-20T09:39:20Z</time>
      </trkpt>
      <trkpt lat="44.7076" lon="5.9815">
        <ele>1847</ele>
        <time>2021-09-20T09:39:21Z</time>
      </trkpt>
      <trkpt lat="44.7076" lon="5.9815">
        <ele>1847</ele>
        <time>2021-09-20T09:39:22Z</time>
      </trkpt>
      <trkpt lat="44.7076" lon="5.9815">
        <ele>1847</ele>
        <time>2021-09-20T09:39:23Z</time>
      </trkpt>
      <trkpt lat="44.70761" lon="5.98149">
        <ele>1847</ele>
        <time>2021-09-20T09:39:24Z</time>
      </trkpt>
      <trkpt lat="44.70761" lon="5.98149">
        <ele>1847</ele>
        <time>2021-09-20T09:39:25Z</time>
      </trkpt>
      <trkpt lat="44.70762" lon="5.98148">
        <ele>1847</ele>
        <time>2021-09-20T09:39:26Z</time>
      </trkpt>
      <trkpt lat="44.70763" lon="5.98148">
        <ele>1848</ele>
        <time>2021-09-20T09:39:27Z</time>
      </trkpt>
      <trkpt lat="44.70763" lon="5.98147">
        <ele>1848</ele>
        <time>2021-09-20T09:39:28Z</time>
      </trkpt>
      <trkpt lat="44.70764" lon="5.98147">
        <ele>1848</ele>
        <time>2021-09-20T09:39:29Z</time>
      </trkpt>
      <trkpt lat="44.70765" lon="5.98146">
        <ele>1848</ele>
        <time>2021-09-20T09:39:30Z</time>
      </trkpt>
      <trkpt lat="44.70765" lon="5.98145">
        <ele>1848</ele>
        <time>2021-09-20T09:39:31Z</time>
      </trkpt>
      <trkpt lat="44.70766" lon="5.98144">
        <ele>1849</ele>
        <time>2021-09-20T09:39:32Z</time>
      </trkpt>
      <trkpt lat="44.70766" lon="5.98143">
        <ele>1849</ele>
        <time>2021-09-20T09:39:33Z</time>
      </trkpt>
      <trkpt lat="44.70767" lon="5.98142">
        <ele>1849</ele>
        <time>2021-09-20T09:39:34Z</time>
      </trkpt>
      <trkpt lat="44.70767" lon="5.98141">
        <ele>1849</ele>
        <time>2021-09-20T09:39:35Z</time>
      </trkpt>
      <trkpt lat="44.70768" lon="5.98141">
        <ele>1849</ele>
        <time>2021-09-20T09:39:36Z</time>
      </trkpt>
      <trkpt lat="44.70768" lon="5.9814">
        <ele>1849</ele>
        <time>2021-09-20T09:39:37Z</time>
      </trkpt>
      <trkpt lat="44.70768" lon="5.98139">
        <ele>1849</ele>
        <time>2021-09-20T09:39:38Z</time>
      </trkpt>
      <trkpt lat="44.70769" lon="5.98138">
        <ele>1849</ele>
        <time>2021-09-20T09:39:39Z</time>
      </trkpt>
      <trkpt lat="44.70769" lon="5.98138">
        <ele>1849</ele>
        <time>2021-09-20T09:39:40Z</time>
      </trkpt>
      <trkpt lat="44.7077" lon="5.98138">
        <ele>1849</ele>
        <time>2021-09-20T09:39:41Z</time>
      </trkpt>
      <trkpt lat="44.70771" lon="5.98138">
        <ele>1850</ele>
        <time>2021-09-20T09:39:42Z</time>
      </trkpt>
      <trkpt lat="44.70771" lon="5.98138">
        <ele>1850</ele>
        <time>2021-09-20T09:39:43Z</time>
      </trkpt>
      <trkpt lat="44.70772" lon="5.98138">
        <ele>1850</ele>
        <time>2021-09-20T09:39:44Z</time>
      </trkpt>
      <trkpt lat="44.70773" lon="5.98138">
        <ele>1850</ele>
        <time>2021-09-20T09:39:45Z</time>
      </trkpt>
      <trkpt lat="44.70773" lon="5.98137">
        <ele>1850</ele>
        <time>2021-09-20T09:39:46Z</time>
      </trkpt>
      <trkpt lat="44.70774" lon="5.98137">
        <ele>1851</ele>
        <time>2021-09-20T09:39:47Z</time>
      </trkpt>
      <trkpt lat="44.70774" lon="5.98137">
        <ele>1851</ele>
        <time>2021-09-20T09:39:48Z</time>
      </trkpt>
      <trkpt lat="44.70775" lon="5.98136">
        <ele>1851</ele>
        <time>2021-09-20T09:39:49Z</time>
      </trkpt>
      <trkpt lat="44.70776" lon="5.98136">
        <ele>1851</ele>
        <time>2021-09-20T09:39:50Z</time>
      </trkpt>
      <trkpt lat="44.70776" lon="5.98136">
        <ele>1851</ele>
        <time>2021-09-20T09:39:51Z</time>
      </trkpt>
      <trkpt lat="44.70776" lon="5.98135">
        <ele>1852</ele>
        <time>2021-09-20T09:39:52Z</time>
      </trkpt>
      <trkpt lat="44.70777" lon="5.98135">
        <ele>1852</ele>
        <time>2021-09-20T09:39:53Z</time>
      </trkpt>
      <trkpt lat="44.70777" lon="5.98134">
        <ele>1852</ele>
        <time>2021-09-20T09:39:54Z</time>
      </trkpt>
      <trkpt lat="44.70777" lon="5.98133">
        <ele>1852</ele>
        <time>2021-09-20T09:39:55Z</time>
      </trkpt>
      <trkpt lat="44.70778" lon="5.98132">
        <ele>1852</ele>
        <time>2021-09-20T09:39:56Z</time>
      </trkpt>
      <trkpt lat="44.70778" lon="5.98131">
        <ele>1853</ele>
        <time>2021-09-20T09:39:57Z</time>
      </trkpt>
      <trkpt lat="44.70778" lon="5.98131">
        <ele>1853</ele>
        <time>2021-09-20T09:39:58Z</time>
      </trkpt>
      <trkpt lat="44.70778" lon="5.9813">
        <ele>1853</ele>
        <time>2021-09-20T09:39:59Z</time>
      </trkpt>
      <trkpt lat="44.70779" lon="5.98129">
        <ele>1853</ele>
        <time>2021-09-20T09:40:00Z</time>
      </trkpt>
      <trkpt lat="44.70779" lon="5.98128">
        <ele>1853</ele>
        <time>2021-09-20T09:40:01Z</time>
      </trkpt>
      <trkpt lat="44.70779" lon="5.98127">
        <ele>1854</ele>
        <time>2021-09-20T09:40:02Z</time>
      </trkpt>
      <trkpt lat="44.70779" lon="5.98127">
        <ele>1854</ele>
        <time>2021-09-20T09:40:03Z</time>
      </trkpt>
      <trkpt lat="44.70779" lon="5.98126">
        <ele>1854</ele>
        <time>2021-09-20T09:40:04Z</time>
      </trkpt>
      <trkpt lat="44.70779" lon="5.98126">
        <ele>1854</ele>
        <time>2021-09-20T09:40:05Z</time>
      </trkpt>
      <trkpt lat="44.70779" lon="5.98125">
        <ele>1854</ele>
        <time>2021-09-20T09:40:06Z</time>
      </trkpt>
      <trkpt lat="44.7078" lon="5.98124">
        <ele>1854</ele>
        <time>2021-09-20T09:40:07Z</time>
      </trkpt>
      <trkpt lat="44.7078" lon="5.98123">
        <ele>1854</ele>
        <time>2021-09-20T09:40:08Z</time>
      </trkpt>
      <trkpt lat="44.7078" lon="5.98123">
        <ele>1854</ele>
        <time>2021-09-20T09:40:09Z</time>
      </trkpt>
      <trkpt lat="44.70781" lon="5.98122">
        <ele>1854</ele>
        <time>2021-09-20T09:40:10Z</time>
      </trkpt>
      <trkpt lat="44.70781" lon="5.98121">
        <ele>1854</ele>
        <time>2021-09-20T09:40:11Z</time>
      </trkpt>
      <trkpt lat="44.70781" lon="5.98121">
        <ele>1855</ele>
        <time>2021-09-20T09:40:12Z</time>
      </trkpt>
      <trkpt lat="44.70781" lon="5.9812">
        <ele>1855</ele>
        <time>2021-09-20T09:40:13Z</time>
      </trkpt>
      <trkpt lat="44.70781" lon="5.9812">
        <ele>1855</ele>
        <time>2021-09-20T09:40:14Z</time>
      </trkpt>
      <trkpt lat="44.70782" lon="5.98119">
        <ele>1855</ele>
        <time>2021-09-20T09:40:15Z</time>
      </trkpt>
      <trkpt lat="44.70782" lon="5.98118">
        <ele>1855</ele>
        <time>2021-09-20T09:40:16Z</time>
      </trkpt>
      <trkpt lat="44.70782" lon="5.98118">
        <ele>1856</ele>
        <time>2021-09-20T09:40:17Z</time>
      </trkpt>
      <trkpt lat="44.70783" lon="5.98117">
        <ele>1856</ele>
        <time>2021-09-20T09:40:18Z</time>
      </trkpt>
      <trkpt lat="44.70783" lon="5.98115">
        <ele>1856</ele>
        <time>2021-09-20T09:40:19Z</time>
      </trkpt>
      <trkpt lat="44.70783" lon="5.98114">
        <ele>1856</ele>
        <time>2021-09-20T09:40:20Z</time>
      </trkpt>
      <trkpt lat="44.70783" lon="5.98113">
        <ele>1856</ele>
        <time>2021-09-20T09:40:21Z</time>
      </trkpt>
      <trkpt lat="44.70783" lon="5.98112">
        <ele>1857</ele>
        <time>2021-09-20T09:40:22Z</time>
      </trkpt>
      <trkpt lat="44.70783" lon="5.98111">
        <ele>1857</ele>
        <time>2021-09-20T09:40:23Z</time>
      </trkpt>
      <trkpt lat="44.70783" lon="5.9811">
        <ele>1857</ele>
        <time>2021-09-20T09:40:24Z</time>
      </trkpt>
      <trkpt lat="44.70783" lon="5.98109">
        <ele>1857</ele>
        <time>2021-09-20T09:40:25Z</time>
      </trkpt>
      <trkpt lat="44.70784" lon="5.98108">
        <ele>1857</ele>
        <time>2021-09-20T09:40:26Z</time>
      </trkpt>
      <trkpt lat="44.70784" lon="5.98106">
        <ele>1858</ele>
        <time>2021-09-20T09:40:27Z</time>
      </trkpt>
      <trkpt lat="44.70784" lon="5.98105">
        <ele>1858</ele>
        <time>2021-09-20T09:40:28Z</time>
      </trkpt>
      <trkpt lat="44.70785" lon="5.98103">
        <ele>1858</ele>
        <time>2021-09-20T09:40:34Z</time>
      </trkpt>
      <trkpt lat="44.70786" lon="5.98102">
        <ele>1858</ele>
        <time>2021-09-20T09:40:35Z</time>
      </trkpt>
      <trkpt lat="44.70786" lon="5.98101">
        <ele>1858</ele>
        <time>2021-09-20T09:40:36Z</time>
      </trkpt>
      <trkpt lat="44.70787" lon="5.981">
        <ele>1859</ele>
        <time>2021-09-20T09:40:37Z</time>
      </trkpt>
      <trkpt lat="44.70787" lon="5.98099">
        <ele>1859</ele>
        <time>2021-09-20T09:40:38Z</time>
      </trkpt>
      <trkpt lat="44.70787" lon="5.98099">
        <ele>1859</ele>
        <time>2021-09-20T09:40:39Z</time>
      </trkpt>
      <trkpt lat="44.70788" lon="5.98098">
        <ele>1859</ele>
        <time>2021-09-20T09:40:40Z</time>
      </trkpt>
      <trkpt lat="44.70788" lon="5.98097">
        <ele>1859</ele>
        <time>2021-09-20T09:40:41Z</time>
      </trkpt>
      <trkpt lat="44.70788" lon="5.98096">
        <ele>1860</ele>
        <time>2021-09-20T09:40:42Z</time>
      </trkpt>
      <trkpt lat="44.70789" lon="5.98096">
        <ele>1860</ele>
        <time>2021-09-20T09:40:43Z</time>
      </trkpt>
      <trkpt lat="44.70789" lon="5.98095">
        <ele>1860</ele>
        <time>2021-09-20T09:40:44Z</time>
      </trkpt>
      <trkpt lat="44.70789" lon="5.98094">
        <ele>1860</ele>
        <time>2021-09-20T09:40:45Z</time>
      </trkpt>
      <trkpt lat="44.7079" lon="5.98094">
        <ele>1860</ele>
        <time>2021-09-20T09:40:46Z</time>
      </trkpt>
      <trkpt lat="44.7079" lon="5.98094">
        <ele>1861</ele>
        <time>2021-09-20T09:40:47Z</time>
      </trkpt>
      <trkpt lat="44.70791" lon="5.98093">
        <ele>1861</ele>
        <time>2021-09-20T09:40:48Z</time>
      </trkpt>
      <trkpt lat="44.70791" lon="5.98093">
        <ele>1861</ele>
        <time>2021-09-20T09:40:49Z</time>
      </trkpt>
      <trkpt lat="44.70792" lon="5.98092">
        <ele>1861</ele>
        <time>2021-09-20T09:40:50Z</time>
      </trkpt>
      <trkpt lat="44.70792" lon="5.98091">
        <ele>1861</ele>
        <time>2021-09-20T09:40:51Z</time>
      </trkpt>
      <trkpt lat="44.70793" lon="5.9809">
        <ele>1862</ele>
        <time>2021-09-20T09:40:52Z</time>
      </trkpt>
      <trkpt lat="44.70793" lon="5.9809">
        <ele>1862</ele>
        <time>2021-09-20T09:40:53Z</time>
      </trkpt>
      <trkpt lat="44.70793" lon="5.98089">
        <ele>1862</ele>
        <time>2021-09-20T09:40:54Z</time>
      </trkpt>
      <trkpt lat="44.70794" lon="5.98088">
        <ele>1862</ele>
        <time>2021-09-20T09:40:55Z</time>
      </trkpt>
      <trkpt lat="44.70794" lon="5.98087">
        <ele>1862</ele>
        <time>2021-09-20T09:40:56Z</time>
      </trkpt>
      <trkpt lat="44.70794" lon="5.98086">
        <ele>1863</ele>
        <time>2021-09-20T09:40:57Z</time>
      </trkpt>
      <trkpt lat="44.70795" lon="5.98085">
        <ele>1863</ele>
        <time>2021-09-20T09:40:58Z</time>
      </trkpt>
      <trkpt lat="44.70795" lon="5.98084">
        <ele>1863</ele>
        <time>2021-09-20T09:40:59Z</time>
      </trkpt>
      <trkpt lat="44.70796" lon="5.98083">
        <ele>1863</ele>
        <time>2021-09-20T09:41:00Z</time>
      </trkpt>
      <trkpt lat="44.70796" lon="5.98082">
        <ele>1863</ele>
        <time>2021-09-20T09:41:01Z</time>
      </trkpt>
      <trkpt lat="44.70796" lon="5.98082">
        <ele>1864</ele>
        <time>2021-09-20T09:41:02Z</time>
      </trkpt>
      <trkpt lat="44.70797" lon="5.98081">
        <ele>1864</ele>
        <time>2021-09-20T09:41:03Z</time>
      </trkpt>
      <trkpt lat="44.70797" lon="5.98081">
        <ele>1864</ele>
        <time>2021-09-20T09:41:04Z</time>
      </trkpt>
      <trkpt lat="44.70798" lon="5.98081">
        <ele>1864</ele>
        <time>2021-09-20T09:41:05Z</time>
      </trkpt>
      <trkpt lat="44.70798" lon="5.9808">
        <ele>1864</ele>
        <time>2021-09-20T09:41:06Z</time>
      </trkpt>
      <trkpt lat="44.70798" lon="5.9808">
        <ele>1864</ele>
        <time>2021-09-20T09:41:07Z</time>
      </trkpt>
      <trkpt lat="44.70799" lon="5.9808">
        <ele>1864</ele>
        <time>2021-09-20T09:41:08Z</time>
      </trkpt>
      <trkpt lat="44.70799" lon="5.9808">
        <ele>1864</ele>
        <time>2021-09-20T09:41:09Z</time>
      </trkpt>
      <trkpt lat="44.70799" lon="5.98079">
        <ele>1864</ele>
        <time>2021-09-20T09:41:10Z</time>
      </trkpt>
      <trkpt lat="44.708" lon="5.98078">
        <ele>1864</ele>
        <time>2021-09-20T09:41:11Z</time>
      </trkpt>
      <trkpt lat="44.708" lon="5.98077">
        <ele>1865</ele>
        <time>2021-09-20T09:41:12Z</time>
      </trkpt>
      <trkpt lat="44.70801" lon="5.98077">
        <ele>1865</ele>
        <time>2021-09-20T09:41:13Z</time>
      </trkpt>
      <trkpt lat="44.70801" lon="5.98076">
        <ele>1865</ele>
        <time>2021-09-20T09:41:14Z</time>
      </trkpt>
      <trkpt lat="44.70801" lon="5.98075">
        <ele>1865</ele>
        <time>2021-09-20T09:41:15Z</time>
      </trkpt>
      <trkpt lat="44.70802" lon="5.98074">
        <ele>1865</ele>
        <time>2021-09-20T09:41:16Z</time>
      </trkpt>
      <trkpt lat="44.70802" lon="5.98073">
        <ele>1866</ele>
        <time>2021-09-20T09:41:17Z</time>
      </trkpt>
      <trkpt lat="44.70802" lon="5.98072">
        <ele>1866</ele>
        <time>2021-09-20T09:41:18Z</time>
      </trkpt>
      <trkpt lat="44.70802" lon="5.98071">
        <ele>1866</ele>
        <time>2021-09-20T09:41:19Z</time>
      </trkpt>
      <trkpt lat="44.70803" lon="5.98071">
        <ele>1866</ele>
        <time>2021-09-20T09:41:20Z</time>
      </trkpt>
      <trkpt lat="44.70803" lon="5.9807">
        <ele>1866</ele>
        <time>2021-09-20T09:41:21Z</time>
      </trkpt>
      <trkpt lat="44.70803" lon="5.98069">
        <ele>1866</ele>
        <time>2021-09-20T09:41:22Z</time>
      </trkpt>
      <trkpt lat="44.70804" lon="5.98069">
        <ele>1866</ele>
        <time>2021-09-20T09:41:23Z</time>
      </trkpt>
      <trkpt lat="44.70804" lon="5.98068">
        <ele>1866</ele>
        <time>2021-09-20T09:41:24Z</time>
      </trkpt>
      <trkpt lat="44.70805" lon="5.98068">
        <ele>1866</ele>
        <time>2021-09-20T09:41:25Z</time>
      </trkpt>
      <trkpt lat="44.70805" lon="5.98068">
        <ele>1866</ele>
        <time>2021-09-20T09:41:26Z</time>
      </trkpt>
      <trkpt lat="44.70806" lon="5.98067">
        <ele>1867</ele>
        <time>2021-09-20T09:41:27Z</time>
      </trkpt>
      <trkpt lat="44.70806" lon="5.98067">
        <ele>1867</ele>
        <time>2021-09-20T09:41:28Z</time>
      </trkpt>
      <trkpt lat="44.70806" lon="5.98066">
        <ele>1867</ele>
        <time>2021-09-20T09:41:29Z</time>
      </trkpt>
      <trkpt lat="44.70806" lon="5.98066">
        <ele>1867</ele>
        <time>2021-09-20T09:41:30Z</time>
      </trkpt>
      <trkpt lat="44.70807" lon="5.98066">
        <ele>1867</ele>
        <time>2021-09-20T09:41:31Z</time>
      </trkpt>
      <trkpt lat="44.70807" lon="5.98065">
        <ele>1868</ele>
        <time>2021-09-20T09:41:32Z</time>
      </trkpt>
      <trkpt lat="44.70807" lon="5.98065">
        <ele>1868</ele>
        <time>2021-09-20T09:41:33Z</time>
      </trkpt>
      <trkpt lat="44.70808" lon="5.98064">
        <ele>1868</ele>
        <time>2021-09-20T09:41:34Z</time>
      </trkpt>
      <trkpt lat="44.70808" lon="5.98062">
        <ele>1868</ele>
        <time>2021-09-20T09:41:35Z</time>
      </trkpt>
      <trkpt lat="44.70808" lon="5.98061">
        <ele>1868</ele>
        <time>2021-09-20T09:41:36Z</time>
      </trkpt>
      <trkpt lat="44.70808" lon="5.98059">
        <ele>1869</ele>
        <time>2021-09-20T09:41:37Z</time>
      </trkpt>
      <trkpt lat="44.70808" lon="5.98058">
        <ele>1869</ele>
        <time>2021-09-20T09:41:38Z</time>
      </trkpt>
      <trkpt lat="44.70808" lon="5.98056">
        <ele>1869</ele>
        <time>2021-09-20T09:41:39Z</time>
      </trkpt>
      <trkpt lat="44.70808" lon="5.98055">
        <ele>1869</ele>
        <time>2021-09-20T09:41:40Z</time>
      </trkpt>
      <trkpt lat="44.70809" lon="5.98054">
        <ele>1869</ele>
        <time>2021-09-20T09:41:41Z</time>
      </trkpt>
      <trkpt lat="44.70809" lon="5.98053">
        <ele>1870</ele>
        <time>2021-09-20T09:41:42Z</time>
      </trkpt>
      <trkpt lat="44.70809" lon="5.98052">
        <ele>1870</ele>
        <time>2021-09-20T09:41:43Z</time>
      </trkpt>
      <trkpt lat="44.7081" lon="5.98051">
        <ele>1870</ele>
        <time>2021-09-20T09:41:44Z</time>
      </trkpt>
      <trkpt lat="44.7081" lon="5.9805">
        <ele>1870</ele>
        <time>2021-09-20T09:41:45Z</time>
      </trkpt>
      <trkpt lat="44.7081" lon="5.9805">
        <ele>1870</ele>
        <time>2021-09-20T09:41:46Z</time>
      </trkpt>
      <trkpt lat="44.70811" lon="5.98049">
        <ele>1871</ele>
        <time>2021-09-20T09:41:47Z</time>
      </trkpt>
      <trkpt lat="44.70811" lon="5.98048">
        <ele>1871</ele>
        <time>2021-09-20T09:41:48Z</time>
      </trkpt>
      <trkpt lat="44.70811" lon="5.98047">
        <ele>1871</ele>
        <time>2021-09-20T09:41:49Z</time>
      </trkpt>
      <trkpt lat="44.70811" lon="5.98047">
        <ele>1871</ele>
        <time>2021-09-20T09:41:50Z</time>
      </trkpt>
      <trkpt lat="44.70811" lon="5.98046">
        <ele>1871</ele>
        <time>2021-09-20T09:41:51Z</time>
      </trkpt>
      <trkpt lat="44.70811" lon="5.98045">
        <ele>1871</ele>
        <time>2021-09-20T09:41:52Z</time>
      </trkpt>
      <trkpt lat="44.70812" lon="5.98043">
        <ele>1871</ele>
        <time>2021-09-20T09:41:53Z</time>
      </trkpt>
      <trkpt lat="44.70812" lon="5.98042">
        <ele>1871</ele>
        <time>2021-09-20T09:41:54Z</time>
      </trkpt>
      <trkpt lat="44.70812" lon="5.9804">
        <ele>1871</ele>
        <time>2021-09-20T09:41:55Z</time>
      </trkpt>
      <trkpt lat="44.70813" lon="5.9804">
        <ele>1871</ele>
        <time>2021-09-20T09:41:56Z</time>
      </trkpt>
      <trkpt lat="44.70813" lon="5.98039">
        <ele>1872</ele>
        <time>2021-09-20T09:41:57Z</time>
      </trkpt>
      <trkpt lat="44.70814" lon="5.98038">
        <ele>1872</ele>
        <time>2021-09-20T09:41:58Z</time>
      </trkpt>
      <trkpt lat="44.70814" lon="5.98037">
        <ele>1872</ele>
        <time>2021-09-20T09:41:59Z</time>
      </trkpt>
      <trkpt lat="44.70814" lon="5.98037">
        <ele>1872</ele>
        <time>2021-09-20T09:42:00Z</time>
      </trkpt>
      <trkpt lat="44.70814" lon="5.98036">
        <ele>1872</ele>
        <time>2021-09-20T09:42:01Z</time>
      </trkpt>
      <trkpt lat="44.70815" lon="5.98035">
        <ele>1873</ele>
        <time>2021-09-20T09:42:02Z</time>
      </trkpt>
      <trkpt lat="44.70815" lon="5.98034">
        <ele>1873</ele>
        <time>2021-09-20T09:42:03Z</time>
      </trkpt>
      <trkpt lat="44.70816" lon="5.98033">
        <ele>1873</ele>
        <time>2021-09-20T09:42:04Z</time>
      </trkpt>
      <trkpt lat="44.70816" lon="5.98032">
        <ele>1873</ele>
        <time>2021-09-20T09:42:05Z</time>
      </trkpt>
      <trkpt lat="44.70817" lon="5.98031">
        <ele>1873</ele>
        <time>2021-09-20T09:42:06Z</time>
      </trkpt>
      <trkpt lat="44.70817" lon="5.98031">
        <ele>1874</ele>
        <time>2021-09-20T09:42:07Z</time>
      </trkpt>
      <trkpt lat="44.70818" lon="5.98031">
        <ele>1874</ele>
        <time>2021-09-20T09:42:08Z</time>
      </trkpt>
      <trkpt lat="44.70819" lon="5.9803">
        <ele>1874</ele>
        <time>2021-09-20T09:42:09Z</time>
      </trkpt>
      <trkpt lat="44.70819" lon="5.9803">
        <ele>1874</ele>
        <time>2021-09-20T09:42:10Z</time>
      </trkpt>
      <trkpt lat="44.70819" lon="5.9803">
        <ele>1874</ele>
        <time>2021-09-20T09:42:11Z</time>
      </trkpt>
      <trkpt lat="44.70819" lon="5.9803">
        <ele>1875</ele>
        <time>2021-09-20T09:42:12Z</time>
      </trkpt>
      <trkpt lat="44.70819" lon="5.9803">
        <ele>1875</ele>
        <time>2021-09-20T09:42:13Z</time>
      </trkpt>
      <trkpt lat="44.7082" lon="5.9803">
        <ele>1875</ele>
        <time>2021-09-20T09:42:14Z</time>
      </trkpt>
      <trkpt lat="44.7082" lon="5.9803">
        <ele>1875</ele>
        <time>2021-09-20T09:42:15Z</time>
      </trkpt>
      <trkpt lat="44.70821" lon="5.9803">
        <ele>1875</ele>
        <time>2021-09-20T09:42:16Z</time>
      </trkpt>
      <trkpt lat="44.70821" lon="5.98031">
        <ele>1876</ele>
        <time>2021-09-20T09:42:17Z</time>
      </trkpt>
      <trkpt lat="44.70821" lon="5.98031">
        <ele>1876</ele>
        <time>2021-09-20T09:42:18Z</time>
      </trkpt>
      <trkpt lat="44.70821" lon="5.98031">
        <ele>1876</ele>
        <time>2021-09-20T09:42:19Z</time>
      </trkpt>
      <trkpt lat="44.70821" lon="5.9803">
        <ele>1876</ele>
        <time>2021-09-20T09:42:20Z</time>
      </trkpt>
      <trkpt lat="44.70821" lon="5.9803">
        <ele>1876</ele>
        <time>2021-09-20T09:42:21Z</time>
      </trkpt>
      <trkpt lat="44.70821" lon="5.9803">
        <ele>1876</ele>
        <time>2021-09-20T09:42:22Z</time>
      </trkpt>
      <trkpt lat="44.70821" lon="5.9803">
        <ele>1876</ele>
        <time>2021-09-20T09:42:23Z</time>
      </trkpt>
      <trkpt lat="44.70821" lon="5.98029">
        <ele>1876</ele>
        <time>2021-09-20T09:42:24Z</time>
      </trkpt>
      <trkpt lat="44.70821" lon="5.98029">
        <ele>1876</ele>
        <time>2021-09-20T09:42:25Z</time>
      </trkpt>
      <trkpt lat="44.70821" lon="5.98031">
        <ele>1877</ele>
        <time>2021-09-20T09:43:24Z</time>
      </trkpt>
      <trkpt lat="44.70821" lon="5.98032">
        <ele>1877</ele>
        <time>2021-09-20T09:43:25Z</time>
      </trkpt>
      <trkpt lat="44.70821" lon="5.98033">
        <ele>1877</ele>
        <time>2021-09-20T09:43:26Z</time>
      </trkpt>
      <trkpt lat="44.70821" lon="5.98032">
        <ele>1876</ele>
        <time>2021-09-20T09:43:59Z</time>
      </trkpt>
      <trkpt lat="44.70822" lon="5.98032">
        <ele>1876</ele>
        <time>2021-09-20T09:44:00Z</time>
      </trkpt>
      <trkpt lat="44.70822" lon="5.98032">
        <ele>1876</ele>
        <time>2021-09-20T09:44:01Z</time>
      </trkpt>
      <trkpt lat="44.70822" lon="5.98032">
        <ele>1876</ele>
        <time>2021-09-20T09:44:02Z</time>
      </trkpt>
      <trkpt lat="44.70822" lon="5.98032">
        <ele>1876</ele>
        <time>2021-09-20T09:44:03Z</time>
      </trkpt>
      <trkpt lat="44.70823" lon="5.98034">
        <ele>1875</ele>
        <time>2021-09-20T09:44:28Z</time>
      </trkpt>
      <trkpt lat="44.70823" lon="5.98034">
        <ele>1875</ele>
        <time>2021-09-20T09:44:29Z</time>
      </trkpt>
      <trkpt lat="44.70823" lon="5.98034">
        <ele>1875</ele>
        <time>2021-09-20T09:44:30Z</time>
      </trkpt>
      <trkpt lat="44.70823" lon="5.98036">
        <ele>1875</ele>
        <time>2021-09-20T09:44:48Z</time>
      </trkpt>
      <trkpt lat="44.70823" lon="5.98037">
        <ele>1875</ele>
        <time>2021-09-20T09:44:49Z</time>
      </trkpt>
      <trkpt lat="44.70823" lon="5.98037">
        <ele>1875</ele>
        <time>2021-09-20T09:44:50Z</time>
      </trkpt>
      <trkpt lat="44.70823" lon="5.98037">
        <ele>1875</ele>
        <time>2021-09-20T09:44:51Z</time>
      </trkpt>
      <trkpt lat="44.70823" lon="5.98037">
        <ele>1875</ele>
        <time>2021-09-20T09:44:52Z</time>
      </trkpt>
      <trkpt lat="44.70823" lon="5.98037">
        <ele>1875</ele>
        <time>2021-09-20T09:44:53Z</time>
      </trkpt>
      <trkpt lat="44.70823" lon="5.98037">
        <ele>1875</ele>
        <time>2021-09-20T09:44:54Z</time>
      </trkpt>
      <trkpt lat="44.70824" lon="5.98037">
        <ele>1875</ele>
        <time>2021-09-20T09:44:55Z</time>
      </trkpt>
      <trkpt lat="44.70823" lon="5.98037">
        <ele>1875</ele>
        <time>2021-09-20T09:44:56Z</time>
      </trkpt>
      <trkpt lat="44.70823" lon="5.98037">
        <ele>1875</ele>
        <time>2021-09-20T09:44:57Z</time>
      </trkpt>
      <trkpt lat="44.70823" lon="5.98037">
        <ele>1875</ele>
        <time>2021-09-20T09:44:58Z</time>
      </trkpt>
      <trkpt lat="44.70822" lon="5.98038">
        <ele>1875</ele>
        <time>2021-09-20T09:44:59Z</time>
      </trkpt>
      <trkpt lat="44.70822" lon="5.98038">
        <ele>1875</ele>
        <time>2021-09-20T09:45:00Z</time>
      </trkpt>
      <trkpt lat="44.70822" lon="5.98038">
        <ele>1875</ele>
        <time>2021-09-20T09:45:01Z</time>
      </trkpt>
      <trkpt lat="44.70822" lon="5.98038">
        <ele>1875</ele>
        <time>2021-09-20T09:45:02Z</time>
      </trkpt>
      <trkpt lat="44.70822" lon="5.98038">
        <ele>1875</ele>
        <time>2021-09-20T09:45:03Z</time>
      </trkpt>
      <trkpt lat="44.70822" lon="5.98039">
        <ele>1875</ele>
        <time>2021-09-20T09:45:04Z</time>
      </trkpt>
      <trkpt lat="44.70822" lon="5.98038">
        <ele>1875</ele>
        <time>2021-09-20T09:45:19Z</time>
      </trkpt>
      <trkpt lat="44.70822" lon="5.98038">
        <ele>1875</ele>
        <time>2021-09-20T09:45:20Z</time>
      </trkpt>
      <trkpt lat="44.70822" lon="5.98038">
        <ele>1875</ele>
        <time>2021-09-20T09:45:21Z</time>
      </trkpt>
      <trkpt lat="44.70821" lon="5.98037">
        <ele>1875</ele>
        <time>2021-09-20T09:45:46Z</time>
      </trkpt>
      <trkpt lat="44.70821" lon="5.98037">
        <ele>1875</ele>
        <time>2021-09-20T09:45:47Z</time>
      </trkpt>
      <trkpt lat="44.70821" lon="5.98037">
        <ele>1875</ele>
        <time>2021-09-20T09:45:48Z</time>
      </trkpt>
      <trkpt lat="44.70821" lon="5.98037">
        <ele>1875</ele>
        <time>2021-09-20T09:45:49Z</time>
      </trkpt>
      <trkpt lat="44.70822" lon="5.98038">
        <ele>1875</ele>
        <time>2021-09-20T09:45:50Z</time>
      </trkpt>
      <trkpt lat="44.70822" lon="5.98038">
        <ele>1875</ele>
        <time>2021-09-20T09:45:51Z</time>
      </trkpt>
      <trkpt lat="44.70822" lon="5.98038">
        <ele>1875</ele>
        <time>2021-09-20T09:45:52Z</time>
      </trkpt>
      <trkpt lat="44.70823" lon="5.98039">
        <ele>1875</ele>
        <time>2021-09-20T09:45:53Z</time>
      </trkpt>
      <trkpt lat="44.70823" lon="5.98039">
        <ele>1875</ele>
        <time>2021-09-20T09:45:54Z</time>
      </trkpt>
      <trkpt lat="44.70823" lon="5.98039">
        <ele>1875</ele>
        <time>2021-09-20T09:46:06Z</time>
      </trkpt>
      <trkpt lat="44.70824" lon="5.98039">
        <ele>1875</ele>
        <time>2021-09-20T09:46:07Z</time>
      </trkpt>
      <trkpt lat="44.70824" lon="5.9804">
        <ele>1875</ele>
        <time>2021-09-20T09:46:08Z</time>
      </trkpt>
      <trkpt lat="44.70824" lon="5.9804">
        <ele>1875</ele>
        <time>2021-09-20T09:46:09Z</time>
      </trkpt>
      <trkpt lat="44.70824" lon="5.98041">
        <ele>1875</ele>
        <time>2021-09-20T09:46:10Z</time>
      </trkpt>
      <trkpt lat="44.70824" lon="5.98041">
        <ele>1875</ele>
        <time>2021-09-20T09:46:11Z</time>
      </trkpt>
      <trkpt lat="44.70825" lon="5.98042">
        <ele>1875</ele>
        <time>2021-09-20T09:46:12Z</time>
      </trkpt>
      <trkpt lat="44.70825" lon="5.98041">
        <ele>1875</ele>
        <time>2021-09-20T09:46:13Z</time>
      </trkpt>
      <trkpt lat="44.70824" lon="5.9804">
        <ele>1875</ele>
        <time>2021-09-20T09:46:14Z</time>
      </trkpt>
      <trkpt lat="44.70823" lon="5.98036">
        <ele>1876</ele>
        <time>2021-09-20T09:46:25Z</time>
      </trkpt>
      <trkpt lat="44.70823" lon="5.98035">
        <ele>1876</ele>
        <time>2021-09-20T09:46:26Z</time>
      </trkpt>
      <trkpt lat="44.70822" lon="5.98034">
        <ele>1876</ele>
        <time>2021-09-20T09:46:27Z</time>
      </trkpt>
      <trkpt lat="44.70821" lon="5.98033">
        <ele>1876</ele>
        <time>2021-09-20T09:46:43Z</time>
      </trkpt>
      <trkpt lat="44.70821" lon="5.98033">
        <ele>1876</ele>
        <time>2021-09-20T09:46:44Z</time>
      </trkpt>
      <trkpt lat="44.7082" lon="5.98033">
        <ele>1876</ele>
        <time>2021-09-20T09:46:45Z</time>
      </trkpt>
      <trkpt lat="44.7082" lon="5.98033">
        <ele>1876</ele>
        <time>2021-09-20T09:46:46Z</time>
      </trkpt>
      <trkpt lat="44.70819" lon="5.98033">
        <ele>1876</ele>
        <time>2021-09-20T09:46:47Z</time>
      </trkpt>
      <trkpt lat="44.70819" lon="5.98032">
        <ele>1875</ele>
        <time>2021-09-20T09:47:21Z</time>
      </trkpt>
      <trkpt lat="44.70819" lon="5.98032">
        <ele>1875</ele>
        <time>2021-09-20T09:47:22Z</time>
      </trkpt>
      <trkpt lat="44.7082" lon="5.98031">
        <ele>1875</ele>
        <time>2021-09-20T09:47:23Z</time>
      </trkpt>
      <trkpt lat="44.70821" lon="5.9803">
        <ele>1876</ele>
        <time>2021-09-20T09:47:43Z</time>
      </trkpt>
      <trkpt lat="44.70821" lon="5.9803">
        <ele>1876</ele>
        <time>2021-09-20T09:47:44Z</time>
      </trkpt>
      <trkpt lat="44.70822" lon="5.9803">
        <ele>1876</ele>
        <time>2021-09-20T09:47:45Z</time>
      </trkpt>
      <trkpt lat="44.70822" lon="5.9803">
        <ele>1876</ele>
        <time>2021-09-20T09:47:46Z</time>
      </trkpt>
      <trkpt lat="44.70822" lon="5.9803">
        <ele>1876</ele>
        <time>2021-09-20T09:47:47Z</time>
      </trkpt>
      <trkpt lat="44.70822" lon="5.9803">
        <ele>1876</ele>
        <time>2021-09-20T09:47:48Z</time>
      </trkpt>
      <trkpt lat="44.70821" lon="5.9803">
        <ele>1876</ele>
        <time>2021-09-20T09:47:49Z</time>
      </trkpt>
      <trkpt lat="44.70821" lon="5.9803">
        <ele>1876</ele>
        <time>2021-09-20T09:47:50Z</time>
      </trkpt>
      <trkpt lat="44.70821" lon="5.9803">
        <ele>1876</ele>
        <time>2021-09-20T09:47:51Z</time>
      </trkpt>
      <trkpt lat="44.70821" lon="5.9803">
        <ele>1876</ele>
        <time>2021-09-20T09:47:52Z</time>
      </trkpt>
      <trkpt lat="44.70822" lon="5.9803">
        <ele>1876</ele>
        <time>2021-09-20T09:47:53Z</time>
      </trkpt>
      <trkpt lat="44.70822" lon="5.98029">
        <ele>1876</ele>
        <time>2021-09-20T09:47:54Z</time>
      </trkpt>
      <trkpt lat="44.70822" lon="5.98029">
        <ele>1876</ele>
        <time>2021-09-20T09:47:55Z</time>
      </trkpt>
      <trkpt lat="44.70823" lon="5.98029">
        <ele>1876</ele>
        <time>2021-09-20T09:47:56Z</time>
      </trkpt>
      <trkpt lat="44.70823" lon="5.98028">
        <ele>1876</ele>
        <time>2021-09-20T09:47:57Z</time>
      </trkpt>
      <trkpt lat="44.70824" lon="5.98027">
        <ele>1876</ele>
        <time>2021-09-20T09:47:58Z</time>
      </trkpt>
      <trkpt lat="44.70824" lon="5.98026">
        <ele>1876</ele>
        <time>2021-09-20T09:47:59Z</time>
      </trkpt>
      <trkpt lat="44.70825" lon="5.98026">
        <ele>1876</ele>
        <time>2021-09-20T09:48:00Z</time>
      </trkpt>
      <trkpt lat="44.70825" lon="5.98025">
        <ele>1876</ele>
        <time>2021-09-20T09:48:01Z</time>
      </trkpt>
      <trkpt lat="44.70826" lon="5.98024">
        <ele>1876</ele>
        <time>2021-09-20T09:48:02Z</time>
      </trkpt>
      <trkpt lat="44.70826" lon="5.98023">
        <ele>1876</ele>
        <time>2021-09-20T09:48:03Z</time>
      </trkpt>
      <trkpt lat="44.70826" lon="5.98022">
        <ele>1876</ele>
        <time>2021-09-20T09:48:04Z</time>
      </trkpt>
      <trkpt lat="44.70827" lon="5.98022">
        <ele>1876</ele>
        <time>2021-09-20T09:48:05Z</time>
      </trkpt>
      <trkpt lat="44.70827" lon="5.98021">
        <ele>1876</ele>
        <time>2021-09-20T09:48:06Z</time>
      </trkpt>
      <trkpt lat="44.70828" lon="5.98021">
        <ele>1877</ele>
        <time>2021-09-20T09:48:07Z</time>
      </trkpt>
      <trkpt lat="44.70828" lon="5.9802">
        <ele>1877</ele>
        <time>2021-09-20T09:48:08Z</time>
      </trkpt>
      <trkpt lat="44.70828" lon="5.98019">
        <ele>1877</ele>
        <time>2021-09-20T09:48:09Z</time>
      </trkpt>
      <trkpt lat="44.70829" lon="5.98019">
        <ele>1877</ele>
        <time>2021-09-20T09:48:10Z</time>
      </trkpt>
      <trkpt lat="44.70829" lon="5.98018">
        <ele>1877</ele>
        <time>2021-09-20T09:48:11Z</time>
      </trkpt>
      <trkpt lat="44.7083" lon="5.98017">
        <ele>1877</ele>
        <time>2021-09-20T09:48:12Z</time>
      </trkpt>
      <trkpt lat="44.7083" lon="5.98017">
        <ele>1877</ele>
        <time>2021-09-20T09:48:13Z</time>
      </trkpt>
      <trkpt lat="44.70831" lon="5.98017">
        <ele>1877</ele>
        <time>2021-09-20T09:48:14Z</time>
      </trkpt>
      <trkpt lat="44.70831" lon="5.98016">
        <ele>1877</ele>
        <time>2021-09-20T09:48:15Z</time>
      </trkpt>
      <trkpt lat="44.70832" lon="5.98016">
        <ele>1877</ele>
        <time>2021-09-20T09:48:16Z</time>
      </trkpt>
      <trkpt lat="44.70832" lon="5.98015">
        <ele>1878</ele>
        <time>2021-09-20T09:48:17Z</time>
      </trkpt>
      <trkpt lat="44.70833" lon="5.98015">
        <ele>1878</ele>
        <time>2021-09-20T09:48:18Z</time>
      </trkpt>
      <trkpt lat="44.70833" lon="5.98015">
        <ele>1878</ele>
        <time>2021-09-20T09:48:19Z</time>
      </trkpt>
      <trkpt lat="44.70834" lon="5.98014">
        <ele>1878</ele>
        <time>2021-09-20T09:48:20Z</time>
      </trkpt>
      <trkpt lat="44.70835" lon="5.98014">
        <ele>1878</ele>
        <time>2021-09-20T09:48:21Z</time>
      </trkpt>
      <trkpt lat="44.70835" lon="5.98013">
        <ele>1879</ele>
        <time>2021-09-20T09:48:22Z</time>
      </trkpt>
      <trkpt lat="44.70836" lon="5.98013">
        <ele>1879</ele>
        <time>2021-09-20T09:48:23Z</time>
      </trkpt>
      <trkpt lat="44.70836" lon="5.98012">
        <ele>1879</ele>
        <time>2021-09-20T09:48:24Z</time>
      </trkpt>
      <trkpt lat="44.70837" lon="5.98011">
        <ele>1879</ele>
        <time>2021-09-20T09:48:25Z</time>
      </trkpt>
      <trkpt lat="44.70837" lon="5.98011">
        <ele>1879</ele>
        <time>2021-09-20T09:48:26Z</time>
      </trkpt>
      <trkpt lat="44.70838" lon="5.9801">
        <ele>1880</ele>
        <time>2021-09-20T09:48:27Z</time>
      </trkpt>
      <trkpt lat="44.70838" lon="5.9801">
        <ele>1880</ele>
        <time>2021-09-20T09:48:28Z</time>
      </trkpt>
      <trkpt lat="44.70839" lon="5.9801">
        <ele>1880</ele>
        <time>2021-09-20T09:48:29Z</time>
      </trkpt>
      <trkpt lat="44.7084" lon="5.9801">
        <ele>1880</ele>
        <time>2021-09-20T09:48:30Z</time>
      </trkpt>
      <trkpt lat="44.7084" lon="5.98009">
        <ele>1880</ele>
        <time>2021-09-20T09:48:31Z</time>
      </trkpt>
      <trkpt lat="44.70841" lon="5.98009">
        <ele>1881</ele>
        <time>2021-09-20T09:48:32Z</time>
      </trkpt>
      <trkpt lat="44.70841" lon="5.98009">
        <ele>1881</ele>
        <time>2021-09-20T09:48:33Z</time>
      </trkpt>
      <trkpt lat="44.70841" lon="5.98008">
        <ele>1881</ele>
        <time>2021-09-20T09:48:34Z</time>
      </trkpt>
      <trkpt lat="44.70841" lon="5.98008">
        <ele>1881</ele>
        <time>2021-09-20T09:48:35Z</time>
      </trkpt>
      <trkpt lat="44.70842" lon="5.98008">
        <ele>1881</ele>
        <time>2021-09-20T09:48:36Z</time>
      </trkpt>
      <trkpt lat="44.70842" lon="5.98007">
        <ele>1882</ele>
        <time>2021-09-20T09:48:37Z</time>
      </trkpt>
      <trkpt lat="44.70843" lon="5.98007">
        <ele>1882</ele>
        <time>2021-09-20T09:48:38Z</time>
      </trkpt>
      <trkpt lat="44.70844" lon="5.98007">
        <ele>1882</ele>
        <time>2021-09-20T09:48:39Z</time>
      </trkpt>
      <trkpt lat="44.70844" lon="5.98006">
        <ele>1882</ele>
        <time>2021-09-20T09:48:40Z</time>
      </trkpt>
      <trkpt lat="44.70845" lon="5.98006">
        <ele>1882</ele>
        <time>2021-09-20T09:48:41Z</time>
      </trkpt>
      <trkpt lat="44.70845" lon="5.98005">
        <ele>1883</ele>
        <time>2021-09-20T09:48:42Z</time>
      </trkpt>
      <trkpt lat="44.70846" lon="5.98005">
        <ele>1883</ele>
        <time>2021-09-20T09:48:43Z</time>
      </trkpt>
      <trkpt lat="44.70846" lon="5.98005">
        <ele>1883</ele>
        <time>2021-09-20T09:48:44Z</time>
      </trkpt>
      <trkpt lat="44.70847" lon="5.98005">
        <ele>1885</ele>
        <time>2021-09-20T09:48:53Z</time>
      </trkpt>
      <trkpt lat="44.70847" lon="5.98005">
        <ele>1885</ele>
        <time>2021-09-20T09:48:54Z</time>
      </trkpt>
      <trkpt lat="44.70848" lon="5.98005">
        <ele>1885</ele>
        <time>2021-09-20T09:48:55Z</time>
      </trkpt>
      <trkpt lat="44.70848" lon="5.98005">
        <ele>1885</ele>
        <time>2021-09-20T09:48:56Z</time>
      </trkpt>
      <trkpt lat="44.70849" lon="5.98004">
        <ele>1885</ele>
        <time>2021-09-20T09:48:57Z</time>
      </trkpt>
      <trkpt lat="44.70849" lon="5.98004">
        <ele>1885</ele>
        <time>2021-09-20T09:48:58Z</time>
      </trkpt>
      <trkpt lat="44.7085" lon="5.98004">
        <ele>1885</ele>
        <time>2021-09-20T09:48:59Z</time>
      </trkpt>
      <trkpt lat="44.7085" lon="5.98004">
        <ele>1885</ele>
        <time>2021-09-20T09:49:00Z</time>
      </trkpt>
      <trkpt lat="44.70851" lon="5.98003">
        <ele>1885</ele>
        <time>2021-09-20T09:49:01Z</time>
      </trkpt>
      <trkpt lat="44.70852" lon="5.98003">
        <ele>1885</ele>
        <time>2021-09-20T09:49:02Z</time>
      </trkpt>
      <trkpt lat="44.70852" lon="5.98003">
        <ele>1885</ele>
        <time>2021-09-20T09:49:03Z</time>
      </trkpt>
      <trkpt lat="44.70852" lon="5.98002">
        <ele>1885</ele>
        <time>2021-09-20T09:49:04Z</time>
      </trkpt>
      <trkpt lat="44.70853" lon="5.98002">
        <ele>1885</ele>
        <time>2021-09-20T09:49:05Z</time>
      </trkpt>
      <trkpt lat="44.70853" lon="5.98002">
        <ele>1885</ele>
        <time>2021-09-20T09:49:06Z</time>
      </trkpt>
      <trkpt lat="44.70853" lon="5.98002">
        <ele>1886</ele>
        <time>2021-09-20T09:49:07Z</time>
      </trkpt>
      <trkpt lat="44.70853" lon="5.98002">
        <ele>1886</ele>
        <time>2021-09-20T09:49:08Z</time>
      </trkpt>
      <trkpt lat="44.70854" lon="5.98001">
        <ele>1886</ele>
        <time>2021-09-20T09:49:09Z</time>
      </trkpt>
      <trkpt lat="44.70855" lon="5.98">
        <ele>1886</ele>
        <time>2021-09-20T09:49:10Z</time>
      </trkpt>
      <trkpt lat="44.70855" lon="5.98">
        <ele>1886</ele>
        <time>2021-09-20T09:49:11Z</time>
      </trkpt>
      <trkpt lat="44.70856" lon="5.97999">
        <ele>1887</ele>
        <time>2021-09-20T09:49:12Z</time>
      </trkpt>
      <trkpt lat="44.70856" lon="5.97999">
        <ele>1887</ele>
        <time>2021-09-20T09:49:13Z</time>
      </trkpt>
      <trkpt lat="44.70857" lon="5.97998">
        <ele>1887</ele>
        <time>2021-09-20T09:49:14Z</time>
      </trkpt>
      <trkpt lat="44.70857" lon="5.97998">
        <ele>1887</ele>
        <time>2021-09-20T09:49:15Z</time>
      </trkpt>
      <trkpt lat="44.70858" lon="5.97997">
        <ele>1887</ele>
        <time>2021-09-20T09:49:16Z</time>
      </trkpt>
      <trkpt lat="44.70858" lon="5.97996">
        <ele>1887</ele>
        <time>2021-09-20T09:49:17Z</time>
      </trkpt>
      <trkpt lat="44.70859" lon="5.97996">
        <ele>1887</ele>
        <time>2021-09-20T09:49:18Z</time>
      </trkpt>
      <trkpt lat="44.70859" lon="5.97995">
        <ele>1887</ele>
        <time>2021-09-20T09:49:19Z</time>
      </trkpt>
      <trkpt lat="44.7086" lon="5.97995">
        <ele>1887</ele>
        <time>2021-09-20T09:49:20Z</time>
      </trkpt>
      <trkpt lat="44.7086" lon="5.97994">
        <ele>1887</ele>
        <time>2021-09-20T09:49:21Z</time>
      </trkpt>
      <trkpt lat="44.70861" lon="5.97993">
        <ele>1888</ele>
        <time>2021-09-20T09:49:22Z</time>
      </trkpt>
      <trkpt lat="44.70861" lon="5.97993">
        <ele>1888</ele>
        <time>2021-09-20T09:49:23Z</time>
      </trkpt>
      <trkpt lat="44.70861" lon="5.97992">
        <ele>1888</ele>
        <time>2021-09-20T09:49:24Z</time>
      </trkpt>
      <trkpt lat="44.70862" lon="5.97991">
        <ele>1890</ele>
        <time>2021-09-20T09:49:50Z</time>
      </trkpt>
      <trkpt lat="44.70862" lon="5.97991">
        <ele>1890</ele>
        <time>2021-09-20T09:49:51Z</time>
      </trkpt>
      <trkpt lat="44.70863" lon="5.9799">
        <ele>1890</ele>
        <time>2021-09-20T09:49:52Z</time>
      </trkpt>
      <trkpt lat="44.70862" lon="5.97989">
        <ele>1890</ele>
        <time>2021-09-20T09:49:59Z</time>
      </trkpt>
      <trkpt lat="44.70862" lon="5.97989">
        <ele>1890</ele>
        <time>2021-09-20T09:50:00Z</time>
      </trkpt>
      <trkpt lat="44.70862" lon="5.97989">
        <ele>1890</ele>
        <time>2021-09-20T09:50:01Z</time>
      </trkpt>
      <trkpt lat="44.70862" lon="5.97989">
        <ele>1890</ele>
        <time>2021-09-20T09:50:02Z</time>
      </trkpt>
      <trkpt lat="44.70862" lon="5.97989">
        <ele>1890</ele>
        <time>2021-09-20T09:50:03Z</time>
      </trkpt>
      <trkpt lat="44.70862" lon="5.9799">
        <ele>1890</ele>
        <time>2021-09-20T09:50:04Z</time>
      </trkpt>
      <trkpt lat="44.70863" lon="5.9799">
        <ele>1890</ele>
        <time>2021-09-20T09:50:05Z</time>
      </trkpt>
      <trkpt lat="44.70863" lon="5.97991">
        <ele>1890</ele>
        <time>2021-09-20T09:50:06Z</time>
      </trkpt>
      <trkpt lat="44.70863" lon="5.97992">
        <ele>1890</ele>
        <time>2021-09-20T09:50:07Z</time>
      </trkpt>
      <trkpt lat="44.70864" lon="5.97993">
        <ele>1890</ele>
        <time>2021-09-20T09:50:08Z</time>
      </trkpt>
      <trkpt lat="44.70864" lon="5.97993">
        <ele>1890</ele>
        <time>2021-09-20T09:50:09Z</time>
      </trkpt>
      <trkpt lat="44.70864" lon="5.97995">
        <ele>1890</ele>
        <time>2021-09-20T09:50:43Z</time>
      </trkpt>
      <trkpt lat="44.70864" lon="5.97996">
        <ele>1890</ele>
        <time>2021-09-20T09:50:44Z</time>
      </trkpt>
      <trkpt lat="44.70864" lon="5.97997">
        <ele>1890</ele>
        <time>2021-09-20T09:50:45Z</time>
      </trkpt>
      <trkpt lat="44.70863" lon="5.97997">
        <ele>1890</ele>
        <time>2021-09-20T09:50:46Z</time>
      </trkpt>
      <trkpt lat="44.70863" lon="5.97997">
        <ele>1890</ele>
        <time>2021-09-20T09:50:47Z</time>
      </trkpt>
      <trkpt lat="44.70863" lon="5.97995">
        <ele>1890</ele>
        <time>2021-09-20T09:51:17Z</time>
      </trkpt>
      <trkpt lat="44.70863" lon="5.97993">
        <ele>1890</ele>
        <time>2021-09-20T09:51:18Z</time>
      </trkpt>
      <trkpt lat="44.70864" lon="5.97992">
        <ele>1890</ele>
        <time>2021-09-20T09:51:19Z</time>
      </trkpt>
      <trkpt lat="44.70864" lon="5.97991">
        <ele>1890</ele>
        <time>2021-09-20T09:51:20Z</time>
      </trkpt>
      <trkpt lat="44.70865" lon="5.97991">
        <ele>1890</ele>
        <time>2021-09-20T09:51:21Z</time>
      </trkpt>
      <trkpt lat="44.70865" lon="5.9799">
        <ele>1891</ele>
        <time>2021-09-20T09:51:22Z</time>
      </trkpt>
      <trkpt lat="44.70866" lon="5.9799">
        <ele>1891</ele>
        <time>2021-09-20T09:51:23Z</time>
      </trkpt>
      <trkpt lat="44.70866" lon="5.9799">
        <ele>1891</ele>
        <time>2021-09-20T09:51:24Z</time>
      </trkpt>
      <trkpt lat="44.70867" lon="5.97989">
        <ele>1891</ele>
        <time>2021-09-20T09:51:25Z</time>
      </trkpt>
      <trkpt lat="44.70867" lon="5.97989">
        <ele>1891</ele>
        <time>2021-09-20T09:51:26Z</time>
      </trkpt>
      <trkpt lat="44.70868" lon="5.97988">
        <ele>1891</ele>
        <time>2021-09-20T09:51:27Z</time>
      </trkpt>
      <trkpt lat="44.70869" lon="5.97988">
        <ele>1891</ele>
        <time>2021-09-20T09:51:28Z</time>
      </trkpt>
      <trkpt lat="44.70869" lon="5.97987">
        <ele>1891</ele>
        <time>2021-09-20T09:51:29Z</time>
      </trkpt>
      <trkpt lat="44.7087" lon="5.97987">
        <ele>1891</ele>
        <time>2021-09-20T09:51:30Z</time>
      </trkpt>
      <trkpt lat="44.70871" lon="5.97986">
        <ele>1891</ele>
        <time>2021-09-20T09:51:31Z</time>
      </trkpt>
      <trkpt lat="44.70871" lon="5.97986">
        <ele>1892</ele>
        <time>2021-09-20T09:51:32Z</time>
      </trkpt>
      <trkpt lat="44.70872" lon="5.97985">
        <ele>1892</ele>
        <time>2021-09-20T09:51:33Z</time>
      </trkpt>
      <trkpt lat="44.70872" lon="5.97985">
        <ele>1892</ele>
        <time>2021-09-20T09:51:34Z</time>
      </trkpt>
      <trkpt lat="44.70873" lon="5.97984">
        <ele>1892</ele>
        <time>2021-09-20T09:51:35Z</time>
      </trkpt>
      <trkpt lat="44.70874" lon="5.97984">
        <ele>1892</ele>
        <time>2021-09-20T09:51:36Z</time>
      </trkpt>
      <trkpt lat="44.70874" lon="5.97983">
        <ele>1893</ele>
        <time>2021-09-20T09:51:37Z</time>
      </trkpt>
      <trkpt lat="44.70875" lon="5.97983">
        <ele>1893</ele>
        <time>2021-09-20T09:51:38Z</time>
      </trkpt>
      <trkpt lat="44.70875" lon="5.97982">
        <ele>1893</ele>
        <time>2021-09-20T09:51:39Z</time>
      </trkpt>
      <trkpt lat="44.70876" lon="5.97982">
        <ele>1893</ele>
        <time>2021-09-20T09:51:40Z</time>
      </trkpt>
      <trkpt lat="44.70876" lon="5.97981">
        <ele>1893</ele>
        <time>2021-09-20T09:51:41Z</time>
      </trkpt>
      <trkpt lat="44.70877" lon="5.97981">
        <ele>1895</ele>
        <time>2021-09-20T09:51:50Z</time>
      </trkpt>
      <trkpt lat="44.70877" lon="5.97981">
        <ele>1895</ele>
        <time>2021-09-20T09:51:51Z</time>
      </trkpt>
      <trkpt lat="44.70878" lon="5.97981">
        <ele>1896</ele>
        <time>2021-09-20T09:51:52Z</time>
      </trkpt>
      <trkpt lat="44.70879" lon="5.97981">
        <ele>1896</ele>
        <time>2021-09-20T09:52:01Z</time>
      </trkpt>
      <trkpt lat="44.7088" lon="5.97981">
        <ele>1896</ele>
        <time>2021-09-20T09:52:02Z</time>
      </trkpt>
      <trkpt lat="44.7088" lon="5.97981">
        <ele>1896</ele>
        <time>2021-09-20T09:52:03Z</time>
      </trkpt>
      <trkpt lat="44.70881" lon="5.9798">
        <ele>1896</ele>
        <time>2021-09-20T09:52:04Z</time>
      </trkpt>
      <trkpt lat="44.70881" lon="5.97979">
        <ele>1896</ele>
        <time>2021-09-20T09:52:05Z</time>
      </trkpt>
      <trkpt lat="44.70881" lon="5.97978">
        <ele>1896</ele>
        <time>2021-09-20T09:52:06Z</time>
      </trkpt>
      <trkpt lat="44.70882" lon="5.97977">
        <ele>1896</ele>
        <time>2021-09-20T09:52:07Z</time>
      </trkpt>
      <trkpt lat="44.70882" lon="5.97977">
        <ele>1896</ele>
        <time>2021-09-20T09:52:08Z</time>
      </trkpt>
      <trkpt lat="44.70883" lon="5.97977">
        <ele>1896</ele>
        <time>2021-09-20T09:52:09Z</time>
      </trkpt>
      <trkpt lat="44.70883" lon="5.97976">
        <ele>1896</ele>
        <time>2021-09-20T09:52:10Z</time>
      </trkpt>
      <trkpt lat="44.70884" lon="5.97976">
        <ele>1896</ele>
        <time>2021-09-20T09:52:11Z</time>
      </trkpt>
      <trkpt lat="44.70885" lon="5.97976">
        <ele>1896</ele>
        <time>2021-09-20T09:52:12Z</time>
      </trkpt>
      <trkpt lat="44.70885" lon="5.97976">
        <ele>1896</ele>
        <time>2021-09-20T09:52:13Z</time>
      </trkpt>
      <trkpt lat="44.70885" lon="5.97975">
        <ele>1896</ele>
        <time>2021-09-20T09:52:14Z</time>
      </trkpt>
      <trkpt lat="44.70886" lon="5.97975">
        <ele>1896</ele>
        <time>2021-09-20T09:52:15Z</time>
      </trkpt>
      <trkpt lat="44.70886" lon="5.97974">
        <ele>1896</ele>
        <time>2021-09-20T09:52:16Z</time>
      </trkpt>
      <trkpt lat="44.70886" lon="5.97973">
        <ele>1897</ele>
        <time>2021-09-20T09:52:17Z</time>
      </trkpt>
      <trkpt lat="44.70886" lon="5.97972">
        <ele>1897</ele>
        <time>2021-09-20T09:52:18Z</time>
      </trkpt>
      <trkpt lat="44.70887" lon="5.97971">
        <ele>1897</ele>
        <time>2021-09-20T09:52:19Z</time>
      </trkpt>
      <trkpt lat="44.70887" lon="5.97971">
        <ele>1897</ele>
        <time>2021-09-20T09:52:20Z</time>
      </trkpt>
      <trkpt lat="44.70887" lon="5.9797">
        <ele>1897</ele>
        <time>2021-09-20T09:52:21Z</time>
      </trkpt>
      <trkpt lat="44.70888" lon="5.97969">
        <ele>1898</ele>
        <time>2021-09-20T09:52:22Z</time>
      </trkpt>
      <trkpt lat="44.70888" lon="5.97968">
        <ele>1898</ele>
        <time>2021-09-20T09:52:23Z</time>
      </trkpt>
      <trkpt lat="44.70888" lon="5.97968">
        <ele>1898</ele>
        <time>2021-09-20T09:52:24Z</time>
      </trkpt>
      <trkpt lat="44.70889" lon="5.97967">
        <ele>1898</ele>
        <time>2021-09-20T09:52:25Z</time>
      </trkpt>
      <trkpt lat="44.70889" lon="5.97967">
        <ele>1898</ele>
        <time>2021-09-20T09:52:26Z</time>
      </trkpt>
      <trkpt lat="44.70892" lon="5.97966">
        <ele>1901</ele>
        <time>2021-09-20T09:52:41Z</time>
      </trkpt>
      <trkpt lat="44.70894" lon="5.97965">
        <ele>1902</ele>
        <time>2021-09-20T09:52:42Z</time>
      </trkpt>
      <trkpt lat="44.70895" lon="5.97964">
        <ele>1902</ele>
        <time>2021-09-20T09:52:43Z</time>
      </trkpt>
      <trkpt lat="44.70897" lon="5.97962">
        <ele>1904</ele>
        <time>2021-09-20T09:52:58Z</time>
      </trkpt>
      <trkpt lat="44.70897" lon="5.97961">
        <ele>1904</ele>
        <time>2021-09-20T09:52:59Z</time>
      </trkpt>
      <trkpt lat="44.70898" lon="5.97961">
        <ele>1904</ele>
        <time>2021-09-20T09:53:00Z</time>
      </trkpt>
      <trkpt lat="44.70897" lon="5.97961">
        <ele>1904</ele>
        <time>2021-09-20T09:53:01Z</time>
      </trkpt>
      <trkpt lat="44.70897" lon="5.97961">
        <ele>1905</ele>
        <time>2021-09-20T09:53:02Z</time>
      </trkpt>
      <trkpt lat="44.70897" lon="5.97961">
        <ele>1905</ele>
        <time>2021-09-20T09:53:03Z</time>
      </trkpt>
      <trkpt lat="44.70897" lon="5.97962">
        <ele>1905</ele>
        <time>2021-09-20T09:53:04Z</time>
      </trkpt>
      <trkpt lat="44.70896" lon="5.97962">
        <ele>1905</ele>
        <time>2021-09-20T09:53:05Z</time>
      </trkpt>
      <trkpt lat="44.70896" lon="5.97962">
        <ele>1905</ele>
        <time>2021-09-20T09:53:06Z</time>
      </trkpt>
      <trkpt lat="44.70895" lon="5.97962">
        <ele>1905</ele>
        <time>2021-09-20T09:53:07Z</time>
      </trkpt>
      <trkpt lat="44.70896" lon="5.97962">
        <ele>1905</ele>
        <time>2021-09-20T09:53:08Z</time>
      </trkpt>
      <trkpt lat="44.70896" lon="5.97962">
        <ele>1905</ele>
        <time>2021-09-20T09:53:09Z</time>
      </trkpt>
      <trkpt lat="44.70896" lon="5.97962">
        <ele>1905</ele>
        <time>2021-09-20T09:53:10Z</time>
      </trkpt>
      <trkpt lat="44.70897" lon="5.97962">
        <ele>1905</ele>
        <time>2021-09-20T09:53:11Z</time>
      </trkpt>
      <trkpt lat="44.70897" lon="5.97961">
        <ele>1905</ele>
        <time>2021-09-20T09:53:12Z</time>
      </trkpt>
      <trkpt lat="44.70898" lon="5.97961">
        <ele>1905</ele>
        <time>2021-09-20T09:53:13Z</time>
      </trkpt>
      <trkpt lat="44.70898" lon="5.9796">
        <ele>1905</ele>
        <time>2021-09-20T09:53:14Z</time>
      </trkpt>
      <trkpt lat="44.70899" lon="5.9796">
        <ele>1905</ele>
        <time>2021-09-20T09:53:15Z</time>
      </trkpt>
      <trkpt lat="44.70899" lon="5.97959">
        <ele>1905</ele>
        <time>2021-09-20T09:53:16Z</time>
      </trkpt>
      <trkpt lat="44.709" lon="5.97959">
        <ele>1906</ele>
        <time>2021-09-20T09:53:17Z</time>
      </trkpt>
      <trkpt lat="44.70901" lon="5.97958">
        <ele>1906</ele>
        <time>2021-09-20T09:53:18Z</time>
      </trkpt>
      <trkpt lat="44.70901" lon="5.97958">
        <ele>1906</ele>
        <time>2021-09-20T09:53:19Z</time>
      </trkpt>
      <trkpt lat="44.70901" lon="5.97957">
        <ele>1906</ele>
        <time>2021-09-20T09:53:20Z</time>
      </trkpt>
      <trkpt lat="44.70902" lon="5.97957">
        <ele>1906</ele>
        <time>2021-09-20T09:53:21Z</time>
      </trkpt>
      <trkpt lat="44.70902" lon="5.97956">
        <ele>1906</ele>
        <time>2021-09-20T09:53:22Z</time>
      </trkpt>
      <trkpt lat="44.70903" lon="5.97955">
        <ele>1906</ele>
        <time>2021-09-20T09:53:23Z</time>
      </trkpt>
      <trkpt lat="44.70904" lon="5.97954">
        <ele>1906</ele>
        <time>2021-09-20T09:53:24Z</time>
      </trkpt>
      <trkpt lat="44.70904" lon="5.97954">
        <ele>1906</ele>
        <time>2021-09-20T09:53:25Z</time>
      </trkpt>
      <trkpt lat="44.70905" lon="5.97954">
        <ele>1906</ele>
        <time>2021-09-20T09:53:26Z</time>
      </trkpt>
      <trkpt lat="44.70906" lon="5.97953">
        <ele>1907</ele>
        <time>2021-09-20T09:53:27Z</time>
      </trkpt>
      <trkpt lat="44.70907" lon="5.97953">
        <ele>1907</ele>
        <time>2021-09-20T09:53:28Z</time>
      </trkpt>
      <trkpt lat="44.70908" lon="5.97953">
        <ele>1907</ele>
        <time>2021-09-20T09:53:29Z</time>
      </trkpt>
      <trkpt lat="44.70908" lon="5.97953">
        <ele>1907</ele>
        <time>2021-09-20T09:53:30Z</time>
      </trkpt>
      <trkpt lat="44.70909" lon="5.97953">
        <ele>1907</ele>
        <time>2021-09-20T09:53:31Z</time>
      </trkpt>
      <trkpt lat="44.7091" lon="5.97953">
        <ele>1908</ele>
        <time>2021-09-20T09:53:32Z</time>
      </trkpt>
      <trkpt lat="44.7091" lon="5.97953">
        <ele>1908</ele>
        <time>2021-09-20T09:53:33Z</time>
      </trkpt>
      <trkpt lat="44.70911" lon="5.97952">
        <ele>1908</ele>
        <time>2021-09-20T09:53:34Z</time>
      </trkpt>
      <trkpt lat="44.70911" lon="5.97951">
        <ele>1908</ele>
        <time>2021-09-20T09:53:35Z</time>
      </trkpt>
      <trkpt lat="44.70911" lon="5.97951">
        <ele>1908</ele>
        <time>2021-09-20T09:53:36Z</time>
      </trkpt>
      <trkpt lat="44.70912" lon="5.9795">
        <ele>1909</ele>
        <time>2021-09-20T09:53:37Z</time>
      </trkpt>
      <trkpt lat="44.70914" lon="5.97948">
        <ele>1910</ele>
        <time>2021-09-20T09:53:43Z</time>
      </trkpt>
      <trkpt lat="44.70915" lon="5.97948">
        <ele>1910</ele>
        <time>2021-09-20T09:53:44Z</time>
      </trkpt>
      <trkpt lat="44.70915" lon="5.97947">
        <ele>1910</ele>
        <time>2021-09-20T09:53:45Z</time>
      </trkpt>
      <trkpt lat="44.70916" lon="5.97947">
        <ele>1910</ele>
        <time>2021-09-20T09:53:46Z</time>
      </trkpt>
      <trkpt lat="44.70917" lon="5.97947">
        <ele>1911</ele>
        <time>2021-09-20T09:53:47Z</time>
      </trkpt>
      <trkpt lat="44.70918" lon="5.97946">
        <ele>1911</ele>
        <time>2021-09-20T09:53:48Z</time>
      </trkpt>
      <trkpt lat="44.70919" lon="5.97946">
        <ele>1911</ele>
        <time>2021-09-20T09:53:49Z</time>
      </trkpt>
      <trkpt lat="44.70919" lon="5.97945">
        <ele>1911</ele>
        <time>2021-09-20T09:53:50Z</time>
      </trkpt>
      <trkpt lat="44.7092" lon="5.97945">
        <ele>1911</ele>
        <time>2021-09-20T09:53:51Z</time>
      </trkpt>
      <trkpt lat="44.7092" lon="5.97944">
        <ele>1912</ele>
        <time>2021-09-20T09:53:52Z</time>
      </trkpt>
      <trkpt lat="44.70921" lon="5.97944">
        <ele>1912</ele>
        <time>2021-09-20T09:53:53Z</time>
      </trkpt>
      <trkpt lat="44.70921" lon="5.97944">
        <ele>1912</ele>
        <time>2021-09-20T09:53:54Z</time>
      </trkpt>
      <trkpt lat="44.70921" lon="5.97944">
        <ele>1912</ele>
        <time>2021-09-20T09:53:55Z</time>
      </trkpt>
      <trkpt lat="44.70922" lon="5.97944">
        <ele>1912</ele>
        <time>2021-09-20T09:53:56Z</time>
      </trkpt>
      <trkpt lat="44.70922" lon="5.97944">
        <ele>1913</ele>
        <time>2021-09-20T09:53:57Z</time>
      </trkpt>
      <trkpt lat="44.70922" lon="5.97944">
        <ele>1913</ele>
        <time>2021-09-20T09:53:58Z</time>
      </trkpt>
      <trkpt lat="44.70922" lon="5.97944">
        <ele>1913</ele>
        <time>2021-09-20T09:53:59Z</time>
      </trkpt>
      <trkpt lat="44.70923" lon="5.97944">
        <ele>1913</ele>
        <time>2021-09-20T09:54:00Z</time>
      </trkpt>
      <trkpt lat="44.70923" lon="5.97944">
        <ele>1913</ele>
        <time>2021-09-20T09:54:01Z</time>
      </trkpt>
      <trkpt lat="44.70923" lon="5.97944">
        <ele>1914</ele>
        <time>2021-09-20T09:54:02Z</time>
      </trkpt>
      <trkpt lat="44.70923" lon="5.97944">
        <ele>1914</ele>
        <time>2021-09-20T09:54:03Z</time>
      </trkpt>
      <trkpt lat="44.70923" lon="5.97943">
        <ele>1914</ele>
        <time>2021-09-20T09:54:04Z</time>
      </trkpt>
      <trkpt lat="44.70923" lon="5.97943">
        <ele>1914</ele>
        <time>2021-09-20T09:54:05Z</time>
      </trkpt>
      <trkpt lat="44.70923" lon="5.97943">
        <ele>1914</ele>
        <time>2021-09-20T09:54:06Z</time>
      </trkpt>
      <trkpt lat="44.70923" lon="5.97943">
        <ele>1915</ele>
        <time>2021-09-20T09:54:07Z</time>
      </trkpt>
      <trkpt lat="44.70923" lon="5.97942">
        <ele>1915</ele>
        <time>2021-09-20T09:54:08Z</time>
      </trkpt>
      <trkpt lat="44.70924" lon="5.97941">
        <ele>1916</ele>
        <time>2021-09-20T09:54:17Z</time>
      </trkpt>
      <trkpt lat="44.70925" lon="5.9794">
        <ele>1916</ele>
        <time>2021-09-20T09:54:18Z</time>
      </trkpt>
      <trkpt lat="44.70926" lon="5.9794">
        <ele>1916</ele>
        <time>2021-09-20T09:54:19Z</time>
      </trkpt>
      <trkpt lat="44.70927" lon="5.97939">
        <ele>1916</ele>
        <time>2021-09-20T09:54:20Z</time>
      </trkpt>
      <trkpt lat="44.70927" lon="5.97939">
        <ele>1916</ele>
        <time>2021-09-20T09:54:21Z</time>
      </trkpt>
      <trkpt lat="44.70928" lon="5.97939">
        <ele>1916</ele>
        <time>2021-09-20T09:54:22Z</time>
      </trkpt>
      <trkpt lat="44.70929" lon="5.97939">
        <ele>1916</ele>
        <time>2021-09-20T09:54:23Z</time>
      </trkpt>
      <trkpt lat="44.7093" lon="5.97939">
        <ele>1916</ele>
        <time>2021-09-20T09:54:24Z</time>
      </trkpt>
      <trkpt lat="44.70931" lon="5.97939">
        <ele>1916</ele>
        <time>2021-09-20T09:54:25Z</time>
      </trkpt>
      <trkpt lat="44.70932" lon="5.97939">
        <ele>1916</ele>
        <time>2021-09-20T09:54:26Z</time>
      </trkpt>
      <trkpt lat="44.70933" lon="5.97939">
        <ele>1917</ele>
        <time>2021-09-20T09:54:27Z</time>
      </trkpt>
      <trkpt lat="44.70934" lon="5.97939">
        <ele>1917</ele>
        <time>2021-09-20T09:54:28Z</time>
      </trkpt>
      <trkpt lat="44.70934" lon="5.97939">
        <ele>1917</ele>
        <time>2021-09-20T09:54:29Z</time>
      </trkpt>
      <trkpt lat="44.70935" lon="5.97938">
        <ele>1917</ele>
        <time>2021-09-20T09:54:30Z</time>
      </trkpt>
      <trkpt lat="44.70935" lon="5.97938">
        <ele>1917</ele>
        <time>2021-09-20T09:54:31Z</time>
      </trkpt>
      <trkpt lat="44.70936" lon="5.97937">
        <ele>1918</ele>
        <time>2021-09-20T09:54:32Z</time>
      </trkpt>
      <trkpt lat="44.70936" lon="5.97937">
        <ele>1918</ele>
        <time>2021-09-20T09:54:33Z</time>
      </trkpt>
      <trkpt lat="44.70936" lon="5.97937">
        <ele>1918</ele>
        <time>2021-09-20T09:54:34Z</time>
      </trkpt>
      <trkpt lat="44.70936" lon="5.97937">
        <ele>1918</ele>
        <time>2021-09-20T09:54:35Z</time>
      </trkpt>
      <trkpt lat="44.70937" lon="5.97938">
        <ele>1918</ele>
        <time>2021-09-20T09:54:36Z</time>
      </trkpt>
      <trkpt lat="44.70937" lon="5.97937">
        <ele>1919</ele>
        <time>2021-09-20T09:54:37Z</time>
      </trkpt>
      <trkpt lat="44.70938" lon="5.97937">
        <ele>1919</ele>
        <time>2021-09-20T09:54:38Z</time>
      </trkpt>
      <trkpt lat="44.7094" lon="5.97935">
        <ele>1921</ele>
        <time>2021-09-20T09:54:47Z</time>
      </trkpt>
      <trkpt lat="44.70941" lon="5.97934">
        <ele>1921</ele>
        <time>2021-09-20T09:54:48Z</time>
      </trkpt>
      <trkpt lat="44.70942" lon="5.97933">
        <ele>1921</ele>
        <time>2021-09-20T09:54:49Z</time>
      </trkpt>
      <trkpt lat="44.70943" lon="5.97932">
        <ele>1921</ele>
        <time>2021-09-20T09:54:50Z</time>
      </trkpt>
      <trkpt lat="44.70944" lon="5.97932">
        <ele>1921</ele>
        <time>2021-09-20T09:54:51Z</time>
      </trkpt>
      <trkpt lat="44.70945" lon="5.97932">
        <ele>1922</ele>
        <time>2021-09-20T09:54:52Z</time>
      </trkpt>
      <trkpt lat="44.70945" lon="5.97932">
        <ele>1922</ele>
        <time>2021-09-20T09:54:53Z</time>
      </trkpt>
      <trkpt lat="44.70946" lon="5.97931">
        <ele>1922</ele>
        <time>2021-09-20T09:54:54Z</time>
      </trkpt>
      <trkpt lat="44.70948" lon="5.9793">
        <ele>1925</ele>
        <time>2021-09-20T09:55:07Z</time>
      </trkpt>
      <trkpt lat="44.70949" lon="5.97928">
        <ele>1925</ele>
        <time>2021-09-20T09:55:08Z</time>
      </trkpt>
      <trkpt lat="44.70951" lon="5.97927">
        <ele>1925</ele>
        <time>2021-09-20T09:55:09Z</time>
      </trkpt>
      <trkpt lat="44.70951" lon="5.97927">
        <ele>1925</ele>
        <time>2021-09-20T09:55:10Z</time>
      </trkpt>
      <trkpt lat="44.70952" lon="5.97926">
        <ele>1925</ele>
        <time>2021-09-20T09:55:11Z</time>
      </trkpt>
      <trkpt lat="44.70953" lon="5.97925">
        <ele>1925</ele>
        <time>2021-09-20T09:55:12Z</time>
      </trkpt>
      <trkpt lat="44.70954" lon="5.97925">
        <ele>1925</ele>
        <time>2021-09-20T09:55:13Z</time>
      </trkpt>
      <trkpt lat="44.70954" lon="5.97925">
        <ele>1925</ele>
        <time>2021-09-20T09:55:14Z</time>
      </trkpt>
      <trkpt lat="44.70955" lon="5.97925">
        <ele>1925</ele>
        <time>2021-09-20T09:55:15Z</time>
      </trkpt>
      <trkpt lat="44.70956" lon="5.97924">
        <ele>1928</ele>
        <time>2021-09-20T09:55:31Z</time>
      </trkpt>
      <trkpt lat="44.70957" lon="5.97924">
        <ele>1928</ele>
        <time>2021-09-20T09:55:32Z</time>
      </trkpt>
      <trkpt lat="44.70958" lon="5.97924">
        <ele>1928</ele>
        <time>2021-09-20T09:55:33Z</time>
      </trkpt>
      <trkpt lat="44.70958" lon="5.97925">
        <ele>1928</ele>
        <time>2021-09-20T09:55:34Z</time>
      </trkpt>
      <trkpt lat="44.70959" lon="5.97926">
        <ele>1928</ele>
        <time>2021-09-20T09:55:35Z</time>
      </trkpt>
      <trkpt lat="44.7096" lon="5.97927">
        <ele>1928</ele>
        <time>2021-09-20T09:55:44Z</time>
      </trkpt>
      <trkpt lat="44.7096" lon="5.97927">
        <ele>1928</ele>
        <time>2021-09-20T09:55:45Z</time>
      </trkpt>
      <trkpt lat="44.70961" lon="5.97927">
        <ele>1928</ele>
        <time>2021-09-20T09:55:46Z</time>
      </trkpt>
      <trkpt lat="44.70961" lon="5.97927">
        <ele>1928</ele>
        <time>2021-09-20T09:55:47Z</time>
      </trkpt>
      <trkpt lat="44.70962" lon="5.97927">
        <ele>1928</ele>
        <time>2021-09-20T09:55:48Z</time>
      </trkpt>
      <trkpt lat="44.70962" lon="5.97926">
        <ele>1928</ele>
        <time>2021-09-20T09:55:49Z</time>
      </trkpt>
      <trkpt lat="44.70963" lon="5.97926">
        <ele>1928</ele>
        <time>2021-09-20T09:55:50Z</time>
      </trkpt>
      <trkpt lat="44.70963" lon="5.97925">
        <ele>1928</ele>
        <time>2021-09-20T09:55:51Z</time>
      </trkpt>
      <trkpt lat="44.70963" lon="5.97924">
        <ele>1928</ele>
        <time>2021-09-20T09:55:52Z</time>
      </trkpt>
      <trkpt lat="44.70964" lon="5.97924">
        <ele>1928</ele>
        <time>2021-09-20T09:55:53Z</time>
      </trkpt>
      <trkpt lat="44.70964" lon="5.97924">
        <ele>1928</ele>
        <time>2021-09-20T09:55:54Z</time>
      </trkpt>
      <trkpt lat="44.70965" lon="5.97924">
        <ele>1928</ele>
        <time>2021-09-20T09:55:55Z</time>
      </trkpt>
      <trkpt lat="44.70965" lon="5.97923">
        <ele>1928</ele>
        <time>2021-09-20T09:55:56Z</time>
      </trkpt>
      <trkpt lat="44.70966" lon="5.97923">
        <ele>1929</ele>
        <time>2021-09-20T09:55:57Z</time>
      </trkpt>
      <trkpt lat="44.70966" lon="5.97923">
        <ele>1929</ele>
        <time>2021-09-20T09:55:58Z</time>
      </trkpt>
      <trkpt lat="44.70967" lon="5.97922">
        <ele>1929</ele>
        <time>2021-09-20T09:55:59Z</time>
      </trkpt>
      <trkpt lat="44.70968" lon="5.97922">
        <ele>1929</ele>
        <time>2021-09-20T09:56:00Z</time>
      </trkpt>
      <trkpt lat="44.70968" lon="5.97921">
        <ele>1929</ele>
        <time>2021-09-20T09:56:01Z</time>
      </trkpt>
      <trkpt lat="44.70968" lon="5.97921">
        <ele>1930</ele>
        <time>2021-09-20T09:56:02Z</time>
      </trkpt>
      <trkpt lat="44.70969" lon="5.9792">
        <ele>1930</ele>
        <time>2021-09-20T09:56:03Z</time>
      </trkpt>
      <trkpt lat="44.70969" lon="5.9792">
        <ele>1930</ele>
        <time>2021-09-20T09:56:04Z</time>
      </trkpt>
      <trkpt lat="44.7097" lon="5.97919">
        <ele>1930</ele>
        <time>2021-09-20T09:56:05Z</time>
      </trkpt>
      <trkpt lat="44.7097" lon="5.97919">
        <ele>1930</ele>
        <time>2021-09-20T09:56:06Z</time>
      </trkpt>
      <trkpt lat="44.7097" lon="5.97918">
        <ele>1931</ele>
        <time>2021-09-20T09:56:07Z</time>
      </trkpt>
      <trkpt lat="44.7097" lon="5.97918">
        <ele>1931</ele>
        <time>2021-09-20T09:56:08Z</time>
      </trkpt>
      <trkpt lat="44.70971" lon="5.97917">
        <ele>1931</ele>
        <time>2021-09-20T09:56:09Z</time>
      </trkpt>
      <trkpt lat="44.70971" lon="5.97916">
        <ele>1931</ele>
        <time>2021-09-20T09:56:10Z</time>
      </trkpt>
      <trkpt lat="44.70971" lon="5.97916">
        <ele>1931</ele>
        <time>2021-09-20T09:56:11Z</time>
      </trkpt>
      <trkpt lat="44.70972" lon="5.97916">
        <ele>1932</ele>
        <time>2021-09-20T09:56:12Z</time>
      </trkpt>
      <trkpt lat="44.70972" lon="5.97916">
        <ele>1932</ele>
        <time>2021-09-20T09:56:13Z</time>
      </trkpt>
      <trkpt lat="44.70973" lon="5.97916">
        <ele>1932</ele>
        <time>2021-09-20T09:56:14Z</time>
      </trkpt>
      <trkpt lat="44.70973" lon="5.97916">
        <ele>1932</ele>
        <time>2021-09-20T09:56:15Z</time>
      </trkpt>
      <trkpt lat="44.70974" lon="5.97916">
        <ele>1932</ele>
        <time>2021-09-20T09:56:16Z</time>
      </trkpt>
      <trkpt lat="44.70975" lon="5.97917">
        <ele>1933</ele>
        <time>2021-09-20T09:56:17Z</time>
      </trkpt>
      <trkpt lat="44.70975" lon="5.97917">
        <ele>1933</ele>
        <time>2021-09-20T09:56:18Z</time>
      </trkpt>
      <trkpt lat="44.70975" lon="5.97917">
        <ele>1933</ele>
        <time>2021-09-20T09:56:19Z</time>
      </trkpt>
      <trkpt lat="44.70975" lon="5.97917">
        <ele>1933</ele>
        <time>2021-09-20T09:56:20Z</time>
      </trkpt>
      <trkpt lat="44.70976" lon="5.97917">
        <ele>1933</ele>
        <time>2021-09-20T09:56:21Z</time>
      </trkpt>
      <trkpt lat="44.70976" lon="5.97917">
        <ele>1934</ele>
        <time>2021-09-20T09:56:22Z</time>
      </trkpt>
      <trkpt lat="44.70976" lon="5.97917">
        <ele>1934</ele>
        <time>2021-09-20T09:56:23Z</time>
      </trkpt>
      <trkpt lat="44.70976" lon="5.97916">
        <ele>1934</ele>
        <time>2021-09-20T09:56:24Z</time>
      </trkpt>
      <trkpt lat="44.70976" lon="5.97916">
        <ele>1934</ele>
        <time>2021-09-20T09:56:25Z</time>
      </trkpt>
      <trkpt lat="44.70977" lon="5.97915">
        <ele>1934</ele>
        <time>2021-09-20T09:56:26Z</time>
      </trkpt>
      <trkpt lat="44.70977" lon="5.97915">
        <ele>1935</ele>
        <time>2021-09-20T09:56:27Z</time>
      </trkpt>
      <trkpt lat="44.70978" lon="5.97915">
        <ele>1935</ele>
        <time>2021-09-20T09:56:28Z</time>
      </trkpt>
      <trkpt lat="44.70979" lon="5.97914">
        <ele>1935</ele>
        <time>2021-09-20T09:56:29Z</time>
      </trkpt>
      <trkpt lat="44.7098" lon="5.97914">
        <ele>1936</ele>
        <time>2021-09-20T09:56:38Z</time>
      </trkpt>
      <trkpt lat="44.70981" lon="5.97913">
        <ele>1936</ele>
        <time>2021-09-20T09:56:39Z</time>
      </trkpt>
      <trkpt lat="44.70982" lon="5.97912">
        <ele>1936</ele>
        <time>2021-09-20T09:56:40Z</time>
      </trkpt>
      <trkpt lat="44.70982" lon="5.97912">
        <ele>1936</ele>
        <time>2021-09-20T09:56:41Z</time>
      </trkpt>
      <trkpt lat="44.70982" lon="5.97912">
        <ele>1937</ele>
        <time>2021-09-20T09:56:42Z</time>
      </trkpt>
      <trkpt lat="44.70983" lon="5.97912">
        <ele>1937</ele>
        <time>2021-09-20T09:56:43Z</time>
      </trkpt>
      <trkpt lat="44.70983" lon="5.97912">
        <ele>1937</ele>
        <time>2021-09-20T09:56:44Z</time>
      </trkpt>
      <trkpt lat="44.70983" lon="5.97912">
        <ele>1937</ele>
        <time>2021-09-20T09:56:45Z</time>
      </trkpt>
      <trkpt lat="44.70984" lon="5.97912">
        <ele>1937</ele>
        <time>2021-09-20T09:56:46Z</time>
      </trkpt>
      <trkpt lat="44.70984" lon="5.97912">
        <ele>1938</ele>
        <time>2021-09-20T09:56:47Z</time>
      </trkpt>
      <trkpt lat="44.70987" lon="5.97914">
        <ele>1941</ele>
        <time>2021-09-20T09:57:02Z</time>
      </trkpt>
      <trkpt lat="44.70988" lon="5.97915">
        <ele>1941</ele>
        <time>2021-09-20T09:57:03Z</time>
      </trkpt>
      <trkpt lat="44.70989" lon="5.97915">
        <ele>1941</ele>
        <time>2021-09-20T09:57:04Z</time>
      </trkpt>
      <trkpt lat="44.7099" lon="5.97915">
        <ele>1941</ele>
        <time>2021-09-20T09:57:05Z</time>
      </trkpt>
      <trkpt lat="44.7099" lon="5.97915">
        <ele>1941</ele>
        <time>2021-09-20T09:57:06Z</time>
      </trkpt>
      <trkpt lat="44.70991" lon="5.97916">
        <ele>1942</ele>
        <time>2021-09-20T09:57:07Z</time>
      </trkpt>
      <trkpt lat="44.70992" lon="5.97917">
        <ele>1943</ele>
        <time>2021-09-20T09:57:16Z</time>
      </trkpt>
      <trkpt lat="44.70993" lon="5.97919">
        <ele>1944</ele>
        <time>2021-09-20T09:57:17Z</time>
      </trkpt>
      <trkpt lat="44.70993" lon="5.9792">
        <ele>1944</ele>
        <time>2021-09-20T09:57:18Z</time>
      </trkpt>
      <trkpt lat="44.70994" lon="5.97921">
        <ele>1944</ele>
        <time>2021-09-20T09:57:19Z</time>
      </trkpt>
      <trkpt lat="44.70994" lon="5.97922">
        <ele>1944</ele>
        <time>2021-09-20T09:57:20Z</time>
      </trkpt>
      <trkpt lat="44.70994" lon="5.97922">
        <ele>1944</ele>
        <time>2021-09-20T09:57:21Z</time>
      </trkpt>
      <trkpt lat="44.70995" lon="5.97923">
        <ele>1945</ele>
        <time>2021-09-20T09:57:22Z</time>
      </trkpt>
      <trkpt lat="44.70995" lon="5.97923">
        <ele>1945</ele>
        <time>2021-09-20T09:57:23Z</time>
      </trkpt>
      <trkpt lat="44.70995" lon="5.97923">
        <ele>1945</ele>
        <time>2021-09-20T09:57:24Z</time>
      </trkpt>
      <trkpt lat="44.70996" lon="5.97924">
        <ele>1945</ele>
        <time>2021-09-20T09:57:25Z</time>
      </trkpt>
      <trkpt lat="44.70996" lon="5.97925">
        <ele>1945</ele>
        <time>2021-09-20T09:57:26Z</time>
      </trkpt>
      <trkpt lat="44.70997" lon="5.97926">
        <ele>1946</ele>
        <time>2021-09-20T09:57:27Z</time>
      </trkpt>
      <trkpt lat="44.70997" lon="5.97926">
        <ele>1946</ele>
        <time>2021-09-20T09:57:28Z</time>
      </trkpt>
      <trkpt lat="44.70999" lon="5.97928">
        <ele>1948</ele>
        <time>2021-09-20T09:57:44Z</time>
      </trkpt>
      <trkpt lat="44.70999" lon="5.97929">
        <ele>1948</ele>
        <time>2021-09-20T09:57:45Z</time>
      </trkpt>
      <trkpt lat="44.71" lon="5.9793">
        <ele>1948</ele>
        <time>2021-09-20T09:57:46Z</time>
      </trkpt>
      <trkpt lat="44.71" lon="5.97931">
        <ele>1948</ele>
        <time>2021-09-20T09:57:47Z</time>
      </trkpt>
      <trkpt lat="44.71001" lon="5.97932">
        <ele>1948</ele>
        <time>2021-09-20T09:57:48Z</time>
      </trkpt>
      <trkpt lat="44.71002" lon="5.97932">
        <ele>1948</ele>
        <time>2021-09-20T09:57:49Z</time>
      </trkpt>
      <trkpt lat="44.71002" lon="5.97933">
        <ele>1948</ele>
        <time>2021-09-20T09:57:50Z</time>
      </trkpt>
      <trkpt lat="44.71002" lon="5.97933">
        <ele>1948</ele>
        <time>2021-09-20T09:57:51Z</time>
      </trkpt>
      <trkpt lat="44.71002" lon="5.97933">
        <ele>1948</ele>
        <time>2021-09-20T09:57:52Z</time>
      </trkpt>
      <trkpt lat="44.71003" lon="5.97934">
        <ele>1948</ele>
        <time>2021-09-20T09:57:53Z</time>
      </trkpt>
      <trkpt lat="44.71003" lon="5.97934">
        <ele>1948</ele>
        <time>2021-09-20T09:57:54Z</time>
      </trkpt>
      <trkpt lat="44.71006" lon="5.97937">
        <ele>1952</ele>
        <time>2021-09-20T09:58:13Z</time>
      </trkpt>
      <trkpt lat="44.71007" lon="5.97939">
        <ele>1952</ele>
        <time>2021-09-20T09:58:14Z</time>
      </trkpt>
      <trkpt lat="44.71008" lon="5.9794">
        <ele>1952</ele>
        <time>2021-09-20T09:58:15Z</time>
      </trkpt>
      <trkpt lat="44.71009" lon="5.97941">
        <ele>1952</ele>
        <time>2021-09-20T09:58:16Z</time>
      </trkpt>
      <trkpt lat="44.7101" lon="5.97942">
        <ele>1953</ele>
        <time>2021-09-20T09:58:17Z</time>
      </trkpt>
      <trkpt lat="44.7101" lon="5.97943">
        <ele>1953</ele>
        <time>2021-09-20T09:58:18Z</time>
      </trkpt>
      <trkpt lat="44.71011" lon="5.97943">
        <ele>1953</ele>
        <time>2021-09-20T09:58:19Z</time>
      </trkpt>
      <trkpt lat="44.71011" lon="5.97943">
        <ele>1953</ele>
        <time>2021-09-20T09:58:20Z</time>
      </trkpt>
      <trkpt lat="44.71011" lon="5.97944">
        <ele>1953</ele>
        <time>2021-09-20T09:58:21Z</time>
      </trkpt>
      <trkpt lat="44.71012" lon="5.97945">
        <ele>1954</ele>
        <time>2021-09-20T09:58:22Z</time>
      </trkpt>
      <trkpt lat="44.71012" lon="5.97946">
        <ele>1954</ele>
        <time>2021-09-20T09:58:23Z</time>
      </trkpt>
      <trkpt lat="44.71013" lon="5.97946">
        <ele>1954</ele>
        <time>2021-09-20T09:58:24Z</time>
      </trkpt>
      <trkpt lat="44.71013" lon="5.97947">
        <ele>1954</ele>
        <time>2021-09-20T09:58:25Z</time>
      </trkpt>
      <trkpt lat="44.71013" lon="5.97948">
        <ele>1954</ele>
        <time>2021-09-20T09:58:26Z</time>
      </trkpt>
      <trkpt lat="44.71014" lon="5.97948">
        <ele>1955</ele>
        <time>2021-09-20T09:58:27Z</time>
      </trkpt>
      <trkpt lat="44.71014" lon="5.97948">
        <ele>1955</ele>
        <time>2021-09-20T09:58:28Z</time>
      </trkpt>
      <trkpt lat="44.71016" lon="5.97949">
        <ele>1958</ele>
        <time>2021-09-20T09:58:42Z</time>
      </trkpt>
      <trkpt lat="44.71017" lon="5.9795">
        <ele>1958</ele>
        <time>2021-09-20T09:58:43Z</time>
      </trkpt>
      <trkpt lat="44.71018" lon="5.9795">
        <ele>1958</ele>
        <time>2021-09-20T09:58:44Z</time>
      </trkpt>
      <trkpt lat="44.7102" lon="5.97951">
        <ele>1962</ele>
        <time>2021-09-20T09:59:04Z</time>
      </trkpt>
      <trkpt lat="44.71021" lon="5.97952">
        <ele>1962</ele>
        <time>2021-09-20T09:59:05Z</time>
      </trkpt>
      <trkpt lat="44.71022" lon="5.97952">
        <ele>1962</ele>
        <time>2021-09-20T09:59:06Z</time>
      </trkpt>
      <trkpt lat="44.71023" lon="5.97953">
        <ele>1963</ele>
        <time>2021-09-20T09:59:07Z</time>
      </trkpt>
      <trkpt lat="44.71024" lon="5.97953">
        <ele>1963</ele>
        <time>2021-09-20T09:59:08Z</time>
      </trkpt>
      <trkpt lat="44.71024" lon="5.97953">
        <ele>1963</ele>
        <time>2021-09-20T09:59:09Z</time>
      </trkpt>
      <trkpt lat="44.71025" lon="5.97953">
        <ele>1963</ele>
        <time>2021-09-20T09:59:10Z</time>
      </trkpt>
      <trkpt lat="44.71025" lon="5.97953">
        <ele>1963</ele>
        <time>2021-09-20T09:59:11Z</time>
      </trkpt>
      <trkpt lat="44.71025" lon="5.97954">
        <ele>1964</ele>
        <time>2021-09-20T09:59:12Z</time>
      </trkpt>
      <trkpt lat="44.71026" lon="5.97954">
        <ele>1964</ele>
        <time>2021-09-20T09:59:13Z</time>
      </trkpt>
      <trkpt lat="44.71026" lon="5.97955">
        <ele>1964</ele>
        <time>2021-09-20T09:59:14Z</time>
      </trkpt>
      <trkpt lat="44.71026" lon="5.97955">
        <ele>1964</ele>
        <time>2021-09-20T09:59:15Z</time>
      </trkpt>
      <trkpt lat="44.71027" lon="5.97955">
        <ele>1964</ele>
        <time>2021-09-20T09:59:16Z</time>
      </trkpt>
      <trkpt lat="44.71027" lon="5.97955">
        <ele>1964</ele>
        <time>2021-09-20T09:59:17Z</time>
      </trkpt>
      <trkpt lat="44.71027" lon="5.97956">
        <ele>1964</ele>
        <time>2021-09-20T09:59:18Z</time>
      </trkpt>
      <trkpt lat="44.71028" lon="5.97956">
        <ele>1964</ele>
        <time>2021-09-20T09:59:19Z</time>
      </trkpt>
      <trkpt lat="44.71028" lon="5.97956">
        <ele>1965</ele>
        <time>2021-09-20T09:59:20Z</time>
      </trkpt>
      <trkpt lat="44.7103" lon="5.97956">
        <ele>1969</ele>
        <time>2021-09-20T09:59:57Z</time>
      </trkpt>
      <trkpt lat="44.71031" lon="5.97955">
        <ele>1969</ele>
        <time>2021-09-20T09:59:58Z</time>
      </trkpt>
      <trkpt lat="44.71032" lon="5.97955">
        <ele>1969</ele>
        <time>2021-09-20T09:59:59Z</time>
      </trkpt>
      <trkpt lat="44.71032" lon="5.97955">
        <ele>1969</ele>
        <time>2021-09-20T10:00:00Z</time>
      </trkpt>
      <trkpt lat="44.71032" lon="5.97955">
        <ele>1969</ele>
        <time>2021-09-20T10:00:01Z</time>
      </trkpt>
      <trkpt lat="44.71033" lon="5.97955">
        <ele>1969</ele>
        <time>2021-09-20T10:00:02Z</time>
      </trkpt>
      <trkpt lat="44.71032" lon="5.97957">
        <ele>1971</ele>
        <time>2021-09-20T10:01:11Z</time>
      </trkpt>
      <trkpt lat="44.71031" lon="5.97959">
        <ele>1971</ele>
        <time>2021-09-20T10:01:12Z</time>
      </trkpt>
      <trkpt lat="44.71031" lon="5.9796">
        <ele>1971</ele>
        <time>2021-09-20T10:01:13Z</time>
      </trkpt>
      <trkpt lat="44.71031" lon="5.97961">
        <ele>1971</ele>
        <time>2021-09-20T10:01:14Z</time>
      </trkpt>
      <trkpt lat="44.71031" lon="5.97962">
        <ele>1971</ele>
        <time>2021-09-20T10:01:15Z</time>
      </trkpt>
      <trkpt lat="44.71031" lon="5.97963">
        <ele>1971</ele>
        <time>2021-09-20T10:01:16Z</time>
      </trkpt>
      <trkpt lat="44.71031" lon="5.97964">
        <ele>1971</ele>
        <time>2021-09-20T10:01:17Z</time>
      </trkpt>
      <trkpt lat="44.71031" lon="5.97965">
        <ele>1971</ele>
        <time>2021-09-20T10:01:18Z</time>
      </trkpt>
      <trkpt lat="44.71031" lon="5.97967">
        <ele>1971</ele>
        <time>2021-09-20T10:01:19Z</time>
      </trkpt>
      <trkpt lat="44.71031" lon="5.97967">
        <ele>1971</ele>
        <time>2021-09-20T10:01:20Z</time>
      </trkpt>
      <trkpt lat="44.7103" lon="5.97968">
        <ele>1971</ele>
        <time>2021-09-20T10:01:21Z</time>
      </trkpt>
      <trkpt lat="44.71029" lon="5.97968">
        <ele>1970</ele>
        <time>2021-09-20T10:01:47Z</time>
      </trkpt>
      <trkpt lat="44.71029" lon="5.97968">
        <ele>1970</ele>
        <time>2021-09-20T10:01:48Z</time>
      </trkpt>
      <trkpt lat="44.71028" lon="5.97968">
        <ele>1970</ele>
        <time>2021-09-20T10:01:49Z</time>
      </trkpt>
      <trkpt lat="44.71028" lon="5.97968">
        <ele>1970</ele>
        <time>2021-09-20T10:01:50Z</time>
      </trkpt>
      <trkpt lat="44.71028" lon="5.97969">
        <ele>1970</ele>
        <time>2021-09-20T10:01:51Z</time>
      </trkpt>
      <trkpt lat="44.71028" lon="5.97969">
        <ele>1970</ele>
        <time>2021-09-20T10:01:52Z</time>
      </trkpt>
      <trkpt lat="44.71028" lon="5.97969">
        <ele>1970</ele>
        <time>2021-09-20T10:01:53Z</time>
      </trkpt>
      <trkpt lat="44.71027" lon="5.97969">
        <ele>1970</ele>
        <time>2021-09-20T10:01:54Z</time>
      </trkpt>
      <trkpt lat="44.71027" lon="5.9797">
        <ele>1970</ele>
        <time>2021-09-20T10:01:55Z</time>
      </trkpt>
      <trkpt lat="44.71027" lon="5.97969">
        <ele>1970</ele>
        <time>2021-09-20T10:01:56Z</time>
      </trkpt>
      <trkpt lat="44.71027" lon="5.97969">
        <ele>1970</ele>
        <time>2021-09-20T10:01:57Z</time>
      </trkpt>
      <trkpt lat="44.71028" lon="5.97968">
        <ele>1970</ele>
        <time>2021-09-20T10:01:58Z</time>
      </trkpt>
      <trkpt lat="44.71028" lon="5.97967">
        <ele>1970</ele>
        <time>2021-09-20T10:01:59Z</time>
      </trkpt>
      <trkpt lat="44.71029" lon="5.97967">
        <ele>1970</ele>
        <time>2021-09-20T10:02:00Z</time>
      </trkpt>
      <trkpt lat="44.7103" lon="5.97966">
        <ele>1970</ele>
        <time>2021-09-20T10:02:01Z</time>
      </trkpt>
      <trkpt lat="44.7103" lon="5.97966">
        <ele>1970</ele>
        <time>2021-09-20T10:02:02Z</time>
      </trkpt>
      <trkpt lat="44.7103" lon="5.97965">
        <ele>1970</ele>
        <time>2021-09-20T10:02:03Z</time>
      </trkpt>
      <trkpt lat="44.71031" lon="5.97964">
        <ele>1970</ele>
        <time>2021-09-20T10:02:04Z</time>
      </trkpt>
      <trkpt lat="44.71031" lon="5.97963">
        <ele>1970</ele>
        <time>2021-09-20T10:02:05Z</time>
      </trkpt>
      <trkpt lat="44.71031" lon="5.97963">
        <ele>1970</ele>
        <time>2021-09-20T10:02:06Z</time>
      </trkpt>
      <trkpt lat="44.71031" lon="5.97961">
        <ele>1970</ele>
        <time>2021-09-20T10:02:53Z</time>
      </trkpt>
      <trkpt lat="44.71032" lon="5.9796">
        <ele>1970</ele>
        <time>2021-09-20T10:02:54Z</time>
      </trkpt>
      <trkpt lat="44.71032" lon="5.9796">
        <ele>1970</ele>
        <time>2021-09-20T10:02:55Z</time>
      </trkpt>
      <trkpt lat="44.71032" lon="5.97959">
        <ele>1970</ele>
        <time>2021-09-20T10:02:56Z</time>
      </trkpt>
      <trkpt lat="44.71032" lon="5.97958">
        <ele>1970</ele>
        <time>2021-09-20T10:02:57Z</time>
      </trkpt>
      <trkpt lat="44.71032" lon="5.97957">
        <ele>1970</ele>
        <time>2021-09-20T10:02:58Z</time>
      </trkpt>
      <trkpt lat="44.71032" lon="5.97956">
        <ele>1970</ele>
        <time>2021-09-20T10:02:59Z</time>
      </trkpt>
      <trkpt lat="44.71032" lon="5.97954">
        <ele>1970</ele>
        <time>2021-09-20T10:03:00Z</time>
      </trkpt>
      <trkpt lat="44.71032" lon="5.97953">
        <ele>1970</ele>
        <time>2021-09-20T10:03:01Z</time>
      </trkpt>
      <trkpt lat="44.71032" lon="5.97951">
        <ele>1970</ele>
        <time>2021-09-20T10:03:02Z</time>
      </trkpt>
      <trkpt lat="44.71032" lon="5.97949">
        <ele>1969</ele>
        <time>2021-09-20T10:03:03Z</time>
      </trkpt>
      <trkpt lat="44.71032" lon="5.97947">
        <ele>1969</ele>
        <time>2021-09-20T10:03:04Z</time>
      </trkpt>
      <trkpt lat="44.71032" lon="5.97945">
        <ele>1969</ele>
        <time>2021-09-20T10:03:05Z</time>
      </trkpt>
      <trkpt lat="44.71032" lon="5.97944">
        <ele>1969</ele>
        <time>2021-09-20T10:03:06Z</time>
      </trkpt>
      <trkpt lat="44.71032" lon="5.97942">
        <ele>1969</ele>
        <time>2021-09-20T10:03:07Z</time>
      </trkpt>
      <trkpt lat="44.71032" lon="5.9794">
        <ele>1969</ele>
        <time>2021-09-20T10:03:08Z</time>
      </trkpt>
      <trkpt lat="44.71032" lon="5.97939">
        <ele>1969</ele>
        <time>2021-09-20T10:03:09Z</time>
      </trkpt>
      <trkpt lat="44.71033" lon="5.97937">
        <ele>1969</ele>
        <time>2021-09-20T10:03:10Z</time>
      </trkpt>
      <trkpt lat="44.71033" lon="5.97936">
        <ele>1969</ele>
        <time>2021-09-20T10:03:11Z</time>
      </trkpt>
      <trkpt lat="44.71034" lon="5.97934">
        <ele>1969</ele>
        <time>2021-09-20T10:03:12Z</time>
      </trkpt>
      <trkpt lat="44.71034" lon="5.97933">
        <ele>1969</ele>
        <time>2021-09-20T10:03:13Z</time>
      </trkpt>
      <trkpt lat="44.71035" lon="5.97932">
        <ele>1969</ele>
        <time>2021-09-20T10:03:14Z</time>
      </trkpt>
      <trkpt lat="44.71036" lon="5.97931">
        <ele>1969</ele>
        <time>2021-09-20T10:03:15Z</time>
      </trkpt>
      <trkpt lat="44.71037" lon="5.97929">
        <ele>1968</ele>
        <time>2021-09-20T10:03:24Z</time>
      </trkpt>
      <trkpt lat="44.71037" lon="5.97929">
        <ele>1968</ele>
        <time>2021-09-20T10:03:25Z</time>
      </trkpt>
      <trkpt lat="44.71037" lon="5.97928">
        <ele>1968</ele>
        <time>2021-09-20T10:03:26Z</time>
      </trkpt>
      <trkpt lat="44.71036" lon="5.97929">
        <ele>1968</ele>
        <time>2021-09-20T10:03:27Z</time>
      </trkpt>
      <trkpt lat="44.71036" lon="5.97929">
        <ele>1968</ele>
        <time>2021-09-20T10:03:28Z</time>
      </trkpt>
      <trkpt lat="44.71036" lon="5.97929">
        <ele>1968</ele>
        <time>2021-09-20T10:03:29Z</time>
      </trkpt>
      <trkpt lat="44.71036" lon="5.9793">
        <ele>1968</ele>
        <time>2021-09-20T10:03:36Z</time>
      </trkpt>
      <trkpt lat="44.71036" lon="5.97931">
        <ele>1968</ele>
        <time>2021-09-20T10:03:37Z</time>
      </trkpt>
      <trkpt lat="44.71036" lon="5.97931">
        <ele>1968</ele>
        <time>2021-09-20T10:03:38Z</time>
      </trkpt>
      <trkpt lat="44.71036" lon="5.97933">
        <ele>1969</ele>
        <time>2021-09-20T10:04:14Z</time>
      </trkpt>
      <trkpt lat="44.71035" lon="5.97934">
        <ele>1969</ele>
        <time>2021-09-20T10:04:15Z</time>
      </trkpt>
      <trkpt lat="44.71035" lon="5.97934">
        <ele>1969</ele>
        <time>2021-09-20T10:04:16Z</time>
      </trkpt>
      <trkpt lat="44.71035" lon="5.97935">
        <ele>1969</ele>
        <time>2021-09-20T10:04:17Z</time>
      </trkpt>
      <trkpt lat="44.71034" lon="5.97936">
        <ele>1969</ele>
        <time>2021-09-20T10:04:18Z</time>
      </trkpt>
      <trkpt lat="44.71034" lon="5.97936">
        <ele>1969</ele>
        <time>2021-09-20T10:04:19Z</time>
      </trkpt>
      <trkpt lat="44.71033" lon="5.97937">
        <ele>1969</ele>
        <time>2021-09-20T10:04:20Z</time>
      </trkpt>
      <trkpt lat="44.71033" lon="5.97937">
        <ele>1969</ele>
        <time>2021-09-20T10:04:21Z</time>
      </trkpt>
      <trkpt lat="44.71032" lon="5.97938">
        <ele>1969</ele>
        <time>2021-09-20T10:04:22Z</time>
      </trkpt>
      <trkpt lat="44.71032" lon="5.97939">
        <ele>1969</ele>
        <time>2021-09-20T10:04:23Z</time>
      </trkpt>
      <trkpt lat="44.71032" lon="5.97939">
        <ele>1969</ele>
        <time>2021-09-20T10:04:24Z</time>
      </trkpt>
      <trkpt lat="44.71032" lon="5.97941">
        <ele>1969</ele>
        <time>2021-09-20T10:04:25Z</time>
      </trkpt>
      <trkpt lat="44.71032" lon="5.97942">
        <ele>1969</ele>
        <time>2021-09-20T10:04:26Z</time>
      </trkpt>
      <trkpt lat="44.71032" lon="5.97944">
        <ele>1969</ele>
        <time>2021-09-20T10:04:27Z</time>
      </trkpt>
      <trkpt lat="44.71032" lon="5.97945">
        <ele>1969</ele>
        <time>2021-09-20T10:04:28Z</time>
      </trkpt>
      <trkpt lat="44.71032" lon="5.97946">
        <ele>1969</ele>
        <time>2021-09-20T10:04:29Z</time>
      </trkpt>
      <trkpt lat="44.71032" lon="5.97948">
        <ele>1969</ele>
        <time>2021-09-20T10:04:30Z</time>
      </trkpt>
      <trkpt lat="44.71032" lon="5.97949">
        <ele>1969</ele>
        <time>2021-09-20T10:04:31Z</time>
      </trkpt>
      <trkpt lat="44.71032" lon="5.97949">
        <ele>1969</ele>
        <time>2021-09-20T10:04:32Z</time>
      </trkpt>
      <trkpt lat="44.71032" lon="5.9795">
        <ele>1969</ele>
        <time>2021-09-20T10:04:33Z</time>
      </trkpt>
      <trkpt lat="44.71032" lon="5.97951">
        <ele>1969</ele>
        <time>2021-09-20T10:04:34Z</time>
      </trkpt>
      <trkpt lat="44.71032" lon="5.97953">
        <ele>1969</ele>
        <time>2021-09-20T10:04:35Z</time>
      </trkpt>
      <trkpt lat="44.71032" lon="5.97954">
        <ele>1969</ele>
        <time>2021-09-20T10:04:36Z</time>
      </trkpt>
      <trkpt lat="44.71032" lon="5.97955">
        <ele>1969</ele>
        <time>2021-09-20T10:04:37Z</time>
      </trkpt>
      <trkpt lat="44.71033" lon="5.97955">
        <ele>1970</ele>
        <time>2021-09-20T10:05:27Z</time>
      </trkpt>
      <trkpt lat="44.71034" lon="5.97954">
        <ele>1969</ele>
        <time>2021-09-20T10:05:28Z</time>
      </trkpt>
      <trkpt lat="44.71034" lon="5.97954">
        <ele>1969</ele>
        <time>2021-09-20T10:05:29Z</time>
      </trkpt>
      <trkpt lat="44.71035" lon="5.97955">
        <ele>1969</ele>
        <time>2021-09-20T10:05:30Z</time>
      </trkpt>
      <trkpt lat="44.71035" lon="5.97955">
        <ele>1969</ele>
        <time>2021-09-20T10:05:31Z</time>
      </trkpt>
      <trkpt lat="44.71035" lon="5.97956">
        <ele>1969</ele>
        <time>2021-09-20T10:05:32Z</time>
      </trkpt>
      <trkpt lat="44.71035" lon="5.97957">
        <ele>1969</ele>
        <time>2021-09-20T10:05:33Z</time>
      </trkpt>
      <trkpt lat="44.71035" lon="5.97957">
        <ele>1969</ele>
        <time>2021-09-20T10:05:34Z</time>
      </trkpt>
      <trkpt lat="44.71035" lon="5.97958">
        <ele>1969</ele>
        <time>2021-09-20T10:05:35Z</time>
      </trkpt>
      <trkpt lat="44.71035" lon="5.97959">
        <ele>1969</ele>
        <time>2021-09-20T10:05:36Z</time>
      </trkpt>
      <trkpt lat="44.71035" lon="5.9796">
        <ele>1969</ele>
        <time>2021-09-20T10:05:37Z</time>
      </trkpt>
      <trkpt lat="44.71034" lon="5.97961">
        <ele>1969</ele>
        <time>2021-09-20T10:05:38Z</time>
      </trkpt>
      <trkpt lat="44.71034" lon="5.97962">
        <ele>1969</ele>
        <time>2021-09-20T10:05:39Z</time>
      </trkpt>
      <trkpt lat="44.71034" lon="5.97963">
        <ele>1969</ele>
        <time>2021-09-20T10:05:40Z</time>
      </trkpt>
      <trkpt lat="44.71034" lon="5.97964">
        <ele>1969</ele>
        <time>2021-09-20T10:05:41Z</time>
      </trkpt>
      <trkpt lat="44.71034" lon="5.97965">
        <ele>1969</ele>
        <time>2021-09-20T10:05:42Z</time>
      </trkpt>
      <trkpt lat="44.71034" lon="5.97965">
        <ele>1969</ele>
        <time>2021-09-20T10:05:43Z</time>
      </trkpt>
      <trkpt lat="44.71034" lon="5.97966">
        <ele>1969</ele>
        <time>2021-09-20T10:05:44Z</time>
      </trkpt>
      <trkpt lat="44.71034" lon="5.97967">
        <ele>1969</ele>
        <time>2021-09-20T10:05:45Z</time>
      </trkpt>
      <trkpt lat="44.71034" lon="5.97968">
        <ele>1969</ele>
        <time>2021-09-20T10:05:46Z</time>
      </trkpt>
      <trkpt lat="44.71035" lon="5.97971">
        <ele>1970</ele>
        <time>2021-09-20T10:05:54Z</time>
      </trkpt>
      <trkpt lat="44.71035" lon="5.97972">
        <ele>1970</ele>
        <time>2021-09-20T10:05:55Z</time>
      </trkpt>
      <trkpt lat="44.71035" lon="5.97974">
        <ele>1970</ele>
        <time>2021-09-20T10:05:56Z</time>
      </trkpt>
      <trkpt lat="44.71035" lon="5.97975">
        <ele>1970</ele>
        <time>2021-09-20T10:05:57Z</time>
      </trkpt>
      <trkpt lat="44.71035" lon="5.97976">
        <ele>1970</ele>
        <time>2021-09-20T10:05:58Z</time>
      </trkpt>
      <trkpt lat="44.71035" lon="5.97976">
        <ele>1970</ele>
        <time>2021-09-20T10:05:59Z</time>
      </trkpt>
      <trkpt lat="44.71035" lon="5.97977">
        <ele>1970</ele>
        <time>2021-09-20T10:06:00Z</time>
      </trkpt>
      <trkpt lat="44.71034" lon="5.9798">
        <ele>1972</ele>
        <time>2021-09-20T10:06:09Z</time>
      </trkpt>
      <trkpt lat="44.71033" lon="5.97981">
        <ele>1972</ele>
        <time>2021-09-20T10:06:10Z</time>
      </trkpt>
      <trkpt lat="44.71033" lon="5.97983">
        <ele>1972</ele>
        <time>2021-09-20T10:06:11Z</time>
      </trkpt>
      <trkpt lat="44.71033" lon="5.97984">
        <ele>1972</ele>
        <time>2021-09-20T10:06:12Z</time>
      </trkpt>
      <trkpt lat="44.71032" lon="5.97985">
        <ele>1972</ele>
        <time>2021-09-20T10:06:13Z</time>
      </trkpt>
      <trkpt lat="44.71032" lon="5.97987">
        <ele>1973</ele>
        <time>2021-09-20T10:06:20Z</time>
      </trkpt>
      <trkpt lat="44.71032" lon="5.97988">
        <ele>1973</ele>
        <time>2021-09-20T10:06:21Z</time>
      </trkpt>
      <trkpt lat="44.71032" lon="5.9799">
        <ele>1974</ele>
        <time>2021-09-20T10:06:22Z</time>
      </trkpt>
      <trkpt lat="44.71032" lon="5.97991">
        <ele>1974</ele>
        <time>2021-09-20T10:06:23Z</time>
      </trkpt>
      <trkpt lat="44.71032" lon="5.97992">
        <ele>1974</ele>
        <time>2021-09-20T10:06:24Z</time>
      </trkpt>
      <trkpt lat="44.71032" lon="5.97995">
        <ele>1975</ele>
        <time>2021-09-20T10:06:39Z</time>
      </trkpt>
      <trkpt lat="44.71032" lon="5.97996">
        <ele>1975</ele>
        <time>2021-09-20T10:06:40Z</time>
      </trkpt>
      <trkpt lat="44.71032" lon="5.97998">
        <ele>1975</ele>
        <time>2021-09-20T10:06:41Z</time>
      </trkpt>
      <trkpt lat="44.71032" lon="5.97999">
        <ele>1976</ele>
        <time>2021-09-20T10:06:42Z</time>
      </trkpt>
      <trkpt lat="44.71031" lon="5.98">
        <ele>1976</ele>
        <time>2021-09-20T10:06:43Z</time>
      </trkpt>
      <trkpt lat="44.7103" lon="5.98003">
        <ele>1977</ele>
        <time>2021-09-20T10:06:56Z</time>
      </trkpt>
      <trkpt lat="44.7103" lon="5.98004">
        <ele>1977</ele>
        <time>2021-09-20T10:06:57Z</time>
      </trkpt>
      <trkpt lat="44.71029" lon="5.98005">
        <ele>1977</ele>
        <time>2021-09-20T10:06:58Z</time>
      </trkpt>
      <trkpt lat="44.71029" lon="5.98006">
        <ele>1977</ele>
        <time>2021-09-20T10:06:59Z</time>
      </trkpt>
      <trkpt lat="44.71029" lon="5.98007">
        <ele>1977</ele>
        <time>2021-09-20T10:07:00Z</time>
      </trkpt>
      <trkpt lat="44.71029" lon="5.98007">
        <ele>1977</ele>
        <time>2021-09-20T10:07:01Z</time>
      </trkpt>
      <trkpt lat="44.71028" lon="5.98008">
        <ele>1977</ele>
        <time>2021-09-20T10:07:02Z</time>
      </trkpt>
      <trkpt lat="44.71028" lon="5.98009">
        <ele>1977</ele>
        <time>2021-09-20T10:07:03Z</time>
      </trkpt>
      <trkpt lat="44.71028" lon="5.98009">
        <ele>1977</ele>
        <time>2021-09-20T10:07:04Z</time>
      </trkpt>
      <trkpt lat="44.71028" lon="5.9801">
        <ele>1977</ele>
        <time>2021-09-20T10:07:05Z</time>
      </trkpt>
      <trkpt lat="44.71028" lon="5.98011">
        <ele>1977</ele>
        <time>2021-09-20T10:07:06Z</time>
      </trkpt>
      <trkpt lat="44.71027" lon="5.98013">
        <ele>1979</ele>
        <time>2021-09-20T10:07:26Z</time>
      </trkpt>
      <trkpt lat="44.71027" lon="5.98014">
        <ele>1979</ele>
        <time>2021-09-20T10:07:27Z</time>
      </trkpt>
      <trkpt lat="44.71028" lon="5.98015">
        <ele>1979</ele>
        <time>2021-09-20T10:07:28Z</time>
      </trkpt>
      <trkpt lat="44.71028" lon="5.98016">
        <ele>1979</ele>
        <time>2021-09-20T10:07:29Z</time>
      </trkpt>
      <trkpt lat="44.71028" lon="5.98016">
        <ele>1979</ele>
        <time>2021-09-20T10:07:30Z</time>
      </trkpt>
      <trkpt lat="44.71029" lon="5.98017">
        <ele>1979</ele>
        <time>2021-09-20T10:07:31Z</time>
      </trkpt>
      <trkpt lat="44.71029" lon="5.98018">
        <ele>1979</ele>
        <time>2021-09-20T10:07:32Z</time>
      </trkpt>
      <trkpt lat="44.7103" lon="5.98019">
        <ele>1979</ele>
        <time>2021-09-20T10:07:33Z</time>
      </trkpt>
      <trkpt lat="44.7103" lon="5.9802">
        <ele>1979</ele>
        <time>2021-09-20T10:07:34Z</time>
      </trkpt>
      <trkpt lat="44.7103" lon="5.9802">
        <ele>1979</ele>
        <time>2021-09-20T10:07:35Z</time>
      </trkpt>
      <trkpt lat="44.7103" lon="5.9802">
        <ele>1979</ele>
        <time>2021-09-20T10:07:36Z</time>
      </trkpt>
      <trkpt lat="44.7103" lon="5.98021">
        <ele>1980</ele>
        <time>2021-09-20T10:07:37Z</time>
      </trkpt>
      <trkpt lat="44.7103" lon="5.98021">
        <ele>1980</ele>
        <time>2021-09-20T10:07:38Z</time>
      </trkpt>
      <trkpt lat="44.7103" lon="5.98021">
        <ele>1980</ele>
        <time>2021-09-20T10:07:39Z</time>
      </trkpt>
      <trkpt lat="44.7103" lon="5.98022">
        <ele>1980</ele>
        <time>2021-09-20T10:07:40Z</time>
      </trkpt>
      <trkpt lat="44.7103" lon="5.98023">
        <ele>1980</ele>
        <time>2021-09-20T10:07:41Z</time>
      </trkpt>
      <trkpt lat="44.7103" lon="5.98024">
        <ele>1981</ele>
        <time>2021-09-20T10:07:42Z</time>
      </trkpt>
      <trkpt lat="44.7103" lon="5.98025">
        <ele>1981</ele>
        <time>2021-09-20T10:07:43Z</time>
      </trkpt>
      <trkpt lat="44.7103" lon="5.98025">
        <ele>1981</ele>
        <time>2021-09-20T10:07:44Z</time>
      </trkpt>
      <trkpt lat="44.7103" lon="5.98026">
        <ele>1981</ele>
        <time>2021-09-20T10:07:45Z</time>
      </trkpt>
      <trkpt lat="44.7103" lon="5.98026">
        <ele>1981</ele>
        <time>2021-09-20T10:07:46Z</time>
      </trkpt>
      <trkpt lat="44.7103" lon="5.98027">
        <ele>1982</ele>
        <time>2021-09-20T10:07:47Z</time>
      </trkpt>
      <trkpt lat="44.71029" lon="5.98027">
        <ele>1982</ele>
        <time>2021-09-20T10:07:48Z</time>
      </trkpt>
      <trkpt lat="44.71029" lon="5.98028">
        <ele>1982</ele>
        <time>2021-09-20T10:07:49Z</time>
      </trkpt>
      <trkpt lat="44.71029" lon="5.98028">
        <ele>1982</ele>
        <time>2021-09-20T10:07:50Z</time>
      </trkpt>
      <trkpt lat="44.71029" lon="5.98028">
        <ele>1982</ele>
        <time>2021-09-20T10:07:51Z</time>
      </trkpt>
      <trkpt lat="44.71029" lon="5.98028">
        <ele>1983</ele>
        <time>2021-09-20T10:07:52Z</time>
      </trkpt>
      <trkpt lat="44.71029" lon="5.98028">
        <ele>1983</ele>
        <time>2021-09-20T10:07:53Z</time>
      </trkpt>
      <trkpt lat="44.71029" lon="5.98029">
        <ele>1983</ele>
        <time>2021-09-20T10:07:54Z</time>
      </trkpt>
      <trkpt lat="44.71029" lon="5.98029">
        <ele>1983</ele>
        <time>2021-09-20T10:07:55Z</time>
      </trkpt>
      <trkpt lat="44.71029" lon="5.98029">
        <ele>1983</ele>
        <time>2021-09-20T10:07:56Z</time>
      </trkpt>
      <trkpt lat="44.71029" lon="5.9803">
        <ele>1983</ele>
        <time>2021-09-20T10:07:57Z</time>
      </trkpt>
      <trkpt lat="44.71029" lon="5.98031">
        <ele>1983</ele>
        <time>2021-09-20T10:07:58Z</time>
      </trkpt>
      <trkpt lat="44.71029" lon="5.98031">
        <ele>1983</ele>
        <time>2021-09-20T10:07:59Z</time>
      </trkpt>
      <trkpt lat="44.7103" lon="5.98032">
        <ele>1983</ele>
        <time>2021-09-20T10:08:00Z</time>
      </trkpt>
      <trkpt lat="44.7103" lon="5.98033">
        <ele>1983</ele>
        <time>2021-09-20T10:08:01Z</time>
      </trkpt>
      <trkpt lat="44.7103" lon="5.98034">
        <ele>1984</ele>
        <time>2021-09-20T10:08:02Z</time>
      </trkpt>
      <trkpt lat="44.7103" lon="5.98035">
        <ele>1984</ele>
        <time>2021-09-20T10:08:03Z</time>
      </trkpt>
      <trkpt lat="44.7103" lon="5.98035">
        <ele>1984</ele>
        <time>2021-09-20T10:08:04Z</time>
      </trkpt>
      <trkpt lat="44.71029" lon="5.98036">
        <ele>1984</ele>
        <time>2021-09-20T10:08:05Z</time>
      </trkpt>
      <trkpt lat="44.7103" lon="5.98037">
        <ele>1984</ele>
        <time>2021-09-20T10:08:06Z</time>
      </trkpt>
      <trkpt lat="44.7103" lon="5.98038">
        <ele>1984</ele>
        <time>2021-09-20T10:08:07Z</time>
      </trkpt>
      <trkpt lat="44.7103" lon="5.98038">
        <ele>1984</ele>
        <time>2021-09-20T10:08:08Z</time>
      </trkpt>
      <trkpt lat="44.7103" lon="5.98039">
        <ele>1984</ele>
        <time>2021-09-20T10:08:09Z</time>
      </trkpt>
      <trkpt lat="44.7103" lon="5.9804">
        <ele>1985</ele>
        <time>2021-09-20T10:08:10Z</time>
      </trkpt>
      <trkpt lat="44.7103" lon="5.98041">
        <ele>1985</ele>
        <time>2021-09-20T10:08:11Z</time>
      </trkpt>
      <trkpt lat="44.7103" lon="5.98043">
        <ele>1987</ele>
        <time>2021-09-20T10:08:20Z</time>
      </trkpt>
      <trkpt lat="44.7103" lon="5.98044">
        <ele>1987</ele>
        <time>2021-09-20T10:08:21Z</time>
      </trkpt>
      <trkpt lat="44.7103" lon="5.98045">
        <ele>1988</ele>
        <time>2021-09-20T10:08:22Z</time>
      </trkpt>
      <trkpt lat="44.7103" lon="5.98046">
        <ele>1988</ele>
        <time>2021-09-20T10:08:23Z</time>
      </trkpt>
      <trkpt lat="44.7103" lon="5.98047">
        <ele>1988</ele>
        <time>2021-09-20T10:08:24Z</time>
      </trkpt>
      <trkpt lat="44.7103" lon="5.98047">
        <ele>1988</ele>
        <time>2021-09-20T10:08:25Z</time>
      </trkpt>
      <trkpt lat="44.7103" lon="5.98048">
        <ele>1988</ele>
        <time>2021-09-20T10:08:26Z</time>
      </trkpt>
      <trkpt lat="44.7103" lon="5.98049">
        <ele>1988</ele>
        <time>2021-09-20T10:08:27Z</time>
      </trkpt>
      <trkpt lat="44.7103" lon="5.9805">
        <ele>1988</ele>
        <time>2021-09-20T10:08:28Z</time>
      </trkpt>
      <trkpt lat="44.7103" lon="5.98051">
        <ele>1988</ele>
        <time>2021-09-20T10:08:29Z</time>
      </trkpt>
      <trkpt lat="44.7103" lon="5.98051">
        <ele>1989</ele>
        <time>2021-09-20T10:08:30Z</time>
      </trkpt>
      <trkpt lat="44.7103" lon="5.98052">
        <ele>1989</ele>
        <time>2021-09-20T10:08:31Z</time>
      </trkpt>
      <trkpt lat="44.7103" lon="5.98054">
        <ele>1991</ele>
        <time>2021-09-20T10:08:38Z</time>
      </trkpt>
      <trkpt lat="44.7103" lon="5.98055">
        <ele>1991</ele>
        <time>2021-09-20T10:08:39Z</time>
      </trkpt>
      <trkpt lat="44.7103" lon="5.98056">
        <ele>1991</ele>
        <time>2021-09-20T10:08:40Z</time>
      </trkpt>
      <trkpt lat="44.71031" lon="5.98059">
        <ele>1993</ele>
        <time>2021-09-20T10:08:57Z</time>
      </trkpt>
      <trkpt lat="44.7103" lon="5.9806">
        <ele>1993</ele>
        <time>2021-09-20T10:08:58Z</time>
      </trkpt>
      <trkpt lat="44.7103" lon="5.98062">
        <ele>1993</ele>
        <time>2021-09-20T10:08:59Z</time>
      </trkpt>
      <trkpt lat="44.7103" lon="5.98063">
        <ele>1993</ele>
        <time>2021-09-20T10:09:00Z</time>
      </trkpt>
      <trkpt lat="44.71029" lon="5.98064">
        <ele>1993</ele>
        <time>2021-09-20T10:09:01Z</time>
      </trkpt>
      <trkpt lat="44.71029" lon="5.98065">
        <ele>1994</ele>
        <time>2021-09-20T10:09:02Z</time>
      </trkpt>
      <trkpt lat="44.71029" lon="5.98065">
        <ele>1994</ele>
        <time>2021-09-20T10:09:03Z</time>
      </trkpt>
      <trkpt lat="44.71029" lon="5.98066">
        <ele>1994</ele>
        <time>2021-09-20T10:09:04Z</time>
      </trkpt>
      <trkpt lat="44.71028" lon="5.98067">
        <ele>1994</ele>
        <time>2021-09-20T10:09:05Z</time>
      </trkpt>
      <trkpt lat="44.71028" lon="5.98068">
        <ele>1994</ele>
        <time>2021-09-20T10:09:06Z</time>
      </trkpt>
      <trkpt lat="44.71027" lon="5.98068">
        <ele>1994</ele>
        <time>2021-09-20T10:09:07Z</time>
      </trkpt>
      <trkpt lat="44.71027" lon="5.98069">
        <ele>1994</ele>
        <time>2021-09-20T10:09:08Z</time>
      </trkpt>
      <trkpt lat="44.71027" lon="5.9807">
        <ele>1994</ele>
        <time>2021-09-20T10:09:09Z</time>
      </trkpt>
      <trkpt lat="44.71026" lon="5.98071">
        <ele>1994</ele>
        <time>2021-09-20T10:09:10Z</time>
      </trkpt>
      <trkpt lat="44.71026" lon="5.98072">
        <ele>1994</ele>
        <time>2021-09-20T10:09:11Z</time>
      </trkpt>
      <trkpt lat="44.71026" lon="5.98072">
        <ele>1995</ele>
        <time>2021-09-20T10:09:12Z</time>
      </trkpt>
      <trkpt lat="44.71026" lon="5.98073">
        <ele>1995</ele>
        <time>2021-09-20T10:09:13Z</time>
      </trkpt>
      <trkpt lat="44.71025" lon="5.98074">
        <ele>1995</ele>
        <time>2021-09-20T10:09:14Z</time>
      </trkpt>
      <trkpt lat="44.71025" lon="5.98075">
        <ele>1995</ele>
        <time>2021-09-20T10:09:15Z</time>
      </trkpt>
      <trkpt lat="44.71024" lon="5.98078">
        <ele>1997</ele>
        <time>2021-09-20T10:09:28Z</time>
      </trkpt>
      <trkpt lat="44.71024" lon="5.9808">
        <ele>1997</ele>
        <time>2021-09-20T10:09:29Z</time>
      </trkpt>
      <trkpt lat="44.71023" lon="5.98081">
        <ele>1997</ele>
        <time>2021-09-20T10:09:30Z</time>
      </trkpt>
      <trkpt lat="44.71022" lon="5.98084">
        <ele>2000</ele>
        <time>2021-09-20T10:10:30Z</time>
      </trkpt>
      <trkpt lat="44.71022" lon="5.98085">
        <ele>2000</ele>
        <time>2021-09-20T10:10:31Z</time>
      </trkpt>
      <trkpt lat="44.71021" lon="5.98087">
        <ele>2000</ele>
        <time>2021-09-20T10:10:32Z</time>
      </trkpt>
      <trkpt lat="44.71021" lon="5.98087">
        <ele>2000</ele>
        <time>2021-09-20T10:10:33Z</time>
      </trkpt>
      <trkpt lat="44.71021" lon="5.98088">
        <ele>2000</ele>
        <time>2021-09-20T10:10:34Z</time>
      </trkpt>
      <trkpt lat="44.7102" lon="5.98089">
        <ele>2000</ele>
        <time>2021-09-20T10:10:35Z</time>
      </trkpt>
      <trkpt lat="44.7102" lon="5.9809">
        <ele>2000</ele>
        <time>2021-09-20T10:10:36Z</time>
      </trkpt>
      <trkpt lat="44.7102" lon="5.98091">
        <ele>2000</ele>
        <time>2021-09-20T10:10:37Z</time>
      </trkpt>
      <trkpt lat="44.7102" lon="5.98092">
        <ele>2000</ele>
        <time>2021-09-20T10:10:38Z</time>
      </trkpt>
      <trkpt lat="44.7102" lon="5.98093">
        <ele>2000</ele>
        <time>2021-09-20T10:10:39Z</time>
      </trkpt>
      <trkpt lat="44.71019" lon="5.98094">
        <ele>2000</ele>
        <time>2021-09-20T10:10:40Z</time>
      </trkpt>
      <trkpt lat="44.71019" lon="5.98095">
        <ele>2000</ele>
        <time>2021-09-20T10:10:41Z</time>
      </trkpt>
      <trkpt lat="44.71019" lon="5.98095">
        <ele>2001</ele>
        <time>2021-09-20T10:10:42Z</time>
      </trkpt>
      <trkpt lat="44.71019" lon="5.98095">
        <ele>2001</ele>
        <time>2021-09-20T10:10:43Z</time>
      </trkpt>
      <trkpt lat="44.71019" lon="5.98095">
        <ele>2001</ele>
        <time>2021-09-20T10:10:44Z</time>
      </trkpt>
      <trkpt lat="44.71019" lon="5.98096">
        <ele>2001</ele>
        <time>2021-09-20T10:10:45Z</time>
      </trkpt>
      <trkpt lat="44.71019" lon="5.98096">
        <ele>2001</ele>
        <time>2021-09-20T10:10:46Z</time>
      </trkpt>
      <trkpt lat="44.71019" lon="5.98097">
        <ele>2002</ele>
        <time>2021-09-20T10:10:47Z</time>
      </trkpt>
      <trkpt lat="44.71019" lon="5.98098">
        <ele>2002</ele>
        <time>2021-09-20T10:10:48Z</time>
      </trkpt>
      <trkpt lat="44.71018" lon="5.98099">
        <ele>2002</ele>
        <time>2021-09-20T10:10:49Z</time>
      </trkpt>
      <trkpt lat="44.71018" lon="5.981">
        <ele>2002</ele>
        <time>2021-09-20T10:10:50Z</time>
      </trkpt>
      <trkpt lat="44.71018" lon="5.98101">
        <ele>2002</ele>
        <time>2021-09-20T10:10:51Z</time>
      </trkpt>
      <trkpt lat="44.71018" lon="5.98101">
        <ele>2002</ele>
        <time>2021-09-20T10:10:52Z</time>
      </trkpt>
      <trkpt lat="44.71018" lon="5.98102">
        <ele>2002</ele>
        <time>2021-09-20T10:10:53Z</time>
      </trkpt>
      <trkpt lat="44.71017" lon="5.98103">
        <ele>2002</ele>
        <time>2021-09-20T10:10:54Z</time>
      </trkpt>
      <trkpt lat="44.71017" lon="5.98103">
        <ele>2002</ele>
        <time>2021-09-20T10:10:55Z</time>
      </trkpt>
      <trkpt lat="44.71016" lon="5.98104">
        <ele>2004</ele>
        <time>2021-09-20T10:11:02Z</time>
      </trkpt>
      <trkpt lat="44.71015" lon="5.98104">
        <ele>2004</ele>
        <time>2021-09-20T10:11:03Z</time>
      </trkpt>
      <trkpt lat="44.71015" lon="5.98104">
        <ele>2004</ele>
        <time>2021-09-20T10:11:04Z</time>
      </trkpt>
      <trkpt lat="44.71015" lon="5.98104">
        <ele>2004</ele>
        <time>2021-09-20T10:11:05Z</time>
      </trkpt>
      <trkpt lat="44.71015" lon="5.98105">
        <ele>2004</ele>
        <time>2021-09-20T10:11:06Z</time>
      </trkpt>
      <trkpt lat="44.71014" lon="5.98105">
        <ele>2004</ele>
        <time>2021-09-20T10:11:07Z</time>
      </trkpt>
      <trkpt lat="44.71014" lon="5.98107">
        <ele>2005</ele>
        <time>2021-09-20T10:11:23Z</time>
      </trkpt>
      <trkpt lat="44.71013" lon="5.98108">
        <ele>2005</ele>
        <time>2021-09-20T10:11:24Z</time>
      </trkpt>
      <trkpt lat="44.71013" lon="5.98109">
        <ele>2005</ele>
        <time>2021-09-20T10:11:25Z</time>
      </trkpt>
      <trkpt lat="44.71012" lon="5.9811">
        <ele>2005</ele>
        <time>2021-09-20T10:11:26Z</time>
      </trkpt>
      <trkpt lat="44.71012" lon="5.98111">
        <ele>2006</ele>
        <time>2021-09-20T10:11:27Z</time>
      </trkpt>
      <trkpt lat="44.71012" lon="5.98112">
        <ele>2006</ele>
        <time>2021-09-20T10:11:28Z</time>
      </trkpt>
      <trkpt lat="44.71012" lon="5.98113">
        <ele>2006</ele>
        <time>2021-09-20T10:11:29Z</time>
      </trkpt>
      <trkpt lat="44.71012" lon="5.98117">
        <ele>2007</ele>
        <time>2021-09-20T10:12:16Z</time>
      </trkpt>
      <trkpt lat="44.71011" lon="5.98118">
        <ele>2007</ele>
        <time>2021-09-20T10:12:17Z</time>
      </trkpt>
      <trkpt lat="44.7101" lon="5.98119">
        <ele>2007</ele>
        <time>2021-09-20T10:12:18Z</time>
      </trkpt>
      <trkpt lat="44.7101" lon="5.98119">
        <ele>2007</ele>
        <time>2021-09-20T10:12:19Z</time>
      </trkpt>
      <trkpt lat="44.71009" lon="5.98119">
        <ele>2007</ele>
        <time>2021-09-20T10:12:20Z</time>
      </trkpt>
      <trkpt lat="44.71009" lon="5.98119">
        <ele>2007</ele>
        <time>2021-09-20T10:12:21Z</time>
      </trkpt>
      <trkpt lat="44.71009" lon="5.98119">
        <ele>2007</ele>
        <time>2021-09-20T10:12:22Z</time>
      </trkpt>
      <trkpt lat="44.71008" lon="5.98119">
        <ele>2007</ele>
        <time>2021-09-20T10:12:23Z</time>
      </trkpt>
      <trkpt lat="44.71008" lon="5.98119">
        <ele>2007</ele>
        <time>2021-09-20T10:12:24Z</time>
      </trkpt>
      <trkpt lat="44.71007" lon="5.98119">
        <ele>2007</ele>
        <time>2021-09-20T10:12:25Z</time>
      </trkpt>
      <trkpt lat="44.71008" lon="5.98119">
        <ele>2007</ele>
        <time>2021-09-20T10:12:26Z</time>
      </trkpt>
      <trkpt lat="44.71008" lon="5.98119">
        <ele>2007</ele>
        <time>2021-09-20T10:12:27Z</time>
      </trkpt>
      <trkpt lat="44.71008" lon="5.98119">
        <ele>2007</ele>
        <time>2021-09-20T10:12:45Z</time>
      </trkpt>
      <trkpt lat="44.71009" lon="5.98119">
        <ele>2007</ele>
        <time>2021-09-20T10:12:46Z</time>
      </trkpt>
      <trkpt lat="44.7101" lon="5.98119">
        <ele>2007</ele>
        <time>2021-09-20T10:12:47Z</time>
      </trkpt>
      <trkpt lat="44.7101" lon="5.98119">
        <ele>2007</ele>
        <time>2021-09-20T10:12:48Z</time>
      </trkpt>
      <trkpt lat="44.7101" lon="5.9812">
        <ele>2007</ele>
        <time>2021-09-20T10:12:49Z</time>
      </trkpt>
      <trkpt lat="44.7101" lon="5.98121">
        <ele>2007</ele>
        <time>2021-09-20T10:12:55Z</time>
      </trkpt>
      <trkpt lat="44.71011" lon="5.98121">
        <ele>2007</ele>
        <time>2021-09-20T10:12:56Z</time>
      </trkpt>
      <trkpt lat="44.71011" lon="5.98121">
        <ele>2007</ele>
        <time>2021-09-20T10:12:57Z</time>
      </trkpt>
      <trkpt lat="44.71011" lon="5.98121">
        <ele>2007</ele>
        <time>2021-09-20T10:12:58Z</time>
      </trkpt>
      <trkpt lat="44.71012" lon="5.98121">
        <ele>2007</ele>
        <time>2021-09-20T10:12:59Z</time>
      </trkpt>
      <trkpt lat="44.71013" lon="5.98121">
        <ele>2007</ele>
        <time>2021-09-20T10:13:45Z</time>
      </trkpt>
      <trkpt lat="44.71013" lon="5.9812">
        <ele>2007</ele>
        <time>2021-09-20T10:13:46Z</time>
      </trkpt>
      <trkpt lat="44.71013" lon="5.98119">
        <ele>2007</ele>
        <time>2021-09-20T10:13:47Z</time>
      </trkpt>
      <trkpt lat="44.71013" lon="5.98119">
        <ele>2007</ele>
        <time>2021-09-20T10:13:48Z</time>
      </trkpt>
      <trkpt lat="44.71013" lon="5.98118">
        <ele>2007</ele>
        <time>2021-09-20T10:13:49Z</time>
      </trkpt>
      <trkpt lat="44.71013" lon="5.98117">
        <ele>2007</ele>
        <time>2021-09-20T10:13:50Z</time>
      </trkpt>
      <trkpt lat="44.71013" lon="5.98115">
        <ele>2007</ele>
        <time>2021-09-20T10:13:51Z</time>
      </trkpt>
      <trkpt lat="44.71013" lon="5.98114">
        <ele>2007</ele>
        <time>2021-09-20T10:13:52Z</time>
      </trkpt>
      <trkpt lat="44.71013" lon="5.98113">
        <ele>2006</ele>
        <time>2021-09-20T10:13:53Z</time>
      </trkpt>
      <trkpt lat="44.71013" lon="5.98112">
        <ele>2006</ele>
        <time>2021-09-20T10:14:13Z</time>
      </trkpt>
      <trkpt lat="44.71013" lon="5.98111">
        <ele>2006</ele>
        <time>2021-09-20T10:14:14Z</time>
      </trkpt>
      <trkpt lat="44.71014" lon="5.9811">
        <ele>2006</ele>
        <time>2021-09-20T10:14:15Z</time>
      </trkpt>
      <trkpt lat="44.71015" lon="5.98107">
        <ele>2005</ele>
        <time>2021-09-20T10:14:37Z</time>
      </trkpt>
      <trkpt lat="44.71015" lon="5.98105">
        <ele>2005</ele>
        <time>2021-09-20T10:14:38Z</time>
      </trkpt>
      <trkpt lat="44.71016" lon="5.98103">
        <ele>2005</ele>
        <time>2021-09-20T10:14:39Z</time>
      </trkpt>
      <trkpt lat="44.71017" lon="5.981">
        <ele>2003</ele>
        <time>2021-09-20T10:15:12Z</time>
      </trkpt>
      <trkpt lat="44.71017" lon="5.98098">
        <ele>2003</ele>
        <time>2021-09-20T10:15:13Z</time>
      </trkpt>
      <trkpt lat="44.71017" lon="5.98096">
        <ele>2003</ele>
        <time>2021-09-20T10:15:14Z</time>
      </trkpt>
      <trkpt lat="44.71018" lon="5.98095">
        <ele>2003</ele>
        <time>2021-09-20T10:15:15Z</time>
      </trkpt>
      <trkpt lat="44.71018" lon="5.98094">
        <ele>2003</ele>
        <time>2021-09-20T10:15:16Z</time>
      </trkpt>
      <trkpt lat="44.71018" lon="5.98093">
        <ele>2003</ele>
        <time>2021-09-20T10:15:17Z</time>
      </trkpt>
      <trkpt lat="44.71018" lon="5.98093">
        <ele>2003</ele>
        <time>2021-09-20T10:15:18Z</time>
      </trkpt>
      <trkpt lat="44.71018" lon="5.98092">
        <ele>2003</ele>
        <time>2021-09-20T10:15:19Z</time>
      </trkpt>
      <trkpt lat="44.71018" lon="5.98092">
        <ele>2003</ele>
        <time>2021-09-20T10:15:20Z</time>
      </trkpt>
      <trkpt lat="44.71019" lon="5.98091">
        <ele>2003</ele>
        <time>2021-09-20T10:15:21Z</time>
      </trkpt>
      <trkpt lat="44.71019" lon="5.9809">
        <ele>2003</ele>
        <time>2021-09-20T10:15:22Z</time>
      </trkpt>
      <trkpt lat="44.71019" lon="5.98089">
        <ele>2002</ele>
        <time>2021-09-20T10:15:23Z</time>
      </trkpt>
      <trkpt lat="44.7102" lon="5.98088">
        <ele>2002</ele>
        <time>2021-09-20T10:15:24Z</time>
      </trkpt>
      <trkpt lat="44.7102" lon="5.98087">
        <ele>2002</ele>
        <time>2021-09-20T10:15:25Z</time>
      </trkpt>
      <trkpt lat="44.7102" lon="5.98086">
        <ele>2002</ele>
        <time>2021-09-20T10:15:26Z</time>
      </trkpt>
      <trkpt lat="44.7102" lon="5.98086">
        <ele>2002</ele>
        <time>2021-09-20T10:15:27Z</time>
      </trkpt>
      <trkpt lat="44.71021" lon="5.98085">
        <ele>2001</ele>
        <time>2021-09-20T10:15:28Z</time>
      </trkpt>
      <trkpt lat="44.71021" lon="5.98084">
        <ele>2001</ele>
        <time>2021-09-20T10:15:29Z</time>
      </trkpt>
      <trkpt lat="44.71021" lon="5.98083">
        <ele>2001</ele>
        <time>2021-09-20T10:15:30Z</time>
      </trkpt>
      <trkpt lat="44.71021" lon="5.98082">
        <ele>2001</ele>
        <time>2021-09-20T10:15:31Z</time>
      </trkpt>
      <trkpt lat="44.71022" lon="5.98082">
        <ele>2001</ele>
        <time>2021-09-20T10:15:32Z</time>
      </trkpt>
      <trkpt lat="44.71022" lon="5.98081">
        <ele>2001</ele>
        <time>2021-09-20T10:15:33Z</time>
      </trkpt>
      <trkpt lat="44.71022" lon="5.9808">
        <ele>2001</ele>
        <time>2021-09-20T10:15:34Z</time>
      </trkpt>
      <trkpt lat="44.71022" lon="5.9808">
        <ele>2001</ele>
        <time>2021-09-20T10:15:35Z</time>
      </trkpt>
      <trkpt lat="44.71022" lon="5.98079">
        <ele>2001</ele>
        <time>2021-09-20T10:15:36Z</time>
      </trkpt>
      <trkpt lat="44.71022" lon="5.98078">
        <ele>2001</ele>
        <time>2021-09-20T10:15:37Z</time>
      </trkpt>
      <trkpt lat="44.71022" lon="5.98077">
        <ele>2000</ele>
        <time>2021-09-20T10:15:38Z</time>
      </trkpt>
      <trkpt lat="44.71022" lon="5.98077">
        <ele>2000</ele>
        <time>2021-09-20T10:15:39Z</time>
      </trkpt>
      <trkpt lat="44.71022" lon="5.98076">
        <ele>2000</ele>
        <time>2021-09-20T10:15:40Z</time>
      </trkpt>
      <trkpt lat="44.71022" lon="5.98076">
        <ele>2000</ele>
        <time>2021-09-20T10:15:41Z</time>
      </trkpt>
      <trkpt lat="44.71022" lon="5.98075">
        <ele>2000</ele>
        <time>2021-09-20T10:15:42Z</time>
      </trkpt>
      <trkpt lat="44.71022" lon="5.98075">
        <ele>1999</ele>
        <time>2021-09-20T10:15:43Z</time>
      </trkpt>
      <trkpt lat="44.71022" lon="5.98074">
        <ele>1999</ele>
        <time>2021-09-20T10:15:44Z</time>
      </trkpt>
      <trkpt lat="44.71022" lon="5.98072">
        <ele>1997</ele>
        <time>2021-09-20T10:16:01Z</time>
      </trkpt>
      <trkpt lat="44.71023" lon="5.9807">
        <ele>1997</ele>
        <time>2021-09-20T10:16:02Z</time>
      </trkpt>
      <trkpt lat="44.71023" lon="5.98069">
        <ele>1997</ele>
        <time>2021-09-20T10:16:03Z</time>
      </trkpt>
      <trkpt lat="44.71024" lon="5.98068">
        <ele>1997</ele>
        <time>2021-09-20T10:16:04Z</time>
      </trkpt>
      <trkpt lat="44.71024" lon="5.98067">
        <ele>1997</ele>
        <time>2021-09-20T10:16:05Z</time>
      </trkpt>
      <trkpt lat="44.71024" lon="5.98066">
        <ele>1997</ele>
        <time>2021-09-20T10:16:06Z</time>
      </trkpt>
      <trkpt lat="44.71025" lon="5.98065">
        <ele>1997</ele>
        <time>2021-09-20T10:16:07Z</time>
      </trkpt>
      <trkpt lat="44.71025" lon="5.98063">
        <ele>1996</ele>
        <time>2021-09-20T10:16:08Z</time>
      </trkpt>
      <trkpt lat="44.71025" lon="5.98062">
        <ele>1996</ele>
        <time>2021-09-20T10:16:09Z</time>
      </trkpt>
      <trkpt lat="44.71026" lon="5.98062">
        <ele>1994</ele>
        <time>2021-09-20T10:16:53Z</time>
      </trkpt>
      <trkpt lat="44.71026" lon="5.98061">
        <ele>1994</ele>
        <time>2021-09-20T10:16:54Z</time>
      </trkpt>
      <trkpt lat="44.71026" lon="5.98061">
        <ele>1994</ele>
        <time>2021-09-20T10:16:55Z</time>
      </trkpt>
      <trkpt lat="44.71026" lon="5.98061">
        <ele>1994</ele>
        <time>2021-09-20T10:16:56Z</time>
      </trkpt>
      <trkpt lat="44.71026" lon="5.98062">
        <ele>1994</ele>
        <time>2021-09-20T10:16:57Z</time>
      </trkpt>
      <trkpt lat="44.71026" lon="5.98064">
        <ele>1995</ele>
        <time>2021-09-20T10:17:20Z</time>
      </trkpt>
      <trkpt lat="44.71026" lon="5.98064">
        <ele>1995</ele>
        <time>2021-09-20T10:17:21Z</time>
      </trkpt>
      <trkpt lat="44.71026" lon="5.98064">
        <ele>1995</ele>
        <time>2021-09-20T10:17:22Z</time>
      </trkpt>
      <trkpt lat="44.71025" lon="5.98063">
        <ele>1995</ele>
        <time>2021-09-20T10:17:55Z</time>
      </trkpt>
      <trkpt lat="44.71025" lon="5.98063">
        <ele>1995</ele>
        <time>2021-09-20T10:17:56Z</time>
      </trkpt>
      <trkpt lat="44.71025" lon="5.98063">
        <ele>1995</ele>
        <time>2021-09-20T10:17:57Z</time>
      </trkpt>
      <trkpt lat="44.71025" lon="5.98064">
        <ele>1995</ele>
        <time>2021-09-20T10:18:17Z</time>
      </trkpt>
      <trkpt lat="44.71025" lon="5.98064">
        <ele>1995</ele>
        <time>2021-09-20T10:18:18Z</time>
      </trkpt>
      <trkpt lat="44.71026" lon="5.98065">
        <ele>1995</ele>
        <time>2021-09-20T10:18:19Z</time>
      </trkpt>
      <trkpt lat="44.71027" lon="5.98067">
        <ele>1995</ele>
        <time>2021-09-20T10:18:43Z</time>
      </trkpt>
      <trkpt lat="44.71028" lon="5.98068">
        <ele>1995</ele>
        <time>2021-09-20T10:18:44Z</time>
      </trkpt>
      <trkpt lat="44.71028" lon="5.98068">
        <ele>1995</ele>
        <time>2021-09-20T10:18:45Z</time>
      </trkpt>
      <trkpt lat="44.71028" lon="5.98068">
        <ele>1995</ele>
        <time>2021-09-20T10:18:57Z</time>
      </trkpt>
      <trkpt lat="44.71028" lon="5.98067">
        <ele>1995</ele>
        <time>2021-09-20T10:18:58Z</time>
      </trkpt>
      <trkpt lat="44.71028" lon="5.98067">
        <ele>1995</ele>
        <time>2021-09-20T10:18:59Z</time>
      </trkpt>
      <trkpt lat="44.71028" lon="5.98066">
        <ele>1995</ele>
        <time>2021-09-20T10:19:06Z</time>
      </trkpt>
      <trkpt lat="44.71028" lon="5.98066">
        <ele>1995</ele>
        <time>2021-09-20T10:19:07Z</time>
      </trkpt>
      <trkpt lat="44.71028" lon="5.98065">
        <ele>1995</ele>
        <time>2021-09-20T10:19:08Z</time>
      </trkpt>
      <trkpt lat="44.71027" lon="5.98064">
        <ele>1995</ele>
        <time>2021-09-20T10:19:48Z</time>
      </trkpt>
      <trkpt lat="44.71027" lon="5.98064">
        <ele>1995</ele>
        <time>2021-09-20T10:19:49Z</time>
      </trkpt>
      <trkpt lat="44.71027" lon="5.98064">
        <ele>1995</ele>
        <time>2021-09-20T10:19:50Z</time>
      </trkpt>
      <trkpt lat="44.71026" lon="5.98063">
        <ele>1995</ele>
        <time>2021-09-20T10:19:58Z</time>
      </trkpt>
      <trkpt lat="44.71026" lon="5.98062">
        <ele>1995</ele>
        <time>2021-09-20T10:19:59Z</time>
      </trkpt>
      <trkpt lat="44.71026" lon="5.98061">
        <ele>1995</ele>
        <time>2021-09-20T10:20:00Z</time>
      </trkpt>
      <trkpt lat="44.71025" lon="5.98059">
        <ele>1995</ele>
        <time>2021-09-20T10:20:21Z</time>
      </trkpt>
      <trkpt lat="44.71024" lon="5.98058">
        <ele>1995</ele>
        <time>2021-09-20T10:20:22Z</time>
      </trkpt>
      <trkpt lat="44.71024" lon="5.98058">
        <ele>1995</ele>
        <time>2021-09-20T10:20:23Z</time>
      </trkpt>
      <trkpt lat="44.71024" lon="5.98058">
        <ele>1995</ele>
        <time>2021-09-20T10:20:24Z</time>
      </trkpt>
      <trkpt lat="44.71024" lon="5.98059">
        <ele>1995</ele>
        <time>2021-09-20T10:20:25Z</time>
      </trkpt>
      <trkpt lat="44.71025" lon="5.98058">
        <ele>1995</ele>
        <time>2021-09-20T10:20:35Z</time>
      </trkpt>
      <trkpt lat="44.71025" lon="5.98058">
        <ele>1995</ele>
        <time>2021-09-20T10:20:36Z</time>
      </trkpt>
      <trkpt lat="44.71025" lon="5.98058">
        <ele>1995</ele>
        <time>2021-09-20T10:20:37Z</time>
      </trkpt>
      <trkpt lat="44.71025" lon="5.98058">
        <ele>1995</ele>
        <time>2021-09-20T10:20:38Z</time>
      </trkpt>
      <trkpt lat="44.71026" lon="5.98058">
        <ele>1995</ele>
        <time>2021-09-20T10:20:39Z</time>
      </trkpt>
      <trkpt lat="44.71026" lon="5.98058">
        <ele>1995</ele>
        <time>2021-09-20T10:20:40Z</time>
      </trkpt>
      <trkpt lat="44.71026" lon="5.98058">
        <ele>1995</ele>
        <time>2021-09-20T10:20:41Z</time>
      </trkpt>
      <trkpt lat="44.71026" lon="5.98058">
        <ele>1995</ele>
        <time>2021-09-20T10:20:42Z</time>
      </trkpt>
      <trkpt lat="44.71026" lon="5.98059">
        <ele>1995</ele>
        <time>2021-09-20T10:20:43Z</time>
      </trkpt>
      <trkpt lat="44.71026" lon="5.98059">
        <ele>1995</ele>
        <time>2021-09-20T10:20:44Z</time>
      </trkpt>
      <trkpt lat="44.71025" lon="5.98061">
        <ele>1995</ele>
        <time>2021-09-20T10:20:55Z</time>
      </trkpt>
      <trkpt lat="44.71024" lon="5.9806">
        <ele>1995</ele>
        <time>2021-09-20T10:20:56Z</time>
      </trkpt>
      <trkpt lat="44.71024" lon="5.98059">
        <ele>1995</ele>
        <time>2021-09-20T10:20:57Z</time>
      </trkpt>
      <trkpt lat="44.71023" lon="5.98056">
        <ele>1995</ele>
        <time>2021-09-20T10:21:05Z</time>
      </trkpt>
      <trkpt lat="44.71023" lon="5.98055">
        <ele>1995</ele>
        <time>2021-09-20T10:21:06Z</time>
      </trkpt>
      <trkpt lat="44.71024" lon="5.98054">
        <ele>1995</ele>
        <time>2021-09-20T10:21:07Z</time>
      </trkpt>
      <trkpt lat="44.71024" lon="5.98055">
        <ele>1995</ele>
        <time>2021-09-20T10:21:16Z</time>
      </trkpt>
      <trkpt lat="44.71024" lon="5.98055">
        <ele>1995</ele>
        <time>2021-09-20T10:21:17Z</time>
      </trkpt>
      <trkpt lat="44.71024" lon="5.98055">
        <ele>1995</ele>
        <time>2021-09-20T10:21:18Z</time>
      </trkpt>
      <trkpt lat="44.71023" lon="5.98054">
        <ele>1995</ele>
        <time>2021-09-20T10:21:19Z</time>
      </trkpt>
      <trkpt lat="44.71023" lon="5.98054">
        <ele>1995</ele>
        <time>2021-09-20T10:21:20Z</time>
      </trkpt>
      <trkpt lat="44.71023" lon="5.98053">
        <ele>1995</ele>
        <time>2021-09-20T10:21:21Z</time>
      </trkpt>
      <trkpt lat="44.71023" lon="5.98053">
        <ele>1995</ele>
        <time>2021-09-20T10:21:22Z</time>
      </trkpt>
      <trkpt lat="44.71023" lon="5.98053">
        <ele>1995</ele>
        <time>2021-09-20T10:21:23Z</time>
      </trkpt>
      <trkpt lat="44.71022" lon="5.98053">
        <ele>1995</ele>
        <time>2021-09-20T10:21:24Z</time>
      </trkpt>
      <trkpt lat="44.71022" lon="5.98052">
        <ele>1995</ele>
        <time>2021-09-20T10:21:25Z</time>
      </trkpt>
      <trkpt lat="44.71022" lon="5.98051">
        <ele>1995</ele>
        <time>2021-09-20T10:21:26Z</time>
      </trkpt>
      <trkpt lat="44.71022" lon="5.9805">
        <ele>1995</ele>
        <time>2021-09-20T10:21:27Z</time>
      </trkpt>
      <trkpt lat="44.71022" lon="5.98049">
        <ele>1995</ele>
        <time>2021-09-20T10:21:40Z</time>
      </trkpt>
      <trkpt lat="44.71022" lon="5.98049">
        <ele>1995</ele>
        <time>2021-09-20T10:21:41Z</time>
      </trkpt>
      <trkpt lat="44.71022" lon="5.98049">
        <ele>1995</ele>
        <time>2021-09-20T10:21:42Z</time>
      </trkpt>
      <trkpt lat="44.71023" lon="5.9805">
        <ele>1995</ele>
        <time>2021-09-20T10:21:43Z</time>
      </trkpt>
      <trkpt lat="44.71023" lon="5.98051">
        <ele>1995</ele>
        <time>2021-09-20T10:21:44Z</time>
      </trkpt>
      <trkpt lat="44.71023" lon="5.98052">
        <ele>1995</ele>
        <time>2021-09-20T10:22:05Z</time>
      </trkpt>
      <trkpt lat="44.71023" lon="5.98054">
        <ele>1995</ele>
        <time>2021-09-20T10:22:06Z</time>
      </trkpt>
      <trkpt lat="44.71023" lon="5.98055">
        <ele>1995</ele>
        <time>2021-09-20T10:22:07Z</time>
      </trkpt>
      <trkpt lat="44.71023" lon="5.98055">
        <ele>1994</ele>
        <time>2021-09-20T10:22:08Z</time>
      </trkpt>
      <trkpt lat="44.71022" lon="5.98056">
        <ele>1994</ele>
        <time>2021-09-20T10:22:09Z</time>
      </trkpt>
      <trkpt lat="44.71023" lon="5.98055">
        <ele>1994</ele>
        <time>2021-09-20T10:22:22Z</time>
      </trkpt>
      <trkpt lat="44.71023" lon="5.98055">
        <ele>1994</ele>
        <time>2021-09-20T10:22:23Z</time>
      </trkpt>
      <trkpt lat="44.71024" lon="5.98055">
        <ele>1994</ele>
        <time>2021-09-20T10:22:24Z</time>
      </trkpt>
      <trkpt lat="44.71025" lon="5.98056">
        <ele>1994</ele>
        <time>2021-09-20T10:22:49Z</time>
      </trkpt>
      <trkpt lat="44.71025" lon="5.98056">
        <ele>1994</ele>
        <time>2021-09-20T10:22:50Z</time>
      </trkpt>
      <trkpt lat="44.71026" lon="5.98057">
        <ele>1994</ele>
        <time>2021-09-20T10:22:51Z</time>
      </trkpt>
      <trkpt lat="44.71025" lon="5.98057">
        <ele>1994</ele>
        <time>2021-09-20T10:22:52Z</time>
      </trkpt>
      <trkpt lat="44.71025" lon="5.98057">
        <ele>1994</ele>
        <time>2021-09-20T10:22:53Z</time>
      </trkpt>
      <trkpt lat="44.71024" lon="5.98057">
        <ele>1994</ele>
        <time>2021-09-20T10:22:54Z</time>
      </trkpt>
      <trkpt lat="44.71023" lon="5.98057">
        <ele>1994</ele>
        <time>2021-09-20T10:22:55Z</time>
      </trkpt>
      <trkpt lat="44.71022" lon="5.98057">
        <ele>1994</ele>
        <time>2021-09-20T10:22:56Z</time>
      </trkpt>
      <trkpt lat="44.71021" lon="5.98057">
        <ele>1994</ele>
        <time>2021-09-20T10:22:57Z</time>
      </trkpt>
      <trkpt lat="44.71022" lon="5.98057">
        <ele>1995</ele>
        <time>2021-09-20T10:23:15Z</time>
      </trkpt>
      <trkpt lat="44.71022" lon="5.98058">
        <ele>1995</ele>
        <time>2021-09-20T10:23:16Z</time>
      </trkpt>
      <trkpt lat="44.71023" lon="5.98058">
        <ele>1995</ele>
        <time>2021-09-20T10:23:17Z</time>
      </trkpt>
      <trkpt lat="44.71022" lon="5.98057">
        <ele>1995</ele>
        <time>2021-09-20T10:23:24Z</time>
      </trkpt>
      <trkpt lat="44.71022" lon="5.98056">
        <ele>1995</ele>
        <time>2021-09-20T10:23:25Z</time>
      </trkpt>
      <trkpt lat="44.71022" lon="5.98055">
        <ele>1995</ele>
        <time>2021-09-20T10:23:26Z</time>
      </trkpt>
      <trkpt lat="44.71023" lon="5.98055">
        <ele>1995</ele>
        <time>2021-09-20T10:23:36Z</time>
      </trkpt>
      <trkpt lat="44.71024" lon="5.98055">
        <ele>1995</ele>
        <time>2021-09-20T10:23:37Z</time>
      </trkpt>
      <trkpt lat="44.71024" lon="5.98055">
        <ele>1995</ele>
        <time>2021-09-20T10:23:38Z</time>
      </trkpt>
      <trkpt lat="44.71026" lon="5.98057">
        <ele>1995</ele>
        <time>2021-09-20T10:24:03Z</time>
      </trkpt>
      <trkpt lat="44.71027" lon="5.98058">
        <ele>1995</ele>
        <time>2021-09-20T10:24:04Z</time>
      </trkpt>
      <trkpt lat="44.71028" lon="5.98059">
        <ele>1995</ele>
        <time>2021-09-20T10:24:05Z</time>
      </trkpt>
      <trkpt lat="44.71029" lon="5.98061">
        <ele>1995</ele>
        <time>2021-09-20T10:24:48Z</time>
      </trkpt>
      <trkpt lat="44.71029" lon="5.98061">
        <ele>1995</ele>
        <time>2021-09-20T10:24:49Z</time>
      </trkpt>
      <trkpt lat="44.71029" lon="5.98061">
        <ele>1995</ele>
        <time>2021-09-20T10:24:50Z</time>
      </trkpt>
      <trkpt lat="44.71028" lon="5.98061">
        <ele>1995</ele>
        <time>2021-09-20T10:24:51Z</time>
      </trkpt>
      <trkpt lat="44.71028" lon="5.98061">
        <ele>1995</ele>
        <time>2021-09-20T10:24:52Z</time>
      </trkpt>
      <trkpt lat="44.71028" lon="5.98061">
        <ele>1995</ele>
        <time>2021-09-20T10:24:53Z</time>
      </trkpt>
      <trkpt lat="44.71028" lon="5.98061">
        <ele>1995</ele>
        <time>2021-09-20T10:24:54Z</time>
      </trkpt>
      <trkpt lat="44.71028" lon="5.98061">
        <ele>1995</ele>
        <time>2021-09-20T10:24:55Z</time>
      </trkpt>
      <trkpt lat="44.71027" lon="5.98061">
        <ele>1995</ele>
        <time>2021-09-20T10:24:56Z</time>
      </trkpt>
      <trkpt lat="44.71027" lon="5.98062">
        <ele>1995</ele>
        <time>2021-09-20T10:24:57Z</time>
      </trkpt>
      <trkpt lat="44.71027" lon="5.98063">
        <ele>1995</ele>
        <time>2021-09-20T10:26:58Z</time>
      </trkpt>
      <trkpt lat="44.71027" lon="5.98064">
        <ele>1995</ele>
        <time>2021-09-20T10:26:59Z</time>
      </trkpt>
      <trkpt lat="44.71028" lon="5.98064">
        <ele>1995</ele>
        <time>2021-09-20T10:27:00Z</time>
      </trkpt>
      <trkpt lat="44.71029" lon="5.98065">
        <ele>1995</ele>
        <time>2021-09-20T10:31:58Z</time>
      </trkpt>
      <trkpt lat="44.71029" lon="5.98065">
        <ele>1995</ele>
        <time>2021-09-20T10:31:59Z</time>
      </trkpt>
      <trkpt lat="44.71029" lon="5.98065">
        <ele>1995</ele>
        <time>2021-09-20T10:32:00Z</time>
      </trkpt>
      <trkpt lat="44.71027" lon="5.98064">
        <ele>1995</ele>
        <time>2021-09-20T10:34:01Z</time>
      </trkpt>
      <trkpt lat="44.71027" lon="5.98064">
        <ele>1995</ele>
        <time>2021-09-20T10:34:02Z</time>
      </trkpt>
      <trkpt lat="44.71026" lon="5.98064">
        <ele>1995</ele>
        <time>2021-09-20T10:34:03Z</time>
      </trkpt>
      <trkpt lat="44.71025" lon="5.98064">
        <ele>1995</ele>
        <time>2021-09-20T10:36:14Z</time>
      </trkpt>
      <trkpt lat="44.71025" lon="5.98063">
        <ele>1995</ele>
        <time>2021-09-20T10:36:15Z</time>
      </trkpt>
      <trkpt lat="44.71025" lon="5.98062">
        <ele>1995</ele>
        <time>2021-09-20T10:36:16Z</time>
      </trkpt>
      <trkpt lat="44.71025" lon="5.98061">
        <ele>1995</ele>
        <time>2021-09-20T10:36:34Z</time>
      </trkpt>
      <trkpt lat="44.71025" lon="5.98061">
        <ele>1995</ele>
        <time>2021-09-20T10:36:35Z</time>
      </trkpt>
      <trkpt lat="44.71025" lon="5.9806">
        <ele>1995</ele>
        <time>2021-09-20T10:36:36Z</time>
      </trkpt>
      <trkpt lat="44.71024" lon="5.98061">
        <ele>1995</ele>
        <time>2021-09-20T10:40:11Z</time>
      </trkpt>
      <trkpt lat="44.71024" lon="5.98062">
        <ele>1995</ele>
        <time>2021-09-20T10:40:12Z</time>
      </trkpt>
      <trkpt lat="44.71023" lon="5.98063">
        <ele>1995</ele>
        <time>2021-09-20T10:40:13Z</time>
      </trkpt>
      <trkpt lat="44.71023" lon="5.98064">
        <ele>1995</ele>
        <time>2021-09-20T10:40:14Z</time>
      </trkpt>
      <trkpt lat="44.71023" lon="5.98064">
        <ele>1995</ele>
        <time>2021-09-20T10:40:15Z</time>
      </trkpt>
      <trkpt lat="44.71023" lon="5.98064">
        <ele>1995</ele>
        <time>2021-09-20T10:40:16Z</time>
      </trkpt>
      <trkpt lat="44.71022" lon="5.98065">
        <ele>1995</ele>
        <time>2021-09-20T10:40:17Z</time>
      </trkpt>
      <trkpt lat="44.71022" lon="5.98065">
        <ele>1995</ele>
        <time>2021-09-20T10:40:18Z</time>
      </trkpt>
      <trkpt lat="44.71022" lon="5.98064">
        <ele>1995</ele>
        <time>2021-09-20T10:40:33Z</time>
      </trkpt>
      <trkpt lat="44.71022" lon="5.98064">
        <ele>1995</ele>
        <time>2021-09-20T10:40:34Z</time>
      </trkpt>
      <trkpt lat="44.71022" lon="5.98064">
        <ele>1995</ele>
        <time>2021-09-20T10:40:35Z</time>
      </trkpt>
      <trkpt lat="44.71022" lon="5.98065">
        <ele>1995</ele>
        <time>2021-09-20T10:40:55Z</time>
      </trkpt>
      <trkpt lat="44.71022" lon="5.98065">
        <ele>1995</ele>
        <time>2021-09-20T10:40:56Z</time>
      </trkpt>
      <trkpt lat="44.71022" lon="5.98066">
        <ele>1995</ele>
        <time>2021-09-20T10:40:57Z</time>
      </trkpt>
      <trkpt lat="44.71022" lon="5.98066">
        <ele>1995</ele>
        <time>2021-09-20T10:40:58Z</time>
      </trkpt>
      <trkpt lat="44.71022" lon="5.98066">
        <ele>1995</ele>
        <time>2021-09-20T10:40:59Z</time>
      </trkpt>
      <trkpt lat="44.71022" lon="5.98067">
        <ele>1995</ele>
        <time>2021-09-20T10:41:00Z</time>
      </trkpt>
      <trkpt lat="44.71022" lon="5.98067">
        <ele>1995</ele>
        <time>2021-09-20T10:41:01Z</time>
      </trkpt>
      <trkpt lat="44.71022" lon="5.98067">
        <ele>1995</ele>
        <time>2021-09-20T10:41:02Z</time>
      </trkpt>
      <trkpt lat="44.71023" lon="5.98068">
        <ele>1995</ele>
        <time>2021-09-20T10:41:11Z</time>
      </trkpt>
      <trkpt lat="44.71023" lon="5.98068">
        <ele>1995</ele>
        <time>2021-09-20T10:41:12Z</time>
      </trkpt>
      <trkpt lat="44.71023" lon="5.98068">
        <ele>1995</ele>
        <time>2021-09-20T10:41:13Z</time>
      </trkpt>
      <trkpt lat="44.71022" lon="5.98066">
        <ele>1995</ele>
        <time>2021-09-20T10:41:14Z</time>
      </trkpt>
      <trkpt lat="44.71022" lon="5.98065">
        <ele>1995</ele>
        <time>2021-09-20T10:41:15Z</time>
      </trkpt>
      <trkpt lat="44.71021" lon="5.98064">
        <ele>1995</ele>
        <time>2021-09-20T10:41:16Z</time>
      </trkpt>
      <trkpt lat="44.71021" lon="5.98063">
        <ele>1995</ele>
        <time>2021-09-20T10:41:17Z</time>
      </trkpt>
      <trkpt lat="44.71022" lon="5.98063">
        <ele>1995</ele>
        <time>2021-09-20T10:42:49Z</time>
      </trkpt>
      <trkpt lat="44.71022" lon="5.98063">
        <ele>1995</ele>
        <time>2021-09-20T10:42:50Z</time>
      </trkpt>
      <trkpt lat="44.71023" lon="5.98063">
        <ele>1995</ele>
        <time>2021-09-20T10:42:51Z</time>
      </trkpt>
      <trkpt lat="44.71023" lon="5.98064">
        <ele>1995</ele>
        <time>2021-09-20T10:42:52Z</time>
      </trkpt>
      <trkpt lat="44.71024" lon="5.98064">
        <ele>1995</ele>
        <time>2021-09-20T10:42:53Z</time>
      </trkpt>
      <trkpt lat="44.71025" lon="5.98064">
        <ele>1995</ele>
        <time>2021-09-20T10:43:19Z</time>
      </trkpt>
      <trkpt lat="44.71026" lon="5.98064">
        <ele>1995</ele>
        <time>2021-09-20T10:43:20Z</time>
      </trkpt>
      <trkpt lat="44.71027" lon="5.98063">
        <ele>1995</ele>
        <time>2021-09-20T10:43:21Z</time>
      </trkpt>
      <trkpt lat="44.71027" lon="5.98064">
        <ele>1995</ele>
        <time>2021-09-20T10:50:56Z</time>
      </trkpt>
      <trkpt lat="44.71027" lon="5.98064">
        <ele>1995</ele>
        <time>2021-09-20T10:50:57Z</time>
      </trkpt>
      <trkpt lat="44.71027" lon="5.98065">
        <ele>1995</ele>
        <time>2021-09-20T10:50:58Z</time>
      </trkpt>
      <trkpt lat="44.71027" lon="5.98064">
        <ele>1994</ele>
        <time>2021-09-20T10:53:52Z</time>
      </trkpt>
      <trkpt lat="44.71026" lon="5.98064">
        <ele>1994</ele>
        <time>2021-09-20T10:53:53Z</time>
      </trkpt>
      <trkpt lat="44.71025" lon="5.98063">
        <ele>1994</ele>
        <time>2021-09-20T10:53:54Z</time>
      </trkpt>
      <trkpt lat="44.71025" lon="5.98062">
        <ele>1995</ele>
        <time>2021-09-20T10:54:20Z</time>
      </trkpt>
      <trkpt lat="44.71026" lon="5.98062">
        <ele>1995</ele>
        <time>2021-09-20T10:54:21Z</time>
      </trkpt>
      <trkpt lat="44.71026" lon="5.98062">
        <ele>1995</ele>
        <time>2021-09-20T10:54:22Z</time>
      </trkpt>
      <trkpt lat="44.71026" lon="5.98062">
        <ele>1994</ele>
        <time>2021-09-20T11:00:04Z</time>
      </trkpt>
      <trkpt lat="44.71026" lon="5.98062">
        <ele>1994</ele>
        <time>2021-09-20T11:00:05Z</time>
      </trkpt>
      <trkpt lat="44.71026" lon="5.98062">
        <ele>1994</ele>
        <time>2021-09-20T11:00:06Z</time>
      </trkpt>
      <trkpt lat="44.71026" lon="5.98062">
        <ele>1994</ele>
        <time>2021-09-20T11:00:07Z</time>
      </trkpt>
      <trkpt lat="44.71027" lon="5.98063">
        <ele>1994</ele>
        <time>2021-09-20T11:00:08Z</time>
      </trkpt>
      <trkpt lat="44.71027" lon="5.98064">
        <ele>1994</ele>
        <time>2021-09-20T11:00:30Z</time>
      </trkpt>
      <trkpt lat="44.71028" lon="5.98065">
        <ele>1994</ele>
        <time>2021-09-20T11:00:31Z</time>
      </trkpt>
      <trkpt lat="44.71028" lon="5.98065">
        <ele>1994</ele>
        <time>2021-09-20T11:00:32Z</time>
      </trkpt>
      <trkpt lat="44.71027" lon="5.98065">
        <ele>1994</ele>
        <time>2021-09-20T11:00:43Z</time>
      </trkpt>
      <trkpt lat="44.71027" lon="5.98065">
        <ele>1994</ele>
        <time>2021-09-20T11:00:44Z</time>
      </trkpt>
      <trkpt lat="44.71027" lon="5.98066">
        <ele>1994</ele>
        <time>2021-09-20T11:00:45Z</time>
      </trkpt>
      <trkpt lat="44.71027" lon="5.98064">
        <ele>1995</ele>
        <time>2021-09-20T11:08:03Z</time>
      </trkpt>
      <trkpt lat="44.71027" lon="5.98063">
        <ele>1995</ele>
        <time>2021-09-20T11:08:04Z</time>
      </trkpt>
      <trkpt lat="44.71027" lon="5.98062">
        <ele>1995</ele>
        <time>2021-09-20T11:08:05Z</time>
      </trkpt>
      <trkpt lat="44.71026" lon="5.98062">
        <ele>1995</ele>
        <time>2021-09-20T11:08:06Z</time>
      </trkpt>
      <trkpt lat="44.71026" lon="5.98061">
        <ele>1995</ele>
        <time>2021-09-20T11:08:07Z</time>
      </trkpt>
      <trkpt lat="44.71026" lon="5.98061">
        <ele>1995</ele>
        <time>2021-09-20T11:08:08Z</time>
      </trkpt>
      <trkpt lat="44.71025" lon="5.98061">
        <ele>1995</ele>
        <time>2021-09-20T11:08:09Z</time>
      </trkpt>
      <trkpt lat="44.71026" lon="5.98062">
        <ele>1995</ele>
        <time>2021-09-20T11:09:16Z</time>
      </trkpt>
      <trkpt lat="44.71027" lon="5.98063">
        <ele>1995</ele>
        <time>2021-09-20T11:09:17Z</time>
      </trkpt>
      <trkpt lat="44.71027" lon="5.98063">
        <ele>1995</ele>
        <time>2021-09-20T11:09:18Z</time>
      </trkpt>
      <trkpt lat="44.71027" lon="5.98064">
        <ele>1995</ele>
        <time>2021-09-20T11:09:19Z</time>
      </trkpt>
      <trkpt lat="44.71028" lon="5.98064">
        <ele>1995</ele>
        <time>2021-09-20T11:09:20Z</time>
      </trkpt>
      <trkpt lat="44.71028" lon="5.98064">
        <ele>1995</ele>
        <time>2021-09-20T11:09:21Z</time>
      </trkpt>
      <trkpt lat="44.71028" lon="5.98065">
        <ele>1995</ele>
        <time>2021-09-20T11:09:22Z</time>
      </trkpt>
      <trkpt lat="44.71027" lon="5.98064">
        <ele>1995</ele>
        <time>2021-09-20T11:15:27Z</time>
      </trkpt>
      <trkpt lat="44.71027" lon="5.98064">
        <ele>1995</ele>
        <time>2021-09-20T11:15:28Z</time>
      </trkpt>
      <trkpt lat="44.71026" lon="5.98064">
        <ele>1995</ele>
        <time>2021-09-20T11:15:29Z</time>
      </trkpt>
      <trkpt lat="44.71026" lon="5.98063">
        <ele>1995</ele>
        <time>2021-09-20T11:15:30Z</time>
      </trkpt>
      <trkpt lat="44.71026" lon="5.98062">
        <ele>1995</ele>
        <time>2021-09-20T11:15:31Z</time>
      </trkpt>
      <trkpt lat="44.71025" lon="5.98063">
        <ele>1995</ele>
        <time>2021-09-20T11:15:54Z</time>
      </trkpt>
      <trkpt lat="44.71025" lon="5.98063">
        <ele>1995</ele>
        <time>2021-09-20T11:15:55Z</time>
      </trkpt>
      <trkpt lat="44.71025" lon="5.98063">
        <ele>1995</ele>
        <time>2021-09-20T11:15:56Z</time>
      </trkpt>
      <trkpt lat="44.71025" lon="5.98063">
        <ele>1995</ele>
        <time>2021-09-20T11:15:57Z</time>
      </trkpt>
      <trkpt lat="44.71026" lon="5.98063">
        <ele>1995</ele>
        <time>2021-09-20T11:15:58Z</time>
      </trkpt>
      <trkpt lat="44.71026" lon="5.98062">
        <ele>1995</ele>
        <time>2021-09-20T11:15:59Z</time>
      </trkpt>
      <trkpt lat="44.71025" lon="5.98061">
        <ele>1995</ele>
        <time>2021-09-20T11:16:00Z</time>
      </trkpt>
      <trkpt lat="44.71025" lon="5.9806">
        <ele>1995</ele>
        <time>2021-09-20T11:16:21Z</time>
      </trkpt>
      <trkpt lat="44.71026" lon="5.9806">
        <ele>1995</ele>
        <time>2021-09-20T11:16:22Z</time>
      </trkpt>
      <trkpt lat="44.71026" lon="5.98059">
        <ele>1994</ele>
        <time>2021-09-20T11:16:23Z</time>
      </trkpt>
      <trkpt lat="44.71027" lon="5.9806">
        <ele>1994</ele>
        <time>2021-09-20T11:16:35Z</time>
      </trkpt>
      <trkpt lat="44.71027" lon="5.9806">
        <ele>1994</ele>
        <time>2021-09-20T11:16:36Z</time>
      </trkpt>
      <trkpt lat="44.71027" lon="5.9806">
        <ele>1994</ele>
        <time>2021-09-20T11:16:37Z</time>
      </trkpt>
      <trkpt lat="44.71026" lon="5.98059">
        <ele>1994</ele>
        <time>2021-09-20T11:16:38Z</time>
      </trkpt>
      <trkpt lat="44.71026" lon="5.98059">
        <ele>1994</ele>
        <time>2021-09-20T11:16:39Z</time>
      </trkpt>
      <trkpt lat="44.71025" lon="5.98057">
        <ele>1994</ele>
        <time>2021-09-20T11:16:51Z</time>
      </trkpt>
      <trkpt lat="44.71025" lon="5.98057">
        <ele>1995</ele>
        <time>2021-09-20T11:16:52Z</time>
      </trkpt>
      <trkpt lat="44.71024" lon="5.98057">
        <ele>1995</ele>
        <time>2021-09-20T11:16:53Z</time>
      </trkpt>
      <trkpt lat="44.71025" lon="5.98058">
        <ele>1995</ele>
        <time>2021-09-20T11:16:54Z</time>
      </trkpt>
      <trkpt lat="44.71025" lon="5.98059">
        <ele>1995</ele>
        <time>2021-09-20T11:16:55Z</time>
      </trkpt>
      <trkpt lat="44.71025" lon="5.9806">
        <ele>1995</ele>
        <time>2021-09-20T11:16:56Z</time>
      </trkpt>
      <trkpt lat="44.71026" lon="5.9806">
        <ele>1995</ele>
        <time>2021-09-20T11:16:57Z</time>
      </trkpt>
      <trkpt lat="44.71026" lon="5.98061">
        <ele>1994</ele>
        <time>2021-09-20T11:17:10Z</time>
      </trkpt>
      <trkpt lat="44.71026" lon="5.98061">
        <ele>1994</ele>
        <time>2021-09-20T11:17:11Z</time>
      </trkpt>
      <trkpt lat="44.71026" lon="5.98061">
        <ele>1994</ele>
        <time>2021-09-20T11:17:12Z</time>
      </trkpt>
      <trkpt lat="44.71026" lon="5.98061">
        <ele>1994</ele>
        <time>2021-09-20T11:17:13Z</time>
      </trkpt>
      <trkpt lat="44.71026" lon="5.98062">
        <ele>1994</ele>
        <time>2021-09-20T11:17:14Z</time>
      </trkpt>
      <trkpt lat="44.71025" lon="5.98062">
        <ele>1995</ele>
        <time>2021-09-20T11:17:39Z</time>
      </trkpt>
      <trkpt lat="44.71026" lon="5.98062">
        <ele>1995</ele>
        <time>2021-09-20T11:17:40Z</time>
      </trkpt>
      <trkpt lat="44.71026" lon="5.98063">
        <ele>1995</ele>
        <time>2021-09-20T11:17:41Z</time>
      </trkpt>
      <trkpt lat="44.71026" lon="5.98063">
        <ele>1995</ele>
        <time>2021-09-20T11:17:42Z</time>
      </trkpt>
      <trkpt lat="44.71026" lon="5.98063">
        <ele>1995</ele>
        <time>2021-09-20T11:17:43Z</time>
      </trkpt>
      <trkpt lat="44.71027" lon="5.98064">
        <ele>1995</ele>
        <time>2021-09-20T11:17:44Z</time>
      </trkpt>
      <trkpt lat="44.71028" lon="5.98065">
        <ele>1995</ele>
        <time>2021-09-20T11:17:45Z</time>
      </trkpt>
      <trkpt lat="44.71028" lon="5.98065">
        <ele>1995</ele>
        <time>2021-09-20T11:17:46Z</time>
      </trkpt>
      <trkpt lat="44.71028" lon="5.98065">
        <ele>1995</ele>
        <time>2021-09-20T11:17:47Z</time>
      </trkpt>
      <trkpt lat="44.71027" lon="5.98066">
        <ele>1995</ele>
        <time>2021-09-20T11:18:21Z</time>
      </trkpt>
      <trkpt lat="44.71027" lon="5.98066">
        <ele>1995</ele>
        <time>2021-09-20T11:18:22Z</time>
      </trkpt>
      <trkpt lat="44.71027" lon="5.98066">
        <ele>1995</ele>
        <time>2021-09-20T11:18:23Z</time>
      </trkpt>
      <trkpt lat="44.71027" lon="5.98065">
        <ele>1995</ele>
        <time>2021-09-20T11:18:24Z</time>
      </trkpt>
      <trkpt lat="44.71027" lon="5.98065">
        <ele>1995</ele>
        <time>2021-09-20T11:18:25Z</time>
      </trkpt>
      <trkpt lat="44.71027" lon="5.98064">
        <ele>1995</ele>
        <time>2021-09-20T11:18:26Z</time>
      </trkpt>
      <trkpt lat="44.71026" lon="5.98063">
        <ele>1995</ele>
        <time>2021-09-20T11:18:27Z</time>
      </trkpt>
      <trkpt lat="44.71026" lon="5.98062">
        <ele>1995</ele>
        <time>2021-09-20T11:18:28Z</time>
      </trkpt>
      <trkpt lat="44.71026" lon="5.98061">
        <ele>1995</ele>
        <time>2021-09-20T11:18:29Z</time>
      </trkpt>
      <trkpt lat="44.71026" lon="5.9806">
        <ele>1995</ele>
        <time>2021-09-20T11:19:12Z</time>
      </trkpt>
      <trkpt lat="44.71026" lon="5.98059">
        <ele>1995</ele>
        <time>2021-09-20T11:19:13Z</time>
      </trkpt>
      <trkpt lat="44.71026" lon="5.98058">
        <ele>1995</ele>
        <time>2021-09-20T11:19:14Z</time>
      </trkpt>
      <trkpt lat="44.71026" lon="5.98059">
        <ele>1995</ele>
        <time>2021-09-20T11:19:15Z</time>
      </trkpt>
      <trkpt lat="44.71026" lon="5.98059">
        <ele>1995</ele>
        <time>2021-09-20T11:19:16Z</time>
      </trkpt>
      <trkpt lat="44.71028" lon="5.98062">
        <ele>1995</ele>
        <time>2021-09-20T11:33:51Z</time>
      </trkpt>
      <trkpt lat="44.71028" lon="5.98062">
        <ele>1995</ele>
        <time>2021-09-20T11:33:52Z</time>
      </trkpt>
      <trkpt lat="44.71028" lon="5.98062">
        <ele>1995</ele>
        <time>2021-09-20T11:33:53Z</time>
      </trkpt>
      <trkpt lat="44.71029" lon="5.98061">
        <ele>1995</ele>
        <time>2021-09-20T11:33:54Z</time>
      </trkpt>
      <trkpt lat="44.7103" lon="5.98061">
        <ele>1995</ele>
        <time>2021-09-20T11:33:55Z</time>
      </trkpt>
      <trkpt lat="44.7103" lon="5.98062">
        <ele>1994</ele>
        <time>2021-09-20T11:34:22Z</time>
      </trkpt>
      <trkpt lat="44.7103" lon="5.98062">
        <ele>1994</ele>
        <time>2021-09-20T11:34:23Z</time>
      </trkpt>
      <trkpt lat="44.71031" lon="5.98063">
        <ele>1994</ele>
        <time>2021-09-20T11:34:24Z</time>
      </trkpt>
      <trkpt lat="44.71029" lon="5.98063">
        <ele>1995</ele>
        <time>2021-09-20T11:35:34Z</time>
      </trkpt>
      <trkpt lat="44.71027" lon="5.98064">
        <ele>1995</ele>
        <time>2021-09-20T11:35:35Z</time>
      </trkpt>
      <trkpt lat="44.71026" lon="5.98064">
        <ele>1995</ele>
        <time>2021-09-20T11:35:36Z</time>
      </trkpt>
      <trkpt lat="44.71026" lon="5.98064">
        <ele>1995</ele>
        <time>2021-09-20T11:35:37Z</time>
      </trkpt>
      <trkpt lat="44.71025" lon="5.98064">
        <ele>1994</ele>
        <time>2021-09-20T11:35:38Z</time>
      </trkpt>
      <trkpt lat="44.71025" lon="5.98064">
        <ele>1994</ele>
        <time>2021-09-20T11:35:39Z</time>
      </trkpt>
      <trkpt lat="44.71024" lon="5.98064">
        <ele>1994</ele>
        <time>2021-09-20T11:35:40Z</time>
      </trkpt>
      <trkpt lat="44.71024" lon="5.98063">
        <ele>1994</ele>
        <time>2021-09-20T11:35:41Z</time>
      </trkpt>
      <trkpt lat="44.71024" lon="5.98062">
        <ele>1994</ele>
        <time>2021-09-20T11:35:42Z</time>
      </trkpt>
      <trkpt lat="44.71025" lon="5.9806">
        <ele>1994</ele>
        <time>2021-09-20T11:35:58Z</time>
      </trkpt>
      <trkpt lat="44.71025" lon="5.98059">
        <ele>1994</ele>
        <time>2021-09-20T11:35:59Z</time>
      </trkpt>
      <trkpt lat="44.71025" lon="5.98058">
        <ele>1994</ele>
        <time>2021-09-20T11:36:00Z</time>
      </trkpt>
      <trkpt lat="44.71026" lon="5.98056">
        <ele>1994</ele>
        <time>2021-09-20T11:36:10Z</time>
      </trkpt>
      <trkpt lat="44.71026" lon="5.98056">
        <ele>1994</ele>
        <time>2021-09-20T11:36:11Z</time>
      </trkpt>
      <trkpt lat="44.71027" lon="5.98055">
        <ele>1994</ele>
        <time>2021-09-20T11:36:12Z</time>
      </trkpt>
      <trkpt lat="44.71027" lon="5.98055">
        <ele>1994</ele>
        <time>2021-09-20T11:36:13Z</time>
      </trkpt>
      <trkpt lat="44.71028" lon="5.98054">
        <ele>1994</ele>
        <time>2021-09-20T11:36:14Z</time>
      </trkpt>
      <trkpt lat="44.71028" lon="5.98052">
        <ele>1993</ele>
        <time>2021-09-20T11:36:25Z</time>
      </trkpt>
      <trkpt lat="44.71029" lon="5.9805">
        <ele>1993</ele>
        <time>2021-09-20T11:36:26Z</time>
      </trkpt>
      <trkpt lat="44.71029" lon="5.98049">
        <ele>1993</ele>
        <time>2021-09-20T11:36:27Z</time>
      </trkpt>
      <trkpt lat="44.71029" lon="5.98048">
        <ele>1992</ele>
        <time>2021-09-20T11:36:28Z</time>
      </trkpt>
      <trkpt lat="44.71029" lon="5.98047">
        <ele>1992</ele>
        <time>2021-09-20T11:36:29Z</time>
      </trkpt>
      <trkpt lat="44.71029" lon="5.98044">
        <ele>1991</ele>
        <time>2021-09-20T11:36:36Z</time>
      </trkpt>
      <trkpt lat="44.71029" lon="5.98043">
        <ele>1991</ele>
        <time>2021-09-20T11:36:37Z</time>
      </trkpt>
      <trkpt lat="44.71029" lon="5.98042">
        <ele>1990</ele>
        <time>2021-09-20T11:36:38Z</time>
      </trkpt>
      <trkpt lat="44.71029" lon="5.98041">
        <ele>1990</ele>
        <time>2021-09-20T11:36:39Z</time>
      </trkpt>
      <trkpt lat="44.71029" lon="5.9804">
        <ele>1990</ele>
        <time>2021-09-20T11:36:40Z</time>
      </trkpt>
      <trkpt lat="44.71029" lon="5.9804">
        <ele>1990</ele>
        <time>2021-09-20T11:36:41Z</time>
      </trkpt>
      <trkpt lat="44.71029" lon="5.98039">
        <ele>1990</ele>
        <time>2021-09-20T11:36:42Z</time>
      </trkpt>
      <trkpt lat="44.71029" lon="5.98039">
        <ele>1989</ele>
        <time>2021-09-20T11:36:43Z</time>
      </trkpt>
      <trkpt lat="44.71029" lon="5.98038">
        <ele>1989</ele>
        <time>2021-09-20T11:36:44Z</time>
      </trkpt>
      <trkpt lat="44.71029" lon="5.98037">
        <ele>1989</ele>
        <time>2021-09-20T11:36:45Z</time>
      </trkpt>
      <trkpt lat="44.71028" lon="5.98037">
        <ele>1989</ele>
        <time>2021-09-20T11:36:46Z</time>
      </trkpt>
      <trkpt lat="44.71028" lon="5.98037">
        <ele>1989</ele>
        <time>2021-09-20T11:36:47Z</time>
      </trkpt>
      <trkpt lat="44.71027" lon="5.98036">
        <ele>1988</ele>
        <time>2021-09-20T11:36:48Z</time>
      </trkpt>
      <trkpt lat="44.71027" lon="5.98036">
        <ele>1988</ele>
        <time>2021-09-20T11:36:49Z</time>
      </trkpt>
      <trkpt lat="44.71027" lon="5.98035">
        <ele>1988</ele>
        <time>2021-09-20T11:36:50Z</time>
      </trkpt>
      <trkpt lat="44.71026" lon="5.98035">
        <ele>1988</ele>
        <time>2021-09-20T11:36:51Z</time>
      </trkpt>
      <trkpt lat="44.71026" lon="5.98034">
        <ele>1988</ele>
        <time>2021-09-20T11:36:52Z</time>
      </trkpt>
      <trkpt lat="44.71026" lon="5.98034">
        <ele>1987</ele>
        <time>2021-09-20T11:36:53Z</time>
      </trkpt>
      <trkpt lat="44.71026" lon="5.98033">
        <ele>1987</ele>
        <time>2021-09-20T11:36:54Z</time>
      </trkpt>
      <trkpt lat="44.71026" lon="5.98032">
        <ele>1987</ele>
        <time>2021-09-20T11:36:55Z</time>
      </trkpt>
      <trkpt lat="44.71026" lon="5.98031">
        <ele>1987</ele>
        <time>2021-09-20T11:36:56Z</time>
      </trkpt>
      <trkpt lat="44.71026" lon="5.9803">
        <ele>1987</ele>
        <time>2021-09-20T11:36:57Z</time>
      </trkpt>
      <trkpt lat="44.71026" lon="5.98029">
        <ele>1986</ele>
        <time>2021-09-20T11:36:58Z</time>
      </trkpt>
      <trkpt lat="44.71026" lon="5.98028">
        <ele>1986</ele>
        <time>2021-09-20T11:36:59Z</time>
      </trkpt>
      <trkpt lat="44.71026" lon="5.98027">
        <ele>1986</ele>
        <time>2021-09-20T11:37:00Z</time>
      </trkpt>
      <trkpt lat="44.71026" lon="5.98026">
        <ele>1986</ele>
        <time>2021-09-20T11:37:01Z</time>
      </trkpt>
      <trkpt lat="44.71027" lon="5.98025">
        <ele>1986</ele>
        <time>2021-09-20T11:37:02Z</time>
      </trkpt>
      <trkpt lat="44.71027" lon="5.98025">
        <ele>1985</ele>
        <time>2021-09-20T11:37:03Z</time>
      </trkpt>
      <trkpt lat="44.71027" lon="5.98024">
        <ele>1985</ele>
        <time>2021-09-20T11:37:04Z</time>
      </trkpt>
      <trkpt lat="44.71027" lon="5.98023">
        <ele>1985</ele>
        <time>2021-09-20T11:37:05Z</time>
      </trkpt>
      <trkpt lat="44.71027" lon="5.98022">
        <ele>1985</ele>
        <time>2021-09-20T11:37:06Z</time>
      </trkpt>
      <trkpt lat="44.71027" lon="5.98022">
        <ele>1982</ele>
        <time>2021-09-20T11:37:21Z</time>
      </trkpt>
      <trkpt lat="44.71026" lon="5.98021">
        <ele>1982</ele>
        <time>2021-09-20T11:37:22Z</time>
      </trkpt>
      <trkpt lat="44.71026" lon="5.9802">
        <ele>1982</ele>
        <time>2021-09-20T11:37:23Z</time>
      </trkpt>
      <trkpt lat="44.71026" lon="5.9802">
        <ele>1982</ele>
        <time>2021-09-20T11:37:24Z</time>
      </trkpt>
      <trkpt lat="44.71026" lon="5.98019">
        <ele>1982</ele>
        <time>2021-09-20T11:37:25Z</time>
      </trkpt>
      <trkpt lat="44.71026" lon="5.98019">
        <ele>1982</ele>
        <time>2021-09-20T11:37:26Z</time>
      </trkpt>
      <trkpt lat="44.71026" lon="5.98019">
        <ele>1982</ele>
        <time>2021-09-20T11:37:27Z</time>
      </trkpt>
      <trkpt lat="44.71026" lon="5.98018">
        <ele>1981</ele>
        <time>2021-09-20T11:37:28Z</time>
      </trkpt>
      <trkpt lat="44.71025" lon="5.98017">
        <ele>1981</ele>
        <time>2021-09-20T11:37:29Z</time>
      </trkpt>
      <trkpt lat="44.71025" lon="5.98016">
        <ele>1981</ele>
        <time>2021-09-20T11:37:30Z</time>
      </trkpt>
      <trkpt lat="44.71025" lon="5.98016">
        <ele>1981</ele>
        <time>2021-09-20T11:37:31Z</time>
      </trkpt>
      <trkpt lat="44.71025" lon="5.98015">
        <ele>1981</ele>
        <time>2021-09-20T11:37:32Z</time>
      </trkpt>
      <trkpt lat="44.71025" lon="5.98014">
        <ele>1981</ele>
        <time>2021-09-20T11:37:33Z</time>
      </trkpt>
      <trkpt lat="44.71025" lon="5.98013">
        <ele>1981</ele>
        <time>2021-09-20T11:37:34Z</time>
      </trkpt>
      <trkpt lat="44.71025" lon="5.98012">
        <ele>1981</ele>
        <time>2021-09-20T11:37:35Z</time>
      </trkpt>
      <trkpt lat="44.71026" lon="5.98011">
        <ele>1981</ele>
        <time>2021-09-20T11:37:36Z</time>
      </trkpt>
      <trkpt lat="44.71026" lon="5.9801">
        <ele>1981</ele>
        <time>2021-09-20T11:37:37Z</time>
      </trkpt>
      <trkpt lat="44.71026" lon="5.98009">
        <ele>1980</ele>
        <time>2021-09-20T11:37:38Z</time>
      </trkpt>
      <trkpt lat="44.71027" lon="5.98008">
        <ele>1979</ele>
        <time>2021-09-20T11:37:44Z</time>
      </trkpt>
      <trkpt lat="44.71027" lon="5.98006">
        <ele>1979</ele>
        <time>2021-09-20T11:37:45Z</time>
      </trkpt>
      <trkpt lat="44.71028" lon="5.98005">
        <ele>1979</ele>
        <time>2021-09-20T11:37:46Z</time>
      </trkpt>
      <trkpt lat="44.71028" lon="5.98004">
        <ele>1979</ele>
        <time>2021-09-20T11:37:47Z</time>
      </trkpt>
      <trkpt lat="44.71028" lon="5.98003">
        <ele>1978</ele>
        <time>2021-09-20T11:37:48Z</time>
      </trkpt>
      <trkpt lat="44.71028" lon="5.98002">
        <ele>1978</ele>
        <time>2021-09-20T11:37:49Z</time>
      </trkpt>
      <trkpt lat="44.71028" lon="5.98001">
        <ele>1978</ele>
        <time>2021-09-20T11:37:50Z</time>
      </trkpt>
      <trkpt lat="44.71029" lon="5.97998">
        <ele>1976</ele>
        <time>2021-09-20T11:38:02Z</time>
      </trkpt>
      <trkpt lat="44.71029" lon="5.97996">
        <ele>1976</ele>
        <time>2021-09-20T11:38:03Z</time>
      </trkpt>
      <trkpt lat="44.71029" lon="5.97994">
        <ele>1976</ele>
        <time>2021-09-20T11:38:04Z</time>
      </trkpt>
      <trkpt lat="44.71029" lon="5.97993">
        <ele>1976</ele>
        <time>2021-09-20T11:38:05Z</time>
      </trkpt>
      <trkpt lat="44.71029" lon="5.97992">
        <ele>1976</ele>
        <time>2021-09-20T11:38:06Z</time>
      </trkpt>
      <trkpt lat="44.7103" lon="5.97988">
        <ele>1974</ele>
        <time>2021-09-20T11:38:20Z</time>
      </trkpt>
      <trkpt lat="44.71031" lon="5.97986">
        <ele>1974</ele>
        <time>2021-09-20T11:38:21Z</time>
      </trkpt>
      <trkpt lat="44.71031" lon="5.97984">
        <ele>1974</ele>
        <time>2021-09-20T11:38:22Z</time>
      </trkpt>
      <trkpt lat="44.71031" lon="5.97982">
        <ele>1973</ele>
        <time>2021-09-20T11:38:23Z</time>
      </trkpt>
      <trkpt lat="44.71032" lon="5.97981">
        <ele>1973</ele>
        <time>2021-09-20T11:38:24Z</time>
      </trkpt>
      <trkpt lat="44.71032" lon="5.9798">
        <ele>1973</ele>
        <time>2021-09-20T11:38:25Z</time>
      </trkpt>
      <trkpt lat="44.71032" lon="5.97979">
        <ele>1973</ele>
        <time>2021-09-20T11:38:26Z</time>
      </trkpt>
      <trkpt lat="44.71032" lon="5.97978">
        <ele>1973</ele>
        <time>2021-09-20T11:38:27Z</time>
      </trkpt>
      <trkpt lat="44.71032" lon="5.97977">
        <ele>1972</ele>
        <time>2021-09-20T11:38:28Z</time>
      </trkpt>
      <trkpt lat="44.71032" lon="5.97976">
        <ele>1972</ele>
        <time>2021-09-20T11:38:29Z</time>
      </trkpt>
      <trkpt lat="44.71032" lon="5.97976">
        <ele>1972</ele>
        <time>2021-09-20T11:38:30Z</time>
      </trkpt>
      <trkpt lat="44.71032" lon="5.97975">
        <ele>1972</ele>
        <time>2021-09-20T11:38:31Z</time>
      </trkpt>
      <trkpt lat="44.71032" lon="5.97974">
        <ele>1972</ele>
        <time>2021-09-20T11:38:32Z</time>
      </trkpt>
      <trkpt lat="44.71032" lon="5.97974">
        <ele>1971</ele>
        <time>2021-09-20T11:38:33Z</time>
      </trkpt>
      <trkpt lat="44.71032" lon="5.97973">
        <ele>1971</ele>
        <time>2021-09-20T11:38:34Z</time>
      </trkpt>
      <trkpt lat="44.71031" lon="5.97972">
        <ele>1971</ele>
        <time>2021-09-20T11:38:35Z</time>
      </trkpt>
      <trkpt lat="44.71031" lon="5.97971">
        <ele>1971</ele>
        <time>2021-09-20T11:38:36Z</time>
      </trkpt>
      <trkpt lat="44.71031" lon="5.9797">
        <ele>1971</ele>
        <time>2021-09-20T11:38:37Z</time>
      </trkpt>
      <trkpt lat="44.71031" lon="5.97969">
        <ele>1970</ele>
        <time>2021-09-20T11:38:38Z</time>
      </trkpt>
      <trkpt lat="44.71031" lon="5.97968">
        <ele>1970</ele>
        <time>2021-09-20T11:38:39Z</time>
      </trkpt>
      <trkpt lat="44.71031" lon="5.97967">
        <ele>1970</ele>
        <time>2021-09-20T11:38:40Z</time>
      </trkpt>
      <trkpt lat="44.7103" lon="5.97965">
        <ele>1969</ele>
        <time>2021-09-20T11:38:50Z</time>
      </trkpt>
      <trkpt lat="44.71029" lon="5.97963">
        <ele>1969</ele>
        <time>2021-09-20T11:38:51Z</time>
      </trkpt>
      <trkpt lat="44.71029" lon="5.97962">
        <ele>1969</ele>
        <time>2021-09-20T11:38:52Z</time>
      </trkpt>
      <trkpt lat="44.71028" lon="5.97962">
        <ele>1968</ele>
        <time>2021-09-20T11:38:53Z</time>
      </trkpt>
      <trkpt lat="44.71028" lon="5.97961">
        <ele>1968</ele>
        <time>2021-09-20T11:38:54Z</time>
      </trkpt>
      <trkpt lat="44.71028" lon="5.9796">
        <ele>1968</ele>
        <time>2021-09-20T11:38:55Z</time>
      </trkpt>
      <trkpt lat="44.71027" lon="5.97959">
        <ele>1968</ele>
        <time>2021-09-20T11:38:56Z</time>
      </trkpt>
      <trkpt lat="44.71027" lon="5.97958">
        <ele>1968</ele>
        <time>2021-09-20T11:38:57Z</time>
      </trkpt>
      <trkpt lat="44.71027" lon="5.97958">
        <ele>1967</ele>
        <time>2021-09-20T11:38:58Z</time>
      </trkpt>
      <trkpt lat="44.71026" lon="5.97957">
        <ele>1967</ele>
        <time>2021-09-20T11:38:59Z</time>
      </trkpt>
      <trkpt lat="44.71026" lon="5.97956">
        <ele>1965</ele>
        <time>2021-09-20T11:39:09Z</time>
      </trkpt>
      <trkpt lat="44.71025" lon="5.97955">
        <ele>1965</ele>
        <time>2021-09-20T11:39:10Z</time>
      </trkpt>
      <trkpt lat="44.71025" lon="5.97955">
        <ele>1965</ele>
        <time>2021-09-20T11:39:11Z</time>
      </trkpt>
      <trkpt lat="44.71024" lon="5.97954">
        <ele>1965</ele>
        <time>2021-09-20T11:39:12Z</time>
      </trkpt>
      <trkpt lat="44.71024" lon="5.97954">
        <ele>1964</ele>
        <time>2021-09-20T11:39:13Z</time>
      </trkpt>
      <trkpt lat="44.71023" lon="5.97953">
        <ele>1964</ele>
        <time>2021-09-20T11:39:14Z</time>
      </trkpt>
      <trkpt lat="44.71023" lon="5.97953">
        <ele>1964</ele>
        <time>2021-09-20T11:39:15Z</time>
      </trkpt>
      <trkpt lat="44.71022" lon="5.97953">
        <ele>1964</ele>
        <time>2021-09-20T11:39:16Z</time>
      </trkpt>
      <trkpt lat="44.71022" lon="5.97952">
        <ele>1964</ele>
        <time>2021-09-20T11:39:17Z</time>
      </trkpt>
      <trkpt lat="44.71021" lon="5.97952">
        <ele>1963</ele>
        <time>2021-09-20T11:39:18Z</time>
      </trkpt>
      <trkpt lat="44.71021" lon="5.97951">
        <ele>1963</ele>
        <time>2021-09-20T11:39:19Z</time>
      </trkpt>
      <trkpt lat="44.71021" lon="5.97951">
        <ele>1963</ele>
        <time>2021-09-20T11:39:20Z</time>
      </trkpt>
      <trkpt lat="44.7102" lon="5.97951">
        <ele>1963</ele>
        <time>2021-09-20T11:39:21Z</time>
      </trkpt>
      <trkpt lat="44.7102" lon="5.9795">
        <ele>1963</ele>
        <time>2021-09-20T11:39:22Z</time>
      </trkpt>
      <trkpt lat="44.71019" lon="5.9795">
        <ele>1962</ele>
        <time>2021-09-20T11:39:23Z</time>
      </trkpt>
      <trkpt lat="44.71018" lon="5.9795">
        <ele>1962</ele>
        <time>2021-09-20T11:39:24Z</time>
      </trkpt>
      <trkpt lat="44.71018" lon="5.97951">
        <ele>1962</ele>
        <time>2021-09-20T11:39:25Z</time>
      </trkpt>
      <trkpt lat="44.71018" lon="5.97951">
        <ele>1962</ele>
        <time>2021-09-20T11:39:26Z</time>
      </trkpt>
      <trkpt lat="44.71017" lon="5.97951">
        <ele>1962</ele>
        <time>2021-09-20T11:39:27Z</time>
      </trkpt>
      <trkpt lat="44.71017" lon="5.97951">
        <ele>1961</ele>
        <time>2021-09-20T11:39:28Z</time>
      </trkpt>
      <trkpt lat="44.71016" lon="5.97951">
        <ele>1961</ele>
        <time>2021-09-20T11:39:29Z</time>
      </trkpt>
      <trkpt lat="44.71016" lon="5.9795">
        <ele>1961</ele>
        <time>2021-09-20T11:39:30Z</time>
      </trkpt>
      <trkpt lat="44.71015" lon="5.9795">
        <ele>1961</ele>
        <time>2021-09-20T11:39:31Z</time>
      </trkpt>
      <trkpt lat="44.71015" lon="5.97949">
        <ele>1961</ele>
        <time>2021-09-20T11:39:32Z</time>
      </trkpt>
      <trkpt lat="44.71015" lon="5.97949">
        <ele>1960</ele>
        <time>2021-09-20T11:39:33Z</time>
      </trkpt>
      <trkpt lat="44.71014" lon="5.97949">
        <ele>1960</ele>
        <time>2021-09-20T11:39:34Z</time>
      </trkpt>
      <trkpt lat="44.71014" lon="5.97948">
        <ele>1960</ele>
        <time>2021-09-20T11:39:35Z</time>
      </trkpt>
      <trkpt lat="44.71013" lon="5.97948">
        <ele>1960</ele>
        <time>2021-09-20T11:39:36Z</time>
      </trkpt>
      <trkpt lat="44.71013" lon="5.97948">
        <ele>1960</ele>
        <time>2021-09-20T11:39:37Z</time>
      </trkpt>
      <trkpt lat="44.71012" lon="5.97948">
        <ele>1959</ele>
        <time>2021-09-20T11:39:38Z</time>
      </trkpt>
      <trkpt lat="44.71012" lon="5.97948">
        <ele>1959</ele>
        <time>2021-09-20T11:39:39Z</time>
      </trkpt>
      <trkpt lat="44.71011" lon="5.97947">
        <ele>1959</ele>
        <time>2021-09-20T11:39:40Z</time>
      </trkpt>
      <trkpt lat="44.71011" lon="5.97947">
        <ele>1959</ele>
        <time>2021-09-20T11:39:41Z</time>
      </trkpt>
      <trkpt lat="44.71011" lon="5.97947">
        <ele>1959</ele>
        <time>2021-09-20T11:39:42Z</time>
      </trkpt>
      <trkpt lat="44.7101" lon="5.97946">
        <ele>1958</ele>
        <time>2021-09-20T11:39:43Z</time>
      </trkpt>
      <trkpt lat="44.7101" lon="5.97946">
        <ele>1958</ele>
        <time>2021-09-20T11:39:44Z</time>
      </trkpt>
      <trkpt lat="44.7101" lon="5.97946">
        <ele>1957</ele>
        <time>2021-09-20T11:39:45Z</time>
      </trkpt>
      <trkpt lat="44.71009" lon="5.97946">
        <ele>1957</ele>
        <time>2021-09-20T11:39:46Z</time>
      </trkpt>
      <trkpt lat="44.71009" lon="5.97946">
        <ele>1957</ele>
        <time>2021-09-20T11:39:47Z</time>
      </trkpt>
      <trkpt lat="44.71008" lon="5.97945">
        <ele>1956</ele>
        <time>2021-09-20T11:39:48Z</time>
      </trkpt>
      <trkpt lat="44.71008" lon="5.97945">
        <ele>1956</ele>
        <time>2021-09-20T11:39:49Z</time>
      </trkpt>
      <trkpt lat="44.71007" lon="5.97945">
        <ele>1956</ele>
        <time>2021-09-20T11:39:50Z</time>
      </trkpt>
      <trkpt lat="44.71007" lon="5.97945">
        <ele>1956</ele>
        <time>2021-09-20T11:39:51Z</time>
      </trkpt>
      <trkpt lat="44.71007" lon="5.97944">
        <ele>1956</ele>
        <time>2021-09-20T11:39:52Z</time>
      </trkpt>
      <trkpt lat="44.71006" lon="5.97944">
        <ele>1955</ele>
        <time>2021-09-20T11:39:53Z</time>
      </trkpt>
      <trkpt lat="44.71005" lon="5.97943">
        <ele>1955</ele>
        <time>2021-09-20T11:39:54Z</time>
      </trkpt>
      <trkpt lat="44.71005" lon="5.97943">
        <ele>1955</ele>
        <time>2021-09-20T11:39:55Z</time>
      </trkpt>
      <trkpt lat="44.71005" lon="5.97942">
        <ele>1955</ele>
        <time>2021-09-20T11:39:56Z</time>
      </trkpt>
      <trkpt lat="44.71004" lon="5.97941">
        <ele>1955</ele>
        <time>2021-09-20T11:39:57Z</time>
      </trkpt>
      <trkpt lat="44.71004" lon="5.97941">
        <ele>1954</ele>
        <time>2021-09-20T11:39:58Z</time>
      </trkpt>
      <trkpt lat="44.71004" lon="5.97941">
        <ele>1954</ele>
        <time>2021-09-20T11:39:59Z</time>
      </trkpt>
      <trkpt lat="44.71003" lon="5.9794">
        <ele>1954</ele>
        <time>2021-09-20T11:40:00Z</time>
      </trkpt>
      <trkpt lat="44.71003" lon="5.9794">
        <ele>1954</ele>
        <time>2021-09-20T11:40:01Z</time>
      </trkpt>
      <trkpt lat="44.71003" lon="5.97939">
        <ele>1954</ele>
        <time>2021-09-20T11:40:02Z</time>
      </trkpt>
      <trkpt lat="44.71002" lon="5.97939">
        <ele>1953</ele>
        <time>2021-09-20T11:40:03Z</time>
      </trkpt>
      <trkpt lat="44.71002" lon="5.97938">
        <ele>1953</ele>
        <time>2021-09-20T11:40:04Z</time>
      </trkpt>
      <trkpt lat="44.71001" lon="5.97938">
        <ele>1952</ele>
        <time>2021-09-20T11:40:05Z</time>
      </trkpt>
      <trkpt lat="44.71001" lon="5.97937">
        <ele>1952</ele>
        <time>2021-09-20T11:40:06Z</time>
      </trkpt>
      <trkpt lat="44.71" lon="5.97937">
        <ele>1952</ele>
        <time>2021-09-20T11:40:07Z</time>
      </trkpt>
      <trkpt lat="44.71" lon="5.97936">
        <ele>1951</ele>
        <time>2021-09-20T11:40:08Z</time>
      </trkpt>
      <trkpt lat="44.71" lon="5.97936">
        <ele>1951</ele>
        <time>2021-09-20T11:40:09Z</time>
      </trkpt>
      <trkpt lat="44.70999" lon="5.97935">
        <ele>1951</ele>
        <time>2021-09-20T11:40:10Z</time>
      </trkpt>
      <trkpt lat="44.70999" lon="5.97935">
        <ele>1951</ele>
        <time>2021-09-20T11:40:11Z</time>
      </trkpt>
      <trkpt lat="44.70997" lon="5.97932">
        <ele>1948</ele>
        <time>2021-09-20T11:40:27Z</time>
      </trkpt>
      <trkpt lat="44.70996" lon="5.9793">
        <ele>1947</ele>
        <time>2021-09-20T11:40:28Z</time>
      </trkpt>
      <trkpt lat="44.70995" lon="5.97929">
        <ele>1947</ele>
        <time>2021-09-20T11:40:29Z</time>
      </trkpt>
      <trkpt lat="44.70994" lon="5.97928">
        <ele>1947</ele>
        <time>2021-09-20T11:40:30Z</time>
      </trkpt>
      <trkpt lat="44.70994" lon="5.97927">
        <ele>1947</ele>
        <time>2021-09-20T11:40:31Z</time>
      </trkpt>
      <trkpt lat="44.70992" lon="5.97924">
        <ele>1944</ele>
        <time>2021-09-20T11:40:43Z</time>
      </trkpt>
      <trkpt lat="44.70991" lon="5.97922">
        <ele>1944</ele>
        <time>2021-09-20T11:40:44Z</time>
      </trkpt>
      <trkpt lat="44.70991" lon="5.97921">
        <ele>1944</ele>
        <time>2021-09-20T11:40:45Z</time>
      </trkpt>
      <trkpt lat="44.7099" lon="5.9792">
        <ele>1944</ele>
        <time>2021-09-20T11:40:46Z</time>
      </trkpt>
      <trkpt lat="44.7099" lon="5.97919">
        <ele>1944</ele>
        <time>2021-09-20T11:40:47Z</time>
      </trkpt>
      <trkpt lat="44.7099" lon="5.97919">
        <ele>1944</ele>
        <time>2021-09-20T11:40:48Z</time>
      </trkpt>
      <trkpt lat="44.70989" lon="5.97918">
        <ele>1944</ele>
        <time>2021-09-20T11:40:49Z</time>
      </trkpt>
      <trkpt lat="44.70989" lon="5.97917">
        <ele>1944</ele>
        <time>2021-09-20T11:40:50Z</time>
      </trkpt>
      <trkpt lat="44.70987" lon="5.97915">
        <ele>1942</ele>
        <time>2021-09-20T11:41:02Z</time>
      </trkpt>
      <trkpt lat="44.70986" lon="5.97914">
        <ele>1941</ele>
        <time>2021-09-20T11:41:03Z</time>
      </trkpt>
      <trkpt lat="44.70985" lon="5.97913">
        <ele>1941</ele>
        <time>2021-09-20T11:41:04Z</time>
      </trkpt>
      <trkpt lat="44.70984" lon="5.97912">
        <ele>1941</ele>
        <time>2021-09-20T11:41:05Z</time>
      </trkpt>
      <trkpt lat="44.70983" lon="5.97911">
        <ele>1941</ele>
        <time>2021-09-20T11:41:06Z</time>
      </trkpt>
      <trkpt lat="44.70983" lon="5.97911">
        <ele>1941</ele>
        <time>2021-09-20T11:41:07Z</time>
      </trkpt>
      <trkpt lat="44.70982" lon="5.9791">
        <ele>1940</ele>
        <time>2021-09-20T11:41:08Z</time>
      </trkpt>
      <trkpt lat="44.70982" lon="5.9791">
        <ele>1940</ele>
        <time>2021-09-20T11:41:09Z</time>
      </trkpt>
      <trkpt lat="44.70981" lon="5.97909">
        <ele>1940</ele>
        <time>2021-09-20T11:41:10Z</time>
      </trkpt>
      <trkpt lat="44.70981" lon="5.97908">
        <ele>1940</ele>
        <time>2021-09-20T11:41:11Z</time>
      </trkpt>
      <trkpt lat="44.7098" lon="5.97908">
        <ele>1940</ele>
        <time>2021-09-20T11:41:12Z</time>
      </trkpt>
      <trkpt lat="44.70979" lon="5.97907">
        <ele>1939</ele>
        <time>2021-09-20T11:41:13Z</time>
      </trkpt>
      <trkpt lat="44.70978" lon="5.97906">
        <ele>1939</ele>
        <time>2021-09-20T11:41:14Z</time>
      </trkpt>
      <trkpt lat="44.70977" lon="5.97906">
        <ele>1939</ele>
        <time>2021-09-20T11:41:15Z</time>
      </trkpt>
      <trkpt lat="44.70977" lon="5.97905">
        <ele>1939</ele>
        <time>2021-09-20T11:41:16Z</time>
      </trkpt>
      <trkpt lat="44.70976" lon="5.97905">
        <ele>1939</ele>
        <time>2021-09-20T11:41:17Z</time>
      </trkpt>
      <trkpt lat="44.70975" lon="5.97904">
        <ele>1938</ele>
        <time>2021-09-20T11:41:18Z</time>
      </trkpt>
      <trkpt lat="44.70974" lon="5.97904">
        <ele>1938</ele>
        <time>2021-09-20T11:41:19Z</time>
      </trkpt>
      <trkpt lat="44.70973" lon="5.97904">
        <ele>1936</ele>
        <time>2021-09-20T11:43:10Z</time>
      </trkpt>
      <trkpt lat="44.70973" lon="5.97905">
        <ele>1936</ele>
        <time>2021-09-20T11:43:11Z</time>
      </trkpt>
      <trkpt lat="44.70973" lon="5.97905">
        <ele>1936</ele>
        <time>2021-09-20T11:43:12Z</time>
      </trkpt>
      <trkpt lat="44.70973" lon="5.97906">
        <ele>1935</ele>
        <time>2021-09-20T11:44:09Z</time>
      </trkpt>
      <trkpt lat="44.70972" lon="5.97907">
        <ele>1935</ele>
        <time>2021-09-20T11:44:10Z</time>
      </trkpt>
      <trkpt lat="44.70972" lon="5.97907">
        <ele>1935</ele>
        <time>2021-09-20T11:44:11Z</time>
      </trkpt>
      <trkpt lat="44.70972" lon="5.97908">
        <ele>1935</ele>
        <time>2021-09-20T11:44:12Z</time>
      </trkpt>
      <trkpt lat="44.70972" lon="5.97909">
        <ele>1935</ele>
        <time>2021-09-20T11:44:13Z</time>
      </trkpt>
      <trkpt lat="44.70971" lon="5.97909">
        <ele>1935</ele>
        <time>2021-09-20T11:44:14Z</time>
      </trkpt>
      <trkpt lat="44.70971" lon="5.9791">
        <ele>1935</ele>
        <time>2021-09-20T11:44:15Z</time>
      </trkpt>
      <trkpt lat="44.7097" lon="5.97911">
        <ele>1935</ele>
        <time>2021-09-20T11:44:16Z</time>
      </trkpt>
      <trkpt lat="44.70969" lon="5.97911">
        <ele>1935</ele>
        <time>2021-09-20T11:44:17Z</time>
      </trkpt>
      <trkpt lat="44.70968" lon="5.97912">
        <ele>1935</ele>
        <time>2021-09-20T11:44:18Z</time>
      </trkpt>
      <trkpt lat="44.70967" lon="5.97912">
        <ele>1935</ele>
        <time>2021-09-20T11:44:19Z</time>
      </trkpt>
      <trkpt lat="44.70966" lon="5.97913">
        <ele>1935</ele>
        <time>2021-09-20T11:44:20Z</time>
      </trkpt>
      <trkpt lat="44.70966" lon="5.97913">
        <ele>1935</ele>
        <time>2021-09-20T11:44:21Z</time>
      </trkpt>
      <trkpt lat="44.70965" lon="5.97913">
        <ele>1935</ele>
        <time>2021-09-20T11:44:22Z</time>
      </trkpt>
      <trkpt lat="44.70964" lon="5.97913">
        <ele>1934</ele>
        <time>2021-09-20T11:44:23Z</time>
      </trkpt>
      <trkpt lat="44.70963" lon="5.97914">
        <ele>1934</ele>
        <time>2021-09-20T11:44:24Z</time>
      </trkpt>
      <trkpt lat="44.70962" lon="5.97914">
        <ele>1934</ele>
        <time>2021-09-20T11:44:25Z</time>
      </trkpt>
      <trkpt lat="44.70961" lon="5.97914">
        <ele>1934</ele>
        <time>2021-09-20T11:44:26Z</time>
      </trkpt>
      <trkpt lat="44.7096" lon="5.97915">
        <ele>1934</ele>
        <time>2021-09-20T11:44:27Z</time>
      </trkpt>
      <trkpt lat="44.7096" lon="5.97915">
        <ele>1933</ele>
        <time>2021-09-20T11:44:28Z</time>
      </trkpt>
      <trkpt lat="44.70959" lon="5.97916">
        <ele>1933</ele>
        <time>2021-09-20T11:44:29Z</time>
      </trkpt>
      <trkpt lat="44.70958" lon="5.97916">
        <ele>1933</ele>
        <time>2021-09-20T11:44:30Z</time>
      </trkpt>
      <trkpt lat="44.70957" lon="5.97916">
        <ele>1933</ele>
        <time>2021-09-20T11:44:31Z</time>
      </trkpt>
      <trkpt lat="44.70957" lon="5.97916">
        <ele>1933</ele>
        <time>2021-09-20T11:44:32Z</time>
      </trkpt>
      <trkpt lat="44.70956" lon="5.97917">
        <ele>1932</ele>
        <time>2021-09-20T11:44:33Z</time>
      </trkpt>
      <trkpt lat="44.70955" lon="5.97917">
        <ele>1932</ele>
        <time>2021-09-20T11:44:34Z</time>
      </trkpt>
      <trkpt lat="44.70954" lon="5.97917">
        <ele>1932</ele>
        <time>2021-09-20T11:44:35Z</time>
      </trkpt>
      <trkpt lat="44.70953" lon="5.97918">
        <ele>1932</ele>
        <time>2021-09-20T11:44:36Z</time>
      </trkpt>
      <trkpt lat="44.70953" lon="5.97918">
        <ele>1932</ele>
        <time>2021-09-20T11:44:37Z</time>
      </trkpt>
      <trkpt lat="44.70952" lon="5.97919">
        <ele>1931</ele>
        <time>2021-09-20T11:44:38Z</time>
      </trkpt>
      <trkpt lat="44.70951" lon="5.97919">
        <ele>1931</ele>
        <time>2021-09-20T11:44:39Z</time>
      </trkpt>
      <trkpt lat="44.7095" lon="5.9792">
        <ele>1931</ele>
        <time>2021-09-20T11:44:40Z</time>
      </trkpt>
      <trkpt lat="44.7095" lon="5.97921">
        <ele>1931</ele>
        <time>2021-09-20T11:44:41Z</time>
      </trkpt>
      <trkpt lat="44.70949" lon="5.97921">
        <ele>1931</ele>
        <time>2021-09-20T11:44:42Z</time>
      </trkpt>
      <trkpt lat="44.70948" lon="5.97922">
        <ele>1930</ele>
        <time>2021-09-20T11:44:43Z</time>
      </trkpt>
      <trkpt lat="44.70947" lon="5.97922">
        <ele>1930</ele>
        <time>2021-09-20T11:44:44Z</time>
      </trkpt>
      <trkpt lat="44.70947" lon="5.97923">
        <ele>1929</ele>
        <time>2021-09-20T11:44:45Z</time>
      </trkpt>
      <trkpt lat="44.70946" lon="5.97923">
        <ele>1929</ele>
        <time>2021-09-20T11:44:46Z</time>
      </trkpt>
      <trkpt lat="44.70945" lon="5.97923">
        <ele>1929</ele>
        <time>2021-09-20T11:44:47Z</time>
      </trkpt>
      <trkpt lat="44.70944" lon="5.97923">
        <ele>1927</ele>
        <time>2021-09-20T11:44:55Z</time>
      </trkpt>
      <trkpt lat="44.70943" lon="5.97923">
        <ele>1927</ele>
        <time>2021-09-20T11:44:56Z</time>
      </trkpt>
      <trkpt lat="44.70943" lon="5.97923">
        <ele>1927</ele>
        <time>2021-09-20T11:44:57Z</time>
      </trkpt>
      <trkpt lat="44.70942" lon="5.97923">
        <ele>1926</ele>
        <time>2021-09-20T11:44:58Z</time>
      </trkpt>
      <trkpt lat="44.70942" lon="5.97924">
        <ele>1926</ele>
        <time>2021-09-20T11:44:59Z</time>
      </trkpt>
      <trkpt lat="44.70942" lon="5.97924">
        <ele>1926</ele>
        <time>2021-09-20T11:45:00Z</time>
      </trkpt>
      <trkpt lat="44.70942" lon="5.97924">
        <ele>1926</ele>
        <time>2021-09-20T11:45:01Z</time>
      </trkpt>
      <trkpt lat="44.70941" lon="5.97925">
        <ele>1926</ele>
        <time>2021-09-20T11:45:02Z</time>
      </trkpt>
      <trkpt lat="44.70941" lon="5.97925">
        <ele>1926</ele>
        <time>2021-09-20T11:45:03Z</time>
      </trkpt>
      <trkpt lat="44.7094" lon="5.97926">
        <ele>1926</ele>
        <time>2021-09-20T11:45:04Z</time>
      </trkpt>
      <trkpt lat="44.70939" lon="5.97926">
        <ele>1926</ele>
        <time>2021-09-20T11:45:05Z</time>
      </trkpt>
      <trkpt lat="44.70939" lon="5.97926">
        <ele>1926</ele>
        <time>2021-09-20T11:45:06Z</time>
      </trkpt>
      <trkpt lat="44.70938" lon="5.97926">
        <ele>1926</ele>
        <time>2021-09-20T11:45:07Z</time>
      </trkpt>
      <trkpt lat="44.70937" lon="5.97926">
        <ele>1925</ele>
        <time>2021-09-20T11:45:08Z</time>
      </trkpt>
      <trkpt lat="44.70937" lon="5.97926">
        <ele>1925</ele>
        <time>2021-09-20T11:45:09Z</time>
      </trkpt>
      <trkpt lat="44.70936" lon="5.97926">
        <ele>1925</ele>
        <time>2021-09-20T11:45:10Z</time>
      </trkpt>
      <trkpt lat="44.70935" lon="5.97926">
        <ele>1925</ele>
        <time>2021-09-20T11:45:11Z</time>
      </trkpt>
      <trkpt lat="44.70934" lon="5.97926">
        <ele>1925</ele>
        <time>2021-09-20T11:45:12Z</time>
      </trkpt>
      <trkpt lat="44.70933" lon="5.97927">
        <ele>1925</ele>
        <time>2021-09-20T11:45:13Z</time>
      </trkpt>
      <trkpt lat="44.70932" lon="5.97927">
        <ele>1925</ele>
        <time>2021-09-20T11:45:14Z</time>
      </trkpt>
      <trkpt lat="44.70931" lon="5.97927">
        <ele>1925</ele>
        <time>2021-09-20T11:45:15Z</time>
      </trkpt>
      <trkpt lat="44.70931" lon="5.97927">
        <ele>1925</ele>
        <time>2021-09-20T11:45:16Z</time>
      </trkpt>
      <trkpt lat="44.7093" lon="5.97927">
        <ele>1925</ele>
        <time>2021-09-20T11:45:17Z</time>
      </trkpt>
      <trkpt lat="44.70929" lon="5.97927">
        <ele>1924</ele>
        <time>2021-09-20T11:45:18Z</time>
      </trkpt>
      <trkpt lat="44.70928" lon="5.97928">
        <ele>1924</ele>
        <time>2021-09-20T11:45:19Z</time>
      </trkpt>
      <trkpt lat="44.70928" lon="5.97928">
        <ele>1923</ele>
        <time>2021-09-20T11:45:20Z</time>
      </trkpt>
      <trkpt lat="44.70927" lon="5.97928">
        <ele>1923</ele>
        <time>2021-09-20T11:45:21Z</time>
      </trkpt>
      <trkpt lat="44.70927" lon="5.97929">
        <ele>1923</ele>
        <time>2021-09-20T11:45:22Z</time>
      </trkpt>
      <trkpt lat="44.70926" lon="5.9793">
        <ele>1922</ele>
        <time>2021-09-20T11:45:23Z</time>
      </trkpt>
      <trkpt lat="44.70926" lon="5.97931">
        <ele>1922</ele>
        <time>2021-09-20T11:45:24Z</time>
      </trkpt>
      <trkpt lat="44.70926" lon="5.97932">
        <ele>1922</ele>
        <time>2021-09-20T11:45:25Z</time>
      </trkpt>
      <trkpt lat="44.70925" lon="5.97933">
        <ele>1922</ele>
        <time>2021-09-20T11:45:26Z</time>
      </trkpt>
      <trkpt lat="44.70925" lon="5.97934">
        <ele>1922</ele>
        <time>2021-09-20T11:45:27Z</time>
      </trkpt>
      <trkpt lat="44.70925" lon="5.97935">
        <ele>1921</ele>
        <time>2021-09-20T11:45:28Z</time>
      </trkpt>
      <trkpt lat="44.70924" lon="5.97936">
        <ele>1921</ele>
        <time>2021-09-20T11:45:29Z</time>
      </trkpt>
      <trkpt lat="44.70924" lon="5.97937">
        <ele>1921</ele>
        <time>2021-09-20T11:45:30Z</time>
      </trkpt>
      <trkpt lat="44.70923" lon="5.97937">
        <ele>1921</ele>
        <time>2021-09-20T11:45:31Z</time>
      </trkpt>
      <trkpt lat="44.70922" lon="5.97937">
        <ele>1921</ele>
        <time>2021-09-20T11:45:32Z</time>
      </trkpt>
      <trkpt lat="44.70921" lon="5.97937">
        <ele>1920</ele>
        <time>2021-09-20T11:45:33Z</time>
      </trkpt>
      <trkpt lat="44.7092" lon="5.97936">
        <ele>1919</ele>
        <time>2021-09-20T11:45:34Z</time>
      </trkpt>
      <trkpt lat="44.70919" lon="5.97936">
        <ele>1919</ele>
        <time>2021-09-20T11:45:35Z</time>
      </trkpt>
      <trkpt lat="44.70918" lon="5.97936">
        <ele>1918</ele>
        <time>2021-09-20T11:45:36Z</time>
      </trkpt>
      <trkpt lat="44.70917" lon="5.97936">
        <ele>1918</ele>
        <time>2021-09-20T11:45:37Z</time>
      </trkpt>
      <trkpt lat="44.70917" lon="5.97936">
        <ele>1917</ele>
        <time>2021-09-20T11:45:38Z</time>
      </trkpt>
      <trkpt lat="44.70916" lon="5.97936">
        <ele>1917</ele>
        <time>2021-09-20T11:45:39Z</time>
      </trkpt>
      <trkpt lat="44.70915" lon="5.97936">
        <ele>1917</ele>
        <time>2021-09-20T11:45:40Z</time>
      </trkpt>
      <trkpt lat="44.70915" lon="5.97937">
        <ele>1917</ele>
        <time>2021-09-20T11:45:41Z</time>
      </trkpt>
      <trkpt lat="44.70915" lon="5.97938">
        <ele>1917</ele>
        <time>2021-09-20T11:45:42Z</time>
      </trkpt>
      <trkpt lat="44.70914" lon="5.97939">
        <ele>1916</ele>
        <time>2021-09-20T11:45:43Z</time>
      </trkpt>
      <trkpt lat="44.70914" lon="5.9794">
        <ele>1916</ele>
        <time>2021-09-20T11:45:44Z</time>
      </trkpt>
      <trkpt lat="44.70913" lon="5.97941">
        <ele>1915</ele>
        <time>2021-09-20T11:45:45Z</time>
      </trkpt>
      <trkpt lat="44.70913" lon="5.97942">
        <ele>1915</ele>
        <time>2021-09-20T11:45:46Z</time>
      </trkpt>
      <trkpt lat="44.70912" lon="5.97943">
        <ele>1915</ele>
        <time>2021-09-20T11:45:47Z</time>
      </trkpt>
      <trkpt lat="44.70912" lon="5.97944">
        <ele>1914</ele>
        <time>2021-09-20T11:45:48Z</time>
      </trkpt>
      <trkpt lat="44.70911" lon="5.97945">
        <ele>1914</ele>
        <time>2021-09-20T11:45:49Z</time>
      </trkpt>
      <trkpt lat="44.7091" lon="5.97945">
        <ele>1914</ele>
        <time>2021-09-20T11:45:50Z</time>
      </trkpt>
      <trkpt lat="44.70909" lon="5.97945">
        <ele>1914</ele>
        <time>2021-09-20T11:45:51Z</time>
      </trkpt>
      <trkpt lat="44.70908" lon="5.97946">
        <ele>1914</ele>
        <time>2021-09-20T11:45:52Z</time>
      </trkpt>
      <trkpt lat="44.70907" lon="5.97946">
        <ele>1913</ele>
        <time>2021-09-20T11:45:53Z</time>
      </trkpt>
      <trkpt lat="44.70906" lon="5.97945">
        <ele>1913</ele>
        <time>2021-09-20T11:45:54Z</time>
      </trkpt>
      <trkpt lat="44.70905" lon="5.97945">
        <ele>1912</ele>
        <time>2021-09-20T11:45:55Z</time>
      </trkpt>
      <trkpt lat="44.70904" lon="5.97945">
        <ele>1912</ele>
        <time>2021-09-20T11:45:56Z</time>
      </trkpt>
      <trkpt lat="44.70903" lon="5.97945">
        <ele>1912</ele>
        <time>2021-09-20T11:45:57Z</time>
      </trkpt>
      <trkpt lat="44.70903" lon="5.97945">
        <ele>1911</ele>
        <time>2021-09-20T11:45:58Z</time>
      </trkpt>
      <trkpt lat="44.70902" lon="5.97945">
        <ele>1911</ele>
        <time>2021-09-20T11:45:59Z</time>
      </trkpt>
      <trkpt lat="44.70901" lon="5.97945">
        <ele>1911</ele>
        <time>2021-09-20T11:46:00Z</time>
      </trkpt>
      <trkpt lat="44.709" lon="5.97945">
        <ele>1911</ele>
        <time>2021-09-20T11:46:01Z</time>
      </trkpt>
      <trkpt lat="44.70899" lon="5.97945">
        <ele>1911</ele>
        <time>2021-09-20T11:46:02Z</time>
      </trkpt>
      <trkpt lat="44.70899" lon="5.97946">
        <ele>1910</ele>
        <time>2021-09-20T11:46:03Z</time>
      </trkpt>
      <trkpt lat="44.70899" lon="5.97946">
        <ele>1910</ele>
        <time>2021-09-20T11:46:04Z</time>
      </trkpt>
      <trkpt lat="44.70898" lon="5.97947">
        <ele>1909</ele>
        <time>2021-09-20T11:46:05Z</time>
      </trkpt>
      <trkpt lat="44.70898" lon="5.97948">
        <ele>1909</ele>
        <time>2021-09-20T11:46:06Z</time>
      </trkpt>
      <trkpt lat="44.70897" lon="5.97949">
        <ele>1909</ele>
        <time>2021-09-20T11:46:07Z</time>
      </trkpt>
      <trkpt lat="44.70896" lon="5.9795">
        <ele>1908</ele>
        <time>2021-09-20T11:46:08Z</time>
      </trkpt>
      <trkpt lat="44.70896" lon="5.9795">
        <ele>1908</ele>
        <time>2021-09-20T11:46:09Z</time>
      </trkpt>
      <trkpt lat="44.70895" lon="5.9795">
        <ele>1908</ele>
        <time>2021-09-20T11:46:10Z</time>
      </trkpt>
      <trkpt lat="44.70894" lon="5.97951">
        <ele>1908</ele>
        <time>2021-09-20T11:46:11Z</time>
      </trkpt>
      <trkpt lat="44.70893" lon="5.97951">
        <ele>1908</ele>
        <time>2021-09-20T11:46:12Z</time>
      </trkpt>
      <trkpt lat="44.70893" lon="5.97951">
        <ele>1907</ele>
        <time>2021-09-20T11:46:13Z</time>
      </trkpt>
      <trkpt lat="44.70892" lon="5.97951">
        <ele>1907</ele>
        <time>2021-09-20T11:46:14Z</time>
      </trkpt>
      <trkpt lat="44.70891" lon="5.97951">
        <ele>1906</ele>
        <time>2021-09-20T11:46:15Z</time>
      </trkpt>
      <trkpt lat="44.7089" lon="5.97951">
        <ele>1906</ele>
        <time>2021-09-20T11:46:16Z</time>
      </trkpt>
      <trkpt lat="44.70889" lon="5.97951">
        <ele>1906</ele>
        <time>2021-09-20T11:46:17Z</time>
      </trkpt>
      <trkpt lat="44.70888" lon="5.97951">
        <ele>1905</ele>
        <time>2021-09-20T11:46:18Z</time>
      </trkpt>
      <trkpt lat="44.70887" lon="5.97951">
        <ele>1905</ele>
        <time>2021-09-20T11:46:19Z</time>
      </trkpt>
      <trkpt lat="44.70886" lon="5.97951">
        <ele>1904</ele>
        <time>2021-09-20T11:46:20Z</time>
      </trkpt>
      <trkpt lat="44.70885" lon="5.97951">
        <ele>1904</ele>
        <time>2021-09-20T11:46:21Z</time>
      </trkpt>
      <trkpt lat="44.70884" lon="5.97951">
        <ele>1904</ele>
        <time>2021-09-20T11:46:22Z</time>
      </trkpt>
      <trkpt lat="44.70883" lon="5.97951">
        <ele>1903</ele>
        <time>2021-09-20T11:46:23Z</time>
      </trkpt>
      <trkpt lat="44.70882" lon="5.9795">
        <ele>1903</ele>
        <time>2021-09-20T11:46:24Z</time>
      </trkpt>
      <trkpt lat="44.70881" lon="5.9795">
        <ele>1902</ele>
        <time>2021-09-20T11:46:25Z</time>
      </trkpt>
      <trkpt lat="44.7088" lon="5.9795">
        <ele>1902</ele>
        <time>2021-09-20T11:46:26Z</time>
      </trkpt>
      <trkpt lat="44.7088" lon="5.9795">
        <ele>1902</ele>
        <time>2021-09-20T11:46:27Z</time>
      </trkpt>
      <trkpt lat="44.70879" lon="5.97951">
        <ele>1901</ele>
        <time>2021-09-20T11:46:28Z</time>
      </trkpt>
      <trkpt lat="44.70878" lon="5.97951">
        <ele>1901</ele>
        <time>2021-09-20T11:46:29Z</time>
      </trkpt>
      <trkpt lat="44.70877" lon="5.97951">
        <ele>1901</ele>
        <time>2021-09-20T11:46:30Z</time>
      </trkpt>
      <trkpt lat="44.70876" lon="5.97952">
        <ele>1901</ele>
        <time>2021-09-20T11:46:31Z</time>
      </trkpt>
      <trkpt lat="44.70875" lon="5.97952">
        <ele>1901</ele>
        <time>2021-09-20T11:46:32Z</time>
      </trkpt>
      <trkpt lat="44.70874" lon="5.97952">
        <ele>1900</ele>
        <time>2021-09-20T11:46:33Z</time>
      </trkpt>
      <trkpt lat="44.70873" lon="5.97952">
        <ele>1900</ele>
        <time>2021-09-20T11:46:34Z</time>
      </trkpt>
      <trkpt lat="44.70872" lon="5.97952">
        <ele>1899</ele>
        <time>2021-09-20T11:46:35Z</time>
      </trkpt>
      <trkpt lat="44.70871" lon="5.97952">
        <ele>1899</ele>
        <time>2021-09-20T11:46:36Z</time>
      </trkpt>
      <trkpt lat="44.7087" lon="5.97952">
        <ele>1899</ele>
        <time>2021-09-20T11:46:37Z</time>
      </trkpt>
      <trkpt lat="44.70869" lon="5.97952">
        <ele>1898</ele>
        <time>2021-09-20T11:46:38Z</time>
      </trkpt>
      <trkpt lat="44.70868" lon="5.97952">
        <ele>1898</ele>
        <time>2021-09-20T11:46:39Z</time>
      </trkpt>
      <trkpt lat="44.70867" lon="5.97952">
        <ele>1898</ele>
        <time>2021-09-20T11:46:40Z</time>
      </trkpt>
      <trkpt lat="44.70867" lon="5.97953">
        <ele>1898</ele>
        <time>2021-09-20T11:46:41Z</time>
      </trkpt>
      <trkpt lat="44.70866" lon="5.97953">
        <ele>1898</ele>
        <time>2021-09-20T11:46:42Z</time>
      </trkpt>
      <trkpt lat="44.70865" lon="5.97954">
        <ele>1897</ele>
        <time>2021-09-20T11:46:43Z</time>
      </trkpt>
      <trkpt lat="44.70864" lon="5.97954">
        <ele>1897</ele>
        <time>2021-09-20T11:46:44Z</time>
      </trkpt>
      <trkpt lat="44.70864" lon="5.97955">
        <ele>1896</ele>
        <time>2021-09-20T11:46:45Z</time>
      </trkpt>
      <trkpt lat="44.70863" lon="5.97957">
        <ele>1896</ele>
        <time>2021-09-20T11:46:46Z</time>
      </trkpt>
      <trkpt lat="44.70862" lon="5.97958">
        <ele>1896</ele>
        <time>2021-09-20T11:46:47Z</time>
      </trkpt>
      <trkpt lat="44.70862" lon="5.97959">
        <ele>1895</ele>
        <time>2021-09-20T11:46:48Z</time>
      </trkpt>
      <trkpt lat="44.70861" lon="5.9796">
        <ele>1895</ele>
        <time>2021-09-20T11:46:49Z</time>
      </trkpt>
      <trkpt lat="44.70861" lon="5.97961">
        <ele>1895</ele>
        <time>2021-09-20T11:46:50Z</time>
      </trkpt>
      <trkpt lat="44.7086" lon="5.97961">
        <ele>1895</ele>
        <time>2021-09-20T11:46:51Z</time>
      </trkpt>
      <trkpt lat="44.70859" lon="5.97962">
        <ele>1895</ele>
        <time>2021-09-20T11:46:52Z</time>
      </trkpt>
      <trkpt lat="44.70858" lon="5.97962">
        <ele>1894</ele>
        <time>2021-09-20T11:46:53Z</time>
      </trkpt>
      <trkpt lat="44.70857" lon="5.97963">
        <ele>1894</ele>
        <time>2021-09-20T11:46:54Z</time>
      </trkpt>
      <trkpt lat="44.70856" lon="5.97963">
        <ele>1893</ele>
        <time>2021-09-20T11:46:55Z</time>
      </trkpt>
      <trkpt lat="44.70855" lon="5.97963">
        <ele>1893</ele>
        <time>2021-09-20T11:46:56Z</time>
      </trkpt>
      <trkpt lat="44.70854" lon="5.97963">
        <ele>1893</ele>
        <time>2021-09-20T11:46:57Z</time>
      </trkpt>
      <trkpt lat="44.70853" lon="5.97964">
        <ele>1892</ele>
        <time>2021-09-20T11:46:58Z</time>
      </trkpt>
      <trkpt lat="44.70852" lon="5.97964">
        <ele>1892</ele>
        <time>2021-09-20T11:46:59Z</time>
      </trkpt>
      <trkpt lat="44.7085" lon="5.97964">
        <ele>1892</ele>
        <time>2021-09-20T11:47:00Z</time>
      </trkpt>
      <trkpt lat="44.70849" lon="5.97965">
        <ele>1892</ele>
        <time>2021-09-20T11:47:01Z</time>
      </trkpt>
      <trkpt lat="44.70848" lon="5.97965">
        <ele>1892</ele>
        <time>2021-09-20T11:47:02Z</time>
      </trkpt>
      <trkpt lat="44.70846" lon="5.97965">
        <ele>1891</ele>
        <time>2021-09-20T11:47:03Z</time>
      </trkpt>
      <trkpt lat="44.70845" lon="5.97966">
        <ele>1891</ele>
        <time>2021-09-20T11:47:04Z</time>
      </trkpt>
      <trkpt lat="44.70844" lon="5.97966">
        <ele>1891</ele>
        <time>2021-09-20T11:47:05Z</time>
      </trkpt>
      <trkpt lat="44.70843" lon="5.97966">
        <ele>1891</ele>
        <time>2021-09-20T11:47:06Z</time>
      </trkpt>
      <trkpt lat="44.70842" lon="5.97967">
        <ele>1891</ele>
        <time>2021-09-20T11:47:07Z</time>
      </trkpt>
      <trkpt lat="44.70841" lon="5.97968">
        <ele>1890</ele>
        <time>2021-09-20T11:47:08Z</time>
      </trkpt>
      <trkpt lat="44.7084" lon="5.97968">
        <ele>1890</ele>
        <time>2021-09-20T11:47:09Z</time>
      </trkpt>
      <trkpt lat="44.70839" lon="5.97969">
        <ele>1889</ele>
        <time>2021-09-20T11:47:10Z</time>
      </trkpt>
      <trkpt lat="44.70838" lon="5.97969">
        <ele>1889</ele>
        <time>2021-09-20T11:47:11Z</time>
      </trkpt>
      <trkpt lat="44.70837" lon="5.97969">
        <ele>1889</ele>
        <time>2021-09-20T11:47:12Z</time>
      </trkpt>
      <trkpt lat="44.70836" lon="5.97969">
        <ele>1889</ele>
        <time>2021-09-20T11:47:13Z</time>
      </trkpt>
      <trkpt lat="44.70835" lon="5.9797">
        <ele>1889</ele>
        <time>2021-09-20T11:47:14Z</time>
      </trkpt>
      <trkpt lat="44.70833" lon="5.9797">
        <ele>1889</ele>
        <time>2021-09-20T11:47:15Z</time>
      </trkpt>
      <trkpt lat="44.70832" lon="5.9797">
        <ele>1889</ele>
        <time>2021-09-20T11:47:16Z</time>
      </trkpt>
      <trkpt lat="44.70831" lon="5.97971">
        <ele>1889</ele>
        <time>2021-09-20T11:47:17Z</time>
      </trkpt>
      <trkpt lat="44.7083" lon="5.97971">
        <ele>1888</ele>
        <time>2021-09-20T11:47:18Z</time>
      </trkpt>
      <trkpt lat="44.70829" lon="5.97971">
        <ele>1888</ele>
        <time>2021-09-20T11:47:19Z</time>
      </trkpt>
      <trkpt lat="44.70828" lon="5.97971">
        <ele>1888</ele>
        <time>2021-09-20T11:47:20Z</time>
      </trkpt>
      <trkpt lat="44.70827" lon="5.97971">
        <ele>1888</ele>
        <time>2021-09-20T11:47:21Z</time>
      </trkpt>
      <trkpt lat="44.70826" lon="5.97971">
        <ele>1888</ele>
        <time>2021-09-20T11:47:22Z</time>
      </trkpt>
      <trkpt lat="44.70825" lon="5.97971">
        <ele>1887</ele>
        <time>2021-09-20T11:47:23Z</time>
      </trkpt>
      <trkpt lat="44.70824" lon="5.97971">
        <ele>1887</ele>
        <time>2021-09-20T11:47:24Z</time>
      </trkpt>
      <trkpt lat="44.70824" lon="5.97972">
        <ele>1886</ele>
        <time>2021-09-20T11:47:25Z</time>
      </trkpt>
      <trkpt lat="44.70823" lon="5.97972">
        <ele>1886</ele>
        <time>2021-09-20T11:47:26Z</time>
      </trkpt>
      <trkpt lat="44.70822" lon="5.97973">
        <ele>1886</ele>
        <time>2021-09-20T11:47:27Z</time>
      </trkpt>
      <trkpt lat="44.70821" lon="5.97973">
        <ele>1885</ele>
        <time>2021-09-20T11:47:28Z</time>
      </trkpt>
      <trkpt lat="44.7082" lon="5.97973">
        <ele>1885</ele>
        <time>2021-09-20T11:47:29Z</time>
      </trkpt>
      <trkpt lat="44.70819" lon="5.97974">
        <ele>1884</ele>
        <time>2021-09-20T11:47:30Z</time>
      </trkpt>
      <trkpt lat="44.70818" lon="5.97974">
        <ele>1884</ele>
        <time>2021-09-20T11:47:31Z</time>
      </trkpt>
      <trkpt lat="44.70817" lon="5.97975">
        <ele>1884</ele>
        <time>2021-09-20T11:47:32Z</time>
      </trkpt>
      <trkpt lat="44.70816" lon="5.97975">
        <ele>1883</ele>
        <time>2021-09-20T11:47:33Z</time>
      </trkpt>
      <trkpt lat="44.70815" lon="5.97976">
        <ele>1883</ele>
        <time>2021-09-20T11:47:34Z</time>
      </trkpt>
      <trkpt lat="44.70814" lon="5.97976">
        <ele>1883</ele>
        <time>2021-09-20T11:47:35Z</time>
      </trkpt>
      <trkpt lat="44.70813" lon="5.97976">
        <ele>1883</ele>
        <time>2021-09-20T11:47:36Z</time>
      </trkpt>
      <trkpt lat="44.70812" lon="5.97977">
        <ele>1883</ele>
        <time>2021-09-20T11:47:37Z</time>
      </trkpt>
      <trkpt lat="44.70811" lon="5.97977">
        <ele>1882</ele>
        <time>2021-09-20T11:47:38Z</time>
      </trkpt>
      <trkpt lat="44.70811" lon="5.97978">
        <ele>1882</ele>
        <time>2021-09-20T11:47:39Z</time>
      </trkpt>
      <trkpt lat="44.7081" lon="5.97978">
        <ele>1881</ele>
        <time>2021-09-20T11:47:40Z</time>
      </trkpt>
      <trkpt lat="44.70809" lon="5.97978">
        <ele>1881</ele>
        <time>2021-09-20T11:47:41Z</time>
      </trkpt>
      <trkpt lat="44.70808" lon="5.97979">
        <ele>1881</ele>
        <time>2021-09-20T11:47:42Z</time>
      </trkpt>
      <trkpt lat="44.70807" lon="5.97979">
        <ele>1880</ele>
        <time>2021-09-20T11:47:43Z</time>
      </trkpt>
      <trkpt lat="44.70805" lon="5.97979">
        <ele>1880</ele>
        <time>2021-09-20T11:47:44Z</time>
      </trkpt>
      <trkpt lat="44.70804" lon="5.9798">
        <ele>1880</ele>
        <time>2021-09-20T11:47:45Z</time>
      </trkpt>
      <trkpt lat="44.70803" lon="5.9798">
        <ele>1880</ele>
        <time>2021-09-20T11:47:46Z</time>
      </trkpt>
      <trkpt lat="44.70802" lon="5.9798">
        <ele>1880</ele>
        <time>2021-09-20T11:47:47Z</time>
      </trkpt>
      <trkpt lat="44.70801" lon="5.97981">
        <ele>1879</ele>
        <time>2021-09-20T11:47:48Z</time>
      </trkpt>
      <trkpt lat="44.70801" lon="5.97981">
        <ele>1879</ele>
        <time>2021-09-20T11:47:49Z</time>
      </trkpt>
      <trkpt lat="44.708" lon="5.97981">
        <ele>1879</ele>
        <time>2021-09-20T11:47:50Z</time>
      </trkpt>
      <trkpt lat="44.70799" lon="5.97982">
        <ele>1879</ele>
        <time>2021-09-20T11:47:51Z</time>
      </trkpt>
      <trkpt lat="44.70798" lon="5.97983">
        <ele>1879</ele>
        <time>2021-09-20T11:47:52Z</time>
      </trkpt>
      <trkpt lat="44.70798" lon="5.97983">
        <ele>1878</ele>
        <time>2021-09-20T11:47:53Z</time>
      </trkpt>
      <trkpt lat="44.70796" lon="5.97984">
        <ele>1876</ele>
        <time>2021-09-20T11:48:05Z</time>
      </trkpt>
      <trkpt lat="44.70795" lon="5.97985">
        <ele>1876</ele>
        <time>2021-09-20T11:48:06Z</time>
      </trkpt>
      <trkpt lat="44.70795" lon="5.97985">
        <ele>1876</ele>
        <time>2021-09-20T11:48:07Z</time>
      </trkpt>
      <trkpt lat="44.70794" lon="5.97985">
        <ele>1876</ele>
        <time>2021-09-20T11:48:08Z</time>
      </trkpt>
      <trkpt lat="44.70794" lon="5.97985">
        <ele>1876</ele>
        <time>2021-09-20T11:48:09Z</time>
      </trkpt>
      <trkpt lat="44.70792" lon="5.97983">
        <ele>1875</ele>
        <time>2021-09-20T11:48:30Z</time>
      </trkpt>
      <trkpt lat="44.70792" lon="5.97981">
        <ele>1875</ele>
        <time>2021-09-20T11:48:31Z</time>
      </trkpt>
      <trkpt lat="44.70791" lon="5.9798">
        <ele>1875</ele>
        <time>2021-09-20T11:48:32Z</time>
      </trkpt>
      <trkpt lat="44.7079" lon="5.97979">
        <ele>1875</ele>
        <time>2021-09-20T11:48:42Z</time>
      </trkpt>
      <trkpt lat="44.7079" lon="5.97979">
        <ele>1875</ele>
        <time>2021-09-20T11:48:43Z</time>
      </trkpt>
      <trkpt lat="44.7079" lon="5.97979">
        <ele>1875</ele>
        <time>2021-09-20T11:48:44Z</time>
      </trkpt>
      <trkpt lat="44.7079" lon="5.9798">
        <ele>1875</ele>
        <time>2021-09-20T11:48:45Z</time>
      </trkpt>
      <trkpt lat="44.70791" lon="5.9798">
        <ele>1875</ele>
        <time>2021-09-20T11:48:46Z</time>
      </trkpt>
      <trkpt lat="44.70791" lon="5.97981">
        <ele>1876</ele>
        <time>2021-09-20T11:49:16Z</time>
      </trkpt>
      <trkpt lat="44.70791" lon="5.97982">
        <ele>1876</ele>
        <time>2021-09-20T11:49:17Z</time>
      </trkpt>
      <trkpt lat="44.70792" lon="5.97983">
        <ele>1875</ele>
        <time>2021-09-20T11:49:18Z</time>
      </trkpt>
      <trkpt lat="44.70792" lon="5.97984">
        <ele>1875</ele>
        <time>2021-09-20T11:49:19Z</time>
      </trkpt>
      <trkpt lat="44.70792" lon="5.97985">
        <ele>1875</ele>
        <time>2021-09-20T11:49:20Z</time>
      </trkpt>
      <trkpt lat="44.70792" lon="5.97986">
        <ele>1875</ele>
        <time>2021-09-20T11:49:21Z</time>
      </trkpt>
      <trkpt lat="44.70791" lon="5.97987">
        <ele>1875</ele>
        <time>2021-09-20T11:49:22Z</time>
      </trkpt>
      <trkpt lat="44.70791" lon="5.97988">
        <ele>1875</ele>
        <time>2021-09-20T11:49:23Z</time>
      </trkpt>
      <trkpt lat="44.7079" lon="5.97989">
        <ele>1875</ele>
        <time>2021-09-20T11:49:24Z</time>
      </trkpt>
      <trkpt lat="44.7079" lon="5.9799">
        <ele>1875</ele>
        <time>2021-09-20T11:49:25Z</time>
      </trkpt>
      <trkpt lat="44.70789" lon="5.9799">
        <ele>1875</ele>
        <time>2021-09-20T11:49:26Z</time>
      </trkpt>
      <trkpt lat="44.70789" lon="5.97991">
        <ele>1875</ele>
        <time>2021-09-20T11:49:27Z</time>
      </trkpt>
      <trkpt lat="44.70789" lon="5.97992">
        <ele>1875</ele>
        <time>2021-09-20T11:49:28Z</time>
      </trkpt>
      <trkpt lat="44.70789" lon="5.97993">
        <ele>1875</ele>
        <time>2021-09-20T11:49:29Z</time>
      </trkpt>
      <trkpt lat="44.70789" lon="5.97994">
        <ele>1875</ele>
        <time>2021-09-20T11:49:30Z</time>
      </trkpt>
      <trkpt lat="44.70788" lon="5.97995">
        <ele>1875</ele>
        <time>2021-09-20T11:49:31Z</time>
      </trkpt>
      <trkpt lat="44.70788" lon="5.97996">
        <ele>1875</ele>
        <time>2021-09-20T11:49:32Z</time>
      </trkpt>
      <trkpt lat="44.70788" lon="5.97997">
        <ele>1874</ele>
        <time>2021-09-20T11:49:33Z</time>
      </trkpt>
      <trkpt lat="44.70788" lon="5.97997">
        <ele>1874</ele>
        <time>2021-09-20T11:49:34Z</time>
      </trkpt>
      <trkpt lat="44.70788" lon="5.97998">
        <ele>1874</ele>
        <time>2021-09-20T11:49:35Z</time>
      </trkpt>
      <trkpt lat="44.70788" lon="5.97998">
        <ele>1874</ele>
        <time>2021-09-20T11:49:36Z</time>
      </trkpt>
      <trkpt lat="44.70787" lon="5.97999">
        <ele>1874</ele>
        <time>2021-09-20T11:49:37Z</time>
      </trkpt>
      <trkpt lat="44.70787" lon="5.98">
        <ele>1873</ele>
        <time>2021-09-20T11:49:38Z</time>
      </trkpt>
      <trkpt lat="44.70787" lon="5.98001">
        <ele>1873</ele>
        <time>2021-09-20T11:49:39Z</time>
      </trkpt>
      <trkpt lat="44.70787" lon="5.98002">
        <ele>1873</ele>
        <time>2021-09-20T11:49:40Z</time>
      </trkpt>
      <trkpt lat="44.70787" lon="5.98004">
        <ele>1873</ele>
        <time>2021-09-20T11:49:41Z</time>
      </trkpt>
      <trkpt lat="44.70786" lon="5.98005">
        <ele>1873</ele>
        <time>2021-09-20T11:49:42Z</time>
      </trkpt>
      <trkpt lat="44.70786" lon="5.98006">
        <ele>1872</ele>
        <time>2021-09-20T11:49:43Z</time>
      </trkpt>
      <trkpt lat="44.70786" lon="5.98007">
        <ele>1872</ele>
        <time>2021-09-20T11:49:44Z</time>
      </trkpt>
      <trkpt lat="44.70785" lon="5.98008">
        <ele>1872</ele>
        <time>2021-09-20T11:49:45Z</time>
      </trkpt>
      <trkpt lat="44.70785" lon="5.98009">
        <ele>1872</ele>
        <time>2021-09-20T11:49:46Z</time>
      </trkpt>
      <trkpt lat="44.70784" lon="5.9801">
        <ele>1872</ele>
        <time>2021-09-20T11:49:47Z</time>
      </trkpt>
      <trkpt lat="44.70784" lon="5.98011">
        <ele>1872</ele>
        <time>2021-09-20T11:49:48Z</time>
      </trkpt>
      <trkpt lat="44.70784" lon="5.98012">
        <ele>1872</ele>
        <time>2021-09-20T11:49:49Z</time>
      </trkpt>
      <trkpt lat="44.70783" lon="5.98014">
        <ele>1872</ele>
        <time>2021-09-20T11:49:50Z</time>
      </trkpt>
      <trkpt lat="44.70783" lon="5.98015">
        <ele>1872</ele>
        <time>2021-09-20T11:49:51Z</time>
      </trkpt>
      <trkpt lat="44.70783" lon="5.98016">
        <ele>1872</ele>
        <time>2021-09-20T11:49:52Z</time>
      </trkpt>
      <trkpt lat="44.70783" lon="5.98017">
        <ele>1871</ele>
        <time>2021-09-20T11:49:53Z</time>
      </trkpt>
      <trkpt lat="44.70783" lon="5.98018">
        <ele>1871</ele>
        <time>2021-09-20T11:49:54Z</time>
      </trkpt>
      <trkpt lat="44.70783" lon="5.9802">
        <ele>1870</ele>
        <time>2021-09-20T11:49:55Z</time>
      </trkpt>
      <trkpt lat="44.70783" lon="5.98021">
        <ele>1870</ele>
        <time>2021-09-20T11:49:56Z</time>
      </trkpt>
      <trkpt lat="44.70783" lon="5.98022">
        <ele>1870</ele>
        <time>2021-09-20T11:49:57Z</time>
      </trkpt>
      <trkpt lat="44.70783" lon="5.98023">
        <ele>1869</ele>
        <time>2021-09-20T11:49:58Z</time>
      </trkpt>
      <trkpt lat="44.70783" lon="5.98024">
        <ele>1869</ele>
        <time>2021-09-20T11:49:59Z</time>
      </trkpt>
      <trkpt lat="44.70783" lon="5.98025">
        <ele>1869</ele>
        <time>2021-09-20T11:50:00Z</time>
      </trkpt>
      <trkpt lat="44.70783" lon="5.98026">
        <ele>1869</ele>
        <time>2021-09-20T11:50:01Z</time>
      </trkpt>
      <trkpt lat="44.70783" lon="5.98027">
        <ele>1869</ele>
        <time>2021-09-20T11:50:02Z</time>
      </trkpt>
      <trkpt lat="44.70784" lon="5.98028">
        <ele>1868</ele>
        <time>2021-09-20T11:50:03Z</time>
      </trkpt>
      <trkpt lat="44.70784" lon="5.9803">
        <ele>1868</ele>
        <time>2021-09-20T11:50:04Z</time>
      </trkpt>
      <trkpt lat="44.70784" lon="5.98031">
        <ele>1868</ele>
        <time>2021-09-20T11:50:05Z</time>
      </trkpt>
      <trkpt lat="44.70784" lon="5.98032">
        <ele>1868</ele>
        <time>2021-09-20T11:50:06Z</time>
      </trkpt>
      <trkpt lat="44.70784" lon="5.98033">
        <ele>1868</ele>
        <time>2021-09-20T11:50:07Z</time>
      </trkpt>
      <trkpt lat="44.70784" lon="5.98034">
        <ele>1867</ele>
        <time>2021-09-20T11:50:08Z</time>
      </trkpt>
      <trkpt lat="44.70784" lon="5.98036">
        <ele>1867</ele>
        <time>2021-09-20T11:50:09Z</time>
      </trkpt>
      <trkpt lat="44.70784" lon="5.98037">
        <ele>1867</ele>
        <time>2021-09-20T11:50:10Z</time>
      </trkpt>
      <trkpt lat="44.70784" lon="5.98039">
        <ele>1867</ele>
        <time>2021-09-20T11:50:11Z</time>
      </trkpt>
      <trkpt lat="44.70784" lon="5.9804">
        <ele>1867</ele>
        <time>2021-09-20T11:50:12Z</time>
      </trkpt>
      <trkpt lat="44.70784" lon="5.98042">
        <ele>1866</ele>
        <time>2021-09-20T11:50:13Z</time>
      </trkpt>
      <trkpt lat="44.70784" lon="5.98044">
        <ele>1866</ele>
        <time>2021-09-20T11:50:14Z</time>
      </trkpt>
      <trkpt lat="44.70785" lon="5.98045">
        <ele>1866</ele>
        <time>2021-09-20T11:50:15Z</time>
      </trkpt>
      <trkpt lat="44.70785" lon="5.98047">
        <ele>1866</ele>
        <time>2021-09-20T11:50:16Z</time>
      </trkpt>
      <trkpt lat="44.70785" lon="5.98048">
        <ele>1866</ele>
        <time>2021-09-20T11:50:17Z</time>
      </trkpt>
      <trkpt lat="44.70785" lon="5.98049">
        <ele>1866</ele>
        <time>2021-09-20T11:50:18Z</time>
      </trkpt>
      <trkpt lat="44.70785" lon="5.98051">
        <ele>1866</ele>
        <time>2021-09-20T11:50:19Z</time>
      </trkpt>
      <trkpt lat="44.70784" lon="5.98052">
        <ele>1866</ele>
        <time>2021-09-20T11:50:20Z</time>
      </trkpt>
      <trkpt lat="44.70784" lon="5.98053">
        <ele>1866</ele>
        <time>2021-09-20T11:50:21Z</time>
      </trkpt>
      <trkpt lat="44.70783" lon="5.98054">
        <ele>1866</ele>
        <time>2021-09-20T11:50:22Z</time>
      </trkpt>
      <trkpt lat="44.70783" lon="5.98055">
        <ele>1865</ele>
        <time>2021-09-20T11:50:23Z</time>
      </trkpt>
      <trkpt lat="44.70783" lon="5.98056">
        <ele>1865</ele>
        <time>2021-09-20T11:50:24Z</time>
      </trkpt>
      <trkpt lat="44.70782" lon="5.98057">
        <ele>1865</ele>
        <time>2021-09-20T11:50:25Z</time>
      </trkpt>
      <trkpt lat="44.70782" lon="5.98057">
        <ele>1865</ele>
        <time>2021-09-20T11:50:26Z</time>
      </trkpt>
      <trkpt lat="44.70781" lon="5.98058">
        <ele>1865</ele>
        <time>2021-09-20T11:50:27Z</time>
      </trkpt>
      <trkpt lat="44.70781" lon="5.98059">
        <ele>1864</ele>
        <time>2021-09-20T11:50:28Z</time>
      </trkpt>
      <trkpt lat="44.70781" lon="5.9806">
        <ele>1864</ele>
        <time>2021-09-20T11:50:29Z</time>
      </trkpt>
      <trkpt lat="44.70781" lon="5.9806">
        <ele>1864</ele>
        <time>2021-09-20T11:50:30Z</time>
      </trkpt>
      <trkpt lat="44.7078" lon="5.98061">
        <ele>1864</ele>
        <time>2021-09-20T11:50:31Z</time>
      </trkpt>
      <trkpt lat="44.70781" lon="5.98062">
        <ele>1864</ele>
        <time>2021-09-20T11:50:32Z</time>
      </trkpt>
      <trkpt lat="44.70781" lon="5.98062">
        <ele>1864</ele>
        <time>2021-09-20T11:50:33Z</time>
      </trkpt>
      <trkpt lat="44.70781" lon="5.98063">
        <ele>1864</ele>
        <time>2021-09-20T11:50:34Z</time>
      </trkpt>
      <trkpt lat="44.70781" lon="5.98064">
        <ele>1864</ele>
        <time>2021-09-20T11:50:35Z</time>
      </trkpt>
      <trkpt lat="44.70781" lon="5.98065">
        <ele>1864</ele>
        <time>2021-09-20T11:50:36Z</time>
      </trkpt>
      <trkpt lat="44.70781" lon="5.98066">
        <ele>1864</ele>
        <time>2021-09-20T11:50:37Z</time>
      </trkpt>
      <trkpt lat="44.70781" lon="5.98067">
        <ele>1864</ele>
        <time>2021-09-20T11:50:38Z</time>
      </trkpt>
      <trkpt lat="44.70781" lon="5.98068">
        <ele>1864</ele>
        <time>2021-09-20T11:50:39Z</time>
      </trkpt>
      <trkpt lat="44.70781" lon="5.98069">
        <ele>1864</ele>
        <time>2021-09-20T11:50:40Z</time>
      </trkpt>
      <trkpt lat="44.7078" lon="5.9807">
        <ele>1864</ele>
        <time>2021-09-20T11:50:41Z</time>
      </trkpt>
      <trkpt lat="44.7078" lon="5.98071">
        <ele>1864</ele>
        <time>2021-09-20T11:50:42Z</time>
      </trkpt>
      <trkpt lat="44.7078" lon="5.98072">
        <ele>1863</ele>
        <time>2021-09-20T11:50:43Z</time>
      </trkpt>
      <trkpt lat="44.7078" lon="5.98074">
        <ele>1863</ele>
        <time>2021-09-20T11:50:44Z</time>
      </trkpt>
      <trkpt lat="44.7078" lon="5.98075">
        <ele>1863</ele>
        <time>2021-09-20T11:50:45Z</time>
      </trkpt>
      <trkpt lat="44.70781" lon="5.98077">
        <ele>1863</ele>
        <time>2021-09-20T11:50:46Z</time>
      </trkpt>
      <trkpt lat="44.70781" lon="5.98078">
        <ele>1863</ele>
        <time>2021-09-20T11:50:47Z</time>
      </trkpt>
      <trkpt lat="44.70781" lon="5.9808">
        <ele>1862</ele>
        <time>2021-09-20T11:50:48Z</time>
      </trkpt>
      <trkpt lat="44.70781" lon="5.98081">
        <ele>1862</ele>
        <time>2021-09-20T11:50:49Z</time>
      </trkpt>
      <trkpt lat="44.70781" lon="5.98082">
        <ele>1862</ele>
        <time>2021-09-20T11:50:50Z</time>
      </trkpt>
      <trkpt lat="44.70781" lon="5.98084">
        <ele>1862</ele>
        <time>2021-09-20T11:50:51Z</time>
      </trkpt>
      <trkpt lat="44.7078" lon="5.98085">
        <ele>1862</ele>
        <time>2021-09-20T11:50:52Z</time>
      </trkpt>
      <trkpt lat="44.7078" lon="5.98086">
        <ele>1861</ele>
        <time>2021-09-20T11:50:53Z</time>
      </trkpt>
      <trkpt lat="44.7078" lon="5.98087">
        <ele>1860</ele>
        <time>2021-09-20T11:50:54Z</time>
      </trkpt>
      <trkpt lat="44.7078" lon="5.98089">
        <ele>1860</ele>
        <time>2021-09-20T11:50:55Z</time>
      </trkpt>
      <trkpt lat="44.70779" lon="5.9809">
        <ele>1859</ele>
        <time>2021-09-20T11:50:56Z</time>
      </trkpt>
      <trkpt lat="44.70779" lon="5.98091">
        <ele>1859</ele>
        <time>2021-09-20T11:50:57Z</time>
      </trkpt>
      <trkpt lat="44.70778" lon="5.98092">
        <ele>1858</ele>
        <time>2021-09-20T11:50:58Z</time>
      </trkpt>
      <trkpt lat="44.70778" lon="5.98093">
        <ele>1858</ele>
        <time>2021-09-20T11:50:59Z</time>
      </trkpt>
      <trkpt lat="44.70778" lon="5.98094">
        <ele>1858</ele>
        <time>2021-09-20T11:51:00Z</time>
      </trkpt>
      <trkpt lat="44.70777" lon="5.98095">
        <ele>1858</ele>
        <time>2021-09-20T11:51:01Z</time>
      </trkpt>
      <trkpt lat="44.70777" lon="5.98096">
        <ele>1858</ele>
        <time>2021-09-20T11:51:02Z</time>
      </trkpt>
      <trkpt lat="44.70777" lon="5.98097">
        <ele>1857</ele>
        <time>2021-09-20T11:51:03Z</time>
      </trkpt>
      <trkpt lat="44.70777" lon="5.98097">
        <ele>1857</ele>
        <time>2021-09-20T11:51:04Z</time>
      </trkpt>
      <trkpt lat="44.70777" lon="5.98098">
        <ele>1857</ele>
        <time>2021-09-20T11:51:05Z</time>
      </trkpt>
      <trkpt lat="44.70777" lon="5.981">
        <ele>1857</ele>
        <time>2021-09-20T11:51:06Z</time>
      </trkpt>
      <trkpt lat="44.70777" lon="5.98101">
        <ele>1857</ele>
        <time>2021-09-20T11:51:07Z</time>
      </trkpt>
      <trkpt lat="44.70776" lon="5.98102">
        <ele>1856</ele>
        <time>2021-09-20T11:51:08Z</time>
      </trkpt>
      <trkpt lat="44.70776" lon="5.98103">
        <ele>1856</ele>
        <time>2021-09-20T11:51:09Z</time>
      </trkpt>
      <trkpt lat="44.70776" lon="5.98104">
        <ele>1855</ele>
        <time>2021-09-20T11:51:10Z</time>
      </trkpt>
      <trkpt lat="44.70776" lon="5.98105">
        <ele>1855</ele>
        <time>2021-09-20T11:51:11Z</time>
      </trkpt>
      <trkpt lat="44.70775" lon="5.98106">
        <ele>1855</ele>
        <time>2021-09-20T11:51:12Z</time>
      </trkpt>
      <trkpt lat="44.70775" lon="5.98107">
        <ele>1855</ele>
        <time>2021-09-20T11:51:13Z</time>
      </trkpt>
      <trkpt lat="44.70775" lon="5.98108">
        <ele>1855</ele>
        <time>2021-09-20T11:51:14Z</time>
      </trkpt>
      <trkpt lat="44.70775" lon="5.98109">
        <ele>1855</ele>
        <time>2021-09-20T11:51:15Z</time>
      </trkpt>
      <trkpt lat="44.70775" lon="5.9811">
        <ele>1855</ele>
        <time>2021-09-20T11:51:16Z</time>
      </trkpt>
      <trkpt lat="44.70775" lon="5.98111">
        <ele>1855</ele>
        <time>2021-09-20T11:51:17Z</time>
      </trkpt>
      <trkpt lat="44.70775" lon="5.98112">
        <ele>1854</ele>
        <time>2021-09-20T11:51:18Z</time>
      </trkpt>
      <trkpt lat="44.70774" lon="5.98113">
        <ele>1854</ele>
        <time>2021-09-20T11:51:19Z</time>
      </trkpt>
      <trkpt lat="44.70774" lon="5.98114">
        <ele>1854</ele>
        <time>2021-09-20T11:51:20Z</time>
      </trkpt>
      <trkpt lat="44.70774" lon="5.98115">
        <ele>1854</ele>
        <time>2021-09-20T11:51:21Z</time>
      </trkpt>
      <trkpt lat="44.70773" lon="5.98116">
        <ele>1854</ele>
        <time>2021-09-20T11:51:22Z</time>
      </trkpt>
      <trkpt lat="44.70773" lon="5.98117">
        <ele>1853</ele>
        <time>2021-09-20T11:51:23Z</time>
      </trkpt>
      <trkpt lat="44.70772" lon="5.98118">
        <ele>1853</ele>
        <time>2021-09-20T11:51:24Z</time>
      </trkpt>
      <trkpt lat="44.70771" lon="5.98119">
        <ele>1853</ele>
        <time>2021-09-20T11:51:25Z</time>
      </trkpt>
      <trkpt lat="44.70771" lon="5.9812">
        <ele>1853</ele>
        <time>2021-09-20T11:51:26Z</time>
      </trkpt>
      <trkpt lat="44.7077" lon="5.98121">
        <ele>1853</ele>
        <time>2021-09-20T11:51:27Z</time>
      </trkpt>
      <trkpt lat="44.70769" lon="5.98122">
        <ele>1852</ele>
        <time>2021-09-20T11:51:28Z</time>
      </trkpt>
      <trkpt lat="44.70769" lon="5.98123">
        <ele>1852</ele>
        <time>2021-09-20T11:51:29Z</time>
      </trkpt>
      <trkpt lat="44.70768" lon="5.98124">
        <ele>1852</ele>
        <time>2021-09-20T11:51:30Z</time>
      </trkpt>
      <trkpt lat="44.70768" lon="5.98125">
        <ele>1852</ele>
        <time>2021-09-20T11:51:31Z</time>
      </trkpt>
      <trkpt lat="44.70768" lon="5.98125">
        <ele>1852</ele>
        <time>2021-09-20T11:51:32Z</time>
      </trkpt>
      <trkpt lat="44.70767" lon="5.98126">
        <ele>1851</ele>
        <time>2021-09-20T11:51:33Z</time>
      </trkpt>
      <trkpt lat="44.70767" lon="5.98127">
        <ele>1851</ele>
        <time>2021-09-20T11:51:34Z</time>
      </trkpt>
      <trkpt lat="44.70767" lon="5.98128">
        <ele>1850</ele>
        <time>2021-09-20T11:51:35Z</time>
      </trkpt>
      <trkpt lat="44.70766" lon="5.98129">
        <ele>1850</ele>
        <time>2021-09-20T11:51:36Z</time>
      </trkpt>
      <trkpt lat="44.70766" lon="5.9813">
        <ele>1850</ele>
        <time>2021-09-20T11:51:37Z</time>
      </trkpt>
      <trkpt lat="44.70765" lon="5.98131">
        <ele>1850</ele>
        <time>2021-09-20T11:51:38Z</time>
      </trkpt>
      <trkpt lat="44.70765" lon="5.98132">
        <ele>1850</ele>
        <time>2021-09-20T11:51:39Z</time>
      </trkpt>
      <trkpt lat="44.70764" lon="5.98133">
        <ele>1850</ele>
        <time>2021-09-20T11:51:40Z</time>
      </trkpt>
      <trkpt lat="44.70764" lon="5.98134">
        <ele>1850</ele>
        <time>2021-09-20T11:51:41Z</time>
      </trkpt>
      <trkpt lat="44.70763" lon="5.98135">
        <ele>1850</ele>
        <time>2021-09-20T11:51:42Z</time>
      </trkpt>
      <trkpt lat="44.70763" lon="5.98136">
        <ele>1849</ele>
        <time>2021-09-20T11:51:43Z</time>
      </trkpt>
      <trkpt lat="44.70762" lon="5.98138">
        <ele>1849</ele>
        <time>2021-09-20T11:51:44Z</time>
      </trkpt>
      <trkpt lat="44.70762" lon="5.98139">
        <ele>1849</ele>
        <time>2021-09-20T11:51:45Z</time>
      </trkpt>
      <trkpt lat="44.70761" lon="5.9814">
        <ele>1849</ele>
        <time>2021-09-20T11:51:46Z</time>
      </trkpt>
      <trkpt lat="44.70761" lon="5.98141">
        <ele>1849</ele>
        <time>2021-09-20T11:51:47Z</time>
      </trkpt>
      <trkpt lat="44.7076" lon="5.98141">
        <ele>1848</ele>
        <time>2021-09-20T11:51:48Z</time>
      </trkpt>
      <trkpt lat="44.70759" lon="5.98142">
        <ele>1848</ele>
        <time>2021-09-20T11:51:49Z</time>
      </trkpt>
      <trkpt lat="44.70759" lon="5.98143">
        <ele>1848</ele>
        <time>2021-09-20T11:51:50Z</time>
      </trkpt>
      <trkpt lat="44.70758" lon="5.98143">
        <ele>1848</ele>
        <time>2021-09-20T11:51:51Z</time>
      </trkpt>
      <trkpt lat="44.70758" lon="5.98144">
        <ele>1848</ele>
        <time>2021-09-20T11:51:52Z</time>
      </trkpt>
      <trkpt lat="44.70757" lon="5.98145">
        <ele>1847</ele>
        <time>2021-09-20T11:51:53Z</time>
      </trkpt>
      <trkpt lat="44.70756" lon="5.98146">
        <ele>1847</ele>
        <time>2021-09-20T11:51:54Z</time>
      </trkpt>
      <trkpt lat="44.70756" lon="5.98146">
        <ele>1847</ele>
        <time>2021-09-20T11:51:55Z</time>
      </trkpt>
      <trkpt lat="44.70755" lon="5.98147">
        <ele>1847</ele>
        <time>2021-09-20T11:51:56Z</time>
      </trkpt>
      <trkpt lat="44.70754" lon="5.98148">
        <ele>1847</ele>
        <time>2021-09-20T11:51:57Z</time>
      </trkpt>
      <trkpt lat="44.70754" lon="5.98148">
        <ele>1846</ele>
        <time>2021-09-20T11:51:58Z</time>
      </trkpt>
      <trkpt lat="44.70753" lon="5.98149">
        <ele>1846</ele>
        <time>2021-09-20T11:51:59Z</time>
      </trkpt>
      <trkpt lat="44.70752" lon="5.98149">
        <ele>1845</ele>
        <time>2021-09-20T11:52:00Z</time>
      </trkpt>
      <trkpt lat="44.70752" lon="5.9815">
        <ele>1845</ele>
        <time>2021-09-20T11:52:01Z</time>
      </trkpt>
      <trkpt lat="44.70751" lon="5.9815">
        <ele>1845</ele>
        <time>2021-09-20T11:52:02Z</time>
      </trkpt>
      <trkpt lat="44.7075" lon="5.98151">
        <ele>1844</ele>
        <time>2021-09-20T11:52:03Z</time>
      </trkpt>
      <trkpt lat="44.7075" lon="5.98151">
        <ele>1844</ele>
        <time>2021-09-20T11:52:04Z</time>
      </trkpt>
      <trkpt lat="44.70749" lon="5.98152">
        <ele>1844</ele>
        <time>2021-09-20T11:52:05Z</time>
      </trkpt>
      <trkpt lat="44.70748" lon="5.98152">
        <ele>1844</ele>
        <time>2021-09-20T11:52:06Z</time>
      </trkpt>
      <trkpt lat="44.70747" lon="5.98153">
        <ele>1844</ele>
        <time>2021-09-20T11:52:07Z</time>
      </trkpt>
      <trkpt lat="44.70746" lon="5.98153">
        <ele>1843</ele>
        <time>2021-09-20T11:52:08Z</time>
      </trkpt>
      <trkpt lat="44.70745" lon="5.98154">
        <ele>1843</ele>
        <time>2021-09-20T11:52:09Z</time>
      </trkpt>
      <trkpt lat="44.70744" lon="5.98154">
        <ele>1843</ele>
        <time>2021-09-20T11:52:10Z</time>
      </trkpt>
      <trkpt lat="44.70743" lon="5.98155">
        <ele>1843</ele>
        <time>2021-09-20T11:52:11Z</time>
      </trkpt>
      <trkpt lat="44.70742" lon="5.98155">
        <ele>1843</ele>
        <time>2021-09-20T11:52:12Z</time>
      </trkpt>
      <trkpt lat="44.70741" lon="5.98155">
        <ele>1842</ele>
        <time>2021-09-20T11:52:13Z</time>
      </trkpt>
      <trkpt lat="44.70741" lon="5.98156">
        <ele>1842</ele>
        <time>2021-09-20T11:52:14Z</time>
      </trkpt>
      <trkpt lat="44.7074" lon="5.98156">
        <ele>1841</ele>
        <time>2021-09-20T11:52:15Z</time>
      </trkpt>
      <trkpt lat="44.70739" lon="5.98157">
        <ele>1841</ele>
        <time>2021-09-20T11:52:16Z</time>
      </trkpt>
      <trkpt lat="44.70739" lon="5.98157">
        <ele>1841</ele>
        <time>2021-09-20T11:52:17Z</time>
      </trkpt>
      <trkpt lat="44.70738" lon="5.98157">
        <ele>1840</ele>
        <time>2021-09-20T11:52:18Z</time>
      </trkpt>
      <trkpt lat="44.70737" lon="5.98158">
        <ele>1840</ele>
        <time>2021-09-20T11:52:19Z</time>
      </trkpt>
      <trkpt lat="44.70737" lon="5.98158">
        <ele>1840</ele>
        <time>2021-09-20T11:52:20Z</time>
      </trkpt>
      <trkpt lat="44.70736" lon="5.98159">
        <ele>1840</ele>
        <time>2021-09-20T11:52:21Z</time>
      </trkpt>
      <trkpt lat="44.70735" lon="5.9816">
        <ele>1840</ele>
        <time>2021-09-20T11:52:22Z</time>
      </trkpt>
      <trkpt lat="44.70735" lon="5.98161">
        <ele>1839</ele>
        <time>2021-09-20T11:52:23Z</time>
      </trkpt>
      <trkpt lat="44.70734" lon="5.98161">
        <ele>1839</ele>
        <time>2021-09-20T11:52:24Z</time>
      </trkpt>
      <trkpt lat="44.70733" lon="5.98162">
        <ele>1838</ele>
        <time>2021-09-20T11:52:25Z</time>
      </trkpt>
      <trkpt lat="44.70732" lon="5.98163">
        <ele>1838</ele>
        <time>2021-09-20T11:52:26Z</time>
      </trkpt>
      <trkpt lat="44.70732" lon="5.98164">
        <ele>1838</ele>
        <time>2021-09-20T11:52:27Z</time>
      </trkpt>
      <trkpt lat="44.70731" lon="5.98164">
        <ele>1837</ele>
        <time>2021-09-20T11:52:28Z</time>
      </trkpt>
      <trkpt lat="44.7073" lon="5.98165">
        <ele>1837</ele>
        <time>2021-09-20T11:52:29Z</time>
      </trkpt>
      <trkpt lat="44.70729" lon="5.98166">
        <ele>1837</ele>
        <time>2021-09-20T11:52:30Z</time>
      </trkpt>
      <trkpt lat="44.70728" lon="5.98166">
        <ele>1837</ele>
        <time>2021-09-20T11:52:31Z</time>
      </trkpt>
      <trkpt lat="44.70728" lon="5.98167">
        <ele>1837</ele>
        <time>2021-09-20T11:52:32Z</time>
      </trkpt>
      <trkpt lat="44.70727" lon="5.98168">
        <ele>1836</ele>
        <time>2021-09-20T11:52:33Z</time>
      </trkpt>
      <trkpt lat="44.70726" lon="5.98169">
        <ele>1836</ele>
        <time>2021-09-20T11:52:34Z</time>
      </trkpt>
      <trkpt lat="44.70725" lon="5.9817">
        <ele>1836</ele>
        <time>2021-09-20T11:52:35Z</time>
      </trkpt>
      <trkpt lat="44.70725" lon="5.9817">
        <ele>1836</ele>
        <time>2021-09-20T11:52:36Z</time>
      </trkpt>
      <trkpt lat="44.70724" lon="5.98171">
        <ele>1836</ele>
        <time>2021-09-20T11:52:37Z</time>
      </trkpt>
      <trkpt lat="44.70723" lon="5.98171">
        <ele>1835</ele>
        <time>2021-09-20T11:52:38Z</time>
      </trkpt>
      <trkpt lat="44.70723" lon="5.98172">
        <ele>1835</ele>
        <time>2021-09-20T11:52:39Z</time>
      </trkpt>
      <trkpt lat="44.70722" lon="5.98172">
        <ele>1835</ele>
        <time>2021-09-20T11:52:40Z</time>
      </trkpt>
      <trkpt lat="44.70721" lon="5.98173">
        <ele>1835</ele>
        <time>2021-09-20T11:52:41Z</time>
      </trkpt>
      <trkpt lat="44.70721" lon="5.98173">
        <ele>1835</ele>
        <time>2021-09-20T11:52:42Z</time>
      </trkpt>
      <trkpt lat="44.70721" lon="5.98174">
        <ele>1834</ele>
        <time>2021-09-20T11:52:43Z</time>
      </trkpt>
      <trkpt lat="44.7072" lon="5.98175">
        <ele>1834</ele>
        <time>2021-09-20T11:52:44Z</time>
      </trkpt>
      <trkpt lat="44.70719" lon="5.98176">
        <ele>1834</ele>
        <time>2021-09-20T11:52:45Z</time>
      </trkpt>
      <trkpt lat="44.70719" lon="5.98177">
        <ele>1834</ele>
        <time>2021-09-20T11:52:46Z</time>
      </trkpt>
      <trkpt lat="44.70718" lon="5.98178">
        <ele>1834</ele>
        <time>2021-09-20T11:52:47Z</time>
      </trkpt>
      <trkpt lat="44.70718" lon="5.98178">
        <ele>1833</ele>
        <time>2021-09-20T11:52:48Z</time>
      </trkpt>
      <trkpt lat="44.70717" lon="5.98179">
        <ele>1833</ele>
        <time>2021-09-20T11:52:49Z</time>
      </trkpt>
      <trkpt lat="44.70717" lon="5.9818">
        <ele>1833</ele>
        <time>2021-09-20T11:52:50Z</time>
      </trkpt>
      <trkpt lat="44.70716" lon="5.98181">
        <ele>1833</ele>
        <time>2021-09-20T11:52:51Z</time>
      </trkpt>
      <trkpt lat="44.70716" lon="5.98182">
        <ele>1833</ele>
        <time>2021-09-20T11:52:52Z</time>
      </trkpt>
      <trkpt lat="44.70715" lon="5.98183">
        <ele>1833</ele>
        <time>2021-09-20T11:52:53Z</time>
      </trkpt>
      <trkpt lat="44.70714" lon="5.98184">
        <ele>1833</ele>
        <time>2021-09-20T11:52:54Z</time>
      </trkpt>
      <trkpt lat="44.70714" lon="5.98184">
        <ele>1833</ele>
        <time>2021-09-20T11:52:55Z</time>
      </trkpt>
      <trkpt lat="44.70713" lon="5.98185">
        <ele>1833</ele>
        <time>2021-09-20T11:52:56Z</time>
      </trkpt>
      <trkpt lat="44.70712" lon="5.98186">
        <ele>1833</ele>
        <time>2021-09-20T11:52:57Z</time>
      </trkpt>
      <trkpt lat="44.70712" lon="5.98187">
        <ele>1832</ele>
        <time>2021-09-20T11:52:58Z</time>
      </trkpt>
      <trkpt lat="44.70711" lon="5.98188">
        <ele>1832</ele>
        <time>2021-09-20T11:52:59Z</time>
      </trkpt>
      <trkpt lat="44.7071" lon="5.98189">
        <ele>1832</ele>
        <time>2021-09-20T11:53:00Z</time>
      </trkpt>
      <trkpt lat="44.70709" lon="5.98189">
        <ele>1832</ele>
        <time>2021-09-20T11:53:01Z</time>
      </trkpt>
      <trkpt lat="44.70708" lon="5.9819">
        <ele>1832</ele>
        <time>2021-09-20T11:53:02Z</time>
      </trkpt>
      <trkpt lat="44.70707" lon="5.98191">
        <ele>1831</ele>
        <time>2021-09-20T11:53:03Z</time>
      </trkpt>
      <trkpt lat="44.70707" lon="5.98192">
        <ele>1831</ele>
        <time>2021-09-20T11:53:04Z</time>
      </trkpt>
      <trkpt lat="44.70706" lon="5.98192">
        <ele>1831</ele>
        <time>2021-09-20T11:53:05Z</time>
      </trkpt>
      <trkpt lat="44.70705" lon="5.98193">
        <ele>1831</ele>
        <time>2021-09-20T11:53:06Z</time>
      </trkpt>
      <trkpt lat="44.70704" lon="5.98194">
        <ele>1831</ele>
        <time>2021-09-20T11:53:07Z</time>
      </trkpt>
      <trkpt lat="44.70703" lon="5.98195">
        <ele>1830</ele>
        <time>2021-09-20T11:53:08Z</time>
      </trkpt>
      <trkpt lat="44.70703" lon="5.98195">
        <ele>1830</ele>
        <time>2021-09-20T11:53:09Z</time>
      </trkpt>
      <trkpt lat="44.70702" lon="5.98196">
        <ele>1830</ele>
        <time>2021-09-20T11:53:10Z</time>
      </trkpt>
      <trkpt lat="44.70701" lon="5.98196">
        <ele>1830</ele>
        <time>2021-09-20T11:53:11Z</time>
      </trkpt>
      <trkpt lat="44.70701" lon="5.98196">
        <ele>1830</ele>
        <time>2021-09-20T11:53:12Z</time>
      </trkpt>
      <trkpt lat="44.707" lon="5.98197">
        <ele>1830</ele>
        <time>2021-09-20T11:53:13Z</time>
      </trkpt>
      <trkpt lat="44.70699" lon="5.98197">
        <ele>1830</ele>
        <time>2021-09-20T11:53:14Z</time>
      </trkpt>
      <trkpt lat="44.70698" lon="5.98198">
        <ele>1830</ele>
        <time>2021-09-20T11:53:15Z</time>
      </trkpt>
      <trkpt lat="44.70697" lon="5.98198">
        <ele>1830</ele>
        <time>2021-09-20T11:53:16Z</time>
      </trkpt>
      <trkpt lat="44.70696" lon="5.98199">
        <ele>1830</ele>
        <time>2021-09-20T11:53:17Z</time>
      </trkpt>
      <trkpt lat="44.70695" lon="5.98199">
        <ele>1829</ele>
        <time>2021-09-20T11:53:18Z</time>
      </trkpt>
      <trkpt lat="44.70694" lon="5.982">
        <ele>1829</ele>
        <time>2021-09-20T11:53:19Z</time>
      </trkpt>
      <trkpt lat="44.70693" lon="5.982">
        <ele>1829</ele>
        <time>2021-09-20T11:53:20Z</time>
      </trkpt>
      <trkpt lat="44.70692" lon="5.98201">
        <ele>1829</ele>
        <time>2021-09-20T11:53:21Z</time>
      </trkpt>
      <trkpt lat="44.70691" lon="5.98201">
        <ele>1829</ele>
        <time>2021-09-20T11:53:22Z</time>
      </trkpt>
      <trkpt lat="44.70691" lon="5.98202">
        <ele>1828</ele>
        <time>2021-09-20T11:53:23Z</time>
      </trkpt>
      <trkpt lat="44.7069" lon="5.98203">
        <ele>1828</ele>
        <time>2021-09-20T11:53:24Z</time>
      </trkpt>
      <trkpt lat="44.70689" lon="5.98203">
        <ele>1828</ele>
        <time>2021-09-20T11:53:25Z</time>
      </trkpt>
      <trkpt lat="44.70689" lon="5.98204">
        <ele>1828</ele>
        <time>2021-09-20T11:53:26Z</time>
      </trkpt>
      <trkpt lat="44.70688" lon="5.98204">
        <ele>1828</ele>
        <time>2021-09-20T11:53:27Z</time>
      </trkpt>
      <trkpt lat="44.70687" lon="5.98205">
        <ele>1827</ele>
        <time>2021-09-20T11:53:28Z</time>
      </trkpt>
      <trkpt lat="44.70686" lon="5.98205">
        <ele>1827</ele>
        <time>2021-09-20T11:53:29Z</time>
      </trkpt>
      <trkpt lat="44.70686" lon="5.98206">
        <ele>1826</ele>
        <time>2021-09-20T11:53:30Z</time>
      </trkpt>
      <trkpt lat="44.70685" lon="5.98206">
        <ele>1826</ele>
        <time>2021-09-20T11:53:31Z</time>
      </trkpt>
      <trkpt lat="44.70684" lon="5.98207">
        <ele>1826</ele>
        <time>2021-09-20T11:53:32Z</time>
      </trkpt>
      <trkpt lat="44.70683" lon="5.98208">
        <ele>1825</ele>
        <time>2021-09-20T11:53:33Z</time>
      </trkpt>
      <trkpt lat="44.70682" lon="5.98208">
        <ele>1825</ele>
        <time>2021-09-20T11:53:34Z</time>
      </trkpt>
      <trkpt lat="44.70682" lon="5.98209">
        <ele>1825</ele>
        <time>2021-09-20T11:53:35Z</time>
      </trkpt>
      <trkpt lat="44.70681" lon="5.9821">
        <ele>1825</ele>
        <time>2021-09-20T11:53:36Z</time>
      </trkpt>
      <trkpt lat="44.7068" lon="5.98211">
        <ele>1825</ele>
        <time>2021-09-20T11:53:37Z</time>
      </trkpt>
      <trkpt lat="44.70679" lon="5.98211">
        <ele>1824</ele>
        <time>2021-09-20T11:53:38Z</time>
      </trkpt>
      <trkpt lat="44.70678" lon="5.98212">
        <ele>1824</ele>
        <time>2021-09-20T11:53:39Z</time>
      </trkpt>
      <trkpt lat="44.70677" lon="5.98212">
        <ele>1824</ele>
        <time>2021-09-20T11:53:40Z</time>
      </trkpt>
      <trkpt lat="44.70676" lon="5.98213">
        <ele>1824</ele>
        <time>2021-09-20T11:53:41Z</time>
      </trkpt>
      <trkpt lat="44.70675" lon="5.98213">
        <ele>1824</ele>
        <time>2021-09-20T11:53:42Z</time>
      </trkpt>
      <trkpt lat="44.70674" lon="5.98214">
        <ele>1823</ele>
        <time>2021-09-20T11:53:43Z</time>
      </trkpt>
      <trkpt lat="44.70673" lon="5.98215">
        <ele>1823</ele>
        <time>2021-09-20T11:53:44Z</time>
      </trkpt>
      <trkpt lat="44.70672" lon="5.98215">
        <ele>1823</ele>
        <time>2021-09-20T11:53:45Z</time>
      </trkpt>
      <trkpt lat="44.70671" lon="5.98216">
        <ele>1823</ele>
        <time>2021-09-20T11:53:46Z</time>
      </trkpt>
      <trkpt lat="44.7067" lon="5.98216">
        <ele>1823</ele>
        <time>2021-09-20T11:53:47Z</time>
      </trkpt>
      <trkpt lat="44.70669" lon="5.98217">
        <ele>1823</ele>
        <time>2021-09-20T11:53:48Z</time>
      </trkpt>
      <trkpt lat="44.70668" lon="5.98217">
        <ele>1823</ele>
        <time>2021-09-20T11:53:49Z</time>
      </trkpt>
      <trkpt lat="44.70667" lon="5.98218">
        <ele>1823</ele>
        <time>2021-09-20T11:53:50Z</time>
      </trkpt>
      <trkpt lat="44.70665" lon="5.98218">
        <ele>1823</ele>
        <time>2021-09-20T11:53:51Z</time>
      </trkpt>
      <trkpt lat="44.70664" lon="5.98219">
        <ele>1823</ele>
        <time>2021-09-20T11:53:52Z</time>
      </trkpt>
      <trkpt lat="44.70663" lon="5.9822">
        <ele>1822</ele>
        <time>2021-09-20T11:53:53Z</time>
      </trkpt>
      <trkpt lat="44.70662" lon="5.9822">
        <ele>1822</ele>
        <time>2021-09-20T11:53:54Z</time>
      </trkpt>
      <trkpt lat="44.70661" lon="5.98221">
        <ele>1822</ele>
        <time>2021-09-20T11:53:55Z</time>
      </trkpt>
      <trkpt lat="44.7066" lon="5.98222">
        <ele>1822</ele>
        <time>2021-09-20T11:53:56Z</time>
      </trkpt>
      <trkpt lat="44.70659" lon="5.98222">
        <ele>1822</ele>
        <time>2021-09-20T11:53:57Z</time>
      </trkpt>
      <trkpt lat="44.70658" lon="5.98223">
        <ele>1822</ele>
        <time>2021-09-20T11:53:58Z</time>
      </trkpt>
      <trkpt lat="44.70658" lon="5.98224">
        <ele>1822</ele>
        <time>2021-09-20T11:53:59Z</time>
      </trkpt>
      <trkpt lat="44.70657" lon="5.98225">
        <ele>1822</ele>
        <time>2021-09-20T11:54:00Z</time>
      </trkpt>
      <trkpt lat="44.70656" lon="5.98225">
        <ele>1822</ele>
        <time>2021-09-20T11:54:01Z</time>
      </trkpt>
      <trkpt lat="44.70655" lon="5.98226">
        <ele>1822</ele>
        <time>2021-09-20T11:54:02Z</time>
      </trkpt>
      <trkpt lat="44.70654" lon="5.98227">
        <ele>1821</ele>
        <time>2021-09-20T11:54:03Z</time>
      </trkpt>
      <trkpt lat="44.70653" lon="5.98227">
        <ele>1821</ele>
        <time>2021-09-20T11:54:04Z</time>
      </trkpt>
      <trkpt lat="44.70652" lon="5.98228">
        <ele>1821</ele>
        <time>2021-09-20T11:54:05Z</time>
      </trkpt>
      <trkpt lat="44.70651" lon="5.98228">
        <ele>1821</ele>
        <time>2021-09-20T11:54:06Z</time>
      </trkpt>
      <trkpt lat="44.7065" lon="5.98229">
        <ele>1821</ele>
        <time>2021-09-20T11:54:07Z</time>
      </trkpt>
      <trkpt lat="44.7065" lon="5.98229">
        <ele>1820</ele>
        <time>2021-09-20T11:54:08Z</time>
      </trkpt>
      <trkpt lat="44.70649" lon="5.9823">
        <ele>1820</ele>
        <time>2021-09-20T11:54:09Z</time>
      </trkpt>
      <trkpt lat="44.70648" lon="5.98231">
        <ele>1820</ele>
        <time>2021-09-20T11:54:10Z</time>
      </trkpt>
      <trkpt lat="44.70647" lon="5.98232">
        <ele>1820</ele>
        <time>2021-09-20T11:54:11Z</time>
      </trkpt>
      <trkpt lat="44.70647" lon="5.98232">
        <ele>1820</ele>
        <time>2021-09-20T11:54:12Z</time>
      </trkpt>
      <trkpt lat="44.70646" lon="5.98233">
        <ele>1819</ele>
        <time>2021-09-20T11:54:13Z</time>
      </trkpt>
      <trkpt lat="44.70645" lon="5.98234">
        <ele>1819</ele>
        <time>2021-09-20T11:54:14Z</time>
      </trkpt>
      <trkpt lat="44.70645" lon="5.98235">
        <ele>1819</ele>
        <time>2021-09-20T11:54:15Z</time>
      </trkpt>
      <trkpt lat="44.70644" lon="5.98236">
        <ele>1819</ele>
        <time>2021-09-20T11:54:16Z</time>
      </trkpt>
      <trkpt lat="44.70644" lon="5.98236">
        <ele>1819</ele>
        <time>2021-09-20T11:54:17Z</time>
      </trkpt>
      <trkpt lat="44.70643" lon="5.98237">
        <ele>1818</ele>
        <time>2021-09-20T11:54:18Z</time>
      </trkpt>
      <trkpt lat="44.70643" lon="5.98238">
        <ele>1818</ele>
        <time>2021-09-20T11:54:19Z</time>
      </trkpt>
      <trkpt lat="44.70642" lon="5.98239">
        <ele>1818</ele>
        <time>2021-09-20T11:54:20Z</time>
      </trkpt>
      <trkpt lat="44.70642" lon="5.9824">
        <ele>1818</ele>
        <time>2021-09-20T11:54:21Z</time>
      </trkpt>
      <trkpt lat="44.70641" lon="5.98241">
        <ele>1818</ele>
        <time>2021-09-20T11:54:22Z</time>
      </trkpt>
      <trkpt lat="44.7064" lon="5.98242">
        <ele>1818</ele>
        <time>2021-09-20T11:54:23Z</time>
      </trkpt>
      <trkpt lat="44.7064" lon="5.98243">
        <ele>1818</ele>
        <time>2021-09-20T11:54:24Z</time>
      </trkpt>
      <trkpt lat="44.70639" lon="5.98244">
        <ele>1818</ele>
        <time>2021-09-20T11:54:25Z</time>
      </trkpt>
      <trkpt lat="44.70638" lon="5.98245">
        <ele>1818</ele>
        <time>2021-09-20T11:54:26Z</time>
      </trkpt>
      <trkpt lat="44.70637" lon="5.98246">
        <ele>1818</ele>
        <time>2021-09-20T11:54:27Z</time>
      </trkpt>
      <trkpt lat="44.70636" lon="5.98247">
        <ele>1817</ele>
        <time>2021-09-20T11:54:28Z</time>
      </trkpt>
      <trkpt lat="44.70636" lon="5.98248">
        <ele>1817</ele>
        <time>2021-09-20T11:54:29Z</time>
      </trkpt>
      <trkpt lat="44.70635" lon="5.98249">
        <ele>1817</ele>
        <time>2021-09-20T11:54:30Z</time>
      </trkpt>
      <trkpt lat="44.70634" lon="5.9825">
        <ele>1817</ele>
        <time>2021-09-20T11:54:31Z</time>
      </trkpt>
      <trkpt lat="44.70633" lon="5.98251">
        <ele>1817</ele>
        <time>2021-09-20T11:54:32Z</time>
      </trkpt>
      <trkpt lat="44.70632" lon="5.98252">
        <ele>1816</ele>
        <time>2021-09-20T11:54:33Z</time>
      </trkpt>
      <trkpt lat="44.70631" lon="5.98252">
        <ele>1816</ele>
        <time>2021-09-20T11:54:34Z</time>
      </trkpt>
      <trkpt lat="44.7063" lon="5.98254">
        <ele>1816</ele>
        <time>2021-09-20T11:54:35Z</time>
      </trkpt>
      <trkpt lat="44.70629" lon="5.98255">
        <ele>1816</ele>
        <time>2021-09-20T11:54:36Z</time>
      </trkpt>
      <trkpt lat="44.70628" lon="5.98256">
        <ele>1816</ele>
        <time>2021-09-20T11:54:37Z</time>
      </trkpt>
      <trkpt lat="44.70626" lon="5.98257">
        <ele>1815</ele>
        <time>2021-09-20T11:54:38Z</time>
      </trkpt>
      <trkpt lat="44.70625" lon="5.98257">
        <ele>1815</ele>
        <time>2021-09-20T11:54:39Z</time>
      </trkpt>
      <trkpt lat="44.70624" lon="5.98258">
        <ele>1815</ele>
        <time>2021-09-20T11:54:40Z</time>
      </trkpt>
      <trkpt lat="44.70623" lon="5.98259">
        <ele>1815</ele>
        <time>2021-09-20T11:54:41Z</time>
      </trkpt>
      <trkpt lat="44.70622" lon="5.9826">
        <ele>1815</ele>
        <time>2021-09-20T11:54:42Z</time>
      </trkpt>
      <trkpt lat="44.70621" lon="5.98261">
        <ele>1814</ele>
        <time>2021-09-20T11:54:43Z</time>
      </trkpt>
      <trkpt lat="44.7062" lon="5.98261">
        <ele>1814</ele>
        <time>2021-09-20T11:54:44Z</time>
      </trkpt>
      <trkpt lat="44.70619" lon="5.98262">
        <ele>1814</ele>
        <time>2021-09-20T11:54:45Z</time>
      </trkpt>
      <trkpt lat="44.70618" lon="5.98263">
        <ele>1814</ele>
        <time>2021-09-20T11:54:46Z</time>
      </trkpt>
      <trkpt lat="44.70617" lon="5.98263">
        <ele>1814</ele>
        <time>2021-09-20T11:54:47Z</time>
      </trkpt>
      <trkpt lat="44.70616" lon="5.98264">
        <ele>1813</ele>
        <time>2021-09-20T11:54:48Z</time>
      </trkpt>
      <trkpt lat="44.70615" lon="5.98265">
        <ele>1813</ele>
        <time>2021-09-20T11:54:49Z</time>
      </trkpt>
      <trkpt lat="44.70615" lon="5.98265">
        <ele>1813</ele>
        <time>2021-09-20T11:54:50Z</time>
      </trkpt>
      <trkpt lat="44.70614" lon="5.98266">
        <ele>1813</ele>
        <time>2021-09-20T11:54:51Z</time>
      </trkpt>
      <trkpt lat="44.70613" lon="5.98266">
        <ele>1813</ele>
        <time>2021-09-20T11:54:52Z</time>
      </trkpt>
      <trkpt lat="44.70613" lon="5.98267">
        <ele>1812</ele>
        <time>2021-09-20T11:54:53Z</time>
      </trkpt>
      <trkpt lat="44.70612" lon="5.98268">
        <ele>1812</ele>
        <time>2021-09-20T11:54:54Z</time>
      </trkpt>
      <trkpt lat="44.70612" lon="5.98269">
        <ele>1812</ele>
        <time>2021-09-20T11:54:55Z</time>
      </trkpt>
      <trkpt lat="44.70611" lon="5.98269">
        <ele>1812</ele>
        <time>2021-09-20T11:54:56Z</time>
      </trkpt>
      <trkpt lat="44.70611" lon="5.9827">
        <ele>1812</ele>
        <time>2021-09-20T11:54:57Z</time>
      </trkpt>
      <trkpt lat="44.7061" lon="5.98271">
        <ele>1812</ele>
        <time>2021-09-20T11:54:58Z</time>
      </trkpt>
      <trkpt lat="44.70609" lon="5.98271">
        <ele>1812</ele>
        <time>2021-09-20T11:54:59Z</time>
      </trkpt>
      <trkpt lat="44.70609" lon="5.98272">
        <ele>1812</ele>
        <time>2021-09-20T11:55:00Z</time>
      </trkpt>
      <trkpt lat="44.70608" lon="5.98272">
        <ele>1812</ele>
        <time>2021-09-20T11:55:01Z</time>
      </trkpt>
      <trkpt lat="44.70607" lon="5.98273">
        <ele>1812</ele>
        <time>2021-09-20T11:55:02Z</time>
      </trkpt>
      <trkpt lat="44.70606" lon="5.98273">
        <ele>1811</ele>
        <time>2021-09-20T11:55:03Z</time>
      </trkpt>
      <trkpt lat="44.70606" lon="5.98273">
        <ele>1811</ele>
        <time>2021-09-20T11:55:04Z</time>
      </trkpt>
      <trkpt lat="44.70605" lon="5.98273">
        <ele>1811</ele>
        <time>2021-09-20T11:55:05Z</time>
      </trkpt>
      <trkpt lat="44.70604" lon="5.98274">
        <ele>1811</ele>
        <time>2021-09-20T11:55:06Z</time>
      </trkpt>
      <trkpt lat="44.70603" lon="5.98274">
        <ele>1811</ele>
        <time>2021-09-20T11:55:07Z</time>
      </trkpt>
      <trkpt lat="44.70602" lon="5.98274">
        <ele>1811</ele>
        <time>2021-09-20T11:55:08Z</time>
      </trkpt>
      <trkpt lat="44.70602" lon="5.98275">
        <ele>1811</ele>
        <time>2021-09-20T11:55:09Z</time>
      </trkpt>
      <trkpt lat="44.70601" lon="5.98275">
        <ele>1811</ele>
        <time>2021-09-20T11:55:10Z</time>
      </trkpt>
      <trkpt lat="44.706" lon="5.98276">
        <ele>1811</ele>
        <time>2021-09-20T11:55:11Z</time>
      </trkpt>
      <trkpt lat="44.70599" lon="5.98276">
        <ele>1811</ele>
        <time>2021-09-20T11:55:12Z</time>
      </trkpt>
      <trkpt lat="44.70598" lon="5.98277">
        <ele>1810</ele>
        <time>2021-09-20T11:55:13Z</time>
      </trkpt>
      <trkpt lat="44.70597" lon="5.98277">
        <ele>1810</ele>
        <time>2021-09-20T11:55:14Z</time>
      </trkpt>
      <trkpt lat="44.70596" lon="5.98278">
        <ele>1810</ele>
        <time>2021-09-20T11:55:15Z</time>
      </trkpt>
      <trkpt lat="44.70595" lon="5.98278">
        <ele>1810</ele>
        <time>2021-09-20T11:55:16Z</time>
      </trkpt>
      <trkpt lat="44.70594" lon="5.98278">
        <ele>1810</ele>
        <time>2021-09-20T11:55:17Z</time>
      </trkpt>
      <trkpt lat="44.70593" lon="5.98278">
        <ele>1809</ele>
        <time>2021-09-20T11:55:18Z</time>
      </trkpt>
      <trkpt lat="44.70592" lon="5.98278">
        <ele>1809</ele>
        <time>2021-09-20T11:55:19Z</time>
      </trkpt>
      <trkpt lat="44.70591" lon="5.98279">
        <ele>1808</ele>
        <time>2021-09-20T11:55:20Z</time>
      </trkpt>
      <trkpt lat="44.7059" lon="5.98279">
        <ele>1808</ele>
        <time>2021-09-20T11:55:21Z</time>
      </trkpt>
      <trkpt lat="44.7059" lon="5.9828">
        <ele>1808</ele>
        <time>2021-09-20T11:55:22Z</time>
      </trkpt>
      <trkpt lat="44.70589" lon="5.9828">
        <ele>1807</ele>
        <time>2021-09-20T11:55:23Z</time>
      </trkpt>
      <trkpt lat="44.70588" lon="5.9828">
        <ele>1807</ele>
        <time>2021-09-20T11:55:24Z</time>
      </trkpt>
      <trkpt lat="44.70587" lon="5.98281">
        <ele>1806</ele>
        <time>2021-09-20T11:55:25Z</time>
      </trkpt>
      <trkpt lat="44.70586" lon="5.98281">
        <ele>1806</ele>
        <time>2021-09-20T11:55:26Z</time>
      </trkpt>
      <trkpt lat="44.70585" lon="5.9828">
        <ele>1806</ele>
        <time>2021-09-20T11:55:27Z</time>
      </trkpt>
      <trkpt lat="44.70584" lon="5.9828">
        <ele>1805</ele>
        <time>2021-09-20T11:55:28Z</time>
      </trkpt>
      <trkpt lat="44.70583" lon="5.98279">
        <ele>1805</ele>
        <time>2021-09-20T11:55:29Z</time>
      </trkpt>
      <trkpt lat="44.70583" lon="5.98279">
        <ele>1805</ele>
        <time>2021-09-20T11:55:30Z</time>
      </trkpt>
      <trkpt lat="44.70582" lon="5.98278">
        <ele>1805</ele>
        <time>2021-09-20T11:55:31Z</time>
      </trkpt>
      <trkpt lat="44.70582" lon="5.98278">
        <ele>1805</ele>
        <time>2021-09-20T11:55:32Z</time>
      </trkpt>
      <trkpt lat="44.70581" lon="5.98277">
        <ele>1804</ele>
        <time>2021-09-20T11:55:33Z</time>
      </trkpt>
      <trkpt lat="44.7058" lon="5.98277">
        <ele>1804</ele>
        <time>2021-09-20T11:55:34Z</time>
      </trkpt>
      <trkpt lat="44.70579" lon="5.98277">
        <ele>1803</ele>
        <time>2021-09-20T11:55:35Z</time>
      </trkpt>
      <trkpt lat="44.70578" lon="5.98276">
        <ele>1803</ele>
        <time>2021-09-20T11:55:36Z</time>
      </trkpt>
      <trkpt lat="44.70577" lon="5.98276">
        <ele>1803</ele>
        <time>2021-09-20T11:55:37Z</time>
      </trkpt>
      <trkpt lat="44.70576" lon="5.98276">
        <ele>1803</ele>
        <time>2021-09-20T11:55:38Z</time>
      </trkpt>
      <trkpt lat="44.70575" lon="5.98276">
        <ele>1803</ele>
        <time>2021-09-20T11:55:39Z</time>
      </trkpt>
      <trkpt lat="44.70574" lon="5.98276">
        <ele>1803</ele>
        <time>2021-09-20T11:55:40Z</time>
      </trkpt>
      <trkpt lat="44.70573" lon="5.98276">
        <ele>1803</ele>
        <time>2021-09-20T11:55:41Z</time>
      </trkpt>
      <trkpt lat="44.70572" lon="5.98276">
        <ele>1803</ele>
        <time>2021-09-20T11:55:42Z</time>
      </trkpt>
      <trkpt lat="44.70571" lon="5.98276">
        <ele>1802</ele>
        <time>2021-09-20T11:55:43Z</time>
      </trkpt>
      <trkpt lat="44.7057" lon="5.98276">
        <ele>1802</ele>
        <time>2021-09-20T11:55:44Z</time>
      </trkpt>
      <trkpt lat="44.70569" lon="5.98276">
        <ele>1802</ele>
        <time>2021-09-20T11:55:45Z</time>
      </trkpt>
      <trkpt lat="44.70569" lon="5.98275">
        <ele>1802</ele>
        <time>2021-09-20T11:55:46Z</time>
      </trkpt>
      <trkpt lat="44.70568" lon="5.98275">
        <ele>1802</ele>
        <time>2021-09-20T11:55:47Z</time>
      </trkpt>
      <trkpt lat="44.70567" lon="5.98275">
        <ele>1802</ele>
        <time>2021-09-20T11:55:48Z</time>
      </trkpt>
      <trkpt lat="44.70566" lon="5.98275">
        <ele>1802</ele>
        <time>2021-09-20T11:55:49Z</time>
      </trkpt>
      <trkpt lat="44.70565" lon="5.98276">
        <ele>1802</ele>
        <time>2021-09-20T11:55:50Z</time>
      </trkpt>
      <trkpt lat="44.70565" lon="5.98276">
        <ele>1802</ele>
        <time>2021-09-20T11:55:51Z</time>
      </trkpt>
      <trkpt lat="44.70564" lon="5.98276">
        <ele>1802</ele>
        <time>2021-09-20T11:55:52Z</time>
      </trkpt>
      <trkpt lat="44.70563" lon="5.98277">
        <ele>1802</ele>
        <time>2021-09-20T11:55:53Z</time>
      </trkpt>
      <trkpt lat="44.70562" lon="5.98277">
        <ele>1802</ele>
        <time>2021-09-20T11:55:54Z</time>
      </trkpt>
      <trkpt lat="44.70561" lon="5.98278">
        <ele>1802</ele>
        <time>2021-09-20T11:55:55Z</time>
      </trkpt>
      <trkpt lat="44.7056" lon="5.98278">
        <ele>1802</ele>
        <time>2021-09-20T11:55:56Z</time>
      </trkpt>
      <trkpt lat="44.70559" lon="5.98279">
        <ele>1802</ele>
        <time>2021-09-20T11:55:57Z</time>
      </trkpt>
      <trkpt lat="44.70558" lon="5.98279">
        <ele>1802</ele>
        <time>2021-09-20T11:55:58Z</time>
      </trkpt>
      <trkpt lat="44.70557" lon="5.9828">
        <ele>1802</ele>
        <time>2021-09-20T11:55:59Z</time>
      </trkpt>
      <trkpt lat="44.70556" lon="5.98281">
        <ele>1802</ele>
        <time>2021-09-20T11:56:00Z</time>
      </trkpt>
      <trkpt lat="44.70556" lon="5.98281">
        <ele>1802</ele>
        <time>2021-09-20T11:56:01Z</time>
      </trkpt>
      <trkpt lat="44.70555" lon="5.98282">
        <ele>1802</ele>
        <time>2021-09-20T11:56:02Z</time>
      </trkpt>
      <trkpt lat="44.70554" lon="5.98282">
        <ele>1802</ele>
        <time>2021-09-20T11:56:03Z</time>
      </trkpt>
      <trkpt lat="44.70554" lon="5.98283">
        <ele>1802</ele>
        <time>2021-09-20T11:56:04Z</time>
      </trkpt>
      <trkpt lat="44.70553" lon="5.98283">
        <ele>1802</ele>
        <time>2021-09-20T11:56:05Z</time>
      </trkpt>
      <trkpt lat="44.70553" lon="5.98284">
        <ele>1802</ele>
        <time>2021-09-20T11:56:06Z</time>
      </trkpt>
      <trkpt lat="44.70552" lon="5.98284">
        <ele>1802</ele>
        <time>2021-09-20T11:56:07Z</time>
      </trkpt>
      <trkpt lat="44.70552" lon="5.98285">
        <ele>1802</ele>
        <time>2021-09-20T11:56:08Z</time>
      </trkpt>
      <trkpt lat="44.70551" lon="5.98285">
        <ele>1802</ele>
        <time>2021-09-20T11:56:09Z</time>
      </trkpt>
      <trkpt lat="44.70551" lon="5.98286">
        <ele>1802</ele>
        <time>2021-09-20T11:56:10Z</time>
      </trkpt>
      <trkpt lat="44.7055" lon="5.98286">
        <ele>1802</ele>
        <time>2021-09-20T11:56:11Z</time>
      </trkpt>
      <trkpt lat="44.7055" lon="5.98287">
        <ele>1802</ele>
        <time>2021-09-20T11:56:12Z</time>
      </trkpt>
      <trkpt lat="44.70549" lon="5.98287">
        <ele>1801</ele>
        <time>2021-09-20T11:56:13Z</time>
      </trkpt>
      <trkpt lat="44.70548" lon="5.98288">
        <ele>1801</ele>
        <time>2021-09-20T11:56:14Z</time>
      </trkpt>
      <trkpt lat="44.70547" lon="5.98288">
        <ele>1800</ele>
        <time>2021-09-20T11:56:15Z</time>
      </trkpt>
      <trkpt lat="44.70547" lon="5.98289">
        <ele>1800</ele>
        <time>2021-09-20T11:56:16Z</time>
      </trkpt>
      <trkpt lat="44.70546" lon="5.98289">
        <ele>1800</ele>
        <time>2021-09-20T11:56:17Z</time>
      </trkpt>
      <trkpt lat="44.70545" lon="5.98289">
        <ele>1799</ele>
        <time>2021-09-20T11:56:18Z</time>
      </trkpt>
      <trkpt lat="44.70545" lon="5.98289">
        <ele>1799</ele>
        <time>2021-09-20T11:56:19Z</time>
      </trkpt>
      <trkpt lat="44.70544" lon="5.98289">
        <ele>1799</ele>
        <time>2021-09-20T11:56:20Z</time>
      </trkpt>
      <trkpt lat="44.70543" lon="5.98289">
        <ele>1799</ele>
        <time>2021-09-20T11:56:21Z</time>
      </trkpt>
      <trkpt lat="44.70543" lon="5.98289">
        <ele>1799</ele>
        <time>2021-09-20T11:56:22Z</time>
      </trkpt>
      <trkpt lat="44.70542" lon="5.98289">
        <ele>1798</ele>
        <time>2021-09-20T11:56:23Z</time>
      </trkpt>
      <trkpt lat="44.70541" lon="5.98289">
        <ele>1798</ele>
        <time>2021-09-20T11:56:24Z</time>
      </trkpt>
      <trkpt lat="44.7054" lon="5.9829">
        <ele>1797</ele>
        <time>2021-09-20T11:56:25Z</time>
      </trkpt>
      <trkpt lat="44.7054" lon="5.9829">
        <ele>1797</ele>
        <time>2021-09-20T11:56:26Z</time>
      </trkpt>
      <trkpt lat="44.70539" lon="5.98291">
        <ele>1797</ele>
        <time>2021-09-20T11:56:27Z</time>
      </trkpt>
      <trkpt lat="44.70538" lon="5.98291">
        <ele>1796</ele>
        <time>2021-09-20T11:56:28Z</time>
      </trkpt>
      <trkpt lat="44.70537" lon="5.98292">
        <ele>1796</ele>
        <time>2021-09-20T11:56:29Z</time>
      </trkpt>
      <trkpt lat="44.70537" lon="5.98292">
        <ele>1795</ele>
        <time>2021-09-20T11:56:30Z</time>
      </trkpt>
      <trkpt lat="44.70536" lon="5.98293">
        <ele>1795</ele>
        <time>2021-09-20T11:56:31Z</time>
      </trkpt>
      <trkpt lat="44.70535" lon="5.98294">
        <ele>1795</ele>
        <time>2021-09-20T11:56:32Z</time>
      </trkpt>
      <trkpt lat="44.70535" lon="5.98294">
        <ele>1795</ele>
        <time>2021-09-20T11:56:33Z</time>
      </trkpt>
      <trkpt lat="44.70534" lon="5.98295">
        <ele>1795</ele>
        <time>2021-09-20T11:56:34Z</time>
      </trkpt>
      <trkpt lat="44.70534" lon="5.98296">
        <ele>1795</ele>
        <time>2021-09-20T11:56:35Z</time>
      </trkpt>
      <trkpt lat="44.70533" lon="5.98298">
        <ele>1795</ele>
        <time>2021-09-20T11:56:36Z</time>
      </trkpt>
      <trkpt lat="44.70533" lon="5.98299">
        <ele>1795</ele>
        <time>2021-09-20T11:56:37Z</time>
      </trkpt>
      <trkpt lat="44.70532" lon="5.983">
        <ele>1794</ele>
        <time>2021-09-20T11:56:38Z</time>
      </trkpt>
      <trkpt lat="44.70531" lon="5.98301">
        <ele>1794</ele>
        <time>2021-09-20T11:56:39Z</time>
      </trkpt>
      <trkpt lat="44.70531" lon="5.98302">
        <ele>1793</ele>
        <time>2021-09-20T11:56:40Z</time>
      </trkpt>
      <trkpt lat="44.7053" lon="5.98303">
        <ele>1793</ele>
        <time>2021-09-20T11:56:41Z</time>
      </trkpt>
      <trkpt lat="44.70529" lon="5.98304">
        <ele>1793</ele>
        <time>2021-09-20T11:56:42Z</time>
      </trkpt>
      <trkpt lat="44.70528" lon="5.98305">
        <ele>1792</ele>
        <time>2021-09-20T11:56:43Z</time>
      </trkpt>
      <trkpt lat="44.70528" lon="5.98306">
        <ele>1792</ele>
        <time>2021-09-20T11:56:44Z</time>
      </trkpt>
      <trkpt lat="44.70527" lon="5.98307">
        <ele>1791</ele>
        <time>2021-09-20T11:56:45Z</time>
      </trkpt>
      <trkpt lat="44.70526" lon="5.98308">
        <ele>1791</ele>
        <time>2021-09-20T11:56:46Z</time>
      </trkpt>
      <trkpt lat="44.70526" lon="5.98308">
        <ele>1791</ele>
        <time>2021-09-20T11:56:47Z</time>
      </trkpt>
      <trkpt lat="44.70525" lon="5.98309">
        <ele>1791</ele>
        <time>2021-09-20T11:56:48Z</time>
      </trkpt>
      <trkpt lat="44.70524" lon="5.9831">
        <ele>1791</ele>
        <time>2021-09-20T11:56:49Z</time>
      </trkpt>
      <trkpt lat="44.70523" lon="5.9831">
        <ele>1791</ele>
        <time>2021-09-20T11:56:50Z</time>
      </trkpt>
      <trkpt lat="44.70522" lon="5.98311">
        <ele>1791</ele>
        <time>2021-09-20T11:56:51Z</time>
      </trkpt>
      <trkpt lat="44.70522" lon="5.98311">
        <ele>1791</ele>
        <time>2021-09-20T11:56:52Z</time>
      </trkpt>
      <trkpt lat="44.70521" lon="5.98312">
        <ele>1790</ele>
        <time>2021-09-20T11:56:53Z</time>
      </trkpt>
      <trkpt lat="44.7052" lon="5.98312">
        <ele>1790</ele>
        <time>2021-09-20T11:56:54Z</time>
      </trkpt>
      <trkpt lat="44.70519" lon="5.98313">
        <ele>1790</ele>
        <time>2021-09-20T11:56:55Z</time>
      </trkpt>
      <trkpt lat="44.70519" lon="5.98314">
        <ele>1790</ele>
        <time>2021-09-20T11:56:56Z</time>
      </trkpt>
      <trkpt lat="44.70518" lon="5.98315">
        <ele>1790</ele>
        <time>2021-09-20T11:56:57Z</time>
      </trkpt>
      <trkpt lat="44.70517" lon="5.98316">
        <ele>1790</ele>
        <time>2021-09-20T11:56:58Z</time>
      </trkpt>
      <trkpt lat="44.70517" lon="5.98317">
        <ele>1790</ele>
        <time>2021-09-20T11:56:59Z</time>
      </trkpt>
      <trkpt lat="44.70516" lon="5.98318">
        <ele>1790</ele>
        <time>2021-09-20T11:57:00Z</time>
      </trkpt>
      <trkpt lat="44.70515" lon="5.98319">
        <ele>1790</ele>
        <time>2021-09-20T11:57:01Z</time>
      </trkpt>
      <trkpt lat="44.70515" lon="5.9832">
        <ele>1790</ele>
        <time>2021-09-20T11:57:02Z</time>
      </trkpt>
      <trkpt lat="44.70514" lon="5.9832">
        <ele>1789</ele>
        <time>2021-09-20T11:57:03Z</time>
      </trkpt>
      <trkpt lat="44.70513" lon="5.98321">
        <ele>1789</ele>
        <time>2021-09-20T11:57:04Z</time>
      </trkpt>
      <trkpt lat="44.70513" lon="5.98322">
        <ele>1789</ele>
        <time>2021-09-20T11:57:05Z</time>
      </trkpt>
      <trkpt lat="44.70512" lon="5.98323">
        <ele>1789</ele>
        <time>2021-09-20T11:57:06Z</time>
      </trkpt>
      <trkpt lat="44.70511" lon="5.98324">
        <ele>1789</ele>
        <time>2021-09-20T11:57:07Z</time>
      </trkpt>
      <trkpt lat="44.7051" lon="5.98324">
        <ele>1788</ele>
        <time>2021-09-20T11:57:08Z</time>
      </trkpt>
      <trkpt lat="44.7051" lon="5.98325">
        <ele>1788</ele>
        <time>2021-09-20T11:57:09Z</time>
      </trkpt>
      <trkpt lat="44.70509" lon="5.98326">
        <ele>1788</ele>
        <time>2021-09-20T11:57:10Z</time>
      </trkpt>
      <trkpt lat="44.70509" lon="5.98326">
        <ele>1788</ele>
        <time>2021-09-20T11:57:11Z</time>
      </trkpt>
      <trkpt lat="44.70508" lon="5.98327">
        <ele>1788</ele>
        <time>2021-09-20T11:57:12Z</time>
      </trkpt>
      <trkpt lat="44.70507" lon="5.98328">
        <ele>1787</ele>
        <time>2021-09-20T11:57:13Z</time>
      </trkpt>
      <trkpt lat="44.70506" lon="5.98328">
        <ele>1787</ele>
        <time>2021-09-20T11:57:14Z</time>
      </trkpt>
      <trkpt lat="44.70506" lon="5.98329">
        <ele>1787</ele>
        <time>2021-09-20T11:57:15Z</time>
      </trkpt>
      <trkpt lat="44.70505" lon="5.98329">
        <ele>1787</ele>
        <time>2021-09-20T11:57:16Z</time>
      </trkpt>
      <trkpt lat="44.70504" lon="5.9833">
        <ele>1787</ele>
        <time>2021-09-20T11:57:17Z</time>
      </trkpt>
      <trkpt lat="44.70503" lon="5.9833">
        <ele>1786</ele>
        <time>2021-09-20T11:57:18Z</time>
      </trkpt>
      <trkpt lat="44.70502" lon="5.98331">
        <ele>1786</ele>
        <time>2021-09-20T11:57:19Z</time>
      </trkpt>
      <trkpt lat="44.70501" lon="5.98331">
        <ele>1786</ele>
        <time>2021-09-20T11:57:20Z</time>
      </trkpt>
      <trkpt lat="44.705" lon="5.98332">
        <ele>1786</ele>
        <time>2021-09-20T11:57:21Z</time>
      </trkpt>
      <trkpt lat="44.705" lon="5.98332">
        <ele>1786</ele>
        <time>2021-09-20T11:57:22Z</time>
      </trkpt>
      <trkpt lat="44.70499" lon="5.98333">
        <ele>1785</ele>
        <time>2021-09-20T11:57:23Z</time>
      </trkpt>
      <trkpt lat="44.70498" lon="5.98333">
        <ele>1785</ele>
        <time>2021-09-20T11:57:24Z</time>
      </trkpt>
      <trkpt lat="44.70497" lon="5.98333">
        <ele>1785</ele>
        <time>2021-09-20T11:57:25Z</time>
      </trkpt>
      <trkpt lat="44.70497" lon="5.98334">
        <ele>1785</ele>
        <time>2021-09-20T11:57:26Z</time>
      </trkpt>
      <trkpt lat="44.70496" lon="5.98334">
        <ele>1785</ele>
        <time>2021-09-20T11:57:27Z</time>
      </trkpt>
      <trkpt lat="44.70495" lon="5.98335">
        <ele>1784</ele>
        <time>2021-09-20T11:57:28Z</time>
      </trkpt>
      <trkpt lat="44.70494" lon="5.98335">
        <ele>1784</ele>
        <time>2021-09-20T11:57:29Z</time>
      </trkpt>
      <trkpt lat="44.70494" lon="5.98336">
        <ele>1784</ele>
        <time>2021-09-20T11:57:30Z</time>
      </trkpt>
      <trkpt lat="44.70493" lon="5.98336">
        <ele>1784</ele>
        <time>2021-09-20T11:57:31Z</time>
      </trkpt>
      <trkpt lat="44.70493" lon="5.98337">
        <ele>1784</ele>
        <time>2021-09-20T11:57:32Z</time>
      </trkpt>
      <trkpt lat="44.70492" lon="5.98338">
        <ele>1783</ele>
        <time>2021-09-20T11:57:33Z</time>
      </trkpt>
      <trkpt lat="44.70492" lon="5.98338">
        <ele>1783</ele>
        <time>2021-09-20T11:57:34Z</time>
      </trkpt>
      <trkpt lat="44.70491" lon="5.98339">
        <ele>1783</ele>
        <time>2021-09-20T11:57:35Z</time>
      </trkpt>
      <trkpt lat="44.7049" lon="5.9834">
        <ele>1783</ele>
        <time>2021-09-20T11:57:36Z</time>
      </trkpt>
      <trkpt lat="44.7049" lon="5.9834">
        <ele>1783</ele>
        <time>2021-09-20T11:57:37Z</time>
      </trkpt>
      <trkpt lat="44.70489" lon="5.98341">
        <ele>1782</ele>
        <time>2021-09-20T11:57:38Z</time>
      </trkpt>
      <trkpt lat="44.70488" lon="5.98342">
        <ele>1782</ele>
        <time>2021-09-20T11:57:39Z</time>
      </trkpt>
      <trkpt lat="44.70487" lon="5.98342">
        <ele>1782</ele>
        <time>2021-09-20T11:57:40Z</time>
      </trkpt>
      <trkpt lat="44.70486" lon="5.98343">
        <ele>1782</ele>
        <time>2021-09-20T11:57:41Z</time>
      </trkpt>
      <trkpt lat="44.70486" lon="5.98344">
        <ele>1782</ele>
        <time>2021-09-20T11:57:42Z</time>
      </trkpt>
      <trkpt lat="44.70485" lon="5.98344">
        <ele>1781</ele>
        <time>2021-09-20T11:57:43Z</time>
      </trkpt>
      <trkpt lat="44.70485" lon="5.98345">
        <ele>1781</ele>
        <time>2021-09-20T11:57:44Z</time>
      </trkpt>
      <trkpt lat="44.70484" lon="5.98346">
        <ele>1781</ele>
        <time>2021-09-20T11:57:45Z</time>
      </trkpt>
      <trkpt lat="44.70483" lon="5.98347">
        <ele>1781</ele>
        <time>2021-09-20T11:57:46Z</time>
      </trkpt>
      <trkpt lat="44.70483" lon="5.98347">
        <ele>1781</ele>
        <time>2021-09-20T11:57:47Z</time>
      </trkpt>
      <trkpt lat="44.70482" lon="5.98348">
        <ele>1780</ele>
        <time>2021-09-20T11:57:48Z</time>
      </trkpt>
      <trkpt lat="44.70482" lon="5.98349">
        <ele>1780</ele>
        <time>2021-09-20T11:57:49Z</time>
      </trkpt>
      <trkpt lat="44.70482" lon="5.9835">
        <ele>1780</ele>
        <time>2021-09-20T11:57:50Z</time>
      </trkpt>
      <trkpt lat="44.70481" lon="5.9835">
        <ele>1780</ele>
        <time>2021-09-20T11:57:51Z</time>
      </trkpt>
      <trkpt lat="44.70481" lon="5.98351">
        <ele>1780</ele>
        <time>2021-09-20T11:57:52Z</time>
      </trkpt>
      <trkpt lat="44.7048" lon="5.98352">
        <ele>1779</ele>
        <time>2021-09-20T11:57:53Z</time>
      </trkpt>
      <trkpt lat="44.7048" lon="5.98353">
        <ele>1779</ele>
        <time>2021-09-20T11:57:54Z</time>
      </trkpt>
      <trkpt lat="44.7048" lon="5.98353">
        <ele>1779</ele>
        <time>2021-09-20T11:57:55Z</time>
      </trkpt>
      <trkpt lat="44.70479" lon="5.98354">
        <ele>1779</ele>
        <time>2021-09-20T11:57:56Z</time>
      </trkpt>
      <trkpt lat="44.70479" lon="5.98355">
        <ele>1779</ele>
        <time>2021-09-20T11:57:57Z</time>
      </trkpt>
      <trkpt lat="44.70478" lon="5.98356">
        <ele>1778</ele>
        <time>2021-09-20T11:57:58Z</time>
      </trkpt>
      <trkpt lat="44.70478" lon="5.98356">
        <ele>1778</ele>
        <time>2021-09-20T11:57:59Z</time>
      </trkpt>
      <trkpt lat="44.70477" lon="5.98357">
        <ele>1778</ele>
        <time>2021-09-20T11:58:00Z</time>
      </trkpt>
      <trkpt lat="44.70477" lon="5.98358">
        <ele>1778</ele>
        <time>2021-09-20T11:58:01Z</time>
      </trkpt>
      <trkpt lat="44.70476" lon="5.98359">
        <ele>1778</ele>
        <time>2021-09-20T11:58:02Z</time>
      </trkpt>
      <trkpt lat="44.70476" lon="5.98359">
        <ele>1777</ele>
        <time>2021-09-20T11:58:03Z</time>
      </trkpt>
      <trkpt lat="44.70476" lon="5.9836">
        <ele>1777</ele>
        <time>2021-09-20T11:58:04Z</time>
      </trkpt>
      <trkpt lat="44.70475" lon="5.98361">
        <ele>1777</ele>
        <time>2021-09-20T11:58:05Z</time>
      </trkpt>
      <trkpt lat="44.70475" lon="5.98361">
        <ele>1777</ele>
        <time>2021-09-20T11:58:06Z</time>
      </trkpt>
      <trkpt lat="44.70474" lon="5.98362">
        <ele>1777</ele>
        <time>2021-09-20T11:58:07Z</time>
      </trkpt>
      <trkpt lat="44.70474" lon="5.98363">
        <ele>1776</ele>
        <time>2021-09-20T11:58:08Z</time>
      </trkpt>
      <trkpt lat="44.70474" lon="5.98364">
        <ele>1776</ele>
        <time>2021-09-20T11:58:09Z</time>
      </trkpt>
      <trkpt lat="44.70473" lon="5.98365">
        <ele>1776</ele>
        <time>2021-09-20T11:58:10Z</time>
      </trkpt>
      <trkpt lat="44.70473" lon="5.98366">
        <ele>1776</ele>
        <time>2021-09-20T11:58:11Z</time>
      </trkpt>
      <trkpt lat="44.70473" lon="5.98367">
        <ele>1776</ele>
        <time>2021-09-20T11:58:12Z</time>
      </trkpt>
      <trkpt lat="44.70473" lon="5.98368">
        <ele>1775</ele>
        <time>2021-09-20T11:58:13Z</time>
      </trkpt>
      <trkpt lat="44.70473" lon="5.98369">
        <ele>1775</ele>
        <time>2021-09-20T11:58:14Z</time>
      </trkpt>
      <trkpt lat="44.70472" lon="5.9837">
        <ele>1775</ele>
        <time>2021-09-20T11:58:15Z</time>
      </trkpt>
      <trkpt lat="44.70472" lon="5.98371">
        <ele>1775</ele>
        <time>2021-09-20T11:58:16Z</time>
      </trkpt>
      <trkpt lat="44.70472" lon="5.98372">
        <ele>1775</ele>
        <time>2021-09-20T11:58:17Z</time>
      </trkpt>
      <trkpt lat="44.70472" lon="5.98373">
        <ele>1774</ele>
        <time>2021-09-20T11:58:18Z</time>
      </trkpt>
      <trkpt lat="44.70471" lon="5.98374">
        <ele>1774</ele>
        <time>2021-09-20T11:58:19Z</time>
      </trkpt>
      <trkpt lat="44.70471" lon="5.98374">
        <ele>1773</ele>
        <time>2021-09-20T11:58:20Z</time>
      </trkpt>
      <trkpt lat="44.7047" lon="5.98375">
        <ele>1773</ele>
        <time>2021-09-20T11:58:21Z</time>
      </trkpt>
      <trkpt lat="44.7047" lon="5.98376">
        <ele>1773</ele>
        <time>2021-09-20T11:58:22Z</time>
      </trkpt>
      <trkpt lat="44.70469" lon="5.98377">
        <ele>1772</ele>
        <time>2021-09-20T11:58:23Z</time>
      </trkpt>
      <trkpt lat="44.70468" lon="5.98378">
        <ele>1772</ele>
        <time>2021-09-20T11:58:24Z</time>
      </trkpt>
      <trkpt lat="44.70468" lon="5.98379">
        <ele>1772</ele>
        <time>2021-09-20T11:58:25Z</time>
      </trkpt>
      <trkpt lat="44.70467" lon="5.9838">
        <ele>1772</ele>
        <time>2021-09-20T11:58:26Z</time>
      </trkpt>
      <trkpt lat="44.70467" lon="5.9838">
        <ele>1772</ele>
        <time>2021-09-20T11:58:27Z</time>
      </trkpt>
      <trkpt lat="44.70467" lon="5.98381">
        <ele>1771</ele>
        <time>2021-09-20T11:58:28Z</time>
      </trkpt>
      <trkpt lat="44.70467" lon="5.98381">
        <ele>1771</ele>
        <time>2021-09-20T11:58:29Z</time>
      </trkpt>
      <trkpt lat="44.70466" lon="5.98383">
        <ele>1771</ele>
        <time>2021-09-20T11:58:30Z</time>
      </trkpt>
      <trkpt lat="44.70466" lon="5.98384">
        <ele>1771</ele>
        <time>2021-09-20T11:58:31Z</time>
      </trkpt>
      <trkpt lat="44.70465" lon="5.98385">
        <ele>1771</ele>
        <time>2021-09-20T11:58:32Z</time>
      </trkpt>
      <trkpt lat="44.70465" lon="5.98386">
        <ele>1770</ele>
        <time>2021-09-20T11:58:33Z</time>
      </trkpt>
      <trkpt lat="44.70464" lon="5.98387">
        <ele>1770</ele>
        <time>2021-09-20T11:58:34Z</time>
      </trkpt>
      <trkpt lat="44.70464" lon="5.98388">
        <ele>1770</ele>
        <time>2021-09-20T11:58:35Z</time>
      </trkpt>
      <trkpt lat="44.70463" lon="5.98389">
        <ele>1770</ele>
        <time>2021-09-20T11:58:36Z</time>
      </trkpt>
      <trkpt lat="44.70463" lon="5.9839">
        <ele>1770</ele>
        <time>2021-09-20T11:58:37Z</time>
      </trkpt>
      <trkpt lat="44.70462" lon="5.98391">
        <ele>1769</ele>
        <time>2021-09-20T11:58:38Z</time>
      </trkpt>
      <trkpt lat="44.70462" lon="5.98392">
        <ele>1769</ele>
        <time>2021-09-20T11:58:39Z</time>
      </trkpt>
      <trkpt lat="44.70461" lon="5.98393">
        <ele>1768</ele>
        <time>2021-09-20T11:58:40Z</time>
      </trkpt>
      <trkpt lat="44.70461" lon="5.98394">
        <ele>1768</ele>
        <time>2021-09-20T11:58:41Z</time>
      </trkpt>
      <trkpt lat="44.70461" lon="5.98395">
        <ele>1768</ele>
        <time>2021-09-20T11:58:42Z</time>
      </trkpt>
      <trkpt lat="44.7046" lon="5.98396">
        <ele>1767</ele>
        <time>2021-09-20T11:58:43Z</time>
      </trkpt>
      <trkpt lat="44.7046" lon="5.98396">
        <ele>1767</ele>
        <time>2021-09-20T11:58:44Z</time>
      </trkpt>
      <trkpt lat="44.70459" lon="5.98397">
        <ele>1766</ele>
        <time>2021-09-20T11:58:45Z</time>
      </trkpt>
      <trkpt lat="44.70459" lon="5.98398">
        <ele>1766</ele>
        <time>2021-09-20T11:58:46Z</time>
      </trkpt>
      <trkpt lat="44.70458" lon="5.98399">
        <ele>1766</ele>
        <time>2021-09-20T11:58:47Z</time>
      </trkpt>
      <trkpt lat="44.70458" lon="5.984">
        <ele>1765</ele>
        <time>2021-09-20T11:58:48Z</time>
      </trkpt>
      <trkpt lat="44.70458" lon="5.98401">
        <ele>1765</ele>
        <time>2021-09-20T11:58:49Z</time>
      </trkpt>
      <trkpt lat="44.70457" lon="5.98401">
        <ele>1765</ele>
        <time>2021-09-20T11:58:50Z</time>
      </trkpt>
      <trkpt lat="44.70457" lon="5.98402">
        <ele>1765</ele>
        <time>2021-09-20T11:58:51Z</time>
      </trkpt>
      <trkpt lat="44.70456" lon="5.98403">
        <ele>1765</ele>
        <time>2021-09-20T11:58:52Z</time>
      </trkpt>
      <trkpt lat="44.70456" lon="5.98403">
        <ele>1764</ele>
        <time>2021-09-20T11:58:53Z</time>
      </trkpt>
      <trkpt lat="44.70455" lon="5.98403">
        <ele>1764</ele>
        <time>2021-09-20T11:58:54Z</time>
      </trkpt>
      <trkpt lat="44.70455" lon="5.98404">
        <ele>1764</ele>
        <time>2021-09-20T11:58:55Z</time>
      </trkpt>
      <trkpt lat="44.70454" lon="5.98404">
        <ele>1764</ele>
        <time>2021-09-20T11:58:56Z</time>
      </trkpt>
      <trkpt lat="44.70454" lon="5.98404">
        <ele>1764</ele>
        <time>2021-09-20T11:58:57Z</time>
      </trkpt>
      <trkpt lat="44.70453" lon="5.98405">
        <ele>1763</ele>
        <time>2021-09-20T11:58:58Z</time>
      </trkpt>
      <trkpt lat="44.70453" lon="5.98405">
        <ele>1763</ele>
        <time>2021-09-20T11:58:59Z</time>
      </trkpt>
      <trkpt lat="44.70452" lon="5.98405">
        <ele>1762</ele>
        <time>2021-09-20T11:59:00Z</time>
      </trkpt>
      <trkpt lat="44.70452" lon="5.98406">
        <ele>1762</ele>
        <time>2021-09-20T11:59:01Z</time>
      </trkpt>
      <trkpt lat="44.70451" lon="5.98406">
        <ele>1762</ele>
        <time>2021-09-20T11:59:02Z</time>
      </trkpt>
      <trkpt lat="44.70451" lon="5.98407">
        <ele>1761</ele>
        <time>2021-09-20T11:59:03Z</time>
      </trkpt>
      <trkpt lat="44.7045" lon="5.98408">
        <ele>1761</ele>
        <time>2021-09-20T11:59:04Z</time>
      </trkpt>
      <trkpt lat="44.7045" lon="5.98408">
        <ele>1761</ele>
        <time>2021-09-20T11:59:05Z</time>
      </trkpt>
      <trkpt lat="44.70449" lon="5.98409">
        <ele>1761</ele>
        <time>2021-09-20T11:59:06Z</time>
      </trkpt>
      <trkpt lat="44.70449" lon="5.9841">
        <ele>1761</ele>
        <time>2021-09-20T11:59:07Z</time>
      </trkpt>
      <trkpt lat="44.70448" lon="5.98411">
        <ele>1760</ele>
        <time>2021-09-20T11:59:08Z</time>
      </trkpt>
      <trkpt lat="44.70448" lon="5.98411">
        <ele>1760</ele>
        <time>2021-09-20T11:59:09Z</time>
      </trkpt>
      <trkpt lat="44.70448" lon="5.98412">
        <ele>1760</ele>
        <time>2021-09-20T11:59:10Z</time>
      </trkpt>
      <trkpt lat="44.70447" lon="5.98413">
        <ele>1760</ele>
        <time>2021-09-20T11:59:11Z</time>
      </trkpt>
      <trkpt lat="44.70447" lon="5.98413">
        <ele>1760</ele>
        <time>2021-09-20T11:59:12Z</time>
      </trkpt>
      <trkpt lat="44.70447" lon="5.98414">
        <ele>1759</ele>
        <time>2021-09-20T11:59:13Z</time>
      </trkpt>
      <trkpt lat="44.70446" lon="5.98415">
        <ele>1759</ele>
        <time>2021-09-20T11:59:14Z</time>
      </trkpt>
      <trkpt lat="44.70445" lon="5.98415">
        <ele>1759</ele>
        <time>2021-09-20T11:59:15Z</time>
      </trkpt>
      <trkpt lat="44.70445" lon="5.98416">
        <ele>1759</ele>
        <time>2021-09-20T11:59:16Z</time>
      </trkpt>
      <trkpt lat="44.70444" lon="5.98416">
        <ele>1759</ele>
        <time>2021-09-20T11:59:17Z</time>
      </trkpt>
      <trkpt lat="44.70444" lon="5.98417">
        <ele>1758</ele>
        <time>2021-09-20T11:59:18Z</time>
      </trkpt>
      <trkpt lat="44.70444" lon="5.98417">
        <ele>1758</ele>
        <time>2021-09-20T11:59:19Z</time>
      </trkpt>
      <trkpt lat="44.70443" lon="5.98418">
        <ele>1758</ele>
        <time>2021-09-20T11:59:20Z</time>
      </trkpt>
      <trkpt lat="44.70443" lon="5.98418">
        <ele>1758</ele>
        <time>2021-09-20T11:59:21Z</time>
      </trkpt>
      <trkpt lat="44.70442" lon="5.98419">
        <ele>1758</ele>
        <time>2021-09-20T11:59:22Z</time>
      </trkpt>
      <trkpt lat="44.70442" lon="5.98419">
        <ele>1757</ele>
        <time>2021-09-20T11:59:23Z</time>
      </trkpt>
      <trkpt lat="44.70441" lon="5.9842">
        <ele>1757</ele>
        <time>2021-09-20T11:59:24Z</time>
      </trkpt>
      <trkpt lat="44.70441" lon="5.9842">
        <ele>1757</ele>
        <time>2021-09-20T11:59:25Z</time>
      </trkpt>
      <trkpt lat="44.70441" lon="5.98421">
        <ele>1757</ele>
        <time>2021-09-20T11:59:26Z</time>
      </trkpt>
      <trkpt lat="44.7044" lon="5.98422">
        <ele>1757</ele>
        <time>2021-09-20T11:59:27Z</time>
      </trkpt>
      <trkpt lat="44.7044" lon="5.98422">
        <ele>1756</ele>
        <time>2021-09-20T11:59:28Z</time>
      </trkpt>
      <trkpt lat="44.7044" lon="5.98423">
        <ele>1756</ele>
        <time>2021-09-20T11:59:29Z</time>
      </trkpt>
      <trkpt lat="44.7044" lon="5.98423">
        <ele>1756</ele>
        <time>2021-09-20T11:59:30Z</time>
      </trkpt>
      <trkpt lat="44.70439" lon="5.98424">
        <ele>1756</ele>
        <time>2021-09-20T11:59:31Z</time>
      </trkpt>
      <trkpt lat="44.70439" lon="5.98424">
        <ele>1756</ele>
        <time>2021-09-20T11:59:32Z</time>
      </trkpt>
      <trkpt lat="44.70439" lon="5.98425">
        <ele>1755</ele>
        <time>2021-09-20T11:59:33Z</time>
      </trkpt>
      <trkpt lat="44.70439" lon="5.98425">
        <ele>1755</ele>
        <time>2021-09-20T11:59:34Z</time>
      </trkpt>
      <trkpt lat="44.70438" lon="5.98426">
        <ele>1755</ele>
        <time>2021-09-20T11:59:35Z</time>
      </trkpt>
      <trkpt lat="44.70438" lon="5.98427">
        <ele>1755</ele>
        <time>2021-09-20T11:59:36Z</time>
      </trkpt>
      <trkpt lat="44.70437" lon="5.98427">
        <ele>1755</ele>
        <time>2021-09-20T11:59:37Z</time>
      </trkpt>
      <trkpt lat="44.70437" lon="5.98428">
        <ele>1754</ele>
        <time>2021-09-20T11:59:38Z</time>
      </trkpt>
      <trkpt lat="44.70436" lon="5.98428">
        <ele>1754</ele>
        <time>2021-09-20T11:59:39Z</time>
      </trkpt>
      <trkpt lat="44.70436" lon="5.98429">
        <ele>1754</ele>
        <time>2021-09-20T11:59:40Z</time>
      </trkpt>
      <trkpt lat="44.70435" lon="5.98429">
        <ele>1754</ele>
        <time>2021-09-20T11:59:41Z</time>
      </trkpt>
      <trkpt lat="44.70435" lon="5.9843">
        <ele>1754</ele>
        <time>2021-09-20T11:59:42Z</time>
      </trkpt>
      <trkpt lat="44.70434" lon="5.9843">
        <ele>1753</ele>
        <time>2021-09-20T11:59:43Z</time>
      </trkpt>
      <trkpt lat="44.70434" lon="5.98431">
        <ele>1753</ele>
        <time>2021-09-20T11:59:44Z</time>
      </trkpt>
      <trkpt lat="44.70433" lon="5.98432">
        <ele>1752</ele>
        <time>2021-09-20T11:59:45Z</time>
      </trkpt>
      <trkpt lat="44.70433" lon="5.98432">
        <ele>1752</ele>
        <time>2021-09-20T11:59:46Z</time>
      </trkpt>
      <trkpt lat="44.70432" lon="5.98433">
        <ele>1752</ele>
        <time>2021-09-20T11:59:47Z</time>
      </trkpt>
      <trkpt lat="44.70432" lon="5.98433">
        <ele>1751</ele>
        <time>2021-09-20T11:59:48Z</time>
      </trkpt>
      <trkpt lat="44.70432" lon="5.98434">
        <ele>1751</ele>
        <time>2021-09-20T11:59:49Z</time>
      </trkpt>
      <trkpt lat="44.70431" lon="5.98434">
        <ele>1751</ele>
        <time>2021-09-20T11:59:50Z</time>
      </trkpt>
      <trkpt lat="44.70431" lon="5.98434">
        <ele>1751</ele>
        <time>2021-09-20T11:59:51Z</time>
      </trkpt>
      <trkpt lat="44.7043" lon="5.98435">
        <ele>1751</ele>
        <time>2021-09-20T11:59:52Z</time>
      </trkpt>
      <trkpt lat="44.7043" lon="5.98435">
        <ele>1750</ele>
        <time>2021-09-20T11:59:53Z</time>
      </trkpt>
      <trkpt lat="44.70429" lon="5.98435">
        <ele>1750</ele>
        <time>2021-09-20T11:59:54Z</time>
      </trkpt>
      <trkpt lat="44.70429" lon="5.98436">
        <ele>1750</ele>
        <time>2021-09-20T11:59:55Z</time>
      </trkpt>
      <trkpt lat="44.70428" lon="5.98436">
        <ele>1750</ele>
        <time>2021-09-20T11:59:56Z</time>
      </trkpt>
      <trkpt lat="44.70428" lon="5.98437">
        <ele>1750</ele>
        <time>2021-09-20T11:59:57Z</time>
      </trkpt>
      <trkpt lat="44.70427" lon="5.98438">
        <ele>1749</ele>
        <time>2021-09-20T11:59:58Z</time>
      </trkpt>
      <trkpt lat="44.70427" lon="5.98438">
        <ele>1749</ele>
        <time>2021-09-20T11:59:59Z</time>
      </trkpt>
      <trkpt lat="44.70426" lon="5.98438">
        <ele>1748</ele>
        <time>2021-09-20T12:00:00Z</time>
      </trkpt>
      <trkpt lat="44.70425" lon="5.98439">
        <ele>1748</ele>
        <time>2021-09-20T12:00:01Z</time>
      </trkpt>
      <trkpt lat="44.70425" lon="5.98439">
        <ele>1748</ele>
        <time>2021-09-20T12:00:02Z</time>
      </trkpt>
      <trkpt lat="44.70424" lon="5.98439">
        <ele>1748</ele>
        <time>2021-09-20T12:00:03Z</time>
      </trkpt>
      <trkpt lat="44.70423" lon="5.9844">
        <ele>1748</ele>
        <time>2021-09-20T12:00:04Z</time>
      </trkpt>
      <trkpt lat="44.70422" lon="5.9844">
        <ele>1748</ele>
        <time>2021-09-20T12:00:05Z</time>
      </trkpt>
      <trkpt lat="44.70422" lon="5.9844">
        <ele>1748</ele>
        <time>2021-09-20T12:00:06Z</time>
      </trkpt>
      <trkpt lat="44.70421" lon="5.98441">
        <ele>1748</ele>
        <time>2021-09-20T12:00:07Z</time>
      </trkpt>
      <trkpt lat="44.70421" lon="5.98441">
        <ele>1747</ele>
        <time>2021-09-20T12:00:08Z</time>
      </trkpt>
      <trkpt lat="44.7042" lon="5.98442">
        <ele>1747</ele>
        <time>2021-09-20T12:00:09Z</time>
      </trkpt>
      <trkpt lat="44.7042" lon="5.98442">
        <ele>1747</ele>
        <time>2021-09-20T12:00:10Z</time>
      </trkpt>
      <trkpt lat="44.70419" lon="5.98442">
        <ele>1747</ele>
        <time>2021-09-20T12:00:11Z</time>
      </trkpt>
      <trkpt lat="44.70418" lon="5.98443">
        <ele>1747</ele>
        <time>2021-09-20T12:00:12Z</time>
      </trkpt>
      <trkpt lat="44.70418" lon="5.98443">
        <ele>1747</ele>
        <time>2021-09-20T12:00:13Z</time>
      </trkpt>
      <trkpt lat="44.70417" lon="5.98444">
        <ele>1747</ele>
        <time>2021-09-20T12:00:14Z</time>
      </trkpt>
      <trkpt lat="44.70417" lon="5.98444">
        <ele>1747</ele>
        <time>2021-09-20T12:00:15Z</time>
      </trkpt>
      <trkpt lat="44.70416" lon="5.98444">
        <ele>1747</ele>
        <time>2021-09-20T12:00:16Z</time>
      </trkpt>
      <trkpt lat="44.70416" lon="5.98444">
        <ele>1747</ele>
        <time>2021-09-20T12:00:17Z</time>
      </trkpt>
      <trkpt lat="44.70415" lon="5.98445">
        <ele>1746</ele>
        <time>2021-09-20T12:00:18Z</time>
      </trkpt>
      <trkpt lat="44.70414" lon="5.98445">
        <ele>1746</ele>
        <time>2021-09-20T12:00:19Z</time>
      </trkpt>
      <trkpt lat="44.70414" lon="5.98445">
        <ele>1745</ele>
        <time>2021-09-20T12:00:20Z</time>
      </trkpt>
      <trkpt lat="44.70413" lon="5.98445">
        <ele>1745</ele>
        <time>2021-09-20T12:00:21Z</time>
      </trkpt>
      <trkpt lat="44.70413" lon="5.98446">
        <ele>1745</ele>
        <time>2021-09-20T12:00:22Z</time>
      </trkpt>
      <trkpt lat="44.70412" lon="5.98446">
        <ele>1744</ele>
        <time>2021-09-20T12:00:23Z</time>
      </trkpt>
      <trkpt lat="44.70412" lon="5.98447">
        <ele>1743</ele>
        <time>2021-09-20T12:00:24Z</time>
      </trkpt>
      <trkpt lat="44.70411" lon="5.98447">
        <ele>1743</ele>
        <time>2021-09-20T12:00:25Z</time>
      </trkpt>
      <trkpt lat="44.70411" lon="5.98448">
        <ele>1742</ele>
        <time>2021-09-20T12:00:26Z</time>
      </trkpt>
      <trkpt lat="44.70411" lon="5.98448">
        <ele>1742</ele>
        <time>2021-09-20T12:00:27Z</time>
      </trkpt>
      <trkpt lat="44.7041" lon="5.98448">
        <ele>1741</ele>
        <time>2021-09-20T12:00:28Z</time>
      </trkpt>
      <trkpt lat="44.7041" lon="5.98449">
        <ele>1741</ele>
        <time>2021-09-20T12:00:29Z</time>
      </trkpt>
      <trkpt lat="44.70409" lon="5.9845">
        <ele>1741</ele>
        <time>2021-09-20T12:00:30Z</time>
      </trkpt>
      <trkpt lat="44.70408" lon="5.9845">
        <ele>1741</ele>
        <time>2021-09-20T12:00:31Z</time>
      </trkpt>
      <trkpt lat="44.70408" lon="5.9845">
        <ele>1741</ele>
        <time>2021-09-20T12:00:32Z</time>
      </trkpt>
      <trkpt lat="44.70407" lon="5.98451">
        <ele>1740</ele>
        <time>2021-09-20T12:00:33Z</time>
      </trkpt>
      <trkpt lat="44.70406" lon="5.98451">
        <ele>1740</ele>
        <time>2021-09-20T12:00:34Z</time>
      </trkpt>
      <trkpt lat="44.70406" lon="5.98452">
        <ele>1739</ele>
        <time>2021-09-20T12:00:35Z</time>
      </trkpt>
      <trkpt lat="44.70405" lon="5.98452">
        <ele>1739</ele>
        <time>2021-09-20T12:00:36Z</time>
      </trkpt>
      <trkpt lat="44.70404" lon="5.98453">
        <ele>1739</ele>
        <time>2021-09-20T12:00:37Z</time>
      </trkpt>
      <trkpt lat="44.70404" lon="5.98453">
        <ele>1738</ele>
        <time>2021-09-20T12:00:38Z</time>
      </trkpt>
      <trkpt lat="44.70403" lon="5.98454">
        <ele>1738</ele>
        <time>2021-09-20T12:00:39Z</time>
      </trkpt>
      <trkpt lat="44.70403" lon="5.98455">
        <ele>1738</ele>
        <time>2021-09-20T12:00:40Z</time>
      </trkpt>
      <trkpt lat="44.70402" lon="5.98455">
        <ele>1738</ele>
        <time>2021-09-20T12:00:41Z</time>
      </trkpt>
      <trkpt lat="44.70401" lon="5.98456">
        <ele>1738</ele>
        <time>2021-09-20T12:00:42Z</time>
      </trkpt>
      <trkpt lat="44.70401" lon="5.98457">
        <ele>1737</ele>
        <time>2021-09-20T12:00:43Z</time>
      </trkpt>
      <trkpt lat="44.704" lon="5.98458">
        <ele>1737</ele>
        <time>2021-09-20T12:00:44Z</time>
      </trkpt>
      <trkpt lat="44.704" lon="5.98459">
        <ele>1736</ele>
        <time>2021-09-20T12:00:45Z</time>
      </trkpt>
      <trkpt lat="44.704" lon="5.9846">
        <ele>1736</ele>
        <time>2021-09-20T12:00:46Z</time>
      </trkpt>
      <trkpt lat="44.70399" lon="5.9846">
        <ele>1736</ele>
        <time>2021-09-20T12:00:47Z</time>
      </trkpt>
      <trkpt lat="44.70399" lon="5.98461">
        <ele>1735</ele>
        <time>2021-09-20T12:00:48Z</time>
      </trkpt>
      <trkpt lat="44.70398" lon="5.98462">
        <ele>1735</ele>
        <time>2021-09-20T12:00:49Z</time>
      </trkpt>
      <trkpt lat="44.70398" lon="5.98463">
        <ele>1734</ele>
        <time>2021-09-20T12:00:50Z</time>
      </trkpt>
      <trkpt lat="44.70397" lon="5.98464">
        <ele>1734</ele>
        <time>2021-09-20T12:00:51Z</time>
      </trkpt>
      <trkpt lat="44.70397" lon="5.98464">
        <ele>1734</ele>
        <time>2021-09-20T12:00:52Z</time>
      </trkpt>
      <trkpt lat="44.70396" lon="5.98465">
        <ele>1733</ele>
        <time>2021-09-20T12:00:53Z</time>
      </trkpt>
      <trkpt lat="44.70396" lon="5.98466">
        <ele>1733</ele>
        <time>2021-09-20T12:00:54Z</time>
      </trkpt>
      <trkpt lat="44.70395" lon="5.98467">
        <ele>1733</ele>
        <time>2021-09-20T12:00:55Z</time>
      </trkpt>
      <trkpt lat="44.70395" lon="5.98468">
        <ele>1733</ele>
        <time>2021-09-20T12:00:56Z</time>
      </trkpt>
      <trkpt lat="44.70394" lon="5.98469">
        <ele>1733</ele>
        <time>2021-09-20T12:00:57Z</time>
      </trkpt>
      <trkpt lat="44.70394" lon="5.9847">
        <ele>1732</ele>
        <time>2021-09-20T12:00:58Z</time>
      </trkpt>
      <trkpt lat="44.70393" lon="5.98471">
        <ele>1732</ele>
        <time>2021-09-20T12:00:59Z</time>
      </trkpt>
      <trkpt lat="44.70393" lon="5.98472">
        <ele>1731</ele>
        <time>2021-09-20T12:01:00Z</time>
      </trkpt>
      <trkpt lat="44.70392" lon="5.98473">
        <ele>1731</ele>
        <time>2021-09-20T12:01:01Z</time>
      </trkpt>
      <trkpt lat="44.70392" lon="5.98474">
        <ele>1731</ele>
        <time>2021-09-20T12:01:02Z</time>
      </trkpt>
      <trkpt lat="44.70391" lon="5.98475">
        <ele>1730</ele>
        <time>2021-09-20T12:01:03Z</time>
      </trkpt>
      <trkpt lat="44.70391" lon="5.98476">
        <ele>1730</ele>
        <time>2021-09-20T12:01:04Z</time>
      </trkpt>
      <trkpt lat="44.7039" lon="5.98477">
        <ele>1730</ele>
        <time>2021-09-20T12:01:05Z</time>
      </trkpt>
      <trkpt lat="44.7039" lon="5.98478">
        <ele>1730</ele>
        <time>2021-09-20T12:01:06Z</time>
      </trkpt>
      <trkpt lat="44.70389" lon="5.9848">
        <ele>1730</ele>
        <time>2021-09-20T12:01:07Z</time>
      </trkpt>
      <trkpt lat="44.70389" lon="5.98481">
        <ele>1729</ele>
        <time>2021-09-20T12:01:08Z</time>
      </trkpt>
      <trkpt lat="44.70388" lon="5.98482">
        <ele>1729</ele>
        <time>2021-09-20T12:01:09Z</time>
      </trkpt>
      <trkpt lat="44.70388" lon="5.98483">
        <ele>1729</ele>
        <time>2021-09-20T12:01:10Z</time>
      </trkpt>
      <trkpt lat="44.70387" lon="5.98484">
        <ele>1729</ele>
        <time>2021-09-20T12:01:11Z</time>
      </trkpt>
      <trkpt lat="44.70387" lon="5.98485">
        <ele>1729</ele>
        <time>2021-09-20T12:01:12Z</time>
      </trkpt>
      <trkpt lat="44.70386" lon="5.98487">
        <ele>1728</ele>
        <time>2021-09-20T12:01:13Z</time>
      </trkpt>
      <trkpt lat="44.70386" lon="5.98488">
        <ele>1728</ele>
        <time>2021-09-20T12:01:14Z</time>
      </trkpt>
      <trkpt lat="44.70385" lon="5.98489">
        <ele>1728</ele>
        <time>2021-09-20T12:01:15Z</time>
      </trkpt>
      <trkpt lat="44.70384" lon="5.9849">
        <ele>1728</ele>
        <time>2021-09-20T12:01:16Z</time>
      </trkpt>
      <trkpt lat="44.70384" lon="5.98491">
        <ele>1728</ele>
        <time>2021-09-20T12:01:17Z</time>
      </trkpt>
      <trkpt lat="44.70383" lon="5.98492">
        <ele>1728</ele>
        <time>2021-09-20T12:01:18Z</time>
      </trkpt>
      <trkpt lat="44.70383" lon="5.98493">
        <ele>1728</ele>
        <time>2021-09-20T12:01:19Z</time>
      </trkpt>
      <trkpt lat="44.70382" lon="5.98494">
        <ele>1728</ele>
        <time>2021-09-20T12:01:20Z</time>
      </trkpt>
      <trkpt lat="44.70382" lon="5.98495">
        <ele>1728</ele>
        <time>2021-09-20T12:01:21Z</time>
      </trkpt>
      <trkpt lat="44.70382" lon="5.98497">
        <ele>1726</ele>
        <time>2021-09-20T12:03:20Z</time>
      </trkpt>
      <trkpt lat="44.70382" lon="5.98498">
        <ele>1726</ele>
        <time>2021-09-20T12:03:21Z</time>
      </trkpt>
      <trkpt lat="44.70382" lon="5.98499">
        <ele>1726</ele>
        <time>2021-09-20T12:03:22Z</time>
      </trkpt>
      <trkpt lat="44.70382" lon="5.98499">
        <ele>1726</ele>
        <time>2021-09-20T12:03:23Z</time>
      </trkpt>
      <trkpt lat="44.70382" lon="5.98499">
        <ele>1726</ele>
        <time>2021-09-20T12:03:24Z</time>
      </trkpt>
      <trkpt lat="44.70382" lon="5.98498">
        <ele>1726</ele>
        <time>2021-09-20T12:03:25Z</time>
      </trkpt>
      <trkpt lat="44.70381" lon="5.98498">
        <ele>1726</ele>
        <time>2021-09-20T12:03:26Z</time>
      </trkpt>
      <trkpt lat="44.70379" lon="5.98499">
        <ele>1726</ele>
        <time>2021-09-20T12:04:50Z</time>
      </trkpt>
      <trkpt lat="44.70378" lon="5.98499">
        <ele>1726</ele>
        <time>2021-09-20T12:04:51Z</time>
      </trkpt>
      <trkpt lat="44.70377" lon="5.985">
        <ele>1726</ele>
        <time>2021-09-20T12:04:52Z</time>
      </trkpt>
      <trkpt lat="44.70376" lon="5.985">
        <ele>1726</ele>
        <time>2021-09-20T12:04:53Z</time>
      </trkpt>
      <trkpt lat="44.70376" lon="5.98501">
        <ele>1726</ele>
        <time>2021-09-20T12:04:54Z</time>
      </trkpt>
      <trkpt lat="44.70375" lon="5.98503">
        <ele>1726</ele>
        <time>2021-09-20T12:04:55Z</time>
      </trkpt>
      <trkpt lat="44.70375" lon="5.98504">
        <ele>1726</ele>
        <time>2021-09-20T12:04:56Z</time>
      </trkpt>
      <trkpt lat="44.70375" lon="5.98504">
        <ele>1726</ele>
        <time>2021-09-20T12:04:57Z</time>
      </trkpt>
      <trkpt lat="44.70375" lon="5.98505">
        <ele>1726</ele>
        <time>2021-09-20T12:04:58Z</time>
      </trkpt>
      <trkpt lat="44.70374" lon="5.98505">
        <ele>1726</ele>
        <time>2021-09-20T12:04:59Z</time>
      </trkpt>
      <trkpt lat="44.70374" lon="5.98505">
        <ele>1726</ele>
        <time>2021-09-20T12:05:00Z</time>
      </trkpt>
      <trkpt lat="44.70374" lon="5.98507">
        <ele>1726</ele>
        <time>2021-09-20T12:05:01Z</time>
      </trkpt>
      <trkpt lat="44.70374" lon="5.98508">
        <ele>1726</ele>
        <time>2021-09-20T12:05:02Z</time>
      </trkpt>
      <trkpt lat="44.70373" lon="5.98509">
        <ele>1725</ele>
        <time>2021-09-20T12:05:03Z</time>
      </trkpt>
      <trkpt lat="44.70373" lon="5.9851">
        <ele>1725</ele>
        <time>2021-09-20T12:05:04Z</time>
      </trkpt>
      <trkpt lat="44.70373" lon="5.9851">
        <ele>1725</ele>
        <time>2021-09-20T12:05:05Z</time>
      </trkpt>
      <trkpt lat="44.70372" lon="5.98511">
        <ele>1725</ele>
        <time>2021-09-20T12:05:06Z</time>
      </trkpt>
      <trkpt lat="44.70372" lon="5.98512">
        <ele>1725</ele>
        <time>2021-09-20T12:05:07Z</time>
      </trkpt>
      <trkpt lat="44.70371" lon="5.98513">
        <ele>1725</ele>
        <time>2021-09-20T12:05:08Z</time>
      </trkpt>
      <trkpt lat="44.70371" lon="5.98514">
        <ele>1725</ele>
        <time>2021-09-20T12:05:09Z</time>
      </trkpt>
      <trkpt lat="44.7037" lon="5.98515">
        <ele>1725</ele>
        <time>2021-09-20T12:05:10Z</time>
      </trkpt>
      <trkpt lat="44.7037" lon="5.98516">
        <ele>1725</ele>
        <time>2021-09-20T12:05:11Z</time>
      </trkpt>
      <trkpt lat="44.7037" lon="5.98517">
        <ele>1725</ele>
        <time>2021-09-20T12:05:12Z</time>
      </trkpt>
      <trkpt lat="44.70369" lon="5.98518">
        <ele>1724</ele>
        <time>2021-09-20T12:05:13Z</time>
      </trkpt>
      <trkpt lat="44.70369" lon="5.98519">
        <ele>1724</ele>
        <time>2021-09-20T12:05:14Z</time>
      </trkpt>
      <trkpt lat="44.70368" lon="5.9852">
        <ele>1724</ele>
        <time>2021-09-20T12:05:15Z</time>
      </trkpt>
      <trkpt lat="44.70368" lon="5.98521">
        <ele>1724</ele>
        <time>2021-09-20T12:05:16Z</time>
      </trkpt>
      <trkpt lat="44.70368" lon="5.98522">
        <ele>1724</ele>
        <time>2021-09-20T12:05:17Z</time>
      </trkpt>
      <trkpt lat="44.70367" lon="5.98522">
        <ele>1724</ele>
        <time>2021-09-20T12:05:18Z</time>
      </trkpt>
      <trkpt lat="44.70367" lon="5.98523">
        <ele>1724</ele>
        <time>2021-09-20T12:05:19Z</time>
      </trkpt>
      <trkpt lat="44.70367" lon="5.98523">
        <ele>1724</ele>
        <time>2021-09-20T12:05:20Z</time>
      </trkpt>
      <trkpt lat="44.70366" lon="5.98524">
        <ele>1724</ele>
        <time>2021-09-20T12:05:21Z</time>
      </trkpt>
      <trkpt lat="44.70365" lon="5.98524">
        <ele>1724</ele>
        <time>2021-09-20T12:05:22Z</time>
      </trkpt>
      <trkpt lat="44.70365" lon="5.98525">
        <ele>1723</ele>
        <time>2021-09-20T12:05:23Z</time>
      </trkpt>
      <trkpt lat="44.70364" lon="5.98525">
        <ele>1723</ele>
        <time>2021-09-20T12:05:24Z</time>
      </trkpt>
      <trkpt lat="44.70363" lon="5.98526">
        <ele>1723</ele>
        <time>2021-09-20T12:05:25Z</time>
      </trkpt>
      <trkpt lat="44.70363" lon="5.98526">
        <ele>1723</ele>
        <time>2021-09-20T12:05:26Z</time>
      </trkpt>
      <trkpt lat="44.70362" lon="5.98527">
        <ele>1723</ele>
        <time>2021-09-20T12:05:27Z</time>
      </trkpt>
      <trkpt lat="44.70362" lon="5.98528">
        <ele>1722</ele>
        <time>2021-09-20T12:05:28Z</time>
      </trkpt>
      <trkpt lat="44.70361" lon="5.98528">
        <ele>1722</ele>
        <time>2021-09-20T12:05:29Z</time>
      </trkpt>
      <trkpt lat="44.70361" lon="5.98529">
        <ele>1722</ele>
        <time>2021-09-20T12:05:30Z</time>
      </trkpt>
      <trkpt lat="44.7036" lon="5.9853">
        <ele>1722</ele>
        <time>2021-09-20T12:05:31Z</time>
      </trkpt>
      <trkpt lat="44.7036" lon="5.98531">
        <ele>1722</ele>
        <time>2021-09-20T12:05:32Z</time>
      </trkpt>
      <trkpt lat="44.70359" lon="5.98531">
        <ele>1721</ele>
        <time>2021-09-20T12:05:33Z</time>
      </trkpt>
      <trkpt lat="44.70359" lon="5.98532">
        <ele>1721</ele>
        <time>2021-09-20T12:05:34Z</time>
      </trkpt>
      <trkpt lat="44.70358" lon="5.98533">
        <ele>1720</ele>
        <time>2021-09-20T12:05:35Z</time>
      </trkpt>
      <trkpt lat="44.70358" lon="5.98534">
        <ele>1720</ele>
        <time>2021-09-20T12:05:36Z</time>
      </trkpt>
      <trkpt lat="44.70357" lon="5.98535">
        <ele>1720</ele>
        <time>2021-09-20T12:05:37Z</time>
      </trkpt>
      <trkpt lat="44.70357" lon="5.98536">
        <ele>1719</ele>
        <time>2021-09-20T12:05:38Z</time>
      </trkpt>
      <trkpt lat="44.70357" lon="5.98537">
        <ele>1719</ele>
        <time>2021-09-20T12:05:39Z</time>
      </trkpt>
      <trkpt lat="44.70357" lon="5.98538">
        <ele>1719</ele>
        <time>2021-09-20T12:05:40Z</time>
      </trkpt>
      <trkpt lat="44.70357" lon="5.98539">
        <ele>1719</ele>
        <time>2021-09-20T12:05:41Z</time>
      </trkpt>
      <trkpt lat="44.70356" lon="5.9854">
        <ele>1719</ele>
        <time>2021-09-20T12:05:42Z</time>
      </trkpt>
      <trkpt lat="44.70356" lon="5.98541">
        <ele>1719</ele>
        <time>2021-09-20T12:05:43Z</time>
      </trkpt>
      <trkpt lat="44.70356" lon="5.98542">
        <ele>1719</ele>
        <time>2021-09-20T12:05:44Z</time>
      </trkpt>
      <trkpt lat="44.70356" lon="5.98544">
        <ele>1719</ele>
        <time>2021-09-20T12:05:45Z</time>
      </trkpt>
      <trkpt lat="44.70356" lon="5.98545">
        <ele>1719</ele>
        <time>2021-09-20T12:05:46Z</time>
      </trkpt>
      <trkpt lat="44.70356" lon="5.98546">
        <ele>1719</ele>
        <time>2021-09-20T12:05:47Z</time>
      </trkpt>
      <trkpt lat="44.70355" lon="5.98547">
        <ele>1718</ele>
        <time>2021-09-20T12:05:48Z</time>
      </trkpt>
      <trkpt lat="44.70355" lon="5.98548">
        <ele>1718</ele>
        <time>2021-09-20T12:05:49Z</time>
      </trkpt>
      <trkpt lat="44.70354" lon="5.98549">
        <ele>1718</ele>
        <time>2021-09-20T12:05:50Z</time>
      </trkpt>
      <trkpt lat="44.70354" lon="5.9855">
        <ele>1718</ele>
        <time>2021-09-20T12:05:51Z</time>
      </trkpt>
      <trkpt lat="44.70353" lon="5.98551">
        <ele>1718</ele>
        <time>2021-09-20T12:05:52Z</time>
      </trkpt>
      <trkpt lat="44.70353" lon="5.98552">
        <ele>1717</ele>
        <time>2021-09-20T12:05:53Z</time>
      </trkpt>
      <trkpt lat="44.70352" lon="5.98553">
        <ele>1717</ele>
        <time>2021-09-20T12:05:54Z</time>
      </trkpt>
      <trkpt lat="44.70351" lon="5.98553">
        <ele>1717</ele>
        <time>2021-09-20T12:05:55Z</time>
      </trkpt>
      <trkpt lat="44.70351" lon="5.98554">
        <ele>1717</ele>
        <time>2021-09-20T12:05:56Z</time>
      </trkpt>
      <trkpt lat="44.7035" lon="5.98555">
        <ele>1717</ele>
        <time>2021-09-20T12:05:57Z</time>
      </trkpt>
      <trkpt lat="44.70349" lon="5.98555">
        <ele>1716</ele>
        <time>2021-09-20T12:05:58Z</time>
      </trkpt>
      <trkpt lat="44.70349" lon="5.98556">
        <ele>1716</ele>
        <time>2021-09-20T12:05:59Z</time>
      </trkpt>
      <trkpt lat="44.70348" lon="5.98557">
        <ele>1716</ele>
        <time>2021-09-20T12:06:00Z</time>
      </trkpt>
      <trkpt lat="44.70347" lon="5.98557">
        <ele>1716</ele>
        <time>2021-09-20T12:06:01Z</time>
      </trkpt>
      <trkpt lat="44.70346" lon="5.98558">
        <ele>1716</ele>
        <time>2021-09-20T12:06:02Z</time>
      </trkpt>
      <trkpt lat="44.70345" lon="5.98559">
        <ele>1715</ele>
        <time>2021-09-20T12:06:03Z</time>
      </trkpt>
      <trkpt lat="44.70345" lon="5.98559">
        <ele>1715</ele>
        <time>2021-09-20T12:06:04Z</time>
      </trkpt>
      <trkpt lat="44.70344" lon="5.9856">
        <ele>1715</ele>
        <time>2021-09-20T12:06:05Z</time>
      </trkpt>
      <trkpt lat="44.70343" lon="5.98561">
        <ele>1715</ele>
        <time>2021-09-20T12:06:06Z</time>
      </trkpt>
      <trkpt lat="44.70342" lon="5.98562">
        <ele>1715</ele>
        <time>2021-09-20T12:06:07Z</time>
      </trkpt>
      <trkpt lat="44.70342" lon="5.98563">
        <ele>1714</ele>
        <time>2021-09-20T12:06:08Z</time>
      </trkpt>
      <trkpt lat="44.70341" lon="5.98563">
        <ele>1714</ele>
        <time>2021-09-20T12:06:09Z</time>
      </trkpt>
      <trkpt lat="44.7034" lon="5.98564">
        <ele>1714</ele>
        <time>2021-09-20T12:06:10Z</time>
      </trkpt>
      <trkpt lat="44.70339" lon="5.98565">
        <ele>1714</ele>
        <time>2021-09-20T12:06:11Z</time>
      </trkpt>
      <trkpt lat="44.70339" lon="5.98566">
        <ele>1714</ele>
        <time>2021-09-20T12:06:12Z</time>
      </trkpt>
      <trkpt lat="44.70338" lon="5.98567">
        <ele>1713</ele>
        <time>2021-09-20T12:06:13Z</time>
      </trkpt>
      <trkpt lat="44.70337" lon="5.98568">
        <ele>1713</ele>
        <time>2021-09-20T12:06:14Z</time>
      </trkpt>
      <trkpt lat="44.70337" lon="5.98569">
        <ele>1713</ele>
        <time>2021-09-20T12:06:15Z</time>
      </trkpt>
      <trkpt lat="44.70336" lon="5.9857">
        <ele>1713</ele>
        <time>2021-09-20T12:06:16Z</time>
      </trkpt>
      <trkpt lat="44.70335" lon="5.98571">
        <ele>1713</ele>
        <time>2021-09-20T12:06:17Z</time>
      </trkpt>
      <trkpt lat="44.70334" lon="5.98571">
        <ele>1712</ele>
        <time>2021-09-20T12:06:18Z</time>
      </trkpt>
      <trkpt lat="44.70334" lon="5.98572">
        <ele>1712</ele>
        <time>2021-09-20T12:06:19Z</time>
      </trkpt>
      <trkpt lat="44.70333" lon="5.98573">
        <ele>1712</ele>
        <time>2021-09-20T12:06:20Z</time>
      </trkpt>
      <trkpt lat="44.70332" lon="5.98574">
        <ele>1712</ele>
        <time>2021-09-20T12:06:21Z</time>
      </trkpt>
      <trkpt lat="44.70332" lon="5.98575">
        <ele>1712</ele>
        <time>2021-09-20T12:06:22Z</time>
      </trkpt>
      <trkpt lat="44.70331" lon="5.98576">
        <ele>1712</ele>
        <time>2021-09-20T12:06:23Z</time>
      </trkpt>
      <trkpt lat="44.70331" lon="5.98577">
        <ele>1712</ele>
        <time>2021-09-20T12:06:24Z</time>
      </trkpt>
      <trkpt lat="44.7033" lon="5.98577">
        <ele>1712</ele>
        <time>2021-09-20T12:06:25Z</time>
      </trkpt>
      <trkpt lat="44.7033" lon="5.98578">
        <ele>1712</ele>
        <time>2021-09-20T12:06:26Z</time>
      </trkpt>
      <trkpt lat="44.70329" lon="5.98579">
        <ele>1712</ele>
        <time>2021-09-20T12:06:27Z</time>
      </trkpt>
      <trkpt lat="44.70329" lon="5.98579">
        <ele>1711</ele>
        <time>2021-09-20T12:06:28Z</time>
      </trkpt>
      <trkpt lat="44.70328" lon="5.9858">
        <ele>1711</ele>
        <time>2021-09-20T12:06:29Z</time>
      </trkpt>
      <trkpt lat="44.70328" lon="5.9858">
        <ele>1711</ele>
        <time>2021-09-20T12:06:30Z</time>
      </trkpt>
      <trkpt lat="44.70327" lon="5.98581">
        <ele>1711</ele>
        <time>2021-09-20T12:06:31Z</time>
      </trkpt>
      <trkpt lat="44.70327" lon="5.98581">
        <ele>1711</ele>
        <time>2021-09-20T12:06:32Z</time>
      </trkpt>
      <trkpt lat="44.70326" lon="5.98582">
        <ele>1710</ele>
        <time>2021-09-20T12:06:33Z</time>
      </trkpt>
      <trkpt lat="44.70325" lon="5.98583">
        <ele>1710</ele>
        <time>2021-09-20T12:06:34Z</time>
      </trkpt>
      <trkpt lat="44.70325" lon="5.98583">
        <ele>1710</ele>
        <time>2021-09-20T12:06:35Z</time>
      </trkpt>
      <trkpt lat="44.70324" lon="5.98584">
        <ele>1710</ele>
        <time>2021-09-20T12:06:36Z</time>
      </trkpt>
      <trkpt lat="44.70323" lon="5.98585">
        <ele>1710</ele>
        <time>2021-09-20T12:06:37Z</time>
      </trkpt>
      <trkpt lat="44.70322" lon="5.98586">
        <ele>1710</ele>
        <time>2021-09-20T12:06:38Z</time>
      </trkpt>
      <trkpt lat="44.70322" lon="5.98588">
        <ele>1710</ele>
        <time>2021-09-20T12:06:39Z</time>
      </trkpt>
      <trkpt lat="44.70321" lon="5.98589">
        <ele>1710</ele>
        <time>2021-09-20T12:06:40Z</time>
      </trkpt>
      <trkpt lat="44.7032" lon="5.9859">
        <ele>1710</ele>
        <time>2021-09-20T12:06:41Z</time>
      </trkpt>
      <trkpt lat="44.7032" lon="5.98591">
        <ele>1710</ele>
        <time>2021-09-20T12:06:42Z</time>
      </trkpt>
      <trkpt lat="44.70319" lon="5.98592">
        <ele>1709</ele>
        <time>2021-09-20T12:06:43Z</time>
      </trkpt>
      <trkpt lat="44.70318" lon="5.98594">
        <ele>1709</ele>
        <time>2021-09-20T12:06:44Z</time>
      </trkpt>
      <trkpt lat="44.70317" lon="5.98595">
        <ele>1709</ele>
        <time>2021-09-20T12:06:45Z</time>
      </trkpt>
      <trkpt lat="44.70317" lon="5.98596">
        <ele>1709</ele>
        <time>2021-09-20T12:06:46Z</time>
      </trkpt>
      <trkpt lat="44.70316" lon="5.98597">
        <ele>1709</ele>
        <time>2021-09-20T12:06:47Z</time>
      </trkpt>
      <trkpt lat="44.70316" lon="5.98598">
        <ele>1708</ele>
        <time>2021-09-20T12:06:48Z</time>
      </trkpt>
      <trkpt lat="44.70315" lon="5.98599">
        <ele>1708</ele>
        <time>2021-09-20T12:06:49Z</time>
      </trkpt>
      <trkpt lat="44.70315" lon="5.98601">
        <ele>1708</ele>
        <time>2021-09-20T12:06:50Z</time>
      </trkpt>
      <trkpt lat="44.70314" lon="5.98602">
        <ele>1708</ele>
        <time>2021-09-20T12:06:51Z</time>
      </trkpt>
      <trkpt lat="44.70314" lon="5.98603">
        <ele>1708</ele>
        <time>2021-09-20T12:06:52Z</time>
      </trkpt>
      <trkpt lat="44.70313" lon="5.98604">
        <ele>1708</ele>
        <time>2021-09-20T12:06:53Z</time>
      </trkpt>
      <trkpt lat="44.70312" lon="5.98605">
        <ele>1708</ele>
        <time>2021-09-20T12:06:54Z</time>
      </trkpt>
      <trkpt lat="44.70312" lon="5.98606">
        <ele>1708</ele>
        <time>2021-09-20T12:06:55Z</time>
      </trkpt>
      <trkpt lat="44.70311" lon="5.98607">
        <ele>1708</ele>
        <time>2021-09-20T12:06:56Z</time>
      </trkpt>
      <trkpt lat="44.7031" lon="5.98607">
        <ele>1708</ele>
        <time>2021-09-20T12:06:57Z</time>
      </trkpt>
      <trkpt lat="44.70309" lon="5.98608">
        <ele>1707</ele>
        <time>2021-09-20T12:06:58Z</time>
      </trkpt>
      <trkpt lat="44.70308" lon="5.98609">
        <ele>1707</ele>
        <time>2021-09-20T12:06:59Z</time>
      </trkpt>
      <trkpt lat="44.70307" lon="5.9861">
        <ele>1707</ele>
        <time>2021-09-20T12:07:00Z</time>
      </trkpt>
      <trkpt lat="44.70307" lon="5.98611">
        <ele>1707</ele>
        <time>2021-09-20T12:07:01Z</time>
      </trkpt>
      <trkpt lat="44.70306" lon="5.98612">
        <ele>1707</ele>
        <time>2021-09-20T12:07:02Z</time>
      </trkpt>
      <trkpt lat="44.70305" lon="5.98613">
        <ele>1707</ele>
        <time>2021-09-20T12:07:03Z</time>
      </trkpt>
      <trkpt lat="44.70304" lon="5.98613">
        <ele>1707</ele>
        <time>2021-09-20T12:07:04Z</time>
      </trkpt>
      <trkpt lat="44.70303" lon="5.98614">
        <ele>1707</ele>
        <time>2021-09-20T12:07:05Z</time>
      </trkpt>
      <trkpt lat="44.70302" lon="5.98615">
        <ele>1707</ele>
        <time>2021-09-20T12:07:06Z</time>
      </trkpt>
      <trkpt lat="44.70301" lon="5.98616">
        <ele>1707</ele>
        <time>2021-09-20T12:07:07Z</time>
      </trkpt>
      <trkpt lat="44.70301" lon="5.98617">
        <ele>1707</ele>
        <time>2021-09-20T12:07:08Z</time>
      </trkpt>
      <trkpt lat="44.703" lon="5.98618">
        <ele>1707</ele>
        <time>2021-09-20T12:07:09Z</time>
      </trkpt>
      <trkpt lat="44.70299" lon="5.98619">
        <ele>1707</ele>
        <time>2021-09-20T12:07:10Z</time>
      </trkpt>
      <trkpt lat="44.70299" lon="5.9862">
        <ele>1707</ele>
        <time>2021-09-20T12:07:11Z</time>
      </trkpt>
      <trkpt lat="44.70298" lon="5.98621">
        <ele>1707</ele>
        <time>2021-09-20T12:07:12Z</time>
      </trkpt>
      <trkpt lat="44.70297" lon="5.98622">
        <ele>1706</ele>
        <time>2021-09-20T12:07:13Z</time>
      </trkpt>
      <trkpt lat="44.70297" lon="5.98623">
        <ele>1706</ele>
        <time>2021-09-20T12:07:14Z</time>
      </trkpt>
      <trkpt lat="44.70296" lon="5.98624">
        <ele>1706</ele>
        <time>2021-09-20T12:07:15Z</time>
      </trkpt>
      <trkpt lat="44.70295" lon="5.98624">
        <ele>1706</ele>
        <time>2021-09-20T12:07:16Z</time>
      </trkpt>
      <trkpt lat="44.70294" lon="5.98625">
        <ele>1706</ele>
        <time>2021-09-20T12:07:17Z</time>
      </trkpt>
      <trkpt lat="44.70293" lon="5.98626">
        <ele>1706</ele>
        <time>2021-09-20T12:07:18Z</time>
      </trkpt>
      <trkpt lat="44.70292" lon="5.98626">
        <ele>1706</ele>
        <time>2021-09-20T12:07:19Z</time>
      </trkpt>
      <trkpt lat="44.70292" lon="5.98627">
        <ele>1706</ele>
        <time>2021-09-20T12:07:20Z</time>
      </trkpt>
      <trkpt lat="44.70291" lon="5.98627">
        <ele>1706</ele>
        <time>2021-09-20T12:07:21Z</time>
      </trkpt>
      <trkpt lat="44.7029" lon="5.98628">
        <ele>1706</ele>
        <time>2021-09-20T12:07:22Z</time>
      </trkpt>
      <trkpt lat="44.7029" lon="5.98629">
        <ele>1706</ele>
        <time>2021-09-20T12:07:23Z</time>
      </trkpt>
      <trkpt lat="44.70289" lon="5.9863">
        <ele>1706</ele>
        <time>2021-09-20T12:07:24Z</time>
      </trkpt>
      <trkpt lat="44.70289" lon="5.98631">
        <ele>1706</ele>
        <time>2021-09-20T12:07:25Z</time>
      </trkpt>
      <trkpt lat="44.70288" lon="5.98631">
        <ele>1706</ele>
        <time>2021-09-20T12:07:26Z</time>
      </trkpt>
      <trkpt lat="44.70288" lon="5.98632">
        <ele>1706</ele>
        <time>2021-09-20T12:07:27Z</time>
      </trkpt>
      <trkpt lat="44.70287" lon="5.98633">
        <ele>1703</ele>
        <time>2021-09-20T12:07:43Z</time>
      </trkpt>
      <trkpt lat="44.70286" lon="5.98634">
        <ele>1703</ele>
        <time>2021-09-20T12:07:44Z</time>
      </trkpt>
      <trkpt lat="44.70286" lon="5.98634">
        <ele>1703</ele>
        <time>2021-09-20T12:07:45Z</time>
      </trkpt>
      <trkpt lat="44.70286" lon="5.98634">
        <ele>1703</ele>
        <time>2021-09-20T12:07:46Z</time>
      </trkpt>
      <trkpt lat="44.70285" lon="5.98635">
        <ele>1703</ele>
        <time>2021-09-20T12:07:47Z</time>
      </trkpt>
      <trkpt lat="44.70284" lon="5.98635">
        <ele>1703</ele>
        <time>2021-09-20T12:07:48Z</time>
      </trkpt>
      <trkpt lat="44.70284" lon="5.98636">
        <ele>1703</ele>
        <time>2021-09-20T12:07:49Z</time>
      </trkpt>
      <trkpt lat="44.70283" lon="5.98637">
        <ele>1703</ele>
        <time>2021-09-20T12:07:50Z</time>
      </trkpt>
      <trkpt lat="44.70283" lon="5.98638">
        <ele>1703</ele>
        <time>2021-09-20T12:07:51Z</time>
      </trkpt>
      <trkpt lat="44.70282" lon="5.98639">
        <ele>1703</ele>
        <time>2021-09-20T12:07:52Z</time>
      </trkpt>
      <trkpt lat="44.70282" lon="5.9864">
        <ele>1703</ele>
        <time>2021-09-20T12:07:53Z</time>
      </trkpt>
      <trkpt lat="44.70281" lon="5.9864">
        <ele>1703</ele>
        <time>2021-09-20T12:07:54Z</time>
      </trkpt>
      <trkpt lat="44.70281" lon="5.98641">
        <ele>1703</ele>
        <time>2021-09-20T12:07:55Z</time>
      </trkpt>
      <trkpt lat="44.7028" lon="5.98642">
        <ele>1703</ele>
        <time>2021-09-20T12:07:56Z</time>
      </trkpt>
      <trkpt lat="44.70279" lon="5.98643">
        <ele>1703</ele>
        <time>2021-09-20T12:07:57Z</time>
      </trkpt>
      <trkpt lat="44.70279" lon="5.98643">
        <ele>1702</ele>
        <time>2021-09-20T12:07:58Z</time>
      </trkpt>
      <trkpt lat="44.70278" lon="5.98644">
        <ele>1702</ele>
        <time>2021-09-20T12:07:59Z</time>
      </trkpt>
      <trkpt lat="44.70277" lon="5.98644">
        <ele>1701</ele>
        <time>2021-09-20T12:08:00Z</time>
      </trkpt>
      <trkpt lat="44.70276" lon="5.98645">
        <ele>1701</ele>
        <time>2021-09-20T12:08:01Z</time>
      </trkpt>
      <trkpt lat="44.70276" lon="5.98645">
        <ele>1701</ele>
        <time>2021-09-20T12:08:02Z</time>
      </trkpt>
      <trkpt lat="44.70275" lon="5.98646">
        <ele>1701</ele>
        <time>2021-09-20T12:08:03Z</time>
      </trkpt>
      <trkpt lat="44.70274" lon="5.98647">
        <ele>1701</ele>
        <time>2021-09-20T12:08:04Z</time>
      </trkpt>
      <trkpt lat="44.70274" lon="5.98647">
        <ele>1701</ele>
        <time>2021-09-20T12:08:05Z</time>
      </trkpt>
      <trkpt lat="44.70273" lon="5.98648">
        <ele>1701</ele>
        <time>2021-09-20T12:08:06Z</time>
      </trkpt>
      <trkpt lat="44.70272" lon="5.98648">
        <ele>1701</ele>
        <time>2021-09-20T12:08:07Z</time>
      </trkpt>
      <trkpt lat="44.70271" lon="5.98649">
        <ele>1700</ele>
        <time>2021-09-20T12:08:08Z</time>
      </trkpt>
      <trkpt lat="44.70271" lon="5.98649">
        <ele>1700</ele>
        <time>2021-09-20T12:08:09Z</time>
      </trkpt>
      <trkpt lat="44.7027" lon="5.98649">
        <ele>1699</ele>
        <time>2021-09-20T12:08:10Z</time>
      </trkpt>
      <trkpt lat="44.7027" lon="5.9865">
        <ele>1699</ele>
        <time>2021-09-20T12:08:11Z</time>
      </trkpt>
      <trkpt lat="44.7027" lon="5.9865">
        <ele>1699</ele>
        <time>2021-09-20T12:08:12Z</time>
      </trkpt>
      <trkpt lat="44.70269" lon="5.9865">
        <ele>1697</ele>
        <time>2021-09-20T12:08:41Z</time>
      </trkpt>
      <trkpt lat="44.70268" lon="5.9865">
        <ele>1697</ele>
        <time>2021-09-20T12:08:42Z</time>
      </trkpt>
      <trkpt lat="44.70268" lon="5.98651">
        <ele>1697</ele>
        <time>2021-09-20T12:08:43Z</time>
      </trkpt>
      <trkpt lat="44.70267" lon="5.98651">
        <ele>1697</ele>
        <time>2021-09-20T12:08:58Z</time>
      </trkpt>
      <trkpt lat="44.70267" lon="5.98652">
        <ele>1697</ele>
        <time>2021-09-20T12:08:59Z</time>
      </trkpt>
      <trkpt lat="44.70266" lon="5.98652">
        <ele>1697</ele>
        <time>2021-09-20T12:09:00Z</time>
      </trkpt>
      <trkpt lat="44.70266" lon="5.98653">
        <ele>1697</ele>
        <time>2021-09-20T12:09:01Z</time>
      </trkpt>
      <trkpt lat="44.70265" lon="5.98653">
        <ele>1697</ele>
        <time>2021-09-20T12:09:02Z</time>
      </trkpt>
      <trkpt lat="44.70264" lon="5.98654">
        <ele>1697</ele>
        <time>2021-09-20T12:09:03Z</time>
      </trkpt>
      <trkpt lat="44.70263" lon="5.98655">
        <ele>1697</ele>
        <time>2021-09-20T12:09:04Z</time>
      </trkpt>
      <trkpt lat="44.70262" lon="5.98655">
        <ele>1697</ele>
        <time>2021-09-20T12:09:05Z</time>
      </trkpt>
      <trkpt lat="44.70261" lon="5.98656">
        <ele>1697</ele>
        <time>2021-09-20T12:09:06Z</time>
      </trkpt>
      <trkpt lat="44.7026" lon="5.98657">
        <ele>1698</ele>
        <time>2021-09-20T12:09:07Z</time>
      </trkpt>
      <trkpt lat="44.70259" lon="5.98658">
        <ele>1697</ele>
        <time>2021-09-20T12:09:08Z</time>
      </trkpt>
      <trkpt lat="44.70258" lon="5.98658">
        <ele>1697</ele>
        <time>2021-09-20T12:09:09Z</time>
      </trkpt>
      <trkpt lat="44.70257" lon="5.98659">
        <ele>1697</ele>
        <time>2021-09-20T12:09:10Z</time>
      </trkpt>
      <trkpt lat="44.70256" lon="5.98659">
        <ele>1697</ele>
        <time>2021-09-20T12:09:11Z</time>
      </trkpt>
      <trkpt lat="44.70255" lon="5.9866">
        <ele>1697</ele>
        <time>2021-09-20T12:09:12Z</time>
      </trkpt>
      <trkpt lat="44.70254" lon="5.9866">
        <ele>1696</ele>
        <time>2021-09-20T12:09:13Z</time>
      </trkpt>
      <trkpt lat="44.70253" lon="5.98661">
        <ele>1696</ele>
        <time>2021-09-20T12:09:14Z</time>
      </trkpt>
      <trkpt lat="44.70252" lon="5.98661">
        <ele>1696</ele>
        <time>2021-09-20T12:09:15Z</time>
      </trkpt>
      <trkpt lat="44.70251" lon="5.98662">
        <ele>1696</ele>
        <time>2021-09-20T12:09:16Z</time>
      </trkpt>
      <trkpt lat="44.70251" lon="5.98663">
        <ele>1696</ele>
        <time>2021-09-20T12:09:17Z</time>
      </trkpt>
      <trkpt lat="44.7025" lon="5.98664">
        <ele>1695</ele>
        <time>2021-09-20T12:09:18Z</time>
      </trkpt>
      <trkpt lat="44.70249" lon="5.98665">
        <ele>1695</ele>
        <time>2021-09-20T12:09:19Z</time>
      </trkpt>
      <trkpt lat="44.70248" lon="5.98665">
        <ele>1695</ele>
        <time>2021-09-20T12:09:20Z</time>
      </trkpt>
      <trkpt lat="44.70248" lon="5.98666">
        <ele>1695</ele>
        <time>2021-09-20T12:09:21Z</time>
      </trkpt>
      <trkpt lat="44.70247" lon="5.98667">
        <ele>1695</ele>
        <time>2021-09-20T12:09:22Z</time>
      </trkpt>
      <trkpt lat="44.70246" lon="5.98668">
        <ele>1694</ele>
        <time>2021-09-20T12:09:23Z</time>
      </trkpt>
      <trkpt lat="44.70245" lon="5.98669">
        <ele>1694</ele>
        <time>2021-09-20T12:09:24Z</time>
      </trkpt>
      <trkpt lat="44.70245" lon="5.9867">
        <ele>1694</ele>
        <time>2021-09-20T12:09:25Z</time>
      </trkpt>
      <trkpt lat="44.70244" lon="5.98671">
        <ele>1694</ele>
        <time>2021-09-20T12:09:26Z</time>
      </trkpt>
      <trkpt lat="44.70243" lon="5.98672">
        <ele>1694</ele>
        <time>2021-09-20T12:09:27Z</time>
      </trkpt>
      <trkpt lat="44.70243" lon="5.98673">
        <ele>1694</ele>
        <time>2021-09-20T12:09:28Z</time>
      </trkpt>
      <trkpt lat="44.70242" lon="5.98674">
        <ele>1694</ele>
        <time>2021-09-20T12:09:29Z</time>
      </trkpt>
      <trkpt lat="44.70241" lon="5.98675">
        <ele>1694</ele>
        <time>2021-09-20T12:09:30Z</time>
      </trkpt>
      <trkpt lat="44.7024" lon="5.98676">
        <ele>1694</ele>
        <time>2021-09-20T12:09:31Z</time>
      </trkpt>
      <trkpt lat="44.7024" lon="5.98677">
        <ele>1694</ele>
        <time>2021-09-20T12:09:32Z</time>
      </trkpt>
      <trkpt lat="44.70239" lon="5.98677">
        <ele>1694</ele>
        <time>2021-09-20T12:09:33Z</time>
      </trkpt>
      <trkpt lat="44.70238" lon="5.98678">
        <ele>1694</ele>
        <time>2021-09-20T12:09:34Z</time>
      </trkpt>
      <trkpt lat="44.70238" lon="5.98679">
        <ele>1694</ele>
        <time>2021-09-20T12:09:35Z</time>
      </trkpt>
      <trkpt lat="44.70237" lon="5.9868">
        <ele>1694</ele>
        <time>2021-09-20T12:09:36Z</time>
      </trkpt>
      <trkpt lat="44.70237" lon="5.98681">
        <ele>1694</ele>
        <time>2021-09-20T12:09:37Z</time>
      </trkpt>
      <trkpt lat="44.70236" lon="5.98682">
        <ele>1694</ele>
        <time>2021-09-20T12:09:38Z</time>
      </trkpt>
      <trkpt lat="44.70236" lon="5.98683">
        <ele>1694</ele>
        <time>2021-09-20T12:09:39Z</time>
      </trkpt>
      <trkpt lat="44.70235" lon="5.98683">
        <ele>1694</ele>
        <time>2021-09-20T12:09:40Z</time>
      </trkpt>
      <trkpt lat="44.70235" lon="5.98684">
        <ele>1694</ele>
        <time>2021-09-20T12:09:41Z</time>
      </trkpt>
      <trkpt lat="44.70234" lon="5.98685">
        <ele>1694</ele>
        <time>2021-09-20T12:09:42Z</time>
      </trkpt>
      <trkpt lat="44.70233" lon="5.98686">
        <ele>1694</ele>
        <time>2021-09-20T12:09:43Z</time>
      </trkpt>
      <trkpt lat="44.70233" lon="5.98686">
        <ele>1694</ele>
        <time>2021-09-20T12:09:44Z</time>
      </trkpt>
      <trkpt lat="44.70232" lon="5.98687">
        <ele>1694</ele>
        <time>2021-09-20T12:09:45Z</time>
      </trkpt>
      <trkpt lat="44.70232" lon="5.98688">
        <ele>1694</ele>
        <time>2021-09-20T12:09:46Z</time>
      </trkpt>
      <trkpt lat="44.70231" lon="5.98689">
        <ele>1694</ele>
        <time>2021-09-20T12:09:47Z</time>
      </trkpt>
      <trkpt lat="44.70231" lon="5.9869">
        <ele>1694</ele>
        <time>2021-09-20T12:09:48Z</time>
      </trkpt>
      <trkpt lat="44.7023" lon="5.98691">
        <ele>1694</ele>
        <time>2021-09-20T12:09:49Z</time>
      </trkpt>
      <trkpt lat="44.70229" lon="5.98692">
        <ele>1694</ele>
        <time>2021-09-20T12:09:50Z</time>
      </trkpt>
      <trkpt lat="44.70228" lon="5.98693">
        <ele>1694</ele>
        <time>2021-09-20T12:09:51Z</time>
      </trkpt>
      <trkpt lat="44.70228" lon="5.98694">
        <ele>1694</ele>
        <time>2021-09-20T12:09:52Z</time>
      </trkpt>
      <trkpt lat="44.70227" lon="5.98695">
        <ele>1694</ele>
        <time>2021-09-20T12:09:53Z</time>
      </trkpt>
      <trkpt lat="44.70226" lon="5.98696">
        <ele>1694</ele>
        <time>2021-09-20T12:09:54Z</time>
      </trkpt>
      <trkpt lat="44.70226" lon="5.98697">
        <ele>1694</ele>
        <time>2021-09-20T12:09:55Z</time>
      </trkpt>
      <trkpt lat="44.70225" lon="5.98698">
        <ele>1694</ele>
        <time>2021-09-20T12:09:56Z</time>
      </trkpt>
      <trkpt lat="44.70224" lon="5.98699">
        <ele>1694</ele>
        <time>2021-09-20T12:09:57Z</time>
      </trkpt>
      <trkpt lat="44.70223" lon="5.98699">
        <ele>1694</ele>
        <time>2021-09-20T12:09:58Z</time>
      </trkpt>
      <trkpt lat="44.70222" lon="5.987">
        <ele>1694</ele>
        <time>2021-09-20T12:09:59Z</time>
      </trkpt>
      <trkpt lat="44.70222" lon="5.98701">
        <ele>1694</ele>
        <time>2021-09-20T12:10:00Z</time>
      </trkpt>
      <trkpt lat="44.70221" lon="5.98702">
        <ele>1694</ele>
        <time>2021-09-20T12:10:01Z</time>
      </trkpt>
      <trkpt lat="44.7022" lon="5.98703">
        <ele>1694</ele>
        <time>2021-09-20T12:10:02Z</time>
      </trkpt>
      <trkpt lat="44.7022" lon="5.98704">
        <ele>1694</ele>
        <time>2021-09-20T12:10:03Z</time>
      </trkpt>
      <trkpt lat="44.70219" lon="5.98704">
        <ele>1694</ele>
        <time>2021-09-20T12:10:04Z</time>
      </trkpt>
      <trkpt lat="44.70218" lon="5.98705">
        <ele>1694</ele>
        <time>2021-09-20T12:10:05Z</time>
      </trkpt>
      <trkpt lat="44.70218" lon="5.98706">
        <ele>1694</ele>
        <time>2021-09-20T12:10:06Z</time>
      </trkpt>
      <trkpt lat="44.70217" lon="5.98707">
        <ele>1694</ele>
        <time>2021-09-20T12:10:07Z</time>
      </trkpt>
      <trkpt lat="44.70216" lon="5.98707">
        <ele>1694</ele>
        <time>2021-09-20T12:10:08Z</time>
      </trkpt>
      <trkpt lat="44.70216" lon="5.98708">
        <ele>1694</ele>
        <time>2021-09-20T12:10:09Z</time>
      </trkpt>
      <trkpt lat="44.70215" lon="5.98709">
        <ele>1694</ele>
        <time>2021-09-20T12:10:10Z</time>
      </trkpt>
      <trkpt lat="44.70215" lon="5.9871">
        <ele>1694</ele>
        <time>2021-09-20T12:10:11Z</time>
      </trkpt>
      <trkpt lat="44.70214" lon="5.98711">
        <ele>1694</ele>
        <time>2021-09-20T12:10:12Z</time>
      </trkpt>
      <trkpt lat="44.70213" lon="5.98711">
        <ele>1694</ele>
        <time>2021-09-20T12:10:13Z</time>
      </trkpt>
      <trkpt lat="44.70212" lon="5.98712">
        <ele>1694</ele>
        <time>2021-09-20T12:10:14Z</time>
      </trkpt>
      <trkpt lat="44.70212" lon="5.98713">
        <ele>1694</ele>
        <time>2021-09-20T12:10:15Z</time>
      </trkpt>
      <trkpt lat="44.70211" lon="5.98714">
        <ele>1694</ele>
        <time>2021-09-20T12:10:16Z</time>
      </trkpt>
      <trkpt lat="44.7021" lon="5.98715">
        <ele>1694</ele>
        <time>2021-09-20T12:10:17Z</time>
      </trkpt>
      <trkpt lat="44.7021" lon="5.98715">
        <ele>1694</ele>
        <time>2021-09-20T12:10:18Z</time>
      </trkpt>
      <trkpt lat="44.70209" lon="5.98716">
        <ele>1694</ele>
        <time>2021-09-20T12:10:19Z</time>
      </trkpt>
      <trkpt lat="44.70208" lon="5.98717">
        <ele>1694</ele>
        <time>2021-09-20T12:10:20Z</time>
      </trkpt>
      <trkpt lat="44.70208" lon="5.98717">
        <ele>1694</ele>
        <time>2021-09-20T12:10:21Z</time>
      </trkpt>
      <trkpt lat="44.70207" lon="5.98718">
        <ele>1694</ele>
        <time>2021-09-20T12:10:22Z</time>
      </trkpt>
      <trkpt lat="44.70207" lon="5.98719">
        <ele>1693</ele>
        <time>2021-09-20T12:10:23Z</time>
      </trkpt>
      <trkpt lat="44.70206" lon="5.98719">
        <ele>1693</ele>
        <time>2021-09-20T12:10:24Z</time>
      </trkpt>
      <trkpt lat="44.70205" lon="5.9872">
        <ele>1693</ele>
        <time>2021-09-20T12:10:25Z</time>
      </trkpt>
      <trkpt lat="44.70205" lon="5.98721">
        <ele>1693</ele>
        <time>2021-09-20T12:10:26Z</time>
      </trkpt>
      <trkpt lat="44.70204" lon="5.98722">
        <ele>1693</ele>
        <time>2021-09-20T12:10:27Z</time>
      </trkpt>
      <trkpt lat="44.70203" lon="5.98722">
        <ele>1692</ele>
        <time>2021-09-20T12:10:28Z</time>
      </trkpt>
      <trkpt lat="44.70202" lon="5.98723">
        <ele>1692</ele>
        <time>2021-09-20T12:10:29Z</time>
      </trkpt>
      <trkpt lat="44.70202" lon="5.98724">
        <ele>1692</ele>
        <time>2021-09-20T12:10:30Z</time>
      </trkpt>
      <trkpt lat="44.70201" lon="5.98725">
        <ele>1692</ele>
        <time>2021-09-20T12:10:31Z</time>
      </trkpt>
      <trkpt lat="44.702" lon="5.98725">
        <ele>1692</ele>
        <time>2021-09-20T12:10:32Z</time>
      </trkpt>
      <trkpt lat="44.70199" lon="5.98726">
        <ele>1691</ele>
        <time>2021-09-20T12:10:33Z</time>
      </trkpt>
      <trkpt lat="44.70198" lon="5.98727">
        <ele>1691</ele>
        <time>2021-09-20T12:10:34Z</time>
      </trkpt>
      <trkpt lat="44.70197" lon="5.98728">
        <ele>1691</ele>
        <time>2021-09-20T12:10:35Z</time>
      </trkpt>
      <trkpt lat="44.70196" lon="5.98729">
        <ele>1691</ele>
        <time>2021-09-20T12:10:36Z</time>
      </trkpt>
      <trkpt lat="44.70195" lon="5.98729">
        <ele>1691</ele>
        <time>2021-09-20T12:10:37Z</time>
      </trkpt>
      <trkpt lat="44.70195" lon="5.9873">
        <ele>1690</ele>
        <time>2021-09-20T12:10:38Z</time>
      </trkpt>
      <trkpt lat="44.70194" lon="5.98731">
        <ele>1690</ele>
        <time>2021-09-20T12:10:39Z</time>
      </trkpt>
      <trkpt lat="44.70193" lon="5.98732">
        <ele>1690</ele>
        <time>2021-09-20T12:10:40Z</time>
      </trkpt>
      <trkpt lat="44.70193" lon="5.98732">
        <ele>1690</ele>
        <time>2021-09-20T12:10:41Z</time>
      </trkpt>
      <trkpt lat="44.70192" lon="5.98733">
        <ele>1690</ele>
        <time>2021-09-20T12:10:42Z</time>
      </trkpt>
      <trkpt lat="44.70192" lon="5.98733">
        <ele>1690</ele>
        <time>2021-09-20T12:10:43Z</time>
      </trkpt>
      <trkpt lat="44.70191" lon="5.98734">
        <ele>1690</ele>
        <time>2021-09-20T12:10:44Z</time>
      </trkpt>
      <trkpt lat="44.7019" lon="5.98734">
        <ele>1690</ele>
        <time>2021-09-20T12:10:45Z</time>
      </trkpt>
      <trkpt lat="44.70189" lon="5.98735">
        <ele>1690</ele>
        <time>2021-09-20T12:10:46Z</time>
      </trkpt>
      <trkpt lat="44.70189" lon="5.98736">
        <ele>1690</ele>
        <time>2021-09-20T12:10:47Z</time>
      </trkpt>
      <trkpt lat="44.70188" lon="5.98736">
        <ele>1689</ele>
        <time>2021-09-20T12:10:48Z</time>
      </trkpt>
      <trkpt lat="44.70188" lon="5.98736">
        <ele>1689</ele>
        <time>2021-09-20T12:10:49Z</time>
      </trkpt>
      <trkpt lat="44.70187" lon="5.98737">
        <ele>1689</ele>
        <time>2021-09-20T12:10:50Z</time>
      </trkpt>
      <trkpt lat="44.70187" lon="5.98738">
        <ele>1689</ele>
        <time>2021-09-20T12:10:51Z</time>
      </trkpt>
      <trkpt lat="44.70186" lon="5.98738">
        <ele>1689</ele>
        <time>2021-09-20T12:10:52Z</time>
      </trkpt>
      <trkpt lat="44.70185" lon="5.98739">
        <ele>1688</ele>
        <time>2021-09-20T12:10:53Z</time>
      </trkpt>
      <trkpt lat="44.70184" lon="5.9874">
        <ele>1688</ele>
        <time>2021-09-20T12:10:54Z</time>
      </trkpt>
      <trkpt lat="44.70184" lon="5.9874">
        <ele>1688</ele>
        <time>2021-09-20T12:10:55Z</time>
      </trkpt>
      <trkpt lat="44.70183" lon="5.98741">
        <ele>1688</ele>
        <time>2021-09-20T12:10:56Z</time>
      </trkpt>
      <trkpt lat="44.70183" lon="5.98742">
        <ele>1688</ele>
        <time>2021-09-20T12:10:57Z</time>
      </trkpt>
      <trkpt lat="44.70182" lon="5.98742">
        <ele>1688</ele>
        <time>2021-09-20T12:10:58Z</time>
      </trkpt>
      <trkpt lat="44.70182" lon="5.98743">
        <ele>1688</ele>
        <time>2021-09-20T12:10:59Z</time>
      </trkpt>
      <trkpt lat="44.70181" lon="5.98744">
        <ele>1688</ele>
        <time>2021-09-20T12:11:00Z</time>
      </trkpt>
      <trkpt lat="44.70181" lon="5.98745">
        <ele>1688</ele>
        <time>2021-09-20T12:11:01Z</time>
      </trkpt>
      <trkpt lat="44.7018" lon="5.98746">
        <ele>1688</ele>
        <time>2021-09-20T12:11:02Z</time>
      </trkpt>
      <trkpt lat="44.7018" lon="5.98747">
        <ele>1687</ele>
        <time>2021-09-20T12:11:03Z</time>
      </trkpt>
      <trkpt lat="44.70179" lon="5.98748">
        <ele>1687</ele>
        <time>2021-09-20T12:11:04Z</time>
      </trkpt>
      <trkpt lat="44.70179" lon="5.98749">
        <ele>1687</ele>
        <time>2021-09-20T12:11:05Z</time>
      </trkpt>
      <trkpt lat="44.70178" lon="5.9875">
        <ele>1687</ele>
        <time>2021-09-20T12:11:06Z</time>
      </trkpt>
      <trkpt lat="44.70177" lon="5.98751">
        <ele>1687</ele>
        <time>2021-09-20T12:11:07Z</time>
      </trkpt>
      <trkpt lat="44.70177" lon="5.98752">
        <ele>1686</ele>
        <time>2021-09-20T12:11:08Z</time>
      </trkpt>
      <trkpt lat="44.70176" lon="5.98753">
        <ele>1686</ele>
        <time>2021-09-20T12:11:09Z</time>
      </trkpt>
      <trkpt lat="44.70176" lon="5.98754">
        <ele>1686</ele>
        <time>2021-09-20T12:11:10Z</time>
      </trkpt>
      <trkpt lat="44.70175" lon="5.98755">
        <ele>1686</ele>
        <time>2021-09-20T12:11:11Z</time>
      </trkpt>
      <trkpt lat="44.70175" lon="5.98756">
        <ele>1686</ele>
        <time>2021-09-20T12:11:12Z</time>
      </trkpt>
      <trkpt lat="44.70174" lon="5.98757">
        <ele>1686</ele>
        <time>2021-09-20T12:11:13Z</time>
      </trkpt>
      <trkpt lat="44.70174" lon="5.98758">
        <ele>1686</ele>
        <time>2021-09-20T12:11:14Z</time>
      </trkpt>
      <trkpt lat="44.70174" lon="5.9876">
        <ele>1686</ele>
        <time>2021-09-20T12:11:15Z</time>
      </trkpt>
      <trkpt lat="44.70174" lon="5.98761">
        <ele>1686</ele>
        <time>2021-09-20T12:11:16Z</time>
      </trkpt>
      <trkpt lat="44.70173" lon="5.98762">
        <ele>1686</ele>
        <time>2021-09-20T12:11:17Z</time>
      </trkpt>
      <trkpt lat="44.70173" lon="5.98764">
        <ele>1685</ele>
        <time>2021-09-20T12:11:18Z</time>
      </trkpt>
      <trkpt lat="44.70173" lon="5.98766">
        <ele>1685</ele>
        <time>2021-09-20T12:11:19Z</time>
      </trkpt>
      <trkpt lat="44.70173" lon="5.98767">
        <ele>1685</ele>
        <time>2021-09-20T12:11:20Z</time>
      </trkpt>
      <trkpt lat="44.70173" lon="5.98769">
        <ele>1685</ele>
        <time>2021-09-20T12:11:21Z</time>
      </trkpt>
      <trkpt lat="44.70173" lon="5.9877">
        <ele>1685</ele>
        <time>2021-09-20T12:11:22Z</time>
      </trkpt>
      <trkpt lat="44.70172" lon="5.98771">
        <ele>1684</ele>
        <time>2021-09-20T12:11:23Z</time>
      </trkpt>
      <trkpt lat="44.70172" lon="5.98773">
        <ele>1684</ele>
        <time>2021-09-20T12:11:24Z</time>
      </trkpt>
      <trkpt lat="44.70172" lon="5.98774">
        <ele>1684</ele>
        <time>2021-09-20T12:11:25Z</time>
      </trkpt>
      <trkpt lat="44.70172" lon="5.98775">
        <ele>1684</ele>
        <time>2021-09-20T12:11:26Z</time>
      </trkpt>
      <trkpt lat="44.70172" lon="5.98776">
        <ele>1684</ele>
        <time>2021-09-20T12:11:27Z</time>
      </trkpt>
      <trkpt lat="44.70172" lon="5.98777">
        <ele>1684</ele>
        <time>2021-09-20T12:11:28Z</time>
      </trkpt>
      <trkpt lat="44.70171" lon="5.98778">
        <ele>1684</ele>
        <time>2021-09-20T12:11:29Z</time>
      </trkpt>
      <trkpt lat="44.70171" lon="5.98779">
        <ele>1684</ele>
        <time>2021-09-20T12:11:30Z</time>
      </trkpt>
      <trkpt lat="44.70171" lon="5.98781">
        <ele>1684</ele>
        <time>2021-09-20T12:11:31Z</time>
      </trkpt>
      <trkpt lat="44.70171" lon="5.98782">
        <ele>1684</ele>
        <time>2021-09-20T12:11:32Z</time>
      </trkpt>
      <trkpt lat="44.7017" lon="5.98783">
        <ele>1684</ele>
        <time>2021-09-20T12:11:33Z</time>
      </trkpt>
      <trkpt lat="44.7017" lon="5.98784">
        <ele>1684</ele>
        <time>2021-09-20T12:11:34Z</time>
      </trkpt>
      <trkpt lat="44.7017" lon="5.98786">
        <ele>1684</ele>
        <time>2021-09-20T12:11:35Z</time>
      </trkpt>
      <trkpt lat="44.7017" lon="5.98787">
        <ele>1684</ele>
        <time>2021-09-20T12:11:36Z</time>
      </trkpt>
      <trkpt lat="44.7017" lon="5.98789">
        <ele>1684</ele>
        <time>2021-09-20T12:11:37Z</time>
      </trkpt>
      <trkpt lat="44.7017" lon="5.9879">
        <ele>1684</ele>
        <time>2021-09-20T12:11:38Z</time>
      </trkpt>
      <trkpt lat="44.7017" lon="5.98791">
        <ele>1684</ele>
        <time>2021-09-20T12:11:39Z</time>
      </trkpt>
      <trkpt lat="44.70169" lon="5.98793">
        <ele>1684</ele>
        <time>2021-09-20T12:11:40Z</time>
      </trkpt>
      <trkpt lat="44.70169" lon="5.98794">
        <ele>1684</ele>
        <time>2021-09-20T12:11:41Z</time>
      </trkpt>
      <trkpt lat="44.70168" lon="5.98796">
        <ele>1684</ele>
        <time>2021-09-20T12:11:42Z</time>
      </trkpt>
      <trkpt lat="44.70168" lon="5.98797">
        <ele>1684</ele>
        <time>2021-09-20T12:11:43Z</time>
      </trkpt>
      <trkpt lat="44.70168" lon="5.98799">
        <ele>1684</ele>
        <time>2021-09-20T12:11:44Z</time>
      </trkpt>
      <trkpt lat="44.70168" lon="5.988">
        <ele>1684</ele>
        <time>2021-09-20T12:11:45Z</time>
      </trkpt>
      <trkpt lat="44.70167" lon="5.98801">
        <ele>1684</ele>
        <time>2021-09-20T12:11:46Z</time>
      </trkpt>
      <trkpt lat="44.70167" lon="5.98803">
        <ele>1685</ele>
        <time>2021-09-20T12:11:47Z</time>
      </trkpt>
      <trkpt lat="44.70167" lon="5.98804">
        <ele>1685</ele>
        <time>2021-09-20T12:11:48Z</time>
      </trkpt>
      <trkpt lat="44.70167" lon="5.98805">
        <ele>1685</ele>
        <time>2021-09-20T12:11:49Z</time>
      </trkpt>
      <trkpt lat="44.70167" lon="5.98807">
        <ele>1685</ele>
        <time>2021-09-20T12:11:50Z</time>
      </trkpt>
      <trkpt lat="44.70166" lon="5.98808">
        <ele>1685</ele>
        <time>2021-09-20T12:11:51Z</time>
      </trkpt>
      <trkpt lat="44.70166" lon="5.9881">
        <ele>1685</ele>
        <time>2021-09-20T12:11:52Z</time>
      </trkpt>
      <trkpt lat="44.70166" lon="5.98811">
        <ele>1685</ele>
        <time>2021-09-20T12:11:53Z</time>
      </trkpt>
      <trkpt lat="44.70166" lon="5.98812">
        <ele>1685</ele>
        <time>2021-09-20T12:11:54Z</time>
      </trkpt>
      <trkpt lat="44.70166" lon="5.98814">
        <ele>1685</ele>
        <time>2021-09-20T12:11:55Z</time>
      </trkpt>
      <trkpt lat="44.70165" lon="5.98815">
        <ele>1685</ele>
        <time>2021-09-20T12:11:56Z</time>
      </trkpt>
      <trkpt lat="44.70165" lon="5.98816">
        <ele>1686</ele>
        <time>2021-09-20T12:11:57Z</time>
      </trkpt>
      <trkpt lat="44.70166" lon="5.98817">
        <ele>1686</ele>
        <time>2021-09-20T12:11:58Z</time>
      </trkpt>
      <trkpt lat="44.70166" lon="5.98818">
        <ele>1686</ele>
        <time>2021-09-20T12:11:59Z</time>
      </trkpt>
      <trkpt lat="44.70166" lon="5.98819">
        <ele>1686</ele>
        <time>2021-09-20T12:12:00Z</time>
      </trkpt>
      <trkpt lat="44.70166" lon="5.9882">
        <ele>1686</ele>
        <time>2021-09-20T12:12:01Z</time>
      </trkpt>
      <trkpt lat="44.70166" lon="5.98822">
        <ele>1686</ele>
        <time>2021-09-20T12:12:02Z</time>
      </trkpt>
      <trkpt lat="44.70166" lon="5.98823">
        <ele>1686</ele>
        <time>2021-09-20T12:12:03Z</time>
      </trkpt>
      <trkpt lat="44.70166" lon="5.98824">
        <ele>1686</ele>
        <time>2021-09-20T12:12:04Z</time>
      </trkpt>
      <trkpt lat="44.70166" lon="5.98825">
        <ele>1686</ele>
        <time>2021-09-20T12:12:05Z</time>
      </trkpt>
      <trkpt lat="44.70166" lon="5.98826">
        <ele>1686</ele>
        <time>2021-09-20T12:12:06Z</time>
      </trkpt>
      <trkpt lat="44.70166" lon="5.98827">
        <ele>1686</ele>
        <time>2021-09-20T12:12:07Z</time>
      </trkpt>
      <trkpt lat="44.70166" lon="5.98828">
        <ele>1686</ele>
        <time>2021-09-20T12:12:08Z</time>
      </trkpt>
      <trkpt lat="44.70165" lon="5.98829">
        <ele>1686</ele>
        <time>2021-09-20T12:12:09Z</time>
      </trkpt>
      <trkpt lat="44.70165" lon="5.9883">
        <ele>1686</ele>
        <time>2021-09-20T12:12:10Z</time>
      </trkpt>
      <trkpt lat="44.70166" lon="5.98831">
        <ele>1686</ele>
        <time>2021-09-20T12:12:11Z</time>
      </trkpt>
      <trkpt lat="44.70166" lon="5.98832">
        <ele>1686</ele>
        <time>2021-09-20T12:12:12Z</time>
      </trkpt>
      <trkpt lat="44.70166" lon="5.98833">
        <ele>1686</ele>
        <time>2021-09-20T12:12:13Z</time>
      </trkpt>
      <trkpt lat="44.70166" lon="5.98834">
        <ele>1686</ele>
        <time>2021-09-20T12:12:14Z</time>
      </trkpt>
      <trkpt lat="44.70166" lon="5.98835">
        <ele>1686</ele>
        <time>2021-09-20T12:12:15Z</time>
      </trkpt>
      <trkpt lat="44.70166" lon="5.98836">
        <ele>1686</ele>
        <time>2021-09-20T12:12:16Z</time>
      </trkpt>
      <trkpt lat="44.70166" lon="5.98837">
        <ele>1686</ele>
        <time>2021-09-20T12:12:17Z</time>
      </trkpt>
      <trkpt lat="44.70166" lon="5.98839">
        <ele>1686</ele>
        <time>2021-09-20T12:12:18Z</time>
      </trkpt>
      <trkpt lat="44.70167" lon="5.9884">
        <ele>1686</ele>
        <time>2021-09-20T12:12:19Z</time>
      </trkpt>
      <trkpt lat="44.70167" lon="5.98841">
        <ele>1686</ele>
        <time>2021-09-20T12:12:20Z</time>
      </trkpt>
      <trkpt lat="44.70167" lon="5.98842">
        <ele>1686</ele>
        <time>2021-09-20T12:12:21Z</time>
      </trkpt>
      <trkpt lat="44.70168" lon="5.98844">
        <ele>1687</ele>
        <time>2021-09-20T12:12:22Z</time>
      </trkpt>
      <trkpt lat="44.70168" lon="5.98845">
        <ele>1687</ele>
        <time>2021-09-20T12:12:23Z</time>
      </trkpt>
      <trkpt lat="44.70168" lon="5.98846">
        <ele>1687</ele>
        <time>2021-09-20T12:12:24Z</time>
      </trkpt>
      <trkpt lat="44.70168" lon="5.98847">
        <ele>1687</ele>
        <time>2021-09-20T12:12:25Z</time>
      </trkpt>
      <trkpt lat="44.70168" lon="5.98847">
        <ele>1687</ele>
        <time>2021-09-20T12:12:26Z</time>
      </trkpt>
      <trkpt lat="44.70169" lon="5.98848">
        <ele>1687</ele>
        <time>2021-09-20T12:12:27Z</time>
      </trkpt>
      <trkpt lat="44.70169" lon="5.98849">
        <ele>1687</ele>
        <time>2021-09-20T12:12:28Z</time>
      </trkpt>
      <trkpt lat="44.70169" lon="5.9885">
        <ele>1687</ele>
        <time>2021-09-20T12:12:29Z</time>
      </trkpt>
      <trkpt lat="44.7017" lon="5.98851">
        <ele>1687</ele>
        <time>2021-09-20T12:12:30Z</time>
      </trkpt>
      <trkpt lat="44.7017" lon="5.98852">
        <ele>1687</ele>
        <time>2021-09-20T12:12:31Z</time>
      </trkpt>
      <trkpt lat="44.70171" lon="5.98853">
        <ele>1687</ele>
        <time>2021-09-20T12:12:32Z</time>
      </trkpt>
      <trkpt lat="44.70171" lon="5.98854">
        <ele>1687</ele>
        <time>2021-09-20T12:12:33Z</time>
      </trkpt>
      <trkpt lat="44.70171" lon="5.98855">
        <ele>1687</ele>
        <time>2021-09-20T12:12:34Z</time>
      </trkpt>
      <trkpt lat="44.70172" lon="5.98856">
        <ele>1687</ele>
        <time>2021-09-20T12:12:35Z</time>
      </trkpt>
      <trkpt lat="44.70172" lon="5.98857">
        <ele>1687</ele>
        <time>2021-09-20T12:12:36Z</time>
      </trkpt>
      <trkpt lat="44.70173" lon="5.98858">
        <ele>1688</ele>
        <time>2021-09-20T12:12:37Z</time>
      </trkpt>
      <trkpt lat="44.70173" lon="5.9886">
        <ele>1688</ele>
        <time>2021-09-20T12:12:38Z</time>
      </trkpt>
      <trkpt lat="44.70174" lon="5.98861">
        <ele>1688</ele>
        <time>2021-09-20T12:12:39Z</time>
      </trkpt>
      <trkpt lat="44.70174" lon="5.98862">
        <ele>1688</ele>
        <time>2021-09-20T12:12:40Z</time>
      </trkpt>
      <trkpt lat="44.70175" lon="5.98863">
        <ele>1688</ele>
        <time>2021-09-20T12:12:41Z</time>
      </trkpt>
      <trkpt lat="44.70175" lon="5.98864">
        <ele>1688</ele>
        <time>2021-09-20T12:12:42Z</time>
      </trkpt>
      <trkpt lat="44.70176" lon="5.98865">
        <ele>1688</ele>
        <time>2021-09-20T12:12:43Z</time>
      </trkpt>
      <trkpt lat="44.70176" lon="5.98866">
        <ele>1688</ele>
        <time>2021-09-20T12:12:44Z</time>
      </trkpt>
      <trkpt lat="44.70177" lon="5.98867">
        <ele>1688</ele>
        <time>2021-09-20T12:12:45Z</time>
      </trkpt>
      <trkpt lat="44.70177" lon="5.98867">
        <ele>1688</ele>
        <time>2021-09-20T12:12:46Z</time>
      </trkpt>
      <trkpt lat="44.70178" lon="5.98868">
        <ele>1688</ele>
        <time>2021-09-20T12:12:47Z</time>
      </trkpt>
      <trkpt lat="44.70178" lon="5.98869">
        <ele>1688</ele>
        <time>2021-09-20T12:12:48Z</time>
      </trkpt>
      <trkpt lat="44.70179" lon="5.9887">
        <ele>1688</ele>
        <time>2021-09-20T12:12:49Z</time>
      </trkpt>
      <trkpt lat="44.70179" lon="5.98871">
        <ele>1688</ele>
        <time>2021-09-20T12:12:50Z</time>
      </trkpt>
      <trkpt lat="44.7018" lon="5.98872">
        <ele>1688</ele>
        <time>2021-09-20T12:12:51Z</time>
      </trkpt>
      <trkpt lat="44.7018" lon="5.98873">
        <ele>1688</ele>
        <time>2021-09-20T12:12:52Z</time>
      </trkpt>
      <trkpt lat="44.7018" lon="5.98874">
        <ele>1688</ele>
        <time>2021-09-20T12:12:53Z</time>
      </trkpt>
      <trkpt lat="44.7018" lon="5.98875">
        <ele>1688</ele>
        <time>2021-09-20T12:12:54Z</time>
      </trkpt>
      <trkpt lat="44.70179" lon="5.98876">
        <ele>1688</ele>
        <time>2021-09-20T12:12:55Z</time>
      </trkpt>
      <trkpt lat="44.70179" lon="5.98876">
        <ele>1688</ele>
        <time>2021-09-20T12:13:44Z</time>
      </trkpt>
      <trkpt lat="44.70179" lon="5.98876">
        <ele>1688</ele>
        <time>2021-09-20T12:13:45Z</time>
      </trkpt>
      <trkpt lat="44.70179" lon="5.98876">
        <ele>1688</ele>
        <time>2021-09-20T12:13:46Z</time>
      </trkpt>
      <trkpt lat="44.70179" lon="5.98876">
        <ele>1688</ele>
        <time>2021-09-20T12:13:47Z</time>
      </trkpt>
      <trkpt lat="44.7018" lon="5.98876">
        <ele>1688</ele>
        <time>2021-09-20T12:13:48Z</time>
      </trkpt>
      <trkpt lat="44.7018" lon="5.98877">
        <ele>1688</ele>
        <time>2021-09-20T12:13:49Z</time>
      </trkpt>
      <trkpt lat="44.70181" lon="5.98878">
        <ele>1688</ele>
        <time>2021-09-20T12:13:50Z</time>
      </trkpt>
      <trkpt lat="44.70182" lon="5.98878">
        <ele>1688</ele>
        <time>2021-09-20T12:13:51Z</time>
      </trkpt>
      <trkpt lat="44.70183" lon="5.98879">
        <ele>1688</ele>
        <time>2021-09-20T12:13:52Z</time>
      </trkpt>
      <trkpt lat="44.70184" lon="5.9888">
        <ele>1688</ele>
        <time>2021-09-20T12:13:53Z</time>
      </trkpt>
      <trkpt lat="44.70185" lon="5.98881">
        <ele>1688</ele>
        <time>2021-09-20T12:13:54Z</time>
      </trkpt>
      <trkpt lat="44.70186" lon="5.98882">
        <ele>1688</ele>
        <time>2021-09-20T12:13:55Z</time>
      </trkpt>
      <trkpt lat="44.70187" lon="5.98882">
        <ele>1688</ele>
        <time>2021-09-20T12:13:56Z</time>
      </trkpt>
      <trkpt lat="44.70187" lon="5.98883">
        <ele>1689</ele>
        <time>2021-09-20T12:13:57Z</time>
      </trkpt>
      <trkpt lat="44.70188" lon="5.98884">
        <ele>1689</ele>
        <time>2021-09-20T12:13:58Z</time>
      </trkpt>
      <trkpt lat="44.70189" lon="5.98884">
        <ele>1689</ele>
        <time>2021-09-20T12:13:59Z</time>
      </trkpt>
      <trkpt lat="44.7019" lon="5.98885">
        <ele>1689</ele>
        <time>2021-09-20T12:14:00Z</time>
      </trkpt>
      <trkpt lat="44.70191" lon="5.98886">
        <ele>1689</ele>
        <time>2021-09-20T12:14:01Z</time>
      </trkpt>
      <trkpt lat="44.70192" lon="5.98887">
        <ele>1689</ele>
        <time>2021-09-20T12:14:02Z</time>
      </trkpt>
      <trkpt lat="44.70192" lon="5.98887">
        <ele>1689</ele>
        <time>2021-09-20T12:14:03Z</time>
      </trkpt>
      <trkpt lat="44.70193" lon="5.98888">
        <ele>1689</ele>
        <time>2021-09-20T12:14:04Z</time>
      </trkpt>
      <trkpt lat="44.70194" lon="5.98889">
        <ele>1689</ele>
        <time>2021-09-20T12:14:05Z</time>
      </trkpt>
      <trkpt lat="44.70195" lon="5.9889">
        <ele>1689</ele>
        <time>2021-09-20T12:14:06Z</time>
      </trkpt>
      <trkpt lat="44.70196" lon="5.98891">
        <ele>1689</ele>
        <time>2021-09-20T12:14:07Z</time>
      </trkpt>
      <trkpt lat="44.70197" lon="5.98892">
        <ele>1689</ele>
        <time>2021-09-20T12:14:08Z</time>
      </trkpt>
      <trkpt lat="44.70197" lon="5.98893">
        <ele>1689</ele>
        <time>2021-09-20T12:14:09Z</time>
      </trkpt>
      <trkpt lat="44.70198" lon="5.98894">
        <ele>1689</ele>
        <time>2021-09-20T12:14:10Z</time>
      </trkpt>
      <trkpt lat="44.70199" lon="5.98895">
        <ele>1689</ele>
        <time>2021-09-20T12:14:11Z</time>
      </trkpt>
      <trkpt lat="44.702" lon="5.98896">
        <ele>1689</ele>
        <time>2021-09-20T12:14:12Z</time>
      </trkpt>
      <trkpt lat="44.702" lon="5.98897">
        <ele>1689</ele>
        <time>2021-09-20T12:14:13Z</time>
      </trkpt>
      <trkpt lat="44.70201" lon="5.98898">
        <ele>1689</ele>
        <time>2021-09-20T12:14:14Z</time>
      </trkpt>
      <trkpt lat="44.70202" lon="5.98899">
        <ele>1689</ele>
        <time>2021-09-20T12:14:15Z</time>
      </trkpt>
      <trkpt lat="44.70202" lon="5.989">
        <ele>1689</ele>
        <time>2021-09-20T12:14:16Z</time>
      </trkpt>
      <trkpt lat="44.70203" lon="5.98901">
        <ele>1689</ele>
        <time>2021-09-20T12:14:17Z</time>
      </trkpt>
      <trkpt lat="44.70204" lon="5.98902">
        <ele>1689</ele>
        <time>2021-09-20T12:14:18Z</time>
      </trkpt>
      <trkpt lat="44.70205" lon="5.98903">
        <ele>1689</ele>
        <time>2021-09-20T12:14:19Z</time>
      </trkpt>
      <trkpt lat="44.70205" lon="5.98904">
        <ele>1689</ele>
        <time>2021-09-20T12:14:20Z</time>
      </trkpt>
      <trkpt lat="44.70206" lon="5.98905">
        <ele>1689</ele>
        <time>2021-09-20T12:14:21Z</time>
      </trkpt>
      <trkpt lat="44.70207" lon="5.98906">
        <ele>1690</ele>
        <time>2021-09-20T12:14:22Z</time>
      </trkpt>
      <trkpt lat="44.70208" lon="5.98907">
        <ele>1690</ele>
        <time>2021-09-20T12:14:23Z</time>
      </trkpt>
      <trkpt lat="44.70208" lon="5.98908">
        <ele>1690</ele>
        <time>2021-09-20T12:14:24Z</time>
      </trkpt>
      <trkpt lat="44.70209" lon="5.98909">
        <ele>1690</ele>
        <time>2021-09-20T12:14:25Z</time>
      </trkpt>
      <trkpt lat="44.7021" lon="5.9891">
        <ele>1690</ele>
        <time>2021-09-20T12:14:26Z</time>
      </trkpt>
      <trkpt lat="44.70211" lon="5.98911">
        <ele>1690</ele>
        <time>2021-09-20T12:14:27Z</time>
      </trkpt>
      <trkpt lat="44.70211" lon="5.98912">
        <ele>1690</ele>
        <time>2021-09-20T12:14:28Z</time>
      </trkpt>
      <trkpt lat="44.70212" lon="5.98913">
        <ele>1690</ele>
        <time>2021-09-20T12:14:29Z</time>
      </trkpt>
      <trkpt lat="44.70213" lon="5.98914">
        <ele>1690</ele>
        <time>2021-09-20T12:14:30Z</time>
      </trkpt>
      <trkpt lat="44.70213" lon="5.98915">
        <ele>1690</ele>
        <time>2021-09-20T12:14:31Z</time>
      </trkpt>
      <trkpt lat="44.70214" lon="5.98916">
        <ele>1690</ele>
        <time>2021-09-20T12:14:32Z</time>
      </trkpt>
      <trkpt lat="44.70215" lon="5.98917">
        <ele>1690</ele>
        <time>2021-09-20T12:14:33Z</time>
      </trkpt>
      <trkpt lat="44.70216" lon="5.98918">
        <ele>1690</ele>
        <time>2021-09-20T12:14:34Z</time>
      </trkpt>
      <trkpt lat="44.70216" lon="5.98919">
        <ele>1690</ele>
        <time>2021-09-20T12:14:35Z</time>
      </trkpt>
      <trkpt lat="44.70217" lon="5.9892">
        <ele>1690</ele>
        <time>2021-09-20T12:14:36Z</time>
      </trkpt>
      <trkpt lat="44.70218" lon="5.98921">
        <ele>1690</ele>
        <time>2021-09-20T12:14:37Z</time>
      </trkpt>
      <trkpt lat="44.70218" lon="5.98922">
        <ele>1690</ele>
        <time>2021-09-20T12:14:38Z</time>
      </trkpt>
      <trkpt lat="44.70219" lon="5.98923">
        <ele>1690</ele>
        <time>2021-09-20T12:14:39Z</time>
      </trkpt>
      <trkpt lat="44.7022" lon="5.98924">
        <ele>1690</ele>
        <time>2021-09-20T12:14:40Z</time>
      </trkpt>
      <trkpt lat="44.70221" lon="5.98925">
        <ele>1690</ele>
        <time>2021-09-20T12:14:41Z</time>
      </trkpt>
      <trkpt lat="44.70221" lon="5.98926">
        <ele>1690</ele>
        <time>2021-09-20T12:14:42Z</time>
      </trkpt>
      <trkpt lat="44.70222" lon="5.98927">
        <ele>1690</ele>
        <time>2021-09-20T12:14:43Z</time>
      </trkpt>
      <trkpt lat="44.70222" lon="5.98929">
        <ele>1690</ele>
        <time>2021-09-20T12:14:44Z</time>
      </trkpt>
      <trkpt lat="44.70223" lon="5.9893">
        <ele>1690</ele>
        <time>2021-09-20T12:14:45Z</time>
      </trkpt>
      <trkpt lat="44.70223" lon="5.98931">
        <ele>1690</ele>
        <time>2021-09-20T12:14:46Z</time>
      </trkpt>
      <trkpt lat="44.70224" lon="5.98932">
        <ele>1691</ele>
        <time>2021-09-20T12:14:47Z</time>
      </trkpt>
      <trkpt lat="44.70224" lon="5.98933">
        <ele>1691</ele>
        <time>2021-09-20T12:14:48Z</time>
      </trkpt>
      <trkpt lat="44.70225" lon="5.98934">
        <ele>1691</ele>
        <time>2021-09-20T12:14:49Z</time>
      </trkpt>
      <trkpt lat="44.70225" lon="5.98935">
        <ele>1691</ele>
        <time>2021-09-20T12:14:50Z</time>
      </trkpt>
      <trkpt lat="44.70226" lon="5.98936">
        <ele>1691</ele>
        <time>2021-09-20T12:14:51Z</time>
      </trkpt>
      <trkpt lat="44.70226" lon="5.98937">
        <ele>1691</ele>
        <time>2021-09-20T12:14:52Z</time>
      </trkpt>
      <trkpt lat="44.70227" lon="5.98939">
        <ele>1691</ele>
        <time>2021-09-20T12:14:53Z</time>
      </trkpt>
      <trkpt lat="44.70227" lon="5.9894">
        <ele>1691</ele>
        <time>2021-09-20T12:14:54Z</time>
      </trkpt>
      <trkpt lat="44.70228" lon="5.98941">
        <ele>1691</ele>
        <time>2021-09-20T12:14:55Z</time>
      </trkpt>
      <trkpt lat="44.70228" lon="5.98943">
        <ele>1691</ele>
        <time>2021-09-20T12:14:56Z</time>
      </trkpt>
      <trkpt lat="44.70229" lon="5.98944">
        <ele>1691</ele>
        <time>2021-09-20T12:14:57Z</time>
      </trkpt>
      <trkpt lat="44.70229" lon="5.98945">
        <ele>1691</ele>
        <time>2021-09-20T12:14:58Z</time>
      </trkpt>
      <trkpt lat="44.7023" lon="5.98946">
        <ele>1691</ele>
        <time>2021-09-20T12:14:59Z</time>
      </trkpt>
      <trkpt lat="44.7023" lon="5.98947">
        <ele>1691</ele>
        <time>2021-09-20T12:15:00Z</time>
      </trkpt>
      <trkpt lat="44.70231" lon="5.98948">
        <ele>1691</ele>
        <time>2021-09-20T12:15:01Z</time>
      </trkpt>
      <trkpt lat="44.70231" lon="5.9895">
        <ele>1691</ele>
        <time>2021-09-20T12:15:02Z</time>
      </trkpt>
      <trkpt lat="44.70232" lon="5.98951">
        <ele>1691</ele>
        <time>2021-09-20T12:15:03Z</time>
      </trkpt>
      <trkpt lat="44.70232" lon="5.98952">
        <ele>1691</ele>
        <time>2021-09-20T12:15:04Z</time>
      </trkpt>
      <trkpt lat="44.70233" lon="5.98953">
        <ele>1691</ele>
        <time>2021-09-20T12:15:05Z</time>
      </trkpt>
      <trkpt lat="44.70234" lon="5.98954">
        <ele>1691</ele>
        <time>2021-09-20T12:15:06Z</time>
      </trkpt>
      <trkpt lat="44.70234" lon="5.98955">
        <ele>1691</ele>
        <time>2021-09-20T12:15:07Z</time>
      </trkpt>
      <trkpt lat="44.70235" lon="5.98957">
        <ele>1691</ele>
        <time>2021-09-20T12:15:08Z</time>
      </trkpt>
      <trkpt lat="44.70236" lon="5.98957">
        <ele>1691</ele>
        <time>2021-09-20T12:15:32Z</time>
      </trkpt>
      <trkpt lat="44.70237" lon="5.98958">
        <ele>1691</ele>
        <time>2021-09-20T12:15:33Z</time>
      </trkpt>
      <trkpt lat="44.70237" lon="5.98958">
        <ele>1691</ele>
        <time>2021-09-20T12:15:34Z</time>
      </trkpt>
      <trkpt lat="44.70238" lon="5.98959">
        <ele>1691</ele>
        <time>2021-09-20T12:15:35Z</time>
      </trkpt>
      <trkpt lat="44.70239" lon="5.9896">
        <ele>1691</ele>
        <time>2021-09-20T12:15:36Z</time>
      </trkpt>
      <trkpt lat="44.70239" lon="5.98961">
        <ele>1692</ele>
        <time>2021-09-20T12:15:37Z</time>
      </trkpt>
      <trkpt lat="44.7024" lon="5.98961">
        <ele>1692</ele>
        <time>2021-09-20T12:15:38Z</time>
      </trkpt>
      <trkpt lat="44.70241" lon="5.98963">
        <ele>1692</ele>
        <time>2021-09-20T12:15:39Z</time>
      </trkpt>
      <trkpt lat="44.70241" lon="5.98964">
        <ele>1692</ele>
        <time>2021-09-20T12:15:40Z</time>
      </trkpt>
      <trkpt lat="44.70242" lon="5.98965">
        <ele>1692</ele>
        <time>2021-09-20T12:15:41Z</time>
      </trkpt>
      <trkpt lat="44.70242" lon="5.98966">
        <ele>1692</ele>
        <time>2021-09-20T12:15:42Z</time>
      </trkpt>
      <trkpt lat="44.70242" lon="5.98968">
        <ele>1692</ele>
        <time>2021-09-20T12:15:43Z</time>
      </trkpt>
      <trkpt lat="44.70243" lon="5.98969">
        <ele>1692</ele>
        <time>2021-09-20T12:15:44Z</time>
      </trkpt>
      <trkpt lat="44.70243" lon="5.9897">
        <ele>1692</ele>
        <time>2021-09-20T12:15:45Z</time>
      </trkpt>
      <trkpt lat="44.70244" lon="5.98971">
        <ele>1692</ele>
        <time>2021-09-20T12:15:46Z</time>
      </trkpt>
      <trkpt lat="44.70245" lon="5.98972">
        <ele>1692</ele>
        <time>2021-09-20T12:15:47Z</time>
      </trkpt>
      <trkpt lat="44.70245" lon="5.98973">
        <ele>1692</ele>
        <time>2021-09-20T12:15:48Z</time>
      </trkpt>
      <trkpt lat="44.70246" lon="5.98974">
        <ele>1692</ele>
        <time>2021-09-20T12:15:49Z</time>
      </trkpt>
      <trkpt lat="44.70247" lon="5.98975">
        <ele>1692</ele>
        <time>2021-09-20T12:15:50Z</time>
      </trkpt>
      <trkpt lat="44.70247" lon="5.98976">
        <ele>1692</ele>
        <time>2021-09-20T12:15:51Z</time>
      </trkpt>
      <trkpt lat="44.70248" lon="5.98978">
        <ele>1693</ele>
        <time>2021-09-20T12:15:52Z</time>
      </trkpt>
      <trkpt lat="44.70248" lon="5.98979">
        <ele>1693</ele>
        <time>2021-09-20T12:15:53Z</time>
      </trkpt>
      <trkpt lat="44.70249" lon="5.9898">
        <ele>1693</ele>
        <time>2021-09-20T12:15:54Z</time>
      </trkpt>
      <trkpt lat="44.7025" lon="5.98981">
        <ele>1693</ele>
        <time>2021-09-20T12:15:55Z</time>
      </trkpt>
      <trkpt lat="44.70251" lon="5.98981">
        <ele>1693</ele>
        <time>2021-09-20T12:15:56Z</time>
      </trkpt>
      <trkpt lat="44.70251" lon="5.98982">
        <ele>1693</ele>
        <time>2021-09-20T12:15:57Z</time>
      </trkpt>
      <trkpt lat="44.70252" lon="5.98983">
        <ele>1693</ele>
        <time>2021-09-20T12:15:58Z</time>
      </trkpt>
      <trkpt lat="44.70253" lon="5.98984">
        <ele>1693</ele>
        <time>2021-09-20T12:15:59Z</time>
      </trkpt>
      <trkpt lat="44.70254" lon="5.98985">
        <ele>1693</ele>
        <time>2021-09-20T12:16:00Z</time>
      </trkpt>
      <trkpt lat="44.70255" lon="5.98986">
        <ele>1693</ele>
        <time>2021-09-20T12:16:01Z</time>
      </trkpt>
      <trkpt lat="44.70256" lon="5.98987">
        <ele>1693</ele>
        <time>2021-09-20T12:16:02Z</time>
      </trkpt>
      <trkpt lat="44.70256" lon="5.98988">
        <ele>1693</ele>
        <time>2021-09-20T12:16:03Z</time>
      </trkpt>
      <trkpt lat="44.70257" lon="5.98989">
        <ele>1693</ele>
        <time>2021-09-20T12:16:04Z</time>
      </trkpt>
      <trkpt lat="44.70258" lon="5.9899">
        <ele>1693</ele>
        <time>2021-09-20T12:16:05Z</time>
      </trkpt>
      <trkpt lat="44.70259" lon="5.98991">
        <ele>1693</ele>
        <time>2021-09-20T12:16:06Z</time>
      </trkpt>
      <trkpt lat="44.7026" lon="5.98992">
        <ele>1694</ele>
        <time>2021-09-20T12:16:07Z</time>
      </trkpt>
      <trkpt lat="44.70261" lon="5.98993">
        <ele>1694</ele>
        <time>2021-09-20T12:16:08Z</time>
      </trkpt>
      <trkpt lat="44.70261" lon="5.98994">
        <ele>1694</ele>
        <time>2021-09-20T12:16:09Z</time>
      </trkpt>
      <trkpt lat="44.70262" lon="5.98995">
        <ele>1694</ele>
        <time>2021-09-20T12:16:10Z</time>
      </trkpt>
      <trkpt lat="44.70263" lon="5.98996">
        <ele>1694</ele>
        <time>2021-09-20T12:16:11Z</time>
      </trkpt>
      <trkpt lat="44.70263" lon="5.98997">
        <ele>1694</ele>
        <time>2021-09-20T12:16:12Z</time>
      </trkpt>
      <trkpt lat="44.70264" lon="5.98998">
        <ele>1694</ele>
        <time>2021-09-20T12:16:13Z</time>
      </trkpt>
      <trkpt lat="44.70265" lon="5.98999">
        <ele>1694</ele>
        <time>2021-09-20T12:16:14Z</time>
      </trkpt>
      <trkpt lat="44.70265" lon="5.99">
        <ele>1694</ele>
        <time>2021-09-20T12:16:15Z</time>
      </trkpt>
      <trkpt lat="44.70266" lon="5.99001">
        <ele>1694</ele>
        <time>2021-09-20T12:16:16Z</time>
      </trkpt>
      <trkpt lat="44.70266" lon="5.99002">
        <ele>1694</ele>
        <time>2021-09-20T12:16:17Z</time>
      </trkpt>
      <trkpt lat="44.70267" lon="5.99002">
        <ele>1694</ele>
        <time>2021-09-20T12:16:18Z</time>
      </trkpt>
      <trkpt lat="44.70267" lon="5.99003">
        <ele>1694</ele>
        <time>2021-09-20T12:16:19Z</time>
      </trkpt>
      <trkpt lat="44.70268" lon="5.99004">
        <ele>1694</ele>
        <time>2021-09-20T12:16:20Z</time>
      </trkpt>
      <trkpt lat="44.70268" lon="5.99005">
        <ele>1694</ele>
        <time>2021-09-20T12:16:21Z</time>
      </trkpt>
      <trkpt lat="44.70269" lon="5.99006">
        <ele>1694</ele>
        <time>2021-09-20T12:16:22Z</time>
      </trkpt>
      <trkpt lat="44.7027" lon="5.99007">
        <ele>1694</ele>
        <time>2021-09-20T12:16:23Z</time>
      </trkpt>
      <trkpt lat="44.7027" lon="5.99008">
        <ele>1694</ele>
        <time>2021-09-20T12:16:24Z</time>
      </trkpt>
      <trkpt lat="44.70271" lon="5.99009">
        <ele>1694</ele>
        <time>2021-09-20T12:16:25Z</time>
      </trkpt>
      <trkpt lat="44.70272" lon="5.9901">
        <ele>1694</ele>
        <time>2021-09-20T12:16:26Z</time>
      </trkpt>
      <trkpt lat="44.70272" lon="5.99011">
        <ele>1694</ele>
        <time>2021-09-20T12:16:27Z</time>
      </trkpt>
      <trkpt lat="44.70273" lon="5.99011">
        <ele>1694</ele>
        <time>2021-09-20T12:16:28Z</time>
      </trkpt>
      <trkpt lat="44.70274" lon="5.99012">
        <ele>1694</ele>
        <time>2021-09-20T12:16:29Z</time>
      </trkpt>
      <trkpt lat="44.70274" lon="5.99013">
        <ele>1694</ele>
        <time>2021-09-20T12:16:30Z</time>
      </trkpt>
      <trkpt lat="44.70275" lon="5.99014">
        <ele>1694</ele>
        <time>2021-09-20T12:16:31Z</time>
      </trkpt>
      <trkpt lat="44.70276" lon="5.99015">
        <ele>1695</ele>
        <time>2021-09-20T12:16:32Z</time>
      </trkpt>
      <trkpt lat="44.70276" lon="5.99016">
        <ele>1695</ele>
        <time>2021-09-20T12:16:33Z</time>
      </trkpt>
      <trkpt lat="44.70277" lon="5.99017">
        <ele>1695</ele>
        <time>2021-09-20T12:16:34Z</time>
      </trkpt>
      <trkpt lat="44.70277" lon="5.99018">
        <ele>1695</ele>
        <time>2021-09-20T12:16:35Z</time>
      </trkpt>
      <trkpt lat="44.70278" lon="5.99019">
        <ele>1695</ele>
        <time>2021-09-20T12:16:36Z</time>
      </trkpt>
      <trkpt lat="44.70279" lon="5.9902">
        <ele>1695</ele>
        <time>2021-09-20T12:16:37Z</time>
      </trkpt>
      <trkpt lat="44.70279" lon="5.99021">
        <ele>1695</ele>
        <time>2021-09-20T12:16:38Z</time>
      </trkpt>
      <trkpt lat="44.7028" lon="5.99022">
        <ele>1695</ele>
        <time>2021-09-20T12:16:39Z</time>
      </trkpt>
      <trkpt lat="44.7028" lon="5.99023">
        <ele>1695</ele>
        <time>2021-09-20T12:16:40Z</time>
      </trkpt>
      <trkpt lat="44.70281" lon="5.99024">
        <ele>1695</ele>
        <time>2021-09-20T12:16:41Z</time>
      </trkpt>
      <trkpt lat="44.70281" lon="5.99025">
        <ele>1696</ele>
        <time>2021-09-20T12:16:42Z</time>
      </trkpt>
      <trkpt lat="44.70282" lon="5.99026">
        <ele>1696</ele>
        <time>2021-09-20T12:16:43Z</time>
      </trkpt>
      <trkpt lat="44.70283" lon="5.99027">
        <ele>1696</ele>
        <time>2021-09-20T12:16:44Z</time>
      </trkpt>
      <trkpt lat="44.70284" lon="5.99028">
        <ele>1696</ele>
        <time>2021-09-20T12:16:45Z</time>
      </trkpt>
      <trkpt lat="44.70285" lon="5.99029">
        <ele>1696</ele>
        <time>2021-09-20T12:16:46Z</time>
      </trkpt>
      <trkpt lat="44.70285" lon="5.9903">
        <ele>1696</ele>
        <time>2021-09-20T12:16:47Z</time>
      </trkpt>
      <trkpt lat="44.70286" lon="5.99031">
        <ele>1696</ele>
        <time>2021-09-20T12:16:48Z</time>
      </trkpt>
      <trkpt lat="44.70287" lon="5.99032">
        <ele>1696</ele>
        <time>2021-09-20T12:16:49Z</time>
      </trkpt>
      <trkpt lat="44.70288" lon="5.99033">
        <ele>1696</ele>
        <time>2021-09-20T12:16:50Z</time>
      </trkpt>
      <trkpt lat="44.70289" lon="5.99035">
        <ele>1696</ele>
        <time>2021-09-20T12:16:51Z</time>
      </trkpt>
      <trkpt lat="44.70289" lon="5.99036">
        <ele>1697</ele>
        <time>2021-09-20T12:16:52Z</time>
      </trkpt>
      <trkpt lat="44.7029" lon="5.99037">
        <ele>1697</ele>
        <time>2021-09-20T12:16:53Z</time>
      </trkpt>
      <trkpt lat="44.7029" lon="5.99039">
        <ele>1697</ele>
        <time>2021-09-20T12:16:54Z</time>
      </trkpt>
      <trkpt lat="44.70291" lon="5.9904">
        <ele>1697</ele>
        <time>2021-09-20T12:16:55Z</time>
      </trkpt>
      <trkpt lat="44.70291" lon="5.99041">
        <ele>1697</ele>
        <time>2021-09-20T12:16:56Z</time>
      </trkpt>
      <trkpt lat="44.70292" lon="5.99043">
        <ele>1697</ele>
        <time>2021-09-20T12:16:57Z</time>
      </trkpt>
      <trkpt lat="44.70293" lon="5.99044">
        <ele>1697</ele>
        <time>2021-09-20T12:16:58Z</time>
      </trkpt>
      <trkpt lat="44.70293" lon="5.99045">
        <ele>1697</ele>
        <time>2021-09-20T12:16:59Z</time>
      </trkpt>
      <trkpt lat="44.70294" lon="5.99047">
        <ele>1697</ele>
        <time>2021-09-20T12:17:00Z</time>
      </trkpt>
      <trkpt lat="44.70294" lon="5.99048">
        <ele>1697</ele>
        <time>2021-09-20T12:17:01Z</time>
      </trkpt>
      <trkpt lat="44.70295" lon="5.9905">
        <ele>1697</ele>
        <time>2021-09-20T12:17:02Z</time>
      </trkpt>
      <trkpt lat="44.70296" lon="5.99051">
        <ele>1697</ele>
        <time>2021-09-20T12:17:03Z</time>
      </trkpt>
      <trkpt lat="44.70296" lon="5.99052">
        <ele>1697</ele>
        <time>2021-09-20T12:17:04Z</time>
      </trkpt>
      <trkpt lat="44.70297" lon="5.99053">
        <ele>1697</ele>
        <time>2021-09-20T12:17:05Z</time>
      </trkpt>
      <trkpt lat="44.70298" lon="5.99054">
        <ele>1697</ele>
        <time>2021-09-20T12:17:06Z</time>
      </trkpt>
      <trkpt lat="44.70298" lon="5.99055">
        <ele>1697</ele>
        <time>2021-09-20T12:17:07Z</time>
      </trkpt>
      <trkpt lat="44.70299" lon="5.99056">
        <ele>1697</ele>
        <time>2021-09-20T12:17:08Z</time>
      </trkpt>
      <trkpt lat="44.703" lon="5.99057">
        <ele>1697</ele>
        <time>2021-09-20T12:17:09Z</time>
      </trkpt>
      <trkpt lat="44.70301" lon="5.99057">
        <ele>1697</ele>
        <time>2021-09-20T12:17:10Z</time>
      </trkpt>
      <trkpt lat="44.70301" lon="5.99058">
        <ele>1697</ele>
        <time>2021-09-20T12:17:11Z</time>
      </trkpt>
      <trkpt lat="44.70302" lon="5.99059">
        <ele>1697</ele>
        <time>2021-09-20T12:17:12Z</time>
      </trkpt>
      <trkpt lat="44.70303" lon="5.9906">
        <ele>1697</ele>
        <time>2021-09-20T12:17:13Z</time>
      </trkpt>
      <trkpt lat="44.70304" lon="5.9906">
        <ele>1697</ele>
        <time>2021-09-20T12:17:14Z</time>
      </trkpt>
      <trkpt lat="44.70305" lon="5.99061">
        <ele>1697</ele>
        <time>2021-09-20T12:17:15Z</time>
      </trkpt>
      <trkpt lat="44.70305" lon="5.99062">
        <ele>1697</ele>
        <time>2021-09-20T12:17:16Z</time>
      </trkpt>
      <trkpt lat="44.70306" lon="5.99063">
        <ele>1697</ele>
        <time>2021-09-20T12:17:17Z</time>
      </trkpt>
      <trkpt lat="44.70307" lon="5.99063">
        <ele>1697</ele>
        <time>2021-09-20T12:17:18Z</time>
      </trkpt>
      <trkpt lat="44.70308" lon="5.99064">
        <ele>1697</ele>
        <time>2021-09-20T12:17:19Z</time>
      </trkpt>
      <trkpt lat="44.70309" lon="5.99065">
        <ele>1697</ele>
        <time>2021-09-20T12:17:20Z</time>
      </trkpt>
      <trkpt lat="44.7031" lon="5.99066">
        <ele>1697</ele>
        <time>2021-09-20T12:17:21Z</time>
      </trkpt>
      <trkpt lat="44.7031" lon="5.99066">
        <ele>1698</ele>
        <time>2021-09-20T12:17:22Z</time>
      </trkpt>
      <trkpt lat="44.70311" lon="5.99067">
        <ele>1698</ele>
        <time>2021-09-20T12:17:23Z</time>
      </trkpt>
      <trkpt lat="44.70311" lon="5.99067">
        <ele>1698</ele>
        <time>2021-09-20T12:17:24Z</time>
      </trkpt>
      <trkpt lat="44.70312" lon="5.99068">
        <ele>1698</ele>
        <time>2021-09-20T12:17:25Z</time>
      </trkpt>
      <trkpt lat="44.70313" lon="5.99069">
        <ele>1698</ele>
        <time>2021-09-20T12:17:26Z</time>
      </trkpt>
      <trkpt lat="44.70314" lon="5.9907">
        <ele>1698</ele>
        <time>2021-09-20T12:17:27Z</time>
      </trkpt>
      <trkpt lat="44.70315" lon="5.99071">
        <ele>1698</ele>
        <time>2021-09-20T12:17:28Z</time>
      </trkpt>
      <trkpt lat="44.70315" lon="5.99072">
        <ele>1698</ele>
        <time>2021-09-20T12:17:29Z</time>
      </trkpt>
      <trkpt lat="44.70316" lon="5.99072">
        <ele>1698</ele>
        <time>2021-09-20T12:17:30Z</time>
      </trkpt>
      <trkpt lat="44.70317" lon="5.99073">
        <ele>1698</ele>
        <time>2021-09-20T12:17:31Z</time>
      </trkpt>
      <trkpt lat="44.70318" lon="5.99074">
        <ele>1699</ele>
        <time>2021-09-20T12:17:32Z</time>
      </trkpt>
      <trkpt lat="44.70319" lon="5.99074">
        <ele>1699</ele>
        <time>2021-09-20T12:17:33Z</time>
      </trkpt>
      <trkpt lat="44.7032" lon="5.99075">
        <ele>1699</ele>
        <time>2021-09-20T12:17:34Z</time>
      </trkpt>
      <trkpt lat="44.7032" lon="5.99076">
        <ele>1699</ele>
        <time>2021-09-20T12:17:35Z</time>
      </trkpt>
      <trkpt lat="44.70321" lon="5.99076">
        <ele>1699</ele>
        <time>2021-09-20T12:17:36Z</time>
      </trkpt>
      <trkpt lat="44.70322" lon="5.99077">
        <ele>1699</ele>
        <time>2021-09-20T12:17:37Z</time>
      </trkpt>
      <trkpt lat="44.70323" lon="5.99078">
        <ele>1699</ele>
        <time>2021-09-20T12:17:38Z</time>
      </trkpt>
      <trkpt lat="44.70324" lon="5.99078">
        <ele>1699</ele>
        <time>2021-09-20T12:17:39Z</time>
      </trkpt>
      <trkpt lat="44.70325" lon="5.99079">
        <ele>1699</ele>
        <time>2021-09-20T12:17:40Z</time>
      </trkpt>
      <trkpt lat="44.70326" lon="5.99079">
        <ele>1699</ele>
        <time>2021-09-20T12:17:41Z</time>
      </trkpt>
      <trkpt lat="44.70326" lon="5.9908">
        <ele>1700</ele>
        <time>2021-09-20T12:17:42Z</time>
      </trkpt>
      <trkpt lat="44.70327" lon="5.9908">
        <ele>1700</ele>
        <time>2021-09-20T12:17:43Z</time>
      </trkpt>
      <trkpt lat="44.70328" lon="5.99081">
        <ele>1700</ele>
        <time>2021-09-20T12:17:44Z</time>
      </trkpt>
      <trkpt lat="44.70329" lon="5.99081">
        <ele>1700</ele>
        <time>2021-09-20T12:17:45Z</time>
      </trkpt>
      <trkpt lat="44.7033" lon="5.99082">
        <ele>1700</ele>
        <time>2021-09-20T12:17:46Z</time>
      </trkpt>
      <trkpt lat="44.70331" lon="5.99082">
        <ele>1700</ele>
        <time>2021-09-20T12:17:47Z</time>
      </trkpt>
      <trkpt lat="44.70333" lon="5.99083">
        <ele>1700</ele>
        <time>2021-09-20T12:17:48Z</time>
      </trkpt>
      <trkpt lat="44.70334" lon="5.99083">
        <ele>1700</ele>
        <time>2021-09-20T12:17:49Z</time>
      </trkpt>
      <trkpt lat="44.70335" lon="5.99083">
        <ele>1700</ele>
        <time>2021-09-20T12:17:50Z</time>
      </trkpt>
      <trkpt lat="44.70336" lon="5.99084">
        <ele>1700</ele>
        <time>2021-09-20T12:17:51Z</time>
      </trkpt>
      <trkpt lat="44.70337" lon="5.99084">
        <ele>1701</ele>
        <time>2021-09-20T12:17:52Z</time>
      </trkpt>
      <trkpt lat="44.70338" lon="5.99085">
        <ele>1701</ele>
        <time>2021-09-20T12:17:53Z</time>
      </trkpt>
      <trkpt lat="44.70339" lon="5.99085">
        <ele>1701</ele>
        <time>2021-09-20T12:17:54Z</time>
      </trkpt>
      <trkpt lat="44.7034" lon="5.99085">
        <ele>1701</ele>
        <time>2021-09-20T12:17:55Z</time>
      </trkpt>
      <trkpt lat="44.70341" lon="5.99086">
        <ele>1701</ele>
        <time>2021-09-20T12:17:56Z</time>
      </trkpt>
      <trkpt lat="44.70342" lon="5.99086">
        <ele>1702</ele>
        <time>2021-09-20T12:17:57Z</time>
      </trkpt>
      <trkpt lat="44.70343" lon="5.99086">
        <ele>1702</ele>
        <time>2021-09-20T12:17:58Z</time>
      </trkpt>
      <trkpt lat="44.70344" lon="5.99086">
        <ele>1702</ele>
        <time>2021-09-20T12:17:59Z</time>
      </trkpt>
      <trkpt lat="44.70345" lon="5.99087">
        <ele>1702</ele>
        <time>2021-09-20T12:18:00Z</time>
      </trkpt>
      <trkpt lat="44.70345" lon="5.99087">
        <ele>1702</ele>
        <time>2021-09-20T12:18:01Z</time>
      </trkpt>
      <trkpt lat="44.70346" lon="5.99087">
        <ele>1702</ele>
        <time>2021-09-20T12:18:02Z</time>
      </trkpt>
      <trkpt lat="44.70347" lon="5.99087">
        <ele>1702</ele>
        <time>2021-09-20T12:18:03Z</time>
      </trkpt>
      <trkpt lat="44.70348" lon="5.99087">
        <ele>1702</ele>
        <time>2021-09-20T12:18:04Z</time>
      </trkpt>
      <trkpt lat="44.70349" lon="5.99087">
        <ele>1702</ele>
        <time>2021-09-20T12:18:05Z</time>
      </trkpt>
      <trkpt lat="44.7035" lon="5.99087">
        <ele>1702</ele>
        <time>2021-09-20T12:18:06Z</time>
      </trkpt>
      <trkpt lat="44.70351" lon="5.99087">
        <ele>1702</ele>
        <time>2021-09-20T12:18:07Z</time>
      </trkpt>
      <trkpt lat="44.70352" lon="5.99087">
        <ele>1702</ele>
        <time>2021-09-20T12:18:08Z</time>
      </trkpt>
      <trkpt lat="44.70353" lon="5.99087">
        <ele>1702</ele>
        <time>2021-09-20T12:18:09Z</time>
      </trkpt>
      <trkpt lat="44.70354" lon="5.99088">
        <ele>1702</ele>
        <time>2021-09-20T12:18:10Z</time>
      </trkpt>
      <trkpt lat="44.70355" lon="5.99088">
        <ele>1702</ele>
        <time>2021-09-20T12:18:11Z</time>
      </trkpt>
      <trkpt lat="44.70356" lon="5.99088">
        <ele>1703</ele>
        <time>2021-09-20T12:18:12Z</time>
      </trkpt>
      <trkpt lat="44.70357" lon="5.99088">
        <ele>1703</ele>
        <time>2021-09-20T12:18:13Z</time>
      </trkpt>
      <trkpt lat="44.70358" lon="5.99088">
        <ele>1703</ele>
        <time>2021-09-20T12:18:14Z</time>
      </trkpt>
      <trkpt lat="44.70359" lon="5.99088">
        <ele>1703</ele>
        <time>2021-09-20T12:18:15Z</time>
      </trkpt>
      <trkpt lat="44.7036" lon="5.99089">
        <ele>1703</ele>
        <time>2021-09-20T12:18:16Z</time>
      </trkpt>
      <trkpt lat="44.70361" lon="5.99089">
        <ele>1704</ele>
        <time>2021-09-20T12:18:17Z</time>
      </trkpt>
      <trkpt lat="44.70362" lon="5.99089">
        <ele>1704</ele>
        <time>2021-09-20T12:18:18Z</time>
      </trkpt>
      <trkpt lat="44.70362" lon="5.99089">
        <ele>1704</ele>
        <time>2021-09-20T12:18:19Z</time>
      </trkpt>
      <trkpt lat="44.70363" lon="5.99089">
        <ele>1704</ele>
        <time>2021-09-20T12:18:20Z</time>
      </trkpt>
      <trkpt lat="44.70364" lon="5.99089">
        <ele>1704</ele>
        <time>2021-09-20T12:18:21Z</time>
      </trkpt>
      <trkpt lat="44.70365" lon="5.99089">
        <ele>1704</ele>
        <time>2021-09-20T12:18:22Z</time>
      </trkpt>
      <trkpt lat="44.70366" lon="5.9909">
        <ele>1704</ele>
        <time>2021-09-20T12:18:23Z</time>
      </trkpt>
      <trkpt lat="44.70367" lon="5.9909">
        <ele>1704</ele>
        <time>2021-09-20T12:18:24Z</time>
      </trkpt>
      <trkpt lat="44.70368" lon="5.9909">
        <ele>1704</ele>
        <time>2021-09-20T12:18:25Z</time>
      </trkpt>
      <trkpt lat="44.70369" lon="5.9909">
        <ele>1704</ele>
        <time>2021-09-20T12:18:26Z</time>
      </trkpt>
      <trkpt lat="44.7037" lon="5.99091">
        <ele>1704</ele>
        <time>2021-09-20T12:18:27Z</time>
      </trkpt>
      <trkpt lat="44.70371" lon="5.99091">
        <ele>1704</ele>
        <time>2021-09-20T12:18:28Z</time>
      </trkpt>
      <trkpt lat="44.70372" lon="5.99091">
        <ele>1704</ele>
        <time>2021-09-20T12:18:29Z</time>
      </trkpt>
      <trkpt lat="44.70373" lon="5.99091">
        <ele>1704</ele>
        <time>2021-09-20T12:18:30Z</time>
      </trkpt>
      <trkpt lat="44.70374" lon="5.99091">
        <ele>1704</ele>
        <time>2021-09-20T12:18:31Z</time>
      </trkpt>
      <trkpt lat="44.70375" lon="5.99092">
        <ele>1705</ele>
        <time>2021-09-20T12:18:32Z</time>
      </trkpt>
      <trkpt lat="44.70376" lon="5.99092">
        <ele>1705</ele>
        <time>2021-09-20T12:18:33Z</time>
      </trkpt>
      <trkpt lat="44.70377" lon="5.99092">
        <ele>1705</ele>
        <time>2021-09-20T12:18:34Z</time>
      </trkpt>
      <trkpt lat="44.70378" lon="5.99093">
        <ele>1705</ele>
        <time>2021-09-20T12:18:35Z</time>
      </trkpt>
      <trkpt lat="44.70379" lon="5.99093">
        <ele>1705</ele>
        <time>2021-09-20T12:18:36Z</time>
      </trkpt>
      <trkpt lat="44.70379" lon="5.99093">
        <ele>1705</ele>
        <time>2021-09-20T12:18:37Z</time>
      </trkpt>
      <trkpt lat="44.7038" lon="5.99094">
        <ele>1705</ele>
        <time>2021-09-20T12:18:38Z</time>
      </trkpt>
      <trkpt lat="44.70381" lon="5.99094">
        <ele>1705</ele>
        <time>2021-09-20T12:18:39Z</time>
      </trkpt>
      <trkpt lat="44.70382" lon="5.99094">
        <ele>1705</ele>
        <time>2021-09-20T12:18:40Z</time>
      </trkpt>
      <trkpt lat="44.70383" lon="5.99094">
        <ele>1705</ele>
        <time>2021-09-20T12:18:41Z</time>
      </trkpt>
      <trkpt lat="44.70383" lon="5.99094">
        <ele>1705</ele>
        <time>2021-09-20T12:18:42Z</time>
      </trkpt>
      <trkpt lat="44.70384" lon="5.99094">
        <ele>1705</ele>
        <time>2021-09-20T12:18:43Z</time>
      </trkpt>
      <trkpt lat="44.70385" lon="5.99094">
        <ele>1705</ele>
        <time>2021-09-20T12:18:44Z</time>
      </trkpt>
      <trkpt lat="44.70385" lon="5.99095">
        <ele>1705</ele>
        <time>2021-09-20T12:18:45Z</time>
      </trkpt>
      <trkpt lat="44.70386" lon="5.99095">
        <ele>1705</ele>
        <time>2021-09-20T12:18:46Z</time>
      </trkpt>
      <trkpt lat="44.70386" lon="5.99095">
        <ele>1706</ele>
        <time>2021-09-20T12:18:47Z</time>
      </trkpt>
      <trkpt lat="44.70387" lon="5.99095">
        <ele>1706</ele>
        <time>2021-09-20T12:18:48Z</time>
      </trkpt>
      <trkpt lat="44.70387" lon="5.99095">
        <ele>1706</ele>
        <time>2021-09-20T12:18:49Z</time>
      </trkpt>
      <trkpt lat="44.70388" lon="5.99096">
        <ele>1706</ele>
        <time>2021-09-20T12:18:50Z</time>
      </trkpt>
      <trkpt lat="44.70389" lon="5.99096">
        <ele>1707</ele>
        <time>2021-09-20T12:19:41Z</time>
      </trkpt>
      <trkpt lat="44.70389" lon="5.99097">
        <ele>1707</ele>
        <time>2021-09-20T12:19:42Z</time>
      </trkpt>
      <trkpt lat="44.7039" lon="5.99097">
        <ele>1707</ele>
        <time>2021-09-20T12:19:43Z</time>
      </trkpt>
      <trkpt lat="44.7039" lon="5.99097">
        <ele>1707</ele>
        <time>2021-09-20T12:19:44Z</time>
      </trkpt>
      <trkpt lat="44.70391" lon="5.99097">
        <ele>1707</ele>
        <time>2021-09-20T12:19:45Z</time>
      </trkpt>
      <trkpt lat="44.70392" lon="5.99097">
        <ele>1706</ele>
        <time>2021-09-20T12:19:57Z</time>
      </trkpt>
      <trkpt lat="44.70392" lon="5.99097">
        <ele>1706</ele>
        <time>2021-09-20T12:19:58Z</time>
      </trkpt>
      <trkpt lat="44.70392" lon="5.99097">
        <ele>1706</ele>
        <time>2021-09-20T12:19:59Z</time>
      </trkpt>
      <trkpt lat="44.70392" lon="5.99098">
        <ele>1706</ele>
        <time>2021-09-20T12:20:00Z</time>
      </trkpt>
      <trkpt lat="44.70391" lon="5.99098">
        <ele>1706</ele>
        <time>2021-09-20T12:20:01Z</time>
      </trkpt>
      <trkpt lat="44.70391" lon="5.99098">
        <ele>1706</ele>
        <time>2021-09-20T12:20:02Z</time>
      </trkpt>
      <trkpt lat="44.70391" lon="5.99098">
        <ele>1706</ele>
        <time>2021-09-20T12:20:03Z</time>
      </trkpt>
      <trkpt lat="44.70389" lon="5.99097">
        <ele>1707</ele>
        <time>2021-09-20T12:20:37Z</time>
      </trkpt>
      <trkpt lat="44.70389" lon="5.99097">
        <ele>1707</ele>
        <time>2021-09-20T12:20:38Z</time>
      </trkpt>
      <trkpt lat="44.70388" lon="5.99097">
        <ele>1707</ele>
        <time>2021-09-20T12:20:39Z</time>
      </trkpt>
      <trkpt lat="44.70388" lon="5.99096">
        <ele>1707</ele>
        <time>2021-09-20T12:20:40Z</time>
      </trkpt>
      <trkpt lat="44.70388" lon="5.99096">
        <ele>1707</ele>
        <time>2021-09-20T12:20:41Z</time>
      </trkpt>
      <trkpt lat="44.70388" lon="5.99096">
        <ele>1707</ele>
        <time>2021-09-20T12:20:42Z</time>
      </trkpt>
      <trkpt lat="44.70389" lon="5.99095">
        <ele>1706</ele>
        <time>2021-09-20T12:20:43Z</time>
      </trkpt>
      <trkpt lat="44.70389" lon="5.99095">
        <ele>1706</ele>
        <time>2021-09-20T12:20:44Z</time>
      </trkpt>
      <trkpt lat="44.70389" lon="5.99094">
        <ele>1706</ele>
        <time>2021-09-20T12:20:45Z</time>
      </trkpt>
      <trkpt lat="44.7039" lon="5.99094">
        <ele>1706</ele>
        <time>2021-09-20T12:20:46Z</time>
      </trkpt>
      <trkpt lat="44.70391" lon="5.99094">
        <ele>1706</ele>
        <time>2021-09-20T12:20:47Z</time>
      </trkpt>
      <trkpt lat="44.70392" lon="5.99096">
        <ele>1705</ele>
        <time>2021-09-20T12:21:29Z</time>
      </trkpt>
      <trkpt lat="44.70393" lon="5.99097">
        <ele>1705</ele>
        <time>2021-09-20T12:21:30Z</time>
      </trkpt>
      <trkpt lat="44.70393" lon="5.99098">
        <ele>1705</ele>
        <time>2021-09-20T12:21:31Z</time>
      </trkpt>
      <trkpt lat="44.70394" lon="5.99098">
        <ele>1705</ele>
        <time>2021-09-20T12:21:32Z</time>
      </trkpt>
      <trkpt lat="44.70395" lon="5.99099">
        <ele>1705</ele>
        <time>2021-09-20T12:21:33Z</time>
      </trkpt>
      <trkpt lat="44.70396" lon="5.991">
        <ele>1705</ele>
        <time>2021-09-20T12:21:34Z</time>
      </trkpt>
      <trkpt lat="44.70396" lon="5.991">
        <ele>1705</ele>
        <time>2021-09-20T12:21:35Z</time>
      </trkpt>
      <trkpt lat="44.70397" lon="5.991">
        <ele>1705</ele>
        <time>2021-09-20T12:21:36Z</time>
      </trkpt>
      <trkpt lat="44.70398" lon="5.99101">
        <ele>1705</ele>
        <time>2021-09-20T12:21:37Z</time>
      </trkpt>
      <trkpt lat="44.70399" lon="5.99101">
        <ele>1704</ele>
        <time>2021-09-20T12:21:38Z</time>
      </trkpt>
      <trkpt lat="44.704" lon="5.99101">
        <ele>1704</ele>
        <time>2021-09-20T12:21:39Z</time>
      </trkpt>
      <trkpt lat="44.70401" lon="5.99101">
        <ele>1704</ele>
        <time>2021-09-20T12:21:40Z</time>
      </trkpt>
      <trkpt lat="44.70402" lon="5.99101">
        <ele>1704</ele>
        <time>2021-09-20T12:21:41Z</time>
      </trkpt>
      <trkpt lat="44.70403" lon="5.99101">
        <ele>1704</ele>
        <time>2021-09-20T12:21:42Z</time>
      </trkpt>
      <trkpt lat="44.70404" lon="5.991">
        <ele>1703</ele>
        <time>2021-09-20T12:21:43Z</time>
      </trkpt>
      <trkpt lat="44.70405" lon="5.991">
        <ele>1703</ele>
        <time>2021-09-20T12:21:44Z</time>
      </trkpt>
      <trkpt lat="44.70405" lon="5.99099">
        <ele>1703</ele>
        <time>2021-09-20T12:21:45Z</time>
      </trkpt>
      <trkpt lat="44.70406" lon="5.99099">
        <ele>1703</ele>
        <time>2021-09-20T12:21:46Z</time>
      </trkpt>
      <trkpt lat="44.70407" lon="5.99099">
        <ele>1703</ele>
        <time>2021-09-20T12:21:47Z</time>
      </trkpt>
      <trkpt lat="44.70408" lon="5.99099">
        <ele>1702</ele>
        <time>2021-09-20T12:21:48Z</time>
      </trkpt>
      <trkpt lat="44.70409" lon="5.99099">
        <ele>1702</ele>
        <time>2021-09-20T12:21:49Z</time>
      </trkpt>
      <trkpt lat="44.7041" lon="5.99098">
        <ele>1702</ele>
        <time>2021-09-20T12:21:50Z</time>
      </trkpt>
      <trkpt lat="44.70411" lon="5.99098">
        <ele>1702</ele>
        <time>2021-09-20T12:21:51Z</time>
      </trkpt>
      <trkpt lat="44.70412" lon="5.99098">
        <ele>1702</ele>
        <time>2021-09-20T12:21:52Z</time>
      </trkpt>
      <trkpt lat="44.70413" lon="5.99098">
        <ele>1701</ele>
        <time>2021-09-20T12:21:53Z</time>
      </trkpt>
      <trkpt lat="44.70414" lon="5.99098">
        <ele>1701</ele>
        <time>2021-09-20T12:22:02Z</time>
      </trkpt>
      <trkpt lat="44.70414" lon="5.99098">
        <ele>1701</ele>
        <time>2021-09-20T12:22:03Z</time>
      </trkpt>
      <trkpt lat="44.70415" lon="5.99098">
        <ele>1701</ele>
        <time>2021-09-20T12:22:04Z</time>
      </trkpt>
      <trkpt lat="44.70415" lon="5.99098">
        <ele>1701</ele>
        <time>2021-09-20T12:22:05Z</time>
      </trkpt>
      <trkpt lat="44.70416" lon="5.99098">
        <ele>1701</ele>
        <time>2021-09-20T12:22:06Z</time>
      </trkpt>
      <trkpt lat="44.70417" lon="5.99098">
        <ele>1701</ele>
        <time>2021-09-20T12:22:07Z</time>
      </trkpt>
      <trkpt lat="44.70417" lon="5.99098">
        <ele>1700</ele>
        <time>2021-09-20T12:22:08Z</time>
      </trkpt>
      <trkpt lat="44.70418" lon="5.99098">
        <ele>1700</ele>
        <time>2021-09-20T12:22:09Z</time>
      </trkpt>
      <trkpt lat="44.70419" lon="5.99098">
        <ele>1700</ele>
        <time>2021-09-20T12:22:10Z</time>
      </trkpt>
      <trkpt lat="44.7042" lon="5.99098">
        <ele>1700</ele>
        <time>2021-09-20T12:22:11Z</time>
      </trkpt>
      <trkpt lat="44.70421" lon="5.99098">
        <ele>1700</ele>
        <time>2021-09-20T12:22:12Z</time>
      </trkpt>
      <trkpt lat="44.70422" lon="5.99097">
        <ele>1700</ele>
        <time>2021-09-20T12:22:13Z</time>
      </trkpt>
      <trkpt lat="44.70423" lon="5.99097">
        <ele>1700</ele>
        <time>2021-09-20T12:22:14Z</time>
      </trkpt>
      <trkpt lat="44.70424" lon="5.99097">
        <ele>1700</ele>
        <time>2021-09-20T12:22:15Z</time>
      </trkpt>
      <trkpt lat="44.70425" lon="5.99097">
        <ele>1700</ele>
        <time>2021-09-20T12:22:16Z</time>
      </trkpt>
      <trkpt lat="44.70425" lon="5.99098">
        <ele>1700</ele>
        <time>2021-09-20T12:22:17Z</time>
      </trkpt>
      <trkpt lat="44.70426" lon="5.99098">
        <ele>1699</ele>
        <time>2021-09-20T12:22:18Z</time>
      </trkpt>
      <trkpt lat="44.70426" lon="5.99099">
        <ele>1699</ele>
        <time>2021-09-20T12:22:19Z</time>
      </trkpt>
      <trkpt lat="44.70426" lon="5.991">
        <ele>1699</ele>
        <time>2021-09-20T12:22:20Z</time>
      </trkpt>
      <trkpt lat="44.70425" lon="5.99101">
        <ele>1699</ele>
        <time>2021-09-20T12:22:21Z</time>
      </trkpt>
      <trkpt lat="44.70425" lon="5.99102">
        <ele>1699</ele>
        <time>2021-09-20T12:22:22Z</time>
      </trkpt>
      <trkpt lat="44.70424" lon="5.99105">
        <ele>1697</ele>
        <time>2021-09-20T12:22:29Z</time>
      </trkpt>
      <trkpt lat="44.70424" lon="5.99106">
        <ele>1697</ele>
        <time>2021-09-20T12:22:30Z</time>
      </trkpt>
      <trkpt lat="44.70423" lon="5.99107">
        <ele>1697</ele>
        <time>2021-09-20T12:22:31Z</time>
      </trkpt>
      <trkpt lat="44.70423" lon="5.99108">
        <ele>1697</ele>
        <time>2021-09-20T12:22:32Z</time>
      </trkpt>
      <trkpt lat="44.70422" lon="5.99109">
        <ele>1696</ele>
        <time>2021-09-20T12:22:33Z</time>
      </trkpt>
      <trkpt lat="44.70422" lon="5.9911">
        <ele>1696</ele>
        <time>2021-09-20T12:22:34Z</time>
      </trkpt>
      <trkpt lat="44.70422" lon="5.99112">
        <ele>1696</ele>
        <time>2021-09-20T12:22:35Z</time>
      </trkpt>
      <trkpt lat="44.70422" lon="5.99113">
        <ele>1696</ele>
        <time>2021-09-20T12:22:36Z</time>
      </trkpt>
      <trkpt lat="44.70422" lon="5.99114">
        <ele>1696</ele>
        <time>2021-09-20T12:22:37Z</time>
      </trkpt>
      <trkpt lat="44.70423" lon="5.99115">
        <ele>1696</ele>
        <time>2021-09-20T12:22:38Z</time>
      </trkpt>
      <trkpt lat="44.70423" lon="5.99116">
        <ele>1696</ele>
        <time>2021-09-20T12:22:39Z</time>
      </trkpt>
      <trkpt lat="44.70424" lon="5.99117">
        <ele>1696</ele>
        <time>2021-09-20T12:22:40Z</time>
      </trkpt>
      <trkpt lat="44.70424" lon="5.99118">
        <ele>1696</ele>
        <time>2021-09-20T12:22:41Z</time>
      </trkpt>
      <trkpt lat="44.70425" lon="5.99119">
        <ele>1696</ele>
        <time>2021-09-20T12:22:42Z</time>
      </trkpt>
      <trkpt lat="44.70425" lon="5.99119">
        <ele>1695</ele>
        <time>2021-09-20T12:22:43Z</time>
      </trkpt>
      <trkpt lat="44.70426" lon="5.99119">
        <ele>1695</ele>
        <time>2021-09-20T12:22:44Z</time>
      </trkpt>
      <trkpt lat="44.70426" lon="5.99118">
        <ele>1695</ele>
        <time>2021-09-20T12:22:45Z</time>
      </trkpt>
      <trkpt lat="44.70427" lon="5.99118">
        <ele>1695</ele>
        <time>2021-09-20T12:22:46Z</time>
      </trkpt>
      <trkpt lat="44.70427" lon="5.99117">
        <ele>1695</ele>
        <time>2021-09-20T12:22:47Z</time>
      </trkpt>
      <trkpt lat="44.70428" lon="5.99116">
        <ele>1694</ele>
        <time>2021-09-20T12:22:48Z</time>
      </trkpt>
      <trkpt lat="44.70428" lon="5.99115">
        <ele>1694</ele>
        <time>2021-09-20T12:22:49Z</time>
      </trkpt>
      <trkpt lat="44.70429" lon="5.99114">
        <ele>1693</ele>
        <time>2021-09-20T12:22:50Z</time>
      </trkpt>
      <trkpt lat="44.7043" lon="5.99113">
        <ele>1693</ele>
        <time>2021-09-20T12:22:51Z</time>
      </trkpt>
      <trkpt lat="44.7043" lon="5.99113">
        <ele>1693</ele>
        <time>2021-09-20T12:22:52Z</time>
      </trkpt>
      <trkpt lat="44.70431" lon="5.99112">
        <ele>1692</ele>
        <time>2021-09-20T12:22:53Z</time>
      </trkpt>
      <trkpt lat="44.70432" lon="5.99111">
        <ele>1692</ele>
        <time>2021-09-20T12:22:54Z</time>
      </trkpt>
      <trkpt lat="44.70432" lon="5.99111">
        <ele>1692</ele>
        <time>2021-09-20T12:22:55Z</time>
      </trkpt>
      <trkpt lat="44.70433" lon="5.9911">
        <ele>1692</ele>
        <time>2021-09-20T12:22:56Z</time>
      </trkpt>
      <trkpt lat="44.70434" lon="5.99109">
        <ele>1692</ele>
        <time>2021-09-20T12:22:57Z</time>
      </trkpt>
      <trkpt lat="44.70435" lon="5.99109">
        <ele>1691</ele>
        <time>2021-09-20T12:22:58Z</time>
      </trkpt>
      <trkpt lat="44.70435" lon="5.99108">
        <ele>1691</ele>
        <time>2021-09-20T12:22:59Z</time>
      </trkpt>
      <trkpt lat="44.70436" lon="5.99107">
        <ele>1691</ele>
        <time>2021-09-20T12:23:00Z</time>
      </trkpt>
      <trkpt lat="44.70437" lon="5.99107">
        <ele>1691</ele>
        <time>2021-09-20T12:23:01Z</time>
      </trkpt>
      <trkpt lat="44.70438" lon="5.99106">
        <ele>1691</ele>
        <time>2021-09-20T12:23:02Z</time>
      </trkpt>
      <trkpt lat="44.70439" lon="5.99106">
        <ele>1690</ele>
        <time>2021-09-20T12:23:03Z</time>
      </trkpt>
      <trkpt lat="44.7044" lon="5.99105">
        <ele>1690</ele>
        <time>2021-09-20T12:23:04Z</time>
      </trkpt>
      <trkpt lat="44.70441" lon="5.99105">
        <ele>1690</ele>
        <time>2021-09-20T12:23:05Z</time>
      </trkpt>
      <trkpt lat="44.70442" lon="5.99105">
        <ele>1690</ele>
        <time>2021-09-20T12:23:06Z</time>
      </trkpt>
      <trkpt lat="44.70443" lon="5.99104">
        <ele>1690</ele>
        <time>2021-09-20T12:23:07Z</time>
      </trkpt>
      <trkpt lat="44.70444" lon="5.99104">
        <ele>1689</ele>
        <time>2021-09-20T12:23:08Z</time>
      </trkpt>
      <trkpt lat="44.70445" lon="5.99103">
        <ele>1689</ele>
        <time>2021-09-20T12:23:09Z</time>
      </trkpt>
      <trkpt lat="44.70446" lon="5.99103">
        <ele>1689</ele>
        <time>2021-09-20T12:23:10Z</time>
      </trkpt>
      <trkpt lat="44.70447" lon="5.99103">
        <ele>1689</ele>
        <time>2021-09-20T12:23:11Z</time>
      </trkpt>
      <trkpt lat="44.70448" lon="5.99103">
        <ele>1689</ele>
        <time>2021-09-20T12:23:12Z</time>
      </trkpt>
      <trkpt lat="44.70448" lon="5.99103">
        <ele>1688</ele>
        <time>2021-09-20T12:23:13Z</time>
      </trkpt>
      <trkpt lat="44.70449" lon="5.99103">
        <ele>1688</ele>
        <time>2021-09-20T12:23:14Z</time>
      </trkpt>
      <trkpt lat="44.7045" lon="5.99103">
        <ele>1688</ele>
        <time>2021-09-20T12:23:15Z</time>
      </trkpt>
      <trkpt lat="44.70451" lon="5.99104">
        <ele>1688</ele>
        <time>2021-09-20T12:23:16Z</time>
      </trkpt>
      <trkpt lat="44.70452" lon="5.99104">
        <ele>1688</ele>
        <time>2021-09-20T12:23:17Z</time>
      </trkpt>
      <trkpt lat="44.70453" lon="5.99104">
        <ele>1687</ele>
        <time>2021-09-20T12:23:18Z</time>
      </trkpt>
      <trkpt lat="44.70454" lon="5.99104">
        <ele>1687</ele>
        <time>2021-09-20T12:23:19Z</time>
      </trkpt>
      <trkpt lat="44.70455" lon="5.99105">
        <ele>1687</ele>
        <time>2021-09-20T12:23:20Z</time>
      </trkpt>
      <trkpt lat="44.70456" lon="5.99105">
        <ele>1687</ele>
        <time>2021-09-20T12:23:21Z</time>
      </trkpt>
      <trkpt lat="44.70457" lon="5.99106">
        <ele>1687</ele>
        <time>2021-09-20T12:23:22Z</time>
      </trkpt>
      <trkpt lat="44.70458" lon="5.99106">
        <ele>1686</ele>
        <time>2021-09-20T12:23:23Z</time>
      </trkpt>
      <trkpt lat="44.70459" lon="5.99107">
        <ele>1686</ele>
        <time>2021-09-20T12:23:24Z</time>
      </trkpt>
      <trkpt lat="44.7046" lon="5.99107">
        <ele>1686</ele>
        <time>2021-09-20T12:23:25Z</time>
      </trkpt>
      <trkpt lat="44.70461" lon="5.99107">
        <ele>1686</ele>
        <time>2021-09-20T12:23:26Z</time>
      </trkpt>
      <trkpt lat="44.70462" lon="5.99108">
        <ele>1686</ele>
        <time>2021-09-20T12:23:27Z</time>
      </trkpt>
      <trkpt lat="44.70462" lon="5.99108">
        <ele>1685</ele>
        <time>2021-09-20T12:23:28Z</time>
      </trkpt>
      <trkpt lat="44.70463" lon="5.99108">
        <ele>1685</ele>
        <time>2021-09-20T12:23:29Z</time>
      </trkpt>
      <trkpt lat="44.70464" lon="5.99109">
        <ele>1685</ele>
        <time>2021-09-20T12:23:30Z</time>
      </trkpt>
      <trkpt lat="44.70465" lon="5.99109">
        <ele>1685</ele>
        <time>2021-09-20T12:23:31Z</time>
      </trkpt>
      <trkpt lat="44.70466" lon="5.99109">
        <ele>1685</ele>
        <time>2021-09-20T12:23:32Z</time>
      </trkpt>
      <trkpt lat="44.70467" lon="5.99109">
        <ele>1684</ele>
        <time>2021-09-20T12:23:33Z</time>
      </trkpt>
      <trkpt lat="44.70468" lon="5.99109">
        <ele>1684</ele>
        <time>2021-09-20T12:23:34Z</time>
      </trkpt>
      <trkpt lat="44.70468" lon="5.9911">
        <ele>1684</ele>
        <time>2021-09-20T12:23:35Z</time>
      </trkpt>
      <trkpt lat="44.70469" lon="5.9911">
        <ele>1684</ele>
        <time>2021-09-20T12:23:36Z</time>
      </trkpt>
      <trkpt lat="44.7047" lon="5.9911">
        <ele>1684</ele>
        <time>2021-09-20T12:23:37Z</time>
      </trkpt>
      <trkpt lat="44.70471" lon="5.9911">
        <ele>1683</ele>
        <time>2021-09-20T12:23:38Z</time>
      </trkpt>
      <trkpt lat="44.70471" lon="5.9911">
        <ele>1683</ele>
        <time>2021-09-20T12:23:39Z</time>
      </trkpt>
      <trkpt lat="44.70472" lon="5.9911">
        <ele>1683</ele>
        <time>2021-09-20T12:23:40Z</time>
      </trkpt>
      <trkpt lat="44.70473" lon="5.9911">
        <ele>1683</ele>
        <time>2021-09-20T12:23:41Z</time>
      </trkpt>
      <trkpt lat="44.70474" lon="5.9911">
        <ele>1683</ele>
        <time>2021-09-20T12:23:42Z</time>
      </trkpt>
      <trkpt lat="44.70475" lon="5.99111">
        <ele>1683</ele>
        <time>2021-09-20T12:23:43Z</time>
      </trkpt>
      <trkpt lat="44.70476" lon="5.99111">
        <ele>1683</ele>
        <time>2021-09-20T12:23:44Z</time>
      </trkpt>
      <trkpt lat="44.70477" lon="5.99111">
        <ele>1683</ele>
        <time>2021-09-20T12:23:45Z</time>
      </trkpt>
      <trkpt lat="44.70478" lon="5.99111">
        <ele>1683</ele>
        <time>2021-09-20T12:23:46Z</time>
      </trkpt>
      <trkpt lat="44.70479" lon="5.99112">
        <ele>1683</ele>
        <time>2021-09-20T12:23:47Z</time>
      </trkpt>
      <trkpt lat="44.7048" lon="5.99112">
        <ele>1682</ele>
        <time>2021-09-20T12:23:48Z</time>
      </trkpt>
      <trkpt lat="44.70481" lon="5.99112">
        <ele>1682</ele>
        <time>2021-09-20T12:23:49Z</time>
      </trkpt>
      <trkpt lat="44.70482" lon="5.99112">
        <ele>1682</ele>
        <time>2021-09-20T12:23:50Z</time>
      </trkpt>
      <trkpt lat="44.70483" lon="5.99112">
        <ele>1682</ele>
        <time>2021-09-20T12:23:51Z</time>
      </trkpt>
      <trkpt lat="44.70484" lon="5.99112">
        <ele>1682</ele>
        <time>2021-09-20T12:23:52Z</time>
      </trkpt>
      <trkpt lat="44.70485" lon="5.99112">
        <ele>1681</ele>
        <time>2021-09-20T12:23:53Z</time>
      </trkpt>
      <trkpt lat="44.70486" lon="5.99112">
        <ele>1681</ele>
        <time>2021-09-20T12:23:54Z</time>
      </trkpt>
      <trkpt lat="44.70487" lon="5.99113">
        <ele>1681</ele>
        <time>2021-09-20T12:23:55Z</time>
      </trkpt>
      <trkpt lat="44.70488" lon="5.99112">
        <ele>1681</ele>
        <time>2021-09-20T12:23:56Z</time>
      </trkpt>
      <trkpt lat="44.70489" lon="5.99112">
        <ele>1681</ele>
        <time>2021-09-20T12:23:57Z</time>
      </trkpt>
      <trkpt lat="44.7049" lon="5.99112">
        <ele>1680</ele>
        <time>2021-09-20T12:23:58Z</time>
      </trkpt>
      <trkpt lat="44.70491" lon="5.99112">
        <ele>1680</ele>
        <time>2021-09-20T12:23:59Z</time>
      </trkpt>
      <trkpt lat="44.70492" lon="5.99112">
        <ele>1680</ele>
        <time>2021-09-20T12:24:00Z</time>
      </trkpt>
      <trkpt lat="44.70493" lon="5.99112">
        <ele>1680</ele>
        <time>2021-09-20T12:24:01Z</time>
      </trkpt>
      <trkpt lat="44.70494" lon="5.99112">
        <ele>1680</ele>
        <time>2021-09-20T12:24:02Z</time>
      </trkpt>
      <trkpt lat="44.70495" lon="5.99111">
        <ele>1679</ele>
        <time>2021-09-20T12:24:03Z</time>
      </trkpt>
      <trkpt lat="44.70496" lon="5.99111">
        <ele>1679</ele>
        <time>2021-09-20T12:24:04Z</time>
      </trkpt>
      <trkpt lat="44.70497" lon="5.99111">
        <ele>1679</ele>
        <time>2021-09-20T12:24:05Z</time>
      </trkpt>
      <trkpt lat="44.70498" lon="5.99111">
        <ele>1679</ele>
        <time>2021-09-20T12:24:06Z</time>
      </trkpt>
      <trkpt lat="44.70499" lon="5.99111">
        <ele>1679</ele>
        <time>2021-09-20T12:24:07Z</time>
      </trkpt>
      <trkpt lat="44.70499" lon="5.99111">
        <ele>1679</ele>
        <time>2021-09-20T12:24:08Z</time>
      </trkpt>
      <trkpt lat="44.70499" lon="5.99111">
        <ele>1679</ele>
        <time>2021-09-20T12:24:09Z</time>
      </trkpt>
      <trkpt lat="44.705" lon="5.99111">
        <ele>1679</ele>
        <time>2021-09-20T12:24:10Z</time>
      </trkpt>
      <trkpt lat="44.705" lon="5.99111">
        <ele>1679</ele>
        <time>2021-09-20T12:24:11Z</time>
      </trkpt>
      <trkpt lat="44.70501" lon="5.99111">
        <ele>1679</ele>
        <time>2021-09-20T12:24:12Z</time>
      </trkpt>
      <trkpt lat="44.70501" lon="5.99111">
        <ele>1678</ele>
        <time>2021-09-20T12:24:13Z</time>
      </trkpt>
      <trkpt lat="44.70502" lon="5.9911">
        <ele>1678</ele>
        <time>2021-09-20T12:24:14Z</time>
      </trkpt>
      <trkpt lat="44.70503" lon="5.9911">
        <ele>1678</ele>
        <time>2021-09-20T12:24:15Z</time>
      </trkpt>
      <trkpt lat="44.70503" lon="5.9911">
        <ele>1678</ele>
        <time>2021-09-20T12:24:16Z</time>
      </trkpt>
      <trkpt lat="44.70504" lon="5.99109">
        <ele>1678</ele>
        <time>2021-09-20T12:24:17Z</time>
      </trkpt>
      <trkpt lat="44.70505" lon="5.99109">
        <ele>1678</ele>
        <time>2021-09-20T12:24:18Z</time>
      </trkpt>
      <trkpt lat="44.70506" lon="5.99109">
        <ele>1678</ele>
        <time>2021-09-20T12:24:19Z</time>
      </trkpt>
      <trkpt lat="44.70507" lon="5.99108">
        <ele>1678</ele>
        <time>2021-09-20T12:24:20Z</time>
      </trkpt>
      <trkpt lat="44.70508" lon="5.99108">
        <ele>1678</ele>
        <time>2021-09-20T12:24:21Z</time>
      </trkpt>
      <trkpt lat="44.70509" lon="5.99108">
        <ele>1678</ele>
        <time>2021-09-20T12:24:22Z</time>
      </trkpt>
      <trkpt lat="44.7051" lon="5.99107">
        <ele>1677</ele>
        <time>2021-09-20T12:24:23Z</time>
      </trkpt>
      <trkpt lat="44.70511" lon="5.99107">
        <ele>1677</ele>
        <time>2021-09-20T12:24:24Z</time>
      </trkpt>
      <trkpt lat="44.70511" lon="5.99106">
        <ele>1677</ele>
        <time>2021-09-20T12:24:25Z</time>
      </trkpt>
      <trkpt lat="44.70512" lon="5.99106">
        <ele>1677</ele>
        <time>2021-09-20T12:24:26Z</time>
      </trkpt>
      <trkpt lat="44.70513" lon="5.99106">
        <ele>1677</ele>
        <time>2021-09-20T12:24:27Z</time>
      </trkpt>
      <trkpt lat="44.70513" lon="5.99105">
        <ele>1676</ele>
        <time>2021-09-20T12:24:28Z</time>
      </trkpt>
      <trkpt lat="44.70514" lon="5.99105">
        <ele>1676</ele>
        <time>2021-09-20T12:24:29Z</time>
      </trkpt>
      <trkpt lat="44.70515" lon="5.99104">
        <ele>1676</ele>
        <time>2021-09-20T12:24:30Z</time>
      </trkpt>
      <trkpt lat="44.70516" lon="5.99104">
        <ele>1676</ele>
        <time>2021-09-20T12:24:31Z</time>
      </trkpt>
      <trkpt lat="44.70516" lon="5.99104">
        <ele>1676</ele>
        <time>2021-09-20T12:24:32Z</time>
      </trkpt>
      <trkpt lat="44.70517" lon="5.99103">
        <ele>1675</ele>
        <time>2021-09-20T12:24:33Z</time>
      </trkpt>
      <trkpt lat="44.70518" lon="5.99103">
        <ele>1675</ele>
        <time>2021-09-20T12:24:34Z</time>
      </trkpt>
      <trkpt lat="44.70519" lon="5.99102">
        <ele>1674</ele>
        <time>2021-09-20T12:24:35Z</time>
      </trkpt>
      <trkpt lat="44.7052" lon="5.99102">
        <ele>1674</ele>
        <time>2021-09-20T12:24:36Z</time>
      </trkpt>
      <trkpt lat="44.70521" lon="5.99102">
        <ele>1674</ele>
        <time>2021-09-20T12:24:37Z</time>
      </trkpt>
      <trkpt lat="44.70522" lon="5.99101">
        <ele>1673</ele>
        <time>2021-09-20T12:24:38Z</time>
      </trkpt>
      <trkpt lat="44.70523" lon="5.991">
        <ele>1673</ele>
        <time>2021-09-20T12:24:39Z</time>
      </trkpt>
      <trkpt lat="44.70524" lon="5.991">
        <ele>1673</ele>
        <time>2021-09-20T12:24:40Z</time>
      </trkpt>
      <trkpt lat="44.70524" lon="5.99099">
        <ele>1673</ele>
        <time>2021-09-20T12:24:41Z</time>
      </trkpt>
      <trkpt lat="44.70525" lon="5.99098">
        <ele>1673</ele>
        <time>2021-09-20T12:24:42Z</time>
      </trkpt>
      <trkpt lat="44.70526" lon="5.99098">
        <ele>1672</ele>
        <time>2021-09-20T12:24:43Z</time>
      </trkpt>
      <trkpt lat="44.70527" lon="5.99097">
        <ele>1672</ele>
        <time>2021-09-20T12:24:44Z</time>
      </trkpt>
      <trkpt lat="44.70527" lon="5.99096">
        <ele>1672</ele>
        <time>2021-09-20T12:24:45Z</time>
      </trkpt>
      <trkpt lat="44.70528" lon="5.99095">
        <ele>1672</ele>
        <time>2021-09-20T12:24:46Z</time>
      </trkpt>
      <trkpt lat="44.70529" lon="5.99095">
        <ele>1672</ele>
        <time>2021-09-20T12:24:47Z</time>
      </trkpt>
      <trkpt lat="44.70529" lon="5.99095">
        <ele>1672</ele>
        <time>2021-09-20T12:24:48Z</time>
      </trkpt>
      <trkpt lat="44.7053" lon="5.99095">
        <ele>1672</ele>
        <time>2021-09-20T12:24:49Z</time>
      </trkpt>
      <trkpt lat="44.7053" lon="5.99096">
        <ele>1672</ele>
        <time>2021-09-20T12:24:50Z</time>
      </trkpt>
      <trkpt lat="44.7053" lon="5.99097">
        <ele>1672</ele>
        <time>2021-09-20T12:24:51Z</time>
      </trkpt>
      <trkpt lat="44.7053" lon="5.99098">
        <ele>1672</ele>
        <time>2021-09-20T12:24:52Z</time>
      </trkpt>
      <trkpt lat="44.70529" lon="5.991">
        <ele>1671</ele>
        <time>2021-09-20T12:24:53Z</time>
      </trkpt>
      <trkpt lat="44.70529" lon="5.99101">
        <ele>1671</ele>
        <time>2021-09-20T12:24:54Z</time>
      </trkpt>
      <trkpt lat="44.70528" lon="5.99102">
        <ele>1671</ele>
        <time>2021-09-20T12:24:55Z</time>
      </trkpt>
      <trkpt lat="44.70528" lon="5.99104">
        <ele>1671</ele>
        <time>2021-09-20T12:24:56Z</time>
      </trkpt>
      <trkpt lat="44.70527" lon="5.99105">
        <ele>1671</ele>
        <time>2021-09-20T12:24:57Z</time>
      </trkpt>
      <trkpt lat="44.70527" lon="5.99106">
        <ele>1670</ele>
        <time>2021-09-20T12:24:58Z</time>
      </trkpt>
      <trkpt lat="44.70527" lon="5.99107">
        <ele>1670</ele>
        <time>2021-09-20T12:24:59Z</time>
      </trkpt>
      <trkpt lat="44.70526" lon="5.99108">
        <ele>1670</ele>
        <time>2021-09-20T12:25:00Z</time>
      </trkpt>
      <trkpt lat="44.70526" lon="5.9911">
        <ele>1670</ele>
        <time>2021-09-20T12:25:01Z</time>
      </trkpt>
      <trkpt lat="44.70526" lon="5.99111">
        <ele>1670</ele>
        <time>2021-09-20T12:25:02Z</time>
      </trkpt>
      <trkpt lat="44.70525" lon="5.99112">
        <ele>1670</ele>
        <time>2021-09-20T12:25:03Z</time>
      </trkpt>
      <trkpt lat="44.70525" lon="5.99113">
        <ele>1670</ele>
        <time>2021-09-20T12:25:04Z</time>
      </trkpt>
      <trkpt lat="44.70525" lon="5.99114">
        <ele>1670</ele>
        <time>2021-09-20T12:25:05Z</time>
      </trkpt>
      <trkpt lat="44.70524" lon="5.99115">
        <ele>1670</ele>
        <time>2021-09-20T12:25:06Z</time>
      </trkpt>
      <trkpt lat="44.70524" lon="5.99115">
        <ele>1670</ele>
        <time>2021-09-20T12:25:07Z</time>
      </trkpt>
      <trkpt lat="44.70524" lon="5.99115">
        <ele>1669</ele>
        <time>2021-09-20T12:25:08Z</time>
      </trkpt>
      <trkpt lat="44.70524" lon="5.99115">
        <ele>1669</ele>
        <time>2021-09-20T12:25:09Z</time>
      </trkpt>
      <trkpt lat="44.70525" lon="5.99115">
        <ele>1669</ele>
        <time>2021-09-20T12:25:10Z</time>
      </trkpt>
      <trkpt lat="44.70525" lon="5.99115">
        <ele>1669</ele>
        <time>2021-09-20T12:25:11Z</time>
      </trkpt>
      <trkpt lat="44.70526" lon="5.99114">
        <ele>1669</ele>
        <time>2021-09-20T12:25:12Z</time>
      </trkpt>
      <trkpt lat="44.70527" lon="5.99114">
        <ele>1668</ele>
        <time>2021-09-20T12:25:13Z</time>
      </trkpt>
      <trkpt lat="44.70528" lon="5.99113">
        <ele>1668</ele>
        <time>2021-09-20T12:25:14Z</time>
      </trkpt>
      <trkpt lat="44.70529" lon="5.99113">
        <ele>1668</ele>
        <time>2021-09-20T12:25:15Z</time>
      </trkpt>
      <trkpt lat="44.7053" lon="5.99112">
        <ele>1668</ele>
        <time>2021-09-20T12:25:16Z</time>
      </trkpt>
      <trkpt lat="44.70531" lon="5.99112">
        <ele>1668</ele>
        <time>2021-09-20T12:25:17Z</time>
      </trkpt>
      <trkpt lat="44.70531" lon="5.99111">
        <ele>1667</ele>
        <time>2021-09-20T12:25:18Z</time>
      </trkpt>
      <trkpt lat="44.70532" lon="5.99111">
        <ele>1667</ele>
        <time>2021-09-20T12:25:19Z</time>
      </trkpt>
      <trkpt lat="44.70533" lon="5.9911">
        <ele>1667</ele>
        <time>2021-09-20T12:25:20Z</time>
      </trkpt>
      <trkpt lat="44.70534" lon="5.9911">
        <ele>1667</ele>
        <time>2021-09-20T12:25:21Z</time>
      </trkpt>
      <trkpt lat="44.70535" lon="5.9911">
        <ele>1667</ele>
        <time>2021-09-20T12:25:22Z</time>
      </trkpt>
      <trkpt lat="44.70536" lon="5.99109">
        <ele>1666</ele>
        <time>2021-09-20T12:25:23Z</time>
      </trkpt>
      <trkpt lat="44.70537" lon="5.99109">
        <ele>1666</ele>
        <time>2021-09-20T12:25:24Z</time>
      </trkpt>
      <trkpt lat="44.70538" lon="5.99108">
        <ele>1666</ele>
        <time>2021-09-20T12:25:25Z</time>
      </trkpt>
      <trkpt lat="44.70538" lon="5.99108">
        <ele>1666</ele>
        <time>2021-09-20T12:25:26Z</time>
      </trkpt>
      <trkpt lat="44.70539" lon="5.99107">
        <ele>1666</ele>
        <time>2021-09-20T12:25:27Z</time>
      </trkpt>
      <trkpt lat="44.7054" lon="5.99106">
        <ele>1665</ele>
        <time>2021-09-20T12:25:28Z</time>
      </trkpt>
      <trkpt lat="44.70541" lon="5.99106">
        <ele>1665</ele>
        <time>2021-09-20T12:25:29Z</time>
      </trkpt>
      <trkpt lat="44.70542" lon="5.99105">
        <ele>1665</ele>
        <time>2021-09-20T12:25:30Z</time>
      </trkpt>
      <trkpt lat="44.70543" lon="5.99105">
        <ele>1665</ele>
        <time>2021-09-20T12:25:31Z</time>
      </trkpt>
      <trkpt lat="44.70544" lon="5.99105">
        <ele>1665</ele>
        <time>2021-09-20T12:25:32Z</time>
      </trkpt>
      <trkpt lat="44.70545" lon="5.99104">
        <ele>1664</ele>
        <time>2021-09-20T12:25:33Z</time>
      </trkpt>
      <trkpt lat="44.70545" lon="5.99104">
        <ele>1664</ele>
        <time>2021-09-20T12:25:34Z</time>
      </trkpt>
      <trkpt lat="44.70546" lon="5.99104">
        <ele>1664</ele>
        <time>2021-09-20T12:25:35Z</time>
      </trkpt>
      <trkpt lat="44.70547" lon="5.99104">
        <ele>1664</ele>
        <time>2021-09-20T12:25:36Z</time>
      </trkpt>
      <trkpt lat="44.70548" lon="5.99103">
        <ele>1664</ele>
        <time>2021-09-20T12:25:37Z</time>
      </trkpt>
      <trkpt lat="44.70549" lon="5.99103">
        <ele>1663</ele>
        <time>2021-09-20T12:25:38Z</time>
      </trkpt>
      <trkpt lat="44.7055" lon="5.99102">
        <ele>1663</ele>
        <time>2021-09-20T12:25:39Z</time>
      </trkpt>
      <trkpt lat="44.70551" lon="5.99102">
        <ele>1663</ele>
        <time>2021-09-20T12:25:40Z</time>
      </trkpt>
      <trkpt lat="44.70552" lon="5.99101">
        <ele>1663</ele>
        <time>2021-09-20T12:25:41Z</time>
      </trkpt>
      <trkpt lat="44.70553" lon="5.99101">
        <ele>1663</ele>
        <time>2021-09-20T12:25:42Z</time>
      </trkpt>
      <trkpt lat="44.70554" lon="5.99101">
        <ele>1662</ele>
        <time>2021-09-20T12:25:43Z</time>
      </trkpt>
      <trkpt lat="44.70555" lon="5.99101">
        <ele>1662</ele>
        <time>2021-09-20T12:25:44Z</time>
      </trkpt>
      <trkpt lat="44.70556" lon="5.991">
        <ele>1662</ele>
        <time>2021-09-20T12:25:45Z</time>
      </trkpt>
      <trkpt lat="44.70556" lon="5.991">
        <ele>1662</ele>
        <time>2021-09-20T12:25:46Z</time>
      </trkpt>
      <trkpt lat="44.70557" lon="5.991">
        <ele>1662</ele>
        <time>2021-09-20T12:25:47Z</time>
      </trkpt>
      <trkpt lat="44.70558" lon="5.99099">
        <ele>1661</ele>
        <time>2021-09-20T12:25:48Z</time>
      </trkpt>
      <trkpt lat="44.70558" lon="5.99099">
        <ele>1661</ele>
        <time>2021-09-20T12:25:49Z</time>
      </trkpt>
      <trkpt lat="44.70559" lon="5.99098">
        <ele>1661</ele>
        <time>2021-09-20T12:25:50Z</time>
      </trkpt>
      <trkpt lat="44.70559" lon="5.99097">
        <ele>1661</ele>
        <time>2021-09-20T12:25:51Z</time>
      </trkpt>
      <trkpt lat="44.70559" lon="5.99096">
        <ele>1661</ele>
        <time>2021-09-20T12:25:52Z</time>
      </trkpt>
      <trkpt lat="44.70559" lon="5.99095">
        <ele>1660</ele>
        <time>2021-09-20T12:25:53Z</time>
      </trkpt>
      <trkpt lat="44.70559" lon="5.99094">
        <ele>1660</ele>
        <time>2021-09-20T12:25:54Z</time>
      </trkpt>
      <trkpt lat="44.70558" lon="5.99092">
        <ele>1660</ele>
        <time>2021-09-20T12:25:55Z</time>
      </trkpt>
      <trkpt lat="44.70558" lon="5.99091">
        <ele>1660</ele>
        <time>2021-09-20T12:25:56Z</time>
      </trkpt>
      <trkpt lat="44.70558" lon="5.9909">
        <ele>1660</ele>
        <time>2021-09-20T12:25:57Z</time>
      </trkpt>
      <trkpt lat="44.70558" lon="5.99089">
        <ele>1659</ele>
        <time>2021-09-20T12:25:58Z</time>
      </trkpt>
      <trkpt lat="44.70558" lon="5.99087">
        <ele>1659</ele>
        <time>2021-09-20T12:25:59Z</time>
      </trkpt>
      <trkpt lat="44.70559" lon="5.99086">
        <ele>1659</ele>
        <time>2021-09-20T12:26:00Z</time>
      </trkpt>
      <trkpt lat="44.70559" lon="5.99085">
        <ele>1659</ele>
        <time>2021-09-20T12:26:01Z</time>
      </trkpt>
      <trkpt lat="44.7056" lon="5.99084">
        <ele>1659</ele>
        <time>2021-09-20T12:26:02Z</time>
      </trkpt>
      <trkpt lat="44.7056" lon="5.99083">
        <ele>1658</ele>
        <time>2021-09-20T12:26:03Z</time>
      </trkpt>
      <trkpt lat="44.7056" lon="5.99082">
        <ele>1658</ele>
        <time>2021-09-20T12:26:04Z</time>
      </trkpt>
      <trkpt lat="44.70561" lon="5.99081">
        <ele>1658</ele>
        <time>2021-09-20T12:26:05Z</time>
      </trkpt>
      <trkpt lat="44.70561" lon="5.99081">
        <ele>1658</ele>
        <time>2021-09-20T12:26:06Z</time>
      </trkpt>
      <trkpt lat="44.70561" lon="5.9908">
        <ele>1658</ele>
        <time>2021-09-20T12:26:07Z</time>
      </trkpt>
      <trkpt lat="44.70561" lon="5.99079">
        <ele>1657</ele>
        <time>2021-09-20T12:26:08Z</time>
      </trkpt>
      <trkpt lat="44.70561" lon="5.99079">
        <ele>1657</ele>
        <time>2021-09-20T12:26:09Z</time>
      </trkpt>
      <trkpt lat="44.70561" lon="5.99078">
        <ele>1657</ele>
        <time>2021-09-20T12:26:10Z</time>
      </trkpt>
      <trkpt lat="44.70562" lon="5.99077">
        <ele>1657</ele>
        <time>2021-09-20T12:26:11Z</time>
      </trkpt>
      <trkpt lat="44.70562" lon="5.99077">
        <ele>1657</ele>
        <time>2021-09-20T12:26:12Z</time>
      </trkpt>
      <trkpt lat="44.70563" lon="5.99076">
        <ele>1656</ele>
        <time>2021-09-20T12:26:13Z</time>
      </trkpt>
      <trkpt lat="44.70564" lon="5.99075">
        <ele>1656</ele>
        <time>2021-09-20T12:26:14Z</time>
      </trkpt>
      <trkpt lat="44.70565" lon="5.99075">
        <ele>1656</ele>
        <time>2021-09-20T12:26:15Z</time>
      </trkpt>
      <trkpt lat="44.70565" lon="5.99074">
        <ele>1656</ele>
        <time>2021-09-20T12:26:16Z</time>
      </trkpt>
      <trkpt lat="44.70565" lon="5.99073">
        <ele>1656</ele>
        <time>2021-09-20T12:26:17Z</time>
      </trkpt>
      <trkpt lat="44.70566" lon="5.99072">
        <ele>1655</ele>
        <time>2021-09-20T12:26:18Z</time>
      </trkpt>
      <trkpt lat="44.70566" lon="5.9907">
        <ele>1655</ele>
        <time>2021-09-20T12:26:19Z</time>
      </trkpt>
      <trkpt lat="44.70567" lon="5.99069">
        <ele>1655</ele>
        <time>2021-09-20T12:26:20Z</time>
      </trkpt>
      <trkpt lat="44.70567" lon="5.99067">
        <ele>1655</ele>
        <time>2021-09-20T12:26:21Z</time>
      </trkpt>
      <trkpt lat="44.70567" lon="5.99066">
        <ele>1655</ele>
        <time>2021-09-20T12:26:22Z</time>
      </trkpt>
      <trkpt lat="44.70567" lon="5.99065">
        <ele>1654</ele>
        <time>2021-09-20T12:26:23Z</time>
      </trkpt>
      <trkpt lat="44.70568" lon="5.99063">
        <ele>1654</ele>
        <time>2021-09-20T12:26:24Z</time>
      </trkpt>
      <trkpt lat="44.70568" lon="5.99062">
        <ele>1654</ele>
        <time>2021-09-20T12:26:25Z</time>
      </trkpt>
      <trkpt lat="44.70568" lon="5.99061">
        <ele>1654</ele>
        <time>2021-09-20T12:26:26Z</time>
      </trkpt>
      <trkpt lat="44.70569" lon="5.9906">
        <ele>1654</ele>
        <time>2021-09-20T12:26:27Z</time>
      </trkpt>
      <trkpt lat="44.70569" lon="5.99059">
        <ele>1653</ele>
        <time>2021-09-20T12:26:28Z</time>
      </trkpt>
      <trkpt lat="44.7057" lon="5.99058">
        <ele>1653</ele>
        <time>2021-09-20T12:26:29Z</time>
      </trkpt>
      <trkpt lat="44.7057" lon="5.99057">
        <ele>1653</ele>
        <time>2021-09-20T12:26:30Z</time>
      </trkpt>
      <trkpt lat="44.70571" lon="5.99057">
        <ele>1653</ele>
        <time>2021-09-20T12:26:31Z</time>
      </trkpt>
      <trkpt lat="44.70572" lon="5.99057">
        <ele>1653</ele>
        <time>2021-09-20T12:26:32Z</time>
      </trkpt>
      <trkpt lat="44.70572" lon="5.99057">
        <ele>1653</ele>
        <time>2021-09-20T12:26:33Z</time>
      </trkpt>
      <trkpt lat="44.70572" lon="5.99057">
        <ele>1653</ele>
        <time>2021-09-20T12:26:34Z</time>
      </trkpt>
      <trkpt lat="44.70572" lon="5.99057">
        <ele>1653</ele>
        <time>2021-09-20T12:26:35Z</time>
      </trkpt>
      <trkpt lat="44.70572" lon="5.99057">
        <ele>1653</ele>
        <time>2021-09-20T12:26:36Z</time>
      </trkpt>
      <trkpt lat="44.70573" lon="5.99057">
        <ele>1653</ele>
        <time>2021-09-20T12:26:37Z</time>
      </trkpt>
      <trkpt lat="44.70573" lon="5.99057">
        <ele>1652</ele>
        <time>2021-09-20T12:26:38Z</time>
      </trkpt>
      <trkpt lat="44.70573" lon="5.99056">
        <ele>1652</ele>
        <time>2021-09-20T12:26:39Z</time>
      </trkpt>
      <trkpt lat="44.70574" lon="5.99056">
        <ele>1652</ele>
        <time>2021-09-20T12:26:40Z</time>
      </trkpt>
      <trkpt lat="44.70575" lon="5.99056">
        <ele>1652</ele>
        <time>2021-09-20T12:26:41Z</time>
      </trkpt>
      <trkpt lat="44.70576" lon="5.99055">
        <ele>1652</ele>
        <time>2021-09-20T12:26:42Z</time>
      </trkpt>
      <trkpt lat="44.70577" lon="5.99054">
        <ele>1651</ele>
        <time>2021-09-20T12:26:43Z</time>
      </trkpt>
      <trkpt lat="44.70578" lon="5.99053">
        <ele>1651</ele>
        <time>2021-09-20T12:26:44Z</time>
      </trkpt>
      <trkpt lat="44.70578" lon="5.99053">
        <ele>1651</ele>
        <time>2021-09-20T12:26:45Z</time>
      </trkpt>
      <trkpt lat="44.70578" lon="5.99053">
        <ele>1651</ele>
        <time>2021-09-20T12:26:46Z</time>
      </trkpt>
      <trkpt lat="44.70579" lon="5.99053">
        <ele>1651</ele>
        <time>2021-09-20T12:26:47Z</time>
      </trkpt>
      <trkpt lat="44.70579" lon="5.99053">
        <ele>1650</ele>
        <time>2021-09-20T12:26:48Z</time>
      </trkpt>
      <trkpt lat="44.70579" lon="5.99052">
        <ele>1650</ele>
        <time>2021-09-20T12:26:49Z</time>
      </trkpt>
      <trkpt lat="44.7058" lon="5.99052">
        <ele>1650</ele>
        <time>2021-09-20T12:26:50Z</time>
      </trkpt>
      <trkpt lat="44.7058" lon="5.99051">
        <ele>1650</ele>
        <time>2021-09-20T12:26:51Z</time>
      </trkpt>
      <trkpt lat="44.70581" lon="5.9905">
        <ele>1650</ele>
        <time>2021-09-20T12:26:52Z</time>
      </trkpt>
      <trkpt lat="44.70581" lon="5.99049">
        <ele>1649</ele>
        <time>2021-09-20T12:26:53Z</time>
      </trkpt>
      <trkpt lat="44.70582" lon="5.99048">
        <ele>1649</ele>
        <time>2021-09-20T12:26:54Z</time>
      </trkpt>
      <trkpt lat="44.70583" lon="5.99047">
        <ele>1649</ele>
        <time>2021-09-20T12:26:55Z</time>
      </trkpt>
      <trkpt lat="44.70584" lon="5.99046">
        <ele>1649</ele>
        <time>2021-09-20T12:26:56Z</time>
      </trkpt>
      <trkpt lat="44.70585" lon="5.99046">
        <ele>1649</ele>
        <time>2021-09-20T12:26:57Z</time>
      </trkpt>
      <trkpt lat="44.70585" lon="5.99046">
        <ele>1649</ele>
        <time>2021-09-20T12:26:58Z</time>
      </trkpt>
      <trkpt lat="44.70586" lon="5.99046">
        <ele>1649</ele>
        <time>2021-09-20T12:26:59Z</time>
      </trkpt>
      <trkpt lat="44.70586" lon="5.99047">
        <ele>1649</ele>
        <time>2021-09-20T12:27:00Z</time>
      </trkpt>
      <trkpt lat="44.70586" lon="5.99048">
        <ele>1649</ele>
        <time>2021-09-20T12:27:01Z</time>
      </trkpt>
      <trkpt lat="44.70587" lon="5.99049">
        <ele>1649</ele>
        <time>2021-09-20T12:27:02Z</time>
      </trkpt>
      <trkpt lat="44.70587" lon="5.9905">
        <ele>1648</ele>
        <time>2021-09-20T12:27:03Z</time>
      </trkpt>
      <trkpt lat="44.70587" lon="5.99052">
        <ele>1648</ele>
        <time>2021-09-20T12:27:04Z</time>
      </trkpt>
      <trkpt lat="44.70587" lon="5.99053">
        <ele>1647</ele>
        <time>2021-09-20T12:27:05Z</time>
      </trkpt>
      <trkpt lat="44.70587" lon="5.99054">
        <ele>1647</ele>
        <time>2021-09-20T12:27:06Z</time>
      </trkpt>
      <trkpt lat="44.70587" lon="5.99056">
        <ele>1647</ele>
        <time>2021-09-20T12:27:07Z</time>
      </trkpt>
      <trkpt lat="44.70586" lon="5.99056">
        <ele>1646</ele>
        <time>2021-09-20T12:27:08Z</time>
      </trkpt>
      <trkpt lat="44.70586" lon="5.99057">
        <ele>1646</ele>
        <time>2021-09-20T12:27:09Z</time>
      </trkpt>
      <trkpt lat="44.70586" lon="5.99058">
        <ele>1646</ele>
        <time>2021-09-20T12:27:10Z</time>
      </trkpt>
      <trkpt lat="44.70586" lon="5.99059">
        <ele>1646</ele>
        <time>2021-09-20T12:27:11Z</time>
      </trkpt>
      <trkpt lat="44.70586" lon="5.9906">
        <ele>1646</ele>
        <time>2021-09-20T12:27:12Z</time>
      </trkpt>
      <trkpt lat="44.70586" lon="5.99061">
        <ele>1645</ele>
        <time>2021-09-20T12:27:13Z</time>
      </trkpt>
      <trkpt lat="44.70586" lon="5.99062">
        <ele>1645</ele>
        <time>2021-09-20T12:27:14Z</time>
      </trkpt>
      <trkpt lat="44.70586" lon="5.99063">
        <ele>1645</ele>
        <time>2021-09-20T12:27:15Z</time>
      </trkpt>
      <trkpt lat="44.70586" lon="5.99065">
        <ele>1645</ele>
        <time>2021-09-20T12:27:16Z</time>
      </trkpt>
      <trkpt lat="44.70586" lon="5.99066">
        <ele>1645</ele>
        <time>2021-09-20T12:27:17Z</time>
      </trkpt>
      <trkpt lat="44.70586" lon="5.99067">
        <ele>1644</ele>
        <time>2021-09-20T12:27:18Z</time>
      </trkpt>
      <trkpt lat="44.70586" lon="5.99068">
        <ele>1644</ele>
        <time>2021-09-20T12:27:19Z</time>
      </trkpt>
      <trkpt lat="44.70585" lon="5.9907">
        <ele>1643</ele>
        <time>2021-09-20T12:27:25Z</time>
      </trkpt>
      <trkpt lat="44.70585" lon="5.99071">
        <ele>1643</ele>
        <time>2021-09-20T12:27:26Z</time>
      </trkpt>
      <trkpt lat="44.70585" lon="5.99072">
        <ele>1643</ele>
        <time>2021-09-20T12:27:27Z</time>
      </trkpt>
      <trkpt lat="44.70585" lon="5.99073">
        <ele>1642</ele>
        <time>2021-09-20T12:27:28Z</time>
      </trkpt>
      <trkpt lat="44.70585" lon="5.99074">
        <ele>1642</ele>
        <time>2021-09-20T12:27:29Z</time>
      </trkpt>
      <trkpt lat="44.70585" lon="5.99075">
        <ele>1642</ele>
        <time>2021-09-20T12:27:30Z</time>
      </trkpt>
      <trkpt lat="44.70585" lon="5.99077">
        <ele>1642</ele>
        <time>2021-09-20T12:27:31Z</time>
      </trkpt>
      <trkpt lat="44.70586" lon="5.99078">
        <ele>1642</ele>
        <time>2021-09-20T12:27:32Z</time>
      </trkpt>
      <trkpt lat="44.70586" lon="5.99079">
        <ele>1642</ele>
        <time>2021-09-20T12:27:33Z</time>
      </trkpt>
      <trkpt lat="44.70587" lon="5.9908">
        <ele>1642</ele>
        <time>2021-09-20T12:27:34Z</time>
      </trkpt>
      <trkpt lat="44.70588" lon="5.99081">
        <ele>1642</ele>
        <time>2021-09-20T12:27:35Z</time>
      </trkpt>
      <trkpt lat="44.70588" lon="5.99081">
        <ele>1642</ele>
        <time>2021-09-20T12:27:36Z</time>
      </trkpt>
      <trkpt lat="44.70588" lon="5.99082">
        <ele>1642</ele>
        <time>2021-09-20T12:27:37Z</time>
      </trkpt>
      <trkpt lat="44.70589" lon="5.99083">
        <ele>1641</ele>
        <time>2021-09-20T12:27:38Z</time>
      </trkpt>
      <trkpt lat="44.7059" lon="5.99083">
        <ele>1641</ele>
        <time>2021-09-20T12:27:39Z</time>
      </trkpt>
      <trkpt lat="44.7059" lon="5.99084">
        <ele>1641</ele>
        <time>2021-09-20T12:27:40Z</time>
      </trkpt>
      <trkpt lat="44.7059" lon="5.99084">
        <ele>1641</ele>
        <time>2021-09-20T12:27:41Z</time>
      </trkpt>
      <trkpt lat="44.7059" lon="5.99085">
        <ele>1641</ele>
        <time>2021-09-20T12:27:42Z</time>
      </trkpt>
      <trkpt lat="44.70591" lon="5.99085">
        <ele>1640</ele>
        <time>2021-09-20T12:27:43Z</time>
      </trkpt>
      <trkpt lat="44.70591" lon="5.99086">
        <ele>1640</ele>
        <time>2021-09-20T12:27:44Z</time>
      </trkpt>
      <trkpt lat="44.70591" lon="5.99087">
        <ele>1640</ele>
        <time>2021-09-20T12:27:45Z</time>
      </trkpt>
      <trkpt lat="44.70591" lon="5.99087">
        <ele>1640</ele>
        <time>2021-09-20T12:27:46Z</time>
      </trkpt>
      <trkpt lat="44.70592" lon="5.99088">
        <ele>1640</ele>
        <time>2021-09-20T12:27:47Z</time>
      </trkpt>
      <trkpt lat="44.70592" lon="5.99088">
        <ele>1639</ele>
        <time>2021-09-20T12:27:48Z</time>
      </trkpt>
      <trkpt lat="44.70593" lon="5.99089">
        <ele>1639</ele>
        <time>2021-09-20T12:27:49Z</time>
      </trkpt>
      <trkpt lat="44.70593" lon="5.9909">
        <ele>1639</ele>
        <time>2021-09-20T12:27:50Z</time>
      </trkpt>
      <trkpt lat="44.70594" lon="5.99091">
        <ele>1639</ele>
        <time>2021-09-20T12:27:51Z</time>
      </trkpt>
      <trkpt lat="44.70595" lon="5.99092">
        <ele>1639</ele>
        <time>2021-09-20T12:27:52Z</time>
      </trkpt>
      <trkpt lat="44.70595" lon="5.99093">
        <ele>1638</ele>
        <time>2021-09-20T12:27:53Z</time>
      </trkpt>
      <trkpt lat="44.70596" lon="5.99094">
        <ele>1638</ele>
        <time>2021-09-20T12:27:54Z</time>
      </trkpt>
      <trkpt lat="44.70597" lon="5.99096">
        <ele>1638</ele>
        <time>2021-09-20T12:27:55Z</time>
      </trkpt>
      <trkpt lat="44.70597" lon="5.99097">
        <ele>1638</ele>
        <time>2021-09-20T12:27:56Z</time>
      </trkpt>
      <trkpt lat="44.70598" lon="5.99098">
        <ele>1638</ele>
        <time>2021-09-20T12:27:57Z</time>
      </trkpt>
      <trkpt lat="44.70599" lon="5.991">
        <ele>1637</ele>
        <time>2021-09-20T12:27:58Z</time>
      </trkpt>
      <trkpt lat="44.70599" lon="5.99101">
        <ele>1637</ele>
        <time>2021-09-20T12:27:59Z</time>
      </trkpt>
      <trkpt lat="44.706" lon="5.99102">
        <ele>1637</ele>
        <time>2021-09-20T12:28:00Z</time>
      </trkpt>
      <trkpt lat="44.70601" lon="5.99103">
        <ele>1637</ele>
        <time>2021-09-20T12:28:01Z</time>
      </trkpt>
      <trkpt lat="44.70601" lon="5.99104">
        <ele>1637</ele>
        <time>2021-09-20T12:28:02Z</time>
      </trkpt>
      <trkpt lat="44.70602" lon="5.99105">
        <ele>1637</ele>
        <time>2021-09-20T12:28:03Z</time>
      </trkpt>
      <trkpt lat="44.70602" lon="5.99106">
        <ele>1637</ele>
        <time>2021-09-20T12:28:04Z</time>
      </trkpt>
      <trkpt lat="44.70603" lon="5.99107">
        <ele>1637</ele>
        <time>2021-09-20T12:28:05Z</time>
      </trkpt>
      <trkpt lat="44.70603" lon="5.99107">
        <ele>1637</ele>
        <time>2021-09-20T12:28:06Z</time>
      </trkpt>
      <trkpt lat="44.70604" lon="5.99107">
        <ele>1637</ele>
        <time>2021-09-20T12:28:07Z</time>
      </trkpt>
      <trkpt lat="44.70605" lon="5.99108">
        <ele>1636</ele>
        <time>2021-09-20T12:28:08Z</time>
      </trkpt>
      <trkpt lat="44.70605" lon="5.99108">
        <ele>1636</ele>
        <time>2021-09-20T12:28:09Z</time>
      </trkpt>
      <trkpt lat="44.70606" lon="5.99109">
        <ele>1636</ele>
        <time>2021-09-20T12:28:10Z</time>
      </trkpt>
      <trkpt lat="44.70607" lon="5.99109">
        <ele>1636</ele>
        <time>2021-09-20T12:28:11Z</time>
      </trkpt>
      <trkpt lat="44.70607" lon="5.99111">
        <ele>1636</ele>
        <time>2021-09-20T12:28:12Z</time>
      </trkpt>
      <trkpt lat="44.70608" lon="5.99112">
        <ele>1635</ele>
        <time>2021-09-20T12:28:13Z</time>
      </trkpt>
      <trkpt lat="44.70608" lon="5.99113">
        <ele>1635</ele>
        <time>2021-09-20T12:28:14Z</time>
      </trkpt>
      <trkpt lat="44.70608" lon="5.99115">
        <ele>1635</ele>
        <time>2021-09-20T12:28:15Z</time>
      </trkpt>
      <trkpt lat="44.70608" lon="5.99117">
        <ele>1635</ele>
        <time>2021-09-20T12:28:16Z</time>
      </trkpt>
      <trkpt lat="44.70608" lon="5.99119">
        <ele>1635</ele>
        <time>2021-09-20T12:28:17Z</time>
      </trkpt>
      <trkpt lat="44.70608" lon="5.9912">
        <ele>1634</ele>
        <time>2021-09-20T12:28:18Z</time>
      </trkpt>
      <trkpt lat="44.70608" lon="5.99122">
        <ele>1634</ele>
        <time>2021-09-20T12:28:19Z</time>
      </trkpt>
      <trkpt lat="44.70608" lon="5.99124">
        <ele>1634</ele>
        <time>2021-09-20T12:28:20Z</time>
      </trkpt>
      <trkpt lat="44.70608" lon="5.99125">
        <ele>1634</ele>
        <time>2021-09-20T12:28:21Z</time>
      </trkpt>
      <trkpt lat="44.70609" lon="5.99127">
        <ele>1634</ele>
        <time>2021-09-20T12:28:22Z</time>
      </trkpt>
      <trkpt lat="44.70609" lon="5.99128">
        <ele>1633</ele>
        <time>2021-09-20T12:28:23Z</time>
      </trkpt>
      <trkpt lat="44.70609" lon="5.9913">
        <ele>1633</ele>
        <time>2021-09-20T12:28:24Z</time>
      </trkpt>
      <trkpt lat="44.7061" lon="5.99131">
        <ele>1633</ele>
        <time>2021-09-20T12:28:25Z</time>
      </trkpt>
      <trkpt lat="44.7061" lon="5.99132">
        <ele>1633</ele>
        <time>2021-09-20T12:28:26Z</time>
      </trkpt>
      <trkpt lat="44.7061" lon="5.99134">
        <ele>1633</ele>
        <time>2021-09-20T12:28:27Z</time>
      </trkpt>
      <trkpt lat="44.7061" lon="5.99135">
        <ele>1632</ele>
        <time>2021-09-20T12:28:28Z</time>
      </trkpt>
      <trkpt lat="44.7061" lon="5.99136">
        <ele>1632</ele>
        <time>2021-09-20T12:28:29Z</time>
      </trkpt>
      <trkpt lat="44.7061" lon="5.99137">
        <ele>1632</ele>
        <time>2021-09-20T12:28:30Z</time>
      </trkpt>
      <trkpt lat="44.70611" lon="5.99138">
        <ele>1632</ele>
        <time>2021-09-20T12:28:31Z</time>
      </trkpt>
      <trkpt lat="44.7061" lon="5.99139">
        <ele>1632</ele>
        <time>2021-09-20T12:28:32Z</time>
      </trkpt>
      <trkpt lat="44.7061" lon="5.9914">
        <ele>1631</ele>
        <time>2021-09-20T12:28:33Z</time>
      </trkpt>
      <trkpt lat="44.7061" lon="5.99142">
        <ele>1631</ele>
        <time>2021-09-20T12:28:34Z</time>
      </trkpt>
      <trkpt lat="44.70609" lon="5.99143">
        <ele>1631</ele>
        <time>2021-09-20T12:28:35Z</time>
      </trkpt>
      <trkpt lat="44.70609" lon="5.99144">
        <ele>1631</ele>
        <time>2021-09-20T12:28:36Z</time>
      </trkpt>
      <trkpt lat="44.70608" lon="5.99146">
        <ele>1631</ele>
        <time>2021-09-20T12:28:37Z</time>
      </trkpt>
      <trkpt lat="44.70608" lon="5.99147">
        <ele>1630</ele>
        <time>2021-09-20T12:28:38Z</time>
      </trkpt>
      <trkpt lat="44.70608" lon="5.99148">
        <ele>1630</ele>
        <time>2021-09-20T12:28:39Z</time>
      </trkpt>
      <trkpt lat="44.70608" lon="5.9915">
        <ele>1630</ele>
        <time>2021-09-20T12:28:40Z</time>
      </trkpt>
      <trkpt lat="44.70608" lon="5.99151">
        <ele>1630</ele>
        <time>2021-09-20T12:28:41Z</time>
      </trkpt>
      <trkpt lat="44.70609" lon="5.99152">
        <ele>1630</ele>
        <time>2021-09-20T12:28:42Z</time>
      </trkpt>
      <trkpt lat="44.70609" lon="5.99154">
        <ele>1629</ele>
        <time>2021-09-20T12:28:43Z</time>
      </trkpt>
      <trkpt lat="44.70609" lon="5.99155">
        <ele>1629</ele>
        <time>2021-09-20T12:28:44Z</time>
      </trkpt>
      <trkpt lat="44.7061" lon="5.99157">
        <ele>1629</ele>
        <time>2021-09-20T12:28:45Z</time>
      </trkpt>
      <trkpt lat="44.7061" lon="5.99158">
        <ele>1629</ele>
        <time>2021-09-20T12:28:46Z</time>
      </trkpt>
      <trkpt lat="44.7061" lon="5.99159">
        <ele>1629</ele>
        <time>2021-09-20T12:28:47Z</time>
      </trkpt>
      <trkpt lat="44.7061" lon="5.99161">
        <ele>1628</ele>
        <time>2021-09-20T12:28:48Z</time>
      </trkpt>
      <trkpt lat="44.7061" lon="5.99162">
        <ele>1628</ele>
        <time>2021-09-20T12:28:49Z</time>
      </trkpt>
      <trkpt lat="44.7061" lon="5.99163">
        <ele>1627</ele>
        <time>2021-09-20T12:28:50Z</time>
      </trkpt>
      <trkpt lat="44.70609" lon="5.99164">
        <ele>1627</ele>
        <time>2021-09-20T12:28:51Z</time>
      </trkpt>
      <trkpt lat="44.70609" lon="5.99166">
        <ele>1627</ele>
        <time>2021-09-20T12:28:52Z</time>
      </trkpt>
      <trkpt lat="44.70609" lon="5.99168">
        <ele>1626</ele>
        <time>2021-09-20T12:28:53Z</time>
      </trkpt>
      <trkpt lat="44.70609" lon="5.99169">
        <ele>1626</ele>
        <time>2021-09-20T12:28:54Z</time>
      </trkpt>
      <trkpt lat="44.70609" lon="5.9917">
        <ele>1626</ele>
        <time>2021-09-20T12:28:55Z</time>
      </trkpt>
      <trkpt lat="44.70609" lon="5.99172">
        <ele>1626</ele>
        <time>2021-09-20T12:28:56Z</time>
      </trkpt>
      <trkpt lat="44.70609" lon="5.99173">
        <ele>1626</ele>
        <time>2021-09-20T12:28:57Z</time>
      </trkpt>
      <trkpt lat="44.70608" lon="5.99175">
        <ele>1626</ele>
        <time>2021-09-20T12:28:58Z</time>
      </trkpt>
      <trkpt lat="44.70608" lon="5.99176">
        <ele>1626</ele>
        <time>2021-09-20T12:28:59Z</time>
      </trkpt>
      <trkpt lat="44.70608" lon="5.99178">
        <ele>1626</ele>
        <time>2021-09-20T12:29:00Z</time>
      </trkpt>
      <trkpt lat="44.70608" lon="5.99179">
        <ele>1626</ele>
        <time>2021-09-20T12:29:01Z</time>
      </trkpt>
      <trkpt lat="44.70608" lon="5.9918">
        <ele>1626</ele>
        <time>2021-09-20T12:29:02Z</time>
      </trkpt>
      <trkpt lat="44.70608" lon="5.99182">
        <ele>1625</ele>
        <time>2021-09-20T12:29:03Z</time>
      </trkpt>
      <trkpt lat="44.70607" lon="5.99183">
        <ele>1625</ele>
        <time>2021-09-20T12:29:04Z</time>
      </trkpt>
      <trkpt lat="44.70607" lon="5.99184">
        <ele>1625</ele>
        <time>2021-09-20T12:29:05Z</time>
      </trkpt>
      <trkpt lat="44.70606" lon="5.99186">
        <ele>1625</ele>
        <time>2021-09-20T12:29:06Z</time>
      </trkpt>
      <trkpt lat="44.70606" lon="5.99187">
        <ele>1625</ele>
        <time>2021-09-20T12:29:07Z</time>
      </trkpt>
      <trkpt lat="44.70605" lon="5.99188">
        <ele>1624</ele>
        <time>2021-09-20T12:29:08Z</time>
      </trkpt>
      <trkpt lat="44.70605" lon="5.99189">
        <ele>1624</ele>
        <time>2021-09-20T12:29:09Z</time>
      </trkpt>
      <trkpt lat="44.70604" lon="5.9919">
        <ele>1623</ele>
        <time>2021-09-20T12:29:10Z</time>
      </trkpt>
      <trkpt lat="44.70603" lon="5.99191">
        <ele>1623</ele>
        <time>2021-09-20T12:29:11Z</time>
      </trkpt>
      <trkpt lat="44.70602" lon="5.99192">
        <ele>1623</ele>
        <time>2021-09-20T12:29:12Z</time>
      </trkpt>
      <trkpt lat="44.70601" lon="5.99192">
        <ele>1622</ele>
        <time>2021-09-20T12:29:13Z</time>
      </trkpt>
      <trkpt lat="44.706" lon="5.99193">
        <ele>1622</ele>
        <time>2021-09-20T12:29:14Z</time>
      </trkpt>
      <trkpt lat="44.70599" lon="5.99193">
        <ele>1622</ele>
        <time>2021-09-20T12:29:15Z</time>
      </trkpt>
      <trkpt lat="44.70598" lon="5.99194">
        <ele>1622</ele>
        <time>2021-09-20T12:29:16Z</time>
      </trkpt>
      <trkpt lat="44.70597" lon="5.99194">
        <ele>1622</ele>
        <time>2021-09-20T12:29:17Z</time>
      </trkpt>
      <trkpt lat="44.70596" lon="5.99194">
        <ele>1621</ele>
        <time>2021-09-20T12:29:18Z</time>
      </trkpt>
      <trkpt lat="44.70595" lon="5.99195">
        <ele>1621</ele>
        <time>2021-09-20T12:29:19Z</time>
      </trkpt>
      <trkpt lat="44.70594" lon="5.99195">
        <ele>1621</ele>
        <time>2021-09-20T12:29:20Z</time>
      </trkpt>
      <trkpt lat="44.70593" lon="5.99196">
        <ele>1621</ele>
        <time>2021-09-20T12:29:21Z</time>
      </trkpt>
      <trkpt lat="44.70592" lon="5.99196">
        <ele>1621</ele>
        <time>2021-09-20T12:29:22Z</time>
      </trkpt>
      <trkpt lat="44.70591" lon="5.99196">
        <ele>1620</ele>
        <time>2021-09-20T12:29:23Z</time>
      </trkpt>
      <trkpt lat="44.7059" lon="5.99196">
        <ele>1620</ele>
        <time>2021-09-20T12:29:24Z</time>
      </trkpt>
      <trkpt lat="44.70589" lon="5.99196">
        <ele>1620</ele>
        <time>2021-09-20T12:29:25Z</time>
      </trkpt>
      <trkpt lat="44.70588" lon="5.99197">
        <ele>1620</ele>
        <time>2021-09-20T12:29:26Z</time>
      </trkpt>
      <trkpt lat="44.70587" lon="5.99197">
        <ele>1620</ele>
        <time>2021-09-20T12:29:27Z</time>
      </trkpt>
      <trkpt lat="44.70586" lon="5.99197">
        <ele>1619</ele>
        <time>2021-09-20T12:29:28Z</time>
      </trkpt>
      <trkpt lat="44.70585" lon="5.99197">
        <ele>1619</ele>
        <time>2021-09-20T12:29:29Z</time>
      </trkpt>
      <trkpt lat="44.70584" lon="5.99198">
        <ele>1619</ele>
        <time>2021-09-20T12:29:30Z</time>
      </trkpt>
      <trkpt lat="44.70583" lon="5.99198">
        <ele>1619</ele>
        <time>2021-09-20T12:29:31Z</time>
      </trkpt>
      <trkpt lat="44.70582" lon="5.99199">
        <ele>1619</ele>
        <time>2021-09-20T12:29:32Z</time>
      </trkpt>
      <trkpt lat="44.70581" lon="5.99199">
        <ele>1618</ele>
        <time>2021-09-20T12:29:33Z</time>
      </trkpt>
      <trkpt lat="44.7058" lon="5.99199">
        <ele>1618</ele>
        <time>2021-09-20T12:29:34Z</time>
      </trkpt>
      <trkpt lat="44.70579" lon="5.992">
        <ele>1618</ele>
        <time>2021-09-20T12:29:35Z</time>
      </trkpt>
      <trkpt lat="44.70578" lon="5.992">
        <ele>1618</ele>
        <time>2021-09-20T12:29:36Z</time>
      </trkpt>
      <trkpt lat="44.70577" lon="5.99201">
        <ele>1618</ele>
        <time>2021-09-20T12:29:37Z</time>
      </trkpt>
      <trkpt lat="44.70576" lon="5.99201">
        <ele>1617</ele>
        <time>2021-09-20T12:29:38Z</time>
      </trkpt>
      <trkpt lat="44.70575" lon="5.99202">
        <ele>1617</ele>
        <time>2021-09-20T12:29:39Z</time>
      </trkpt>
      <trkpt lat="44.70574" lon="5.99203">
        <ele>1617</ele>
        <time>2021-09-20T12:29:40Z</time>
      </trkpt>
      <trkpt lat="44.70573" lon="5.99203">
        <ele>1617</ele>
        <time>2021-09-20T12:29:41Z</time>
      </trkpt>
      <trkpt lat="44.70572" lon="5.99204">
        <ele>1617</ele>
        <time>2021-09-20T12:29:42Z</time>
      </trkpt>
      <trkpt lat="44.70571" lon="5.99204">
        <ele>1616</ele>
        <time>2021-09-20T12:29:43Z</time>
      </trkpt>
      <trkpt lat="44.70571" lon="5.99205">
        <ele>1616</ele>
        <time>2021-09-20T12:29:44Z</time>
      </trkpt>
      <trkpt lat="44.7057" lon="5.99206">
        <ele>1616</ele>
        <time>2021-09-20T12:29:45Z</time>
      </trkpt>
      <trkpt lat="44.70569" lon="5.99207">
        <ele>1616</ele>
        <time>2021-09-20T12:29:46Z</time>
      </trkpt>
      <trkpt lat="44.70569" lon="5.99208">
        <ele>1616</ele>
        <time>2021-09-20T12:29:47Z</time>
      </trkpt>
      <trkpt lat="44.70568" lon="5.99209">
        <ele>1615</ele>
        <time>2021-09-20T12:29:48Z</time>
      </trkpt>
      <trkpt lat="44.70568" lon="5.9921">
        <ele>1615</ele>
        <time>2021-09-20T12:29:49Z</time>
      </trkpt>
      <trkpt lat="44.70567" lon="5.99211">
        <ele>1615</ele>
        <time>2021-09-20T12:29:50Z</time>
      </trkpt>
      <trkpt lat="44.70567" lon="5.99212">
        <ele>1615</ele>
        <time>2021-09-20T12:29:51Z</time>
      </trkpt>
      <trkpt lat="44.70566" lon="5.99213">
        <ele>1615</ele>
        <time>2021-09-20T12:29:52Z</time>
      </trkpt>
      <trkpt lat="44.70566" lon="5.99215">
        <ele>1614</ele>
        <time>2021-09-20T12:29:53Z</time>
      </trkpt>
      <trkpt lat="44.70565" lon="5.99215">
        <ele>1614</ele>
        <time>2021-09-20T12:29:54Z</time>
      </trkpt>
      <trkpt lat="44.70565" lon="5.99216">
        <ele>1614</ele>
        <time>2021-09-20T12:29:55Z</time>
      </trkpt>
      <trkpt lat="44.70564" lon="5.99217">
        <ele>1614</ele>
        <time>2021-09-20T12:29:56Z</time>
      </trkpt>
      <trkpt lat="44.70564" lon="5.99218">
        <ele>1614</ele>
        <time>2021-09-20T12:29:57Z</time>
      </trkpt>
      <trkpt lat="44.70563" lon="5.99219">
        <ele>1613</ele>
        <time>2021-09-20T12:29:58Z</time>
      </trkpt>
      <trkpt lat="44.70563" lon="5.9922">
        <ele>1613</ele>
        <time>2021-09-20T12:29:59Z</time>
      </trkpt>
      <trkpt lat="44.70562" lon="5.99221">
        <ele>1613</ele>
        <time>2021-09-20T12:30:00Z</time>
      </trkpt>
      <trkpt lat="44.70562" lon="5.99222">
        <ele>1613</ele>
        <time>2021-09-20T12:30:01Z</time>
      </trkpt>
      <trkpt lat="44.70561" lon="5.99223">
        <ele>1613</ele>
        <time>2021-09-20T12:30:02Z</time>
      </trkpt>
      <trkpt lat="44.70561" lon="5.99224">
        <ele>1612</ele>
        <time>2021-09-20T12:30:03Z</time>
      </trkpt>
      <trkpt lat="44.7056" lon="5.99225">
        <ele>1612</ele>
        <time>2021-09-20T12:30:04Z</time>
      </trkpt>
      <trkpt lat="44.70559" lon="5.99226">
        <ele>1612</ele>
        <time>2021-09-20T12:30:05Z</time>
      </trkpt>
      <trkpt lat="44.70559" lon="5.99227">
        <ele>1612</ele>
        <time>2021-09-20T12:30:06Z</time>
      </trkpt>
      <trkpt lat="44.70558" lon="5.99228">
        <ele>1612</ele>
        <time>2021-09-20T12:30:07Z</time>
      </trkpt>
      <trkpt lat="44.70558" lon="5.99229">
        <ele>1611</ele>
        <time>2021-09-20T12:30:08Z</time>
      </trkpt>
      <trkpt lat="44.70557" lon="5.9923">
        <ele>1611</ele>
        <time>2021-09-20T12:30:09Z</time>
      </trkpt>
      <trkpt lat="44.70557" lon="5.99231">
        <ele>1611</ele>
        <time>2021-09-20T12:30:10Z</time>
      </trkpt>
      <trkpt lat="44.70557" lon="5.99232">
        <ele>1611</ele>
        <time>2021-09-20T12:30:11Z</time>
      </trkpt>
      <trkpt lat="44.70556" lon="5.99233">
        <ele>1611</ele>
        <time>2021-09-20T12:30:12Z</time>
      </trkpt>
      <trkpt lat="44.70556" lon="5.99234">
        <ele>1610</ele>
        <time>2021-09-20T12:30:13Z</time>
      </trkpt>
      <trkpt lat="44.70555" lon="5.99235">
        <ele>1610</ele>
        <time>2021-09-20T12:30:14Z</time>
      </trkpt>
      <trkpt lat="44.70554" lon="5.99236">
        <ele>1610</ele>
        <time>2021-09-20T12:30:15Z</time>
      </trkpt>
      <trkpt lat="44.70554" lon="5.99237">
        <ele>1610</ele>
        <time>2021-09-20T12:30:16Z</time>
      </trkpt>
      <trkpt lat="44.70553" lon="5.99238">
        <ele>1610</ele>
        <time>2021-09-20T12:30:17Z</time>
      </trkpt>
      <trkpt lat="44.70553" lon="5.99239">
        <ele>1609</ele>
        <time>2021-09-20T12:30:18Z</time>
      </trkpt>
      <trkpt lat="44.70552" lon="5.9924">
        <ele>1609</ele>
        <time>2021-09-20T12:30:19Z</time>
      </trkpt>
      <trkpt lat="44.70551" lon="5.99241">
        <ele>1609</ele>
        <time>2021-09-20T12:30:20Z</time>
      </trkpt>
      <trkpt lat="44.70551" lon="5.99242">
        <ele>1609</ele>
        <time>2021-09-20T12:30:21Z</time>
      </trkpt>
      <trkpt lat="44.7055" lon="5.99243">
        <ele>1609</ele>
        <time>2021-09-20T12:30:22Z</time>
      </trkpt>
      <trkpt lat="44.7055" lon="5.99244">
        <ele>1608</ele>
        <time>2021-09-20T12:30:23Z</time>
      </trkpt>
      <trkpt lat="44.70549" lon="5.99245">
        <ele>1608</ele>
        <time>2021-09-20T12:30:24Z</time>
      </trkpt>
      <trkpt lat="44.70549" lon="5.99246">
        <ele>1608</ele>
        <time>2021-09-20T12:30:25Z</time>
      </trkpt>
      <trkpt lat="44.70548" lon="5.99247">
        <ele>1608</ele>
        <time>2021-09-20T12:30:26Z</time>
      </trkpt>
      <trkpt lat="44.70548" lon="5.99248">
        <ele>1608</ele>
        <time>2021-09-20T12:30:27Z</time>
      </trkpt>
      <trkpt lat="44.70547" lon="5.99249">
        <ele>1607</ele>
        <time>2021-09-20T12:30:28Z</time>
      </trkpt>
      <trkpt lat="44.70547" lon="5.9925">
        <ele>1607</ele>
        <time>2021-09-20T12:30:29Z</time>
      </trkpt>
      <trkpt lat="44.70546" lon="5.99251">
        <ele>1607</ele>
        <time>2021-09-20T12:30:30Z</time>
      </trkpt>
      <trkpt lat="44.70545" lon="5.99252">
        <ele>1607</ele>
        <time>2021-09-20T12:30:31Z</time>
      </trkpt>
      <trkpt lat="44.70544" lon="5.99252">
        <ele>1607</ele>
        <time>2021-09-20T12:30:32Z</time>
      </trkpt>
      <trkpt lat="44.70544" lon="5.99253">
        <ele>1606</ele>
        <time>2021-09-20T12:30:33Z</time>
      </trkpt>
      <trkpt lat="44.70543" lon="5.99254">
        <ele>1606</ele>
        <time>2021-09-20T12:30:34Z</time>
      </trkpt>
      <trkpt lat="44.70542" lon="5.99254">
        <ele>1606</ele>
        <time>2021-09-20T12:30:35Z</time>
      </trkpt>
      <trkpt lat="44.70541" lon="5.99255">
        <ele>1606</ele>
        <time>2021-09-20T12:30:36Z</time>
      </trkpt>
      <trkpt lat="44.7054" lon="5.99256">
        <ele>1606</ele>
        <time>2021-09-20T12:30:37Z</time>
      </trkpt>
      <trkpt lat="44.70539" lon="5.99257">
        <ele>1605</ele>
        <time>2021-09-20T12:30:45Z</time>
      </trkpt>
      <trkpt lat="44.70539" lon="5.99257">
        <ele>1605</ele>
        <time>2021-09-20T12:30:46Z</time>
      </trkpt>
      <trkpt lat="44.70538" lon="5.99257">
        <ele>1605</ele>
        <time>2021-09-20T12:30:47Z</time>
      </trkpt>
      <trkpt lat="44.70538" lon="5.99257">
        <ele>1604</ele>
        <time>2021-09-20T12:30:48Z</time>
      </trkpt>
      <trkpt lat="44.70537" lon="5.99258">
        <ele>1604</ele>
        <time>2021-09-20T12:30:49Z</time>
      </trkpt>
      <trkpt lat="44.70536" lon="5.99258">
        <ele>1604</ele>
        <time>2021-09-20T12:30:50Z</time>
      </trkpt>
      <trkpt lat="44.70536" lon="5.99258">
        <ele>1604</ele>
        <time>2021-09-20T12:30:51Z</time>
      </trkpt>
      <trkpt lat="44.70535" lon="5.99257">
        <ele>1604</ele>
        <time>2021-09-20T12:30:52Z</time>
      </trkpt>
      <trkpt lat="44.70534" lon="5.99257">
        <ele>1604</ele>
        <time>2021-09-20T12:30:53Z</time>
      </trkpt>
      <trkpt lat="44.70533" lon="5.99257">
        <ele>1604</ele>
        <time>2021-09-20T12:30:59Z</time>
      </trkpt>
      <trkpt lat="44.70533" lon="5.99257">
        <ele>1604</ele>
        <time>2021-09-20T12:31:00Z</time>
      </trkpt>
      <trkpt lat="44.70532" lon="5.99256">
        <ele>1604</ele>
        <time>2021-09-20T12:31:01Z</time>
      </trkpt>
      <trkpt lat="44.70532" lon="5.99256">
        <ele>1604</ele>
        <time>2021-09-20T12:31:02Z</time>
      </trkpt>
      <trkpt lat="44.70531" lon="5.99256">
        <ele>1604</ele>
        <time>2021-09-20T12:31:03Z</time>
      </trkpt>
      <trkpt lat="44.7053" lon="5.99256">
        <ele>1604</ele>
        <time>2021-09-20T12:31:04Z</time>
      </trkpt>
      <trkpt lat="44.70529" lon="5.99256">
        <ele>1604</ele>
        <time>2021-09-20T12:31:05Z</time>
      </trkpt>
      <trkpt lat="44.70528" lon="5.99257">
        <ele>1604</ele>
        <time>2021-09-20T12:31:06Z</time>
      </trkpt>
      <trkpt lat="44.70527" lon="5.99257">
        <ele>1604</ele>
        <time>2021-09-20T12:31:07Z</time>
      </trkpt>
      <trkpt lat="44.70526" lon="5.99257">
        <ele>1604</ele>
        <time>2021-09-20T12:31:08Z</time>
      </trkpt>
      <trkpt lat="44.70524" lon="5.99258">
        <ele>1604</ele>
        <time>2021-09-20T12:31:09Z</time>
      </trkpt>
      <trkpt lat="44.70523" lon="5.99258">
        <ele>1604</ele>
        <time>2021-09-20T12:31:10Z</time>
      </trkpt>
      <trkpt lat="44.70522" lon="5.99258">
        <ele>1604</ele>
        <time>2021-09-20T12:31:11Z</time>
      </trkpt>
      <trkpt lat="44.70521" lon="5.99258">
        <ele>1604</ele>
        <time>2021-09-20T12:31:12Z</time>
      </trkpt>
      <trkpt lat="44.7052" lon="5.99258">
        <ele>1603</ele>
        <time>2021-09-20T12:31:13Z</time>
      </trkpt>
      <trkpt lat="44.70519" lon="5.99258">
        <ele>1603</ele>
        <time>2021-09-20T12:31:14Z</time>
      </trkpt>
      <trkpt lat="44.70519" lon="5.99258">
        <ele>1603</ele>
        <time>2021-09-20T12:31:15Z</time>
      </trkpt>
      <trkpt lat="44.70518" lon="5.99258">
        <ele>1603</ele>
        <time>2021-09-20T12:31:16Z</time>
      </trkpt>
      <trkpt lat="44.70517" lon="5.99258">
        <ele>1603</ele>
        <time>2021-09-20T12:31:17Z</time>
      </trkpt>
      <trkpt lat="44.70516" lon="5.99258">
        <ele>1602</ele>
        <time>2021-09-20T12:31:18Z</time>
      </trkpt>
      <trkpt lat="44.70516" lon="5.99258">
        <ele>1602</ele>
        <time>2021-09-20T12:31:19Z</time>
      </trkpt>
      <trkpt lat="44.70515" lon="5.99259">
        <ele>1602</ele>
        <time>2021-09-20T12:31:20Z</time>
      </trkpt>
      <trkpt lat="44.70515" lon="5.9926">
        <ele>1602</ele>
        <time>2021-09-20T12:31:21Z</time>
      </trkpt>
      <trkpt lat="44.70515" lon="5.99261">
        <ele>1602</ele>
        <time>2021-09-20T12:31:22Z</time>
      </trkpt>
      <trkpt lat="44.70515" lon="5.99262">
        <ele>1601</ele>
        <time>2021-09-20T12:31:23Z</time>
      </trkpt>
      <trkpt lat="44.70515" lon="5.99263">
        <ele>1601</ele>
        <time>2021-09-20T12:31:24Z</time>
      </trkpt>
      <trkpt lat="44.70516" lon="5.99264">
        <ele>1601</ele>
        <time>2021-09-20T12:31:25Z</time>
      </trkpt>
      <trkpt lat="44.70516" lon="5.99265">
        <ele>1601</ele>
        <time>2021-09-20T12:31:26Z</time>
      </trkpt>
      <trkpt lat="44.70516" lon="5.99266">
        <ele>1601</ele>
        <time>2021-09-20T12:31:27Z</time>
      </trkpt>
      <trkpt lat="44.70517" lon="5.99267">
        <ele>1600</ele>
        <time>2021-09-20T12:31:28Z</time>
      </trkpt>
      <trkpt lat="44.70517" lon="5.99268">
        <ele>1600</ele>
        <time>2021-09-20T12:31:29Z</time>
      </trkpt>
      <trkpt lat="44.70517" lon="5.99269">
        <ele>1600</ele>
        <time>2021-09-20T12:31:30Z</time>
      </trkpt>
      <trkpt lat="44.70518" lon="5.9927">
        <ele>1600</ele>
        <time>2021-09-20T12:31:31Z</time>
      </trkpt>
      <trkpt lat="44.70518" lon="5.99271">
        <ele>1600</ele>
        <time>2021-09-20T12:31:32Z</time>
      </trkpt>
      <trkpt lat="44.70518" lon="5.99272">
        <ele>1599</ele>
        <time>2021-09-20T12:31:33Z</time>
      </trkpt>
      <trkpt lat="44.70519" lon="5.99272">
        <ele>1599</ele>
        <time>2021-09-20T12:31:34Z</time>
      </trkpt>
      <trkpt lat="44.70519" lon="5.99273">
        <ele>1599</ele>
        <time>2021-09-20T12:31:35Z</time>
      </trkpt>
      <trkpt lat="44.70519" lon="5.99273">
        <ele>1599</ele>
        <time>2021-09-20T12:31:36Z</time>
      </trkpt>
      <trkpt lat="44.70519" lon="5.99273">
        <ele>1599</ele>
        <time>2021-09-20T12:31:37Z</time>
      </trkpt>
      <trkpt lat="44.7052" lon="5.99274">
        <ele>1598</ele>
        <time>2021-09-20T12:31:38Z</time>
      </trkpt>
      <trkpt lat="44.7052" lon="5.99275">
        <ele>1598</ele>
        <time>2021-09-20T12:31:39Z</time>
      </trkpt>
      <trkpt lat="44.70521" lon="5.99276">
        <ele>1598</ele>
        <time>2021-09-20T12:31:40Z</time>
      </trkpt>
      <trkpt lat="44.70521" lon="5.99276">
        <ele>1598</ele>
        <time>2021-09-20T12:31:41Z</time>
      </trkpt>
      <trkpt lat="44.70521" lon="5.99277">
        <ele>1598</ele>
        <time>2021-09-20T12:31:42Z</time>
      </trkpt>
      <trkpt lat="44.70522" lon="5.99278">
        <ele>1597</ele>
        <time>2021-09-20T12:31:43Z</time>
      </trkpt>
      <trkpt lat="44.70522" lon="5.99279">
        <ele>1597</ele>
        <time>2021-09-20T12:31:44Z</time>
      </trkpt>
      <trkpt lat="44.70522" lon="5.9928">
        <ele>1597</ele>
        <time>2021-09-20T12:31:45Z</time>
      </trkpt>
      <trkpt lat="44.70523" lon="5.9928">
        <ele>1597</ele>
        <time>2021-09-20T12:31:46Z</time>
      </trkpt>
      <trkpt lat="44.70523" lon="5.99281">
        <ele>1597</ele>
        <time>2021-09-20T12:31:47Z</time>
      </trkpt>
      <trkpt lat="44.70523" lon="5.99282">
        <ele>1597</ele>
        <time>2021-09-20T12:31:48Z</time>
      </trkpt>
      <trkpt lat="44.70523" lon="5.99283">
        <ele>1597</ele>
        <time>2021-09-20T12:31:49Z</time>
      </trkpt>
      <trkpt lat="44.70523" lon="5.99283">
        <ele>1597</ele>
        <time>2021-09-20T12:31:50Z</time>
      </trkpt>
      <trkpt lat="44.70523" lon="5.99284">
        <ele>1597</ele>
        <time>2021-09-20T12:31:51Z</time>
      </trkpt>
      <trkpt lat="44.70523" lon="5.99284">
        <ele>1597</ele>
        <time>2021-09-20T12:31:52Z</time>
      </trkpt>
      <trkpt lat="44.70523" lon="5.99285">
        <ele>1596</ele>
        <time>2021-09-20T12:31:53Z</time>
      </trkpt>
      <trkpt lat="44.70523" lon="5.99286">
        <ele>1596</ele>
        <time>2021-09-20T12:31:54Z</time>
      </trkpt>
      <trkpt lat="44.70523" lon="5.99286">
        <ele>1595</ele>
        <time>2021-09-20T12:31:55Z</time>
      </trkpt>
      <trkpt lat="44.70523" lon="5.99287">
        <ele>1595</ele>
        <time>2021-09-20T12:31:56Z</time>
      </trkpt>
      <trkpt lat="44.70523" lon="5.99288">
        <ele>1595</ele>
        <time>2021-09-20T12:31:57Z</time>
      </trkpt>
      <trkpt lat="44.70524" lon="5.99289">
        <ele>1594</ele>
        <time>2021-09-20T12:31:58Z</time>
      </trkpt>
      <trkpt lat="44.70525" lon="5.99291">
        <ele>1593</ele>
        <time>2021-09-20T12:32:08Z</time>
      </trkpt>
      <trkpt lat="44.70525" lon="5.99293">
        <ele>1593</ele>
        <time>2021-09-20T12:32:09Z</time>
      </trkpt>
      <trkpt lat="44.70525" lon="5.99294">
        <ele>1593</ele>
        <time>2021-09-20T12:32:10Z</time>
      </trkpt>
      <trkpt lat="44.70525" lon="5.99295">
        <ele>1593</ele>
        <time>2021-09-20T12:32:11Z</time>
      </trkpt>
      <trkpt lat="44.70525" lon="5.99296">
        <ele>1593</ele>
        <time>2021-09-20T12:32:12Z</time>
      </trkpt>
      <trkpt lat="44.70525" lon="5.99297">
        <ele>1592</ele>
        <time>2021-09-20T12:32:13Z</time>
      </trkpt>
      <trkpt lat="44.70525" lon="5.99298">
        <ele>1592</ele>
        <time>2021-09-20T12:32:14Z</time>
      </trkpt>
      <trkpt lat="44.70525" lon="5.99299">
        <ele>1591</ele>
        <time>2021-09-20T12:32:15Z</time>
      </trkpt>
      <trkpt lat="44.70525" lon="5.993">
        <ele>1591</ele>
        <time>2021-09-20T12:32:16Z</time>
      </trkpt>
      <trkpt lat="44.70525" lon="5.99302">
        <ele>1591</ele>
        <time>2021-09-20T12:32:17Z</time>
      </trkpt>
      <trkpt lat="44.70525" lon="5.99303">
        <ele>1590</ele>
        <time>2021-09-20T12:32:18Z</time>
      </trkpt>
      <trkpt lat="44.70525" lon="5.99304">
        <ele>1590</ele>
        <time>2021-09-20T12:32:19Z</time>
      </trkpt>
      <trkpt lat="44.70525" lon="5.99306">
        <ele>1590</ele>
        <time>2021-09-20T12:32:20Z</time>
      </trkpt>
      <trkpt lat="44.70525" lon="5.99307">
        <ele>1590</ele>
        <time>2021-09-20T12:32:21Z</time>
      </trkpt>
      <trkpt lat="44.70525" lon="5.99308">
        <ele>1590</ele>
        <time>2021-09-20T12:32:22Z</time>
      </trkpt>
      <trkpt lat="44.70524" lon="5.99309">
        <ele>1589</ele>
        <time>2021-09-20T12:32:23Z</time>
      </trkpt>
      <trkpt lat="44.70524" lon="5.9931">
        <ele>1589</ele>
        <time>2021-09-20T12:32:24Z</time>
      </trkpt>
      <trkpt lat="44.70524" lon="5.99311">
        <ele>1589</ele>
        <time>2021-09-20T12:32:25Z</time>
      </trkpt>
      <trkpt lat="44.70523" lon="5.99313">
        <ele>1589</ele>
        <time>2021-09-20T12:32:26Z</time>
      </trkpt>
      <trkpt lat="44.70523" lon="5.99314">
        <ele>1589</ele>
        <time>2021-09-20T12:32:27Z</time>
      </trkpt>
      <trkpt lat="44.70523" lon="5.99315">
        <ele>1589</ele>
        <time>2021-09-20T12:32:28Z</time>
      </trkpt>
      <trkpt lat="44.70523" lon="5.99317">
        <ele>1589</ele>
        <time>2021-09-20T12:32:29Z</time>
      </trkpt>
      <trkpt lat="44.70523" lon="5.99318">
        <ele>1589</ele>
        <time>2021-09-20T12:32:30Z</time>
      </trkpt>
      <trkpt lat="44.70523" lon="5.9932">
        <ele>1589</ele>
        <time>2021-09-20T12:32:31Z</time>
      </trkpt>
      <trkpt lat="44.70523" lon="5.99321">
        <ele>1589</ele>
        <time>2021-09-20T12:32:32Z</time>
      </trkpt>
      <trkpt lat="44.70523" lon="5.99322">
        <ele>1588</ele>
        <time>2021-09-20T12:32:33Z</time>
      </trkpt>
      <trkpt lat="44.70522" lon="5.99323">
        <ele>1588</ele>
        <time>2021-09-20T12:32:34Z</time>
      </trkpt>
      <trkpt lat="44.70522" lon="5.99325">
        <ele>1588</ele>
        <time>2021-09-20T12:32:35Z</time>
      </trkpt>
      <trkpt lat="44.70522" lon="5.99325">
        <ele>1588</ele>
        <time>2021-09-20T12:32:36Z</time>
      </trkpt>
      <trkpt lat="44.70522" lon="5.99326">
        <ele>1588</ele>
        <time>2021-09-20T12:32:37Z</time>
      </trkpt>
      <trkpt lat="44.70521" lon="5.99327">
        <ele>1587</ele>
        <time>2021-09-20T12:32:38Z</time>
      </trkpt>
      <trkpt lat="44.70521" lon="5.99328">
        <ele>1587</ele>
        <time>2021-09-20T12:32:39Z</time>
      </trkpt>
      <trkpt lat="44.70521" lon="5.99329">
        <ele>1587</ele>
        <time>2021-09-20T12:32:40Z</time>
      </trkpt>
      <trkpt lat="44.7052" lon="5.99329">
        <ele>1587</ele>
        <time>2021-09-20T12:32:41Z</time>
      </trkpt>
      <trkpt lat="44.7052" lon="5.9933">
        <ele>1587</ele>
        <time>2021-09-20T12:32:42Z</time>
      </trkpt>
      <trkpt lat="44.70519" lon="5.99331">
        <ele>1587</ele>
        <time>2021-09-20T12:32:43Z</time>
      </trkpt>
      <trkpt lat="44.70519" lon="5.99332">
        <ele>1587</ele>
        <time>2021-09-20T12:32:44Z</time>
      </trkpt>
      <trkpt lat="44.70519" lon="5.99332">
        <ele>1587</ele>
        <time>2021-09-20T12:32:45Z</time>
      </trkpt>
      <trkpt lat="44.70519" lon="5.99333">
        <ele>1587</ele>
        <time>2021-09-20T12:32:46Z</time>
      </trkpt>
      <trkpt lat="44.70519" lon="5.99334">
        <ele>1587</ele>
        <time>2021-09-20T12:32:47Z</time>
      </trkpt>
      <trkpt lat="44.70519" lon="5.99335">
        <ele>1587</ele>
        <time>2021-09-20T12:32:48Z</time>
      </trkpt>
      <trkpt lat="44.70518" lon="5.99336">
        <ele>1587</ele>
        <time>2021-09-20T12:32:49Z</time>
      </trkpt>
      <trkpt lat="44.70518" lon="5.99338">
        <ele>1587</ele>
        <time>2021-09-20T12:32:50Z</time>
      </trkpt>
      <trkpt lat="44.70518" lon="5.99339">
        <ele>1587</ele>
        <time>2021-09-20T12:32:51Z</time>
      </trkpt>
      <trkpt lat="44.70518" lon="5.9934">
        <ele>1587</ele>
        <time>2021-09-20T12:32:52Z</time>
      </trkpt>
      <trkpt lat="44.70518" lon="5.99342">
        <ele>1586</ele>
        <time>2021-09-20T12:32:53Z</time>
      </trkpt>
      <trkpt lat="44.70517" lon="5.99343">
        <ele>1586</ele>
        <time>2021-09-20T12:32:54Z</time>
      </trkpt>
      <trkpt lat="44.70517" lon="5.99344">
        <ele>1586</ele>
        <time>2021-09-20T12:32:55Z</time>
      </trkpt>
      <trkpt lat="44.70517" lon="5.99346">
        <ele>1586</ele>
        <time>2021-09-20T12:32:56Z</time>
      </trkpt>
      <trkpt lat="44.70517" lon="5.99347">
        <ele>1586</ele>
        <time>2021-09-20T12:32:57Z</time>
      </trkpt>
      <trkpt lat="44.70516" lon="5.99348">
        <ele>1586</ele>
        <time>2021-09-20T12:32:58Z</time>
      </trkpt>
      <trkpt lat="44.70515" lon="5.9935">
        <ele>1586</ele>
        <time>2021-09-20T12:32:59Z</time>
      </trkpt>
      <trkpt lat="44.70515" lon="5.99351">
        <ele>1586</ele>
        <time>2021-09-20T12:33:00Z</time>
      </trkpt>
      <trkpt lat="44.70514" lon="5.99352">
        <ele>1586</ele>
        <time>2021-09-20T12:33:01Z</time>
      </trkpt>
      <trkpt lat="44.70513" lon="5.99353">
        <ele>1586</ele>
        <time>2021-09-20T12:33:02Z</time>
      </trkpt>
      <trkpt lat="44.70512" lon="5.99353">
        <ele>1585</ele>
        <time>2021-09-20T12:33:03Z</time>
      </trkpt>
      <trkpt lat="44.70511" lon="5.99354">
        <ele>1585</ele>
        <time>2021-09-20T12:33:04Z</time>
      </trkpt>
      <trkpt lat="44.7051" lon="5.99355">
        <ele>1585</ele>
        <time>2021-09-20T12:33:05Z</time>
      </trkpt>
      <trkpt lat="44.70509" lon="5.99356">
        <ele>1585</ele>
        <time>2021-09-20T12:33:06Z</time>
      </trkpt>
      <trkpt lat="44.70509" lon="5.99356">
        <ele>1585</ele>
        <time>2021-09-20T12:33:07Z</time>
      </trkpt>
      <trkpt lat="44.70508" lon="5.99357">
        <ele>1584</ele>
        <time>2021-09-20T12:33:08Z</time>
      </trkpt>
      <trkpt lat="44.70507" lon="5.99358">
        <ele>1584</ele>
        <time>2021-09-20T12:33:09Z</time>
      </trkpt>
      <trkpt lat="44.70507" lon="5.99359">
        <ele>1584</ele>
        <time>2021-09-20T12:33:10Z</time>
      </trkpt>
      <trkpt lat="44.70507" lon="5.9936">
        <ele>1584</ele>
        <time>2021-09-20T12:33:11Z</time>
      </trkpt>
      <trkpt lat="44.70506" lon="5.99361">
        <ele>1584</ele>
        <time>2021-09-20T12:33:12Z</time>
      </trkpt>
      <trkpt lat="44.70506" lon="5.99363">
        <ele>1583</ele>
        <time>2021-09-20T12:33:13Z</time>
      </trkpt>
      <trkpt lat="44.70506" lon="5.99364">
        <ele>1583</ele>
        <time>2021-09-20T12:33:14Z</time>
      </trkpt>
      <trkpt lat="44.70506" lon="5.99365">
        <ele>1583</ele>
        <time>2021-09-20T12:33:15Z</time>
      </trkpt>
      <trkpt lat="44.70505" lon="5.99366">
        <ele>1583</ele>
        <time>2021-09-20T12:33:16Z</time>
      </trkpt>
      <trkpt lat="44.70505" lon="5.99368">
        <ele>1583</ele>
        <time>2021-09-20T12:33:17Z</time>
      </trkpt>
      <trkpt lat="44.70505" lon="5.99369">
        <ele>1582</ele>
        <time>2021-09-20T12:33:18Z</time>
      </trkpt>
      <trkpt lat="44.70505" lon="5.9937">
        <ele>1582</ele>
        <time>2021-09-20T12:33:19Z</time>
      </trkpt>
      <trkpt lat="44.70505" lon="5.99371">
        <ele>1582</ele>
        <time>2021-09-20T12:33:20Z</time>
      </trkpt>
      <trkpt lat="44.70504" lon="5.99371">
        <ele>1582</ele>
        <time>2021-09-20T12:33:21Z</time>
      </trkpt>
      <trkpt lat="44.70504" lon="5.99372">
        <ele>1582</ele>
        <time>2021-09-20T12:33:22Z</time>
      </trkpt>
      <trkpt lat="44.70504" lon="5.99372">
        <ele>1581</ele>
        <time>2021-09-20T12:33:23Z</time>
      </trkpt>
      <trkpt lat="44.70503" lon="5.99373">
        <ele>1581</ele>
        <time>2021-09-20T12:33:24Z</time>
      </trkpt>
      <trkpt lat="44.70503" lon="5.99374">
        <ele>1581</ele>
        <time>2021-09-20T12:33:25Z</time>
      </trkpt>
      <trkpt lat="44.70503" lon="5.99375">
        <ele>1581</ele>
        <time>2021-09-20T12:33:26Z</time>
      </trkpt>
      <trkpt lat="44.70503" lon="5.99376">
        <ele>1581</ele>
        <time>2021-09-20T12:33:27Z</time>
      </trkpt>
      <trkpt lat="44.70503" lon="5.99377">
        <ele>1581</ele>
        <time>2021-09-20T12:33:28Z</time>
      </trkpt>
      <trkpt lat="44.70503" lon="5.99378">
        <ele>1581</ele>
        <time>2021-09-20T12:33:29Z</time>
      </trkpt>
      <trkpt lat="44.70503" lon="5.99379">
        <ele>1581</ele>
        <time>2021-09-20T12:33:30Z</time>
      </trkpt>
      <trkpt lat="44.70502" lon="5.9938">
        <ele>1581</ele>
        <time>2021-09-20T12:33:31Z</time>
      </trkpt>
      <trkpt lat="44.70503" lon="5.99382">
        <ele>1581</ele>
        <time>2021-09-20T12:33:32Z</time>
      </trkpt>
      <trkpt lat="44.70503" lon="5.99383">
        <ele>1580</ele>
        <time>2021-09-20T12:33:33Z</time>
      </trkpt>
      <trkpt lat="44.70503" lon="5.99385">
        <ele>1580</ele>
        <time>2021-09-20T12:33:34Z</time>
      </trkpt>
      <trkpt lat="44.70503" lon="5.99386">
        <ele>1580</ele>
        <time>2021-09-20T12:33:35Z</time>
      </trkpt>
      <trkpt lat="44.70503" lon="5.99388">
        <ele>1580</ele>
        <time>2021-09-20T12:33:36Z</time>
      </trkpt>
      <trkpt lat="44.70503" lon="5.99389">
        <ele>1580</ele>
        <time>2021-09-20T12:33:37Z</time>
      </trkpt>
      <trkpt lat="44.70503" lon="5.99391">
        <ele>1579</ele>
        <time>2021-09-20T12:33:38Z</time>
      </trkpt>
      <trkpt lat="44.70503" lon="5.99392">
        <ele>1579</ele>
        <time>2021-09-20T12:33:39Z</time>
      </trkpt>
      <trkpt lat="44.70502" lon="5.99393">
        <ele>1579</ele>
        <time>2021-09-20T12:33:40Z</time>
      </trkpt>
      <trkpt lat="44.70502" lon="5.99393">
        <ele>1579</ele>
        <time>2021-09-20T12:33:41Z</time>
      </trkpt>
      <trkpt lat="44.70501" lon="5.99394">
        <ele>1579</ele>
        <time>2021-09-20T12:33:42Z</time>
      </trkpt>
      <trkpt lat="44.70501" lon="5.99395">
        <ele>1579</ele>
        <time>2021-09-20T12:33:43Z</time>
      </trkpt>
      <trkpt lat="44.705" lon="5.99395">
        <ele>1579</ele>
        <time>2021-09-20T12:33:44Z</time>
      </trkpt>
      <trkpt lat="44.705" lon="5.99396">
        <ele>1579</ele>
        <time>2021-09-20T12:33:45Z</time>
      </trkpt>
      <trkpt lat="44.70499" lon="5.99396">
        <ele>1579</ele>
        <time>2021-09-20T12:33:46Z</time>
      </trkpt>
      <trkpt lat="44.70499" lon="5.99397">
        <ele>1579</ele>
        <time>2021-09-20T12:33:47Z</time>
      </trkpt>
      <trkpt lat="44.70498" lon="5.99398">
        <ele>1579</ele>
        <time>2021-09-20T12:33:48Z</time>
      </trkpt>
      <trkpt lat="44.70498" lon="5.99399">
        <ele>1579</ele>
        <time>2021-09-20T12:33:49Z</time>
      </trkpt>
      <trkpt lat="44.70497" lon="5.994">
        <ele>1579</ele>
        <time>2021-09-20T12:33:50Z</time>
      </trkpt>
      <trkpt lat="44.70497" lon="5.99401">
        <ele>1579</ele>
        <time>2021-09-20T12:33:51Z</time>
      </trkpt>
      <trkpt lat="44.70497" lon="5.99402">
        <ele>1579</ele>
        <time>2021-09-20T12:33:52Z</time>
      </trkpt>
      <trkpt lat="44.70497" lon="5.99403">
        <ele>1578</ele>
        <time>2021-09-20T12:33:53Z</time>
      </trkpt>
      <trkpt lat="44.70497" lon="5.99404">
        <ele>1578</ele>
        <time>2021-09-20T12:33:54Z</time>
      </trkpt>
      <trkpt lat="44.70496" lon="5.99405">
        <ele>1578</ele>
        <time>2021-09-20T12:33:55Z</time>
      </trkpt>
      <trkpt lat="44.70496" lon="5.99407">
        <ele>1578</ele>
        <time>2021-09-20T12:33:56Z</time>
      </trkpt>
      <trkpt lat="44.70496" lon="5.99408">
        <ele>1578</ele>
        <time>2021-09-20T12:33:57Z</time>
      </trkpt>
      <trkpt lat="44.70495" lon="5.99409">
        <ele>1578</ele>
        <time>2021-09-20T12:33:58Z</time>
      </trkpt>
      <trkpt lat="44.70495" lon="5.9941">
        <ele>1578</ele>
        <time>2021-09-20T12:33:59Z</time>
      </trkpt>
      <trkpt lat="44.70495" lon="5.99411">
        <ele>1578</ele>
        <time>2021-09-20T12:34:00Z</time>
      </trkpt>
      <trkpt lat="44.70495" lon="5.99412">
        <ele>1578</ele>
        <time>2021-09-20T12:34:01Z</time>
      </trkpt>
      <trkpt lat="44.70495" lon="5.99413">
        <ele>1578</ele>
        <time>2021-09-20T12:34:02Z</time>
      </trkpt>
      <trkpt lat="44.70495" lon="5.99415">
        <ele>1577</ele>
        <time>2021-09-20T12:34:03Z</time>
      </trkpt>
      <trkpt lat="44.70495" lon="5.99416">
        <ele>1577</ele>
        <time>2021-09-20T12:34:04Z</time>
      </trkpt>
      <trkpt lat="44.70494" lon="5.99417">
        <ele>1577</ele>
        <time>2021-09-20T12:34:05Z</time>
      </trkpt>
      <trkpt lat="44.70494" lon="5.99418">
        <ele>1577</ele>
        <time>2021-09-20T12:34:06Z</time>
      </trkpt>
      <trkpt lat="44.70494" lon="5.99419">
        <ele>1577</ele>
        <time>2021-09-20T12:34:07Z</time>
      </trkpt>
      <trkpt lat="44.70493" lon="5.9942">
        <ele>1576</ele>
        <time>2021-09-20T12:34:08Z</time>
      </trkpt>
      <trkpt lat="44.70493" lon="5.99421">
        <ele>1576</ele>
        <time>2021-09-20T12:34:09Z</time>
      </trkpt>
      <trkpt lat="44.70493" lon="5.99421">
        <ele>1576</ele>
        <time>2021-09-20T12:34:10Z</time>
      </trkpt>
      <trkpt lat="44.70493" lon="5.99422">
        <ele>1576</ele>
        <time>2021-09-20T12:34:11Z</time>
      </trkpt>
      <trkpt lat="44.70493" lon="5.99423">
        <ele>1576</ele>
        <time>2021-09-20T12:34:12Z</time>
      </trkpt>
      <trkpt lat="44.70492" lon="5.99424">
        <ele>1576</ele>
        <time>2021-09-20T12:34:13Z</time>
      </trkpt>
      <trkpt lat="44.70492" lon="5.99425">
        <ele>1576</ele>
        <time>2021-09-20T12:34:14Z</time>
      </trkpt>
      <trkpt lat="44.70491" lon="5.99426">
        <ele>1576</ele>
        <time>2021-09-20T12:34:15Z</time>
      </trkpt>
      <trkpt lat="44.7049" lon="5.99427">
        <ele>1576</ele>
        <time>2021-09-20T12:34:16Z</time>
      </trkpt>
      <trkpt lat="44.7049" lon="5.99428">
        <ele>1576</ele>
        <time>2021-09-20T12:34:17Z</time>
      </trkpt>
      <trkpt lat="44.70489" lon="5.99429">
        <ele>1575</ele>
        <time>2021-09-20T12:34:18Z</time>
      </trkpt>
      <trkpt lat="44.70488" lon="5.9943">
        <ele>1575</ele>
        <time>2021-09-20T12:34:19Z</time>
      </trkpt>
      <trkpt lat="44.70488" lon="5.99431">
        <ele>1574</ele>
        <time>2021-09-20T12:34:20Z</time>
      </trkpt>
      <trkpt lat="44.70487" lon="5.99432">
        <ele>1574</ele>
        <time>2021-09-20T12:34:21Z</time>
      </trkpt>
      <trkpt lat="44.70486" lon="5.99433">
        <ele>1574</ele>
        <time>2021-09-20T12:34:22Z</time>
      </trkpt>
      <trkpt lat="44.70485" lon="5.99436">
        <ele>1569</ele>
        <time>2021-09-20T12:35:24Z</time>
      </trkpt>
      <trkpt lat="44.70484" lon="5.99438">
        <ele>1569</ele>
        <time>2021-09-20T12:35:25Z</time>
      </trkpt>
      <trkpt lat="44.70484" lon="5.99439">
        <ele>1569</ele>
        <time>2021-09-20T12:35:26Z</time>
      </trkpt>
      <trkpt lat="44.70484" lon="5.9944">
        <ele>1569</ele>
        <time>2021-09-20T12:35:27Z</time>
      </trkpt>
      <trkpt lat="44.70484" lon="5.9944">
        <ele>1569</ele>
        <time>2021-09-20T12:35:28Z</time>
      </trkpt>
      <trkpt lat="44.70485" lon="5.9944">
        <ele>1569</ele>
        <time>2021-09-20T12:35:29Z</time>
      </trkpt>
      <trkpt lat="44.70485" lon="5.99441">
        <ele>1569</ele>
        <time>2021-09-20T12:35:30Z</time>
      </trkpt>
      <trkpt lat="44.70486" lon="5.99441">
        <ele>1569</ele>
        <time>2021-09-20T12:35:31Z</time>
      </trkpt>
      <trkpt lat="44.70486" lon="5.99441">
        <ele>1569</ele>
        <time>2021-09-20T12:35:32Z</time>
      </trkpt>
      <trkpt lat="44.70487" lon="5.99442">
        <ele>1568</ele>
        <time>2021-09-20T12:35:33Z</time>
      </trkpt>
      <trkpt lat="44.70487" lon="5.99442">
        <ele>1568</ele>
        <time>2021-09-20T12:35:34Z</time>
      </trkpt>
      <trkpt lat="44.70487" lon="5.99443">
        <ele>1568</ele>
        <time>2021-09-20T12:35:35Z</time>
      </trkpt>
      <trkpt lat="44.70487" lon="5.99443">
        <ele>1568</ele>
        <time>2021-09-20T12:35:36Z</time>
      </trkpt>
      <trkpt lat="44.70486" lon="5.99444">
        <ele>1568</ele>
        <time>2021-09-20T12:35:37Z</time>
      </trkpt>
      <trkpt lat="44.70486" lon="5.99445">
        <ele>1567</ele>
        <time>2021-09-20T12:35:38Z</time>
      </trkpt>
      <trkpt lat="44.70485" lon="5.99445">
        <ele>1567</ele>
        <time>2021-09-20T12:35:39Z</time>
      </trkpt>
      <trkpt lat="44.70485" lon="5.99446">
        <ele>1567</ele>
        <time>2021-09-20T12:35:40Z</time>
      </trkpt>
      <trkpt lat="44.70484" lon="5.99447">
        <ele>1566</ele>
        <time>2021-09-20T12:36:10Z</time>
      </trkpt>
      <trkpt lat="44.70483" lon="5.99448">
        <ele>1566</ele>
        <time>2021-09-20T12:36:11Z</time>
      </trkpt>
      <trkpt lat="44.70483" lon="5.99448">
        <ele>1566</ele>
        <time>2021-09-20T12:36:12Z</time>
      </trkpt>
      <trkpt lat="44.70482" lon="5.99451">
        <ele>1566</ele>
        <time>2021-09-20T12:36:19Z</time>
      </trkpt>
      <trkpt lat="44.70481" lon="5.99452">
        <ele>1566</ele>
        <time>2021-09-20T12:36:20Z</time>
      </trkpt>
      <trkpt lat="44.70481" lon="5.99453">
        <ele>1566</ele>
        <time>2021-09-20T12:36:21Z</time>
      </trkpt>
      <trkpt lat="44.70481" lon="5.99454">
        <ele>1566</ele>
        <time>2021-09-20T12:36:22Z</time>
      </trkpt>
      <trkpt lat="44.7048" lon="5.99455">
        <ele>1565</ele>
        <time>2021-09-20T12:36:23Z</time>
      </trkpt>
      <trkpt lat="44.7048" lon="5.99456">
        <ele>1565</ele>
        <time>2021-09-20T12:36:24Z</time>
      </trkpt>
      <trkpt lat="44.70479" lon="5.99457">
        <ele>1565</ele>
        <time>2021-09-20T12:36:25Z</time>
      </trkpt>
      <trkpt lat="44.70479" lon="5.99458">
        <ele>1565</ele>
        <time>2021-09-20T12:36:26Z</time>
      </trkpt>
      <trkpt lat="44.70478" lon="5.99458">
        <ele>1565</ele>
        <time>2021-09-20T12:36:27Z</time>
      </trkpt>
      <trkpt lat="44.70478" lon="5.99459">
        <ele>1565</ele>
        <time>2021-09-20T12:36:28Z</time>
      </trkpt>
      <trkpt lat="44.70477" lon="5.99459">
        <ele>1565</ele>
        <time>2021-09-20T12:36:29Z</time>
      </trkpt>
      <trkpt lat="44.70477" lon="5.9946">
        <ele>1565</ele>
        <time>2021-09-20T12:36:30Z</time>
      </trkpt>
      <trkpt lat="44.70476" lon="5.99461">
        <ele>1565</ele>
        <time>2021-09-20T12:36:31Z</time>
      </trkpt>
      <trkpt lat="44.70475" lon="5.99462">
        <ele>1565</ele>
        <time>2021-09-20T12:36:32Z</time>
      </trkpt>
      <trkpt lat="44.70474" lon="5.99463">
        <ele>1564</ele>
        <time>2021-09-20T12:36:33Z</time>
      </trkpt>
      <trkpt lat="44.70474" lon="5.99463">
        <ele>1564</ele>
        <time>2021-09-20T12:36:34Z</time>
      </trkpt>
      <trkpt lat="44.70473" lon="5.99464">
        <ele>1564</ele>
        <time>2021-09-20T12:36:35Z</time>
      </trkpt>
      <trkpt lat="44.70473" lon="5.99464">
        <ele>1564</ele>
        <time>2021-09-20T12:36:36Z</time>
      </trkpt>
      <trkpt lat="44.70472" lon="5.99465">
        <ele>1564</ele>
        <time>2021-09-20T12:36:37Z</time>
      </trkpt>
      <trkpt lat="44.70472" lon="5.99466">
        <ele>1564</ele>
        <time>2021-09-20T12:36:38Z</time>
      </trkpt>
      <trkpt lat="44.70471" lon="5.99466">
        <ele>1564</ele>
        <time>2021-09-20T12:36:39Z</time>
      </trkpt>
      <trkpt lat="44.7047" lon="5.99467">
        <ele>1564</ele>
        <time>2021-09-20T12:36:40Z</time>
      </trkpt>
      <trkpt lat="44.7047" lon="5.99467">
        <ele>1564</ele>
        <time>2021-09-20T12:36:41Z</time>
      </trkpt>
      <trkpt lat="44.70469" lon="5.99468">
        <ele>1564</ele>
        <time>2021-09-20T12:36:42Z</time>
      </trkpt>
      <trkpt lat="44.70468" lon="5.99468">
        <ele>1563</ele>
        <time>2021-09-20T12:36:43Z</time>
      </trkpt>
      <trkpt lat="44.70468" lon="5.99469">
        <ele>1563</ele>
        <time>2021-09-20T12:36:44Z</time>
      </trkpt>
      <trkpt lat="44.70467" lon="5.9947">
        <ele>1563</ele>
        <time>2021-09-20T12:36:45Z</time>
      </trkpt>
      <trkpt lat="44.70466" lon="5.9947">
        <ele>1563</ele>
        <time>2021-09-20T12:36:46Z</time>
      </trkpt>
      <trkpt lat="44.70466" lon="5.9947">
        <ele>1563</ele>
        <time>2021-09-20T12:36:47Z</time>
      </trkpt>
      <trkpt lat="44.70466" lon="5.99472">
        <ele>1563</ele>
        <time>2021-09-20T12:36:57Z</time>
      </trkpt>
      <trkpt lat="44.70465" lon="5.99473">
        <ele>1563</ele>
        <time>2021-09-20T12:36:58Z</time>
      </trkpt>
      <trkpt lat="44.70465" lon="5.99474">
        <ele>1563</ele>
        <time>2021-09-20T12:36:59Z</time>
      </trkpt>
      <trkpt lat="44.70465" lon="5.99475">
        <ele>1563</ele>
        <time>2021-09-20T12:37:00Z</time>
      </trkpt>
      <trkpt lat="44.70465" lon="5.99476">
        <ele>1563</ele>
        <time>2021-09-20T12:37:01Z</time>
      </trkpt>
      <trkpt lat="44.70464" lon="5.99477">
        <ele>1563</ele>
        <time>2021-09-20T12:37:02Z</time>
      </trkpt>
      <trkpt lat="44.70464" lon="5.99478">
        <ele>1562</ele>
        <time>2021-09-20T12:37:03Z</time>
      </trkpt>
      <trkpt lat="44.70463" lon="5.99479">
        <ele>1561</ele>
        <time>2021-09-20T12:37:18Z</time>
      </trkpt>
      <trkpt lat="44.70463" lon="5.9948">
        <ele>1561</ele>
        <time>2021-09-20T12:37:19Z</time>
      </trkpt>
      <trkpt lat="44.70462" lon="5.99481">
        <ele>1561</ele>
        <time>2021-09-20T12:37:20Z</time>
      </trkpt>
      <trkpt lat="44.70462" lon="5.99482">
        <ele>1561</ele>
        <time>2021-09-20T12:37:21Z</time>
      </trkpt>
      <trkpt lat="44.70461" lon="5.99483">
        <ele>1561</ele>
        <time>2021-09-20T12:37:22Z</time>
      </trkpt>
      <trkpt lat="44.70461" lon="5.99485">
        <ele>1560</ele>
        <time>2021-09-20T12:37:28Z</time>
      </trkpt>
      <trkpt lat="44.7046" lon="5.99487">
        <ele>1560</ele>
        <time>2021-09-20T12:37:29Z</time>
      </trkpt>
      <trkpt lat="44.7046" lon="5.99488">
        <ele>1560</ele>
        <time>2021-09-20T12:37:30Z</time>
      </trkpt>
      <trkpt lat="44.70459" lon="5.99489">
        <ele>1560</ele>
        <time>2021-09-20T12:37:31Z</time>
      </trkpt>
      <trkpt lat="44.70459" lon="5.99491">
        <ele>1560</ele>
        <time>2021-09-20T12:37:32Z</time>
      </trkpt>
      <trkpt lat="44.70459" lon="5.99491">
        <ele>1560</ele>
        <time>2021-09-20T12:37:33Z</time>
      </trkpt>
      <trkpt lat="44.70459" lon="5.99491">
        <ele>1560</ele>
        <time>2021-09-20T12:37:34Z</time>
      </trkpt>
      <trkpt lat="44.70458" lon="5.99491">
        <ele>1560</ele>
        <time>2021-09-20T12:37:35Z</time>
      </trkpt>
      <trkpt lat="44.70458" lon="5.99492">
        <ele>1560</ele>
        <time>2021-09-20T12:37:36Z</time>
      </trkpt>
      <trkpt lat="44.70458" lon="5.99493">
        <ele>1560</ele>
        <time>2021-09-20T12:37:37Z</time>
      </trkpt>
      <trkpt lat="44.70457" lon="5.99494">
        <ele>1560</ele>
        <time>2021-09-20T12:37:38Z</time>
      </trkpt>
      <trkpt lat="44.70457" lon="5.99495">
        <ele>1560</ele>
        <time>2021-09-20T12:37:39Z</time>
      </trkpt>
      <trkpt lat="44.70456" lon="5.99495">
        <ele>1560</ele>
        <time>2021-09-20T12:37:40Z</time>
      </trkpt>
      <trkpt lat="44.70455" lon="5.99496">
        <ele>1560</ele>
        <time>2021-09-20T12:37:41Z</time>
      </trkpt>
      <trkpt lat="44.70455" lon="5.99497">
        <ele>1560</ele>
        <time>2021-09-20T12:37:42Z</time>
      </trkpt>
      <trkpt lat="44.70454" lon="5.99498">
        <ele>1559</ele>
        <time>2021-09-20T12:37:43Z</time>
      </trkpt>
      <trkpt lat="44.70453" lon="5.99499">
        <ele>1559</ele>
        <time>2021-09-20T12:37:44Z</time>
      </trkpt>
      <trkpt lat="44.70453" lon="5.99499">
        <ele>1559</ele>
        <time>2021-09-20T12:37:45Z</time>
      </trkpt>
      <trkpt lat="44.70452" lon="5.995">
        <ele>1559</ele>
        <time>2021-09-20T12:37:46Z</time>
      </trkpt>
      <trkpt lat="44.70452" lon="5.99501">
        <ele>1559</ele>
        <time>2021-09-20T12:37:47Z</time>
      </trkpt>
      <trkpt lat="44.70452" lon="5.99502">
        <ele>1559</ele>
        <time>2021-09-20T12:37:48Z</time>
      </trkpt>
      <trkpt lat="44.70451" lon="5.99503">
        <ele>1559</ele>
        <time>2021-09-20T12:37:49Z</time>
      </trkpt>
      <trkpt lat="44.70451" lon="5.99503">
        <ele>1559</ele>
        <time>2021-09-20T12:37:50Z</time>
      </trkpt>
      <trkpt lat="44.7045" lon="5.99504">
        <ele>1559</ele>
        <time>2021-09-20T12:37:51Z</time>
      </trkpt>
      <trkpt lat="44.7045" lon="5.99505">
        <ele>1559</ele>
        <time>2021-09-20T12:37:52Z</time>
      </trkpt>
      <trkpt lat="44.70449" lon="5.99505">
        <ele>1558</ele>
        <time>2021-09-20T12:37:53Z</time>
      </trkpt>
      <trkpt lat="44.70449" lon="5.99506">
        <ele>1558</ele>
        <time>2021-09-20T12:37:54Z</time>
      </trkpt>
      <trkpt lat="44.70448" lon="5.99507">
        <ele>1558</ele>
        <time>2021-09-20T12:37:55Z</time>
      </trkpt>
      <trkpt lat="44.70447" lon="5.99508">
        <ele>1558</ele>
        <time>2021-09-20T12:37:56Z</time>
      </trkpt>
      <trkpt lat="44.70447" lon="5.99508">
        <ele>1558</ele>
        <time>2021-09-20T12:37:57Z</time>
      </trkpt>
      <trkpt lat="44.70446" lon="5.99509">
        <ele>1558</ele>
        <time>2021-09-20T12:37:58Z</time>
      </trkpt>
      <trkpt lat="44.70445" lon="5.99509">
        <ele>1558</ele>
        <time>2021-09-20T12:37:59Z</time>
      </trkpt>
      <trkpt lat="44.70445" lon="5.9951">
        <ele>1558</ele>
        <time>2021-09-20T12:38:00Z</time>
      </trkpt>
      <trkpt lat="44.70444" lon="5.9951">
        <ele>1558</ele>
        <time>2021-09-20T12:38:01Z</time>
      </trkpt>
      <trkpt lat="44.70443" lon="5.99511">
        <ele>1558</ele>
        <time>2021-09-20T12:38:02Z</time>
      </trkpt>
      <trkpt lat="44.70443" lon="5.99512">
        <ele>1558</ele>
        <time>2021-09-20T12:38:03Z</time>
      </trkpt>
      <trkpt lat="44.70442" lon="5.99512">
        <ele>1558</ele>
        <time>2021-09-20T12:38:04Z</time>
      </trkpt>
      <trkpt lat="44.70441" lon="5.99513">
        <ele>1558</ele>
        <time>2021-09-20T12:38:05Z</time>
      </trkpt>
      <trkpt lat="44.70441" lon="5.99514">
        <ele>1558</ele>
        <time>2021-09-20T12:38:06Z</time>
      </trkpt>
      <trkpt lat="44.7044" lon="5.99515">
        <ele>1558</ele>
        <time>2021-09-20T12:38:07Z</time>
      </trkpt>
      <trkpt lat="44.7044" lon="5.99516">
        <ele>1558</ele>
        <time>2021-09-20T12:38:08Z</time>
      </trkpt>
      <trkpt lat="44.70439" lon="5.99516">
        <ele>1558</ele>
        <time>2021-09-20T12:38:09Z</time>
      </trkpt>
      <trkpt lat="44.70439" lon="5.99517">
        <ele>1558</ele>
        <time>2021-09-20T12:38:10Z</time>
      </trkpt>
      <trkpt lat="44.70438" lon="5.99518">
        <ele>1558</ele>
        <time>2021-09-20T12:38:11Z</time>
      </trkpt>
      <trkpt lat="44.70437" lon="5.99519">
        <ele>1558</ele>
        <time>2021-09-20T12:38:12Z</time>
      </trkpt>
      <trkpt lat="44.70437" lon="5.9952">
        <ele>1557</ele>
        <time>2021-09-20T12:38:13Z</time>
      </trkpt>
      <trkpt lat="44.70436" lon="5.99521">
        <ele>1557</ele>
        <time>2021-09-20T12:38:14Z</time>
      </trkpt>
      <trkpt lat="44.70436" lon="5.99522">
        <ele>1557</ele>
        <time>2021-09-20T12:38:15Z</time>
      </trkpt>
      <trkpt lat="44.70435" lon="5.99523">
        <ele>1557</ele>
        <time>2021-09-20T12:38:16Z</time>
      </trkpt>
      <trkpt lat="44.70435" lon="5.99524">
        <ele>1557</ele>
        <time>2021-09-20T12:38:17Z</time>
      </trkpt>
      <trkpt lat="44.70434" lon="5.99525">
        <ele>1557</ele>
        <time>2021-09-20T12:38:18Z</time>
      </trkpt>
      <trkpt lat="44.70434" lon="5.99526">
        <ele>1557</ele>
        <time>2021-09-20T12:38:19Z</time>
      </trkpt>
      <trkpt lat="44.70433" lon="5.99527">
        <ele>1557</ele>
        <time>2021-09-20T12:38:20Z</time>
      </trkpt>
      <trkpt lat="44.70433" lon="5.99527">
        <ele>1557</ele>
        <time>2021-09-20T12:38:21Z</time>
      </trkpt>
      <trkpt lat="44.70432" lon="5.99528">
        <ele>1557</ele>
        <time>2021-09-20T12:38:22Z</time>
      </trkpt>
      <trkpt lat="44.70432" lon="5.99529">
        <ele>1556</ele>
        <time>2021-09-20T12:38:23Z</time>
      </trkpt>
      <trkpt lat="44.70431" lon="5.9953">
        <ele>1556</ele>
        <time>2021-09-20T12:38:24Z</time>
      </trkpt>
      <trkpt lat="44.70431" lon="5.99531">
        <ele>1556</ele>
        <time>2021-09-20T12:38:25Z</time>
      </trkpt>
      <trkpt lat="44.70431" lon="5.99533">
        <ele>1556</ele>
        <time>2021-09-20T12:38:26Z</time>
      </trkpt>
      <trkpt lat="44.7043" lon="5.99534">
        <ele>1556</ele>
        <time>2021-09-20T12:38:27Z</time>
      </trkpt>
      <trkpt lat="44.7043" lon="5.99535">
        <ele>1555</ele>
        <time>2021-09-20T12:38:28Z</time>
      </trkpt>
      <trkpt lat="44.7043" lon="5.99536">
        <ele>1555</ele>
        <time>2021-09-20T12:38:29Z</time>
      </trkpt>
      <trkpt lat="44.7043" lon="5.99537">
        <ele>1555</ele>
        <time>2021-09-20T12:38:30Z</time>
      </trkpt>
      <trkpt lat="44.7043" lon="5.99538">
        <ele>1555</ele>
        <time>2021-09-20T12:38:31Z</time>
      </trkpt>
      <trkpt lat="44.7043" lon="5.9954">
        <ele>1555</ele>
        <time>2021-09-20T12:38:32Z</time>
      </trkpt>
      <trkpt lat="44.7043" lon="5.99541">
        <ele>1554</ele>
        <time>2021-09-20T12:38:33Z</time>
      </trkpt>
      <trkpt lat="44.7043" lon="5.99542">
        <ele>1554</ele>
        <time>2021-09-20T12:38:34Z</time>
      </trkpt>
      <trkpt lat="44.70429" lon="5.99545">
        <ele>1553</ele>
        <time>2021-09-20T12:38:47Z</time>
      </trkpt>
      <trkpt lat="44.70428" lon="5.99546">
        <ele>1552</ele>
        <time>2021-09-20T12:38:48Z</time>
      </trkpt>
      <trkpt lat="44.70428" lon="5.99547">
        <ele>1552</ele>
        <time>2021-09-20T12:38:49Z</time>
      </trkpt>
      <trkpt lat="44.70428" lon="5.99548">
        <ele>1552</ele>
        <time>2021-09-20T12:38:50Z</time>
      </trkpt>
      <trkpt lat="44.70427" lon="5.99549">
        <ele>1552</ele>
        <time>2021-09-20T12:38:51Z</time>
      </trkpt>
      <trkpt lat="44.70427" lon="5.9955">
        <ele>1552</ele>
        <time>2021-09-20T12:38:52Z</time>
      </trkpt>
      <trkpt lat="44.70427" lon="5.99551">
        <ele>1552</ele>
        <time>2021-09-20T12:38:53Z</time>
      </trkpt>
      <trkpt lat="44.70427" lon="5.99552">
        <ele>1552</ele>
        <time>2021-09-20T12:38:54Z</time>
      </trkpt>
      <trkpt lat="44.70426" lon="5.99553">
        <ele>1552</ele>
        <time>2021-09-20T12:38:55Z</time>
      </trkpt>
      <trkpt lat="44.70426" lon="5.99555">
        <ele>1552</ele>
        <time>2021-09-20T12:38:56Z</time>
      </trkpt>
      <trkpt lat="44.70426" lon="5.99556">
        <ele>1552</ele>
        <time>2021-09-20T12:38:57Z</time>
      </trkpt>
      <trkpt lat="44.70425" lon="5.99557">
        <ele>1551</ele>
        <time>2021-09-20T12:38:58Z</time>
      </trkpt>
      <trkpt lat="44.70425" lon="5.99559">
        <ele>1551</ele>
        <time>2021-09-20T12:38:59Z</time>
      </trkpt>
      <trkpt lat="44.70425" lon="5.9956">
        <ele>1551</ele>
        <time>2021-09-20T12:39:00Z</time>
      </trkpt>
      <trkpt lat="44.70425" lon="5.99561">
        <ele>1551</ele>
        <time>2021-09-20T12:39:01Z</time>
      </trkpt>
      <trkpt lat="44.70424" lon="5.99562">
        <ele>1551</ele>
        <time>2021-09-20T12:39:02Z</time>
      </trkpt>
      <trkpt lat="44.70424" lon="5.99564">
        <ele>1551</ele>
        <time>2021-09-20T12:39:03Z</time>
      </trkpt>
      <trkpt lat="44.70424" lon="5.99565">
        <ele>1551</ele>
        <time>2021-09-20T12:39:04Z</time>
      </trkpt>
      <trkpt lat="44.70424" lon="5.99566">
        <ele>1551</ele>
        <time>2021-09-20T12:39:05Z</time>
      </trkpt>
      <trkpt lat="44.70423" lon="5.99567">
        <ele>1551</ele>
        <time>2021-09-20T12:39:06Z</time>
      </trkpt>
      <trkpt lat="44.70423" lon="5.99568">
        <ele>1551</ele>
        <time>2021-09-20T12:39:07Z</time>
      </trkpt>
      <trkpt lat="44.70423" lon="5.99569">
        <ele>1550</ele>
        <time>2021-09-20T12:39:08Z</time>
      </trkpt>
      <trkpt lat="44.70422" lon="5.99571">
        <ele>1550</ele>
        <time>2021-09-20T12:39:09Z</time>
      </trkpt>
      <trkpt lat="44.70422" lon="5.99572">
        <ele>1550</ele>
        <time>2021-09-20T12:39:10Z</time>
      </trkpt>
      <trkpt lat="44.70422" lon="5.99573">
        <ele>1550</ele>
        <time>2021-09-20T12:39:11Z</time>
      </trkpt>
      <trkpt lat="44.70421" lon="5.99574">
        <ele>1550</ele>
        <time>2021-09-20T12:39:12Z</time>
      </trkpt>
      <trkpt lat="44.7042" lon="5.99575">
        <ele>1549</ele>
        <time>2021-09-20T12:39:13Z</time>
      </trkpt>
      <trkpt lat="44.7042" lon="5.99577">
        <ele>1549</ele>
        <time>2021-09-20T12:39:14Z</time>
      </trkpt>
      <trkpt lat="44.70419" lon="5.99578">
        <ele>1549</ele>
        <time>2021-09-20T12:39:15Z</time>
      </trkpt>
      <trkpt lat="44.70419" lon="5.99579">
        <ele>1549</ele>
        <time>2021-09-20T12:39:16Z</time>
      </trkpt>
      <trkpt lat="44.70419" lon="5.9958">
        <ele>1549</ele>
        <time>2021-09-20T12:39:17Z</time>
      </trkpt>
      <trkpt lat="44.70418" lon="5.99581">
        <ele>1548</ele>
        <time>2021-09-20T12:39:18Z</time>
      </trkpt>
      <trkpt lat="44.70418" lon="5.99583">
        <ele>1548</ele>
        <time>2021-09-20T12:39:19Z</time>
      </trkpt>
      <trkpt lat="44.70418" lon="5.99584">
        <ele>1548</ele>
        <time>2021-09-20T12:39:20Z</time>
      </trkpt>
      <trkpt lat="44.70417" lon="5.99585">
        <ele>1548</ele>
        <time>2021-09-20T12:39:21Z</time>
      </trkpt>
      <trkpt lat="44.70417" lon="5.99586">
        <ele>1548</ele>
        <time>2021-09-20T12:39:22Z</time>
      </trkpt>
      <trkpt lat="44.70416" lon="5.99587">
        <ele>1547</ele>
        <time>2021-09-20T12:39:23Z</time>
      </trkpt>
      <trkpt lat="44.70415" lon="5.99589">
        <ele>1547</ele>
        <time>2021-09-20T12:39:24Z</time>
      </trkpt>
      <trkpt lat="44.70415" lon="5.9959">
        <ele>1547</ele>
        <time>2021-09-20T12:39:25Z</time>
      </trkpt>
      <trkpt lat="44.70414" lon="5.99591">
        <ele>1547</ele>
        <time>2021-09-20T12:39:26Z</time>
      </trkpt>
      <trkpt lat="44.70413" lon="5.99592">
        <ele>1547</ele>
        <time>2021-09-20T12:39:27Z</time>
      </trkpt>
      <trkpt lat="44.70413" lon="5.99593">
        <ele>1546</ele>
        <time>2021-09-20T12:39:28Z</time>
      </trkpt>
      <trkpt lat="44.70412" lon="5.99595">
        <ele>1546</ele>
        <time>2021-09-20T12:39:29Z</time>
      </trkpt>
      <trkpt lat="44.70412" lon="5.99596">
        <ele>1546</ele>
        <time>2021-09-20T12:39:30Z</time>
      </trkpt>
      <trkpt lat="44.70411" lon="5.99597">
        <ele>1546</ele>
        <time>2021-09-20T12:39:31Z</time>
      </trkpt>
      <trkpt lat="44.70411" lon="5.99598">
        <ele>1546</ele>
        <time>2021-09-20T12:39:32Z</time>
      </trkpt>
      <trkpt lat="44.7041" lon="5.99599">
        <ele>1545</ele>
        <time>2021-09-20T12:39:33Z</time>
      </trkpt>
      <trkpt lat="44.7041" lon="5.996">
        <ele>1545</ele>
        <time>2021-09-20T12:39:34Z</time>
      </trkpt>
      <trkpt lat="44.70409" lon="5.99602">
        <ele>1545</ele>
        <time>2021-09-20T12:39:35Z</time>
      </trkpt>
      <trkpt lat="44.70409" lon="5.99603">
        <ele>1545</ele>
        <time>2021-09-20T12:39:36Z</time>
      </trkpt>
      <trkpt lat="44.70408" lon="5.99604">
        <ele>1545</ele>
        <time>2021-09-20T12:39:37Z</time>
      </trkpt>
      <trkpt lat="44.70408" lon="5.99605">
        <ele>1544</ele>
        <time>2021-09-20T12:39:38Z</time>
      </trkpt>
      <trkpt lat="44.70407" lon="5.99606">
        <ele>1544</ele>
        <time>2021-09-20T12:39:39Z</time>
      </trkpt>
      <trkpt lat="44.70406" lon="5.99607">
        <ele>1544</ele>
        <time>2021-09-20T12:39:40Z</time>
      </trkpt>
      <trkpt lat="44.70406" lon="5.99608">
        <ele>1544</ele>
        <time>2021-09-20T12:39:41Z</time>
      </trkpt>
      <trkpt lat="44.70405" lon="5.99609">
        <ele>1544</ele>
        <time>2021-09-20T12:39:42Z</time>
      </trkpt>
      <trkpt lat="44.70404" lon="5.99611">
        <ele>1543</ele>
        <time>2021-09-20T12:39:43Z</time>
      </trkpt>
      <trkpt lat="44.70404" lon="5.99612">
        <ele>1543</ele>
        <time>2021-09-20T12:39:44Z</time>
      </trkpt>
      <trkpt lat="44.70403" lon="5.99612">
        <ele>1543</ele>
        <time>2021-09-20T12:39:45Z</time>
      </trkpt>
      <trkpt lat="44.70403" lon="5.99613">
        <ele>1543</ele>
        <time>2021-09-20T12:39:46Z</time>
      </trkpt>
      <trkpt lat="44.70402" lon="5.99614">
        <ele>1543</ele>
        <time>2021-09-20T12:39:47Z</time>
      </trkpt>
      <trkpt lat="44.70402" lon="5.99615">
        <ele>1543</ele>
        <time>2021-09-20T12:39:48Z</time>
      </trkpt>
      <trkpt lat="44.70401" lon="5.99616">
        <ele>1543</ele>
        <time>2021-09-20T12:39:49Z</time>
      </trkpt>
      <trkpt lat="44.70401" lon="5.99617">
        <ele>1543</ele>
        <time>2021-09-20T12:39:50Z</time>
      </trkpt>
      <trkpt lat="44.704" lon="5.99618">
        <ele>1543</ele>
        <time>2021-09-20T12:39:51Z</time>
      </trkpt>
      <trkpt lat="44.70399" lon="5.99619">
        <ele>1543</ele>
        <time>2021-09-20T12:39:52Z</time>
      </trkpt>
      <trkpt lat="44.70399" lon="5.9962">
        <ele>1542</ele>
        <time>2021-09-20T12:39:53Z</time>
      </trkpt>
      <trkpt lat="44.70398" lon="5.99621">
        <ele>1542</ele>
        <time>2021-09-20T12:39:54Z</time>
      </trkpt>
      <trkpt lat="44.70397" lon="5.99622">
        <ele>1542</ele>
        <time>2021-09-20T12:39:55Z</time>
      </trkpt>
      <trkpt lat="44.70397" lon="5.99623">
        <ele>1542</ele>
        <time>2021-09-20T12:39:56Z</time>
      </trkpt>
      <trkpt lat="44.70396" lon="5.99624">
        <ele>1542</ele>
        <time>2021-09-20T12:39:57Z</time>
      </trkpt>
      <trkpt lat="44.70395" lon="5.99625">
        <ele>1541</ele>
        <time>2021-09-20T12:39:58Z</time>
      </trkpt>
      <trkpt lat="44.70394" lon="5.99626">
        <ele>1541</ele>
        <time>2021-09-20T12:39:59Z</time>
      </trkpt>
      <trkpt lat="44.70394" lon="5.99627">
        <ele>1541</ele>
        <time>2021-09-20T12:40:00Z</time>
      </trkpt>
      <trkpt lat="44.70393" lon="5.99628">
        <ele>1541</ele>
        <time>2021-09-20T12:40:01Z</time>
      </trkpt>
      <trkpt lat="44.70393" lon="5.99629">
        <ele>1541</ele>
        <time>2021-09-20T12:40:02Z</time>
      </trkpt>
      <trkpt lat="44.70392" lon="5.9963">
        <ele>1540</ele>
        <time>2021-09-20T12:40:03Z</time>
      </trkpt>
      <trkpt lat="44.70392" lon="5.99631">
        <ele>1540</ele>
        <time>2021-09-20T12:40:04Z</time>
      </trkpt>
      <trkpt lat="44.70391" lon="5.99632">
        <ele>1540</ele>
        <time>2021-09-20T12:40:05Z</time>
      </trkpt>
      <trkpt lat="44.70391" lon="5.99633">
        <ele>1540</ele>
        <time>2021-09-20T12:40:06Z</time>
      </trkpt>
      <trkpt lat="44.7039" lon="5.99634">
        <ele>1540</ele>
        <time>2021-09-20T12:40:07Z</time>
      </trkpt>
      <trkpt lat="44.7039" lon="5.99635">
        <ele>1539</ele>
        <time>2021-09-20T12:40:08Z</time>
      </trkpt>
      <trkpt lat="44.70389" lon="5.99636">
        <ele>1539</ele>
        <time>2021-09-20T12:40:09Z</time>
      </trkpt>
      <trkpt lat="44.70388" lon="5.99636">
        <ele>1539</ele>
        <time>2021-09-20T12:40:10Z</time>
      </trkpt>
      <trkpt lat="44.70388" lon="5.99637">
        <ele>1539</ele>
        <time>2021-09-20T12:40:11Z</time>
      </trkpt>
      <trkpt lat="44.70387" lon="5.99638">
        <ele>1539</ele>
        <time>2021-09-20T12:40:12Z</time>
      </trkpt>
      <trkpt lat="44.70387" lon="5.99639">
        <ele>1538</ele>
        <time>2021-09-20T12:40:13Z</time>
      </trkpt>
      <trkpt lat="44.70386" lon="5.9964">
        <ele>1538</ele>
        <time>2021-09-20T12:40:14Z</time>
      </trkpt>
      <trkpt lat="44.70386" lon="5.9964">
        <ele>1538</ele>
        <time>2021-09-20T12:40:15Z</time>
      </trkpt>
      <trkpt lat="44.70385" lon="5.9964">
        <ele>1538</ele>
        <time>2021-09-20T12:40:16Z</time>
      </trkpt>
      <trkpt lat="44.70385" lon="5.9964">
        <ele>1538</ele>
        <time>2021-09-20T12:40:17Z</time>
      </trkpt>
      <trkpt lat="44.70384" lon="5.99641">
        <ele>1537</ele>
        <time>2021-09-20T12:40:18Z</time>
      </trkpt>
      <trkpt lat="44.70384" lon="5.99641">
        <ele>1537</ele>
        <time>2021-09-20T12:40:19Z</time>
      </trkpt>
      <trkpt lat="44.70383" lon="5.99642">
        <ele>1537</ele>
        <time>2021-09-20T12:40:20Z</time>
      </trkpt>
      <trkpt lat="44.70382" lon="5.99642">
        <ele>1537</ele>
        <time>2021-09-20T12:40:21Z</time>
      </trkpt>
      <trkpt lat="44.70381" lon="5.99643">
        <ele>1537</ele>
        <time>2021-09-20T12:40:22Z</time>
      </trkpt>
      <trkpt lat="44.7038" lon="5.99644">
        <ele>1537</ele>
        <time>2021-09-20T12:40:23Z</time>
      </trkpt>
      <trkpt lat="44.70379" lon="5.99644">
        <ele>1537</ele>
        <time>2021-09-20T12:40:24Z</time>
      </trkpt>
      <trkpt lat="44.70378" lon="5.99645">
        <ele>1537</ele>
        <time>2021-09-20T12:40:25Z</time>
      </trkpt>
      <trkpt lat="44.70377" lon="5.99645">
        <ele>1537</ele>
        <time>2021-09-20T12:40:26Z</time>
      </trkpt>
      <trkpt lat="44.70376" lon="5.99646">
        <ele>1537</ele>
        <time>2021-09-20T12:40:27Z</time>
      </trkpt>
      <trkpt lat="44.70375" lon="5.99646">
        <ele>1537</ele>
        <time>2021-09-20T12:40:28Z</time>
      </trkpt>
      <trkpt lat="44.70374" lon="5.99647">
        <ele>1537</ele>
        <time>2021-09-20T12:40:29Z</time>
      </trkpt>
      <trkpt lat="44.70373" lon="5.99647">
        <ele>1537</ele>
        <time>2021-09-20T12:40:30Z</time>
      </trkpt>
      <trkpt lat="44.70372" lon="5.99647">
        <ele>1537</ele>
        <time>2021-09-20T12:40:31Z</time>
      </trkpt>
      <trkpt lat="44.70371" lon="5.99647">
        <ele>1537</ele>
        <time>2021-09-20T12:40:32Z</time>
      </trkpt>
      <trkpt lat="44.70371" lon="5.99648">
        <ele>1536</ele>
        <time>2021-09-20T12:40:33Z</time>
      </trkpt>
      <trkpt lat="44.7037" lon="5.99648">
        <ele>1536</ele>
        <time>2021-09-20T12:40:34Z</time>
      </trkpt>
      <trkpt lat="44.70369" lon="5.99649">
        <ele>1536</ele>
        <time>2021-09-20T12:40:35Z</time>
      </trkpt>
      <trkpt lat="44.70368" lon="5.99649">
        <ele>1536</ele>
        <time>2021-09-20T12:40:36Z</time>
      </trkpt>
      <trkpt lat="44.70367" lon="5.9965">
        <ele>1536</ele>
        <time>2021-09-20T12:40:37Z</time>
      </trkpt>
      <trkpt lat="44.70366" lon="5.99651">
        <ele>1535</ele>
        <time>2021-09-20T12:40:38Z</time>
      </trkpt>
      <trkpt lat="44.70365" lon="5.99652">
        <ele>1535</ele>
        <time>2021-09-20T12:40:39Z</time>
      </trkpt>
      <trkpt lat="44.70364" lon="5.99653">
        <ele>1535</ele>
        <time>2021-09-20T12:40:40Z</time>
      </trkpt>
      <trkpt lat="44.70363" lon="5.99654">
        <ele>1535</ele>
        <time>2021-09-20T12:40:41Z</time>
      </trkpt>
      <trkpt lat="44.70362" lon="5.99655">
        <ele>1535</ele>
        <time>2021-09-20T12:40:42Z</time>
      </trkpt>
      <trkpt lat="44.70361" lon="5.99657">
        <ele>1534</ele>
        <time>2021-09-20T12:40:43Z</time>
      </trkpt>
      <trkpt lat="44.70361" lon="5.99658">
        <ele>1534</ele>
        <time>2021-09-20T12:40:44Z</time>
      </trkpt>
      <trkpt lat="44.7036" lon="5.9966">
        <ele>1534</ele>
        <time>2021-09-20T12:40:45Z</time>
      </trkpt>
      <trkpt lat="44.70359" lon="5.99661">
        <ele>1534</ele>
        <time>2021-09-20T12:40:46Z</time>
      </trkpt>
      <trkpt lat="44.70359" lon="5.99662">
        <ele>1534</ele>
        <time>2021-09-20T12:40:47Z</time>
      </trkpt>
      <trkpt lat="44.70358" lon="5.99663">
        <ele>1533</ele>
        <time>2021-09-20T12:40:48Z</time>
      </trkpt>
      <trkpt lat="44.70358" lon="5.99664">
        <ele>1533</ele>
        <time>2021-09-20T12:40:49Z</time>
      </trkpt>
      <trkpt lat="44.70357" lon="5.99665">
        <ele>1533</ele>
        <time>2021-09-20T12:40:50Z</time>
      </trkpt>
      <trkpt lat="44.70357" lon="5.99666">
        <ele>1533</ele>
        <time>2021-09-20T12:40:51Z</time>
      </trkpt>
      <trkpt lat="44.70357" lon="5.99668">
        <ele>1533</ele>
        <time>2021-09-20T12:40:52Z</time>
      </trkpt>
      <trkpt lat="44.70357" lon="5.99669">
        <ele>1532</ele>
        <time>2021-09-20T12:40:53Z</time>
      </trkpt>
      <trkpt lat="44.70357" lon="5.9967">
        <ele>1532</ele>
        <time>2021-09-20T12:40:54Z</time>
      </trkpt>
      <trkpt lat="44.70357" lon="5.99671">
        <ele>1532</ele>
        <time>2021-09-20T12:40:55Z</time>
      </trkpt>
      <trkpt lat="44.70357" lon="5.99672">
        <ele>1532</ele>
        <time>2021-09-20T12:40:56Z</time>
      </trkpt>
      <trkpt lat="44.70357" lon="5.99673">
        <ele>1532</ele>
        <time>2021-09-20T12:40:57Z</time>
      </trkpt>
      <trkpt lat="44.70357" lon="5.99673">
        <ele>1532</ele>
        <time>2021-09-20T12:40:58Z</time>
      </trkpt>
      <trkpt lat="44.70356" lon="5.99675">
        <ele>1532</ele>
        <time>2021-09-20T12:40:59Z</time>
      </trkpt>
      <trkpt lat="44.70356" lon="5.99676">
        <ele>1532</ele>
        <time>2021-09-20T12:41:00Z</time>
      </trkpt>
      <trkpt lat="44.70356" lon="5.99677">
        <ele>1532</ele>
        <time>2021-09-20T12:41:01Z</time>
      </trkpt>
      <trkpt lat="44.70355" lon="5.99678">
        <ele>1532</ele>
        <time>2021-09-20T12:41:02Z</time>
      </trkpt>
      <trkpt lat="44.70355" lon="5.99679">
        <ele>1531</ele>
        <time>2021-09-20T12:41:03Z</time>
      </trkpt>
      <trkpt lat="44.70355" lon="5.9968">
        <ele>1531</ele>
        <time>2021-09-20T12:41:04Z</time>
      </trkpt>
      <trkpt lat="44.70354" lon="5.9968">
        <ele>1531</ele>
        <time>2021-09-20T12:41:05Z</time>
      </trkpt>
      <trkpt lat="44.70354" lon="5.99681">
        <ele>1531</ele>
        <time>2021-09-20T12:41:06Z</time>
      </trkpt>
      <trkpt lat="44.70354" lon="5.99682">
        <ele>1531</ele>
        <time>2021-09-20T12:41:07Z</time>
      </trkpt>
      <trkpt lat="44.70354" lon="5.99683">
        <ele>1530</ele>
        <time>2021-09-20T12:41:08Z</time>
      </trkpt>
      <trkpt lat="44.70353" lon="5.99684">
        <ele>1530</ele>
        <time>2021-09-20T12:41:09Z</time>
      </trkpt>
      <trkpt lat="44.70353" lon="5.99685">
        <ele>1530</ele>
        <time>2021-09-20T12:41:10Z</time>
      </trkpt>
      <trkpt lat="44.70352" lon="5.99686">
        <ele>1530</ele>
        <time>2021-09-20T12:41:11Z</time>
      </trkpt>
      <trkpt lat="44.70352" lon="5.99687">
        <ele>1530</ele>
        <time>2021-09-20T12:41:12Z</time>
      </trkpt>
      <trkpt lat="44.70351" lon="5.99687">
        <ele>1529</ele>
        <time>2021-09-20T12:41:13Z</time>
      </trkpt>
      <trkpt lat="44.7035" lon="5.99689">
        <ele>1529</ele>
        <time>2021-09-20T12:41:14Z</time>
      </trkpt>
      <trkpt lat="44.7035" lon="5.9969">
        <ele>1529</ele>
        <time>2021-09-20T12:41:15Z</time>
      </trkpt>
      <trkpt lat="44.70349" lon="5.99691">
        <ele>1529</ele>
        <time>2021-09-20T12:41:16Z</time>
      </trkpt>
      <trkpt lat="44.70348" lon="5.99692">
        <ele>1529</ele>
        <time>2021-09-20T12:41:17Z</time>
      </trkpt>
      <trkpt lat="44.70347" lon="5.99693">
        <ele>1528</ele>
        <time>2021-09-20T12:41:18Z</time>
      </trkpt>
      <trkpt lat="44.70347" lon="5.99694">
        <ele>1528</ele>
        <time>2021-09-20T12:41:19Z</time>
      </trkpt>
      <trkpt lat="44.70346" lon="5.99695">
        <ele>1528</ele>
        <time>2021-09-20T12:41:20Z</time>
      </trkpt>
      <trkpt lat="44.70346" lon="5.99696">
        <ele>1528</ele>
        <time>2021-09-20T12:41:21Z</time>
      </trkpt>
      <trkpt lat="44.70345" lon="5.99697">
        <ele>1528</ele>
        <time>2021-09-20T12:41:22Z</time>
      </trkpt>
      <trkpt lat="44.70345" lon="5.99698">
        <ele>1528</ele>
        <time>2021-09-20T12:41:23Z</time>
      </trkpt>
      <trkpt lat="44.70344" lon="5.99699">
        <ele>1528</ele>
        <time>2021-09-20T12:41:24Z</time>
      </trkpt>
      <trkpt lat="44.70344" lon="5.997">
        <ele>1528</ele>
        <time>2021-09-20T12:41:25Z</time>
      </trkpt>
      <trkpt lat="44.70343" lon="5.99702">
        <ele>1528</ele>
        <time>2021-09-20T12:41:26Z</time>
      </trkpt>
      <trkpt lat="44.70342" lon="5.99703">
        <ele>1528</ele>
        <time>2021-09-20T12:41:27Z</time>
      </trkpt>
      <trkpt lat="44.70342" lon="5.99704">
        <ele>1527</ele>
        <time>2021-09-20T12:41:28Z</time>
      </trkpt>
      <trkpt lat="44.70341" lon="5.99705">
        <ele>1527</ele>
        <time>2021-09-20T12:41:29Z</time>
      </trkpt>
      <trkpt lat="44.7034" lon="5.99706">
        <ele>1527</ele>
        <time>2021-09-20T12:41:30Z</time>
      </trkpt>
      <trkpt lat="44.7034" lon="5.99707">
        <ele>1527</ele>
        <time>2021-09-20T12:41:31Z</time>
      </trkpt>
      <trkpt lat="44.70339" lon="5.99708">
        <ele>1527</ele>
        <time>2021-09-20T12:41:32Z</time>
      </trkpt>
      <trkpt lat="44.70338" lon="5.99709">
        <ele>1527</ele>
        <time>2021-09-20T12:41:33Z</time>
      </trkpt>
      <trkpt lat="44.70338" lon="5.9971">
        <ele>1527</ele>
        <time>2021-09-20T12:41:34Z</time>
      </trkpt>
      <trkpt lat="44.70337" lon="5.99711">
        <ele>1527</ele>
        <time>2021-09-20T12:41:35Z</time>
      </trkpt>
      <trkpt lat="44.70336" lon="5.99711">
        <ele>1527</ele>
        <time>2021-09-20T12:41:36Z</time>
      </trkpt>
      <trkpt lat="44.70335" lon="5.99712">
        <ele>1527</ele>
        <time>2021-09-20T12:41:37Z</time>
      </trkpt>
      <trkpt lat="44.70335" lon="5.99713">
        <ele>1526</ele>
        <time>2021-09-20T12:41:38Z</time>
      </trkpt>
      <trkpt lat="44.70334" lon="5.99714">
        <ele>1526</ele>
        <time>2021-09-20T12:41:39Z</time>
      </trkpt>
      <trkpt lat="44.70334" lon="5.99715">
        <ele>1526</ele>
        <time>2021-09-20T12:41:40Z</time>
      </trkpt>
      <trkpt lat="44.70333" lon="5.99716">
        <ele>1526</ele>
        <time>2021-09-20T12:41:41Z</time>
      </trkpt>
      <trkpt lat="44.70333" lon="5.99717">
        <ele>1526</ele>
        <time>2021-09-20T12:41:42Z</time>
      </trkpt>
      <trkpt lat="44.70333" lon="5.99719">
        <ele>1525</ele>
        <time>2021-09-20T12:41:43Z</time>
      </trkpt>
      <trkpt lat="44.70333" lon="5.9972">
        <ele>1525</ele>
        <time>2021-09-20T12:41:44Z</time>
      </trkpt>
      <trkpt lat="44.70332" lon="5.99721">
        <ele>1525</ele>
        <time>2021-09-20T12:41:45Z</time>
      </trkpt>
      <trkpt lat="44.70332" lon="5.99722">
        <ele>1525</ele>
        <time>2021-09-20T12:41:46Z</time>
      </trkpt>
      <trkpt lat="44.70331" lon="5.99723">
        <ele>1525</ele>
        <time>2021-09-20T12:41:47Z</time>
      </trkpt>
      <trkpt lat="44.7033" lon="5.99724">
        <ele>1524</ele>
        <time>2021-09-20T12:41:48Z</time>
      </trkpt>
      <trkpt lat="44.7033" lon="5.99725">
        <ele>1524</ele>
        <time>2021-09-20T12:41:49Z</time>
      </trkpt>
      <trkpt lat="44.70329" lon="5.99726">
        <ele>1524</ele>
        <time>2021-09-20T12:41:50Z</time>
      </trkpt>
      <trkpt lat="44.70328" lon="5.99726">
        <ele>1524</ele>
        <time>2021-09-20T12:41:51Z</time>
      </trkpt>
      <trkpt lat="44.70327" lon="5.99727">
        <ele>1524</ele>
        <time>2021-09-20T12:41:52Z</time>
      </trkpt>
      <trkpt lat="44.70327" lon="5.99727">
        <ele>1523</ele>
        <time>2021-09-20T12:41:53Z</time>
      </trkpt>
      <trkpt lat="44.70326" lon="5.99728">
        <ele>1523</ele>
        <time>2021-09-20T12:41:54Z</time>
      </trkpt>
      <trkpt lat="44.70325" lon="5.99728">
        <ele>1522</ele>
        <time>2021-09-20T12:41:55Z</time>
      </trkpt>
      <trkpt lat="44.70324" lon="5.99729">
        <ele>1522</ele>
        <time>2021-09-20T12:41:56Z</time>
      </trkpt>
      <trkpt lat="44.70324" lon="5.99729">
        <ele>1522</ele>
        <time>2021-09-20T12:41:57Z</time>
      </trkpt>
      <trkpt lat="44.70323" lon="5.99729">
        <ele>1521</ele>
        <time>2021-09-20T12:41:58Z</time>
      </trkpt>
      <trkpt lat="44.70323" lon="5.9973">
        <ele>1521</ele>
        <time>2021-09-20T12:41:59Z</time>
      </trkpt>
      <trkpt lat="44.70322" lon="5.9973">
        <ele>1521</ele>
        <time>2021-09-20T12:42:00Z</time>
      </trkpt>
      <trkpt lat="44.70321" lon="5.9973">
        <ele>1521</ele>
        <time>2021-09-20T12:42:01Z</time>
      </trkpt>
      <trkpt lat="44.7032" lon="5.99731">
        <ele>1521</ele>
        <time>2021-09-20T12:42:02Z</time>
      </trkpt>
      <trkpt lat="44.70319" lon="5.99731">
        <ele>1521</ele>
        <time>2021-09-20T12:42:03Z</time>
      </trkpt>
      <trkpt lat="44.70319" lon="5.99732">
        <ele>1521</ele>
        <time>2021-09-20T12:42:04Z</time>
      </trkpt>
      <trkpt lat="44.70318" lon="5.99732">
        <ele>1521</ele>
        <time>2021-09-20T12:42:05Z</time>
      </trkpt>
      <trkpt lat="44.70317" lon="5.99733">
        <ele>1521</ele>
        <time>2021-09-20T12:42:06Z</time>
      </trkpt>
      <trkpt lat="44.70316" lon="5.99733">
        <ele>1521</ele>
        <time>2021-09-20T12:42:07Z</time>
      </trkpt>
      <trkpt lat="44.70315" lon="5.99734">
        <ele>1520</ele>
        <time>2021-09-20T12:42:08Z</time>
      </trkpt>
      <trkpt lat="44.70314" lon="5.99735">
        <ele>1520</ele>
        <time>2021-09-20T12:42:09Z</time>
      </trkpt>
      <trkpt lat="44.70313" lon="5.99735">
        <ele>1520</ele>
        <time>2021-09-20T12:42:10Z</time>
      </trkpt>
      <trkpt lat="44.70312" lon="5.99736">
        <ele>1520</ele>
        <time>2021-09-20T12:42:11Z</time>
      </trkpt>
      <trkpt lat="44.70311" lon="5.99737">
        <ele>1520</ele>
        <time>2021-09-20T12:42:12Z</time>
      </trkpt>
      <trkpt lat="44.70309" lon="5.99738">
        <ele>1520</ele>
        <time>2021-09-20T12:42:13Z</time>
      </trkpt>
      <trkpt lat="44.70309" lon="5.99738">
        <ele>1520</ele>
        <time>2021-09-20T12:42:14Z</time>
      </trkpt>
      <trkpt lat="44.70308" lon="5.99739">
        <ele>1520</ele>
        <time>2021-09-20T12:42:15Z</time>
      </trkpt>
      <trkpt lat="44.70307" lon="5.9974">
        <ele>1520</ele>
        <time>2021-09-20T12:42:16Z</time>
      </trkpt>
      <trkpt lat="44.70306" lon="5.99741">
        <ele>1520</ele>
        <time>2021-09-20T12:42:17Z</time>
      </trkpt>
      <trkpt lat="44.70305" lon="5.99742">
        <ele>1519</ele>
        <time>2021-09-20T12:42:18Z</time>
      </trkpt>
      <trkpt lat="44.70304" lon="5.99743">
        <ele>1519</ele>
        <time>2021-09-20T12:42:19Z</time>
      </trkpt>
      <trkpt lat="44.70304" lon="5.99744">
        <ele>1519</ele>
        <time>2021-09-20T12:42:20Z</time>
      </trkpt>
      <trkpt lat="44.70303" lon="5.99745">
        <ele>1519</ele>
        <time>2021-09-20T12:42:21Z</time>
      </trkpt>
      <trkpt lat="44.70303" lon="5.99746">
        <ele>1519</ele>
        <time>2021-09-20T12:42:22Z</time>
      </trkpt>
      <trkpt lat="44.70302" lon="5.99747">
        <ele>1518</ele>
        <time>2021-09-20T12:42:23Z</time>
      </trkpt>
      <trkpt lat="44.70302" lon="5.99748">
        <ele>1518</ele>
        <time>2021-09-20T12:42:24Z</time>
      </trkpt>
      <trkpt lat="44.70301" lon="5.99749">
        <ele>1518</ele>
        <time>2021-09-20T12:42:25Z</time>
      </trkpt>
      <trkpt lat="44.703" lon="5.9975">
        <ele>1518</ele>
        <time>2021-09-20T12:42:26Z</time>
      </trkpt>
      <trkpt lat="44.703" lon="5.9975">
        <ele>1518</ele>
        <time>2021-09-20T12:42:27Z</time>
      </trkpt>
      <trkpt lat="44.70299" lon="5.99751">
        <ele>1518</ele>
        <time>2021-09-20T12:42:28Z</time>
      </trkpt>
      <trkpt lat="44.70299" lon="5.99752">
        <ele>1518</ele>
        <time>2021-09-20T12:42:29Z</time>
      </trkpt>
      <trkpt lat="44.70298" lon="5.99752">
        <ele>1518</ele>
        <time>2021-09-20T12:42:30Z</time>
      </trkpt>
      <trkpt lat="44.70297" lon="5.99753">
        <ele>1518</ele>
        <time>2021-09-20T12:42:31Z</time>
      </trkpt>
      <trkpt lat="44.70297" lon="5.99754">
        <ele>1518</ele>
        <time>2021-09-20T12:42:32Z</time>
      </trkpt>
      <trkpt lat="44.70296" lon="5.99754">
        <ele>1517</ele>
        <time>2021-09-20T12:42:33Z</time>
      </trkpt>
      <trkpt lat="44.70296" lon="5.99755">
        <ele>1517</ele>
        <time>2021-09-20T12:42:34Z</time>
      </trkpt>
      <trkpt lat="44.70295" lon="5.99756">
        <ele>1517</ele>
        <time>2021-09-20T12:42:35Z</time>
      </trkpt>
      <trkpt lat="44.70294" lon="5.99757">
        <ele>1517</ele>
        <time>2021-09-20T12:42:36Z</time>
      </trkpt>
      <trkpt lat="44.70293" lon="5.99757">
        <ele>1517</ele>
        <time>2021-09-20T12:42:37Z</time>
      </trkpt>
      <trkpt lat="44.70293" lon="5.99759">
        <ele>1516</ele>
        <time>2021-09-20T12:42:38Z</time>
      </trkpt>
      <trkpt lat="44.70292" lon="5.9976">
        <ele>1516</ele>
        <time>2021-09-20T12:42:39Z</time>
      </trkpt>
      <trkpt lat="44.70292" lon="5.99761">
        <ele>1516</ele>
        <time>2021-09-20T12:42:40Z</time>
      </trkpt>
      <trkpt lat="44.70291" lon="5.99762">
        <ele>1516</ele>
        <time>2021-09-20T12:42:41Z</time>
      </trkpt>
      <trkpt lat="44.70291" lon="5.99763">
        <ele>1516</ele>
        <time>2021-09-20T12:42:42Z</time>
      </trkpt>
      <trkpt lat="44.7029" lon="5.99763">
        <ele>1515</ele>
        <time>2021-09-20T12:42:43Z</time>
      </trkpt>
      <trkpt lat="44.70289" lon="5.99764">
        <ele>1515</ele>
        <time>2021-09-20T12:42:44Z</time>
      </trkpt>
      <trkpt lat="44.70289" lon="5.99765">
        <ele>1515</ele>
        <time>2021-09-20T12:42:45Z</time>
      </trkpt>
      <trkpt lat="44.70288" lon="5.99766">
        <ele>1515</ele>
        <time>2021-09-20T12:42:46Z</time>
      </trkpt>
      <trkpt lat="44.70287" lon="5.99766">
        <ele>1515</ele>
        <time>2021-09-20T12:42:47Z</time>
      </trkpt>
      <trkpt lat="44.70287" lon="5.99767">
        <ele>1514</ele>
        <time>2021-09-20T12:42:48Z</time>
      </trkpt>
      <trkpt lat="44.70286" lon="5.99768">
        <ele>1514</ele>
        <time>2021-09-20T12:42:49Z</time>
      </trkpt>
      <trkpt lat="44.70285" lon="5.99768">
        <ele>1514</ele>
        <time>2021-09-20T12:42:50Z</time>
      </trkpt>
      <trkpt lat="44.70285" lon="5.99769">
        <ele>1514</ele>
        <time>2021-09-20T12:42:51Z</time>
      </trkpt>
      <trkpt lat="44.70284" lon="5.9977">
        <ele>1514</ele>
        <time>2021-09-20T12:42:52Z</time>
      </trkpt>
      <trkpt lat="44.70283" lon="5.99771">
        <ele>1514</ele>
        <time>2021-09-20T12:42:53Z</time>
      </trkpt>
      <trkpt lat="44.70283" lon="5.99771">
        <ele>1514</ele>
        <time>2021-09-20T12:42:54Z</time>
      </trkpt>
      <trkpt lat="44.70282" lon="5.99772">
        <ele>1514</ele>
        <time>2021-09-20T12:42:55Z</time>
      </trkpt>
      <trkpt lat="44.70281" lon="5.99773">
        <ele>1514</ele>
        <time>2021-09-20T12:42:56Z</time>
      </trkpt>
      <trkpt lat="44.70281" lon="5.99774">
        <ele>1514</ele>
        <time>2021-09-20T12:42:57Z</time>
      </trkpt>
      <trkpt lat="44.7028" lon="5.99774">
        <ele>1513</ele>
        <time>2021-09-20T12:42:58Z</time>
      </trkpt>
      <trkpt lat="44.70279" lon="5.99775">
        <ele>1513</ele>
        <time>2021-09-20T12:42:59Z</time>
      </trkpt>
      <trkpt lat="44.70279" lon="5.99776">
        <ele>1513</ele>
        <time>2021-09-20T12:43:00Z</time>
      </trkpt>
      <trkpt lat="44.70278" lon="5.99776">
        <ele>1513</ele>
        <time>2021-09-20T12:43:01Z</time>
      </trkpt>
      <trkpt lat="44.70277" lon="5.99777">
        <ele>1513</ele>
        <time>2021-09-20T12:43:02Z</time>
      </trkpt>
      <trkpt lat="44.70277" lon="5.99778">
        <ele>1512</ele>
        <time>2021-09-20T12:43:03Z</time>
      </trkpt>
      <trkpt lat="44.70276" lon="5.99778">
        <ele>1512</ele>
        <time>2021-09-20T12:43:04Z</time>
      </trkpt>
      <trkpt lat="44.70275" lon="5.99779">
        <ele>1512</ele>
        <time>2021-09-20T12:43:05Z</time>
      </trkpt>
      <trkpt lat="44.70275" lon="5.9978">
        <ele>1512</ele>
        <time>2021-09-20T12:43:06Z</time>
      </trkpt>
      <trkpt lat="44.70274" lon="5.99781">
        <ele>1512</ele>
        <time>2021-09-20T12:43:07Z</time>
      </trkpt>
      <trkpt lat="44.70273" lon="5.99781">
        <ele>1511</ele>
        <time>2021-09-20T12:43:08Z</time>
      </trkpt>
      <trkpt lat="44.70272" lon="5.99782">
        <ele>1511</ele>
        <time>2021-09-20T12:43:09Z</time>
      </trkpt>
      <trkpt lat="44.70272" lon="5.99783">
        <ele>1511</ele>
        <time>2021-09-20T12:43:10Z</time>
      </trkpt>
      <trkpt lat="44.70271" lon="5.99784">
        <ele>1511</ele>
        <time>2021-09-20T12:43:11Z</time>
      </trkpt>
      <trkpt lat="44.7027" lon="5.99784">
        <ele>1511</ele>
        <time>2021-09-20T12:43:12Z</time>
      </trkpt>
      <trkpt lat="44.70269" lon="5.99785">
        <ele>1510</ele>
        <time>2021-09-20T12:43:13Z</time>
      </trkpt>
      <trkpt lat="44.70268" lon="5.99786">
        <ele>1510</ele>
        <time>2021-09-20T12:43:14Z</time>
      </trkpt>
      <trkpt lat="44.70267" lon="5.99787">
        <ele>1510</ele>
        <time>2021-09-20T12:43:15Z</time>
      </trkpt>
      <trkpt lat="44.70266" lon="5.99787">
        <ele>1510</ele>
        <time>2021-09-20T12:43:16Z</time>
      </trkpt>
      <trkpt lat="44.70265" lon="5.99788">
        <ele>1510</ele>
        <time>2021-09-20T12:43:17Z</time>
      </trkpt>
      <trkpt lat="44.70264" lon="5.99789">
        <ele>1509</ele>
        <time>2021-09-20T12:43:18Z</time>
      </trkpt>
      <trkpt lat="44.70263" lon="5.9979">
        <ele>1509</ele>
        <time>2021-09-20T12:43:19Z</time>
      </trkpt>
      <trkpt lat="44.70262" lon="5.9979">
        <ele>1509</ele>
        <time>2021-09-20T12:43:20Z</time>
      </trkpt>
      <trkpt lat="44.70261" lon="5.99791">
        <ele>1509</ele>
        <time>2021-09-20T12:43:21Z</time>
      </trkpt>
      <trkpt lat="44.7026" lon="5.99792">
        <ele>1509</ele>
        <time>2021-09-20T12:43:22Z</time>
      </trkpt>
      <trkpt lat="44.70259" lon="5.99792">
        <ele>1508</ele>
        <time>2021-09-20T12:43:23Z</time>
      </trkpt>
      <trkpt lat="44.70258" lon="5.99793">
        <ele>1508</ele>
        <time>2021-09-20T12:43:24Z</time>
      </trkpt>
      <trkpt lat="44.70258" lon="5.99794">
        <ele>1508</ele>
        <time>2021-09-20T12:43:25Z</time>
      </trkpt>
      <trkpt lat="44.70257" lon="5.99795">
        <ele>1508</ele>
        <time>2021-09-20T12:43:26Z</time>
      </trkpt>
      <trkpt lat="44.70256" lon="5.99795">
        <ele>1508</ele>
        <time>2021-09-20T12:43:27Z</time>
      </trkpt>
      <trkpt lat="44.70255" lon="5.99796">
        <ele>1507</ele>
        <time>2021-09-20T12:43:28Z</time>
      </trkpt>
      <trkpt lat="44.70255" lon="5.99797">
        <ele>1507</ele>
        <time>2021-09-20T12:43:29Z</time>
      </trkpt>
      <trkpt lat="44.70254" lon="5.99798">
        <ele>1507</ele>
        <time>2021-09-20T12:43:30Z</time>
      </trkpt>
      <trkpt lat="44.70253" lon="5.99798">
        <ele>1507</ele>
        <time>2021-09-20T12:43:31Z</time>
      </trkpt>
      <trkpt lat="44.70253" lon="5.99799">
        <ele>1507</ele>
        <time>2021-09-20T12:43:32Z</time>
      </trkpt>
      <trkpt lat="44.70252" lon="5.998">
        <ele>1506</ele>
        <time>2021-09-20T12:43:33Z</time>
      </trkpt>
      <trkpt lat="44.70251" lon="5.998">
        <ele>1506</ele>
        <time>2021-09-20T12:43:34Z</time>
      </trkpt>
      <trkpt lat="44.7025" lon="5.99801">
        <ele>1506</ele>
        <time>2021-09-20T12:43:35Z</time>
      </trkpt>
      <trkpt lat="44.7025" lon="5.99801">
        <ele>1506</ele>
        <time>2021-09-20T12:43:36Z</time>
      </trkpt>
      <trkpt lat="44.70248" lon="5.99802">
        <ele>1506</ele>
        <time>2021-09-20T12:43:37Z</time>
      </trkpt>
      <trkpt lat="44.70247" lon="5.99802">
        <ele>1505</ele>
        <time>2021-09-20T12:43:38Z</time>
      </trkpt>
      <trkpt lat="44.70246" lon="5.99803">
        <ele>1505</ele>
        <time>2021-09-20T12:43:39Z</time>
      </trkpt>
      <trkpt lat="44.70245" lon="5.99803">
        <ele>1505</ele>
        <time>2021-09-20T12:43:40Z</time>
      </trkpt>
      <trkpt lat="44.70244" lon="5.99803">
        <ele>1505</ele>
        <time>2021-09-20T12:43:41Z</time>
      </trkpt>
      <trkpt lat="44.70244" lon="5.99803">
        <ele>1505</ele>
        <time>2021-09-20T12:43:42Z</time>
      </trkpt>
      <trkpt lat="44.70243" lon="5.99804">
        <ele>1505</ele>
        <time>2021-09-20T12:43:43Z</time>
      </trkpt>
      <trkpt lat="44.70242" lon="5.99804">
        <ele>1505</ele>
        <time>2021-09-20T12:43:44Z</time>
      </trkpt>
      <trkpt lat="44.70241" lon="5.99804">
        <ele>1505</ele>
        <time>2021-09-20T12:43:45Z</time>
      </trkpt>
      <trkpt lat="44.7024" lon="5.99805">
        <ele>1505</ele>
        <time>2021-09-20T12:43:46Z</time>
      </trkpt>
      <trkpt lat="44.70239" lon="5.99805">
        <ele>1505</ele>
        <time>2021-09-20T12:43:47Z</time>
      </trkpt>
      <trkpt lat="44.70238" lon="5.99805">
        <ele>1504</ele>
        <time>2021-09-20T12:43:48Z</time>
      </trkpt>
      <trkpt lat="44.70237" lon="5.99805">
        <ele>1504</ele>
        <time>2021-09-20T12:43:49Z</time>
      </trkpt>
      <trkpt lat="44.70236" lon="5.99805">
        <ele>1503</ele>
        <time>2021-09-20T12:43:50Z</time>
      </trkpt>
      <trkpt lat="44.70235" lon="5.99804">
        <ele>1503</ele>
        <time>2021-09-20T12:43:51Z</time>
      </trkpt>
      <trkpt lat="44.70234" lon="5.99804">
        <ele>1503</ele>
        <time>2021-09-20T12:43:52Z</time>
      </trkpt>
      <trkpt lat="44.70233" lon="5.99805">
        <ele>1502</ele>
        <time>2021-09-20T12:43:53Z</time>
      </trkpt>
      <trkpt lat="44.70232" lon="5.99805">
        <ele>1502</ele>
        <time>2021-09-20T12:43:54Z</time>
      </trkpt>
      <trkpt lat="44.70232" lon="5.99805">
        <ele>1502</ele>
        <time>2021-09-20T12:43:55Z</time>
      </trkpt>
      <trkpt lat="44.70231" lon="5.99805">
        <ele>1502</ele>
        <time>2021-09-20T12:43:56Z</time>
      </trkpt>
      <trkpt lat="44.70231" lon="5.99805">
        <ele>1502</ele>
        <time>2021-09-20T12:43:57Z</time>
      </trkpt>
      <trkpt lat="44.7023" lon="5.99805">
        <ele>1502</ele>
        <time>2021-09-20T12:43:58Z</time>
      </trkpt>
      <trkpt lat="44.7023" lon="5.99805">
        <ele>1502</ele>
        <time>2021-09-20T12:43:59Z</time>
      </trkpt>
      <trkpt lat="44.70229" lon="5.99806">
        <ele>1502</ele>
        <time>2021-09-20T12:44:00Z</time>
      </trkpt>
      <trkpt lat="44.70229" lon="5.99807">
        <ele>1502</ele>
        <time>2021-09-20T12:44:01Z</time>
      </trkpt>
      <trkpt lat="44.70229" lon="5.99808">
        <ele>1502</ele>
        <time>2021-09-20T12:44:02Z</time>
      </trkpt>
      <trkpt lat="44.70229" lon="5.99809">
        <ele>1501</ele>
        <time>2021-09-20T12:44:03Z</time>
      </trkpt>
      <trkpt lat="44.70229" lon="5.9981">
        <ele>1501</ele>
        <time>2021-09-20T12:44:04Z</time>
      </trkpt>
      <trkpt lat="44.70229" lon="5.99811">
        <ele>1501</ele>
        <time>2021-09-20T12:44:05Z</time>
      </trkpt>
      <trkpt lat="44.70228" lon="5.99812">
        <ele>1501</ele>
        <time>2021-09-20T12:44:06Z</time>
      </trkpt>
      <trkpt lat="44.70228" lon="5.99813">
        <ele>1501</ele>
        <time>2021-09-20T12:44:07Z</time>
      </trkpt>
      <trkpt lat="44.70228" lon="5.99814">
        <ele>1501</ele>
        <time>2021-09-20T12:44:08Z</time>
      </trkpt>
      <trkpt lat="44.70227" lon="5.99815">
        <ele>1501</ele>
        <time>2021-09-20T12:44:09Z</time>
      </trkpt>
      <trkpt lat="44.70227" lon="5.99816">
        <ele>1501</ele>
        <time>2021-09-20T12:44:10Z</time>
      </trkpt>
      <trkpt lat="44.70226" lon="5.99817">
        <ele>1501</ele>
        <time>2021-09-20T12:44:11Z</time>
      </trkpt>
      <trkpt lat="44.70225" lon="5.99818">
        <ele>1501</ele>
        <time>2021-09-20T12:44:12Z</time>
      </trkpt>
      <trkpt lat="44.70224" lon="5.99818">
        <ele>1500</ele>
        <time>2021-09-20T12:44:13Z</time>
      </trkpt>
      <trkpt lat="44.70224" lon="5.99819">
        <ele>1500</ele>
        <time>2021-09-20T12:44:14Z</time>
      </trkpt>
      <trkpt lat="44.70223" lon="5.9982">
        <ele>1500</ele>
        <time>2021-09-20T12:44:15Z</time>
      </trkpt>
      <trkpt lat="44.70222" lon="5.9982">
        <ele>1500</ele>
        <time>2021-09-20T12:44:16Z</time>
      </trkpt>
      <trkpt lat="44.70221" lon="5.99821">
        <ele>1500</ele>
        <time>2021-09-20T12:44:17Z</time>
      </trkpt>
      <trkpt lat="44.70221" lon="5.99822">
        <ele>1499</ele>
        <time>2021-09-20T12:44:18Z</time>
      </trkpt>
      <trkpt lat="44.7022" lon="5.99822">
        <ele>1499</ele>
        <time>2021-09-20T12:44:19Z</time>
      </trkpt>
      <trkpt lat="44.70219" lon="5.99823">
        <ele>1499</ele>
        <time>2021-09-20T12:44:20Z</time>
      </trkpt>
      <trkpt lat="44.70218" lon="5.99823">
        <ele>1499</ele>
        <time>2021-09-20T12:44:21Z</time>
      </trkpt>
      <trkpt lat="44.70217" lon="5.99824">
        <ele>1499</ele>
        <time>2021-09-20T12:44:22Z</time>
      </trkpt>
      <trkpt lat="44.70217" lon="5.99824">
        <ele>1498</ele>
        <time>2021-09-20T12:44:23Z</time>
      </trkpt>
      <trkpt lat="44.70216" lon="5.99825">
        <ele>1498</ele>
        <time>2021-09-20T12:44:24Z</time>
      </trkpt>
      <trkpt lat="44.70215" lon="5.99825">
        <ele>1498</ele>
        <time>2021-09-20T12:44:25Z</time>
      </trkpt>
      <trkpt lat="44.70214" lon="5.99826">
        <ele>1498</ele>
        <time>2021-09-20T12:44:26Z</time>
      </trkpt>
      <trkpt lat="44.70214" lon="5.99826">
        <ele>1498</ele>
        <time>2021-09-20T12:44:27Z</time>
      </trkpt>
      <trkpt lat="44.70213" lon="5.99826">
        <ele>1498</ele>
        <time>2021-09-20T12:44:28Z</time>
      </trkpt>
      <trkpt lat="44.70212" lon="5.99827">
        <ele>1498</ele>
        <time>2021-09-20T12:44:29Z</time>
      </trkpt>
      <trkpt lat="44.70211" lon="5.99827">
        <ele>1498</ele>
        <time>2021-09-20T12:44:30Z</time>
      </trkpt>
      <trkpt lat="44.7021" lon="5.99827">
        <ele>1498</ele>
        <time>2021-09-20T12:44:31Z</time>
      </trkpt>
      <trkpt lat="44.70209" lon="5.99828">
        <ele>1498</ele>
        <time>2021-09-20T12:44:32Z</time>
      </trkpt>
      <trkpt lat="44.70208" lon="5.99828">
        <ele>1497</ele>
        <time>2021-09-20T12:44:33Z</time>
      </trkpt>
      <trkpt lat="44.70207" lon="5.99829">
        <ele>1497</ele>
        <time>2021-09-20T12:44:34Z</time>
      </trkpt>
      <trkpt lat="44.70206" lon="5.99829">
        <ele>1497</ele>
        <time>2021-09-20T12:44:35Z</time>
      </trkpt>
      <trkpt lat="44.70205" lon="5.9983">
        <ele>1497</ele>
        <time>2021-09-20T12:44:36Z</time>
      </trkpt>
      <trkpt lat="44.70203" lon="5.99831">
        <ele>1497</ele>
        <time>2021-09-20T12:44:37Z</time>
      </trkpt>
      <trkpt lat="44.70202" lon="5.99831">
        <ele>1496</ele>
        <time>2021-09-20T12:44:38Z</time>
      </trkpt>
      <trkpt lat="44.70201" lon="5.99831">
        <ele>1496</ele>
        <time>2021-09-20T12:44:39Z</time>
      </trkpt>
      <trkpt lat="44.702" lon="5.99832">
        <ele>1496</ele>
        <time>2021-09-20T12:44:40Z</time>
      </trkpt>
      <trkpt lat="44.70199" lon="5.99832">
        <ele>1496</ele>
        <time>2021-09-20T12:44:41Z</time>
      </trkpt>
      <trkpt lat="44.70199" lon="5.99832">
        <ele>1496</ele>
        <time>2021-09-20T12:44:42Z</time>
      </trkpt>
      <trkpt lat="44.70198" lon="5.99832">
        <ele>1495</ele>
        <time>2021-09-20T12:44:43Z</time>
      </trkpt>
      <trkpt lat="44.70197" lon="5.99832">
        <ele>1495</ele>
        <time>2021-09-20T12:44:44Z</time>
      </trkpt>
      <trkpt lat="44.70197" lon="5.99832">
        <ele>1495</ele>
        <time>2021-09-20T12:44:45Z</time>
      </trkpt>
      <trkpt lat="44.70196" lon="5.99833">
        <ele>1495</ele>
        <time>2021-09-20T12:44:46Z</time>
      </trkpt>
      <trkpt lat="44.70196" lon="5.99833">
        <ele>1495</ele>
        <time>2021-09-20T12:44:47Z</time>
      </trkpt>
      <trkpt lat="44.70195" lon="5.99833">
        <ele>1495</ele>
        <time>2021-09-20T12:44:48Z</time>
      </trkpt>
      <trkpt lat="44.70194" lon="5.99833">
        <ele>1495</ele>
        <time>2021-09-20T12:44:49Z</time>
      </trkpt>
      <trkpt lat="44.70193" lon="5.99834">
        <ele>1495</ele>
        <time>2021-09-20T12:44:50Z</time>
      </trkpt>
      <trkpt lat="44.70192" lon="5.99834">
        <ele>1495</ele>
        <time>2021-09-20T12:44:51Z</time>
      </trkpt>
      <trkpt lat="44.70192" lon="5.99834">
        <ele>1495</ele>
        <time>2021-09-20T12:44:52Z</time>
      </trkpt>
      <trkpt lat="44.70192" lon="5.99835">
        <ele>1494</ele>
        <time>2021-09-20T12:44:53Z</time>
      </trkpt>
      <trkpt lat="44.70192" lon="5.99835">
        <ele>1494</ele>
        <time>2021-09-20T12:44:54Z</time>
      </trkpt>
      <trkpt lat="44.70192" lon="5.99835">
        <ele>1493</ele>
        <time>2021-09-20T12:44:55Z</time>
      </trkpt>
      <trkpt lat="44.70191" lon="5.99835">
        <ele>1493</ele>
        <time>2021-09-20T12:44:56Z</time>
      </trkpt>
      <trkpt lat="44.70191" lon="5.99835">
        <ele>1493</ele>
        <time>2021-09-20T12:44:57Z</time>
      </trkpt>
      <trkpt lat="44.7019" lon="5.99835">
        <ele>1493</ele>
        <time>2021-09-20T12:44:58Z</time>
      </trkpt>
      <trkpt lat="44.7019" lon="5.99836">
        <ele>1493</ele>
        <time>2021-09-20T12:44:59Z</time>
      </trkpt>
      <trkpt lat="44.70189" lon="5.99836">
        <ele>1493</ele>
        <time>2021-09-20T12:45:00Z</time>
      </trkpt>
      <trkpt lat="44.70188" lon="5.99837">
        <ele>1493</ele>
        <time>2021-09-20T12:45:01Z</time>
      </trkpt>
      <trkpt lat="44.70188" lon="5.99837">
        <ele>1493</ele>
        <time>2021-09-20T12:45:02Z</time>
      </trkpt>
      <trkpt lat="44.70187" lon="5.99837">
        <ele>1492</ele>
        <time>2021-09-20T12:45:03Z</time>
      </trkpt>
      <trkpt lat="44.70187" lon="5.99838">
        <ele>1492</ele>
        <time>2021-09-20T12:45:04Z</time>
      </trkpt>
      <trkpt lat="44.70186" lon="5.99838">
        <ele>1492</ele>
        <time>2021-09-20T12:45:05Z</time>
      </trkpt>
      <trkpt lat="44.70185" lon="5.99838">
        <ele>1492</ele>
        <time>2021-09-20T12:45:06Z</time>
      </trkpt>
      <trkpt lat="44.70184" lon="5.99839">
        <ele>1492</ele>
        <time>2021-09-20T12:45:07Z</time>
      </trkpt>
      <trkpt lat="44.70183" lon="5.99839">
        <ele>1492</ele>
        <time>2021-09-20T12:45:08Z</time>
      </trkpt>
      <trkpt lat="44.70182" lon="5.99839">
        <ele>1492</ele>
        <time>2021-09-20T12:45:09Z</time>
      </trkpt>
      <trkpt lat="44.70181" lon="5.99839">
        <ele>1492</ele>
        <time>2021-09-20T12:45:10Z</time>
      </trkpt>
      <trkpt lat="44.7018" lon="5.99839">
        <ele>1492</ele>
        <time>2021-09-20T12:45:11Z</time>
      </trkpt>
      <trkpt lat="44.70179" lon="5.9984">
        <ele>1492</ele>
        <time>2021-09-20T12:45:12Z</time>
      </trkpt>
      <trkpt lat="44.70178" lon="5.9984">
        <ele>1492</ele>
        <time>2021-09-20T12:45:13Z</time>
      </trkpt>
      <trkpt lat="44.70177" lon="5.9984">
        <ele>1492</ele>
        <time>2021-09-20T12:45:14Z</time>
      </trkpt>
      <trkpt lat="44.70177" lon="5.9984">
        <ele>1492</ele>
        <time>2021-09-20T12:45:15Z</time>
      </trkpt>
      <trkpt lat="44.70176" lon="5.99841">
        <ele>1492</ele>
        <time>2021-09-20T12:45:16Z</time>
      </trkpt>
      <trkpt lat="44.70175" lon="5.99841">
        <ele>1492</ele>
        <time>2021-09-20T12:45:17Z</time>
      </trkpt>
      <trkpt lat="44.70174" lon="5.99842">
        <ele>1491</ele>
        <time>2021-09-20T12:45:18Z</time>
      </trkpt>
      <trkpt lat="44.70173" lon="5.99842">
        <ele>1491</ele>
        <time>2021-09-20T12:45:19Z</time>
      </trkpt>
      <trkpt lat="44.70172" lon="5.99843">
        <ele>1491</ele>
        <time>2021-09-20T12:45:20Z</time>
      </trkpt>
      <trkpt lat="44.70171" lon="5.99844">
        <ele>1491</ele>
        <time>2021-09-20T12:45:21Z</time>
      </trkpt>
      <trkpt lat="44.70169" lon="5.99845">
        <ele>1491</ele>
        <time>2021-09-20T12:45:22Z</time>
      </trkpt>
      <trkpt lat="44.70168" lon="5.99846">
        <ele>1490</ele>
        <time>2021-09-20T12:45:23Z</time>
      </trkpt>
      <trkpt lat="44.70167" lon="5.99847">
        <ele>1490</ele>
        <time>2021-09-20T12:45:24Z</time>
      </trkpt>
      <trkpt lat="44.70166" lon="5.99848">
        <ele>1490</ele>
        <time>2021-09-20T12:45:25Z</time>
      </trkpt>
      <trkpt lat="44.70164" lon="5.99849">
        <ele>1490</ele>
        <time>2021-09-20T12:45:26Z</time>
      </trkpt>
      <trkpt lat="44.70163" lon="5.9985">
        <ele>1490</ele>
        <time>2021-09-20T12:45:27Z</time>
      </trkpt>
      <trkpt lat="44.70161" lon="5.99851">
        <ele>1490</ele>
        <time>2021-09-20T12:45:28Z</time>
      </trkpt>
      <trkpt lat="44.7016" lon="5.99852">
        <ele>1490</ele>
        <time>2021-09-20T12:45:29Z</time>
      </trkpt>
      <trkpt lat="44.70158" lon="5.99853">
        <ele>1490</ele>
        <time>2021-09-20T12:45:30Z</time>
      </trkpt>
      <trkpt lat="44.70156" lon="5.99853">
        <ele>1490</ele>
        <time>2021-09-20T12:45:31Z</time>
      </trkpt>
      <trkpt lat="44.70154" lon="5.99853">
        <ele>1490</ele>
        <time>2021-09-20T12:45:32Z</time>
      </trkpt>
      <trkpt lat="44.70152" lon="5.99853">
        <ele>1489</ele>
        <time>2021-09-20T12:45:33Z</time>
      </trkpt>
      <trkpt lat="44.7015" lon="5.99853">
        <ele>1489</ele>
        <time>2021-09-20T12:45:34Z</time>
      </trkpt>
      <trkpt lat="44.70148" lon="5.99853">
        <ele>1489</ele>
        <time>2021-09-20T12:45:35Z</time>
      </trkpt>
      <trkpt lat="44.70147" lon="5.99853">
        <ele>1489</ele>
        <time>2021-09-20T12:45:36Z</time>
      </trkpt>
      <trkpt lat="44.70145" lon="5.99853">
        <ele>1489</ele>
        <time>2021-09-20T12:45:37Z</time>
      </trkpt>
      <trkpt lat="44.70144" lon="5.99854">
        <ele>1489</ele>
        <time>2021-09-20T12:45:38Z</time>
      </trkpt>
      <trkpt lat="44.70143" lon="5.99854">
        <ele>1489</ele>
        <time>2021-09-20T12:45:39Z</time>
      </trkpt>
      <trkpt lat="44.70142" lon="5.99854">
        <ele>1489</ele>
        <time>2021-09-20T12:45:40Z</time>
      </trkpt>
      <trkpt lat="44.70141" lon="5.99855">
        <ele>1489</ele>
        <time>2021-09-20T12:45:41Z</time>
      </trkpt>
      <trkpt lat="44.7014" lon="5.99855">
        <ele>1489</ele>
        <time>2021-09-20T12:45:42Z</time>
      </trkpt>
      <trkpt lat="44.70138" lon="5.99855">
        <ele>1488</ele>
        <time>2021-09-20T12:45:43Z</time>
      </trkpt>
      <trkpt lat="44.70137" lon="5.99856">
        <ele>1488</ele>
        <time>2021-09-20T12:45:44Z</time>
      </trkpt>
      <trkpt lat="44.70136" lon="5.99856">
        <ele>1488</ele>
        <time>2021-09-20T12:45:45Z</time>
      </trkpt>
      <trkpt lat="44.70135" lon="5.99857">
        <ele>1488</ele>
        <time>2021-09-20T12:45:46Z</time>
      </trkpt>
      <trkpt lat="44.70133" lon="5.99857">
        <ele>1488</ele>
        <time>2021-09-20T12:45:47Z</time>
      </trkpt>
      <trkpt lat="44.70132" lon="5.99858">
        <ele>1488</ele>
        <time>2021-09-20T12:45:48Z</time>
      </trkpt>
      <trkpt lat="44.70131" lon="5.99858">
        <ele>1488</ele>
        <time>2021-09-20T12:45:49Z</time>
      </trkpt>
      <trkpt lat="44.70129" lon="5.99858">
        <ele>1488</ele>
        <time>2021-09-20T12:45:50Z</time>
      </trkpt>
      <trkpt lat="44.70128" lon="5.99858">
        <ele>1488</ele>
        <time>2021-09-20T12:45:51Z</time>
      </trkpt>
      <trkpt lat="44.70127" lon="5.99858">
        <ele>1488</ele>
        <time>2021-09-20T12:45:52Z</time>
      </trkpt>
      <trkpt lat="44.70125" lon="5.99857">
        <ele>1487</ele>
        <time>2021-09-20T12:45:53Z</time>
      </trkpt>
      <trkpt lat="44.70124" lon="5.99857">
        <ele>1487</ele>
        <time>2021-09-20T12:45:54Z</time>
      </trkpt>
      <trkpt lat="44.70123" lon="5.99856">
        <ele>1487</ele>
        <time>2021-09-20T12:45:55Z</time>
      </trkpt>
      <trkpt lat="44.70122" lon="5.99856">
        <ele>1487</ele>
        <time>2021-09-20T12:45:56Z</time>
      </trkpt>
      <trkpt lat="44.70121" lon="5.99855">
        <ele>1487</ele>
        <time>2021-09-20T12:45:57Z</time>
      </trkpt>
      <trkpt lat="44.70121" lon="5.99854">
        <ele>1486</ele>
        <time>2021-09-20T12:45:58Z</time>
      </trkpt>
      <trkpt lat="44.7012" lon="5.99853">
        <ele>1486</ele>
        <time>2021-09-20T12:45:59Z</time>
      </trkpt>
      <trkpt lat="44.70119" lon="5.99853">
        <ele>1486</ele>
        <time>2021-09-20T12:46:00Z</time>
      </trkpt>
      <trkpt lat="44.70119" lon="5.99852">
        <ele>1486</ele>
        <time>2021-09-20T12:46:01Z</time>
      </trkpt>
      <trkpt lat="44.70118" lon="5.99851">
        <ele>1486</ele>
        <time>2021-09-20T12:46:02Z</time>
      </trkpt>
      <trkpt lat="44.70118" lon="5.9985">
        <ele>1486</ele>
        <time>2021-09-20T12:46:03Z</time>
      </trkpt>
      <trkpt lat="44.70117" lon="5.9985">
        <ele>1486</ele>
        <time>2021-09-20T12:46:04Z</time>
      </trkpt>
      <trkpt lat="44.70116" lon="5.99849">
        <ele>1486</ele>
        <time>2021-09-20T12:46:05Z</time>
      </trkpt>
      <trkpt lat="44.70116" lon="5.99848">
        <ele>1486</ele>
        <time>2021-09-20T12:46:06Z</time>
      </trkpt>
      <trkpt lat="44.70115" lon="5.99848">
        <ele>1486</ele>
        <time>2021-09-20T12:46:07Z</time>
      </trkpt>
      <trkpt lat="44.70114" lon="5.99847">
        <ele>1486</ele>
        <time>2021-09-20T12:46:08Z</time>
      </trkpt>
      <trkpt lat="44.70114" lon="5.99847">
        <ele>1486</ele>
        <time>2021-09-20T12:46:09Z</time>
      </trkpt>
      <trkpt lat="44.70113" lon="5.99846">
        <ele>1486</ele>
        <time>2021-09-20T12:46:10Z</time>
      </trkpt>
      <trkpt lat="44.70113" lon="5.99846">
        <ele>1486</ele>
        <time>2021-09-20T12:46:11Z</time>
      </trkpt>
      <trkpt lat="44.70112" lon="5.99845">
        <ele>1486</ele>
        <time>2021-09-20T12:46:12Z</time>
      </trkpt>
      <trkpt lat="44.70111" lon="5.99844">
        <ele>1486</ele>
        <time>2021-09-20T12:46:13Z</time>
      </trkpt>
      <trkpt lat="44.70111" lon="5.99844">
        <ele>1486</ele>
        <time>2021-09-20T12:46:14Z</time>
      </trkpt>
      <trkpt lat="44.7011" lon="5.99843">
        <ele>1486</ele>
        <time>2021-09-20T12:46:15Z</time>
      </trkpt>
      <trkpt lat="44.7011" lon="5.99843">
        <ele>1486</ele>
        <time>2021-09-20T12:46:16Z</time>
      </trkpt>
      <trkpt lat="44.7011" lon="5.99843">
        <ele>1486</ele>
        <time>2021-09-20T12:46:17Z</time>
      </trkpt>
      <trkpt lat="44.70109" lon="5.99842">
        <ele>1486</ele>
        <time>2021-09-20T12:46:18Z</time>
      </trkpt>
      <trkpt lat="44.70108" lon="5.99841">
        <ele>1486</ele>
        <time>2021-09-20T12:46:19Z</time>
      </trkpt>
      <trkpt lat="44.70108" lon="5.99841">
        <ele>1486</ele>
        <time>2021-09-20T12:46:20Z</time>
      </trkpt>
      <trkpt lat="44.70107" lon="5.9984">
        <ele>1486</ele>
        <time>2021-09-20T12:46:21Z</time>
      </trkpt>
      <trkpt lat="44.70106" lon="5.9984">
        <ele>1486</ele>
        <time>2021-09-20T12:46:22Z</time>
      </trkpt>
      <trkpt lat="44.70105" lon="5.9984">
        <ele>1486</ele>
        <time>2021-09-20T12:46:23Z</time>
      </trkpt>
      <trkpt lat="44.70105" lon="5.9984">
        <ele>1486</ele>
        <time>2021-09-20T12:46:24Z</time>
      </trkpt>
      <trkpt lat="44.70104" lon="5.99839">
        <ele>1486</ele>
        <time>2021-09-20T12:46:25Z</time>
      </trkpt>
      <trkpt lat="44.70104" lon="5.99839">
        <ele>1486</ele>
        <time>2021-09-20T12:46:26Z</time>
      </trkpt>
      <trkpt lat="44.70103" lon="5.99839">
        <ele>1486</ele>
        <time>2021-09-20T12:46:27Z</time>
      </trkpt>
      <trkpt lat="44.70103" lon="5.99839">
        <ele>1486</ele>
        <time>2021-09-20T12:46:28Z</time>
      </trkpt>
      <trkpt lat="44.70103" lon="5.99839">
        <ele>1486</ele>
        <time>2021-09-20T12:46:29Z</time>
      </trkpt>
      <trkpt lat="44.70103" lon="5.99839">
        <ele>1486</ele>
        <time>2021-09-20T12:46:30Z</time>
      </trkpt>
      <trkpt lat="44.70102" lon="5.99838">
        <ele>1486</ele>
        <time>2021-09-20T12:46:31Z</time>
      </trkpt>
      <trkpt lat="44.70101" lon="5.99838">
        <ele>1486</ele>
        <time>2021-09-20T12:46:32Z</time>
      </trkpt>
      <trkpt lat="44.701" lon="5.99838">
        <ele>1486</ele>
        <time>2021-09-20T12:46:33Z</time>
      </trkpt>
      <trkpt lat="44.70099" lon="5.99838">
        <ele>1486</ele>
        <time>2021-09-20T12:46:34Z</time>
      </trkpt>
      <trkpt lat="44.70098" lon="5.99837">
        <ele>1486</ele>
        <time>2021-09-20T12:46:35Z</time>
      </trkpt>
      <trkpt lat="44.70097" lon="5.99837">
        <ele>1486</ele>
        <time>2021-09-20T12:46:36Z</time>
      </trkpt>
      <trkpt lat="44.70097" lon="5.99837">
        <ele>1486</ele>
        <time>2021-09-20T12:46:37Z</time>
      </trkpt>
      <trkpt lat="44.70096" lon="5.99837">
        <ele>1485</ele>
        <time>2021-09-20T12:46:38Z</time>
      </trkpt>
      <trkpt lat="44.70095" lon="5.99837">
        <ele>1485</ele>
        <time>2021-09-20T12:46:39Z</time>
      </trkpt>
      <trkpt lat="44.70094" lon="5.99837">
        <ele>1485</ele>
        <time>2021-09-20T12:46:40Z</time>
      </trkpt>
      <trkpt lat="44.70093" lon="5.99838">
        <ele>1485</ele>
        <time>2021-09-20T12:46:41Z</time>
      </trkpt>
      <trkpt lat="44.70092" lon="5.99838">
        <ele>1485</ele>
        <time>2021-09-20T12:46:42Z</time>
      </trkpt>
      <trkpt lat="44.70091" lon="5.99839">
        <ele>1484</ele>
        <time>2021-09-20T12:46:43Z</time>
      </trkpt>
      <trkpt lat="44.7009" lon="5.9984">
        <ele>1484</ele>
        <time>2021-09-20T12:46:44Z</time>
      </trkpt>
      <trkpt lat="44.70089" lon="5.9984">
        <ele>1484</ele>
        <time>2021-09-20T12:46:45Z</time>
      </trkpt>
      <trkpt lat="44.70088" lon="5.99841">
        <ele>1484</ele>
        <time>2021-09-20T12:46:46Z</time>
      </trkpt>
      <trkpt lat="44.70087" lon="5.99841">
        <ele>1484</ele>
        <time>2021-09-20T12:46:47Z</time>
      </trkpt>
      <trkpt lat="44.70086" lon="5.99841">
        <ele>1483</ele>
        <time>2021-09-20T12:46:48Z</time>
      </trkpt>
      <trkpt lat="44.70084" lon="5.9984">
        <ele>1483</ele>
        <time>2021-09-20T12:46:49Z</time>
      </trkpt>
      <trkpt lat="44.70083" lon="5.9984">
        <ele>1483</ele>
        <time>2021-09-20T12:46:50Z</time>
      </trkpt>
      <trkpt lat="44.70082" lon="5.9984">
        <ele>1483</ele>
        <time>2021-09-20T12:46:51Z</time>
      </trkpt>
      <trkpt lat="44.70081" lon="5.99839">
        <ele>1483</ele>
        <time>2021-09-20T12:46:52Z</time>
      </trkpt>
      <trkpt lat="44.7008" lon="5.99839">
        <ele>1483</ele>
        <time>2021-09-20T12:46:53Z</time>
      </trkpt>
      <trkpt lat="44.70079" lon="5.99838">
        <ele>1483</ele>
        <time>2021-09-20T12:46:54Z</time>
      </trkpt>
      <trkpt lat="44.70078" lon="5.99838">
        <ele>1483</ele>
        <time>2021-09-20T12:46:55Z</time>
      </trkpt>
      <trkpt lat="44.70077" lon="5.99838">
        <ele>1483</ele>
        <time>2021-09-20T12:46:56Z</time>
      </trkpt>
      <trkpt lat="44.70076" lon="5.99838">
        <ele>1483</ele>
        <time>2021-09-20T12:46:57Z</time>
      </trkpt>
      <trkpt lat="44.70075" lon="5.99838">
        <ele>1483</ele>
        <time>2021-09-20T12:46:58Z</time>
      </trkpt>
      <trkpt lat="44.70074" lon="5.99838">
        <ele>1483</ele>
        <time>2021-09-20T12:46:59Z</time>
      </trkpt>
      <trkpt lat="44.70073" lon="5.99838">
        <ele>1483</ele>
        <time>2021-09-20T12:47:00Z</time>
      </trkpt>
      <trkpt lat="44.70072" lon="5.99838">
        <ele>1483</ele>
        <time>2021-09-20T12:47:01Z</time>
      </trkpt>
      <trkpt lat="44.70071" lon="5.99837">
        <ele>1483</ele>
        <time>2021-09-20T12:47:02Z</time>
      </trkpt>
      <trkpt lat="44.70071" lon="5.99837">
        <ele>1483</ele>
        <time>2021-09-20T12:47:03Z</time>
      </trkpt>
      <trkpt lat="44.70071" lon="5.99837">
        <ele>1483</ele>
        <time>2021-09-20T12:47:04Z</time>
      </trkpt>
      <trkpt lat="44.7007" lon="5.99837">
        <ele>1483</ele>
        <time>2021-09-20T12:47:05Z</time>
      </trkpt>
      <trkpt lat="44.70069" lon="5.99837">
        <ele>1483</ele>
        <time>2021-09-20T12:47:06Z</time>
      </trkpt>
      <trkpt lat="44.70069" lon="5.99837">
        <ele>1483</ele>
        <time>2021-09-20T12:47:07Z</time>
      </trkpt>
      <trkpt lat="44.70068" lon="5.99837">
        <ele>1483</ele>
        <time>2021-09-20T12:47:08Z</time>
      </trkpt>
      <trkpt lat="44.70067" lon="5.99837">
        <ele>1483</ele>
        <time>2021-09-20T12:47:09Z</time>
      </trkpt>
      <trkpt lat="44.70066" lon="5.99837">
        <ele>1483</ele>
        <time>2021-09-20T12:47:10Z</time>
      </trkpt>
      <trkpt lat="44.70065" lon="5.99837">
        <ele>1483</ele>
        <time>2021-09-20T12:47:11Z</time>
      </trkpt>
      <trkpt lat="44.70064" lon="5.99837">
        <ele>1483</ele>
        <time>2021-09-20T12:47:12Z</time>
      </trkpt>
      <trkpt lat="44.70063" lon="5.99838">
        <ele>1483</ele>
        <time>2021-09-20T12:47:13Z</time>
      </trkpt>
      <trkpt lat="44.70062" lon="5.99838">
        <ele>1483</ele>
        <time>2021-09-20T12:47:14Z</time>
      </trkpt>
      <trkpt lat="44.70061" lon="5.99838">
        <ele>1483</ele>
        <time>2021-09-20T12:47:15Z</time>
      </trkpt>
      <trkpt lat="44.7006" lon="5.99838">
        <ele>1483</ele>
        <time>2021-09-20T12:47:16Z</time>
      </trkpt>
      <trkpt lat="44.70059" lon="5.99839">
        <ele>1483</ele>
        <time>2021-09-20T12:47:17Z</time>
      </trkpt>
      <trkpt lat="44.70058" lon="5.99839">
        <ele>1483</ele>
        <time>2021-09-20T12:47:18Z</time>
      </trkpt>
      <trkpt lat="44.70057" lon="5.99839">
        <ele>1483</ele>
        <time>2021-09-20T12:47:19Z</time>
      </trkpt>
      <trkpt lat="44.70056" lon="5.99839">
        <ele>1483</ele>
        <time>2021-09-20T12:47:20Z</time>
      </trkpt>
      <trkpt lat="44.70055" lon="5.99839">
        <ele>1483</ele>
        <time>2021-09-20T12:47:21Z</time>
      </trkpt>
      <trkpt lat="44.70054" lon="5.9984">
        <ele>1483</ele>
        <time>2021-09-20T12:47:22Z</time>
      </trkpt>
      <trkpt lat="44.70053" lon="5.9984">
        <ele>1483</ele>
        <time>2021-09-20T12:47:23Z</time>
      </trkpt>
      <trkpt lat="44.70052" lon="5.9984">
        <ele>1483</ele>
        <time>2021-09-20T12:47:24Z</time>
      </trkpt>
      <trkpt lat="44.70051" lon="5.9984">
        <ele>1483</ele>
        <time>2021-09-20T12:47:25Z</time>
      </trkpt>
      <trkpt lat="44.7005" lon="5.9984">
        <ele>1483</ele>
        <time>2021-09-20T12:47:26Z</time>
      </trkpt>
      <trkpt lat="44.70049" lon="5.9984">
        <ele>1483</ele>
        <time>2021-09-20T12:47:27Z</time>
      </trkpt>
      <trkpt lat="44.70048" lon="5.9984">
        <ele>1483</ele>
        <time>2021-09-20T12:47:28Z</time>
      </trkpt>
      <trkpt lat="44.70047" lon="5.9984">
        <ele>1483</ele>
        <time>2021-09-20T12:47:29Z</time>
      </trkpt>
      <trkpt lat="44.70046" lon="5.9984">
        <ele>1483</ele>
        <time>2021-09-20T12:47:30Z</time>
      </trkpt>
      <trkpt lat="44.70045" lon="5.9984">
        <ele>1483</ele>
        <time>2021-09-20T12:47:31Z</time>
      </trkpt>
      <trkpt lat="44.70044" lon="5.9984">
        <ele>1483</ele>
        <time>2021-09-20T12:47:32Z</time>
      </trkpt>
      <trkpt lat="44.70043" lon="5.9984">
        <ele>1483</ele>
        <time>2021-09-20T12:47:33Z</time>
      </trkpt>
      <trkpt lat="44.70042" lon="5.9984">
        <ele>1483</ele>
        <time>2021-09-20T12:47:34Z</time>
      </trkpt>
      <trkpt lat="44.70041" lon="5.99839">
        <ele>1483</ele>
        <time>2021-09-20T12:47:35Z</time>
      </trkpt>
      <trkpt lat="44.7004" lon="5.99839">
        <ele>1483</ele>
        <time>2021-09-20T12:47:36Z</time>
      </trkpt>
      <trkpt lat="44.7004" lon="5.99839">
        <ele>1483</ele>
        <time>2021-09-20T12:47:37Z</time>
      </trkpt>
      <trkpt lat="44.7004" lon="5.99839">
        <ele>1483</ele>
        <time>2021-09-20T12:47:38Z</time>
      </trkpt>
      <trkpt lat="44.70039" lon="5.99838">
        <ele>1483</ele>
        <time>2021-09-20T12:47:39Z</time>
      </trkpt>
      <trkpt lat="44.70039" lon="5.99838">
        <ele>1483</ele>
        <time>2021-09-20T12:47:40Z</time>
      </trkpt>
      <trkpt lat="44.70039" lon="5.99838">
        <ele>1483</ele>
        <time>2021-09-20T12:47:41Z</time>
      </trkpt>
      <trkpt lat="44.70039" lon="5.99838">
        <ele>1483</ele>
        <time>2021-09-20T12:47:42Z</time>
      </trkpt>
      <trkpt lat="44.70038" lon="5.99838">
        <ele>1483</ele>
        <time>2021-09-20T12:47:43Z</time>
      </trkpt>
      <trkpt lat="44.70038" lon="5.99837">
        <ele>1483</ele>
        <time>2021-09-20T12:47:44Z</time>
      </trkpt>
      <trkpt lat="44.70038" lon="5.99837">
        <ele>1483</ele>
        <time>2021-09-20T12:47:45Z</time>
      </trkpt>
      <trkpt lat="44.70037" lon="5.99837">
        <ele>1483</ele>
        <time>2021-09-20T12:47:46Z</time>
      </trkpt>
      <trkpt lat="44.70036" lon="5.99837">
        <ele>1483</ele>
        <time>2021-09-20T12:47:47Z</time>
      </trkpt>
      <trkpt lat="44.70035" lon="5.99836">
        <ele>1483</ele>
        <time>2021-09-20T12:47:48Z</time>
      </trkpt>
      <trkpt lat="44.70034" lon="5.99836">
        <ele>1483</ele>
        <time>2021-09-20T12:47:49Z</time>
      </trkpt>
      <trkpt lat="44.70033" lon="5.99835">
        <ele>1483</ele>
        <time>2021-09-20T12:47:50Z</time>
      </trkpt>
      <trkpt lat="44.70032" lon="5.99834">
        <ele>1483</ele>
        <time>2021-09-20T12:47:51Z</time>
      </trkpt>
      <trkpt lat="44.70032" lon="5.99834">
        <ele>1483</ele>
        <time>2021-09-20T12:47:52Z</time>
      </trkpt>
      <trkpt lat="44.70031" lon="5.99833">
        <ele>1483</ele>
        <time>2021-09-20T12:47:53Z</time>
      </trkpt>
      <trkpt lat="44.70031" lon="5.99832">
        <ele>1483</ele>
        <time>2021-09-20T12:47:54Z</time>
      </trkpt>
      <trkpt lat="44.7003" lon="5.99831">
        <ele>1483</ele>
        <time>2021-09-20T12:47:55Z</time>
      </trkpt>
      <trkpt lat="44.70029" lon="5.9983">
        <ele>1483</ele>
        <time>2021-09-20T12:47:56Z</time>
      </trkpt>
      <trkpt lat="44.70029" lon="5.99829">
        <ele>1483</ele>
        <time>2021-09-20T12:47:57Z</time>
      </trkpt>
      <trkpt lat="44.70028" lon="5.99828">
        <ele>1483</ele>
        <time>2021-09-20T12:47:58Z</time>
      </trkpt>
      <trkpt lat="44.70028" lon="5.99828">
        <ele>1483</ele>
        <time>2021-09-20T12:47:59Z</time>
      </trkpt>
      <trkpt lat="44.70027" lon="5.99828">
        <ele>1483</ele>
        <time>2021-09-20T12:48:00Z</time>
      </trkpt>
      <trkpt lat="44.70026" lon="5.99827">
        <ele>1483</ele>
        <time>2021-09-20T12:48:01Z</time>
      </trkpt>
      <trkpt lat="44.70025" lon="5.99827">
        <ele>1483</ele>
        <time>2021-09-20T12:48:02Z</time>
      </trkpt>
      <trkpt lat="44.70024" lon="5.99827">
        <ele>1483</ele>
        <time>2021-09-20T12:48:03Z</time>
      </trkpt>
      <trkpt lat="44.70023" lon="5.99827">
        <ele>1483</ele>
        <time>2021-09-20T12:48:04Z</time>
      </trkpt>
      <trkpt lat="44.70022" lon="5.99827">
        <ele>1483</ele>
        <time>2021-09-20T12:48:05Z</time>
      </trkpt>
      <trkpt lat="44.70022" lon="5.99827">
        <ele>1483</ele>
        <time>2021-09-20T12:48:06Z</time>
      </trkpt>
      <trkpt lat="44.70021" lon="5.99826">
        <ele>1483</ele>
        <time>2021-09-20T12:48:07Z</time>
      </trkpt>
      <trkpt lat="44.7002" lon="5.99826">
        <ele>1483</ele>
        <time>2021-09-20T12:48:08Z</time>
      </trkpt>
      <trkpt lat="44.70019" lon="5.99826">
        <ele>1483</ele>
        <time>2021-09-20T12:48:09Z</time>
      </trkpt>
      <trkpt lat="44.70018" lon="5.99826">
        <ele>1483</ele>
        <time>2021-09-20T12:48:10Z</time>
      </trkpt>
      <trkpt lat="44.70017" lon="5.99826">
        <ele>1483</ele>
        <time>2021-09-20T12:48:11Z</time>
      </trkpt>
      <trkpt lat="44.70016" lon="5.99826">
        <ele>1483</ele>
        <time>2021-09-20T12:48:12Z</time>
      </trkpt>
      <trkpt lat="44.70015" lon="5.99826">
        <ele>1483</ele>
        <time>2021-09-20T12:48:13Z</time>
      </trkpt>
      <trkpt lat="44.70014" lon="5.99826">
        <ele>1483</ele>
        <time>2021-09-20T12:48:14Z</time>
      </trkpt>
      <trkpt lat="44.70013" lon="5.99826">
        <ele>1483</ele>
        <time>2021-09-20T12:48:15Z</time>
      </trkpt>
      <trkpt lat="44.70012" lon="5.99826">
        <ele>1483</ele>
        <time>2021-09-20T12:48:16Z</time>
      </trkpt>
      <trkpt lat="44.70011" lon="5.99826">
        <ele>1483</ele>
        <time>2021-09-20T12:48:17Z</time>
      </trkpt>
      <trkpt lat="44.7001" lon="5.99825">
        <ele>1482</ele>
        <time>2021-09-20T12:48:18Z</time>
      </trkpt>
      <trkpt lat="44.70009" lon="5.99825">
        <ele>1482</ele>
        <time>2021-09-20T12:48:19Z</time>
      </trkpt>
      <trkpt lat="44.70008" lon="5.99824">
        <ele>1482</ele>
        <time>2021-09-20T12:48:20Z</time>
      </trkpt>
      <trkpt lat="44.70007" lon="5.99823">
        <ele>1482</ele>
        <time>2021-09-20T12:48:21Z</time>
      </trkpt>
      <trkpt lat="44.70006" lon="5.99821">
        <ele>1482</ele>
        <time>2021-09-20T12:48:22Z</time>
      </trkpt>
      <trkpt lat="44.70006" lon="5.9982">
        <ele>1482</ele>
        <time>2021-09-20T12:48:23Z</time>
      </trkpt>
      <trkpt lat="44.70005" lon="5.99819">
        <ele>1482</ele>
        <time>2021-09-20T12:48:24Z</time>
      </trkpt>
      <trkpt lat="44.70004" lon="5.99819">
        <ele>1482</ele>
        <time>2021-09-20T12:48:25Z</time>
      </trkpt>
      <trkpt lat="44.70003" lon="5.99818">
        <ele>1482</ele>
        <time>2021-09-20T12:48:26Z</time>
      </trkpt>
      <trkpt lat="44.70002" lon="5.99818">
        <ele>1482</ele>
        <time>2021-09-20T12:48:27Z</time>
      </trkpt>
      <trkpt lat="44.70001" lon="5.99818">
        <ele>1481</ele>
        <time>2021-09-20T12:48:28Z</time>
      </trkpt>
      <trkpt lat="44.7" lon="5.99818">
        <ele>1481</ele>
        <time>2021-09-20T12:48:29Z</time>
      </trkpt>
      <trkpt lat="44.69999" lon="5.99819">
        <ele>1481</ele>
        <time>2021-09-20T12:48:30Z</time>
      </trkpt>
      <trkpt lat="44.69998" lon="5.99819">
        <ele>1481</ele>
        <time>2021-09-20T12:48:31Z</time>
      </trkpt>
      <trkpt lat="44.69997" lon="5.9982">
        <ele>1481</ele>
        <time>2021-09-20T12:48:32Z</time>
      </trkpt>
      <trkpt lat="44.69996" lon="5.99821">
        <ele>1481</ele>
        <time>2021-09-20T12:48:33Z</time>
      </trkpt>
      <trkpt lat="44.69995" lon="5.99821">
        <ele>1481</ele>
        <time>2021-09-20T12:48:34Z</time>
      </trkpt>
      <trkpt lat="44.69995" lon="5.99821">
        <ele>1481</ele>
        <time>2021-09-20T12:48:35Z</time>
      </trkpt>
      <trkpt lat="44.69994" lon="5.99822">
        <ele>1481</ele>
        <time>2021-09-20T12:48:36Z</time>
      </trkpt>
      <trkpt lat="44.69993" lon="5.99822">
        <ele>1481</ele>
        <time>2021-09-20T12:48:37Z</time>
      </trkpt>
      <trkpt lat="44.69992" lon="5.99823">
        <ele>1481</ele>
        <time>2021-09-20T12:48:38Z</time>
      </trkpt>
      <trkpt lat="44.6999" lon="5.99823">
        <ele>1481</ele>
        <time>2021-09-20T12:48:39Z</time>
      </trkpt>
      <trkpt lat="44.69989" lon="5.99823">
        <ele>1481</ele>
        <time>2021-09-20T12:48:40Z</time>
      </trkpt>
      <trkpt lat="44.69988" lon="5.99823">
        <ele>1481</ele>
        <time>2021-09-20T12:48:41Z</time>
      </trkpt>
      <trkpt lat="44.69987" lon="5.99824">
        <ele>1481</ele>
        <time>2021-09-20T12:48:42Z</time>
      </trkpt>
      <trkpt lat="44.69985" lon="5.99824">
        <ele>1481</ele>
        <time>2021-09-20T12:48:43Z</time>
      </trkpt>
      <trkpt lat="44.69984" lon="5.99824">
        <ele>1481</ele>
        <time>2021-09-20T12:48:44Z</time>
      </trkpt>
      <trkpt lat="44.69983" lon="5.99825">
        <ele>1481</ele>
        <time>2021-09-20T12:48:45Z</time>
      </trkpt>
      <trkpt lat="44.69982" lon="5.99825">
        <ele>1481</ele>
        <time>2021-09-20T12:48:46Z</time>
      </trkpt>
      <trkpt lat="44.69981" lon="5.99826">
        <ele>1481</ele>
        <time>2021-09-20T12:48:47Z</time>
      </trkpt>
      <trkpt lat="44.6998" lon="5.99826">
        <ele>1481</ele>
        <time>2021-09-20T12:48:48Z</time>
      </trkpt>
      <trkpt lat="44.69979" lon="5.99826">
        <ele>1481</ele>
        <time>2021-09-20T12:48:49Z</time>
      </trkpt>
      <trkpt lat="44.69978" lon="5.99826">
        <ele>1481</ele>
        <time>2021-09-20T12:48:50Z</time>
      </trkpt>
      <trkpt lat="44.69977" lon="5.99826">
        <ele>1481</ele>
        <time>2021-09-20T12:48:51Z</time>
      </trkpt>
      <trkpt lat="44.69976" lon="5.99825">
        <ele>1481</ele>
        <time>2021-09-20T12:48:52Z</time>
      </trkpt>
      <trkpt lat="44.69975" lon="5.99824">
        <ele>1480</ele>
        <time>2021-09-20T12:48:53Z</time>
      </trkpt>
      <trkpt lat="44.69975" lon="5.99824">
        <ele>1480</ele>
        <time>2021-09-20T12:48:54Z</time>
      </trkpt>
      <trkpt lat="44.69974" lon="5.99823">
        <ele>1480</ele>
        <time>2021-09-20T12:48:55Z</time>
      </trkpt>
      <trkpt lat="44.69973" lon="5.99822">
        <ele>1480</ele>
        <time>2021-09-20T12:48:56Z</time>
      </trkpt>
      <trkpt lat="44.69972" lon="5.99822">
        <ele>1480</ele>
        <time>2021-09-20T12:48:57Z</time>
      </trkpt>
      <trkpt lat="44.6997" lon="5.99821">
        <ele>1480</ele>
        <time>2021-09-20T12:48:58Z</time>
      </trkpt>
      <trkpt lat="44.69969" lon="5.99821">
        <ele>1480</ele>
        <time>2021-09-20T12:48:59Z</time>
      </trkpt>
      <trkpt lat="44.69968" lon="5.99821">
        <ele>1480</ele>
        <time>2021-09-20T12:49:00Z</time>
      </trkpt>
      <trkpt lat="44.69967" lon="5.9982">
        <ele>1480</ele>
        <time>2021-09-20T12:49:01Z</time>
      </trkpt>
      <trkpt lat="44.69966" lon="5.9982">
        <ele>1480</ele>
        <time>2021-09-20T12:49:02Z</time>
      </trkpt>
      <trkpt lat="44.69965" lon="5.99819">
        <ele>1480</ele>
        <time>2021-09-20T12:49:03Z</time>
      </trkpt>
      <trkpt lat="44.69964" lon="5.99819">
        <ele>1480</ele>
        <time>2021-09-20T12:49:04Z</time>
      </trkpt>
      <trkpt lat="44.69963" lon="5.99818">
        <ele>1480</ele>
        <time>2021-09-20T12:49:05Z</time>
      </trkpt>
      <trkpt lat="44.69962" lon="5.99818">
        <ele>1480</ele>
        <time>2021-09-20T12:49:06Z</time>
      </trkpt>
      <trkpt lat="44.69961" lon="5.99818">
        <ele>1480</ele>
        <time>2021-09-20T12:49:07Z</time>
      </trkpt>
      <trkpt lat="44.6996" lon="5.99818">
        <ele>1480</ele>
        <time>2021-09-20T12:49:08Z</time>
      </trkpt>
      <trkpt lat="44.69959" lon="5.99819">
        <ele>1480</ele>
        <time>2021-09-20T12:49:09Z</time>
      </trkpt>
      <trkpt lat="44.69958" lon="5.99819">
        <ele>1480</ele>
        <time>2021-09-20T12:49:10Z</time>
      </trkpt>
      <trkpt lat="44.69957" lon="5.99819">
        <ele>1480</ele>
        <time>2021-09-20T12:49:11Z</time>
      </trkpt>
      <trkpt lat="44.69955" lon="5.9982">
        <ele>1480</ele>
        <time>2021-09-20T12:49:12Z</time>
      </trkpt>
      <trkpt lat="44.69954" lon="5.9982">
        <ele>1480</ele>
        <time>2021-09-20T12:49:13Z</time>
      </trkpt>
      <trkpt lat="44.69953" lon="5.9982">
        <ele>1480</ele>
        <time>2021-09-20T12:49:14Z</time>
      </trkpt>
      <trkpt lat="44.69952" lon="5.9982">
        <ele>1480</ele>
        <time>2021-09-20T12:49:15Z</time>
      </trkpt>
      <trkpt lat="44.69951" lon="5.99819">
        <ele>1480</ele>
        <time>2021-09-20T12:49:16Z</time>
      </trkpt>
      <trkpt lat="44.6995" lon="5.99819">
        <ele>1480</ele>
        <time>2021-09-20T12:49:17Z</time>
      </trkpt>
      <trkpt lat="44.6995" lon="5.99819">
        <ele>1480</ele>
        <time>2021-09-20T12:49:18Z</time>
      </trkpt>
      <trkpt lat="44.69949" lon="5.99819">
        <ele>1480</ele>
        <time>2021-09-20T12:49:19Z</time>
      </trkpt>
      <trkpt lat="44.69948" lon="5.99819">
        <ele>1480</ele>
        <time>2021-09-20T12:49:20Z</time>
      </trkpt>
      <trkpt lat="44.69947" lon="5.9982">
        <ele>1480</ele>
        <time>2021-09-20T12:49:21Z</time>
      </trkpt>
      <trkpt lat="44.69947" lon="5.9982">
        <ele>1480</ele>
        <time>2021-09-20T12:49:22Z</time>
      </trkpt>
      <trkpt lat="44.69946" lon="5.9982">
        <ele>1480</ele>
        <time>2021-09-20T12:49:29Z</time>
      </trkpt>
      <trkpt lat="44.69946" lon="5.99821">
        <ele>1480</ele>
        <time>2021-09-20T12:49:30Z</time>
      </trkpt>
      <trkpt lat="44.69946" lon="5.99821">
        <ele>1480</ele>
        <time>2021-09-20T12:49:31Z</time>
      </trkpt>
      <trkpt lat="44.69947" lon="5.99822">
        <ele>1480</ele>
        <time>2021-09-20T12:49:32Z</time>
      </trkpt>
      <trkpt lat="44.69947" lon="5.99822">
        <ele>1480</ele>
        <time>2021-09-20T12:49:33Z</time>
      </trkpt>
      <trkpt lat="44.69948" lon="5.99822">
        <ele>1480</ele>
        <time>2021-09-20T12:49:34Z</time>
      </trkpt>
      <trkpt lat="44.69948" lon="5.99823">
        <ele>1480</ele>
        <time>2021-09-20T12:49:35Z</time>
      </trkpt>
      <trkpt lat="44.69949" lon="5.99823">
        <ele>1480</ele>
        <time>2021-09-20T12:49:36Z</time>
      </trkpt>
      <trkpt lat="44.69949" lon="5.99823">
        <ele>1480</ele>
        <time>2021-09-20T12:49:37Z</time>
      </trkpt>
      <trkpt lat="44.6995" lon="5.99823">
        <ele>1480</ele>
        <time>2021-09-20T12:49:38Z</time>
      </trkpt>
      <trkpt lat="44.69951" lon="5.99823">
        <ele>1480</ele>
        <time>2021-09-20T12:49:39Z</time>
      </trkpt>
      <trkpt lat="44.69951" lon="5.99823">
        <ele>1480</ele>
        <time>2021-09-20T12:49:40Z</time>
      </trkpt>
      <trkpt lat="44.69952" lon="5.99823">
        <ele>1480</ele>
        <time>2021-09-20T12:49:48Z</time>
      </trkpt>
      <trkpt lat="44.69953" lon="5.99823">
        <ele>1480</ele>
        <time>2021-09-20T12:49:49Z</time>
      </trkpt>
      <trkpt lat="44.69953" lon="5.99823">
        <ele>1480</ele>
        <time>2021-09-20T12:49:50Z</time>
      </trkpt>
      <trkpt lat="44.69953" lon="5.99823">
        <ele>1480</ele>
        <time>2021-09-20T12:49:51Z</time>
      </trkpt>
      <trkpt lat="44.69952" lon="5.99823">
        <ele>1480</ele>
        <time>2021-09-20T12:49:52Z</time>
      </trkpt>
      <trkpt lat="44.69951" lon="5.99822">
        <ele>1480</ele>
        <time>2021-09-20T12:49:53Z</time>
      </trkpt>
      <trkpt lat="44.69949" lon="5.99821">
        <ele>1480</ele>
        <time>2021-09-20T12:49:54Z</time>
      </trkpt>
      <trkpt lat="44.69948" lon="5.99821">
        <ele>1480</ele>
        <time>2021-09-20T12:49:55Z</time>
      </trkpt>
      <trkpt lat="44.69946" lon="5.9982">
        <ele>1480</ele>
        <time>2021-09-20T12:49:56Z</time>
      </trkpt>
      <trkpt lat="44.69945" lon="5.9982">
        <ele>1480</ele>
        <time>2021-09-20T12:49:57Z</time>
      </trkpt>
      <trkpt lat="44.69944" lon="5.99819">
        <ele>1480</ele>
        <time>2021-09-20T12:49:58Z</time>
      </trkpt>
      <trkpt lat="44.69943" lon="5.99819">
        <ele>1480</ele>
        <time>2021-09-20T12:49:59Z</time>
      </trkpt>
      <trkpt lat="44.69942" lon="5.99818">
        <ele>1480</ele>
        <time>2021-09-20T12:50:00Z</time>
      </trkpt>
      <trkpt lat="44.69941" lon="5.99818">
        <ele>1480</ele>
        <time>2021-09-20T12:50:01Z</time>
      </trkpt>
      <trkpt lat="44.6994" lon="5.99817">
        <ele>1480</ele>
        <time>2021-09-20T12:50:02Z</time>
      </trkpt>
      <trkpt lat="44.69939" lon="5.99817">
        <ele>1480</ele>
        <time>2021-09-20T12:50:03Z</time>
      </trkpt>
      <trkpt lat="44.69938" lon="5.99816">
        <ele>1480</ele>
        <time>2021-09-20T12:50:04Z</time>
      </trkpt>
      <trkpt lat="44.69936" lon="5.99816">
        <ele>1480</ele>
        <time>2021-09-20T12:50:05Z</time>
      </trkpt>
      <trkpt lat="44.69935" lon="5.99816">
        <ele>1480</ele>
        <time>2021-09-20T12:50:06Z</time>
      </trkpt>
      <trkpt lat="44.69934" lon="5.99816">
        <ele>1480</ele>
        <time>2021-09-20T12:50:07Z</time>
      </trkpt>
      <trkpt lat="44.69933" lon="5.99815">
        <ele>1479</ele>
        <time>2021-09-20T12:50:08Z</time>
      </trkpt>
      <trkpt lat="44.69931" lon="5.99815">
        <ele>1479</ele>
        <time>2021-09-20T12:50:09Z</time>
      </trkpt>
      <trkpt lat="44.6993" lon="5.99815">
        <ele>1479</ele>
        <time>2021-09-20T12:50:10Z</time>
      </trkpt>
      <trkpt lat="44.69929" lon="5.99815">
        <ele>1479</ele>
        <time>2021-09-20T12:50:11Z</time>
      </trkpt>
      <trkpt lat="44.69927" lon="5.99815">
        <ele>1479</ele>
        <time>2021-09-20T12:50:12Z</time>
      </trkpt>
      <trkpt lat="44.69926" lon="5.99815">
        <ele>1479</ele>
        <time>2021-09-20T12:50:13Z</time>
      </trkpt>
      <trkpt lat="44.69925" lon="5.99815">
        <ele>1479</ele>
        <time>2021-09-20T12:50:14Z</time>
      </trkpt>
      <trkpt lat="44.69924" lon="5.99815">
        <ele>1479</ele>
        <time>2021-09-20T12:50:15Z</time>
      </trkpt>
      <trkpt lat="44.69923" lon="5.99815">
        <ele>1479</ele>
        <time>2021-09-20T12:50:16Z</time>
      </trkpt>
      <trkpt lat="44.69922" lon="5.99814">
        <ele>1479</ele>
        <time>2021-09-20T12:50:17Z</time>
      </trkpt>
      <trkpt lat="44.69921" lon="5.99814">
        <ele>1479</ele>
        <time>2021-09-20T12:50:18Z</time>
      </trkpt>
      <trkpt lat="44.6992" lon="5.99813">
        <ele>1479</ele>
        <time>2021-09-20T12:50:19Z</time>
      </trkpt>
      <trkpt lat="44.69918" lon="5.99812">
        <ele>1479</ele>
        <time>2021-09-20T12:50:20Z</time>
      </trkpt>
      <trkpt lat="44.69917" lon="5.99812">
        <ele>1479</ele>
        <time>2021-09-20T12:50:21Z</time>
      </trkpt>
      <trkpt lat="44.69916" lon="5.99811">
        <ele>1479</ele>
        <time>2021-09-20T12:50:22Z</time>
      </trkpt>
      <trkpt lat="44.69915" lon="5.9981">
        <ele>1479</ele>
        <time>2021-09-20T12:50:23Z</time>
      </trkpt>
      <trkpt lat="44.69914" lon="5.99809">
        <ele>1479</ele>
        <time>2021-09-20T12:50:24Z</time>
      </trkpt>
      <trkpt lat="44.69914" lon="5.99808">
        <ele>1479</ele>
        <time>2021-09-20T12:50:25Z</time>
      </trkpt>
      <trkpt lat="44.69914" lon="5.99807">
        <ele>1478</ele>
        <time>2021-09-20T12:50:40Z</time>
      </trkpt>
      <trkpt lat="44.69915" lon="5.99805">
        <ele>1478</ele>
        <time>2021-09-20T12:50:41Z</time>
      </trkpt>
      <trkpt lat="44.69916" lon="5.99804">
        <ele>1479</ele>
        <time>2021-09-20T12:50:42Z</time>
      </trkpt>
      <trkpt lat="44.69917" lon="5.99804">
        <ele>1479</ele>
        <time>2021-09-20T12:50:43Z</time>
      </trkpt>
      <trkpt lat="44.69917" lon="5.99803">
        <ele>1479</ele>
        <time>2021-09-20T12:50:44Z</time>
      </trkpt>
      <trkpt lat="44.69917" lon="5.99804">
        <ele>1479</ele>
        <time>2021-09-20T12:50:45Z</time>
      </trkpt>
      <trkpt lat="44.69917" lon="5.99804">
        <ele>1479</ele>
        <time>2021-09-20T12:50:46Z</time>
      </trkpt>
      <trkpt lat="44.69917" lon="5.99806">
        <ele>1479</ele>
        <time>2021-09-20T12:50:47Z</time>
      </trkpt>
      <trkpt lat="44.69917" lon="5.99807">
        <ele>1479</ele>
        <time>2021-09-20T12:50:48Z</time>
      </trkpt>
      <trkpt lat="44.69916" lon="5.99808">
        <ele>1479</ele>
        <time>2021-09-20T12:50:49Z</time>
      </trkpt>
      <trkpt lat="44.69916" lon="5.99809">
        <ele>1479</ele>
        <time>2021-09-20T12:50:50Z</time>
      </trkpt>
      <trkpt lat="44.69916" lon="5.99809">
        <ele>1479</ele>
        <time>2021-09-20T12:50:51Z</time>
      </trkpt>
      <trkpt lat="44.69915" lon="5.99809">
        <ele>1479</ele>
        <time>2021-09-20T12:50:52Z</time>
      </trkpt>
      <trkpt lat="44.69915" lon="5.99809">
        <ele>1479</ele>
        <time>2021-09-20T12:50:53Z</time>
      </trkpt>
      <trkpt lat="44.69915" lon="5.99808">
        <ele>1479</ele>
        <time>2021-09-20T12:50:54Z</time>
      </trkpt>
      <trkpt lat="44.69915" lon="5.99808">
        <ele>1479</ele>
        <time>2021-09-20T12:50:55Z</time>
      </trkpt>
      <trkpt lat="44.69915" lon="5.99807">
        <ele>1479</ele>
        <time>2021-09-20T12:50:56Z</time>
      </trkpt>
      <trkpt lat="44.69914" lon="5.99807">
        <ele>1479</ele>
        <time>2021-09-20T12:50:57Z</time>
      </trkpt>
      <trkpt lat="44.69914" lon="5.99806">
        <ele>1479</ele>
        <time>2021-09-20T12:50:58Z</time>
      </trkpt>
      <trkpt lat="44.69914" lon="5.99805">
        <ele>1479</ele>
        <time>2021-09-20T12:50:59Z</time>
      </trkpt>
      <trkpt lat="44.69914" lon="5.99803">
        <ele>1479</ele>
        <time>2021-09-20T12:51:07Z</time>
      </trkpt>
      <trkpt lat="44.69915" lon="5.99803">
        <ele>1479</ele>
        <time>2021-09-20T12:51:08Z</time>
      </trkpt>
      <trkpt lat="44.69915" lon="5.99802">
        <ele>1479</ele>
        <time>2021-09-20T12:51:09Z</time>
      </trkpt>
      <trkpt lat="44.69916" lon="5.99803">
        <ele>1479</ele>
        <time>2021-09-20T12:51:10Z</time>
      </trkpt>
      <trkpt lat="44.69917" lon="5.99803">
        <ele>1479</ele>
        <time>2021-09-20T12:51:11Z</time>
      </trkpt>
      <trkpt lat="44.69917" lon="5.99804">
        <ele>1479</ele>
        <time>2021-09-20T12:51:12Z</time>
      </trkpt>
      <trkpt lat="44.69918" lon="5.99804">
        <ele>1479</ele>
        <time>2021-09-20T12:51:13Z</time>
      </trkpt>
      <trkpt lat="44.69919" lon="5.99805">
        <ele>1478</ele>
        <time>2021-09-20T12:51:34Z</time>
      </trkpt>
      <trkpt lat="44.6992" lon="5.99806">
        <ele>1478</ele>
        <time>2021-09-20T12:51:35Z</time>
      </trkpt>
      <trkpt lat="44.69921" lon="5.99806">
        <ele>1478</ele>
        <time>2021-09-20T12:51:36Z</time>
      </trkpt>
      <trkpt lat="44.69921" lon="5.99808">
        <ele>1479</ele>
        <time>2021-09-20T12:52:14Z</time>
      </trkpt>
      <trkpt lat="44.69921" lon="5.99809">
        <ele>1479</ele>
        <time>2021-09-20T12:52:15Z</time>
      </trkpt>
      <trkpt lat="44.69921" lon="5.9981">
        <ele>1479</ele>
        <time>2021-09-20T12:52:16Z</time>
      </trkpt>
      <trkpt lat="44.69921" lon="5.9981">
        <ele>1479</ele>
        <time>2021-09-20T12:52:17Z</time>
      </trkpt>
      <trkpt lat="44.69921" lon="5.99811">
        <ele>1479</ele>
        <time>2021-09-20T12:52:18Z</time>
      </trkpt>
      <trkpt lat="44.6992" lon="5.99811">
        <ele>1479</ele>
        <time>2021-09-20T12:52:19Z</time>
      </trkpt>
      <trkpt lat="44.6992" lon="5.99811">
        <ele>1479</ele>
        <time>2021-09-20T12:52:20Z</time>
      </trkpt>
      <trkpt lat="44.6992" lon="5.99812">
        <ele>1479</ele>
        <time>2021-09-20T12:52:21Z</time>
      </trkpt>
      <trkpt lat="44.6992" lon="5.99812">
        <ele>1479</ele>
        <time>2021-09-20T12:52:22Z</time>
      </trkpt>
      <trkpt lat="44.6992" lon="5.99812">
        <ele>1479</ele>
        <time>2021-09-20T12:52:23Z</time>
      </trkpt>
      <trkpt lat="44.6992" lon="5.99813">
        <ele>1479</ele>
        <time>2021-09-20T12:52:24Z</time>
      </trkpt>
      <trkpt lat="44.6992" lon="5.99813">
        <ele>1479</ele>
        <time>2021-09-20T12:52:37Z</time>
      </trkpt>
      <trkpt lat="44.69921" lon="5.99813">
        <ele>1479</ele>
        <time>2021-09-20T12:52:38Z</time>
      </trkpt>
      <trkpt lat="44.69921" lon="5.99814">
        <ele>1479</ele>
        <time>2021-09-20T12:52:39Z</time>
      </trkpt>
      <trkpt lat="44.69922" lon="5.99813">
        <ele>1479</ele>
        <time>2021-09-20T12:52:40Z</time>
      </trkpt>
      <trkpt lat="44.69922" lon="5.99813">
        <ele>1479</ele>
        <time>2021-09-20T12:52:41Z</time>
      </trkpt>
      <trkpt lat="44.69922" lon="5.99812">
        <ele>1479</ele>
        <time>2021-09-20T12:52:42Z</time>
      </trkpt>
      <trkpt lat="44.69923" lon="5.99812">
        <ele>1479</ele>
        <time>2021-09-20T12:52:43Z</time>
      </trkpt>
      <trkpt lat="44.69923" lon="5.99811">
        <ele>1478</ele>
        <time>2021-09-20T12:53:14Z</time>
      </trkpt>
      <trkpt lat="44.69923" lon="5.99811">
        <ele>1478</ele>
        <time>2021-09-20T12:53:15Z</time>
      </trkpt>
      <trkpt lat="44.69924" lon="5.9981">
        <ele>1478</ele>
        <time>2021-09-20T12:53:16Z</time>
      </trkpt>
      <trkpt lat="44.69924" lon="5.99811">
        <ele>1478</ele>
        <time>2021-09-20T12:53:17Z</time>
      </trkpt>
      <trkpt lat="44.69924" lon="5.99811">
        <ele>1478</ele>
        <time>2021-09-20T12:53:18Z</time>
      </trkpt>
      <trkpt lat="44.69925" lon="5.99811">
        <ele>1478</ele>
        <time>2021-09-20T12:53:19Z</time>
      </trkpt>
      <trkpt lat="44.69925" lon="5.99811">
        <ele>1478</ele>
        <time>2021-09-20T12:53:20Z</time>
      </trkpt>
      <trkpt lat="44.69925" lon="5.99811">
        <ele>1478</ele>
        <time>2021-09-20T12:53:21Z</time>
      </trkpt>
      <trkpt lat="44.69925" lon="5.99811">
        <ele>1478</ele>
        <time>2021-09-20T12:53:22Z</time>
      </trkpt>
      <trkpt lat="44.69925" lon="5.99811">
        <ele>1478</ele>
        <time>2021-09-20T12:53:23Z</time>
      </trkpt>
      <trkpt lat="44.69925" lon="5.99811">
        <ele>1478</ele>
        <time>2021-09-20T12:53:24Z</time>
      </trkpt>
      <trkpt lat="44.69925" lon="5.99811">
        <ele>1478</ele>
        <time>2021-09-20T12:53:25Z</time>
      </trkpt>
      <trkpt lat="44.69925" lon="5.9981">
        <ele>1478</ele>
        <time>2021-09-20T12:53:26Z</time>
      </trkpt>
      <trkpt lat="44.69925" lon="5.9981">
        <ele>1478</ele>
        <time>2021-09-20T12:53:27Z</time>
      </trkpt>
      <trkpt lat="44.69925" lon="5.9981">
        <ele>1478</ele>
        <time>2021-09-20T12:53:28Z</time>
      </trkpt>
      <trkpt lat="44.69924" lon="5.9981">
        <ele>1478</ele>
        <time>2021-09-20T12:53:29Z</time>
      </trkpt>
      <trkpt lat="44.69924" lon="5.99809">
        <ele>1478</ele>
        <time>2021-09-20T12:53:30Z</time>
      </trkpt>
      <trkpt lat="44.69924" lon="5.99809">
        <ele>1478</ele>
        <time>2021-09-20T12:53:31Z</time>
      </trkpt>
      <trkpt lat="44.69923" lon="5.99809">
        <ele>1478</ele>
        <time>2021-09-20T12:53:32Z</time>
      </trkpt>
      <trkpt lat="44.69923" lon="5.9981">
        <ele>1478</ele>
        <time>2021-09-20T12:53:33Z</time>
      </trkpt>
      <trkpt lat="44.69923" lon="5.99811">
        <ele>1478</ele>
        <time>2021-09-20T12:53:34Z</time>
      </trkpt>
      <trkpt lat="44.69922" lon="5.99811">
        <ele>1478</ele>
        <time>2021-09-20T12:53:35Z</time>
      </trkpt>
      <trkpt lat="44.69922" lon="5.99812">
        <ele>1478</ele>
        <time>2021-09-20T12:53:36Z</time>
      </trkpt>
      <trkpt lat="44.69923" lon="5.99812">
        <ele>1478</ele>
        <time>2021-09-20T12:53:51Z</time>
      </trkpt>
      <trkpt lat="44.69923" lon="5.99811">
        <ele>1478</ele>
        <time>2021-09-20T12:53:52Z</time>
      </trkpt>
      <trkpt lat="44.69922" lon="5.9981">
        <ele>1478</ele>
        <time>2021-09-20T12:53:53Z</time>
      </trkpt>
      <trkpt lat="44.69922" lon="5.99809">
        <ele>1478</ele>
        <time>2021-09-20T12:53:54Z</time>
      </trkpt>
    </trkseg>
  </trk>
</gpx>